<?xml version="1.0" encoding="UTF-8" standalone="no" ?>
<gpx xmlns="http://www.topografix.com/GPX/1/1" xmlns:gpxtpx="http://www.garmin.com/xmlschemas/TrackPointExtension/v1" creator="OruxMaps v.6.0.7 Donate" version="1.1" xmlns:xsi="http://www.w3.org/2001/XMLSchema-instance" xsi:schemaLocation="http://www.topografix.com/GPX/1/1 http://www.topografix.com/GPX/1/1/gpx.xsd">
<metadata>
<name><![CDATA[2015-04-24 17:49]]></name>
<desc><![CDATA[]]></desc>
<link href="http://www.oruxmaps.com">
<text>OruxMaps</text>
</link>
<time>2015-04-24T14:49:15Z</time><bounds maxlat="35.1108582" maxlon="32.5078915" minlat="34.7772282" minlon="32.3628718"/>
</metadata>
<trk>
<name><![CDATA[2015-04-24 17:49]]></name>
<desc><![CDATA[<h1>OruxMaps</h1><br /><hr align="center" width="480" style="height: 2px; width: 517px"/><h2>Name: 2015-04-24 17:49</h2><br /><p>Start time: 04/24/2015 17:49</p><p>Finish time: 04/24/2015 22:14</p><p>Distance: 53.3km (04:25)</p><p>Moving time: 03:19</p><p>Average speed: 12.1km/h</p><p>Avg. Speed Mov.: 16km/h</p><p>Max. Speed: 57.3km/h</p><p>Minimum altitude: 8m</p><p>Maximum altitude: 664m</p><p>Ascent speed: 497.7m/h</p><p>Descent speed: -1145.4m/h</p><p>Elevation gain: 1043m</p><p>Elevation loss: -1096m</p><p>Ascent time: 02:05</p><p>Descent time: 00:57</p><hr align="center" width="480" style="height: 2px; width: 517px"/>]]></desc>
<type>Undefined</type>
<extensions>
<om:oruxmapsextensions xmlns:om="http://www.oruxmaps.com/oruxmapsextensions/1/0">
<om:ext type="TYPE" subtype="0">0</om:ext>
</om:oruxmapsextensions>
</extensions>
<trkseg>
<trkpt lat="34.7788826" lon="32.4223243">
<ele>82.93</ele>
<time>2015-04-24T14:49:17Z</time>
</trkpt>
<trkpt lat="34.7789096" lon="32.4224140">
<ele>82.80</ele>
<time>2015-04-24T14:49:20Z</time>
</trkpt>
<trkpt lat="34.7789328" lon="32.4224950">
<ele>80.14</ele>
<time>2015-04-24T14:49:22Z</time>
</trkpt>
<trkpt lat="34.7788978" lon="32.4224515">
<ele>81.43</ele>
<time>2015-04-24T14:53:04Z</time>
</trkpt>
<trkpt lat="34.7788753" lon="32.4223952">
<ele>83.11</ele>
<time>2015-04-24T14:53:07Z</time>
</trkpt>
<trkpt lat="34.7788477" lon="32.4223357">
<ele>85.57</ele>
<time>2015-04-24T14:53:10Z</time>
</trkpt>
<trkpt lat="34.7787914" lon="32.4223399">
<ele>84.51</ele>
<time>2015-04-24T14:53:13Z</time>
</trkpt>
<trkpt lat="34.7787435" lon="32.4223896">
<ele>84.00</ele>
<time>2015-04-24T14:53:16Z</time>
</trkpt>
<trkpt lat="34.7786894" lon="32.4224190">
<ele>83.94</ele>
<time>2015-04-24T14:53:18Z</time>
</trkpt>
<trkpt lat="34.7786374" lon="32.4224455">
<ele>84.43</ele>
<time>2015-04-24T14:53:20Z</time>
</trkpt>
<trkpt lat="34.7785902" lon="32.4224864">
<ele>84.80</ele>
<time>2015-04-24T14:53:22Z</time>
</trkpt>
<trkpt lat="34.7785314" lon="32.4225219">
<ele>84.39</ele>
<time>2015-04-24T14:53:24Z</time>
</trkpt>
<trkpt lat="34.7784702" lon="32.4225528">
<ele>83.79</ele>
<time>2015-04-24T14:53:26Z</time>
</trkpt>
<trkpt lat="34.7784128" lon="32.4225841">
<ele>83.14</ele>
<time>2015-04-24T14:53:28Z</time>
</trkpt>
<trkpt lat="34.7783551" lon="32.4226122">
<ele>82.98</ele>
<time>2015-04-24T14:53:30Z</time>
</trkpt>
<trkpt lat="34.7782980" lon="32.4226395">
<ele>82.94</ele>
<time>2015-04-24T14:53:32Z</time>
</trkpt>
<trkpt lat="34.7782317" lon="32.4226640">
<ele>82.93</ele>
<time>2015-04-24T14:53:34Z</time>
</trkpt>
<trkpt lat="34.7781579" lon="32.4226798">
<ele>82.43</ele>
<time>2015-04-24T14:53:36Z</time>
</trkpt>
<trkpt lat="34.7780887" lon="32.4226910">
<ele>82.80</ele>
<time>2015-04-24T14:53:38Z</time>
</trkpt>
<trkpt lat="34.7780308" lon="32.4226976">
<ele>82.14</ele>
<time>2015-04-24T14:53:40Z</time>
</trkpt>
<trkpt lat="34.7779795" lon="32.4227059">
<ele>81.48</ele>
<time>2015-04-24T14:53:42Z</time>
</trkpt>
<trkpt lat="34.7779263" lon="32.4227149">
<ele>81.88</ele>
<time>2015-04-24T14:53:47Z</time>
</trkpt>
<trkpt lat="34.7778736" lon="32.4226882">
<ele>81.16</ele>
<time>2015-04-24T14:53:49Z</time>
</trkpt>
<trkpt lat="34.7778275" lon="32.4226282">
<ele>80.98</ele>
<time>2015-04-24T14:53:51Z</time>
</trkpt>
<trkpt lat="34.7778156" lon="32.4225610">
<ele>80.94</ele>
<time>2015-04-24T14:53:53Z</time>
</trkpt>
<trkpt lat="34.7778184" lon="32.4224969">
<ele>81.43</ele>
<time>2015-04-24T14:53:55Z</time>
</trkpt>
<trkpt lat="34.7778207" lon="32.4224346">
<ele>81.80</ele>
<time>2015-04-24T14:53:57Z</time>
</trkpt>
<trkpt lat="34.7777976" lon="32.4223859">
<ele>82.14</ele>
<time>2015-04-24T14:53:59Z</time>
</trkpt>
<trkpt lat="34.7777527" lon="32.4223679">
<ele>81.23</ele>
<time>2015-04-24T14:54:01Z</time>
</trkpt>
<trkpt lat="34.7777571" lon="32.4222996">
<ele>82.09</ele>
<time>2015-04-24T14:54:07Z</time>
</trkpt>
<trkpt lat="34.7777364" lon="32.4222228">
<ele>83.22</ele>
<time>2015-04-24T14:54:09Z</time>
</trkpt>
<trkpt lat="34.7777057" lon="32.4221325">
<ele>83.50</ele>
<time>2015-04-24T14:54:11Z</time>
</trkpt>
<trkpt lat="34.7776725" lon="32.4220416">
<ele>83.07</ele>
<time>2015-04-24T14:54:13Z</time>
</trkpt>
<trkpt lat="34.7776431" lon="32.4219493">
<ele>82.21</ele>
<time>2015-04-24T14:54:15Z</time>
</trkpt>
<trkpt lat="34.7776242" lon="32.4218669">
<ele>82.50</ele>
<time>2015-04-24T14:54:17Z</time>
</trkpt>
<trkpt lat="34.7776150" lon="32.4217960">
<ele>83.32</ele>
<time>2015-04-24T14:54:19Z</time>
</trkpt>
<trkpt lat="34.7776185" lon="32.4217230">
<ele>85.10</ele>
<time>2015-04-24T14:54:22Z</time>
</trkpt>
<trkpt lat="34.7776163" lon="32.4216655">
<ele>85.72</ele>
<time>2015-04-24T14:54:24Z</time>
</trkpt>
<trkpt lat="34.7776286" lon="32.4216086">
<ele>84.62</ele>
<time>2015-04-24T14:54:26Z</time>
</trkpt>
<trkpt lat="34.7776602" lon="32.4215664">
<ele>82.85</ele>
<time>2015-04-24T14:54:28Z</time>
</trkpt>
<trkpt lat="34.7776845" lon="32.4215126">
<ele>82.04</ele>
<time>2015-04-24T14:54:31Z</time>
</trkpt>
<trkpt lat="34.7776850" lon="32.4214405">
<ele>80.56</ele>
<time>2015-04-24T14:54:34Z</time>
</trkpt>
<trkpt lat="34.7776697" lon="32.4213494">
<ele>79.08</ele>
<time>2015-04-24T14:54:36Z</time>
</trkpt>
<trkpt lat="34.7776587" lon="32.4212960">
<ele>78.50</ele>
<time>2015-04-24T14:54:37Z</time>
</trkpt>
<trkpt lat="34.7776460" lon="32.4212424">
<ele>78.21</ele>
<time>2015-04-24T14:54:38Z</time>
</trkpt>
<trkpt lat="34.7776318" lon="32.4211899">
<ele>78.07</ele>
<time>2015-04-24T14:54:39Z</time>
</trkpt>
<trkpt lat="34.7775982" lon="32.4210952">
<ele>78.46</ele>
<time>2015-04-24T14:54:41Z</time>
</trkpt>
<trkpt lat="34.7775531" lon="32.4210084">
<ele>77.56</ele>
<time>2015-04-24T14:54:43Z</time>
</trkpt>
<trkpt lat="34.7775003" lon="32.4209297">
<ele>77.08</ele>
<time>2015-04-24T14:54:45Z</time>
</trkpt>
<trkpt lat="34.7774371" lon="32.4208678">
<ele>77.21</ele>
<time>2015-04-24T14:54:47Z</time>
</trkpt>
<trkpt lat="34.7773712" lon="32.4208167">
<ele>77.00</ele>
<time>2015-04-24T14:54:49Z</time>
</trkpt>
<trkpt lat="34.7773058" lon="32.4207608">
<ele>76.44</ele>
<time>2015-04-24T14:54:51Z</time>
</trkpt>
<trkpt lat="34.7772528" lon="32.4207040">
<ele>74.80</ele>
<time>2015-04-24T14:54:53Z</time>
</trkpt>
<trkpt lat="34.7772282" lon="32.4206442">
<ele>75.04</ele>
<time>2015-04-24T14:54:57Z</time>
</trkpt>
<trkpt lat="34.7772681" lon="32.4206081">
<ele>74.70</ele>
<time>2015-04-24T14:54:59Z</time>
</trkpt>
<trkpt lat="34.7773372" lon="32.4205725">
<ele>74.37</ele>
<time>2015-04-24T14:55:01Z</time>
</trkpt>
<trkpt lat="34.7774048" lon="32.4205369">
<ele>74.79</ele>
<time>2015-04-24T14:55:03Z</time>
</trkpt>
<trkpt lat="34.7774698" lon="32.4205012">
<ele>74.89</ele>
<time>2015-04-24T14:55:05Z</time>
</trkpt>
<trkpt lat="34.7775230" lon="32.4204706">
<ele>73.42</ele>
<time>2015-04-24T14:55:07Z</time>
</trkpt>
<trkpt lat="34.7775674" lon="32.4204332">
<ele>71.24</ele>
<time>2015-04-24T14:55:10Z</time>
</trkpt>
<trkpt lat="34.7776108" lon="32.4203917">
<ele>71.67</ele>
<time>2015-04-24T14:55:27Z</time>
</trkpt>
<trkpt lat="34.7776629" lon="32.4203426">
<ele>70.61</ele>
<time>2015-04-24T14:55:29Z</time>
</trkpt>
<trkpt lat="34.7777254" lon="32.4202782">
<ele>70.60</ele>
<time>2015-04-24T14:55:31Z</time>
</trkpt>
<trkpt lat="34.7777862" lon="32.4202098">
<ele>70.84</ele>
<time>2015-04-24T14:55:33Z</time>
</trkpt>
<trkpt lat="34.7778482" lon="32.4201456">
<ele>70.90</ele>
<time>2015-04-24T14:55:35Z</time>
</trkpt>
<trkpt lat="34.7778992" lon="32.4200711">
<ele>70.17</ele>
<time>2015-04-24T14:55:37Z</time>
</trkpt>
<trkpt lat="34.7779513" lon="32.4199962">
<ele>70.74</ele>
<time>2015-04-24T14:55:39Z</time>
</trkpt>
<trkpt lat="34.7780079" lon="32.4199234">
<ele>70.13</ele>
<time>2015-04-24T14:55:41Z</time>
</trkpt>
<trkpt lat="34.7780498" lon="32.4198647">
<ele>70.53</ele>
<time>2015-04-24T14:55:42Z</time>
</trkpt>
<trkpt lat="34.7781071" lon="32.4197884">
<ele>70.58</ele>
<time>2015-04-24T14:55:44Z</time>
</trkpt>
<trkpt lat="34.7781674" lon="32.4197218">
<ele>70.84</ele>
<time>2015-04-24T14:55:46Z</time>
</trkpt>
<trkpt lat="34.7782172" lon="32.4196378">
<ele>70.90</ele>
<time>2015-04-24T14:55:48Z</time>
</trkpt>
<trkpt lat="34.7782678" lon="32.4195834">
<ele>70.17</ele>
<time>2015-04-24T14:55:50Z</time>
</trkpt>
<trkpt lat="34.7783180" lon="32.4195519">
<ele>69.99</ele>
<time>2015-04-24T14:55:52Z</time>
</trkpt>
<trkpt lat="34.7783695" lon="32.4195846">
<ele>68.94</ele>
<time>2015-04-24T14:55:54Z</time>
</trkpt>
<trkpt lat="34.7784114" lon="32.4196140">
<ele>67.68</ele>
<time>2015-04-24T14:55:56Z</time>
</trkpt>
<trkpt lat="34.7784693" lon="32.4196310">
<ele>66.61</ele>
<time>2015-04-24T14:55:58Z</time>
</trkpt>
<trkpt lat="34.7785285" lon="32.4196570">
<ele>68.10</ele>
<time>2015-04-24T14:56:00Z</time>
</trkpt>
<trkpt lat="34.7785922" lon="32.4196907">
<ele>69.72</ele>
<time>2015-04-24T14:56:02Z</time>
</trkpt>
<trkpt lat="34.7786568" lon="32.4197330">
<ele>72.62</ele>
<time>2015-04-24T14:56:04Z</time>
</trkpt>
<trkpt lat="34.7787212" lon="32.4197664">
<ele>74.10</ele>
<time>2015-04-24T14:56:06Z</time>
</trkpt>
<trkpt lat="34.7787764" lon="32.4198069">
<ele>73.47</ele>
<time>2015-04-24T14:56:08Z</time>
</trkpt>
<trkpt lat="34.7787921" lon="32.4198877">
<ele>75.31</ele>
<time>2015-04-24T14:56:10Z</time>
</trkpt>
<trkpt lat="34.7788320" lon="32.4199387">
<ele>77.60</ele>
<time>2015-04-24T14:56:13Z</time>
</trkpt>
<trkpt lat="34.7788959" lon="32.4199052">
<ele>74.09</ele>
<time>2015-04-24T14:56:15Z</time>
</trkpt>
<trkpt lat="34.7789608" lon="32.4198551">
<ele>71.97</ele>
<time>2015-04-24T14:56:17Z</time>
</trkpt>
<trkpt lat="34.7790256" lon="32.4197979">
<ele>70.69</ele>
<time>2015-04-24T14:56:19Z</time>
</trkpt>
<trkpt lat="34.7790840" lon="32.4197183">
<ele>70.62</ele>
<time>2015-04-24T14:56:21Z</time>
</trkpt>
<trkpt lat="34.7791430" lon="32.4196476">
<ele>70.60</ele>
<time>2015-04-24T14:56:23Z</time>
</trkpt>
<trkpt lat="34.7792073" lon="32.4195897">
<ele>70.84</ele>
<time>2015-04-24T14:56:25Z</time>
</trkpt>
<trkpt lat="34.7792711" lon="32.4195378">
<ele>70.90</ele>
<time>2015-04-24T14:56:27Z</time>
</trkpt>
<trkpt lat="34.7793257" lon="32.4195035">
<ele>70.92</ele>
<time>2015-04-24T14:56:29Z</time>
</trkpt>
<trkpt lat="34.7793734" lon="32.4194626">
<ele>70.92</ele>
<time>2015-04-24T14:56:32Z</time>
</trkpt>
<trkpt lat="34.7794198" lon="32.4193946">
<ele>70.80</ele>
<time>2015-04-24T14:56:35Z</time>
</trkpt>
<trkpt lat="34.7794700" lon="32.4193356">
<ele>71.64</ele>
<time>2015-04-24T14:56:37Z</time>
</trkpt>
<trkpt lat="34.7795296" lon="32.4192843">
<ele>71.85</ele>
<time>2015-04-24T14:56:39Z</time>
</trkpt>
<trkpt lat="34.7795896" lon="32.4192325">
<ele>72.66</ele>
<time>2015-04-24T14:56:41Z</time>
</trkpt>
<trkpt lat="34.7796422" lon="32.4191764">
<ele>72.86</ele>
<time>2015-04-24T14:56:43Z</time>
</trkpt>
<trkpt lat="34.7796864" lon="32.4191116">
<ele>72.91</ele>
<time>2015-04-24T14:56:45Z</time>
</trkpt>
<trkpt lat="34.7797251" lon="32.4190500">
<ele>72.92</ele>
<time>2015-04-24T14:56:47Z</time>
</trkpt>
<trkpt lat="34.7797491" lon="32.4189909">
<ele>72.42</ele>
<time>2015-04-24T14:56:49Z</time>
</trkpt>
<trkpt lat="34.7797701" lon="32.4189201">
<ele>72.80</ele>
<time>2015-04-24T14:56:51Z</time>
</trkpt>
<trkpt lat="34.7797899" lon="32.4188411">
<ele>72.89</ele>
<time>2015-04-24T14:56:53Z</time>
</trkpt>
<trkpt lat="34.7798096" lon="32.4187712">
<ele>72.92</ele>
<time>2015-04-24T14:56:55Z</time>
</trkpt>
<trkpt lat="34.7798311" lon="32.4186956">
<ele>72.05</ele>
<time>2015-04-24T14:56:58Z</time>
</trkpt>
<trkpt lat="34.7798542" lon="32.4186326">
<ele>71.96</ele>
<time>2015-04-24T14:57:00Z</time>
</trkpt>
<trkpt lat="34.7799104" lon="32.4185425">
<ele>72.68</ele>
<time>2015-04-24T14:57:02Z</time>
</trkpt>
<trkpt lat="34.7799658" lon="32.4185044">
<ele>72.80</ele>
<time>2015-04-24T14:57:03Z</time>
</trkpt>
<trkpt lat="34.7800306" lon="32.4184358">
<ele>71.14</ele>
<time>2015-04-24T14:57:05Z</time>
</trkpt>
<trkpt lat="34.7800671" lon="32.4184000">
<ele>71.03</ele>
<time>2015-04-24T14:57:06Z</time>
</trkpt>
<trkpt lat="34.7801086" lon="32.4183718">
<ele>70.98</ele>
<time>2015-04-24T14:57:07Z</time>
</trkpt>
<trkpt lat="34.7801510" lon="32.4183406">
<ele>71.45</ele>
<time>2015-04-24T14:57:08Z</time>
</trkpt>
<trkpt lat="34.7802010" lon="32.4183070">
<ele>71.19</ele>
<time>2015-04-24T14:57:09Z</time>
</trkpt>
<trkpt lat="34.7802492" lon="32.4182815">
<ele>71.56</ele>
<time>2015-04-24T14:57:10Z</time>
</trkpt>
<trkpt lat="34.7802917" lon="32.4182515">
<ele>70.74</ele>
<time>2015-04-24T14:57:11Z</time>
</trkpt>
<trkpt lat="34.7803475" lon="32.4182346">
<ele>70.33</ele>
<time>2015-04-24T14:57:12Z</time>
</trkpt>
<trkpt lat="34.7803935" lon="32.4182092">
<ele>69.63</ele>
<time>2015-04-24T14:57:13Z</time>
</trkpt>
<trkpt lat="34.7804416" lon="32.4181907">
<ele>69.28</ele>
<time>2015-04-24T14:57:14Z</time>
</trkpt>
<trkpt lat="34.7804874" lon="32.4181703">
<ele>69.10</ele>
<time>2015-04-24T14:57:15Z</time>
</trkpt>
<trkpt lat="34.7805327" lon="32.4181536">
<ele>69.01</ele>
<time>2015-04-24T14:57:16Z</time>
</trkpt>
<trkpt lat="34.7806250" lon="32.4181154">
<ele>69.45</ele>
<time>2015-04-24T14:57:18Z</time>
</trkpt>
<trkpt lat="34.7807036" lon="32.4180796">
<ele>70.31</ele>
<time>2015-04-24T14:57:20Z</time>
</trkpt>
<trkpt lat="34.7807799" lon="32.4180464">
<ele>70.77</ele>
<time>2015-04-24T14:57:22Z</time>
</trkpt>
<trkpt lat="34.7808437" lon="32.4179867">
<ele>70.14</ele>
<time>2015-04-24T14:57:24Z</time>
</trkpt>
<trkpt lat="34.7808966" lon="32.4179547">
<ele>69.98</ele>
<time>2015-04-24T14:57:26Z</time>
</trkpt>
<trkpt lat="34.7809473" lon="32.4179335">
<ele>69.94</ele>
<time>2015-04-24T14:57:28Z</time>
</trkpt>
<trkpt lat="34.7810072" lon="32.4179049">
<ele>71.18</ele>
<time>2015-04-24T14:57:30Z</time>
</trkpt>
<trkpt lat="34.7810647" lon="32.4178732">
<ele>72.24</ele>
<time>2015-04-24T14:57:32Z</time>
</trkpt>
<trkpt lat="34.7811195" lon="32.4178459">
<ele>73.25</ele>
<time>2015-04-24T14:57:34Z</time>
</trkpt>
<trkpt lat="34.7811680" lon="32.4178090">
<ele>74.76</ele>
<time>2015-04-24T14:57:36Z</time>
</trkpt>
<trkpt lat="34.7811774" lon="32.4177370">
<ele>75.88</ele>
<time>2015-04-24T14:57:38Z</time>
</trkpt>
<trkpt lat="34.7811783" lon="32.4176607">
<ele>76.16</ele>
<time>2015-04-24T14:57:40Z</time>
</trkpt>
<trkpt lat="34.7811832" lon="32.4176008">
<ele>76.48</ele>
<time>2015-04-24T14:57:42Z</time>
</trkpt>
<trkpt lat="34.7812031" lon="32.4175308">
<ele>76.87</ele>
<time>2015-04-24T14:57:45Z</time>
</trkpt>
<trkpt lat="34.7812449" lon="32.4174679">
<ele>76.92</ele>
<time>2015-04-24T14:57:48Z</time>
</trkpt>
<trkpt lat="34.7812896" lon="32.4174286">
<ele>78.42</ele>
<time>2015-04-24T14:57:51Z</time>
</trkpt>
<trkpt lat="34.7813186" lon="32.4173731">
<ele>79.74</ele>
<time>2015-04-24T14:57:54Z</time>
</trkpt>
<trkpt lat="34.7813440" lon="32.4173070">
<ele>80.40</ele>
<time>2015-04-24T14:57:57Z</time>
</trkpt>
<trkpt lat="34.7813766" lon="32.4172521">
<ele>81.36</ele>
<time>2015-04-24T14:58:00Z</time>
</trkpt>
<trkpt lat="34.7813968" lon="32.4171920">
<ele>81.48</ele>
<time>2015-04-24T14:58:03Z</time>
</trkpt>
<trkpt lat="34.7814202" lon="32.4171350">
<ele>81.81</ele>
<time>2015-04-24T14:58:05Z</time>
</trkpt>
<trkpt lat="34.7814630" lon="32.4170796">
<ele>81.90</ele>
<time>2015-04-24T14:58:07Z</time>
</trkpt>
<trkpt lat="34.7815074" lon="32.4170223">
<ele>81.92</ele>
<time>2015-04-24T14:58:09Z</time>
</trkpt>
<trkpt lat="34.7815451" lon="32.4169603">
<ele>81.92</ele>
<time>2015-04-24T14:58:11Z</time>
</trkpt>
<trkpt lat="34.7815657" lon="32.4168876">
<ele>82.42</ele>
<time>2015-04-24T14:58:13Z</time>
</trkpt>
<trkpt lat="34.7815757" lon="32.4168153">
<ele>82.30</ele>
<time>2015-04-24T14:58:15Z</time>
</trkpt>
<trkpt lat="34.7815634" lon="32.4167464">
<ele>82.02</ele>
<time>2015-04-24T14:58:17Z</time>
</trkpt>
<trkpt lat="34.7815332" lon="32.4166879">
<ele>81.45</ele>
<time>2015-04-24T14:58:19Z</time>
</trkpt>
<trkpt lat="34.7815207" lon="32.4166218">
<ele>81.74</ele>
<time>2015-04-24T14:58:22Z</time>
</trkpt>
<trkpt lat="34.7815294" lon="32.4165658">
<ele>85.04</ele>
<time>2015-04-24T14:58:26Z</time>
</trkpt>
<trkpt lat="34.7815261" lon="32.4164991">
<ele>86.77</ele>
<time>2015-04-24T14:58:31Z</time>
</trkpt>
<trkpt lat="34.7815144" lon="32.4164421">
<ele>87.67</ele>
<time>2015-04-24T14:58:35Z</time>
</trkpt>
<trkpt lat="34.7814934" lon="32.4163676">
<ele>87.89</ele>
<time>2015-04-24T14:58:38Z</time>
</trkpt>
<trkpt lat="34.7814701" lon="32.4162994">
<ele>87.17</ele>
<time>2015-04-24T14:58:40Z</time>
</trkpt>
<trkpt lat="34.7814487" lon="32.4162247">
<ele>86.49</ele>
<time>2015-04-24T14:58:42Z</time>
</trkpt>
<trkpt lat="34.7814359" lon="32.4161712">
<ele>85.71</ele>
<time>2015-04-24T14:58:43Z</time>
</trkpt>
<trkpt lat="34.7814234" lon="32.4161028">
<ele>84.82</ele>
<time>2015-04-24T14:58:44Z</time>
</trkpt>
<trkpt lat="34.7814021" lon="32.4159916">
<ele>83.37</ele>
<time>2015-04-24T14:58:45Z</time>
</trkpt>
<trkpt lat="34.7813923" lon="32.4158962">
<ele>81.65</ele>
<time>2015-04-24T14:58:46Z</time>
</trkpt>
<trkpt lat="34.7813814" lon="32.4157906">
<ele>79.79</ele>
<time>2015-04-24T14:58:47Z</time>
</trkpt>
<trkpt lat="34.7813707" lon="32.4156842">
<ele>77.86</ele>
<time>2015-04-24T14:58:48Z</time>
</trkpt>
<trkpt lat="34.7813570" lon="32.4155655">
<ele>76.39</ele>
<time>2015-04-24T14:58:49Z</time>
</trkpt>
<trkpt lat="34.7813430" lon="32.4154505">
<ele>75.16</ele>
<time>2015-04-24T14:58:50Z</time>
</trkpt>
<trkpt lat="34.7813412" lon="32.4153419">
<ele>74.54</ele>
<time>2015-04-24T14:58:51Z</time>
</trkpt>
<trkpt lat="34.7813424" lon="32.4152377">
<ele>73.73</ele>
<time>2015-04-24T14:58:52Z</time>
</trkpt>
<trkpt lat="34.7813442" lon="32.4151330">
<ele>72.83</ele>
<time>2015-04-24T14:58:53Z</time>
</trkpt>
<trkpt lat="34.7813500" lon="32.4150271">
<ele>71.88</ele>
<time>2015-04-24T14:58:54Z</time>
</trkpt>
<trkpt lat="34.7813603" lon="32.4149236">
<ele>71.40</ele>
<time>2015-04-24T14:58:55Z</time>
</trkpt>
<trkpt lat="34.7813671" lon="32.4148137">
<ele>70.66</ele>
<time>2015-04-24T14:58:56Z</time>
</trkpt>
<trkpt lat="34.7813907" lon="32.4147141">
<ele>69.79</ele>
<time>2015-04-24T14:58:57Z</time>
</trkpt>
<trkpt lat="34.7814102" lon="32.4146159">
<ele>68.86</ele>
<time>2015-04-24T14:58:58Z</time>
</trkpt>
<trkpt lat="34.7814321" lon="32.4145168">
<ele>67.89</ele>
<time>2015-04-24T14:58:59Z</time>
</trkpt>
<trkpt lat="34.7814633" lon="32.4144149">
<ele>67.41</ele>
<time>2015-04-24T14:59:00Z</time>
</trkpt>
<trkpt lat="34.7815017" lon="32.4143213">
<ele>66.67</ele>
<time>2015-04-24T14:59:01Z</time>
</trkpt>
<trkpt lat="34.7815431" lon="32.4142345">
<ele>66.80</ele>
<time>2015-04-24T14:59:02Z</time>
</trkpt>
<trkpt lat="34.7815812" lon="32.4141527">
<ele>66.36</ele>
<time>2015-04-24T14:59:03Z</time>
</trkpt>
<trkpt lat="34.7816181" lon="32.4140706">
<ele>65.64</ele>
<time>2015-04-24T14:59:04Z</time>
</trkpt>
<trkpt lat="34.7816546" lon="32.4139972">
<ele>65.28</ele>
<time>2015-04-24T14:59:05Z</time>
</trkpt>
<trkpt lat="34.7816891" lon="32.4139269">
<ele>65.10</ele>
<time>2015-04-24T14:59:06Z</time>
</trkpt>
<trkpt lat="34.7817183" lon="32.4138612">
<ele>64.51</ele>
<time>2015-04-24T14:59:07Z</time>
</trkpt>
<trkpt lat="34.7817456" lon="32.4137987">
<ele>64.22</ele>
<time>2015-04-24T14:59:08Z</time>
</trkpt>
<trkpt lat="34.7817688" lon="32.4137417">
<ele>64.07</ele>
<time>2015-04-24T14:59:09Z</time>
</trkpt>
<trkpt lat="34.7817870" lon="32.4136895">
<ele>64.00</ele>
<time>2015-04-24T14:59:10Z</time>
</trkpt>
<trkpt lat="34.7818064" lon="32.4136397">
<ele>63.96</ele>
<time>2015-04-24T14:59:11Z</time>
</trkpt>
<trkpt lat="34.7818357" lon="32.4135524">
<ele>64.43</ele>
<time>2015-04-24T14:59:13Z</time>
</trkpt>
<trkpt lat="34.7818529" lon="32.4134738">
<ele>64.80</ele>
<time>2015-04-24T14:59:15Z</time>
</trkpt>
<trkpt lat="34.7818749" lon="32.4134149">
<ele>64.89</ele>
<time>2015-04-24T14:59:17Z</time>
</trkpt>
<trkpt lat="34.7819199" lon="32.4134208">
<ele>64.92</ele>
<time>2015-04-24T14:59:20Z</time>
</trkpt>
<trkpt lat="34.7818981" lon="32.4135001">
<ele>65.17</ele>
<time>2015-04-24T14:59:23Z</time>
</trkpt>
<trkpt lat="34.7818739" lon="32.4135633">
<ele>65.49</ele>
<time>2015-04-24T14:59:25Z</time>
</trkpt>
<trkpt lat="34.7818478" lon="32.4136332">
<ele>65.82</ele>
<time>2015-04-24T14:59:27Z</time>
</trkpt>
<trkpt lat="34.7818189" lon="32.4137000">
<ele>65.90</ele>
<time>2015-04-24T14:59:29Z</time>
</trkpt>
<trkpt lat="34.7817759" lon="32.4137530">
<ele>65.42</ele>
<time>2015-04-24T14:59:31Z</time>
</trkpt>
<trkpt lat="34.7817248" lon="32.4138016">
<ele>64.55</ele>
<time>2015-04-24T14:59:33Z</time>
</trkpt>
<trkpt lat="34.7816439" lon="32.4138653">
<ele>63.58</ele>
<time>2015-04-24T14:59:35Z</time>
</trkpt>
<trkpt lat="34.7815827" lon="32.4138971">
<ele>62.75</ele>
<time>2015-04-24T14:59:36Z</time>
</trkpt>
<trkpt lat="34.7815369" lon="32.4139371">
<ele>61.84</ele>
<time>2015-04-24T14:59:37Z</time>
</trkpt>
<trkpt lat="34.7814964" lon="32.4139738">
<ele>61.38</ele>
<time>2015-04-24T14:59:38Z</time>
</trkpt>
<trkpt lat="34.7814518" lon="32.4140192">
<ele>61.15</ele>
<time>2015-04-24T14:59:39Z</time>
</trkpt>
<trkpt lat="34.7814088" lon="32.4140600">
<ele>60.54</ele>
<time>2015-04-24T14:59:40Z</time>
</trkpt>
<trkpt lat="34.7813678" lon="32.4140950">
<ele>59.73</ele>
<time>2015-04-24T14:59:41Z</time>
</trkpt>
<trkpt lat="34.7813232" lon="32.4141292">
<ele>58.83</ele>
<time>2015-04-24T14:59:42Z</time>
</trkpt>
<trkpt lat="34.7812721" lon="32.4141641">
<ele>57.88</ele>
<time>2015-04-24T14:59:43Z</time>
</trkpt>
<trkpt lat="34.7812169" lon="32.4142028">
<ele>56.90</ele>
<time>2015-04-24T14:59:44Z</time>
</trkpt>
<trkpt lat="34.7811623" lon="32.4142430">
<ele>55.91</ele>
<time>2015-04-24T14:59:45Z</time>
</trkpt>
<trkpt lat="34.7811068" lon="32.4142766">
<ele>54.92</ele>
<time>2015-04-24T14:59:46Z</time>
</trkpt>
<trkpt lat="34.7810544" lon="32.4143051">
<ele>53.92</ele>
<time>2015-04-24T14:59:47Z</time>
</trkpt>
<trkpt lat="34.7810062" lon="32.4143183">
<ele>52.92</ele>
<time>2015-04-24T14:59:48Z</time>
</trkpt>
<trkpt lat="34.7809440" lon="32.4143302">
<ele>51.42</ele>
<time>2015-04-24T14:59:50Z</time>
</trkpt>
<trkpt lat="34.7808916" lon="32.4142777">
<ele>51.05</ele>
<time>2015-04-24T14:59:52Z</time>
</trkpt>
<trkpt lat="34.7808962" lon="32.4141913">
<ele>50.96</ele>
<time>2015-04-24T14:59:54Z</time>
</trkpt>
<trkpt lat="34.7809033" lon="32.4141008">
<ele>50.18</ele>
<time>2015-04-24T14:59:56Z</time>
</trkpt>
<trkpt lat="34.7809047" lon="32.4140046">
<ele>49.99</ele>
<time>2015-04-24T14:59:58Z</time>
</trkpt>
<trkpt lat="34.7809120" lon="32.4139151">
<ele>49.44</ele>
<time>2015-04-24T15:00:00Z</time>
</trkpt>
<trkpt lat="34.7809136" lon="32.4138157">
<ele>49.05</ele>
<time>2015-04-24T15:00:02Z</time>
</trkpt>
<trkpt lat="34.7809116" lon="32.4137587">
<ele>49.49</ele>
<time>2015-04-24T15:00:03Z</time>
</trkpt>
<trkpt lat="34.7809059" lon="32.4136968">
<ele>49.71</ele>
<time>2015-04-24T15:00:04Z</time>
</trkpt>
<trkpt lat="34.7808918" lon="32.4136358">
<ele>50.32</ele>
<time>2015-04-24T15:00:05Z</time>
</trkpt>
<trkpt lat="34.7808585" lon="32.4135258">
<ele>50.77</ele>
<time>2015-04-24T15:00:07Z</time>
</trkpt>
<trkpt lat="34.7808420" lon="32.4134707">
<ele>50.35</ele>
<time>2015-04-24T15:00:08Z</time>
</trkpt>
<trkpt lat="34.7808379" lon="32.4133582">
<ele>50.03</ele>
<time>2015-04-24T15:00:10Z</time>
</trkpt>
<trkpt lat="34.7808455" lon="32.4132926">
<ele>49.98</ele>
<time>2015-04-24T15:00:11Z</time>
</trkpt>
<trkpt lat="34.7808493" lon="32.4132166">
<ele>49.45</ele>
<time>2015-04-24T15:00:12Z</time>
</trkpt>
<trkpt lat="34.7808548" lon="32.4131461">
<ele>49.69</ele>
<time>2015-04-24T15:00:13Z</time>
</trkpt>
<trkpt lat="34.7808601" lon="32.4130756">
<ele>50.31</ele>
<time>2015-04-24T15:00:14Z</time>
</trkpt>
<trkpt lat="34.7808588" lon="32.4130071">
<ele>50.62</ele>
<time>2015-04-24T15:00:15Z</time>
</trkpt>
<trkpt lat="34.7808566" lon="32.4129374">
<ele>50.77</ele>
<time>2015-04-24T15:00:16Z</time>
</trkpt>
<trkpt lat="34.7808511" lon="32.4128611">
<ele>50.85</ele>
<time>2015-04-24T15:00:17Z</time>
</trkpt>
<trkpt lat="34.7808423" lon="32.4127871">
<ele>50.39</ele>
<time>2015-04-24T15:00:18Z</time>
</trkpt>
<trkpt lat="34.7808332" lon="32.4127174">
<ele>50.16</ele>
<time>2015-04-24T15:00:19Z</time>
</trkpt>
<trkpt lat="34.7808251" lon="32.4126463">
<ele>50.04</ele>
<time>2015-04-24T15:00:20Z</time>
</trkpt>
<trkpt lat="34.7808259" lon="32.4125779">
<ele>49.98</ele>
<time>2015-04-24T15:00:21Z</time>
</trkpt>
<trkpt lat="34.7808223" lon="32.4125082">
<ele>49.45</ele>
<time>2015-04-24T15:00:22Z</time>
</trkpt>
<trkpt lat="34.7808260" lon="32.4124072">
<ele>48.56</ele>
<time>2015-04-24T15:00:24Z</time>
</trkpt>
<trkpt lat="34.7808124" lon="32.4123514">
<ele>48.83</ele>
<time>2015-04-24T15:00:26Z</time>
</trkpt>
<trkpt lat="34.7807611" lon="32.4123619">
<ele>48.81</ele>
<time>2015-04-24T15:00:32Z</time>
</trkpt>
<trkpt lat="34.7807152" lon="32.4123849">
<ele>48.92</ele>
<time>2015-04-24T15:00:37Z</time>
</trkpt>
<trkpt lat="34.7806705" lon="32.4123398">
<ele>48.92</ele>
<time>2015-04-24T15:00:40Z</time>
</trkpt>
<trkpt lat="34.7806300" lon="32.4122985">
<ele>48.92</ele>
<time>2015-04-24T15:00:42Z</time>
</trkpt>
<trkpt lat="34.7805707" lon="32.4122443">
<ele>48.42</ele>
<time>2015-04-24T15:00:44Z</time>
</trkpt>
<trkpt lat="34.7805252" lon="32.4121536">
<ele>48.05</ele>
<time>2015-04-24T15:00:46Z</time>
</trkpt>
<trkpt lat="34.7805074" lon="32.4120999">
<ele>47.99</ele>
<time>2015-04-24T15:00:47Z</time>
</trkpt>
<trkpt lat="34.7804847" lon="32.4120207">
<ele>47.96</ele>
<time>2015-04-24T15:00:48Z</time>
</trkpt>
<trkpt lat="34.7804581" lon="32.4119566">
<ele>47.44</ele>
<time>2015-04-24T15:00:49Z</time>
</trkpt>
<trkpt lat="34.7804309" lon="32.4118894">
<ele>47.18</ele>
<time>2015-04-24T15:00:50Z</time>
</trkpt>
<trkpt lat="34.7804035" lon="32.4118248">
<ele>46.55</ele>
<time>2015-04-24T15:00:51Z</time>
</trkpt>
<trkpt lat="34.7803780" lon="32.4117543">
<ele>46.24</ele>
<time>2015-04-24T15:00:52Z</time>
</trkpt>
<trkpt lat="34.7803523" lon="32.4116916">
<ele>46.08</ele>
<time>2015-04-24T15:00:53Z</time>
</trkpt>
<trkpt lat="34.7803263" lon="32.4116274">
<ele>46.00</ele>
<time>2015-04-24T15:00:54Z</time>
</trkpt>
<trkpt lat="34.7803006" lon="32.4115555">
<ele>45.46</ele>
<time>2015-04-24T15:00:55Z</time>
</trkpt>
<trkpt lat="34.7802757" lon="32.4114967">
<ele>45.19</ele>
<time>2015-04-24T15:00:56Z</time>
</trkpt>
<trkpt lat="34.7802553" lon="32.4114449">
<ele>45.56</ele>
<time>2015-04-24T15:00:57Z</time>
</trkpt>
<trkpt lat="34.7802304" lon="32.4113986">
<ele>45.74</ele>
<time>2015-04-24T15:00:58Z</time>
</trkpt>
<trkpt lat="34.7802049" lon="32.4113524">
<ele>45.83</ele>
<time>2015-04-24T15:00:59Z</time>
</trkpt>
<trkpt lat="34.7801718" lon="32.4112654">
<ele>45.90</ele>
<time>2015-04-24T15:01:01Z</time>
</trkpt>
<trkpt lat="34.7801418" lon="32.4111700">
<ele>45.92</ele>
<time>2015-04-24T15:01:03Z</time>
</trkpt>
<trkpt lat="34.7800855" lon="32.4110904">
<ele>45.92</ele>
<time>2015-04-24T15:01:05Z</time>
</trkpt>
<trkpt lat="34.7800293" lon="32.4110057">
<ele>45.67</ele>
<time>2015-04-24T15:01:07Z</time>
</trkpt>
<trkpt lat="34.7799998" lon="32.4109560">
<ele>45.80</ele>
<time>2015-04-24T15:01:08Z</time>
</trkpt>
<trkpt lat="34.7799680" lon="32.4109033">
<ele>45.86</ele>
<time>2015-04-24T15:01:09Z</time>
</trkpt>
<trkpt lat="34.7799376" lon="32.4108609">
<ele>45.39</ele>
<time>2015-04-24T15:01:10Z</time>
</trkpt>
<trkpt lat="34.7799034" lon="32.4108161">
<ele>44.66</ele>
<time>2015-04-24T15:01:11Z</time>
</trkpt>
<trkpt lat="34.7798706" lon="32.4107725">
<ele>44.29</ele>
<time>2015-04-24T15:01:12Z</time>
</trkpt>
<trkpt lat="34.7798355" lon="32.4107305">
<ele>44.11</ele>
<time>2015-04-24T15:01:13Z</time>
</trkpt>
<trkpt lat="34.7798008" lon="32.4106780">
<ele>44.02</ele>
<time>2015-04-24T15:01:14Z</time>
</trkpt>
<trkpt lat="34.7797422" lon="32.4105922">
<ele>43.45</ele>
<time>2015-04-24T15:01:16Z</time>
</trkpt>
<trkpt lat="34.7797125" lon="32.4105422">
<ele>43.69</ele>
<time>2015-04-24T15:01:17Z</time>
</trkpt>
<trkpt lat="34.7796785" lon="32.4104926">
<ele>43.31</ele>
<time>2015-04-24T15:01:18Z</time>
</trkpt>
<trkpt lat="34.7796478" lon="32.4104460">
<ele>43.12</ele>
<time>2015-04-24T15:01:19Z</time>
</trkpt>
<trkpt lat="34.7796164" lon="32.4103940">
<ele>42.52</ele>
<time>2015-04-24T15:01:20Z</time>
</trkpt>
<trkpt lat="34.7795871" lon="32.4103434">
<ele>42.22</ele>
<time>2015-04-24T15:01:21Z</time>
</trkpt>
<trkpt lat="34.7795564" lon="32.4102924">
<ele>42.07</ele>
<time>2015-04-24T15:01:22Z</time>
</trkpt>
<trkpt lat="34.7795241" lon="32.4102471">
<ele>42.00</ele>
<time>2015-04-24T15:01:23Z</time>
</trkpt>
<trkpt lat="34.7794932" lon="32.4101986">
<ele>41.96</ele>
<time>2015-04-24T15:01:24Z</time>
</trkpt>
<trkpt lat="34.7794640" lon="32.4101487">
<ele>41.94</ele>
<time>2015-04-24T15:01:25Z</time>
</trkpt>
<trkpt lat="34.7794317" lon="32.4100987">
<ele>41.93</ele>
<time>2015-04-24T15:01:26Z</time>
</trkpt>
<trkpt lat="34.7793996" lon="32.4100480">
<ele>41.43</ele>
<time>2015-04-24T15:01:27Z</time>
</trkpt>
<trkpt lat="34.7793703" lon="32.4099958">
<ele>41.18</ele>
<time>2015-04-24T15:01:28Z</time>
</trkpt>
<trkpt lat="34.7793415" lon="32.4099398">
<ele>41.05</ele>
<time>2015-04-24T15:01:29Z</time>
</trkpt>
<trkpt lat="34.7793155" lon="32.4098813">
<ele>40.99</ele>
<time>2015-04-24T15:01:30Z</time>
</trkpt>
<trkpt lat="34.7792919" lon="32.4098253">
<ele>40.46</ele>
<time>2015-04-24T15:01:31Z</time>
</trkpt>
<trkpt lat="34.7792719" lon="32.4097736">
<ele>40.19</ele>
<time>2015-04-24T15:01:32Z</time>
</trkpt>
<trkpt lat="34.7792522" lon="32.4097138">
<ele>40.06</ele>
<time>2015-04-24T15:01:33Z</time>
</trkpt>
<trkpt lat="34.7792344" lon="32.4096592">
<ele>39.99</ele>
<time>2015-04-24T15:01:34Z</time>
</trkpt>
<trkpt lat="34.7792185" lon="32.4096031">
<ele>39.96</ele>
<time>2015-04-24T15:01:35Z</time>
</trkpt>
<trkpt lat="34.7792055" lon="32.4095452">
<ele>39.44</ele>
<time>2015-04-24T15:01:36Z</time>
</trkpt>
<trkpt lat="34.7791890" lon="32.4094864">
<ele>39.18</ele>
<time>2015-04-24T15:01:37Z</time>
</trkpt>
<trkpt lat="34.7791726" lon="32.4094337">
<ele>39.05</ele>
<time>2015-04-24T15:01:38Z</time>
</trkpt>
<trkpt lat="34.7791651" lon="32.4093781">
<ele>38.99</ele>
<time>2015-04-24T15:01:39Z</time>
</trkpt>
<trkpt lat="34.7791562" lon="32.4093185">
<ele>38.96</ele>
<time>2015-04-24T15:01:40Z</time>
</trkpt>
<trkpt lat="34.7791434" lon="32.4092601">
<ele>38.44</ele>
<time>2015-04-24T15:01:41Z</time>
</trkpt>
<trkpt lat="34.7791295" lon="32.4092024">
<ele>38.18</ele>
<time>2015-04-24T15:01:42Z</time>
</trkpt>
<trkpt lat="34.7791186" lon="32.4091436">
<ele>38.05</ele>
<time>2015-04-24T15:01:43Z</time>
</trkpt>
<trkpt lat="34.7791028" lon="32.4090827">
<ele>37.99</ele>
<time>2015-04-24T15:01:44Z</time>
</trkpt>
<trkpt lat="34.7790913" lon="32.4090242">
<ele>37.46</ele>
<time>2015-04-24T15:01:45Z</time>
</trkpt>
<trkpt lat="34.7790769" lon="32.4089586">
<ele>37.19</ele>
<time>2015-04-24T15:01:46Z</time>
</trkpt>
<trkpt lat="34.7790637" lon="32.4088946">
<ele>36.56</ele>
<time>2015-04-24T15:01:47Z</time>
</trkpt>
<trkpt lat="34.7790483" lon="32.4088309">
<ele>36.24</ele>
<time>2015-04-24T15:01:48Z</time>
</trkpt>
<trkpt lat="34.7790334" lon="32.4087675">
<ele>36.08</ele>
<time>2015-04-24T15:01:49Z</time>
</trkpt>
<trkpt lat="34.7790210" lon="32.4087042">
<ele>35.50</ele>
<time>2015-04-24T15:01:50Z</time>
</trkpt>
<trkpt lat="34.7790133" lon="32.4086448">
<ele>35.21</ele>
<time>2015-04-24T15:01:51Z</time>
</trkpt>
<trkpt lat="34.7789988" lon="32.4085523">
<ele>35.00</ele>
<time>2015-04-24T15:01:53Z</time>
</trkpt>
<trkpt lat="34.7789806" lon="32.4084794">
<ele>34.19</ele>
<time>2015-04-24T15:01:55Z</time>
</trkpt>
<trkpt lat="34.7789639" lon="32.4084273">
<ele>33.99</ele>
<time>2015-04-24T15:01:57Z</time>
</trkpt>
<trkpt lat="34.7789510" lon="32.4083713">
<ele>34.69</ele>
<time>2015-04-24T15:01:59Z</time>
</trkpt>
<trkpt lat="34.7789343" lon="32.4082906">
<ele>34.87</ele>
<time>2015-04-24T15:02:01Z</time>
</trkpt>
<trkpt lat="34.7789140" lon="32.4082024">
<ele>34.91</ele>
<time>2015-04-24T15:02:03Z</time>
</trkpt>
<trkpt lat="34.7788955" lon="32.4080997">
<ele>34.92</ele>
<time>2015-04-24T15:02:05Z</time>
</trkpt>
<trkpt lat="34.7788868" lon="32.4080359">
<ele>34.42</ele>
<time>2015-04-24T15:02:06Z</time>
</trkpt>
<trkpt lat="34.7788773" lon="32.4079765">
<ele>34.17</ele>
<time>2015-04-24T15:02:07Z</time>
</trkpt>
<trkpt lat="34.7788709" lon="32.4079151">
<ele>34.55</ele>
<time>2015-04-24T15:02:08Z</time>
</trkpt>
<trkpt lat="34.7788661" lon="32.4078470">
<ele>34.74</ele>
<time>2015-04-24T15:02:09Z</time>
</trkpt>
<trkpt lat="34.7788427" lon="32.4077586">
<ele>34.88</ele>
<time>2015-04-24T15:02:11Z</time>
</trkpt>
<trkpt lat="34.7788298" lon="32.4076532">
<ele>35.66</ele>
<time>2015-04-24T15:02:13Z</time>
</trkpt>
<trkpt lat="34.7788194" lon="32.4075997">
<ele>35.79</ele>
<time>2015-04-24T15:02:14Z</time>
</trkpt>
<trkpt lat="34.7788096" lon="32.4075447">
<ele>35.86</ele>
<time>2015-04-24T15:02:15Z</time>
</trkpt>
<trkpt lat="34.7787820" lon="32.4074291">
<ele>36.41</ele>
<time>2015-04-24T15:02:17Z</time>
</trkpt>
<trkpt lat="34.7787728" lon="32.4073667">
<ele>36.17</ele>
<time>2015-04-24T15:02:18Z</time>
</trkpt>
<trkpt lat="34.7787566" lon="32.4073128">
<ele>36.05</ele>
<time>2015-04-24T15:02:19Z</time>
</trkpt>
<trkpt lat="34.7787450" lon="32.4072529">
<ele>35.99</ele>
<time>2015-04-24T15:02:20Z</time>
</trkpt>
<trkpt lat="34.7787346" lon="32.4071905">
<ele>35.46</ele>
<time>2015-04-24T15:02:21Z</time>
</trkpt>
<trkpt lat="34.7787198" lon="32.4071347">
<ele>35.69</ele>
<time>2015-04-24T15:02:22Z</time>
</trkpt>
<trkpt lat="34.7787026" lon="32.4070271">
<ele>35.87</ele>
<time>2015-04-24T15:02:24Z</time>
</trkpt>
<trkpt lat="34.7786821" lon="32.4069225">
<ele>35.91</ele>
<time>2015-04-24T15:02:26Z</time>
</trkpt>
<trkpt lat="34.7786702" lon="32.4068627">
<ele>35.92</ele>
<time>2015-04-24T15:02:27Z</time>
</trkpt>
<trkpt lat="34.7786599" lon="32.4068053">
<ele>35.42</ele>
<time>2015-04-24T15:02:28Z</time>
</trkpt>
<trkpt lat="34.7786474" lon="32.4067492">
<ele>35.17</ele>
<time>2015-04-24T15:02:29Z</time>
</trkpt>
<trkpt lat="34.7786350" lon="32.4066935">
<ele>34.55</ele>
<time>2015-04-24T15:02:30Z</time>
</trkpt>
<trkpt lat="34.7786100" lon="32.4066212">
<ele>34.08</ele>
<time>2015-04-24T15:02:32Z</time>
</trkpt>
<trkpt lat="34.7785973" lon="32.4065646">
<ele>33.21</ele>
<time>2015-04-24T15:02:34Z</time>
</trkpt>
<trkpt lat="34.7785898" lon="32.4065093">
<ele>33.00</ele>
<time>2015-04-24T15:02:36Z</time>
</trkpt>
<trkpt lat="34.7785720" lon="32.4064439">
<ele>34.31</ele>
<time>2015-04-24T15:02:39Z</time>
</trkpt>
<trkpt lat="34.7786197" lon="32.4064593">
<ele>33.28</ele>
<time>2015-04-24T15:02:44Z</time>
</trkpt>
<trkpt lat="34.7786086" lon="32.4065183">
<ele>33.88</ele>
<time>2015-04-24T15:02:48Z</time>
</trkpt>
<trkpt lat="34.7785580" lon="32.4064920">
<ele>31.36</ele>
<time>2015-04-24T15:02:52Z</time>
</trkpt>
<trkpt lat="34.7785569" lon="32.4064349">
<ele>33.91</ele>
<time>2015-04-24T15:03:14Z</time>
</trkpt>
<trkpt lat="34.7786058" lon="32.4063796">
<ele>34.61</ele>
<time>2015-04-24T15:03:18Z</time>
</trkpt>
<trkpt lat="34.7786749" lon="32.4063541">
<ele>34.85</ele>
<time>2015-04-24T15:03:20Z</time>
</trkpt>
<trkpt lat="34.7787520" lon="32.4063361">
<ele>34.41</ele>
<time>2015-04-24T15:03:22Z</time>
</trkpt>
<trkpt lat="34.7788210" lon="32.4063220">
<ele>33.80</ele>
<time>2015-04-24T15:03:24Z</time>
</trkpt>
<trkpt lat="34.7788703" lon="32.4062845">
<ele>33.14</ele>
<time>2015-04-24T15:03:26Z</time>
</trkpt>
<trkpt lat="34.7789238" lon="32.4062523">
<ele>32.98</ele>
<time>2015-04-24T15:03:28Z</time>
</trkpt>
<trkpt lat="34.7789913" lon="32.4062333">
<ele>32.44</ele>
<time>2015-04-24T15:03:30Z</time>
</trkpt>
<trkpt lat="34.7790682" lon="32.4062168">
<ele>32.05</ele>
<time>2015-04-24T15:03:32Z</time>
</trkpt>
<trkpt lat="34.7791390" lon="32.4062147">
<ele>31.99</ele>
<time>2015-04-24T15:03:33Z</time>
</trkpt>
<trkpt lat="34.7792234" lon="32.4062023">
<ele>31.94</ele>
<time>2015-04-24T15:03:35Z</time>
</trkpt>
<trkpt lat="34.7792685" lon="32.4061886">
<ele>31.43</ele>
<time>2015-04-24T15:03:36Z</time>
</trkpt>
<trkpt lat="34.7793142" lon="32.4061844">
<ele>31.18</ele>
<time>2015-04-24T15:03:37Z</time>
</trkpt>
<trkpt lat="34.7793621" lon="32.4061697">
<ele>31.05</ele>
<time>2015-04-24T15:03:38Z</time>
</trkpt>
<trkpt lat="34.7794063" lon="32.4061586">
<ele>30.99</ele>
<time>2015-04-24T15:03:39Z</time>
</trkpt>
<trkpt lat="34.7794574" lon="32.4061516">
<ele>30.46</ele>
<time>2015-04-24T15:03:40Z</time>
</trkpt>
<trkpt lat="34.7795045" lon="32.4061322">
<ele>30.19</ele>
<time>2015-04-24T15:03:41Z</time>
</trkpt>
<trkpt lat="34.7795904" lon="32.4061075">
<ele>31.24</ele>
<time>2015-04-24T15:03:43Z</time>
</trkpt>
<trkpt lat="34.7796352" lon="32.4060939">
<ele>31.58</ele>
<time>2015-04-24T15:03:44Z</time>
</trkpt>
<trkpt lat="34.7796804" lon="32.4060832">
<ele>31.75</ele>
<time>2015-04-24T15:03:45Z</time>
</trkpt>
<trkpt lat="34.7797287" lon="32.4060728">
<ele>31.84</ele>
<time>2015-04-24T15:03:46Z</time>
</trkpt>
<trkpt lat="34.7797760" lon="32.4060616">
<ele>31.88</ele>
<time>2015-04-24T15:03:47Z</time>
</trkpt>
<trkpt lat="34.7798216" lon="32.4060487">
<ele>32.40</ele>
<time>2015-04-24T15:03:48Z</time>
</trkpt>
<trkpt lat="34.7798705" lon="32.4060411">
<ele>32.66</ele>
<time>2015-04-24T15:03:49Z</time>
</trkpt>
<trkpt lat="34.7799159" lon="32.4060398">
<ele>32.29</ele>
<time>2015-04-24T15:03:50Z</time>
</trkpt>
<trkpt lat="34.7799956" lon="32.4060183">
<ele>32.02</ele>
<time>2015-04-24T15:03:52Z</time>
</trkpt>
<trkpt lat="34.7800744" lon="32.4059969">
<ele>31.95</ele>
<time>2015-04-24T15:03:54Z</time>
</trkpt>
<trkpt lat="34.7801503" lon="32.4059887">
<ele>31.18</ele>
<time>2015-04-24T15:03:56Z</time>
</trkpt>
<trkpt lat="34.7802198" lon="32.4059693">
<ele>30.99</ele>
<time>2015-04-24T15:03:58Z</time>
</trkpt>
<trkpt lat="34.7802754" lon="32.4059345">
<ele>30.94</ele>
<time>2015-04-24T15:04:00Z</time>
</trkpt>
<trkpt lat="34.7802983" lon="32.4058670">
<ele>30.93</ele>
<time>2015-04-24T15:04:02Z</time>
</trkpt>
<trkpt lat="34.7802972" lon="32.4057902">
<ele>31.18</ele>
<time>2015-04-24T15:04:04Z</time>
</trkpt>
<trkpt lat="34.7803172" lon="32.4057396">
<ele>30.99</ele>
<time>2015-04-24T15:04:06Z</time>
</trkpt>
<trkpt lat="34.7803543" lon="32.4057756">
<ele>33.30</ele>
<time>2015-04-24T15:04:36Z</time>
</trkpt>
<trkpt lat="34.7803753" lon="32.4058242">
<ele>34.60</ele>
<time>2015-04-24T15:04:39Z</time>
</trkpt>
<trkpt lat="34.7804038" lon="32.4058741">
<ele>34.88</ele>
<time>2015-04-24T15:04:42Z</time>
</trkpt>
<trkpt lat="34.7804408" lon="32.4059214">
<ele>35.42</ele>
<time>2015-04-24T15:04:46Z</time>
</trkpt>
<trkpt lat="34.7804689" lon="32.4059734">
<ele>33.67</ele>
<time>2015-04-24T15:05:15Z</time>
</trkpt>
<trkpt lat="34.7804900" lon="32.4060332">
<ele>34.36</ele>
<time>2015-04-24T15:05:17Z</time>
</trkpt>
<trkpt lat="34.7805009" lon="32.4061011">
<ele>34.78</ele>
<time>2015-04-24T15:05:19Z</time>
</trkpt>
<trkpt lat="34.7805097" lon="32.4061733">
<ele>35.14</ele>
<time>2015-04-24T15:05:21Z</time>
</trkpt>
<trkpt lat="34.7805220" lon="32.4062425">
<ele>34.98</ele>
<time>2015-04-24T15:05:23Z</time>
</trkpt>
<trkpt lat="34.7805664" lon="32.4062738">
<ele>35.44</ele>
<time>2015-04-24T15:05:25Z</time>
</trkpt>
<trkpt lat="34.7806253" lon="32.4062478">
<ele>35.05</ele>
<time>2015-04-24T15:05:27Z</time>
</trkpt>
<trkpt lat="34.7806870" lon="32.4062290">
<ele>34.21</ele>
<time>2015-04-24T15:05:29Z</time>
</trkpt>
<trkpt lat="34.7807466" lon="32.4062111">
<ele>34.75</ele>
<time>2015-04-24T15:05:31Z</time>
</trkpt>
<trkpt lat="34.7808124" lon="32.4061908">
<ele>34.38</ele>
<time>2015-04-24T15:05:33Z</time>
</trkpt>
<trkpt lat="34.7808732" lon="32.4061762">
<ele>34.79</ele>
<time>2015-04-24T15:05:35Z</time>
</trkpt>
<trkpt lat="34.7809198" lon="32.4061662">
<ele>35.14</ele>
<time>2015-04-24T15:05:37Z</time>
</trkpt>
<trkpt lat="34.7809620" lon="32.4061857">
<ele>31.94</ele>
<time>2015-04-24T15:06:49Z</time>
</trkpt>
<trkpt lat="34.7809210" lon="32.4061630">
<ele>33.72</ele>
<time>2015-04-24T15:19:15Z</time>
</trkpt>
<trkpt lat="34.7808669" lon="32.4061612">
<ele>34.66</ele>
<time>2015-04-24T15:19:19Z</time>
</trkpt>
<trkpt lat="34.7808212" lon="32.4061600">
<ele>34.86</ele>
<time>2015-04-24T15:19:21Z</time>
</trkpt>
<trkpt lat="34.7807626" lon="32.4061626">
<ele>34.92</ele>
<time>2015-04-24T15:19:24Z</time>
</trkpt>
<trkpt lat="34.7807129" lon="32.4061772">
<ele>35.05</ele>
<time>2015-04-24T15:19:27Z</time>
</trkpt>
<trkpt lat="34.7806530" lon="32.4061748">
<ele>35.07</ele>
<time>2015-04-24T15:19:30Z</time>
</trkpt>
<trkpt lat="34.7805895" lon="32.4061578">
<ele>34.44</ele>
<time>2015-04-24T15:19:33Z</time>
</trkpt>
<trkpt lat="34.7805296" lon="32.4061312">
<ele>33.99</ele>
<time>2015-04-24T15:19:36Z</time>
</trkpt>
<trkpt lat="34.7804877" lon="32.4060752">
<ele>33.93</ele>
<time>2015-04-24T15:19:39Z</time>
</trkpt>
<trkpt lat="34.7804632" lon="32.4060218">
<ele>33.43</ele>
<time>2015-04-24T15:19:43Z</time>
</trkpt>
<trkpt lat="34.7804912" lon="32.4059669">
<ele>32.17</ele>
<time>2015-04-24T15:20:19Z</time>
</trkpt>
<trkpt lat="34.7805348" lon="32.4059486">
<ele>32.74</ele>
<time>2015-04-24T15:20:21Z</time>
</trkpt>
<trkpt lat="34.7805871" lon="32.4059306">
<ele>32.88</ele>
<time>2015-04-24T15:20:23Z</time>
</trkpt>
<trkpt lat="34.7806422" lon="32.4059128">
<ele>33.91</ele>
<time>2015-04-24T15:20:25Z</time>
</trkpt>
<trkpt lat="34.7806835" lon="32.4058735">
<ele>34.67</ele>
<time>2015-04-24T15:20:27Z</time>
</trkpt>
<trkpt lat="34.7807333" lon="32.4058346">
<ele>34.86</ele>
<time>2015-04-24T15:20:29Z</time>
</trkpt>
<trkpt lat="34.7807925" lon="32.4058149">
<ele>34.16</ele>
<time>2015-04-24T15:20:31Z</time>
</trkpt>
<trkpt lat="34.7808563" lon="32.4058050">
<ele>35.23</ele>
<time>2015-04-24T15:20:33Z</time>
</trkpt>
<trkpt lat="34.7809241" lon="32.4057892">
<ele>35.75</ele>
<time>2015-04-24T15:20:35Z</time>
</trkpt>
<trkpt lat="34.7809947" lon="32.4057656">
<ele>35.88</ele>
<time>2015-04-24T15:20:37Z</time>
</trkpt>
<trkpt lat="34.7810636" lon="32.4057440">
<ele>35.41</ele>
<time>2015-04-24T15:20:39Z</time>
</trkpt>
<trkpt lat="34.7811361" lon="32.4057256">
<ele>35.80</ele>
<time>2015-04-24T15:20:41Z</time>
</trkpt>
<trkpt lat="34.7812105" lon="32.4057081">
<ele>37.64</ele>
<time>2015-04-24T15:20:43Z</time>
</trkpt>
<trkpt lat="34.7812878" lon="32.4056932">
<ele>38.10</ele>
<time>2015-04-24T15:20:45Z</time>
</trkpt>
<trkpt lat="34.7813622" lon="32.4056864">
<ele>37.47</ele>
<time>2015-04-24T15:20:47Z</time>
</trkpt>
<trkpt lat="34.7814371" lon="32.4056871">
<ele>37.06</ele>
<time>2015-04-24T15:20:49Z</time>
</trkpt>
<trkpt lat="34.7815102" lon="32.4056890">
<ele>36.96</ele>
<time>2015-04-24T15:20:51Z</time>
</trkpt>
<trkpt lat="34.7815883" lon="32.4056769">
<ele>37.68</ele>
<time>2015-04-24T15:20:53Z</time>
</trkpt>
<trkpt lat="34.7816699" lon="32.4056655">
<ele>37.36</ele>
<time>2015-04-24T15:20:55Z</time>
</trkpt>
<trkpt lat="34.7817531" lon="32.4056584">
<ele>37.03</ele>
<time>2015-04-24T15:20:57Z</time>
</trkpt>
<trkpt lat="34.7818367" lon="32.4056518">
<ele>36.70</ele>
<time>2015-04-24T15:20:59Z</time>
</trkpt>
<trkpt lat="34.7819206" lon="32.4056468">
<ele>36.87</ele>
<time>2015-04-24T15:21:01Z</time>
</trkpt>
<trkpt lat="34.7819992" lon="32.4056426">
<ele>37.41</ele>
<time>2015-04-24T15:21:03Z</time>
</trkpt>
<trkpt lat="34.7820787" lon="32.4056388">
<ele>37.55</ele>
<time>2015-04-24T15:21:05Z</time>
</trkpt>
<trkpt lat="34.7821567" lon="32.4056287">
<ele>37.58</ele>
<time>2015-04-24T15:21:07Z</time>
</trkpt>
<trkpt lat="34.7822374" lon="32.4056201">
<ele>37.34</ele>
<time>2015-04-24T15:21:09Z</time>
</trkpt>
<trkpt lat="34.7823138" lon="32.4056170">
<ele>37.03</ele>
<time>2015-04-24T15:21:11Z</time>
</trkpt>
<trkpt lat="34.7823968" lon="32.4056158">
<ele>36.95</ele>
<time>2015-04-24T15:21:13Z</time>
</trkpt>
<trkpt lat="34.7824758" lon="32.4056145">
<ele>37.43</ele>
<time>2015-04-24T15:21:15Z</time>
</trkpt>
<trkpt lat="34.7825476" lon="32.4056011">
<ele>37.05</ele>
<time>2015-04-24T15:21:17Z</time>
</trkpt>
<trkpt lat="34.7826056" lon="32.4055735">
<ele>37.46</ele>
<time>2015-04-24T15:21:19Z</time>
</trkpt>
<trkpt lat="34.7826603" lon="32.4055424">
<ele>38.31</ele>
<time>2015-04-24T15:21:21Z</time>
</trkpt>
<trkpt lat="34.7827119" lon="32.4055385">
<ele>38.27</ele>
<time>2015-04-24T15:21:23Z</time>
</trkpt>
<trkpt lat="34.7827612" lon="32.4055697">
<ele>37.76</ele>
<time>2015-04-24T15:21:25Z</time>
</trkpt>
<trkpt lat="34.7828044" lon="32.4056121">
<ele>37.88</ele>
<time>2015-04-24T15:21:27Z</time>
</trkpt>
<trkpt lat="34.7828541" lon="32.4056370">
<ele>37.91</ele>
<time>2015-04-24T15:21:29Z</time>
</trkpt>
<trkpt lat="34.7829136" lon="32.4056348">
<ele>38.67</ele>
<time>2015-04-24T15:21:31Z</time>
</trkpt>
<trkpt lat="34.7829822" lon="32.4056289">
<ele>39.61</ele>
<time>2015-04-24T15:21:33Z</time>
</trkpt>
<trkpt lat="34.7830525" lon="32.4056235">
<ele>40.60</ele>
<time>2015-04-24T15:21:35Z</time>
</trkpt>
<trkpt lat="34.7831270" lon="32.4056149">
<ele>40.84</ele>
<time>2015-04-24T15:21:37Z</time>
</trkpt>
<trkpt lat="34.7831966" lon="32.4055993">
<ele>40.15</ele>
<time>2015-04-24T15:21:39Z</time>
</trkpt>
<trkpt lat="34.7832682" lon="32.4055812">
<ele>40.48</ele>
<time>2015-04-24T15:21:41Z</time>
</trkpt>
<trkpt lat="34.7833410" lon="32.4055806">
<ele>41.31</ele>
<time>2015-04-24T15:21:43Z</time>
</trkpt>
<trkpt lat="34.7834116" lon="32.4055923">
<ele>41.52</ele>
<time>2015-04-24T15:21:45Z</time>
</trkpt>
<trkpt lat="34.7834766" lon="32.4056064">
<ele>42.32</ele>
<time>2015-04-24T15:21:47Z</time>
</trkpt>
<trkpt lat="34.7835461" lon="32.4056100">
<ele>42.77</ele>
<time>2015-04-24T15:21:49Z</time>
</trkpt>
<trkpt lat="34.7836168" lon="32.4056066">
<ele>42.89</ele>
<time>2015-04-24T15:21:51Z</time>
</trkpt>
<trkpt lat="34.7836921" lon="32.4056049">
<ele>42.92</ele>
<time>2015-04-24T15:21:53Z</time>
</trkpt>
<trkpt lat="34.7837666" lon="32.4056015">
<ele>43.67</ele>
<time>2015-04-24T15:21:55Z</time>
</trkpt>
<trkpt lat="34.7838479" lon="32.4055984">
<ele>43.36</ele>
<time>2015-04-24T15:21:57Z</time>
</trkpt>
<trkpt lat="34.7839305" lon="32.4055996">
<ele>43.03</ele>
<time>2015-04-24T15:21:59Z</time>
</trkpt>
<trkpt lat="34.7840152" lon="32.4055991">
<ele>43.70</ele>
<time>2015-04-24T15:22:01Z</time>
</trkpt>
<trkpt lat="34.7840977" lon="32.4056030">
<ele>43.87</ele>
<time>2015-04-24T15:22:03Z</time>
</trkpt>
<trkpt lat="34.7841800" lon="32.4056060">
<ele>44.66</ele>
<time>2015-04-24T15:22:05Z</time>
</trkpt>
<trkpt lat="34.7842622" lon="32.4056087">
<ele>45.11</ele>
<time>2015-04-24T15:22:07Z</time>
</trkpt>
<trkpt lat="34.7843486" lon="32.4056132">
<ele>45.22</ele>
<time>2015-04-24T15:22:09Z</time>
</trkpt>
<trkpt lat="34.7844312" lon="32.4056187">
<ele>45.00</ele>
<time>2015-04-24T15:22:11Z</time>
</trkpt>
<trkpt lat="34.7845139" lon="32.4056286">
<ele>45.44</ele>
<time>2015-04-24T15:22:13Z</time>
</trkpt>
<trkpt lat="34.7845891" lon="32.4056384">
<ele>45.80</ele>
<time>2015-04-24T15:22:15Z</time>
</trkpt>
<trkpt lat="34.7846610" lon="32.4056304">
<ele>45.39</ele>
<time>2015-04-24T15:22:17Z</time>
</trkpt>
<trkpt lat="34.7847192" lon="32.4055841">
<ele>44.54</ele>
<time>2015-04-24T15:22:19Z</time>
</trkpt>
<trkpt lat="34.7847611" lon="32.4055226">
<ele>42.83</ele>
<time>2015-04-24T15:22:21Z</time>
</trkpt>
<trkpt lat="34.7848173" lon="32.4055027">
<ele>42.40</ele>
<time>2015-04-24T15:22:23Z</time>
</trkpt>
<trkpt lat="34.7848681" lon="32.4055430">
<ele>41.29</ele>
<time>2015-04-24T15:22:25Z</time>
</trkpt>
<trkpt lat="34.7848960" lon="32.4056038">
<ele>41.77</ele>
<time>2015-04-24T15:22:27Z</time>
</trkpt>
<trkpt lat="34.7849315" lon="32.4056405">
<ele>41.64</ele>
<time>2015-04-24T15:22:29Z</time>
</trkpt>
<trkpt lat="34.7849772" lon="32.4056452">
<ele>42.35</ele>
<time>2015-04-24T15:22:31Z</time>
</trkpt>
<trkpt lat="34.7850237" lon="32.4056340">
<ele>43.28</ele>
<time>2015-04-24T15:22:33Z</time>
</trkpt>
<trkpt lat="34.7850715" lon="32.4056171">
<ele>44.26</ele>
<time>2015-04-24T15:22:35Z</time>
</trkpt>
<trkpt lat="34.7851373" lon="32.4055973">
<ele>43.51</ele>
<time>2015-04-24T15:22:37Z</time>
</trkpt>
<trkpt lat="34.7852170" lon="32.4055760">
<ele>43.07</ele>
<time>2015-04-24T15:22:39Z</time>
</trkpt>
<trkpt lat="34.7852624" lon="32.4055672">
<ele>43.00</ele>
<time>2015-04-24T15:22:40Z</time>
</trkpt>
<trkpt lat="34.7853278" lon="32.4055570">
<ele>42.96</ele>
<time>2015-04-24T15:22:41Z</time>
</trkpt>
<trkpt lat="34.7854097" lon="32.4055434">
<ele>43.18</ele>
<time>2015-04-24T15:22:43Z</time>
</trkpt>
<trkpt lat="34.7854865" lon="32.4055466">
<ele>43.49</ele>
<time>2015-04-24T15:22:45Z</time>
</trkpt>
<trkpt lat="34.7855577" lon="32.4055435">
<ele>43.82</ele>
<time>2015-04-24T15:22:47Z</time>
</trkpt>
<trkpt lat="34.7856310" lon="32.4055251">
<ele>44.40</ele>
<time>2015-04-24T15:22:49Z</time>
</trkpt>
<trkpt lat="34.7856963" lon="32.4055050">
<ele>44.29</ele>
<time>2015-04-24T15:22:51Z</time>
</trkpt>
<trkpt lat="34.7857686" lon="32.4054859">
<ele>43.52</ele>
<time>2015-04-24T15:22:53Z</time>
</trkpt>
<trkpt lat="34.7858435" lon="32.4054664">
<ele>43.07</ele>
<time>2015-04-24T15:22:55Z</time>
</trkpt>
<trkpt lat="34.7859206" lon="32.4054408">
<ele>42.96</ele>
<time>2015-04-24T15:22:57Z</time>
</trkpt>
<trkpt lat="34.7859934" lon="32.4054237">
<ele>42.68</ele>
<time>2015-04-24T15:22:59Z</time>
</trkpt>
<trkpt lat="34.7860619" lon="32.4053988">
<ele>42.86</ele>
<time>2015-04-24T15:23:01Z</time>
</trkpt>
<trkpt lat="34.7861199" lon="32.4053661">
<ele>42.91</ele>
<time>2015-04-24T15:23:03Z</time>
</trkpt>
<trkpt lat="34.7861721" lon="32.4053646">
<ele>42.92</ele>
<time>2015-04-24T15:23:05Z</time>
</trkpt>
<trkpt lat="34.7862166" lon="32.4054198">
<ele>42.17</ele>
<time>2015-04-24T15:23:08Z</time>
</trkpt>
<trkpt lat="34.7862814" lon="32.4054059">
<ele>41.58</ele>
<time>2015-04-24T15:23:11Z</time>
</trkpt>
<trkpt lat="34.7863430" lon="32.4053691">
<ele>41.84</ele>
<time>2015-04-24T15:23:13Z</time>
</trkpt>
<trkpt lat="34.7864166" lon="32.4053305">
<ele>41.90</ele>
<time>2015-04-24T15:23:15Z</time>
</trkpt>
<trkpt lat="34.7864977" lon="32.4052989">
<ele>40.67</ele>
<time>2015-04-24T15:23:17Z</time>
</trkpt>
<trkpt lat="34.7865748" lon="32.4052616">
<ele>40.61</ele>
<time>2015-04-24T15:23:19Z</time>
</trkpt>
<trkpt lat="34.7866494" lon="32.4052167">
<ele>40.85</ele>
<time>2015-04-24T15:23:21Z</time>
</trkpt>
<trkpt lat="34.7867235" lon="32.4051698">
<ele>41.16</ele>
<time>2015-04-24T15:23:23Z</time>
</trkpt>
<trkpt lat="34.7867983" lon="32.4051249">
<ele>40.98</ele>
<time>2015-04-24T15:23:25Z</time>
</trkpt>
<trkpt lat="34.7868703" lon="32.4050816">
<ele>40.94</ele>
<time>2015-04-24T15:23:27Z</time>
</trkpt>
<trkpt lat="34.7869458" lon="32.4050362">
<ele>40.93</ele>
<time>2015-04-24T15:23:29Z</time>
</trkpt>
<trkpt lat="34.7869978" lon="32.4049962">
<ele>41.43</ele>
<time>2015-04-24T15:23:30Z</time>
</trkpt>
<trkpt lat="34.7870397" lon="32.4049669">
<ele>41.68</ele>
<time>2015-04-24T15:23:31Z</time>
</trkpt>
<trkpt lat="34.7870798" lon="32.4049345">
<ele>42.80</ele>
<time>2015-04-24T15:23:32Z</time>
</trkpt>
<trkpt lat="34.7871575" lon="32.4048726">
<ele>44.39</ele>
<time>2015-04-24T15:23:34Z</time>
</trkpt>
<trkpt lat="34.7872027" lon="32.4048359">
<ele>45.16</ele>
<time>2015-04-24T15:23:35Z</time>
</trkpt>
<trkpt lat="34.7872811" lon="32.4047652">
<ele>46.98</ele>
<time>2015-04-24T15:23:37Z</time>
</trkpt>
<trkpt lat="34.7873166" lon="32.4047199">
<ele>47.95</ele>
<time>2015-04-24T15:23:38Z</time>
</trkpt>
<trkpt lat="34.7873545" lon="32.4046892">
<ele>48.44</ele>
<time>2015-04-24T15:23:39Z</time>
</trkpt>
<trkpt lat="34.7873950" lon="32.4046499">
<ele>48.68</ele>
<time>2015-04-24T15:23:40Z</time>
</trkpt>
<trkpt lat="34.7874273" lon="32.4046044">
<ele>48.80</ele>
<time>2015-04-24T15:23:41Z</time>
</trkpt>
<trkpt lat="34.7874622" lon="32.4045644">
<ele>49.86</ele>
<time>2015-04-24T15:23:42Z</time>
</trkpt>
<trkpt lat="34.7874976" lon="32.4045269">
<ele>50.39</ele>
<time>2015-04-24T15:23:43Z</time>
</trkpt>
<trkpt lat="34.7875368" lon="32.4044814">
<ele>50.66</ele>
<time>2015-04-24T15:23:44Z</time>
</trkpt>
<trkpt lat="34.7875739" lon="32.4044466">
<ele>50.79</ele>
<time>2015-04-24T15:23:45Z</time>
</trkpt>
<trkpt lat="34.7876386" lon="32.4043817">
<ele>51.64</ele>
<time>2015-04-24T15:23:47Z</time>
</trkpt>
<trkpt lat="34.7876765" lon="32.4043393">
<ele>51.78</ele>
<time>2015-04-24T15:23:48Z</time>
</trkpt>
<trkpt lat="34.7877145" lon="32.4043086">
<ele>51.85</ele>
<time>2015-04-24T15:23:49Z</time>
</trkpt>
<trkpt lat="34.7877586" lon="32.4042822">
<ele>51.89</ele>
<time>2015-04-24T15:23:50Z</time>
</trkpt>
<trkpt lat="34.7877940" lon="32.4042444">
<ele>50.91</ele>
<time>2015-04-24T15:23:51Z</time>
</trkpt>
<trkpt lat="34.7878267" lon="32.4042064">
<ele>49.92</ele>
<time>2015-04-24T15:23:52Z</time>
</trkpt>
<trkpt lat="34.7878760" lon="32.4041183">
<ele>48.42</ele>
<time>2015-04-24T15:23:54Z</time>
</trkpt>
<trkpt lat="34.7879137" lon="32.4040749">
<ele>48.17</ele>
<time>2015-04-24T15:23:55Z</time>
</trkpt>
<trkpt lat="34.7879410" lon="32.4040307">
<ele>47.55</ele>
<time>2015-04-24T15:23:56Z</time>
</trkpt>
<trkpt lat="34.7879946" lon="32.4039608">
<ele>47.33</ele>
<time>2015-04-24T15:23:58Z</time>
</trkpt>
<trkpt lat="34.7880301" lon="32.4039052">
<ele>47.13</ele>
<time>2015-04-24T15:23:59Z</time>
</trkpt>
<trkpt lat="34.7880662" lon="32.4038681">
<ele>47.03</ele>
<time>2015-04-24T15:24:00Z</time>
</trkpt>
<trkpt lat="34.7881034" lon="32.4038275">
<ele>46.98</ele>
<time>2015-04-24T15:24:01Z</time>
</trkpt>
<trkpt lat="34.7881318" lon="32.4037743">
<ele>47.95</ele>
<time>2015-04-24T15:24:02Z</time>
</trkpt>
<trkpt lat="34.7881723" lon="32.4037372">
<ele>48.94</ele>
<time>2015-04-24T15:24:03Z</time>
</trkpt>
<trkpt lat="34.7882142" lon="32.4037120">
<ele>48.93</ele>
<time>2015-04-24T15:24:04Z</time>
</trkpt>
<trkpt lat="34.7882848" lon="32.4036344">
<ele>50.43</ele>
<time>2015-04-24T15:24:06Z</time>
</trkpt>
<trkpt lat="34.7883592" lon="32.4035578">
<ele>50.55</ele>
<time>2015-04-24T15:24:08Z</time>
</trkpt>
<trkpt lat="34.7884212" lon="32.4034874">
<ele>51.58</ele>
<time>2015-04-24T15:24:10Z</time>
</trkpt>
<trkpt lat="34.7884772" lon="32.4034238">
<ele>51.84</ele>
<time>2015-04-24T15:24:12Z</time>
</trkpt>
<trkpt lat="34.7885390" lon="32.4033562">
<ele>51.15</ele>
<time>2015-04-24T15:24:14Z</time>
</trkpt>
<trkpt lat="34.7885789" lon="32.4033281">
<ele>51.04</ele>
<time>2015-04-24T15:24:15Z</time>
</trkpt>
<trkpt lat="34.7886399" lon="32.4032636">
<ele>50.70</ele>
<time>2015-04-24T15:24:17Z</time>
</trkpt>
<trkpt lat="34.7886882" lon="32.4032117">
<ele>49.62</ele>
<time>2015-04-24T15:24:19Z</time>
</trkpt>
<trkpt lat="34.7887450" lon="32.4031532">
<ele>49.10</ele>
<time>2015-04-24T15:24:21Z</time>
</trkpt>
<trkpt lat="34.7887982" lon="32.4030960">
<ele>48.47</ele>
<time>2015-04-24T15:24:23Z</time>
</trkpt>
<trkpt lat="34.7888528" lon="32.4030388">
<ele>48.06</ele>
<time>2015-04-24T15:24:25Z</time>
</trkpt>
<trkpt lat="34.7889052" lon="32.4029838">
<ele>48.46</ele>
<time>2015-04-24T15:24:27Z</time>
</trkpt>
<trkpt lat="34.7889586" lon="32.4029293">
<ele>49.31</ele>
<time>2015-04-24T15:24:29Z</time>
</trkpt>
<trkpt lat="34.7890103" lon="32.4028777">
<ele>49.77</ele>
<time>2015-04-24T15:24:31Z</time>
</trkpt>
<trkpt lat="34.7890629" lon="32.4028184">
<ele>49.89</ele>
<time>2015-04-24T15:24:33Z</time>
</trkpt>
<trkpt lat="34.7891168" lon="32.4027572">
<ele>49.42</ele>
<time>2015-04-24T15:24:35Z</time>
</trkpt>
<trkpt lat="34.7891749" lon="32.4027020">
<ele>49.55</ele>
<time>2015-04-24T15:24:37Z</time>
</trkpt>
<trkpt lat="34.7892332" lon="32.4026460">
<ele>49.33</ele>
<time>2015-04-24T15:24:39Z</time>
</trkpt>
<trkpt lat="34.7892923" lon="32.4025923">
<ele>48.78</ele>
<time>2015-04-24T15:24:41Z</time>
</trkpt>
<trkpt lat="34.7893536" lon="32.4025378">
<ele>48.89</ele>
<time>2015-04-24T15:24:43Z</time>
</trkpt>
<trkpt lat="34.7894196" lon="32.4024784">
<ele>48.42</ele>
<time>2015-04-24T15:24:45Z</time>
</trkpt>
<trkpt lat="34.7894868" lon="32.4024202">
<ele>48.05</ele>
<time>2015-04-24T15:24:47Z</time>
</trkpt>
<trkpt lat="34.7895599" lon="32.4023605">
<ele>48.71</ele>
<time>2015-04-24T15:24:49Z</time>
</trkpt>
<trkpt lat="34.7896270" lon="32.4023011">
<ele>48.37</ele>
<time>2015-04-24T15:24:51Z</time>
</trkpt>
<trkpt lat="34.7896960" lon="32.4022432">
<ele>48.04</ele>
<time>2015-04-24T15:24:53Z</time>
</trkpt>
<trkpt lat="34.7897678" lon="32.4021875">
<ele>47.95</ele>
<time>2015-04-24T15:24:55Z</time>
</trkpt>
<trkpt lat="34.7898697" lon="32.4021263">
<ele>47.93</ele>
<time>2015-04-24T15:24:57Z</time>
</trkpt>
<trkpt lat="34.7899474" lon="32.4020869">
<ele>47.93</ele>
<time>2015-04-24T15:24:59Z</time>
</trkpt>
<trkpt lat="34.7900222" lon="32.4020318">
<ele>47.18</ele>
<time>2015-04-24T15:25:01Z</time>
</trkpt>
<trkpt lat="34.7900938" lon="32.4019885">
<ele>47.74</ele>
<time>2015-04-24T15:25:03Z</time>
</trkpt>
<trkpt lat="34.7901643" lon="32.4019472">
<ele>48.63</ele>
<time>2015-04-24T15:25:05Z</time>
</trkpt>
<trkpt lat="34.7902341" lon="32.4019030">
<ele>48.85</ele>
<time>2015-04-24T15:25:07Z</time>
</trkpt>
<trkpt lat="34.7903116" lon="32.4018625">
<ele>48.91</ele>
<time>2015-04-24T15:25:09Z</time>
</trkpt>
<trkpt lat="34.7904014" lon="32.4018264">
<ele>48.17</ele>
<time>2015-04-24T15:25:11Z</time>
</trkpt>
<trkpt lat="34.7904516" lon="32.4018061">
<ele>48.05</ele>
<time>2015-04-24T15:25:12Z</time>
</trkpt>
<trkpt lat="34.7904963" lon="32.4017880">
<ele>48.49</ele>
<time>2015-04-24T15:25:13Z</time>
</trkpt>
<trkpt lat="34.7905477" lon="32.4017640">
<ele>48.21</ele>
<time>2015-04-24T15:25:14Z</time>
</trkpt>
<trkpt lat="34.7906008" lon="32.4017436">
<ele>48.07</ele>
<time>2015-04-24T15:25:15Z</time>
</trkpt>
<trkpt lat="34.7906558" lon="32.4017273">
<ele>47.50</ele>
<time>2015-04-24T15:25:16Z</time>
</trkpt>
<trkpt lat="34.7907093" lon="32.4017080">
<ele>47.21</ele>
<time>2015-04-24T15:25:17Z</time>
</trkpt>
<trkpt lat="34.7907639" lon="32.4016961">
<ele>47.07</ele>
<time>2015-04-24T15:25:18Z</time>
</trkpt>
<trkpt lat="34.7908090" lon="32.4016813">
<ele>47.00</ele>
<time>2015-04-24T15:25:19Z</time>
</trkpt>
<trkpt lat="34.7908632" lon="32.4016622">
<ele>46.46</ele>
<time>2015-04-24T15:25:20Z</time>
</trkpt>
<trkpt lat="34.7909154" lon="32.4016356">
<ele>46.19</ele>
<time>2015-04-24T15:25:21Z</time>
</trkpt>
<trkpt lat="34.7909632" lon="32.4016245">
<ele>46.56</ele>
<time>2015-04-24T15:25:22Z</time>
</trkpt>
<trkpt lat="34.7910569" lon="32.4016085">
<ele>46.08</ele>
<time>2015-04-24T15:25:24Z</time>
</trkpt>
<trkpt lat="34.7911010" lon="32.4015921">
<ele>46.00</ele>
<time>2015-04-24T15:25:25Z</time>
</trkpt>
<trkpt lat="34.7911935" lon="32.4015746">
<ele>46.69</ele>
<time>2015-04-24T15:25:27Z</time>
</trkpt>
<trkpt lat="34.7912388" lon="32.4015758">
<ele>46.81</ele>
<time>2015-04-24T15:25:28Z</time>
</trkpt>
<trkpt lat="34.7912891" lon="32.4015785">
<ele>46.37</ele>
<time>2015-04-24T15:25:29Z</time>
</trkpt>
<trkpt lat="34.7913340" lon="32.4015694">
<ele>46.65</ele>
<time>2015-04-24T15:25:30Z</time>
</trkpt>
<trkpt lat="34.7913839" lon="32.4015700">
<ele>46.29</ele>
<time>2015-04-24T15:25:31Z</time>
</trkpt>
<trkpt lat="34.7914733" lon="32.4015676">
<ele>46.77</ele>
<time>2015-04-24T15:25:33Z</time>
</trkpt>
<trkpt lat="34.7915513" lon="32.4015646">
<ele>46.89</ele>
<time>2015-04-24T15:25:35Z</time>
</trkpt>
<trkpt lat="34.7916251" lon="32.4015646">
<ele>46.17</ele>
<time>2015-04-24T15:25:37Z</time>
</trkpt>
<trkpt lat="34.7917088" lon="32.4015667">
<ele>45.74</ele>
<time>2015-04-24T15:25:39Z</time>
</trkpt>
<trkpt lat="34.7917600" lon="32.4015639">
<ele>45.33</ele>
<time>2015-04-24T15:25:40Z</time>
</trkpt>
<trkpt lat="34.7918540" lon="32.4015603">
<ele>45.03</ele>
<time>2015-04-24T15:25:42Z</time>
</trkpt>
<trkpt lat="34.7919003" lon="32.4015650">
<ele>44.48</ele>
<time>2015-04-24T15:25:43Z</time>
</trkpt>
<trkpt lat="34.7919562" lon="32.4015780">
<ele>44.20</ele>
<time>2015-04-24T15:25:44Z</time>
</trkpt>
<trkpt lat="34.7920102" lon="32.4015817">
<ele>44.06</ele>
<time>2015-04-24T15:25:45Z</time>
</trkpt>
<trkpt lat="34.7920633" lon="32.4015948">
<ele>43.99</ele>
<time>2015-04-24T15:25:46Z</time>
</trkpt>
<trkpt lat="34.7921153" lon="32.4016101">
<ele>43.96</ele>
<time>2015-04-24T15:25:47Z</time>
</trkpt>
<trkpt lat="34.7921721" lon="32.4016112">
<ele>44.44</ele>
<time>2015-04-24T15:25:48Z</time>
</trkpt>
<trkpt lat="34.7922302" lon="32.4016272">
<ele>44.68</ele>
<time>2015-04-24T15:25:49Z</time>
</trkpt>
<trkpt lat="34.7922830" lon="32.4016362">
<ele>44.80</ele>
<time>2015-04-24T15:25:50Z</time>
</trkpt>
<trkpt lat="34.7923328" lon="32.4016501">
<ele>45.36</ele>
<time>2015-04-24T15:25:51Z</time>
</trkpt>
<trkpt lat="34.7923909" lon="32.4016554">
<ele>45.64</ele>
<time>2015-04-24T15:25:52Z</time>
</trkpt>
<trkpt lat="34.7924487" lon="32.4016656">
<ele>46.28</ele>
<time>2015-04-24T15:25:53Z</time>
</trkpt>
<trkpt lat="34.7925014" lon="32.4016743">
<ele>46.10</ele>
<time>2015-04-24T15:25:54Z</time>
</trkpt>
<trkpt lat="34.7925496" lon="32.4016836">
<ele>46.01</ele>
<time>2015-04-24T15:25:55Z</time>
</trkpt>
<trkpt lat="34.7926125" lon="32.4016913">
<ele>45.97</ele>
<time>2015-04-24T15:25:56Z</time>
</trkpt>
<trkpt lat="34.7926663" lon="32.4016972">
<ele>45.95</ele>
<time>2015-04-24T15:25:57Z</time>
</trkpt>
<trkpt lat="34.7927201" lon="32.4016815">
<ele>46.44</ele>
<time>2015-04-24T15:25:58Z</time>
</trkpt>
<trkpt lat="34.7927693" lon="32.4016827">
<ele>47.18</ele>
<time>2015-04-24T15:25:59Z</time>
</trkpt>
<trkpt lat="34.7928186" lon="32.4016874">
<ele>47.55</ele>
<time>2015-04-24T15:26:00Z</time>
</trkpt>
<trkpt lat="34.7928655" lon="32.4016878">
<ele>48.24</ele>
<time>2015-04-24T15:26:01Z</time>
</trkpt>
<trkpt lat="34.7929128" lon="32.4016777">
<ele>49.08</ele>
<time>2015-04-24T15:26:02Z</time>
</trkpt>
<trkpt lat="34.7929663" lon="32.4016799">
<ele>49.00</ele>
<time>2015-04-24T15:26:03Z</time>
</trkpt>
<trkpt lat="34.7930202" lon="32.4016736">
<ele>48.96</ele>
<time>2015-04-24T15:26:04Z</time>
</trkpt>
<trkpt lat="34.7930848" lon="32.4016679">
<ele>49.44</ele>
<time>2015-04-24T15:26:05Z</time>
</trkpt>
<trkpt lat="34.7931834" lon="32.4016881">
<ele>49.55</ele>
<time>2015-04-24T15:26:07Z</time>
</trkpt>
<trkpt lat="34.7932285" lon="32.4016884">
<ele>49.74</ele>
<time>2015-04-24T15:26:08Z</time>
</trkpt>
<trkpt lat="34.7932743" lon="32.4016980">
<ele>50.33</ele>
<time>2015-04-24T15:26:09Z</time>
</trkpt>
<trkpt lat="34.7933574" lon="32.4017202">
<ele>50.53</ele>
<time>2015-04-24T15:26:11Z</time>
</trkpt>
<trkpt lat="34.7934379" lon="32.4017368">
<ele>49.83</ele>
<time>2015-04-24T15:26:13Z</time>
</trkpt>
<trkpt lat="34.7935218" lon="32.4017495">
<ele>49.40</ele>
<time>2015-04-24T15:26:15Z</time>
</trkpt>
<trkpt lat="34.7936117" lon="32.4017745">
<ele>48.54</ele>
<time>2015-04-24T15:26:17Z</time>
</trkpt>
<trkpt lat="34.7936544" lon="32.4017951">
<ele>47.73</ele>
<time>2015-04-24T15:26:18Z</time>
</trkpt>
<trkpt lat="34.7937497" lon="32.4018107">
<ele>46.38</ele>
<time>2015-04-24T15:26:20Z</time>
</trkpt>
<trkpt lat="34.7938307" lon="32.4018332">
<ele>45.54</ele>
<time>2015-04-24T15:26:22Z</time>
</trkpt>
<trkpt lat="34.7939134" lon="32.4018290">
<ele>45.08</ele>
<time>2015-04-24T15:26:24Z</time>
</trkpt>
<trkpt lat="34.7939679" lon="32.4018368">
<ele>45.00</ele>
<time>2015-04-24T15:26:25Z</time>
</trkpt>
<trkpt lat="34.7940184" lon="32.4018460">
<ele>44.96</ele>
<time>2015-04-24T15:26:26Z</time>
</trkpt>
<trkpt lat="34.7940647" lon="32.4018450">
<ele>44.44</ele>
<time>2015-04-24T15:26:27Z</time>
</trkpt>
<trkpt lat="34.7941331" lon="32.4018336">
<ele>44.05</ele>
<time>2015-04-24T15:26:29Z</time>
</trkpt>
<trkpt lat="34.7942087" lon="32.4018262">
<ele>43.96</ele>
<time>2015-04-24T15:26:31Z</time>
</trkpt>
<trkpt lat="34.7942560" lon="32.4018127">
<ele>43.94</ele>
<time>2015-04-24T15:26:32Z</time>
</trkpt>
<trkpt lat="34.7943079" lon="32.4018036">
<ele>43.43</ele>
<time>2015-04-24T15:26:33Z</time>
</trkpt>
<trkpt lat="34.7943618" lon="32.4017760">
<ele>42.18</ele>
<time>2015-04-24T15:26:34Z</time>
</trkpt>
<trkpt lat="34.7944063" lon="32.4017569">
<ele>41.05</ele>
<time>2015-04-24T15:26:35Z</time>
</trkpt>
<trkpt lat="34.7944533" lon="32.4017456">
<ele>39.99</ele>
<time>2015-04-24T15:26:36Z</time>
</trkpt>
<trkpt lat="34.7945431" lon="32.4017271">
<ele>39.19</ele>
<time>2015-04-24T15:26:38Z</time>
</trkpt>
<trkpt lat="34.7945891" lon="32.4017157">
<ele>39.06</ele>
<time>2015-04-24T15:26:39Z</time>
</trkpt>
<trkpt lat="34.7946708" lon="32.4016936">
<ele>38.46</ele>
<time>2015-04-24T15:26:41Z</time>
</trkpt>
<trkpt lat="34.7947568" lon="32.4016678">
<ele>37.56</ele>
<time>2015-04-24T15:26:43Z</time>
</trkpt>
<trkpt lat="34.7948437" lon="32.4016517">
<ele>36.58</ele>
<time>2015-04-24T15:26:45Z</time>
</trkpt>
<trkpt lat="34.7948880" lon="32.4016351">
<ele>36.25</ele>
<time>2015-04-24T15:26:46Z</time>
</trkpt>
<trkpt lat="34.7949360" lon="32.4016179">
<ele>36.59</ele>
<time>2015-04-24T15:26:47Z</time>
</trkpt>
<trkpt lat="34.7949802" lon="32.4015933">
<ele>37.26</ele>
<time>2015-04-24T15:26:48Z</time>
</trkpt>
<trkpt lat="34.7950640" lon="32.4015502">
<ele>38.51</ele>
<time>2015-04-24T15:26:50Z</time>
</trkpt>
<trkpt lat="34.7951363" lon="32.4015126">
<ele>38.57</ele>
<time>2015-04-24T15:26:52Z</time>
</trkpt>
<trkpt lat="34.7951783" lon="32.4014878">
<ele>39.25</ele>
<time>2015-04-24T15:26:53Z</time>
</trkpt>
<trkpt lat="34.7952706" lon="32.4014412">
<ele>39.76</ele>
<time>2015-04-24T15:26:55Z</time>
</trkpt>
<trkpt lat="34.7953147" lon="32.4014202">
<ele>40.34</ele>
<time>2015-04-24T15:26:56Z</time>
</trkpt>
<trkpt lat="34.7953599" lon="32.4014057">
<ele>41.13</ele>
<time>2015-04-24T15:26:57Z</time>
</trkpt>
<trkpt lat="34.7954032" lon="32.4013902">
<ele>41.03</ele>
<time>2015-04-24T15:26:58Z</time>
</trkpt>
<trkpt lat="34.7954922" lon="32.4013571">
<ele>40.45</ele>
<time>2015-04-24T15:27:00Z</time>
</trkpt>
<trkpt lat="34.7955371" lon="32.4013400">
<ele>40.19</ele>
<time>2015-04-24T15:27:01Z</time>
</trkpt>
<trkpt lat="34.7956180" lon="32.4012822">
<ele>39.99</ele>
<time>2015-04-24T15:27:03Z</time>
</trkpt>
<trkpt lat="34.7956999" lon="32.4012502">
<ele>41.94</ele>
<time>2015-04-24T15:27:05Z</time>
</trkpt>
<trkpt lat="34.7957818" lon="32.4012155">
<ele>43.18</ele>
<time>2015-04-24T15:27:07Z</time>
</trkpt>
<trkpt lat="34.7958310" lon="32.4012001">
<ele>44.05</ele>
<time>2015-04-24T15:27:08Z</time>
</trkpt>
<trkpt lat="34.7958766" lon="32.4011813">
<ele>43.99</ele>
<time>2015-04-24T15:27:09Z</time>
</trkpt>
<trkpt lat="34.7959523" lon="32.4011361">
<ele>44.69</ele>
<time>2015-04-24T15:27:11Z</time>
</trkpt>
<trkpt lat="34.7959950" lon="32.4011176">
<ele>44.81</ele>
<time>2015-04-24T15:27:12Z</time>
</trkpt>
<trkpt lat="34.7960746" lon="32.4010845">
<ele>45.65</ele>
<time>2015-04-24T15:27:14Z</time>
</trkpt>
<trkpt lat="34.7961192" lon="32.4010642">
<ele>46.29</ele>
<time>2015-04-24T15:27:15Z</time>
</trkpt>
<trkpt lat="34.7962074" lon="32.4010498">
<ele>46.02</ele>
<time>2015-04-24T15:27:17Z</time>
</trkpt>
<trkpt lat="34.7962882" lon="32.4010230">
<ele>45.70</ele>
<time>2015-04-24T15:27:19Z</time>
</trkpt>
<trkpt lat="34.7963762" lon="32.4009959">
<ele>45.12</ele>
<time>2015-04-24T15:27:21Z</time>
</trkpt>
<trkpt lat="34.7964462" lon="32.4009672">
<ele>44.97</ele>
<time>2015-04-24T15:27:23Z</time>
</trkpt>
<trkpt lat="34.7965288" lon="32.4009568">
<ele>44.44</ele>
<time>2015-04-24T15:27:25Z</time>
</trkpt>
<trkpt lat="34.7966080" lon="32.4009307">
<ele>44.05</ele>
<time>2015-04-24T15:27:27Z</time>
</trkpt>
<trkpt lat="34.7966535" lon="32.4009203">
<ele>43.99</ele>
<time>2015-04-24T15:27:28Z</time>
</trkpt>
<trkpt lat="34.7966968" lon="32.4008924">
<ele>44.46</ele>
<time>2015-04-24T15:27:29Z</time>
</trkpt>
<trkpt lat="34.7967820" lon="32.4008659">
<ele>44.81</ele>
<time>2015-04-24T15:27:31Z</time>
</trkpt>
<trkpt lat="34.7968270" lon="32.4008596">
<ele>44.87</ele>
<time>2015-04-24T15:27:32Z</time>
</trkpt>
<trkpt lat="34.7969132" lon="32.4008385">
<ele>45.66</ele>
<time>2015-04-24T15:27:34Z</time>
</trkpt>
<trkpt lat="34.7969932" lon="32.4008336">
<ele>46.11</ele>
<time>2015-04-24T15:27:36Z</time>
</trkpt>
<trkpt lat="34.7970690" lon="32.4008374">
<ele>45.47</ele>
<time>2015-04-24T15:27:38Z</time>
</trkpt>
<trkpt lat="34.7971445" lon="32.4008314">
<ele>44.56</ele>
<time>2015-04-24T15:27:40Z</time>
</trkpt>
<trkpt lat="34.7972127" lon="32.4008204">
<ele>44.08</ele>
<time>2015-04-24T15:27:42Z</time>
</trkpt>
<trkpt lat="34.7972790" lon="32.4008083">
<ele>43.96</ele>
<time>2015-04-24T15:27:44Z</time>
</trkpt>
<trkpt lat="34.7973512" lon="32.4007920">
<ele>43.93</ele>
<time>2015-04-24T15:27:46Z</time>
</trkpt>
<trkpt lat="34.7974301" lon="32.4007771">
<ele>44.43</ele>
<time>2015-04-24T15:27:48Z</time>
</trkpt>
<trkpt lat="34.7975136" lon="32.4007618">
<ele>44.80</ele>
<time>2015-04-24T15:27:50Z</time>
</trkpt>
<trkpt lat="34.7976019" lon="32.4007484">
<ele>45.39</ele>
<time>2015-04-24T15:27:52Z</time>
</trkpt>
<trkpt lat="34.7976880" lon="32.4007454">
<ele>46.54</ele>
<time>2015-04-24T15:27:54Z</time>
</trkpt>
<trkpt lat="34.7977330" lon="32.4007427">
<ele>46.73</ele>
<time>2015-04-24T15:27:55Z</time>
</trkpt>
<trkpt lat="34.7978023" lon="32.4007369">
<ele>47.33</ele>
<time>2015-04-24T15:27:56Z</time>
</trkpt>
<trkpt lat="34.7978946" lon="32.4007193">
<ele>47.78</ele>
<time>2015-04-24T15:27:58Z</time>
</trkpt>
<trkpt lat="34.7979438" lon="32.4007094">
<ele>47.85</ele>
<time>2015-04-24T15:27:59Z</time>
</trkpt>
<trkpt lat="34.7979941" lon="32.4007112">
<ele>47.89</ele>
<time>2015-04-24T15:28:00Z</time>
</trkpt>
<trkpt lat="34.7980774" lon="32.4006822">
<ele>49.17</ele>
<time>2015-04-24T15:28:02Z</time>
</trkpt>
<trkpt lat="34.7981290" lon="32.4006677">
<ele>48.55</ele>
<time>2015-04-24T15:28:03Z</time>
</trkpt>
<trkpt lat="34.7981772" lon="32.4006572">
<ele>47.74</ele>
<time>2015-04-24T15:28:04Z</time>
</trkpt>
<trkpt lat="34.7982260" lon="32.4006393">
<ele>47.33</ele>
<time>2015-04-24T15:28:05Z</time>
</trkpt>
<trkpt lat="34.7982782" lon="32.4006282">
<ele>47.63</ele>
<time>2015-04-24T15:28:06Z</time>
</trkpt>
<trkpt lat="34.7983288" lon="32.4006140">
<ele>47.28</ele>
<time>2015-04-24T15:28:07Z</time>
</trkpt>
<trkpt lat="34.7983785" lon="32.4006022">
<ele>47.10</ele>
<time>2015-04-24T15:28:08Z</time>
</trkpt>
<trkpt lat="34.7984264" lon="32.4005827">
<ele>47.51</ele>
<time>2015-04-24T15:28:09Z</time>
</trkpt>
<trkpt lat="34.7984759" lon="32.4005621">
<ele>48.22</ele>
<time>2015-04-24T15:28:10Z</time>
</trkpt>
<trkpt lat="34.7985291" lon="32.4005512">
<ele>48.57</ele>
<time>2015-04-24T15:28:11Z</time>
</trkpt>
<trkpt lat="34.7985796" lon="32.4005132">
<ele>49.25</ele>
<time>2015-04-24T15:28:12Z</time>
</trkpt>
<trkpt lat="34.7986302" lon="32.4004981">
<ele>49.59</ele>
<time>2015-04-24T15:28:13Z</time>
</trkpt>
<trkpt lat="34.7986754" lon="32.4004771">
<ele>49.26</ele>
<time>2015-04-24T15:28:14Z</time>
</trkpt>
<trkpt lat="34.7987202" lon="32.4004591">
<ele>48.59</ele>
<time>2015-04-24T15:28:15Z</time>
</trkpt>
<trkpt lat="34.7987730" lon="32.4004348">
<ele>47.76</ele>
<time>2015-04-24T15:28:16Z</time>
</trkpt>
<trkpt lat="34.7988526" lon="32.4004123">
<ele>46.38</ele>
<time>2015-04-24T15:28:18Z</time>
</trkpt>
<trkpt lat="34.7989421" lon="32.4003739">
<ele>48.79</ele>
<time>2015-04-24T15:28:20Z</time>
</trkpt>
<trkpt lat="34.7989911" lon="32.4003521">
<ele>49.36</ele>
<time>2015-04-24T15:28:21Z</time>
</trkpt>
<trkpt lat="34.7990397" lon="32.4003243">
<ele>50.64</ele>
<time>2015-04-24T15:28:22Z</time>
</trkpt>
<trkpt lat="34.7990665" lon="32.4002604">
<ele>52.78</ele>
<time>2015-04-24T15:28:23Z</time>
</trkpt>
<trkpt lat="34.7991158" lon="32.4002434">
<ele>53.85</ele>
<time>2015-04-24T15:28:24Z</time>
</trkpt>
<trkpt lat="34.7991704" lon="32.4002265">
<ele>54.39</ele>
<time>2015-04-24T15:28:25Z</time>
</trkpt>
<trkpt lat="34.7992286" lon="32.4001986">
<ele>54.16</ele>
<time>2015-04-24T15:28:26Z</time>
</trkpt>
<trkpt lat="34.7992875" lon="32.4001752">
<ele>54.04</ele>
<time>2015-04-24T15:28:27Z</time>
</trkpt>
<trkpt lat="34.7993447" lon="32.4001463">
<ele>53.48</ele>
<time>2015-04-24T15:28:28Z</time>
</trkpt>
<trkpt lat="34.7993998" lon="32.4001180">
<ele>53.20</ele>
<time>2015-04-24T15:28:29Z</time>
</trkpt>
<trkpt lat="34.7994520" lon="32.4000882">
<ele>53.06</ele>
<time>2015-04-24T15:28:30Z</time>
</trkpt>
<trkpt lat="34.7995132" lon="32.4000743">
<ele>52.49</ele>
<time>2015-04-24T15:28:31Z</time>
</trkpt>
<trkpt lat="34.7995782" lon="32.4000449">
<ele>52.21</ele>
<time>2015-04-24T15:28:32Z</time>
</trkpt>
<trkpt lat="34.7996481" lon="32.4000490">
<ele>50.57</ele>
<time>2015-04-24T15:28:33Z</time>
</trkpt>
<trkpt lat="34.7997103" lon="32.4000243">
<ele>49.75</ele>
<time>2015-04-24T15:28:34Z</time>
</trkpt>
<trkpt lat="34.7997659" lon="32.3999856">
<ele>48.84</ele>
<time>2015-04-24T15:28:35Z</time>
</trkpt>
<trkpt lat="34.7998270" lon="32.3999555">
<ele>48.88</ele>
<time>2015-04-24T15:28:36Z</time>
</trkpt>
<trkpt lat="34.7998820" lon="32.3999303">
<ele>48.90</ele>
<time>2015-04-24T15:28:37Z</time>
</trkpt>
<trkpt lat="34.7999442" lon="32.3998907">
<ele>48.91</ele>
<time>2015-04-24T15:28:38Z</time>
</trkpt>
<trkpt lat="34.8000128" lon="32.3998930">
<ele>47.42</ele>
<time>2015-04-24T15:28:39Z</time>
</trkpt>
<trkpt lat="34.8000677" lon="32.3998762">
<ele>46.67</ele>
<time>2015-04-24T15:28:40Z</time>
</trkpt>
<trkpt lat="34.8001232" lon="32.3998322">
<ele>47.30</ele>
<time>2015-04-24T15:28:41Z</time>
</trkpt>
<trkpt lat="34.8001792" lon="32.3998044">
<ele>47.61</ele>
<time>2015-04-24T15:28:42Z</time>
</trkpt>
<trkpt lat="34.8002314" lon="32.3997732">
<ele>47.77</ele>
<time>2015-04-24T15:28:43Z</time>
</trkpt>
<trkpt lat="34.8002811" lon="32.3997448">
<ele>47.85</ele>
<time>2015-04-24T15:28:44Z</time>
</trkpt>
<trkpt lat="34.8003283" lon="32.3997170">
<ele>48.39</ele>
<time>2015-04-24T15:28:45Z</time>
</trkpt>
<trkpt lat="34.8003815" lon="32.3996858">
<ele>48.66</ele>
<time>2015-04-24T15:28:46Z</time>
</trkpt>
<trkpt lat="34.8004317" lon="32.3996566">
<ele>48.79</ele>
<time>2015-04-24T15:28:47Z</time>
</trkpt>
<trkpt lat="34.8004912" lon="32.3996224">
<ele>49.36</ele>
<time>2015-04-24T15:28:48Z</time>
</trkpt>
<trkpt lat="34.8005492" lon="32.3995881">
<ele>49.64</ele>
<time>2015-04-24T15:28:49Z</time>
</trkpt>
<trkpt lat="34.8005997" lon="32.3995579">
<ele>49.78</ele>
<time>2015-04-24T15:28:50Z</time>
</trkpt>
<trkpt lat="34.8006504" lon="32.3995297">
<ele>48.85</ele>
<time>2015-04-24T15:28:51Z</time>
</trkpt>
<trkpt lat="34.8007074" lon="32.3994972">
<ele>48.89</ele>
<time>2015-04-24T15:28:52Z</time>
</trkpt>
<trkpt lat="34.8007623" lon="32.3994676">
<ele>48.91</ele>
<time>2015-04-24T15:28:53Z</time>
</trkpt>
<trkpt lat="34.8008119" lon="32.3994394">
<ele>48.92</ele>
<time>2015-04-24T15:28:54Z</time>
</trkpt>
<trkpt lat="34.8008558" lon="32.3994013">
<ele>48.42</ele>
<time>2015-04-24T15:28:55Z</time>
</trkpt>
<trkpt lat="34.8009031" lon="32.3993572">
<ele>48.17</ele>
<time>2015-04-24T15:28:56Z</time>
</trkpt>
<trkpt lat="34.8009528" lon="32.3993272">
<ele>48.05</ele>
<time>2015-04-24T15:28:57Z</time>
</trkpt>
<trkpt lat="34.8010091" lon="32.3992937">
<ele>47.49</ele>
<time>2015-04-24T15:28:58Z</time>
</trkpt>
<trkpt lat="34.8010572" lon="32.3992587">
<ele>47.71</ele>
<time>2015-04-24T15:28:59Z</time>
</trkpt>
<trkpt lat="34.8011096" lon="32.3992231">
<ele>47.82</ele>
<time>2015-04-24T15:29:00Z</time>
</trkpt>
<trkpt lat="34.8011588" lon="32.3992032">
<ele>47.87</ele>
<time>2015-04-24T15:29:01Z</time>
</trkpt>
<trkpt lat="34.8012089" lon="32.3991979">
<ele>46.90</ele>
<time>2015-04-24T15:29:02Z</time>
</trkpt>
<trkpt lat="34.8012580" lon="32.3991707">
<ele>46.41</ele>
<time>2015-04-24T15:29:03Z</time>
</trkpt>
<trkpt lat="34.8013107" lon="32.3991430">
<ele>46.17</ele>
<time>2015-04-24T15:29:04Z</time>
</trkpt>
<trkpt lat="34.8013597" lon="32.3991248">
<ele>45.05</ele>
<time>2015-04-24T15:29:05Z</time>
</trkpt>
<trkpt lat="34.8014142" lon="32.3990962">
<ele>44.99</ele>
<time>2015-04-24T15:29:06Z</time>
</trkpt>
<trkpt lat="34.8014614" lon="32.3990518">
<ele>44.96</ele>
<time>2015-04-24T15:29:07Z</time>
</trkpt>
<trkpt lat="34.8015201" lon="32.3990182">
<ele>44.94</ele>
<time>2015-04-24T15:29:08Z</time>
</trkpt>
<trkpt lat="34.8015718" lon="32.3989837">
<ele>45.43</ele>
<time>2015-04-24T15:29:09Z</time>
</trkpt>
<trkpt lat="34.8016226" lon="32.3989642">
<ele>45.68</ele>
<time>2015-04-24T15:29:10Z</time>
</trkpt>
<trkpt lat="34.8016701" lon="32.3989349">
<ele>45.80</ele>
<time>2015-04-24T15:29:11Z</time>
</trkpt>
<trkpt lat="34.8017224" lon="32.3989043">
<ele>45.36</ele>
<time>2015-04-24T15:29:12Z</time>
</trkpt>
<trkpt lat="34.8017741" lon="32.3988752">
<ele>45.64</ele>
<time>2015-04-24T15:29:13Z</time>
</trkpt>
<trkpt lat="34.8018248" lon="32.3988496">
<ele>46.28</ele>
<time>2015-04-24T15:29:14Z</time>
</trkpt>
<trkpt lat="34.8018747" lon="32.3988204">
<ele>46.10</ele>
<time>2015-04-24T15:29:15Z</time>
</trkpt>
<trkpt lat="34.8019248" lon="32.3988086">
<ele>45.51</ele>
<time>2015-04-24T15:29:16Z</time>
</trkpt>
<trkpt lat="34.8019816" lon="32.3987784">
<ele>45.22</ele>
<time>2015-04-24T15:29:17Z</time>
</trkpt>
<trkpt lat="34.8020326" lon="32.3987382">
<ele>44.57</ele>
<time>2015-04-24T15:29:18Z</time>
</trkpt>
<trkpt lat="34.8020942" lon="32.3987168">
<ele>44.75</ele>
<time>2015-04-24T15:29:19Z</time>
</trkpt>
<trkpt lat="34.8021413" lon="32.3986785">
<ele>44.34</ele>
<time>2015-04-24T15:29:20Z</time>
</trkpt>
<trkpt lat="34.8021916" lon="32.3986312">
<ele>44.63</ele>
<time>2015-04-24T15:29:21Z</time>
</trkpt>
<trkpt lat="34.8022408" lon="32.3986130">
<ele>44.78</ele>
<time>2015-04-24T15:29:22Z</time>
</trkpt>
<trkpt lat="34.8022950" lon="32.3985986">
<ele>44.35</ele>
<time>2015-04-24T15:29:23Z</time>
</trkpt>
<trkpt lat="34.8023471" lon="32.3985592">
<ele>43.64</ele>
<time>2015-04-24T15:29:24Z</time>
</trkpt>
<trkpt lat="34.8023980" lon="32.3985303">
<ele>43.28</ele>
<time>2015-04-24T15:29:25Z</time>
</trkpt>
<trkpt lat="34.8024526" lon="32.3984965">
<ele>43.10</ele>
<time>2015-04-24T15:29:26Z</time>
</trkpt>
<trkpt lat="34.8025106" lon="32.3984576">
<ele>43.51</ele>
<time>2015-04-24T15:29:27Z</time>
</trkpt>
<trkpt lat="34.8025710" lon="32.3984122">
<ele>44.22</ele>
<time>2015-04-24T15:29:28Z</time>
</trkpt>
<trkpt lat="34.8026337" lon="32.3983813">
<ele>45.07</ele>
<time>2015-04-24T15:29:29Z</time>
</trkpt>
<trkpt lat="34.8026836" lon="32.3983487">
<ele>45.50</ele>
<time>2015-04-24T15:29:30Z</time>
</trkpt>
<trkpt lat="34.8027409" lon="32.3983167">
<ele>45.71</ele>
<time>2015-04-24T15:29:31Z</time>
</trkpt>
<trkpt lat="34.8027946" lon="32.3982858">
<ele>45.32</ele>
<time>2015-04-24T15:29:32Z</time>
</trkpt>
<trkpt lat="34.8028515" lon="32.3982473">
<ele>44.62</ele>
<time>2015-04-24T15:29:33Z</time>
</trkpt>
<trkpt lat="34.8029196" lon="32.3982112">
<ele>44.77</ele>
<time>2015-04-24T15:29:34Z</time>
</trkpt>
<trkpt lat="34.8029768" lon="32.3981763">
<ele>44.85</ele>
<time>2015-04-24T15:29:35Z</time>
</trkpt>
<trkpt lat="34.8030383" lon="32.3981560">
<ele>44.39</ele>
<time>2015-04-24T15:29:36Z</time>
</trkpt>
<trkpt lat="34.8030986" lon="32.3981255">
<ele>44.16</ele>
<time>2015-04-24T15:29:37Z</time>
</trkpt>
<trkpt lat="34.8031581" lon="32.3980891">
<ele>43.54</ele>
<time>2015-04-24T15:29:38Z</time>
</trkpt>
<trkpt lat="34.8032176" lon="32.3980536">
<ele>43.73</ele>
<time>2015-04-24T15:29:39Z</time>
</trkpt>
<trkpt lat="34.8032796" lon="32.3980161">
<ele>43.33</ele>
<time>2015-04-24T15:29:40Z</time>
</trkpt>
<trkpt lat="34.8033418" lon="32.3979810">
<ele>43.13</ele>
<time>2015-04-24T15:29:41Z</time>
</trkpt>
<trkpt lat="34.8033947" lon="32.3979379">
<ele>43.03</ele>
<time>2015-04-24T15:29:42Z</time>
</trkpt>
<trkpt lat="34.8034488" lon="32.3979120">
<ele>42.98</ele>
<time>2015-04-24T15:29:43Z</time>
</trkpt>
<trkpt lat="34.8035037" lon="32.3978878">
<ele>42.45</ele>
<time>2015-04-24T15:29:44Z</time>
</trkpt>
<trkpt lat="34.8035575" lon="32.3978545">
<ele>42.19</ele>
<time>2015-04-24T15:29:45Z</time>
</trkpt>
<trkpt lat="34.8036060" lon="32.3978286">
<ele>42.06</ele>
<time>2015-04-24T15:29:46Z</time>
</trkpt>
<trkpt lat="34.8036566" lon="32.3978063">
<ele>41.99</ele>
<time>2015-04-24T15:29:47Z</time>
</trkpt>
<trkpt lat="34.8037138" lon="32.3977849">
<ele>41.96</ele>
<time>2015-04-24T15:29:48Z</time>
</trkpt>
<trkpt lat="34.8037620" lon="32.3977614">
<ele>41.94</ele>
<time>2015-04-24T15:29:49Z</time>
</trkpt>
<trkpt lat="34.8038115" lon="32.3977395">
<ele>41.93</ele>
<time>2015-04-24T15:29:50Z</time>
</trkpt>
<trkpt lat="34.8038576" lon="32.3977093">
<ele>41.93</ele>
<time>2015-04-24T15:29:51Z</time>
</trkpt>
<trkpt lat="34.8039080" lon="32.3976924">
<ele>41.93</ele>
<time>2015-04-24T15:29:52Z</time>
</trkpt>
<trkpt lat="34.8039569" lon="32.3976669">
<ele>42.43</ele>
<time>2015-04-24T15:29:53Z</time>
</trkpt>
<trkpt lat="34.8040028" lon="32.3976383">
<ele>42.68</ele>
<time>2015-04-24T15:29:54Z</time>
</trkpt>
<trkpt lat="34.8040739" lon="32.3975888">
<ele>42.11</ele>
<time>2015-04-24T15:29:56Z</time>
</trkpt>
<trkpt lat="34.8041141" lon="32.3975639">
<ele>41.52</ele>
<time>2015-04-24T15:29:57Z</time>
</trkpt>
<trkpt lat="34.8041527" lon="32.3975293">
<ele>41.22</ele>
<time>2015-04-24T15:29:58Z</time>
</trkpt>
<trkpt lat="34.8042289" lon="32.3975090">
<ele>40.25</ele>
<time>2015-04-24T15:30:00Z</time>
</trkpt>
<trkpt lat="34.8042810" lon="32.3974768">
<ele>38.26</ele>
<time>2015-04-24T15:30:02Z</time>
</trkpt>
<trkpt lat="34.8043260" lon="32.3974380">
<ele>38.26</ele>
<time>2015-04-24T15:30:04Z</time>
</trkpt>
<trkpt lat="34.8043925" lon="32.3974214">
<ele>38.01</ele>
<time>2015-04-24T15:30:06Z</time>
</trkpt>
<trkpt lat="34.8044639" lon="32.3973820">
<ele>37.95</ele>
<time>2015-04-24T15:30:08Z</time>
</trkpt>
<trkpt lat="34.8045447" lon="32.3973485">
<ele>38.68</ele>
<time>2015-04-24T15:30:10Z</time>
</trkpt>
<trkpt lat="34.8046284" lon="32.3973239">
<ele>38.86</ele>
<time>2015-04-24T15:30:12Z</time>
</trkpt>
<trkpt lat="34.8047180" lon="32.3972851">
<ele>38.41</ele>
<time>2015-04-24T15:30:14Z</time>
</trkpt>
<trkpt lat="34.8047644" lon="32.3972610">
<ele>38.17</ele>
<time>2015-04-24T15:30:15Z</time>
</trkpt>
<trkpt lat="34.8048113" lon="32.3972238">
<ele>38.55</ele>
<time>2015-04-24T15:30:16Z</time>
</trkpt>
<trkpt lat="34.8048629" lon="32.3972090">
<ele>38.24</ele>
<time>2015-04-24T15:30:17Z</time>
</trkpt>
<trkpt lat="34.8049514" lon="32.3971850">
<ele>38.50</ele>
<time>2015-04-24T15:30:19Z</time>
</trkpt>
<trkpt lat="34.8049962" lon="32.3971780">
<ele>38.71</ele>
<time>2015-04-24T15:30:20Z</time>
</trkpt>
<trkpt lat="34.8050376" lon="32.3971534">
<ele>40.32</ele>
<time>2015-04-24T15:30:21Z</time>
</trkpt>
<trkpt lat="34.8051093" lon="32.3971422">
<ele>41.52</ele>
<time>2015-04-24T15:30:23Z</time>
</trkpt>
<trkpt lat="34.8052027" lon="32.3971262">
<ele>41.32</ele>
<time>2015-04-24T15:30:25Z</time>
</trkpt>
<trkpt lat="34.8052452" lon="32.3971033">
<ele>40.62</ele>
<time>2015-04-24T15:30:26Z</time>
</trkpt>
<trkpt lat="34.8052901" lon="32.3970855">
<ele>39.77</ele>
<time>2015-04-24T15:30:27Z</time>
</trkpt>
<trkpt lat="34.8053368" lon="32.3970736">
<ele>39.35</ele>
<time>2015-04-24T15:30:28Z</time>
</trkpt>
<trkpt lat="34.8053896" lon="32.3970520">
<ele>39.64</ele>
<time>2015-04-24T15:30:29Z</time>
</trkpt>
<trkpt lat="34.8054355" lon="32.3970343">
<ele>39.28</ele>
<time>2015-04-24T15:30:30Z</time>
</trkpt>
<trkpt lat="34.8054860" lon="32.3970201">
<ele>39.60</ele>
<time>2015-04-24T15:30:31Z</time>
</trkpt>
<trkpt lat="34.8055384" lon="32.3970057">
<ele>39.26</ele>
<time>2015-04-24T15:30:32Z</time>
</trkpt>
<trkpt lat="34.8055878" lon="32.3969869">
<ele>39.09</ele>
<time>2015-04-24T15:30:33Z</time>
</trkpt>
<trkpt lat="34.8056441" lon="32.3969735">
<ele>39.01</ele>
<time>2015-04-24T15:30:34Z</time>
</trkpt>
<trkpt lat="34.8056901" lon="32.3969525">
<ele>38.97</ele>
<time>2015-04-24T15:30:35Z</time>
</trkpt>
<trkpt lat="34.8057419" lon="32.3969253">
<ele>39.45</ele>
<time>2015-04-24T15:30:36Z</time>
</trkpt>
<trkpt lat="34.8057855" lon="32.3969058">
<ele>39.69</ele>
<time>2015-04-24T15:30:37Z</time>
</trkpt>
<trkpt lat="34.8058390" lon="32.3968902">
<ele>39.81</ele>
<time>2015-04-24T15:30:38Z</time>
</trkpt>
<trkpt lat="34.8059319" lon="32.3968897">
<ele>38.65</ele>
<time>2015-04-24T15:30:40Z</time>
</trkpt>
<trkpt lat="34.8060085" lon="32.3968872">
<ele>37.61</ele>
<time>2015-04-24T15:30:42Z</time>
</trkpt>
<trkpt lat="34.8060891" lon="32.3968713">
<ele>38.35</ele>
<time>2015-04-24T15:30:44Z</time>
</trkpt>
<trkpt lat="34.8061372" lon="32.3968559">
<ele>38.64</ele>
<time>2015-04-24T15:30:45Z</time>
</trkpt>
<trkpt lat="34.8061852" lon="32.3968518">
<ele>39.28</ele>
<time>2015-04-24T15:30:46Z</time>
</trkpt>
<trkpt lat="34.8062333" lon="32.3968471">
<ele>40.10</ele>
<time>2015-04-24T15:30:47Z</time>
</trkpt>
<trkpt lat="34.8062843" lon="32.3968396">
<ele>40.51</ele>
<time>2015-04-24T15:30:48Z</time>
</trkpt>
<trkpt lat="34.8063368" lon="32.3968409">
<ele>40.72</ele>
<time>2015-04-24T15:30:49Z</time>
</trkpt>
<trkpt lat="34.8063888" lon="32.3968348">
<ele>40.32</ele>
<time>2015-04-24T15:30:50Z</time>
</trkpt>
<trkpt lat="34.8064453" lon="32.3968236">
<ele>40.12</ele>
<time>2015-04-24T15:30:51Z</time>
</trkpt>
<trkpt lat="34.8065025" lon="32.3968163">
<ele>40.52</ele>
<time>2015-04-24T15:30:52Z</time>
</trkpt>
<trkpt lat="34.8065550" lon="32.3968130">
<ele>40.22</ele>
<time>2015-04-24T15:30:53Z</time>
</trkpt>
<trkpt lat="34.8066088" lon="32.3968073">
<ele>40.57</ele>
<time>2015-04-24T15:30:54Z</time>
</trkpt>
<trkpt lat="34.8066655" lon="32.3968180">
<ele>40.25</ele>
<time>2015-04-24T15:30:55Z</time>
</trkpt>
<trkpt lat="34.8067228" lon="32.3968165">
<ele>39.59</ele>
<time>2015-04-24T15:30:56Z</time>
</trkpt>
<trkpt lat="34.8067747" lon="32.3968187">
<ele>39.26</ele>
<time>2015-04-24T15:30:57Z</time>
</trkpt>
<trkpt lat="34.8068243" lon="32.3968110">
<ele>39.59</ele>
<time>2015-04-24T15:30:58Z</time>
</trkpt>
<trkpt lat="34.8068822" lon="32.3968021">
<ele>40.26</ele>
<time>2015-04-24T15:30:59Z</time>
</trkpt>
<trkpt lat="34.8069367" lon="32.3967979">
<ele>40.59</ele>
<time>2015-04-24T15:31:00Z</time>
</trkpt>
<trkpt lat="34.8069877" lon="32.3967922">
<ele>41.26</ele>
<time>2015-04-24T15:31:01Z</time>
</trkpt>
<trkpt lat="34.8070362" lon="32.3967872">
<ele>41.59</ele>
<time>2015-04-24T15:31:02Z</time>
</trkpt>
<trkpt lat="34.8071139" lon="32.3967830">
<ele>43.34</ele>
<time>2015-04-24T15:31:04Z</time>
</trkpt>
<trkpt lat="34.8072065" lon="32.3967694">
<ele>43.03</ele>
<time>2015-04-24T15:31:06Z</time>
</trkpt>
<trkpt lat="34.8072606" lon="32.3967538">
<ele>42.98</ele>
<time>2015-04-24T15:31:07Z</time>
</trkpt>
<trkpt lat="34.8073140" lon="32.3967399">
<ele>42.45</ele>
<time>2015-04-24T15:31:08Z</time>
</trkpt>
<trkpt lat="34.8073606" lon="32.3967367">
<ele>42.69</ele>
<time>2015-04-24T15:31:09Z</time>
</trkpt>
<trkpt lat="34.8074108" lon="32.3967315">
<ele>42.81</ele>
<time>2015-04-24T15:31:10Z</time>
</trkpt>
<trkpt lat="34.8074659" lon="32.3967216">
<ele>42.87</ele>
<time>2015-04-24T15:31:11Z</time>
</trkpt>
<trkpt lat="34.8075530" lon="32.3967065">
<ele>43.91</ele>
<time>2015-04-24T15:31:13Z</time>
</trkpt>
<trkpt lat="34.8076071" lon="32.3967093">
<ele>43.42</ele>
<time>2015-04-24T15:31:14Z</time>
</trkpt>
<trkpt lat="34.8076604" lon="32.3966952">
<ele>43.17</ele>
<time>2015-04-24T15:31:15Z</time>
</trkpt>
<trkpt lat="34.8077138" lon="32.3966878">
<ele>43.05</ele>
<time>2015-04-24T15:31:16Z</time>
</trkpt>
<trkpt lat="34.8077673" lon="32.3966721">
<ele>42.49</ele>
<time>2015-04-24T15:31:17Z</time>
</trkpt>
<trkpt lat="34.8078178" lon="32.3966559">
<ele>42.21</ele>
<time>2015-04-24T15:31:18Z</time>
</trkpt>
<trkpt lat="34.8078712" lon="32.3966435">
<ele>42.07</ele>
<time>2015-04-24T15:31:19Z</time>
</trkpt>
<trkpt lat="34.8079240" lon="32.3966312">
<ele>42.00</ele>
<time>2015-04-24T15:31:20Z</time>
</trkpt>
<trkpt lat="34.8079823" lon="32.3966241">
<ele>41.46</ele>
<time>2015-04-24T15:31:21Z</time>
</trkpt>
<trkpt lat="34.8080379" lon="32.3966071">
<ele>41.19</ele>
<time>2015-04-24T15:31:22Z</time>
</trkpt>
<trkpt lat="34.8080925" lon="32.3965817">
<ele>40.56</ele>
<time>2015-04-24T15:31:23Z</time>
</trkpt>
<trkpt lat="34.8081481" lon="32.3965758">
<ele>39.74</ele>
<time>2015-04-24T15:31:24Z</time>
</trkpt>
<trkpt lat="34.8082075" lon="32.3965660">
<ele>39.33</ele>
<time>2015-04-24T15:31:25Z</time>
</trkpt>
<trkpt lat="34.8082627" lon="32.3965512">
<ele>39.13</ele>
<time>2015-04-24T15:31:26Z</time>
</trkpt>
<trkpt lat="34.8083206" lon="32.3965300">
<ele>39.53</ele>
<time>2015-04-24T15:31:27Z</time>
</trkpt>
<trkpt lat="34.8083749" lon="32.3965170">
<ele>39.73</ele>
<time>2015-04-24T15:31:28Z</time>
</trkpt>
<trkpt lat="34.8084248" lon="32.3964948">
<ele>39.83</ele>
<time>2015-04-24T15:31:29Z</time>
</trkpt>
<trkpt lat="34.8084785" lon="32.3964736">
<ele>39.88</ele>
<time>2015-04-24T15:31:30Z</time>
</trkpt>
<trkpt lat="34.8085290" lon="32.3964590">
<ele>39.90</ele>
<time>2015-04-24T15:31:31Z</time>
</trkpt>
<trkpt lat="34.8085791" lon="32.3964409">
<ele>39.91</ele>
<time>2015-04-24T15:31:32Z</time>
</trkpt>
<trkpt lat="34.8086350" lon="32.3964287">
<ele>38.92</ele>
<time>2015-04-24T15:31:33Z</time>
</trkpt>
<trkpt lat="34.8086802" lon="32.3963924">
<ele>38.92</ele>
<time>2015-04-24T15:31:34Z</time>
</trkpt>
<trkpt lat="34.8087286" lon="32.3963694">
<ele>38.92</ele>
<time>2015-04-24T15:31:35Z</time>
</trkpt>
<trkpt lat="34.8087772" lon="32.3963440">
<ele>38.92</ele>
<time>2015-04-24T15:31:36Z</time>
</trkpt>
<trkpt lat="34.8088269" lon="32.3963223">
<ele>38.92</ele>
<time>2015-04-24T15:31:37Z</time>
</trkpt>
<trkpt lat="34.8088758" lon="32.3963048">
<ele>38.92</ele>
<time>2015-04-24T15:31:38Z</time>
</trkpt>
<trkpt lat="34.8089243" lon="32.3962807">
<ele>39.42</ele>
<time>2015-04-24T15:31:39Z</time>
</trkpt>
<trkpt lat="34.8089728" lon="32.3962644">
<ele>39.67</ele>
<time>2015-04-24T15:31:40Z</time>
</trkpt>
<trkpt lat="34.8090270" lon="32.3962395">
<ele>39.30</ele>
<time>2015-04-24T15:31:41Z</time>
</trkpt>
<trkpt lat="34.8090805" lon="32.3962275">
<ele>38.11</ele>
<time>2015-04-24T15:31:42Z</time>
</trkpt>
<trkpt lat="34.8091275" lon="32.3962138">
<ele>37.52</ele>
<time>2015-04-24T15:31:43Z</time>
</trkpt>
<trkpt lat="34.8091762" lon="32.3961946">
<ele>37.22</ele>
<time>2015-04-24T15:31:44Z</time>
</trkpt>
<trkpt lat="34.8092270" lon="32.3961839">
<ele>36.57</ele>
<time>2015-04-24T15:31:45Z</time>
</trkpt>
<trkpt lat="34.8093099" lon="32.3961685">
<ele>35.34</ele>
<time>2015-04-24T15:31:47Z</time>
</trkpt>
<trkpt lat="34.8093657" lon="32.3961515">
<ele>35.13</ele>
<time>2015-04-24T15:31:48Z</time>
</trkpt>
<trkpt lat="34.8094178" lon="32.3961338">
<ele>35.03</ele>
<time>2015-04-24T15:31:49Z</time>
</trkpt>
<trkpt lat="34.8094660" lon="32.3961223">
<ele>34.98</ele>
<time>2015-04-24T15:31:50Z</time>
</trkpt>
<trkpt lat="34.8095558" lon="32.3961080">
<ele>35.69</ele>
<time>2015-04-24T15:31:52Z</time>
</trkpt>
<trkpt lat="34.8096375" lon="32.3960818">
<ele>35.37</ele>
<time>2015-04-24T15:31:54Z</time>
</trkpt>
<trkpt lat="34.8097209" lon="32.3960653">
<ele>34.29</ele>
<time>2015-04-24T15:31:56Z</time>
</trkpt>
<trkpt lat="34.8097717" lon="32.3960572">
<ele>34.11</ele>
<time>2015-04-24T15:31:57Z</time>
</trkpt>
<trkpt lat="34.8098275" lon="32.3960513">
<ele>34.02</ele>
<time>2015-04-24T15:31:58Z</time>
</trkpt>
<trkpt lat="34.8098848" lon="32.3960539">
<ele>33.97</ele>
<time>2015-04-24T15:31:59Z</time>
</trkpt>
<trkpt lat="34.8099376" lon="32.3960496">
<ele>33.45</ele>
<time>2015-04-24T15:32:00Z</time>
</trkpt>
<trkpt lat="34.8099881" lon="32.3960400">
<ele>33.19</ele>
<time>2015-04-24T15:32:01Z</time>
</trkpt>
<trkpt lat="34.8100365" lon="32.3960446">
<ele>32.56</ele>
<time>2015-04-24T15:32:02Z</time>
</trkpt>
<trkpt lat="34.8100857" lon="32.3960480">
<ele>32.24</ele>
<time>2015-04-24T15:32:03Z</time>
</trkpt>
<trkpt lat="34.8101385" lon="32.3960505">
<ele>32.58</ele>
<time>2015-04-24T15:32:04Z</time>
</trkpt>
<trkpt lat="34.8101917" lon="32.3960607">
<ele>32.25</ele>
<time>2015-04-24T15:32:05Z</time>
</trkpt>
<trkpt lat="34.8102468" lon="32.3960662">
<ele>32.09</ele>
<time>2015-04-24T15:32:06Z</time>
</trkpt>
<trkpt lat="34.8103047" lon="32.3960701">
<ele>32.01</ele>
<time>2015-04-24T15:32:07Z</time>
</trkpt>
<trkpt lat="34.8103640" lon="32.3960768">
<ele>31.97</ele>
<time>2015-04-24T15:32:08Z</time>
</trkpt>
<trkpt lat="34.8104247" lon="32.3960771">
<ele>32.45</ele>
<time>2015-04-24T15:32:09Z</time>
</trkpt>
<trkpt lat="34.8104852" lon="32.3960779">
<ele>33.19</ele>
<time>2015-04-24T15:32:10Z</time>
</trkpt>
<trkpt lat="34.8105431" lon="32.3960864">
<ele>33.56</ele>
<time>2015-04-24T15:32:11Z</time>
</trkpt>
<trkpt lat="34.8106055" lon="32.3961065">
<ele>33.24</ele>
<time>2015-04-24T15:32:12Z</time>
</trkpt>
<trkpt lat="34.8106598" lon="32.3961094">
<ele>33.08</ele>
<time>2015-04-24T15:32:13Z</time>
</trkpt>
<trkpt lat="34.8107181" lon="32.3961268">
<ele>32.50</ele>
<time>2015-04-24T15:32:14Z</time>
</trkpt>
<trkpt lat="34.8107778" lon="32.3961509">
<ele>32.21</ele>
<time>2015-04-24T15:32:15Z</time>
</trkpt>
<trkpt lat="34.8108313" lon="32.3961654">
<ele>32.57</ele>
<time>2015-04-24T15:32:16Z</time>
</trkpt>
<trkpt lat="34.8108909" lon="32.3961676">
<ele>31.75</ele>
<time>2015-04-24T15:32:17Z</time>
</trkpt>
<trkpt lat="34.8109430" lon="32.3961830">
<ele>31.84</ele>
<time>2015-04-24T15:32:18Z</time>
</trkpt>
<trkpt lat="34.8110006" lon="32.3961956">
<ele>31.88</ele>
<time>2015-04-24T15:32:19Z</time>
</trkpt>
<trkpt lat="34.8110608" lon="32.3962200">
<ele>31.90</ele>
<time>2015-04-24T15:32:20Z</time>
</trkpt>
<trkpt lat="34.8111152" lon="32.3962389">
<ele>31.91</ele>
<time>2015-04-24T15:32:21Z</time>
</trkpt>
<trkpt lat="34.8111646" lon="32.3962645">
<ele>31.92</ele>
<time>2015-04-24T15:32:22Z</time>
</trkpt>
<trkpt lat="34.8112195" lon="32.3962888">
<ele>31.92</ele>
<time>2015-04-24T15:32:23Z</time>
</trkpt>
<trkpt lat="34.8112738" lon="32.3963147">
<ele>31.92</ele>
<time>2015-04-24T15:32:24Z</time>
</trkpt>
<trkpt lat="34.8113318" lon="32.3963365">
<ele>32.42</ele>
<time>2015-04-24T15:32:25Z</time>
</trkpt>
<trkpt lat="34.8113872" lon="32.3963642">
<ele>32.67</ele>
<time>2015-04-24T15:32:26Z</time>
</trkpt>
<trkpt lat="34.8114417" lon="32.3963830">
<ele>32.80</ele>
<time>2015-04-24T15:32:27Z</time>
</trkpt>
<trkpt lat="34.8114969" lon="32.3964095">
<ele>32.36</ele>
<time>2015-04-24T15:32:28Z</time>
</trkpt>
<trkpt lat="34.8115538" lon="32.3964331">
<ele>31.64</ele>
<time>2015-04-24T15:32:29Z</time>
</trkpt>
<trkpt lat="34.8116080" lon="32.3964586">
<ele>31.78</ele>
<time>2015-04-24T15:32:30Z</time>
</trkpt>
<trkpt lat="34.8116582" lon="32.3964734">
<ele>31.35</ele>
<time>2015-04-24T15:32:31Z</time>
</trkpt>
<trkpt lat="34.8117152" lon="32.3964977">
<ele>31.14</ele>
<time>2015-04-24T15:32:32Z</time>
</trkpt>
<trkpt lat="34.8117678" lon="32.3965274">
<ele>31.03</ele>
<time>2015-04-24T15:32:33Z</time>
</trkpt>
<trkpt lat="34.8118253" lon="32.3965529">
<ele>30.98</ele>
<time>2015-04-24T15:32:34Z</time>
</trkpt>
<trkpt lat="34.8118714" lon="32.3965760">
<ele>30.95</ele>
<time>2015-04-24T15:32:35Z</time>
</trkpt>
<trkpt lat="34.8119370" lon="32.3966044">
<ele>30.94</ele>
<time>2015-04-24T15:32:36Z</time>
</trkpt>
<trkpt lat="34.8120003" lon="32.3966260">
<ele>30.93</ele>
<time>2015-04-24T15:32:37Z</time>
</trkpt>
<trkpt lat="34.8120568" lon="32.3966448">
<ele>30.43</ele>
<time>2015-04-24T15:32:38Z</time>
</trkpt>
<trkpt lat="34.8121188" lon="32.3966697">
<ele>29.68</ele>
<time>2015-04-24T15:32:39Z</time>
</trkpt>
<trkpt lat="34.8121849" lon="32.3966746">
<ele>29.30</ele>
<time>2015-04-24T15:32:40Z</time>
</trkpt>
<trkpt lat="34.8122452" lon="32.3966827">
<ele>28.61</ele>
<time>2015-04-24T15:32:41Z</time>
</trkpt>
<trkpt lat="34.8123020" lon="32.3967050">
<ele>28.77</ele>
<time>2015-04-24T15:32:42Z</time>
</trkpt>
<trkpt lat="34.8123588" lon="32.3967115">
<ele>28.85</ele>
<time>2015-04-24T15:32:43Z</time>
</trkpt>
<trkpt lat="34.8124186" lon="32.3967255">
<ele>29.39</ele>
<time>2015-04-24T15:32:44Z</time>
</trkpt>
<trkpt lat="34.8124847" lon="32.3967256">
<ele>29.66</ele>
<time>2015-04-24T15:32:45Z</time>
</trkpt>
<trkpt lat="34.8125488" lon="32.3967270">
<ele>29.79</ele>
<time>2015-04-24T15:32:46Z</time>
</trkpt>
<trkpt lat="34.8126117" lon="32.3967377">
<ele>29.36</ele>
<time>2015-04-24T15:32:47Z</time>
</trkpt>
<trkpt lat="34.8126808" lon="32.3967407">
<ele>29.14</ele>
<time>2015-04-24T15:32:48Z</time>
</trkpt>
<trkpt lat="34.8127511" lon="32.3967343">
<ele>29.53</ele>
<time>2015-04-24T15:32:49Z</time>
</trkpt>
<trkpt lat="34.8128236" lon="32.3967237">
<ele>29.73</ele>
<time>2015-04-24T15:32:50Z</time>
</trkpt>
<trkpt lat="34.8128925" lon="32.3967131">
<ele>29.83</ele>
<time>2015-04-24T15:32:51Z</time>
</trkpt>
<trkpt lat="34.8129613" lon="32.3966949">
<ele>29.88</ele>
<time>2015-04-24T15:32:52Z</time>
</trkpt>
<trkpt lat="34.8130285" lon="32.3966619">
<ele>29.90</ele>
<time>2015-04-24T15:32:53Z</time>
</trkpt>
<trkpt lat="34.8130915" lon="32.3966362">
<ele>29.91</ele>
<time>2015-04-24T15:32:54Z</time>
</trkpt>
<trkpt lat="34.8131579" lon="32.3966078">
<ele>29.42</ele>
<time>2015-04-24T15:32:55Z</time>
</trkpt>
<trkpt lat="34.8132186" lon="32.3965736">
<ele>29.17</ele>
<time>2015-04-24T15:32:56Z</time>
</trkpt>
<trkpt lat="34.8132752" lon="32.3965439">
<ele>29.05</ele>
<time>2015-04-24T15:32:57Z</time>
</trkpt>
<trkpt lat="34.8133328" lon="32.3965074">
<ele>28.99</ele>
<time>2015-04-24T15:32:58Z</time>
</trkpt>
<trkpt lat="34.8133922" lon="32.3964685">
<ele>28.96</ele>
<time>2015-04-24T15:32:59Z</time>
</trkpt>
<trkpt lat="34.8134491" lon="32.3964319">
<ele>28.94</ele>
<time>2015-04-24T15:33:00Z</time>
</trkpt>
<trkpt lat="34.8134937" lon="32.3963944">
<ele>28.93</ele>
<time>2015-04-24T15:33:01Z</time>
</trkpt>
<trkpt lat="34.8135445" lon="32.3963589">
<ele>29.43</ele>
<time>2015-04-24T15:33:02Z</time>
</trkpt>
<trkpt lat="34.8135888" lon="32.3963246">
<ele>29.68</ele>
<time>2015-04-24T15:33:03Z</time>
</trkpt>
<trkpt lat="34.8136361" lon="32.3962783">
<ele>29.80</ele>
<time>2015-04-24T15:33:04Z</time>
</trkpt>
<trkpt lat="34.8136766" lon="32.3962306">
<ele>29.86</ele>
<time>2015-04-24T15:33:05Z</time>
</trkpt>
<trkpt lat="34.8137212" lon="32.3961886">
<ele>29.89</ele>
<time>2015-04-24T15:33:06Z</time>
</trkpt>
<trkpt lat="34.8137679" lon="32.3961569">
<ele>29.91</ele>
<time>2015-04-24T15:33:07Z</time>
</trkpt>
<trkpt lat="34.8138107" lon="32.3961162">
<ele>29.92</ele>
<time>2015-04-24T15:33:08Z</time>
</trkpt>
<trkpt lat="34.8138516" lon="32.3960836">
<ele>29.42</ele>
<time>2015-04-24T15:33:09Z</time>
</trkpt>
<trkpt lat="34.8138940" lon="32.3960542">
<ele>29.17</ele>
<time>2015-04-24T15:33:10Z</time>
</trkpt>
<trkpt lat="34.8139371" lon="32.3960112">
<ele>29.55</ele>
<time>2015-04-24T15:33:11Z</time>
</trkpt>
<trkpt lat="34.8139812" lon="32.3959678">
<ele>30.24</ele>
<time>2015-04-24T15:33:12Z</time>
</trkpt>
<trkpt lat="34.8140199" lon="32.3959369">
<ele>30.58</ele>
<time>2015-04-24T15:33:13Z</time>
</trkpt>
<trkpt lat="34.8140599" lon="32.3958965">
<ele>30.25</ele>
<time>2015-04-24T15:33:14Z</time>
</trkpt>
<trkpt lat="34.8140984" lon="32.3958600">
<ele>30.09</ele>
<time>2015-04-24T15:33:15Z</time>
</trkpt>
<trkpt lat="34.8141434" lon="32.3958251">
<ele>30.01</ele>
<time>2015-04-24T15:33:16Z</time>
</trkpt>
<trkpt lat="34.8141918" lon="32.3957985">
<ele>29.97</ele>
<time>2015-04-24T15:33:17Z</time>
</trkpt>
<trkpt lat="34.8142249" lon="32.3957576">
<ele>29.95</ele>
<time>2015-04-24T15:33:18Z</time>
</trkpt>
<trkpt lat="34.8142608" lon="32.3957192">
<ele>29.44</ele>
<time>2015-04-24T15:33:19Z</time>
</trkpt>
<trkpt lat="34.8143074" lon="32.3956907">
<ele>28.68</ele>
<time>2015-04-24T15:33:20Z</time>
</trkpt>
<trkpt lat="34.8143542" lon="32.3956681">
<ele>28.30</ele>
<time>2015-04-24T15:33:21Z</time>
</trkpt>
<trkpt lat="34.8144032" lon="32.3956334">
<ele>28.11</ele>
<time>2015-04-24T15:33:22Z</time>
</trkpt>
<trkpt lat="34.8144509" lon="32.3956002">
<ele>28.02</ele>
<time>2015-04-24T15:33:23Z</time>
</trkpt>
<trkpt lat="34.8144951" lon="32.3955756">
<ele>27.97</ele>
<time>2015-04-24T15:33:24Z</time>
</trkpt>
<trkpt lat="34.8145866" lon="32.3955262">
<ele>27.44</ele>
<time>2015-04-24T15:33:26Z</time>
</trkpt>
<trkpt lat="34.8146378" lon="32.3955123">
<ele>26.68</ele>
<time>2015-04-24T15:33:27Z</time>
</trkpt>
<trkpt lat="34.8147160" lon="32.3954581">
<ele>26.11</ele>
<time>2015-04-24T15:33:29Z</time>
</trkpt>
<trkpt lat="34.8147630" lon="32.3954349">
<ele>25.52</ele>
<time>2015-04-24T15:33:30Z</time>
</trkpt>
<trkpt lat="34.8148120" lon="32.3954180">
<ele>25.22</ele>
<time>2015-04-24T15:33:31Z</time>
</trkpt>
<trkpt lat="34.8148611" lon="32.3953875">
<ele>25.07</ele>
<time>2015-04-24T15:33:32Z</time>
</trkpt>
<trkpt lat="34.8149137" lon="32.3953692">
<ele>25.00</ele>
<time>2015-04-24T15:33:33Z</time>
</trkpt>
<trkpt lat="34.8149618" lon="32.3953470">
<ele>24.96</ele>
<time>2015-04-24T15:33:34Z</time>
</trkpt>
<trkpt lat="34.8150204" lon="32.3953249">
<ele>25.44</ele>
<time>2015-04-24T15:33:35Z</time>
</trkpt>
<trkpt lat="34.8150774" lon="32.3952990">
<ele>25.68</ele>
<time>2015-04-24T15:33:36Z</time>
</trkpt>
<trkpt lat="34.8151355" lon="32.3952753">
<ele>25.80</ele>
<time>2015-04-24T15:33:37Z</time>
</trkpt>
<trkpt lat="34.8151860" lon="32.3952581">
<ele>25.86</ele>
<time>2015-04-24T15:33:38Z</time>
</trkpt>
<trkpt lat="34.8152339" lon="32.3952383">
<ele>25.39</ele>
<time>2015-04-24T15:33:39Z</time>
</trkpt>
<trkpt lat="34.8152876" lon="32.3952268">
<ele>25.16</ele>
<time>2015-04-24T15:33:40Z</time>
</trkpt>
<trkpt lat="34.8153329" lon="32.3952093">
<ele>25.04</ele>
<time>2015-04-24T15:33:41Z</time>
</trkpt>
<trkpt lat="34.8153869" lon="32.3951879">
<ele>24.48</ele>
<time>2015-04-24T15:33:42Z</time>
</trkpt>
<trkpt lat="34.8154360" lon="32.3951685">
<ele>24.20</ele>
<time>2015-04-24T15:33:43Z</time>
</trkpt>
<trkpt lat="34.8154896" lon="32.3951533">
<ele>23.56</ele>
<time>2015-04-24T15:33:44Z</time>
</trkpt>
<trkpt lat="34.8155373" lon="32.3951398">
<ele>23.24</ele>
<time>2015-04-24T15:33:45Z</time>
</trkpt>
<trkpt lat="34.8155911" lon="32.3951323">
<ele>23.08</ele>
<time>2015-04-24T15:33:46Z</time>
</trkpt>
<trkpt lat="34.8156796" lon="32.3951100">
<ele>22.96</ele>
<time>2015-04-24T15:33:48Z</time>
</trkpt>
<trkpt lat="34.8157265" lon="32.3950954">
<ele>22.44</ele>
<time>2015-04-24T15:33:49Z</time>
</trkpt>
<trkpt lat="34.8158134" lon="32.3950654">
<ele>23.55</ele>
<time>2015-04-24T15:33:51Z</time>
</trkpt>
<trkpt lat="34.8158741" lon="32.3950442">
<ele>23.74</ele>
<time>2015-04-24T15:33:52Z</time>
</trkpt>
<trkpt lat="34.8159306" lon="32.3950404">
<ele>23.33</ele>
<time>2015-04-24T15:33:53Z</time>
</trkpt>
<trkpt lat="34.8159814" lon="32.3950312">
<ele>23.13</ele>
<time>2015-04-24T15:33:54Z</time>
</trkpt>
<trkpt lat="34.8160444" lon="32.3950105">
<ele>23.53</ele>
<time>2015-04-24T15:33:55Z</time>
</trkpt>
<trkpt lat="34.8160985" lon="32.3950007">
<ele>23.73</ele>
<time>2015-04-24T15:33:56Z</time>
</trkpt>
<trkpt lat="34.8161489" lon="32.3950061">
<ele>23.33</ele>
<time>2015-04-24T15:33:57Z</time>
</trkpt>
<trkpt lat="34.8162090" lon="32.3950183">
<ele>22.13</ele>
<time>2015-04-24T15:33:58Z</time>
</trkpt>
<trkpt lat="34.8162596" lon="32.3950132">
<ele>21.03</ele>
<time>2015-04-24T15:33:59Z</time>
</trkpt>
<trkpt lat="34.8163169" lon="32.3950061">
<ele>21.48</ele>
<time>2015-04-24T15:34:00Z</time>
</trkpt>
<trkpt lat="34.8163662" lon="32.3950120">
<ele>21.70</ele>
<time>2015-04-24T15:34:01Z</time>
</trkpt>
<trkpt lat="34.8164318" lon="32.3950129">
<ele>22.31</ele>
<time>2015-04-24T15:34:02Z</time>
</trkpt>
<trkpt lat="34.8164942" lon="32.3950093">
<ele>23.12</ele>
<time>2015-04-24T15:34:03Z</time>
</trkpt>
<trkpt lat="34.8165507" lon="32.3950083">
<ele>24.02</ele>
<time>2015-04-24T15:34:04Z</time>
</trkpt>
<trkpt lat="34.8166107" lon="32.3950168">
<ele>24.47</ele>
<time>2015-04-24T15:34:05Z</time>
</trkpt>
<trkpt lat="34.8166770" lon="32.3950253">
<ele>24.20</ele>
<time>2015-04-24T15:34:06Z</time>
</trkpt>
<trkpt lat="34.8167378" lon="32.3950272">
<ele>24.06</ele>
<time>2015-04-24T15:34:07Z</time>
</trkpt>
<trkpt lat="34.8167944" lon="32.3950244">
<ele>23.99</ele>
<time>2015-04-24T15:34:08Z</time>
</trkpt>
<trkpt lat="34.8168494" lon="32.3950252">
<ele>23.96</ele>
<time>2015-04-24T15:34:09Z</time>
</trkpt>
<trkpt lat="34.8169059" lon="32.3950261">
<ele>23.94</ele>
<time>2015-04-24T15:34:10Z</time>
</trkpt>
<trkpt lat="34.8169599" lon="32.3950325">
<ele>23.93</ele>
<time>2015-04-24T15:34:11Z</time>
</trkpt>
<trkpt lat="34.8170187" lon="32.3950304">
<ele>24.93</ele>
<time>2015-04-24T15:34:12Z</time>
</trkpt>
<trkpt lat="34.8170760" lon="32.3950319">
<ele>25.43</ele>
<time>2015-04-24T15:34:13Z</time>
</trkpt>
<trkpt lat="34.8171323" lon="32.3950293">
<ele>26.18</ele>
<time>2015-04-24T15:34:14Z</time>
</trkpt>
<trkpt lat="34.8171897" lon="32.3950296">
<ele>27.05</ele>
<time>2015-04-24T15:34:15Z</time>
</trkpt>
<trkpt lat="34.8172518" lon="32.3950311">
<ele>27.49</ele>
<time>2015-04-24T15:34:16Z</time>
</trkpt>
<trkpt lat="34.8173163" lon="32.3950383">
<ele>28.21</ele>
<time>2015-04-24T15:34:17Z</time>
</trkpt>
<trkpt lat="34.8173707" lon="32.3950459">
<ele>28.57</ele>
<time>2015-04-24T15:34:18Z</time>
</trkpt>
<trkpt lat="34.8174310" lon="32.3950525">
<ele>28.75</ele>
<time>2015-04-24T15:34:19Z</time>
</trkpt>
<trkpt lat="34.8174999" lon="32.3950558">
<ele>28.84</ele>
<time>2015-04-24T15:34:20Z</time>
</trkpt>
<trkpt lat="34.8175672" lon="32.3950509">
<ele>29.88</ele>
<time>2015-04-24T15:34:21Z</time>
</trkpt>
<trkpt lat="34.8176281" lon="32.3950508">
<ele>29.90</ele>
<time>2015-04-24T15:34:22Z</time>
</trkpt>
<trkpt lat="34.8176834" lon="32.3950526">
<ele>29.91</ele>
<time>2015-04-24T15:34:23Z</time>
</trkpt>
<trkpt lat="34.8177438" lon="32.3950567">
<ele>28.92</ele>
<time>2015-04-24T15:34:24Z</time>
</trkpt>
<trkpt lat="34.8178186" lon="32.3950673">
<ele>27.92</ele>
<time>2015-04-24T15:34:25Z</time>
</trkpt>
<trkpt lat="34.8178835" lon="32.3950831">
<ele>27.42</ele>
<time>2015-04-24T15:34:26Z</time>
</trkpt>
<trkpt lat="34.8179405" lon="32.3950823">
<ele>26.67</ele>
<time>2015-04-24T15:34:27Z</time>
</trkpt>
<trkpt lat="34.8180009" lon="32.3950864">
<ele>26.80</ele>
<time>2015-04-24T15:34:28Z</time>
</trkpt>
<trkpt lat="34.8180666" lon="32.3950890">
<ele>27.36</ele>
<time>2015-04-24T15:34:29Z</time>
</trkpt>
<trkpt lat="34.8181235" lon="32.3950882">
<ele>27.14</ele>
<time>2015-04-24T15:34:30Z</time>
</trkpt>
<trkpt lat="34.8181763" lon="32.3950963">
<ele>27.03</ele>
<time>2015-04-24T15:34:31Z</time>
</trkpt>
<trkpt lat="34.8182383" lon="32.3950975">
<ele>26.98</ele>
<time>2015-04-24T15:34:32Z</time>
</trkpt>
<trkpt lat="34.8183044" lon="32.3951076">
<ele>26.95</ele>
<time>2015-04-24T15:34:33Z</time>
</trkpt>
<trkpt lat="34.8183609" lon="32.3951050">
<ele>26.94</ele>
<time>2015-04-24T15:34:34Z</time>
</trkpt>
<trkpt lat="34.8184150" lon="32.3951057">
<ele>27.43</ele>
<time>2015-04-24T15:34:35Z</time>
</trkpt>
<trkpt lat="34.8184786" lon="32.3951072">
<ele>27.68</ele>
<time>2015-04-24T15:34:36Z</time>
</trkpt>
<trkpt lat="34.8185359" lon="32.3951022">
<ele>27.80</ele>
<time>2015-04-24T15:34:37Z</time>
</trkpt>
<trkpt lat="34.8186001" lon="32.3950968">
<ele>27.86</ele>
<time>2015-04-24T15:34:38Z</time>
</trkpt>
<trkpt lat="34.8186636" lon="32.3950935">
<ele>27.89</ele>
<time>2015-04-24T15:34:39Z</time>
</trkpt>
<trkpt lat="34.8187249" lon="32.3950959">
<ele>27.41</ele>
<time>2015-04-24T15:34:40Z</time>
</trkpt>
<trkpt lat="34.8187840" lon="32.3950950">
<ele>27.17</ele>
<time>2015-04-24T15:34:41Z</time>
</trkpt>
<trkpt lat="34.8188449" lon="32.3950995">
<ele>27.05</ele>
<time>2015-04-24T15:34:42Z</time>
</trkpt>
<trkpt lat="34.8189066" lon="32.3950963">
<ele>26.49</ele>
<time>2015-04-24T15:34:43Z</time>
</trkpt>
<trkpt lat="34.8189756" lon="32.3950858">
<ele>26.21</ele>
<time>2015-04-24T15:34:44Z</time>
</trkpt>
<trkpt lat="34.8190338" lon="32.3950958">
<ele>25.07</ele>
<time>2015-04-24T15:34:45Z</time>
</trkpt>
<trkpt lat="34.8190945" lon="32.3950877">
<ele>25.00</ele>
<time>2015-04-24T15:34:46Z</time>
</trkpt>
<trkpt lat="34.8191538" lon="32.3950704">
<ele>24.46</ele>
<time>2015-04-24T15:34:47Z</time>
</trkpt>
<trkpt lat="34.8192104" lon="32.3950496">
<ele>24.19</ele>
<time>2015-04-24T15:34:48Z</time>
</trkpt>
<trkpt lat="34.8192627" lon="32.3950321">
<ele>24.06</ele>
<time>2015-04-24T15:34:49Z</time>
</trkpt>
<trkpt lat="34.8193247" lon="32.3950149">
<ele>23.99</ele>
<time>2015-04-24T15:34:50Z</time>
</trkpt>
<trkpt lat="34.8193828" lon="32.3949898">
<ele>23.46</ele>
<time>2015-04-24T15:34:51Z</time>
</trkpt>
<trkpt lat="34.8194454" lon="32.3949688">
<ele>23.69</ele>
<time>2015-04-24T15:34:52Z</time>
</trkpt>
<trkpt lat="34.8195060" lon="32.3949297">
<ele>24.31</ele>
<time>2015-04-24T15:34:53Z</time>
</trkpt>
<trkpt lat="34.8195580" lon="32.3949129">
<ele>24.12</ele>
<time>2015-04-24T15:34:54Z</time>
</trkpt>
<trkpt lat="34.8196043" lon="32.3948866">
<ele>24.02</ele>
<time>2015-04-24T15:34:55Z</time>
</trkpt>
<trkpt lat="34.8196637" lon="32.3948561">
<ele>23.97</ele>
<time>2015-04-24T15:34:56Z</time>
</trkpt>
<trkpt lat="34.8197176" lon="32.3948275">
<ele>23.95</ele>
<time>2015-04-24T15:34:57Z</time>
</trkpt>
<trkpt lat="34.8197684" lon="32.3948023">
<ele>23.44</ele>
<time>2015-04-24T15:34:58Z</time>
</trkpt>
<trkpt lat="34.8198122" lon="32.3947615">
<ele>23.18</ele>
<time>2015-04-24T15:34:59Z</time>
</trkpt>
<trkpt lat="34.8198668" lon="32.3947310">
<ele>23.55</ele>
<time>2015-04-24T15:35:00Z</time>
</trkpt>
<trkpt lat="34.8199130" lon="32.3946988">
<ele>23.24</ele>
<time>2015-04-24T15:35:01Z</time>
</trkpt>
<trkpt lat="34.8199617" lon="32.3946706">
<ele>23.08</ele>
<time>2015-04-24T15:35:02Z</time>
</trkpt>
<trkpt lat="34.8200014" lon="32.3946397">
<ele>23.50</ele>
<time>2015-04-24T15:35:03Z</time>
</trkpt>
<trkpt lat="34.8200393" lon="32.3945996">
<ele>23.21</ele>
<time>2015-04-24T15:35:04Z</time>
</trkpt>
<trkpt lat="34.8200828" lon="32.3945508">
<ele>24.07</ele>
<time>2015-04-24T15:35:05Z</time>
</trkpt>
<trkpt lat="34.8201419" lon="32.3945138">
<ele>25.50</ele>
<time>2015-04-24T15:35:06Z</time>
</trkpt>
<trkpt lat="34.8201880" lon="32.3944849">
<ele>25.71</ele>
<time>2015-04-24T15:35:07Z</time>
</trkpt>
<trkpt lat="34.8202360" lon="32.3944433">
<ele>26.32</ele>
<time>2015-04-24T15:35:08Z</time>
</trkpt>
<trkpt lat="34.8202778" lon="32.3943922">
<ele>27.12</ele>
<time>2015-04-24T15:35:09Z</time>
</trkpt>
<trkpt lat="34.8203202" lon="32.3943594">
<ele>27.52</ele>
<time>2015-04-24T15:35:10Z</time>
</trkpt>
<trkpt lat="34.8203639" lon="32.3943193">
<ele>27.72</ele>
<time>2015-04-24T15:35:11Z</time>
</trkpt>
<trkpt lat="34.8204125" lon="32.3942876">
<ele>27.82</ele>
<time>2015-04-24T15:35:12Z</time>
</trkpt>
<trkpt lat="34.8204601" lon="32.3942525">
<ele>28.37</ele>
<time>2015-04-24T15:35:13Z</time>
</trkpt>
<trkpt lat="34.8205076" lon="32.3942218">
<ele>29.15</ele>
<time>2015-04-24T15:35:14Z</time>
</trkpt>
<trkpt lat="34.8205542" lon="32.3941911">
<ele>29.54</ele>
<time>2015-04-24T15:35:15Z</time>
</trkpt>
<trkpt lat="34.8206048" lon="32.3941519">
<ele>29.73</ele>
<time>2015-04-24T15:35:16Z</time>
</trkpt>
<trkpt lat="34.8206503" lon="32.3941158">
<ele>29.83</ele>
<time>2015-04-24T15:35:17Z</time>
</trkpt>
<trkpt lat="34.8206897" lon="32.3940840">
<ele>29.88</ele>
<time>2015-04-24T15:35:18Z</time>
</trkpt>
<trkpt lat="34.8207310" lon="32.3940548">
<ele>29.90</ele>
<time>2015-04-24T15:35:19Z</time>
</trkpt>
<trkpt lat="34.8208057" lon="32.3940025">
<ele>29.92</ele>
<time>2015-04-24T15:35:21Z</time>
</trkpt>
<trkpt lat="34.8208719" lon="32.3939496">
<ele>29.17</ele>
<time>2015-04-24T15:35:23Z</time>
</trkpt>
<trkpt lat="34.8209356" lon="32.3939062">
<ele>28.99</ele>
<time>2015-04-24T15:35:25Z</time>
</trkpt>
<trkpt lat="34.8209903" lon="32.3938404">
<ele>27.94</ele>
<time>2015-04-24T15:35:27Z</time>
</trkpt>
<trkpt lat="34.8210508" lon="32.3937866">
<ele>28.43</ele>
<time>2015-04-24T15:35:29Z</time>
</trkpt>
<trkpt lat="34.8211188" lon="32.3937282">
<ele>28.80</ele>
<time>2015-04-24T15:35:31Z</time>
</trkpt>
<trkpt lat="34.8211906" lon="32.3936712">
<ele>29.39</ele>
<time>2015-04-24T15:35:33Z</time>
</trkpt>
<trkpt lat="34.8212614" lon="32.3936169">
<ele>30.29</ele>
<time>2015-04-24T15:35:35Z</time>
</trkpt>
<trkpt lat="34.8213296" lon="32.3935636">
<ele>30.27</ele>
<time>2015-04-24T15:35:37Z</time>
</trkpt>
<trkpt lat="34.8213902" lon="32.3934990">
<ele>29.26</ele>
<time>2015-04-24T15:35:39Z</time>
</trkpt>
<trkpt lat="34.8214524" lon="32.3934359">
<ele>28.51</ele>
<time>2015-04-24T15:35:41Z</time>
</trkpt>
<trkpt lat="34.8215224" lon="32.3933808">
<ele>28.07</ele>
<time>2015-04-24T15:35:43Z</time>
</trkpt>
<trkpt lat="34.8215922" lon="32.3933131">
<ele>28.46</ele>
<time>2015-04-24T15:35:45Z</time>
</trkpt>
<trkpt lat="34.8216326" lon="32.3932785">
<ele>28.69</ele>
<time>2015-04-24T15:35:46Z</time>
</trkpt>
<trkpt lat="34.8217204" lon="32.3932260">
<ele>28.87</ele>
<time>2015-04-24T15:35:48Z</time>
</trkpt>
<trkpt lat="34.8217578" lon="32.3931902">
<ele>29.40</ele>
<time>2015-04-24T15:35:49Z</time>
</trkpt>
<trkpt lat="34.8217949" lon="32.3931551">
<ele>30.16</ele>
<time>2015-04-24T15:35:50Z</time>
</trkpt>
<trkpt lat="34.8218767" lon="32.3930979">
<ele>30.73</ele>
<time>2015-04-24T15:35:52Z</time>
</trkpt>
<trkpt lat="34.8219155" lon="32.3930620">
<ele>30.33</ele>
<time>2015-04-24T15:35:53Z</time>
</trkpt>
<trkpt lat="34.8219966" lon="32.3930086">
<ele>28.03</ele>
<time>2015-04-24T15:35:55Z</time>
</trkpt>
<trkpt lat="34.8220405" lon="32.3929816">
<ele>26.98</ele>
<time>2015-04-24T15:35:56Z</time>
</trkpt>
<trkpt lat="34.8221228" lon="32.3929328">
<ele>27.19</ele>
<time>2015-04-24T15:35:58Z</time>
</trkpt>
<trkpt lat="34.8221609" lon="32.3928980">
<ele>27.06</ele>
<time>2015-04-24T15:35:59Z</time>
</trkpt>
<trkpt lat="34.8222417" lon="32.3928408">
<ele>26.71</ele>
<time>2015-04-24T15:36:01Z</time>
</trkpt>
<trkpt lat="34.8222826" lon="32.3928026">
<ele>26.82</ele>
<time>2015-04-24T15:36:02Z</time>
</trkpt>
<trkpt lat="34.8223569" lon="32.3927586">
<ele>26.90</ele>
<time>2015-04-24T15:36:04Z</time>
</trkpt>
<trkpt lat="34.8224298" lon="32.3927218">
<ele>26.92</ele>
<time>2015-04-24T15:36:06Z</time>
</trkpt>
<trkpt lat="34.8224957" lon="32.3926734">
<ele>27.17</ele>
<time>2015-04-24T15:36:08Z</time>
</trkpt>
<trkpt lat="34.8225668" lon="32.3926383">
<ele>28.24</ele>
<time>2015-04-24T15:36:10Z</time>
</trkpt>
<trkpt lat="34.8226310" lon="32.3925981">
<ele>28.25</ele>
<time>2015-04-24T15:36:12Z</time>
</trkpt>
<trkpt lat="34.8227013" lon="32.3925691">
<ele>28.76</ele>
<time>2015-04-24T15:36:14Z</time>
</trkpt>
<trkpt lat="34.8227717" lon="32.3925527">
<ele>30.38</ele>
<time>2015-04-24T15:36:16Z</time>
</trkpt>
<trkpt lat="34.8228397" lon="32.3925214">
<ele>30.79</ele>
<time>2015-04-24T15:36:18Z</time>
</trkpt>
<trkpt lat="34.8229110" lon="32.3924934">
<ele>31.39</ele>
<time>2015-04-24T15:36:20Z</time>
</trkpt>
<trkpt lat="34.8229870" lon="32.3924698">
<ele>31.79</ele>
<time>2015-04-24T15:36:22Z</time>
</trkpt>
<trkpt lat="34.8230656" lon="32.3924442">
<ele>33.89</ele>
<time>2015-04-24T15:36:24Z</time>
</trkpt>
<trkpt lat="34.8231439" lon="32.3924240">
<ele>34.67</ele>
<time>2015-04-24T15:36:26Z</time>
</trkpt>
<trkpt lat="34.8232232" lon="32.3924043">
<ele>35.11</ele>
<time>2015-04-24T15:36:28Z</time>
</trkpt>
<trkpt lat="34.8233018" lon="32.3923919">
<ele>34.22</ele>
<time>2015-04-24T15:36:30Z</time>
</trkpt>
<trkpt lat="34.8233785" lon="32.3923775">
<ele>33.25</ele>
<time>2015-04-24T15:36:32Z</time>
</trkpt>
<trkpt lat="34.8234561" lon="32.3923698">
<ele>34.26</ele>
<time>2015-04-24T15:36:34Z</time>
</trkpt>
<trkpt lat="34.8235012" lon="32.3923730">
<ele>34.59</ele>
<time>2015-04-24T15:36:35Z</time>
</trkpt>
<trkpt lat="34.8235796" lon="32.3923594">
<ele>36.09</ele>
<time>2015-04-24T15:36:37Z</time>
</trkpt>
<trkpt lat="34.8236545" lon="32.3923483">
<ele>36.72</ele>
<time>2015-04-24T15:36:39Z</time>
</trkpt>
<trkpt lat="34.8237176" lon="32.3923547">
<ele>36.87</ele>
<time>2015-04-24T15:36:41Z</time>
</trkpt>
<trkpt lat="34.8237881" lon="32.3923551">
<ele>37.66</ele>
<time>2015-04-24T15:36:43Z</time>
</trkpt>
<trkpt lat="34.8238532" lon="32.3923515">
<ele>37.11</ele>
<time>2015-04-24T15:36:45Z</time>
</trkpt>
<trkpt lat="34.8239228" lon="32.3923497">
<ele>37.72</ele>
<time>2015-04-24T15:36:47Z</time>
</trkpt>
<trkpt lat="34.8239930" lon="32.3923452">
<ele>37.62</ele>
<time>2015-04-24T15:36:49Z</time>
</trkpt>
<trkpt lat="34.8240594" lon="32.3923428">
<ele>37.60</ele>
<time>2015-04-24T15:36:51Z</time>
</trkpt>
<trkpt lat="34.8241281" lon="32.3923336">
<ele>38.09</ele>
<time>2015-04-24T15:36:53Z</time>
</trkpt>
<trkpt lat="34.8241934" lon="32.3923245">
<ele>38.72</ele>
<time>2015-04-24T15:36:55Z</time>
</trkpt>
<trkpt lat="34.8242575" lon="32.3923266">
<ele>38.87</ele>
<time>2015-04-24T15:36:57Z</time>
</trkpt>
<trkpt lat="34.8243165" lon="32.3923360">
<ele>38.91</ele>
<time>2015-04-24T15:36:59Z</time>
</trkpt>
<trkpt lat="34.8243764" lon="32.3923428">
<ele>38.92</ele>
<time>2015-04-24T15:37:01Z</time>
</trkpt>
<trkpt lat="34.8244363" lon="32.3923473">
<ele>37.92</ele>
<time>2015-04-24T15:37:03Z</time>
</trkpt>
<trkpt lat="34.8245037" lon="32.3923500">
<ele>37.17</ele>
<time>2015-04-24T15:37:05Z</time>
</trkpt>
<trkpt lat="34.8245700" lon="32.3923561">
<ele>37.24</ele>
<time>2015-04-24T15:37:07Z</time>
</trkpt>
<trkpt lat="34.8246391" lon="32.3923622">
<ele>37.50</ele>
<time>2015-04-24T15:37:09Z</time>
</trkpt>
<trkpt lat="34.8247086" lon="32.3923590">
<ele>38.57</ele>
<time>2015-04-24T15:37:11Z</time>
</trkpt>
<trkpt lat="34.8247794" lon="32.3923556">
<ele>38.59</ele>
<time>2015-04-24T15:37:13Z</time>
</trkpt>
<trkpt lat="34.8248463" lon="32.3923571">
<ele>39.59</ele>
<time>2015-04-24T15:37:15Z</time>
</trkpt>
<trkpt lat="34.8249169" lon="32.3923572">
<ele>40.09</ele>
<time>2015-04-24T15:37:17Z</time>
</trkpt>
<trkpt lat="34.8249831" lon="32.3923611">
<ele>40.72</ele>
<time>2015-04-24T15:37:19Z</time>
</trkpt>
<trkpt lat="34.8250544" lon="32.3923639">
<ele>40.87</ele>
<time>2015-04-24T15:37:21Z</time>
</trkpt>
<trkpt lat="34.8251224" lon="32.3923632">
<ele>41.66</ele>
<time>2015-04-24T15:37:23Z</time>
</trkpt>
<trkpt lat="34.8251891" lon="32.3923614">
<ele>42.36</ele>
<time>2015-04-24T15:37:25Z</time>
</trkpt>
<trkpt lat="34.8252515" lon="32.3923535">
<ele>43.53</ele>
<time>2015-04-24T15:37:27Z</time>
</trkpt>
<trkpt lat="34.8253165" lon="32.3923447">
<ele>44.83</ele>
<time>2015-04-24T15:37:29Z</time>
</trkpt>
<trkpt lat="34.8253846" lon="32.3923395">
<ele>46.40</ele>
<time>2015-04-24T15:37:31Z</time>
</trkpt>
<trkpt lat="34.8254562" lon="32.3923341">
<ele>47.29</ele>
<time>2015-04-24T15:37:33Z</time>
</trkpt>
<trkpt lat="34.8255245" lon="32.3923297">
<ele>47.02</ele>
<time>2015-04-24T15:37:35Z</time>
</trkpt>
<trkpt lat="34.8255944" lon="32.3923259">
<ele>46.95</ele>
<time>2015-04-24T15:37:37Z</time>
</trkpt>
<trkpt lat="34.8256640" lon="32.3923208">
<ele>46.93</ele>
<time>2015-04-24T15:37:39Z</time>
</trkpt>
<trkpt lat="34.8257376" lon="32.3923204">
<ele>46.18</ele>
<time>2015-04-24T15:37:41Z</time>
</trkpt>
<trkpt lat="34.8258118" lon="32.3923198">
<ele>45.49</ele>
<time>2015-04-24T15:37:43Z</time>
</trkpt>
<trkpt lat="34.8258884" lon="32.3923138">
<ele>45.82</ele>
<time>2015-04-24T15:37:45Z</time>
</trkpt>
<trkpt lat="34.8259657" lon="32.3923136">
<ele>45.15</ele>
<time>2015-04-24T15:37:47Z</time>
</trkpt>
<trkpt lat="34.8260470" lon="32.3923132">
<ele>44.98</ele>
<time>2015-04-24T15:37:49Z</time>
</trkpt>
<trkpt lat="34.8261251" lon="32.3923150">
<ele>44.19</ele>
<time>2015-04-24T15:37:51Z</time>
</trkpt>
<trkpt lat="34.8262073" lon="32.3923172">
<ele>43.24</ele>
<time>2015-04-24T15:37:53Z</time>
</trkpt>
<trkpt lat="34.8262889" lon="32.3923151">
<ele>43.50</ele>
<time>2015-04-24T15:37:55Z</time>
</trkpt>
<trkpt lat="34.8263721" lon="32.3923069">
<ele>43.82</ele>
<time>2015-04-24T15:37:57Z</time>
</trkpt>
<trkpt lat="34.8264566" lon="32.3923029">
<ele>44.40</ele>
<time>2015-04-24T15:37:59Z</time>
</trkpt>
<trkpt lat="34.8265734" lon="32.3922999">
<ele>45.29</ele>
<time>2015-04-24T15:38:01Z</time>
</trkpt>
<trkpt lat="34.8266184" lon="32.3923031">
<ele>45.11</ele>
<time>2015-04-24T15:38:02Z</time>
</trkpt>
<trkpt lat="34.8267081" lon="32.3922961">
<ele>45.22</ele>
<time>2015-04-24T15:38:04Z</time>
</trkpt>
<trkpt lat="34.8267781" lon="32.3922974">
<ele>46.25</ele>
<time>2015-04-24T15:38:06Z</time>
</trkpt>
<trkpt lat="34.8268675" lon="32.3922864">
<ele>46.26</ele>
<time>2015-04-24T15:38:08Z</time>
</trkpt>
<trkpt lat="34.8269556" lon="32.3922887">
<ele>46.51</ele>
<time>2015-04-24T15:38:10Z</time>
</trkpt>
<trkpt lat="34.8270402" lon="32.3922863">
<ele>46.82</ele>
<time>2015-04-24T15:38:12Z</time>
</trkpt>
<trkpt lat="34.8270866" lon="32.3922817">
<ele>46.37</ele>
<time>2015-04-24T15:38:13Z</time>
</trkpt>
<trkpt lat="34.8271362" lon="32.3922781">
<ele>45.15</ele>
<time>2015-04-24T15:38:14Z</time>
</trkpt>
<trkpt lat="34.8272148" lon="32.3922746">
<ele>44.98</ele>
<time>2015-04-24T15:38:16Z</time>
</trkpt>
<trkpt lat="34.8272868" lon="32.3922609">
<ele>44.94</ele>
<time>2015-04-24T15:38:18Z</time>
</trkpt>
<trkpt lat="34.8273631" lon="32.3922551">
<ele>44.43</ele>
<time>2015-04-24T15:38:20Z</time>
</trkpt>
<trkpt lat="34.8274406" lon="32.3922527">
<ele>44.05</ele>
<time>2015-04-24T15:38:22Z</time>
</trkpt>
<trkpt lat="34.8275197" lon="32.3922532">
<ele>44.46</ele>
<time>2015-04-24T15:38:24Z</time>
</trkpt>
<trkpt lat="34.8275978" lon="32.3922554">
<ele>45.56</ele>
<time>2015-04-24T15:38:26Z</time>
</trkpt>
<trkpt lat="34.8276453" lon="32.3922531">
<ele>45.24</ele>
<time>2015-04-24T15:38:27Z</time>
</trkpt>
<trkpt lat="34.8277291" lon="32.3922497">
<ele>45.00</ele>
<time>2015-04-24T15:38:29Z</time>
</trkpt>
<trkpt lat="34.8277979" lon="32.3922488">
<ele>44.19</ele>
<time>2015-04-24T15:38:31Z</time>
</trkpt>
<trkpt lat="34.8278737" lon="32.3922518">
<ele>43.99</ele>
<time>2015-04-24T15:38:33Z</time>
</trkpt>
<trkpt lat="34.8279599" lon="32.3922505">
<ele>43.69</ele>
<time>2015-04-24T15:38:35Z</time>
</trkpt>
<trkpt lat="34.8280376" lon="32.3922439">
<ele>43.87</ele>
<time>2015-04-24T15:38:37Z</time>
</trkpt>
<trkpt lat="34.8281163" lon="32.3922392">
<ele>43.41</ele>
<time>2015-04-24T15:38:39Z</time>
</trkpt>
<trkpt lat="34.8282012" lon="32.3922342">
<ele>43.05</ele>
<time>2015-04-24T15:38:41Z</time>
</trkpt>
<trkpt lat="34.8282887" lon="32.3922353">
<ele>41.96</ele>
<time>2015-04-24T15:38:43Z</time>
</trkpt>
<trkpt lat="34.8283479" lon="32.3922391">
<ele>40.94</ele>
<time>2015-04-24T15:38:44Z</time>
</trkpt>
<trkpt lat="34.8283933" lon="32.3922418">
<ele>40.43</ele>
<time>2015-04-24T15:38:45Z</time>
</trkpt>
<trkpt lat="34.8284461" lon="32.3922533">
<ele>39.18</ele>
<time>2015-04-24T15:38:46Z</time>
</trkpt>
<trkpt lat="34.8284948" lon="32.3922496">
<ele>38.55</ele>
<time>2015-04-24T15:38:47Z</time>
</trkpt>
<trkpt lat="34.8285424" lon="32.3922395">
<ele>38.24</ele>
<time>2015-04-24T15:38:48Z</time>
</trkpt>
<trkpt lat="34.8285930" lon="32.3922359">
<ele>38.58</ele>
<time>2015-04-24T15:38:49Z</time>
</trkpt>
<trkpt lat="34.8286449" lon="32.3922444">
<ele>38.25</ele>
<time>2015-04-24T15:38:50Z</time>
</trkpt>
<trkpt lat="34.8287022" lon="32.3922393">
<ele>38.09</ele>
<time>2015-04-24T15:38:51Z</time>
</trkpt>
<trkpt lat="34.8287577" lon="32.3922346">
<ele>38.01</ele>
<time>2015-04-24T15:38:52Z</time>
</trkpt>
<trkpt lat="34.8288125" lon="32.3922308">
<ele>37.97</ele>
<time>2015-04-24T15:38:53Z</time>
</trkpt>
<trkpt lat="34.8288653" lon="32.3922299">
<ele>37.95</ele>
<time>2015-04-24T15:38:54Z</time>
</trkpt>
<trkpt lat="34.8289231" lon="32.3922467">
<ele>36.94</ele>
<time>2015-04-24T15:38:55Z</time>
</trkpt>
<trkpt lat="34.8289776" lon="32.3922489">
<ele>36.43</ele>
<time>2015-04-24T15:38:56Z</time>
</trkpt>
<trkpt lat="34.8290317" lon="32.3922529">
<ele>36.18</ele>
<time>2015-04-24T15:38:57Z</time>
</trkpt>
<trkpt lat="34.8290891" lon="32.3922550">
<ele>36.55</ele>
<time>2015-04-24T15:38:58Z</time>
</trkpt>
<trkpt lat="34.8291379" lon="32.3922634">
<ele>37.24</ele>
<time>2015-04-24T15:38:59Z</time>
</trkpt>
<trkpt lat="34.8291952" lon="32.3922704">
<ele>37.58</ele>
<time>2015-04-24T15:39:00Z</time>
</trkpt>
<trkpt lat="34.8292559" lon="32.3922843">
<ele>37.25</ele>
<time>2015-04-24T15:39:01Z</time>
</trkpt>
<trkpt lat="34.8293196" lon="32.3922832">
<ele>37.09</ele>
<time>2015-04-24T15:39:02Z</time>
</trkpt>
<trkpt lat="34.8293773" lon="32.3922926">
<ele>36.51</ele>
<time>2015-04-24T15:39:03Z</time>
</trkpt>
<trkpt lat="34.8294375" lon="32.3922958">
<ele>36.72</ele>
<time>2015-04-24T15:39:04Z</time>
</trkpt>
<trkpt lat="34.8294983" lon="32.3923043">
<ele>36.82</ele>
<time>2015-04-24T15:39:05Z</time>
</trkpt>
<trkpt lat="34.8295599" lon="32.3923181">
<ele>36.37</ele>
<time>2015-04-24T15:39:06Z</time>
</trkpt>
<trkpt lat="34.8296135" lon="32.3923299">
<ele>36.65</ele>
<time>2015-04-24T15:39:07Z</time>
</trkpt>
<trkpt lat="34.8296764" lon="32.3923462">
<ele>36.29</ele>
<time>2015-04-24T15:39:08Z</time>
</trkpt>
<trkpt lat="34.8297397" lon="32.3923530">
<ele>36.61</ele>
<time>2015-04-24T15:39:09Z</time>
</trkpt>
<trkpt lat="34.8297992" lon="32.3923570">
<ele>36.77</ele>
<time>2015-04-24T15:39:10Z</time>
</trkpt>
<trkpt lat="34.8298624" lon="32.3923688">
<ele>36.85</ele>
<time>2015-04-24T15:39:11Z</time>
</trkpt>
<trkpt lat="34.8299303" lon="32.3923813">
<ele>36.89</ele>
<time>2015-04-24T15:39:12Z</time>
</trkpt>
<trkpt lat="34.8299951" lon="32.3924042">
<ele>36.41</ele>
<time>2015-04-24T15:39:13Z</time>
</trkpt>
<trkpt lat="34.8300561" lon="32.3924232">
<ele>36.17</ele>
<time>2015-04-24T15:39:14Z</time>
</trkpt>
<trkpt lat="34.8301259" lon="32.3924479">
<ele>35.55</ele>
<time>2015-04-24T15:39:15Z</time>
</trkpt>
<trkpt lat="34.8301969" lon="32.3924626">
<ele>35.24</ele>
<time>2015-04-24T15:39:16Z</time>
</trkpt>
<trkpt lat="34.8302655" lon="32.3924769">
<ele>35.08</ele>
<time>2015-04-24T15:39:17Z</time>
</trkpt>
<trkpt lat="34.8303312" lon="32.3924937">
<ele>35.00</ele>
<time>2015-04-24T15:39:18Z</time>
</trkpt>
<trkpt lat="34.8303978" lon="32.3925122">
<ele>34.46</ele>
<time>2015-04-24T15:39:19Z</time>
</trkpt>
<trkpt lat="34.8304660" lon="32.3925336">
<ele>33.69</ele>
<time>2015-04-24T15:39:20Z</time>
</trkpt>
<trkpt lat="34.8305349" lon="32.3925566">
<ele>32.81</ele>
<time>2015-04-24T15:39:21Z</time>
</trkpt>
<trkpt lat="34.8306029" lon="32.3925781">
<ele>32.37</ele>
<time>2015-04-24T15:39:22Z</time>
</trkpt>
<trkpt lat="34.8306682" lon="32.3926032">
<ele>32.15</ele>
<time>2015-04-24T15:39:23Z</time>
</trkpt>
<trkpt lat="34.8307448" lon="32.3926295">
<ele>31.54</ele>
<time>2015-04-24T15:39:24Z</time>
</trkpt>
<trkpt lat="34.8308108" lon="32.3926521">
<ele>31.23</ele>
<time>2015-04-24T15:39:25Z</time>
</trkpt>
<trkpt lat="34.8308811" lon="32.3926681">
<ele>30.58</ele>
<time>2015-04-24T15:39:26Z</time>
</trkpt>
<trkpt lat="34.8309366" lon="32.3926826">
<ele>30.25</ele>
<time>2015-04-24T15:39:27Z</time>
</trkpt>
<trkpt lat="34.8309860" lon="32.3927021">
<ele>30.59</ele>
<time>2015-04-24T15:39:28Z</time>
</trkpt>
<trkpt lat="34.8310296" lon="32.3927155">
<ele>31.26</ele>
<time>2015-04-24T15:39:29Z</time>
</trkpt>
<trkpt lat="34.8310817" lon="32.3927337">
<ele>31.59</ele>
<time>2015-04-24T15:39:30Z</time>
</trkpt>
<trkpt lat="34.8311329" lon="32.3927511">
<ele>31.76</ele>
<time>2015-04-24T15:39:31Z</time>
</trkpt>
<trkpt lat="34.8311874" lon="32.3927710">
<ele>31.34</ele>
<time>2015-04-24T15:39:32Z</time>
</trkpt>
<trkpt lat="34.8312411" lon="32.3927958">
<ele>31.13</ele>
<time>2015-04-24T15:39:33Z</time>
</trkpt>
<trkpt lat="34.8313009" lon="32.3927983">
<ele>30.53</ele>
<time>2015-04-24T15:39:34Z</time>
</trkpt>
<trkpt lat="34.8313578" lon="32.3928162">
<ele>30.73</ele>
<time>2015-04-24T15:39:35Z</time>
</trkpt>
<trkpt lat="34.8314325" lon="32.3928217">
<ele>29.83</ele>
<time>2015-04-24T15:39:36Z</time>
</trkpt>
<trkpt lat="34.8314900" lon="32.3928449">
<ele>29.38</ele>
<time>2015-04-24T15:39:37Z</time>
</trkpt>
<trkpt lat="34.8315500" lon="32.3928620">
<ele>28.65</ele>
<time>2015-04-24T15:39:38Z</time>
</trkpt>
<trkpt lat="34.8316238" lon="32.3928872">
<ele>28.29</ele>
<time>2015-04-24T15:39:39Z</time>
</trkpt>
<trkpt lat="34.8316957" lon="32.3929013">
<ele>27.61</ele>
<time>2015-04-24T15:39:40Z</time>
</trkpt>
<trkpt lat="34.8317683" lon="32.3929131">
<ele>27.27</ele>
<time>2015-04-24T15:39:41Z</time>
</trkpt>
<trkpt lat="34.8318400" lon="32.3929282">
<ele>27.10</ele>
<time>2015-04-24T15:39:42Z</time>
</trkpt>
<trkpt lat="34.8319103" lon="32.3929385">
<ele>27.01</ele>
<time>2015-04-24T15:39:43Z</time>
</trkpt>
<trkpt lat="34.8319898" lon="32.3929495">
<ele>26.97</ele>
<time>2015-04-24T15:39:44Z</time>
</trkpt>
<trkpt lat="34.8320618" lon="32.3929594">
<ele>25.95</ele>
<time>2015-04-24T15:39:45Z</time>
</trkpt>
<trkpt lat="34.8321281" lon="32.3929647">
<ele>24.94</ele>
<time>2015-04-24T15:39:46Z</time>
</trkpt>
<trkpt lat="34.8322013" lon="32.3929698">
<ele>24.43</ele>
<time>2015-04-24T15:39:47Z</time>
</trkpt>
<trkpt lat="34.8322775" lon="32.3929617">
<ele>23.68</ele>
<time>2015-04-24T15:39:48Z</time>
</trkpt>
<trkpt lat="34.8323412" lon="32.3929565">
<ele>23.30</ele>
<time>2015-04-24T15:39:49Z</time>
</trkpt>
<trkpt lat="34.8324073" lon="32.3929439">
<ele>22.61</ele>
<time>2015-04-24T15:39:50Z</time>
</trkpt>
<trkpt lat="34.8324791" lon="32.3929282">
<ele>22.27</ele>
<time>2015-04-24T15:39:51Z</time>
</trkpt>
<trkpt lat="34.8325445" lon="32.3929104">
<ele>21.60</ele>
<time>2015-04-24T15:39:52Z</time>
</trkpt>
<trkpt lat="34.8326069" lon="32.3928841">
<ele>21.76</ele>
<time>2015-04-24T15:39:53Z</time>
</trkpt>
<trkpt lat="34.8326720" lon="32.3928598">
<ele>21.84</ele>
<time>2015-04-24T15:39:54Z</time>
</trkpt>
<trkpt lat="34.8327429" lon="32.3928329">
<ele>20.88</ele>
<time>2015-04-24T15:39:55Z</time>
</trkpt>
<trkpt lat="34.8328059" lon="32.3928064">
<ele>20.40</ele>
<time>2015-04-24T15:39:56Z</time>
</trkpt>
<trkpt lat="34.8328648" lon="32.3927829">
<ele>20.16</ele>
<time>2015-04-24T15:39:57Z</time>
</trkpt>
<trkpt lat="34.8329300" lon="32.3927557">
<ele>20.54</ele>
<time>2015-04-24T15:39:58Z</time>
</trkpt>
<trkpt lat="34.8329924" lon="32.3927245">
<ele>20.73</ele>
<time>2015-04-24T15:39:59Z</time>
</trkpt>
<trkpt lat="34.8330571" lon="32.3926915">
<ele>21.33</ele>
<time>2015-04-24T15:40:00Z</time>
</trkpt>
<trkpt lat="34.8331164" lon="32.3926471">
<ele>21.63</ele>
<time>2015-04-24T15:40:01Z</time>
</trkpt>
<trkpt lat="34.8331759" lon="32.3926070">
<ele>21.28</ele>
<time>2015-04-24T15:40:02Z</time>
</trkpt>
<trkpt lat="34.8332394" lon="32.3925792">
<ele>21.10</ele>
<time>2015-04-24T15:40:03Z</time>
</trkpt>
<trkpt lat="34.8333021" lon="32.3925351">
<ele>21.01</ele>
<time>2015-04-24T15:40:04Z</time>
</trkpt>
<trkpt lat="34.8333589" lon="32.3924957">
<ele>20.47</ele>
<time>2015-04-24T15:40:05Z</time>
</trkpt>
<trkpt lat="34.8334230" lon="32.3924515">
<ele>20.20</ele>
<time>2015-04-24T15:40:06Z</time>
</trkpt>
<trkpt lat="34.8334882" lon="32.3924038">
<ele>19.56</ele>
<time>2015-04-24T15:40:07Z</time>
</trkpt>
<trkpt lat="34.8335483" lon="32.3923597">
<ele>19.24</ele>
<time>2015-04-24T15:40:08Z</time>
</trkpt>
<trkpt lat="34.8336094" lon="32.3923204">
<ele>19.08</ele>
<time>2015-04-24T15:40:09Z</time>
</trkpt>
<trkpt lat="34.8336748" lon="32.3922758">
<ele>20.00</ele>
<time>2015-04-24T15:40:10Z</time>
</trkpt>
<trkpt lat="34.8337269" lon="32.3922392">
<ele>20.46</ele>
<time>2015-04-24T15:40:11Z</time>
</trkpt>
<trkpt lat="34.8337831" lon="32.3921945">
<ele>20.69</ele>
<time>2015-04-24T15:40:12Z</time>
</trkpt>
<trkpt lat="34.8338468" lon="32.3921493">
<ele>21.31</ele>
<time>2015-04-24T15:40:13Z</time>
</trkpt>
<trkpt lat="34.8339068" lon="32.3920994">
<ele>21.62</ele>
<time>2015-04-24T15:40:14Z</time>
</trkpt>
<trkpt lat="34.8339695" lon="32.3920633">
<ele>22.27</ele>
<time>2015-04-24T15:40:15Z</time>
</trkpt>
<trkpt lat="34.8340249" lon="32.3920154">
<ele>21.60</ele>
<time>2015-04-24T15:40:16Z</time>
</trkpt>
<trkpt lat="34.8340779" lon="32.3919731">
<ele>21.76</ele>
<time>2015-04-24T15:40:17Z</time>
</trkpt>
<trkpt lat="34.8341297" lon="32.3919276">
<ele>21.84</ele>
<time>2015-04-24T15:40:18Z</time>
</trkpt>
<trkpt lat="34.8341805" lon="32.3918867">
<ele>21.38</ele>
<time>2015-04-24T15:40:19Z</time>
</trkpt>
<trkpt lat="34.8342318" lon="32.3918394">
<ele>21.15</ele>
<time>2015-04-24T15:40:20Z</time>
</trkpt>
<trkpt lat="34.8342847" lon="32.3917971">
<ele>21.54</ele>
<time>2015-04-24T15:40:21Z</time>
</trkpt>
<trkpt lat="34.8343370" lon="32.3917620">
<ele>21.23</ele>
<time>2015-04-24T15:40:22Z</time>
</trkpt>
<trkpt lat="34.8343864" lon="32.3917263">
<ele>20.58</ele>
<time>2015-04-24T15:40:23Z</time>
</trkpt>
<trkpt lat="34.8344366" lon="32.3916822">
<ele>20.75</ele>
<time>2015-04-24T15:40:24Z</time>
</trkpt>
<trkpt lat="34.8344811" lon="32.3916401">
<ele>20.34</ele>
<time>2015-04-24T15:40:25Z</time>
</trkpt>
<trkpt lat="34.8345261" lon="32.3915976">
<ele>19.63</ele>
<time>2015-04-24T15:40:26Z</time>
</trkpt>
<trkpt lat="34.8345797" lon="32.3915650">
<ele>19.28</ele>
<time>2015-04-24T15:40:27Z</time>
</trkpt>
<trkpt lat="34.8346205" lon="32.3915244">
<ele>19.10</ele>
<time>2015-04-24T15:40:28Z</time>
</trkpt>
<trkpt lat="34.8346668" lon="32.3914909">
<ele>19.01</ele>
<time>2015-04-24T15:40:29Z</time>
</trkpt>
<trkpt lat="34.8347134" lon="32.3914575">
<ele>18.97</ele>
<time>2015-04-24T15:40:30Z</time>
</trkpt>
<trkpt lat="34.8347684" lon="32.3914200">
<ele>18.95</ele>
<time>2015-04-24T15:40:31Z</time>
</trkpt>
<trkpt lat="34.8348183" lon="32.3913795">
<ele>18.94</ele>
<time>2015-04-24T15:40:32Z</time>
</trkpt>
<trkpt lat="34.8348710" lon="32.3913390">
<ele>18.93</ele>
<time>2015-04-24T15:40:33Z</time>
</trkpt>
<trkpt lat="34.8349202" lon="32.3913070">
<ele>18.43</ele>
<time>2015-04-24T15:40:34Z</time>
</trkpt>
<trkpt lat="34.8349716" lon="32.3912819">
<ele>18.18</ele>
<time>2015-04-24T15:40:35Z</time>
</trkpt>
<trkpt lat="34.8350265" lon="32.3912429">
<ele>18.55</ele>
<time>2015-04-24T15:40:36Z</time>
</trkpt>
<trkpt lat="34.8350769" lon="32.3912077">
<ele>18.24</ele>
<time>2015-04-24T15:40:37Z</time>
</trkpt>
<trkpt lat="34.8351291" lon="32.3911712">
<ele>18.58</ele>
<time>2015-04-24T15:40:38Z</time>
</trkpt>
<trkpt lat="34.8351779" lon="32.3911372">
<ele>18.25</ele>
<time>2015-04-24T15:40:39Z</time>
</trkpt>
<trkpt lat="34.8352299" lon="32.3911011">
<ele>18.59</ele>
<time>2015-04-24T15:40:40Z</time>
</trkpt>
<trkpt lat="34.8352894" lon="32.3910596">
<ele>18.76</ele>
<time>2015-04-24T15:40:41Z</time>
</trkpt>
<trkpt lat="34.8353511" lon="32.3910256">
<ele>18.84</ele>
<time>2015-04-24T15:40:42Z</time>
</trkpt>
<trkpt lat="34.8354094" lon="32.3909902">
<ele>17.88</ele>
<time>2015-04-24T15:40:43Z</time>
</trkpt>
<trkpt lat="34.8354662" lon="32.3909507">
<ele>17.90</ele>
<time>2015-04-24T15:40:44Z</time>
</trkpt>
<trkpt lat="34.8355214" lon="32.3909082">
<ele>17.91</ele>
<time>2015-04-24T15:40:45Z</time>
</trkpt>
<trkpt lat="34.8355727" lon="32.3908714">
<ele>17.42</ele>
<time>2015-04-24T15:40:46Z</time>
</trkpt>
<trkpt lat="34.8356317" lon="32.3908371">
<ele>16.67</ele>
<time>2015-04-24T15:40:47Z</time>
</trkpt>
<trkpt lat="34.8356941" lon="32.3908073">
<ele>15.80</ele>
<time>2015-04-24T15:40:48Z</time>
</trkpt>
<trkpt lat="34.8357466" lon="32.3907753">
<ele>15.86</ele>
<time>2015-04-24T15:40:49Z</time>
</trkpt>
<trkpt lat="34.8357958" lon="32.3907506">
<ele>15.89</ele>
<time>2015-04-24T15:40:50Z</time>
</trkpt>
<trkpt lat="34.8358388" lon="32.3907287">
<ele>15.41</ele>
<time>2015-04-24T15:40:51Z</time>
</trkpt>
<trkpt lat="34.8358913" lon="32.3906969">
<ele>15.67</ele>
<time>2015-04-24T15:40:52Z</time>
</trkpt>
<trkpt lat="34.8359297" lon="32.3906658">
<ele>16.30</ele>
<time>2015-04-24T15:40:53Z</time>
</trkpt>
<trkpt lat="34.8359782" lon="32.3906324">
<ele>16.61</ele>
<time>2015-04-24T15:40:54Z</time>
</trkpt>
<trkpt lat="34.8360309" lon="32.3906067">
<ele>16.77</ele>
<time>2015-04-24T15:40:55Z</time>
</trkpt>
<trkpt lat="34.8360790" lon="32.3905794">
<ele>16.85</ele>
<time>2015-04-24T15:40:56Z</time>
</trkpt>
<trkpt lat="34.8361351" lon="32.3905488">
<ele>15.89</ele>
<time>2015-04-24T15:40:57Z</time>
</trkpt>
<trkpt lat="34.8361896" lon="32.3905184">
<ele>15.91</ele>
<time>2015-04-24T15:40:58Z</time>
</trkpt>
<trkpt lat="34.8362464" lon="32.3904890">
<ele>15.92</ele>
<time>2015-04-24T15:40:59Z</time>
</trkpt>
<trkpt lat="34.8363063" lon="32.3904476">
<ele>16.92</ele>
<time>2015-04-24T15:41:00Z</time>
</trkpt>
<trkpt lat="34.8363680" lon="32.3904187">
<ele>17.42</ele>
<time>2015-04-24T15:41:01Z</time>
</trkpt>
<trkpt lat="34.8364178" lon="32.3903929">
<ele>18.17</ele>
<time>2015-04-24T15:41:02Z</time>
</trkpt>
<trkpt lat="34.8364726" lon="32.3903612">
<ele>18.05</ele>
<time>2015-04-24T15:41:03Z</time>
</trkpt>
<trkpt lat="34.8365372" lon="32.3903227">
<ele>17.99</ele>
<time>2015-04-24T15:41:04Z</time>
</trkpt>
<trkpt lat="34.8365969" lon="32.3902878">
<ele>17.96</ele>
<time>2015-04-24T15:41:05Z</time>
</trkpt>
<trkpt lat="34.8366557" lon="32.3902481">
<ele>17.44</ele>
<time>2015-04-24T15:41:06Z</time>
</trkpt>
<trkpt lat="34.8367190" lon="32.3902166">
<ele>16.68</ele>
<time>2015-04-24T15:41:07Z</time>
</trkpt>
<trkpt lat="34.8367773" lon="32.3901824">
<ele>16.80</ele>
<time>2015-04-24T15:41:08Z</time>
</trkpt>
<trkpt lat="34.8368368" lon="32.3901441">
<ele>16.36</ele>
<time>2015-04-24T15:41:09Z</time>
</trkpt>
<trkpt lat="34.8368959" lon="32.3901036">
<ele>16.64</ele>
<time>2015-04-24T15:41:10Z</time>
</trkpt>
<trkpt lat="34.8369489" lon="32.3900743">
<ele>18.28</ele>
<time>2015-04-24T15:41:11Z</time>
</trkpt>
<trkpt lat="34.8370027" lon="32.3900488">
<ele>18.60</ele>
<time>2015-04-24T15:41:12Z</time>
</trkpt>
<trkpt lat="34.8370614" lon="32.3900208">
<ele>18.76</ele>
<time>2015-04-24T15:41:13Z</time>
</trkpt>
<trkpt lat="34.8371144" lon="32.3899852">
<ele>19.34</ele>
<time>2015-04-24T15:41:14Z</time>
</trkpt>
<trkpt lat="34.8371692" lon="32.3899556">
<ele>19.13</ele>
<time>2015-04-24T15:41:15Z</time>
</trkpt>
<trkpt lat="34.8372215" lon="32.3899286">
<ele>19.03</ele>
<time>2015-04-24T15:41:16Z</time>
</trkpt>
<trkpt lat="34.8372813" lon="32.3898987">
<ele>18.98</ele>
<time>2015-04-24T15:41:17Z</time>
</trkpt>
<trkpt lat="34.8373336" lon="32.3898687">
<ele>18.95</ele>
<time>2015-04-24T15:41:18Z</time>
</trkpt>
<trkpt lat="34.8373908" lon="32.3898291">
<ele>18.94</ele>
<time>2015-04-24T15:41:19Z</time>
</trkpt>
<trkpt lat="34.8374496" lon="32.3898076">
<ele>18.93</ele>
<time>2015-04-24T15:41:20Z</time>
</trkpt>
<trkpt lat="34.8374990" lon="32.3897879">
<ele>18.43</ele>
<time>2015-04-24T15:41:21Z</time>
</trkpt>
<trkpt lat="34.8375449" lon="32.3897587">
<ele>18.18</ele>
<time>2015-04-24T15:41:22Z</time>
</trkpt>
<trkpt lat="34.8375945" lon="32.3897323">
<ele>18.05</ele>
<time>2015-04-24T15:41:23Z</time>
</trkpt>
<trkpt lat="34.8376482" lon="32.3897036">
<ele>17.99</ele>
<time>2015-04-24T15:41:24Z</time>
</trkpt>
<trkpt lat="34.8376999" lon="32.3896720">
<ele>17.96</ele>
<time>2015-04-24T15:41:25Z</time>
</trkpt>
<trkpt lat="34.8377474" lon="32.3896484">
<ele>17.94</ele>
<time>2015-04-24T15:41:26Z</time>
</trkpt>
<trkpt lat="34.8378312" lon="32.3896083">
<ele>17.18</ele>
<time>2015-04-24T15:41:28Z</time>
</trkpt>
<trkpt lat="34.8378770" lon="32.3895938">
<ele>17.05</ele>
<time>2015-04-24T15:41:29Z</time>
</trkpt>
<trkpt lat="34.8379617" lon="32.3895601">
<ele>16.96</ele>
<time>2015-04-24T15:41:31Z</time>
</trkpt>
<trkpt lat="34.8380055" lon="32.3895473">
<ele>16.94</ele>
<time>2015-04-24T15:41:32Z</time>
</trkpt>
<trkpt lat="34.8380836" lon="32.3895199">
<ele>17.43</ele>
<time>2015-04-24T15:41:34Z</time>
</trkpt>
<trkpt lat="34.8381526" lon="32.3894852">
<ele>17.30</ele>
<time>2015-04-24T15:41:36Z</time>
</trkpt>
<trkpt lat="34.8381995" lon="32.3894615">
<ele>17.61</ele>
<time>2015-04-24T15:41:37Z</time>
</trkpt>
<trkpt lat="34.8382468" lon="32.3894476">
<ele>16.77</ele>
<time>2015-04-24T15:41:38Z</time>
</trkpt>
<trkpt lat="34.8382946" lon="32.3894242">
<ele>16.85</ele>
<time>2015-04-24T15:41:39Z</time>
</trkpt>
<trkpt lat="34.8383468" lon="32.3893954">
<ele>16.39</ele>
<time>2015-04-24T15:41:40Z</time>
</trkpt>
<trkpt lat="34.8383990" lon="32.3893771">
<ele>15.66</ele>
<time>2015-04-24T15:41:41Z</time>
</trkpt>
<trkpt lat="34.8384560" lon="32.3893571">
<ele>15.79</ele>
<time>2015-04-24T15:41:42Z</time>
</trkpt>
<trkpt lat="34.8385097" lon="32.3893389">
<ele>15.86</ele>
<time>2015-04-24T15:41:43Z</time>
</trkpt>
<trkpt lat="34.8385673" lon="32.3893186">
<ele>15.89</ele>
<time>2015-04-24T15:41:44Z</time>
</trkpt>
<trkpt lat="34.8386239" lon="32.3892987">
<ele>16.41</ele>
<time>2015-04-24T15:41:45Z</time>
</trkpt>
<trkpt lat="34.8386735" lon="32.3892835">
<ele>16.17</ele>
<time>2015-04-24T15:41:46Z</time>
</trkpt>
<trkpt lat="34.8387207" lon="32.3892609">
<ele>16.05</ele>
<time>2015-04-24T15:41:47Z</time>
</trkpt>
<trkpt lat="34.8387748" lon="32.3892297">
<ele>16.49</ele>
<time>2015-04-24T15:41:48Z</time>
</trkpt>
<trkpt lat="34.8388298" lon="32.3892052">
<ele>16.71</ele>
<time>2015-04-24T15:41:49Z</time>
</trkpt>
<trkpt lat="34.8388932" lon="32.3891813">
<ele>16.82</ele>
<time>2015-04-24T15:41:50Z</time>
</trkpt>
<trkpt lat="34.8389491" lon="32.3891621">
<ele>17.37</ele>
<time>2015-04-24T15:41:51Z</time>
</trkpt>
<trkpt lat="34.8390062" lon="32.3891334">
<ele>17.65</ele>
<time>2015-04-24T15:41:52Z</time>
</trkpt>
<trkpt lat="34.8390671" lon="32.3891108">
<ele>17.79</ele>
<time>2015-04-24T15:41:53Z</time>
</trkpt>
<trkpt lat="34.8391220" lon="32.3890887">
<ele>17.86</ele>
<time>2015-04-24T15:41:54Z</time>
</trkpt>
<trkpt lat="34.8391738" lon="32.3890659">
<ele>18.39</ele>
<time>2015-04-24T15:41:55Z</time>
</trkpt>
<trkpt lat="34.8392344" lon="32.3890528">
<ele>18.16</ele>
<time>2015-04-24T15:41:56Z</time>
</trkpt>
<trkpt lat="34.8392888" lon="32.3890297">
<ele>17.54</ele>
<time>2015-04-24T15:41:57Z</time>
</trkpt>
<trkpt lat="34.8393401" lon="32.3890079">
<ele>17.23</ele>
<time>2015-04-24T15:41:58Z</time>
</trkpt>
<trkpt lat="34.8393901" lon="32.3889875">
<ele>17.58</ele>
<time>2015-04-24T15:41:59Z</time>
</trkpt>
<trkpt lat="34.8394441" lon="32.3889676">
<ele>17.75</ele>
<time>2015-04-24T15:42:00Z</time>
</trkpt>
<trkpt lat="34.8395010" lon="32.3889487">
<ele>18.34</ele>
<time>2015-04-24T15:42:01Z</time>
</trkpt>
<trkpt lat="34.8395502" lon="32.3889282">
<ele>18.63</ele>
<time>2015-04-24T15:42:02Z</time>
</trkpt>
<trkpt lat="34.8396003" lon="32.3889061">
<ele>18.78</ele>
<time>2015-04-24T15:42:03Z</time>
</trkpt>
<trkpt lat="34.8396610" lon="32.3888742">
<ele>18.85</ele>
<time>2015-04-24T15:42:04Z</time>
</trkpt>
<trkpt lat="34.8397086" lon="32.3888584">
<ele>18.89</ele>
<time>2015-04-24T15:42:05Z</time>
</trkpt>
<trkpt lat="34.8397603" lon="32.3888378">
<ele>18.41</ele>
<time>2015-04-24T15:42:06Z</time>
</trkpt>
<trkpt lat="34.8398132" lon="32.3888202">
<ele>17.17</ele>
<time>2015-04-24T15:42:07Z</time>
</trkpt>
<trkpt lat="34.8398752" lon="32.3887908">
<ele>17.05</ele>
<time>2015-04-24T15:42:08Z</time>
</trkpt>
<trkpt lat="34.8399361" lon="32.3887567">
<ele>17.49</ele>
<time>2015-04-24T15:42:09Z</time>
</trkpt>
<trkpt lat="34.8399911" lon="32.3887348">
<ele>17.71</ele>
<time>2015-04-24T15:42:10Z</time>
</trkpt>
<trkpt lat="34.8400431" lon="32.3887059">
<ele>17.82</ele>
<time>2015-04-24T15:42:11Z</time>
</trkpt>
<trkpt lat="34.8400919" lon="32.3886803">
<ele>17.37</ele>
<time>2015-04-24T15:42:12Z</time>
</trkpt>
<trkpt lat="34.8401514" lon="32.3886727">
<ele>16.15</ele>
<time>2015-04-24T15:42:13Z</time>
</trkpt>
<trkpt lat="34.8402021" lon="32.3886595">
<ele>15.54</ele>
<time>2015-04-24T15:42:14Z</time>
</trkpt>
<trkpt lat="34.8402464" lon="32.3886329">
<ele>15.23</ele>
<time>2015-04-24T15:42:15Z</time>
</trkpt>
<trkpt lat="34.8402904" lon="32.3886130">
<ele>15.08</ele>
<time>2015-04-24T15:42:16Z</time>
</trkpt>
<trkpt lat="34.8403563" lon="32.3885842">
<ele>14.96</ele>
<time>2015-04-24T15:42:18Z</time>
</trkpt>
<trkpt lat="34.8404386" lon="32.3885553">
<ele>14.93</ele>
<time>2015-04-24T15:42:20Z</time>
</trkpt>
<trkpt lat="34.8404893" lon="32.3885430">
<ele>14.93</ele>
<time>2015-04-24T15:42:21Z</time>
</trkpt>
<trkpt lat="34.8405703" lon="32.3884995">
<ele>14.68</ele>
<time>2015-04-24T15:42:23Z</time>
</trkpt>
<trkpt lat="34.8406489" lon="32.3884597">
<ele>14.36</ele>
<time>2015-04-24T15:42:25Z</time>
</trkpt>
<trkpt lat="34.8406998" lon="32.3884158">
<ele>14.03</ele>
<time>2015-04-24T15:42:27Z</time>
</trkpt>
<trkpt lat="34.8407632" lon="32.3883719">
<ele>13.95</ele>
<time>2015-04-24T15:42:29Z</time>
</trkpt>
<trkpt lat="34.8407978" lon="32.3883230">
<ele>13.43</ele>
<time>2015-04-24T15:42:31Z</time>
</trkpt>
<trkpt lat="34.8408353" lon="32.3882875">
<ele>13.79</ele>
<time>2015-04-24T15:42:39Z</time>
</trkpt>
<trkpt lat="34.8408918" lon="32.3882851">
<ele>14.80</ele>
<time>2015-04-24T15:46:19Z</time>
</trkpt>
<trkpt lat="34.8409589" lon="32.3882689">
<ele>14.91</ele>
<time>2015-04-24T15:46:22Z</time>
</trkpt>
<trkpt lat="34.8410061" lon="32.3882575">
<ele>14.42</ele>
<time>2015-04-24T15:46:24Z</time>
</trkpt>
<trkpt lat="34.8410563" lon="32.3882429">
<ele>11.93</ele>
<time>2015-04-24T15:46:55Z</time>
</trkpt>
<trkpt lat="34.8411063" lon="32.3882214">
<ele>12.43</ele>
<time>2015-04-24T15:46:59Z</time>
</trkpt>
<trkpt lat="34.8411714" lon="32.3881962">
<ele>12.86</ele>
<time>2015-04-24T15:47:02Z</time>
</trkpt>
<trkpt lat="34.8412417" lon="32.3881767">
<ele>12.91</ele>
<time>2015-04-24T15:47:04Z</time>
</trkpt>
<trkpt lat="34.8413143" lon="32.3881465">
<ele>12.92</ele>
<time>2015-04-24T15:47:06Z</time>
</trkpt>
<trkpt lat="34.8413897" lon="32.3881151">
<ele>12.92</ele>
<time>2015-04-24T15:47:08Z</time>
</trkpt>
<trkpt lat="34.8414670" lon="32.3880837">
<ele>13.17</ele>
<time>2015-04-24T15:47:10Z</time>
</trkpt>
<trkpt lat="34.8415508" lon="32.3880523">
<ele>12.99</ele>
<time>2015-04-24T15:47:12Z</time>
</trkpt>
<trkpt lat="34.8416330" lon="32.3880199">
<ele>12.94</ele>
<time>2015-04-24T15:47:14Z</time>
</trkpt>
<trkpt lat="34.8417161" lon="32.3879864">
<ele>12.93</ele>
<time>2015-04-24T15:47:16Z</time>
</trkpt>
<trkpt lat="34.8417945" lon="32.3879556">
<ele>12.93</ele>
<time>2015-04-24T15:47:18Z</time>
</trkpt>
<trkpt lat="34.8418698" lon="32.3879273">
<ele>12.93</ele>
<time>2015-04-24T15:47:20Z</time>
</trkpt>
<trkpt lat="34.8419483" lon="32.3878963">
<ele>13.68</ele>
<time>2015-04-24T15:47:22Z</time>
</trkpt>
<trkpt lat="34.8419943" lon="32.3878776">
<ele>13.80</ele>
<time>2015-04-24T15:47:23Z</time>
</trkpt>
<trkpt lat="34.8420478" lon="32.3878584">
<ele>13.86</ele>
<time>2015-04-24T15:47:24Z</time>
</trkpt>
<trkpt lat="34.8420933" lon="32.3878383">
<ele>13.89</ele>
<time>2015-04-24T15:47:25Z</time>
</trkpt>
<trkpt lat="34.8421417" lon="32.3878200">
<ele>13.91</ele>
<time>2015-04-24T15:47:26Z</time>
</trkpt>
<trkpt lat="34.8421896" lon="32.3877985">
<ele>13.92</ele>
<time>2015-04-24T15:47:27Z</time>
</trkpt>
<trkpt lat="34.8422350" lon="32.3877792">
<ele>13.92</ele>
<time>2015-04-24T15:47:28Z</time>
</trkpt>
<trkpt lat="34.8422823" lon="32.3877586">
<ele>13.92</ele>
<time>2015-04-24T15:47:29Z</time>
</trkpt>
<trkpt lat="34.8423258" lon="32.3877423">
<ele>13.92</ele>
<time>2015-04-24T15:47:30Z</time>
</trkpt>
<trkpt lat="34.8423738" lon="32.3877203">
<ele>13.92</ele>
<time>2015-04-24T15:47:31Z</time>
</trkpt>
<trkpt lat="34.8424191" lon="32.3877004">
<ele>13.92</ele>
<time>2015-04-24T15:47:32Z</time>
</trkpt>
<trkpt lat="34.8424667" lon="32.3876829">
<ele>14.42</ele>
<time>2015-04-24T15:47:33Z</time>
</trkpt>
<trkpt lat="34.8425116" lon="32.3876642">
<ele>14.17</ele>
<time>2015-04-24T15:47:34Z</time>
</trkpt>
<trkpt lat="34.8425584" lon="32.3876505">
<ele>14.05</ele>
<time>2015-04-24T15:47:35Z</time>
</trkpt>
<trkpt lat="34.8426040" lon="32.3876316">
<ele>13.99</ele>
<time>2015-04-24T15:47:36Z</time>
</trkpt>
<trkpt lat="34.8426526" lon="32.3876109">
<ele>14.46</ele>
<time>2015-04-24T15:47:37Z</time>
</trkpt>
<trkpt lat="34.8426998" lon="32.3875942">
<ele>14.19</ele>
<time>2015-04-24T15:47:38Z</time>
</trkpt>
<trkpt lat="34.8427473" lon="32.3875758">
<ele>14.06</ele>
<time>2015-04-24T15:47:39Z</time>
</trkpt>
<trkpt lat="34.8427954" lon="32.3875573">
<ele>14.49</ele>
<time>2015-04-24T15:47:40Z</time>
</trkpt>
<trkpt lat="34.8428460" lon="32.3875372">
<ele>14.71</ele>
<time>2015-04-24T15:47:41Z</time>
</trkpt>
<trkpt lat="34.8428902" lon="32.3875191">
<ele>14.82</ele>
<time>2015-04-24T15:47:42Z</time>
</trkpt>
<trkpt lat="34.8429375" lon="32.3875006">
<ele>14.87</ele>
<time>2015-04-24T15:47:43Z</time>
</trkpt>
<trkpt lat="34.8429836" lon="32.3874826">
<ele>14.90</ele>
<time>2015-04-24T15:47:44Z</time>
</trkpt>
<trkpt lat="34.8430305" lon="32.3874664">
<ele>14.91</ele>
<time>2015-04-24T15:47:45Z</time>
</trkpt>
<trkpt lat="34.8430768" lon="32.3874464">
<ele>14.92</ele>
<time>2015-04-24T15:47:46Z</time>
</trkpt>
<trkpt lat="34.8431234" lon="32.3874247">
<ele>14.92</ele>
<time>2015-04-24T15:47:47Z</time>
</trkpt>
<trkpt lat="34.8431660" lon="32.3874049">
<ele>14.92</ele>
<time>2015-04-24T15:47:48Z</time>
</trkpt>
<trkpt lat="34.8432515" lon="32.3873676">
<ele>14.92</ele>
<time>2015-04-24T15:47:50Z</time>
</trkpt>
<trkpt lat="34.8432984" lon="32.3873505">
<ele>15.42</ele>
<time>2015-04-24T15:47:51Z</time>
</trkpt>
<trkpt lat="34.8433444" lon="32.3873357">
<ele>15.67</ele>
<time>2015-04-24T15:47:52Z</time>
</trkpt>
<trkpt lat="34.8433919" lon="32.3873154">
<ele>15.30</ele>
<time>2015-04-24T15:47:53Z</time>
</trkpt>
<trkpt lat="34.8434382" lon="32.3872943">
<ele>15.61</ele>
<time>2015-04-24T15:47:54Z</time>
</trkpt>
<trkpt lat="34.8434811" lon="32.3872720">
<ele>15.77</ele>
<time>2015-04-24T15:47:55Z</time>
</trkpt>
<trkpt lat="34.8435278" lon="32.3872549">
<ele>15.85</ele>
<time>2015-04-24T15:47:56Z</time>
</trkpt>
<trkpt lat="34.8435737" lon="32.3872384">
<ele>15.89</ele>
<time>2015-04-24T15:47:57Z</time>
</trkpt>
<trkpt lat="34.8436185" lon="32.3872237">
<ele>16.41</ele>
<time>2015-04-24T15:47:58Z</time>
</trkpt>
<trkpt lat="34.8436666" lon="32.3871973">
<ele>17.17</ele>
<time>2015-04-24T15:47:59Z</time>
</trkpt>
<trkpt lat="34.8437196" lon="32.3871843">
<ele>17.55</ele>
<time>2015-04-24T15:48:00Z</time>
</trkpt>
<trkpt lat="34.8437658" lon="32.3871684">
<ele>17.24</ele>
<time>2015-04-24T15:48:01Z</time>
</trkpt>
<trkpt lat="34.8438540" lon="32.3871465">
<ele>17.00</ele>
<time>2015-04-24T15:48:03Z</time>
</trkpt>
<trkpt lat="34.8438964" lon="32.3871248">
<ele>17.46</ele>
<time>2015-04-24T15:48:04Z</time>
</trkpt>
<trkpt lat="34.8439475" lon="32.3871004">
<ele>17.69</ele>
<time>2015-04-24T15:48:05Z</time>
</trkpt>
<trkpt lat="34.8439936" lon="32.3870861">
<ele>17.81</ele>
<time>2015-04-24T15:48:06Z</time>
</trkpt>
<trkpt lat="34.8440356" lon="32.3870658">
<ele>17.87</ele>
<time>2015-04-24T15:48:07Z</time>
</trkpt>
<trkpt lat="34.8440886" lon="32.3870555">
<ele>17.40</ele>
<time>2015-04-24T15:48:08Z</time>
</trkpt>
<trkpt lat="34.8441378" lon="32.3870411">
<ele>18.16</ele>
<time>2015-04-24T15:48:09Z</time>
</trkpt>
<trkpt lat="34.8442213" lon="32.3870130">
<ele>17.98</ele>
<time>2015-04-24T15:48:11Z</time>
</trkpt>
<trkpt lat="34.8442682" lon="32.3869918">
<ele>18.45</ele>
<time>2015-04-24T15:48:12Z</time>
</trkpt>
<trkpt lat="34.8443251" lon="32.3869816">
<ele>17.19</ele>
<time>2015-04-24T15:48:13Z</time>
</trkpt>
<trkpt lat="34.8443736" lon="32.3869683">
<ele>16.56</ele>
<time>2015-04-24T15:48:14Z</time>
</trkpt>
<trkpt lat="34.8444660" lon="32.3869250">
<ele>16.83</ele>
<time>2015-04-24T15:48:16Z</time>
</trkpt>
<trkpt lat="34.8445191" lon="32.3868944">
<ele>16.38</ele>
<time>2015-04-24T15:48:17Z</time>
</trkpt>
<trkpt lat="34.8445638" lon="32.3868770">
<ele>15.65</ele>
<time>2015-04-24T15:48:18Z</time>
</trkpt>
<trkpt lat="34.8446110" lon="32.3868620">
<ele>15.29</ele>
<time>2015-04-24T15:48:19Z</time>
</trkpt>
<trkpt lat="34.8446598" lon="32.3868406">
<ele>16.11</ele>
<time>2015-04-24T15:48:20Z</time>
</trkpt>
<trkpt lat="34.8447051" lon="32.3868195">
<ele>16.02</ele>
<time>2015-04-24T15:48:21Z</time>
</trkpt>
<trkpt lat="34.8447487" lon="32.3867997">
<ele>15.97</ele>
<time>2015-04-24T15:48:22Z</time>
</trkpt>
<trkpt lat="34.8447912" lon="32.3867741">
<ele>16.45</ele>
<time>2015-04-24T15:48:23Z</time>
</trkpt>
<trkpt lat="34.8448823" lon="32.3867275">
<ele>16.56</ele>
<time>2015-04-24T15:48:25Z</time>
</trkpt>
<trkpt lat="34.8449654" lon="32.3866921">
<ele>16.33</ele>
<time>2015-04-24T15:48:27Z</time>
</trkpt>
<trkpt lat="34.8450154" lon="32.3866528">
<ele>16.63</ele>
<time>2015-04-24T15:48:28Z</time>
</trkpt>
<trkpt lat="34.8450609" lon="32.3866416">
<ele>16.28</ele>
<time>2015-04-24T15:48:29Z</time>
</trkpt>
<trkpt lat="34.8451434" lon="32.3866109">
<ele>14.51</ele>
<time>2015-04-24T15:48:31Z</time>
</trkpt>
<trkpt lat="34.8451924" lon="32.3865976">
<ele>14.22</ele>
<time>2015-04-24T15:48:32Z</time>
</trkpt>
<trkpt lat="34.8452382" lon="32.3865785">
<ele>14.07</ele>
<time>2015-04-24T15:48:33Z</time>
</trkpt>
<trkpt lat="34.8453226" lon="32.3865491">
<ele>13.46</ele>
<time>2015-04-24T15:48:35Z</time>
</trkpt>
<trkpt lat="34.8453677" lon="32.3865271">
<ele>13.69</ele>
<time>2015-04-24T15:48:36Z</time>
</trkpt>
<trkpt lat="34.8454161" lon="32.3865076">
<ele>13.81</ele>
<time>2015-04-24T15:48:37Z</time>
</trkpt>
<trkpt lat="34.8454589" lon="32.3864888">
<ele>14.37</ele>
<time>2015-04-24T15:48:38Z</time>
</trkpt>
<trkpt lat="34.8455471" lon="32.3864505">
<ele>14.79</ele>
<time>2015-04-24T15:48:40Z</time>
</trkpt>
<trkpt lat="34.8456306" lon="32.3864172">
<ele>14.89</ele>
<time>2015-04-24T15:48:42Z</time>
</trkpt>
<trkpt lat="34.8457247" lon="32.3863737">
<ele>16.67</ele>
<time>2015-04-24T15:48:44Z</time>
</trkpt>
<trkpt lat="34.8457730" lon="32.3863544">
<ele>17.30</ele>
<time>2015-04-24T15:48:45Z</time>
</trkpt>
<trkpt lat="34.8458191" lon="32.3863351">
<ele>18.11</ele>
<time>2015-04-24T15:48:46Z</time>
</trkpt>
<trkpt lat="34.8459178" lon="32.3863315">
<ele>17.47</ele>
<time>2015-04-24T15:48:48Z</time>
</trkpt>
<trkpt lat="34.8459658" lon="32.3863114">
<ele>16.70</ele>
<time>2015-04-24T15:48:49Z</time>
</trkpt>
<trkpt lat="34.8460189" lon="32.3862956">
<ele>16.81</ele>
<time>2015-04-24T15:48:50Z</time>
</trkpt>
<trkpt lat="34.8460651" lon="32.3862758">
<ele>16.37</ele>
<time>2015-04-24T15:48:51Z</time>
</trkpt>
<trkpt lat="34.8461234" lon="32.3862768">
<ele>14.15</ele>
<time>2015-04-24T15:48:52Z</time>
</trkpt>
<trkpt lat="34.8462054" lon="32.3862518">
<ele>10.98</ele>
<time>2015-04-24T15:48:54Z</time>
</trkpt>
<trkpt lat="34.8462817" lon="32.3862026">
<ele>9.94</ele>
<time>2015-04-24T15:48:56Z</time>
</trkpt>
<trkpt lat="34.8463264" lon="32.3861794">
<ele>8.93</ele>
<time>2015-04-24T15:48:57Z</time>
</trkpt>
<trkpt lat="34.8463685" lon="32.3861584">
<ele>8.93</ele>
<time>2015-04-24T15:48:58Z</time>
</trkpt>
<trkpt lat="34.8464173" lon="32.3861430">
<ele>9.43</ele>
<time>2015-04-24T15:48:59Z</time>
</trkpt>
<trkpt lat="34.8464595" lon="32.3861219">
<ele>9.68</ele>
<time>2015-04-24T15:49:00Z</time>
</trkpt>
<trkpt lat="34.8465087" lon="32.3861061">
<ele>9.30</ele>
<time>2015-04-24T15:49:01Z</time>
</trkpt>
<trkpt lat="34.8465826" lon="32.3860735">
<ele>9.27</ele>
<time>2015-04-24T15:49:03Z</time>
</trkpt>
<trkpt lat="34.8466669" lon="32.3860370">
<ele>9.01</ele>
<time>2015-04-24T15:49:05Z</time>
</trkpt>
<trkpt lat="34.8467104" lon="32.3860152">
<ele>9.47</ele>
<time>2015-04-24T15:49:06Z</time>
</trkpt>
<trkpt lat="34.8468033" lon="32.3859697">
<ele>10.81</ele>
<time>2015-04-24T15:49:08Z</time>
</trkpt>
<trkpt lat="34.8468821" lon="32.3859279">
<ele>12.15</ele>
<time>2015-04-24T15:49:10Z</time>
</trkpt>
<trkpt lat="34.8469702" lon="32.3858966">
<ele>13.98</ele>
<time>2015-04-24T15:49:12Z</time>
</trkpt>
<trkpt lat="34.8470142" lon="32.3858826">
<ele>14.45</ele>
<time>2015-04-24T15:49:13Z</time>
</trkpt>
<trkpt lat="34.8470957" lon="32.3858553">
<ele>15.56</ele>
<time>2015-04-24T15:49:15Z</time>
</trkpt>
<trkpt lat="34.8471860" lon="32.3858327">
<ele>15.33</ele>
<time>2015-04-24T15:49:17Z</time>
</trkpt>
<trkpt lat="34.8472634" lon="32.3857913">
<ele>15.78</ele>
<time>2015-04-24T15:49:19Z</time>
</trkpt>
<trkpt lat="34.8473073" lon="32.3857733">
<ele>16.35</ele>
<time>2015-04-24T15:49:20Z</time>
</trkpt>
<trkpt lat="34.8473534" lon="32.3857580">
<ele>15.64</ele>
<time>2015-04-24T15:49:21Z</time>
</trkpt>
<trkpt lat="34.8474006" lon="32.3857345">
<ele>15.78</ele>
<time>2015-04-24T15:49:22Z</time>
</trkpt>
<trkpt lat="34.8474872" lon="32.3857079">
<ele>15.39</ele>
<time>2015-04-24T15:49:24Z</time>
</trkpt>
<trkpt lat="34.8475298" lon="32.3856757">
<ele>16.16</ele>
<time>2015-04-24T15:49:25Z</time>
</trkpt>
<trkpt lat="34.8475757" lon="32.3856550">
<ele>17.04</ele>
<time>2015-04-24T15:49:26Z</time>
</trkpt>
<trkpt lat="34.8476584" lon="32.3856155">
<ele>16.95</ele>
<time>2015-04-24T15:49:28Z</time>
</trkpt>
<trkpt lat="34.8477044" lon="32.3855969">
<ele>17.44</ele>
<time>2015-04-24T15:49:29Z</time>
</trkpt>
<trkpt lat="34.8477568" lon="32.3855828">
<ele>17.18</ele>
<time>2015-04-24T15:49:30Z</time>
</trkpt>
<trkpt lat="34.8478021" lon="32.3855641">
<ele>17.05</ele>
<time>2015-04-24T15:49:31Z</time>
</trkpt>
<trkpt lat="34.8478533" lon="32.3855397">
<ele>16.99</ele>
<time>2015-04-24T15:49:32Z</time>
</trkpt>
<trkpt lat="34.8479011" lon="32.3855233">
<ele>16.96</ele>
<time>2015-04-24T15:49:33Z</time>
</trkpt>
<trkpt lat="34.8479487" lon="32.3855068">
<ele>17.44</ele>
<time>2015-04-24T15:49:34Z</time>
</trkpt>
<trkpt lat="34.8480005" lon="32.3854901">
<ele>17.18</ele>
<time>2015-04-24T15:49:35Z</time>
</trkpt>
<trkpt lat="34.8480574" lon="32.3854633">
<ele>18.05</ele>
<time>2015-04-24T15:49:36Z</time>
</trkpt>
<trkpt lat="34.8481062" lon="32.3854458">
<ele>18.99</ele>
<time>2015-04-24T15:49:37Z</time>
</trkpt>
<trkpt lat="34.8481517" lon="32.3854234">
<ele>18.96</ele>
<time>2015-04-24T15:49:38Z</time>
</trkpt>
<trkpt lat="34.8482028" lon="32.3854057">
<ele>18.94</ele>
<time>2015-04-24T15:49:39Z</time>
</trkpt>
<trkpt lat="34.8482554" lon="32.3853815">
<ele>18.43</ele>
<time>2015-04-24T15:49:40Z</time>
</trkpt>
<trkpt lat="34.8483085" lon="32.3853628">
<ele>18.18</ele>
<time>2015-04-24T15:49:41Z</time>
</trkpt>
<trkpt lat="34.8483520" lon="32.3853358">
<ele>18.55</ele>
<time>2015-04-24T15:49:42Z</time>
</trkpt>
<trkpt lat="34.8484357" lon="32.3852875">
<ele>20.08</ele>
<time>2015-04-24T15:49:44Z</time>
</trkpt>
<trkpt lat="34.8484785" lon="32.3852681">
<ele>21.00</ele>
<time>2015-04-24T15:49:45Z</time>
</trkpt>
<trkpt lat="34.8485203" lon="32.3852448">
<ele>20.96</ele>
<time>2015-04-24T15:49:46Z</time>
</trkpt>
<trkpt lat="34.8485698" lon="32.3852157">
<ele>22.44</ele>
<time>2015-04-24T15:49:47Z</time>
</trkpt>
<trkpt lat="34.8486194" lon="32.3851998">
<ele>23.18</ele>
<time>2015-04-24T15:49:48Z</time>
</trkpt>
<trkpt lat="34.8486670" lon="32.3851780">
<ele>23.05</ele>
<time>2015-04-24T15:49:49Z</time>
</trkpt>
<trkpt lat="34.8487091" lon="32.3851556">
<ele>23.49</ele>
<time>2015-04-24T15:49:50Z</time>
</trkpt>
<trkpt lat="34.8487991" lon="32.3851054">
<ele>24.32</ele>
<time>2015-04-24T15:49:52Z</time>
</trkpt>
<trkpt lat="34.8488459" lon="32.3850723">
<ele>25.12</ele>
<time>2015-04-24T15:49:53Z</time>
</trkpt>
<trkpt lat="34.8488869" lon="32.3850458">
<ele>25.52</ele>
<time>2015-04-24T15:49:54Z</time>
</trkpt>
<trkpt lat="34.8489805" lon="32.3850060">
<ele>26.32</ele>
<time>2015-04-24T15:49:56Z</time>
</trkpt>
<trkpt lat="34.8490200" lon="32.3849784">
<ele>26.62</ele>
<time>2015-04-24T15:49:57Z</time>
</trkpt>
<trkpt lat="34.8490984" lon="32.3849399">
<ele>25.35</ele>
<time>2015-04-24T15:49:59Z</time>
</trkpt>
<trkpt lat="34.8491868" lon="32.3848971">
<ele>25.28</ele>
<time>2015-04-24T15:50:01Z</time>
</trkpt>
<trkpt lat="34.8492324" lon="32.3848669">
<ele>25.10</ele>
<time>2015-04-24T15:50:02Z</time>
</trkpt>
<trkpt lat="34.8493152" lon="32.3848319">
<ele>24.97</ele>
<time>2015-04-24T15:50:04Z</time>
</trkpt>
<trkpt lat="34.8493907" lon="32.3847716">
<ele>24.19</ele>
<time>2015-04-24T15:50:06Z</time>
</trkpt>
<trkpt lat="34.8494364" lon="32.3847518">
<ele>23.06</ele>
<time>2015-04-24T15:50:07Z</time>
</trkpt>
<trkpt lat="34.8495136" lon="32.3846996">
<ele>22.71</ele>
<time>2015-04-24T15:50:09Z</time>
</trkpt>
<trkpt lat="34.8495486" lon="32.3846647">
<ele>23.32</ele>
<time>2015-04-24T15:50:10Z</time>
</trkpt>
<trkpt lat="34.8495880" lon="32.3846272">
<ele>24.12</ele>
<time>2015-04-24T15:50:11Z</time>
</trkpt>
<trkpt lat="34.8496675" lon="32.3845680">
<ele>24.47</ele>
<time>2015-04-24T15:50:13Z</time>
</trkpt>
<trkpt lat="34.8497192" lon="32.3845303">
<ele>26.20</ele>
<time>2015-04-24T15:50:14Z</time>
</trkpt>
<trkpt lat="34.8497874" lon="32.3844716">
<ele>26.99</ele>
<time>2015-04-24T15:50:16Z</time>
</trkpt>
<trkpt lat="34.8498300" lon="32.3844432">
<ele>27.46</ele>
<time>2015-04-24T15:50:17Z</time>
</trkpt>
<trkpt lat="34.8498718" lon="32.3844209">
<ele>27.19</ele>
<time>2015-04-24T15:50:18Z</time>
</trkpt>
<trkpt lat="34.8499156" lon="32.3843851">
<ele>27.06</ele>
<time>2015-04-24T15:50:19Z</time>
</trkpt>
<trkpt lat="34.8499639" lon="32.3843530">
<ele>27.49</ele>
<time>2015-04-24T15:50:20Z</time>
</trkpt>
<trkpt lat="34.8500078" lon="32.3843274">
<ele>27.71</ele>
<time>2015-04-24T15:50:21Z</time>
</trkpt>
<trkpt lat="34.8500500" lon="32.3842979">
<ele>27.82</ele>
<time>2015-04-24T15:50:22Z</time>
</trkpt>
<trkpt lat="34.8500970" lon="32.3842719">
<ele>28.37</ele>
<time>2015-04-24T15:50:23Z</time>
</trkpt>
<trkpt lat="34.8501428" lon="32.3842400">
<ele>29.15</ele>
<time>2015-04-24T15:50:24Z</time>
</trkpt>
<trkpt lat="34.8502064" lon="32.3841794">
<ele>29.23</ele>
<time>2015-04-24T15:50:26Z</time>
</trkpt>
<trkpt lat="34.8502814" lon="32.3841198">
<ele>29.00</ele>
<time>2015-04-24T15:50:28Z</time>
</trkpt>
<trkpt lat="34.8503196" lon="32.3840876">
<ele>28.96</ele>
<time>2015-04-24T15:50:29Z</time>
</trkpt>
<trkpt lat="34.8503603" lon="32.3840519">
<ele>29.44</ele>
<time>2015-04-24T15:50:30Z</time>
</trkpt>
<trkpt lat="34.8504398" lon="32.3839821">
<ele>29.05</ele>
<time>2015-04-24T15:50:32Z</time>
</trkpt>
<trkpt lat="34.8505127" lon="32.3839228">
<ele>28.21</ele>
<time>2015-04-24T15:50:34Z</time>
</trkpt>
<trkpt lat="34.8505759" lon="32.3838674">
<ele>27.75</ele>
<time>2015-04-24T15:50:36Z</time>
</trkpt>
<trkpt lat="34.8506356" lon="32.3837986">
<ele>28.63</ele>
<time>2015-04-24T15:50:38Z</time>
</trkpt>
<trkpt lat="34.8506756" lon="32.3837724">
<ele>28.28</ele>
<time>2015-04-24T15:50:39Z</time>
</trkpt>
<trkpt lat="34.8507364" lon="32.3837161">
<ele>27.26</ele>
<time>2015-04-24T15:50:41Z</time>
</trkpt>
<trkpt lat="34.8507753" lon="32.3836820">
<ele>27.59</ele>
<time>2015-04-24T15:50:42Z</time>
</trkpt>
<trkpt lat="34.8508480" lon="32.3836377">
<ele>27.34</ele>
<time>2015-04-24T15:50:44Z</time>
</trkpt>
<trkpt lat="34.8509156" lon="32.3835883">
<ele>27.03</ele>
<time>2015-04-24T15:50:46Z</time>
</trkpt>
<trkpt lat="34.8509760" lon="32.3835349">
<ele>26.95</ele>
<time>2015-04-24T15:50:48Z</time>
</trkpt>
<trkpt lat="34.8510381" lon="32.3834668">
<ele>26.43</ele>
<time>2015-04-24T15:50:50Z</time>
</trkpt>
<trkpt lat="34.8511040" lon="32.3833991">
<ele>26.55</ele>
<time>2015-04-24T15:50:52Z</time>
</trkpt>
<trkpt lat="34.8511528" lon="32.3833421">
<ele>26.83</ele>
<time>2015-04-24T15:50:54Z</time>
</trkpt>
<trkpt lat="34.8512079" lon="32.3832801">
<ele>26.90</ele>
<time>2015-04-24T15:50:56Z</time>
</trkpt>
<trkpt lat="34.8512875" lon="32.3831922">
<ele>27.92</ele>
<time>2015-04-24T15:50:58Z</time>
</trkpt>
<trkpt lat="34.8513252" lon="32.3831557">
<ele>28.42</ele>
<time>2015-04-24T15:50:59Z</time>
</trkpt>
<trkpt lat="34.8513632" lon="32.3831187">
<ele>29.17</ele>
<time>2015-04-24T15:51:00Z</time>
</trkpt>
<trkpt lat="34.8513938" lon="32.3830770">
<ele>29.05</ele>
<time>2015-04-24T15:51:01Z</time>
</trkpt>
<trkpt lat="34.8514526" lon="32.3830216">
<ele>29.71</ele>
<time>2015-04-24T15:51:03Z</time>
</trkpt>
<trkpt lat="34.8515040" lon="32.3829741">
<ele>30.62</ele>
<time>2015-04-24T15:51:05Z</time>
</trkpt>
<trkpt lat="34.8515511" lon="32.3829206">
<ele>31.60</ele>
<time>2015-04-24T15:51:07Z</time>
</trkpt>
<trkpt lat="34.8516074" lon="32.3828692">
<ele>30.34</ele>
<time>2015-04-24T15:51:09Z</time>
</trkpt>
<trkpt lat="34.8516604" lon="32.3828177">
<ele>30.53</ele>
<time>2015-04-24T15:51:11Z</time>
</trkpt>
<trkpt lat="34.8517083" lon="32.3827577">
<ele>30.83</ele>
<time>2015-04-24T15:51:13Z</time>
</trkpt>
<trkpt lat="34.8517588" lon="32.3827019">
<ele>31.40</ele>
<time>2015-04-24T15:51:15Z</time>
</trkpt>
<trkpt lat="34.8518111" lon="32.3826454">
<ele>31.29</ele>
<time>2015-04-24T15:51:17Z</time>
</trkpt>
<trkpt lat="34.8518606" lon="32.3825940">
<ele>31.52</ele>
<time>2015-04-24T15:51:19Z</time>
</trkpt>
<trkpt lat="34.8519070" lon="32.3825391">
<ele>32.82</ele>
<time>2015-04-24T15:51:21Z</time>
</trkpt>
<trkpt lat="34.8519526" lon="32.3824908">
<ele>32.90</ele>
<time>2015-04-24T15:51:23Z</time>
</trkpt>
<trkpt lat="34.8519997" lon="32.3824389">
<ele>32.92</ele>
<time>2015-04-24T15:51:25Z</time>
</trkpt>
<trkpt lat="34.8520479" lon="32.3823902">
<ele>32.92</ele>
<time>2015-04-24T15:51:27Z</time>
</trkpt>
<trkpt lat="34.8520960" lon="32.3823401">
<ele>33.67</ele>
<time>2015-04-24T15:51:29Z</time>
</trkpt>
<trkpt lat="34.8521434" lon="32.3822935">
<ele>34.36</ele>
<time>2015-04-24T15:51:31Z</time>
</trkpt>
<trkpt lat="34.8521954" lon="32.3822459">
<ele>34.03</ele>
<time>2015-04-24T15:51:33Z</time>
</trkpt>
<trkpt lat="34.8522447" lon="32.3821996">
<ele>33.95</ele>
<time>2015-04-24T15:51:35Z</time>
</trkpt>
<trkpt lat="34.8522961" lon="32.3821486">
<ele>33.93</ele>
<time>2015-04-24T15:51:37Z</time>
</trkpt>
<trkpt lat="34.8523464" lon="32.3820996">
<ele>34.43</ele>
<time>2015-04-24T15:51:39Z</time>
</trkpt>
<trkpt lat="34.8523960" lon="32.3820427">
<ele>35.55</ele>
<time>2015-04-24T15:51:41Z</time>
</trkpt>
<trkpt lat="34.8524427" lon="32.3819875">
<ele>37.33</ele>
<time>2015-04-24T15:51:43Z</time>
</trkpt>
<trkpt lat="34.8524909" lon="32.3819289">
<ele>38.53</ele>
<time>2015-04-24T15:51:45Z</time>
</trkpt>
<trkpt lat="34.8525372" lon="32.3818731">
<ele>38.33</ele>
<time>2015-04-24T15:51:47Z</time>
</trkpt>
<trkpt lat="34.8525852" lon="32.3818206">
<ele>39.28</ele>
<time>2015-04-24T15:51:49Z</time>
</trkpt>
<trkpt lat="34.8526309" lon="32.3817719">
<ele>40.26</ele>
<time>2015-04-24T15:51:51Z</time>
</trkpt>
<trkpt lat="34.8526747" lon="32.3817246">
<ele>40.26</ele>
<time>2015-04-24T15:51:53Z</time>
</trkpt>
<trkpt lat="34.8527135" lon="32.3816793">
<ele>40.01</ele>
<time>2015-04-24T15:51:55Z</time>
</trkpt>
<trkpt lat="34.8527573" lon="32.3816341">
<ele>39.45</ele>
<time>2015-04-24T15:51:57Z</time>
</trkpt>
<trkpt lat="34.8528030" lon="32.3815960">
<ele>39.06</ele>
<time>2015-04-24T15:51:59Z</time>
</trkpt>
<trkpt lat="34.8528380" lon="32.3815520">
<ele>38.96</ele>
<time>2015-04-24T15:52:01Z</time>
</trkpt>
<trkpt lat="34.8528699" lon="32.3815004">
<ele>38.43</ele>
<time>2015-04-24T15:52:03Z</time>
</trkpt>
<trkpt lat="34.8529139" lon="32.3814506">
<ele>38.05</ele>
<time>2015-04-24T15:52:05Z</time>
</trkpt>
<trkpt lat="34.8529570" lon="32.3814037">
<ele>37.96</ele>
<time>2015-04-24T15:52:07Z</time>
</trkpt>
<trkpt lat="34.8529948" lon="32.3813530">
<ele>39.18</ele>
<time>2015-04-24T15:52:09Z</time>
</trkpt>
<trkpt lat="34.8530305" lon="32.3813094">
<ele>39.74</ele>
<time>2015-04-24T15:52:11Z</time>
</trkpt>
<trkpt lat="34.8530694" lon="32.3812698">
<ele>39.88</ele>
<time>2015-04-24T15:52:13Z</time>
</trkpt>
<trkpt lat="34.8531199" lon="32.3812154">
<ele>40.42</ele>
<time>2015-04-24T15:52:16Z</time>
</trkpt>
<trkpt lat="34.8531545" lon="32.3811681">
<ele>39.86</ele>
<time>2015-04-24T15:52:19Z</time>
</trkpt>
<trkpt lat="34.8531894" lon="32.3811254">
<ele>39.54</ele>
<time>2015-04-24T15:52:22Z</time>
</trkpt>
<trkpt lat="34.8532345" lon="32.3810728">
<ele>40.38</ele>
<time>2015-04-24T15:52:25Z</time>
</trkpt>
<trkpt lat="34.8532845" lon="32.3810251">
<ele>40.23</ele>
<time>2015-04-24T15:52:28Z</time>
</trkpt>
<trkpt lat="34.8533278" lon="32.3809885">
<ele>38.46</ele>
<time>2015-04-24T15:52:31Z</time>
</trkpt>
<trkpt lat="34.8533636" lon="32.3809516">
<ele>39.12</ele>
<time>2015-04-24T15:52:34Z</time>
</trkpt>
<trkpt lat="34.8534066" lon="32.3809182">
<ele>39.82</ele>
<time>2015-04-24T15:52:37Z</time>
</trkpt>
<trkpt lat="34.8534633" lon="32.3809298">
<ele>40.41</ele>
<time>2015-04-24T15:52:40Z</time>
</trkpt>
<trkpt lat="34.8535070" lon="32.3809452">
<ele>40.80</ele>
<time>2015-04-24T15:52:42Z</time>
</trkpt>
<trkpt lat="34.8535566" lon="32.3809434">
<ele>41.64</ele>
<time>2015-04-24T15:52:44Z</time>
</trkpt>
<trkpt lat="34.8536122" lon="32.3809490">
<ele>43.10</ele>
<time>2015-04-24T15:52:46Z</time>
</trkpt>
<trkpt lat="34.8536623" lon="32.3809837">
<ele>44.22</ele>
<time>2015-04-24T15:52:48Z</time>
</trkpt>
<trkpt lat="34.8537030" lon="32.3810332">
<ele>45.25</ele>
<time>2015-04-24T15:52:50Z</time>
</trkpt>
<trkpt lat="34.8537449" lon="32.3810842">
<ele>45.76</ele>
<time>2015-04-24T15:52:52Z</time>
</trkpt>
<trkpt lat="34.8537874" lon="32.3811297">
<ele>45.13</ele>
<time>2015-04-24T15:52:54Z</time>
</trkpt>
<trkpt lat="34.8538287" lon="32.3811773">
<ele>44.23</ele>
<time>2015-04-24T15:52:56Z</time>
</trkpt>
<trkpt lat="34.8538676" lon="32.3812218">
<ele>44.75</ele>
<time>2015-04-24T15:52:58Z</time>
</trkpt>
<trkpt lat="34.8539034" lon="32.3812630">
<ele>45.63</ele>
<time>2015-04-24T15:53:00Z</time>
</trkpt>
<trkpt lat="34.8539390" lon="32.3813040">
<ele>48.18</ele>
<time>2015-04-24T15:53:23Z</time>
</trkpt>
<trkpt lat="34.8539790" lon="32.3813370">
<ele>49.30</ele>
<time>2015-04-24T15:53:30Z</time>
</trkpt>
<trkpt lat="34.8540164" lon="32.3813741">
<ele>50.19</ele>
<time>2015-04-24T15:53:52Z</time>
</trkpt>
<trkpt lat="34.8540596" lon="32.3814107">
<ele>50.75</ele>
<time>2015-04-24T15:53:56Z</time>
</trkpt>
<trkpt lat="34.8540969" lon="32.3814450">
<ele>50.90</ele>
<time>2015-04-24T15:53:59Z</time>
</trkpt>
<trkpt lat="34.8541328" lon="32.3814824">
<ele>50.17</ele>
<time>2015-04-24T15:54:02Z</time>
</trkpt>
<trkpt lat="34.8541718" lon="32.3815160">
<ele>50.71</ele>
<time>2015-04-24T15:54:05Z</time>
</trkpt>
<trkpt lat="34.8542120" lon="32.3815452">
<ele>50.90</ele>
<time>2015-04-24T15:54:08Z</time>
</trkpt>
<trkpt lat="34.8542810" lon="32.3815635">
<ele>51.80</ele>
<time>2015-04-24T15:54:11Z</time>
</trkpt>
<trkpt lat="34.8543467" lon="32.3816028">
<ele>51.89</ele>
<time>2015-04-24T15:54:13Z</time>
</trkpt>
<trkpt lat="34.8544136" lon="32.3816506">
<ele>52.42</ele>
<time>2015-04-24T15:54:15Z</time>
</trkpt>
<trkpt lat="34.8544820" lon="32.3817049">
<ele>53.30</ele>
<time>2015-04-24T15:54:17Z</time>
</trkpt>
<trkpt lat="34.8545478" lon="32.3817541">
<ele>53.77</ele>
<time>2015-04-24T15:54:19Z</time>
</trkpt>
<trkpt lat="34.8546145" lon="32.3818077">
<ele>55.14</ele>
<time>2015-04-24T15:54:21Z</time>
</trkpt>
<trkpt lat="34.8546772" lon="32.3818569">
<ele>54.98</ele>
<time>2015-04-24T15:54:23Z</time>
</trkpt>
<trkpt lat="34.8547388" lon="32.3819086">
<ele>56.19</ele>
<time>2015-04-24T15:54:25Z</time>
</trkpt>
<trkpt lat="34.8548021" lon="32.3819513">
<ele>56.74</ele>
<time>2015-04-24T15:54:27Z</time>
</trkpt>
<trkpt lat="34.8548679" lon="32.3819940">
<ele>57.38</ele>
<time>2015-04-24T15:54:29Z</time>
</trkpt>
<trkpt lat="34.8549292" lon="32.3820341">
<ele>57.04</ele>
<time>2015-04-24T15:54:31Z</time>
</trkpt>
<trkpt lat="34.8549947" lon="32.3820649">
<ele>56.95</ele>
<time>2015-04-24T15:54:33Z</time>
</trkpt>
<trkpt lat="34.8550602" lon="32.3820869">
<ele>56.93</ele>
<time>2015-04-24T15:54:35Z</time>
</trkpt>
<trkpt lat="34.8551263" lon="32.3820962">
<ele>57.43</ele>
<time>2015-04-24T15:54:37Z</time>
</trkpt>
<trkpt lat="34.8551874" lon="32.3820887">
<ele>57.80</ele>
<time>2015-04-24T15:54:39Z</time>
</trkpt>
<trkpt lat="34.8552455" lon="32.3820660">
<ele>58.39</ele>
<time>2015-04-24T15:54:41Z</time>
</trkpt>
<trkpt lat="34.8552955" lon="32.3820319">
<ele>58.29</ele>
<time>2015-04-24T15:54:43Z</time>
</trkpt>
<trkpt lat="34.8553415" lon="32.3819910">
<ele>58.27</ele>
<time>2015-04-24T15:54:45Z</time>
</trkpt>
<trkpt lat="34.8553813" lon="32.3819462">
<ele>58.76</ele>
<time>2015-04-24T15:54:47Z</time>
</trkpt>
<trkpt lat="34.8554225" lon="32.3819026">
<ele>59.63</ele>
<time>2015-04-24T15:54:49Z</time>
</trkpt>
<trkpt lat="34.8554651" lon="32.3818596">
<ele>59.10</ele>
<time>2015-04-24T15:54:51Z</time>
</trkpt>
<trkpt lat="34.8555107" lon="32.3818106">
<ele>58.97</ele>
<time>2015-04-24T15:54:53Z</time>
</trkpt>
<trkpt lat="34.8555568" lon="32.3817681">
<ele>58.19</ele>
<time>2015-04-24T15:54:55Z</time>
</trkpt>
<trkpt lat="34.8556012" lon="32.3817219">
<ele>58.74</ele>
<time>2015-04-24T15:54:57Z</time>
</trkpt>
<trkpt lat="34.8556460" lon="32.3816761">
<ele>58.13</ele>
<time>2015-04-24T15:54:59Z</time>
</trkpt>
<trkpt lat="34.8556943" lon="32.3816301">
<ele>57.98</ele>
<time>2015-04-24T15:55:01Z</time>
</trkpt>
<trkpt lat="34.8557439" lon="32.3815853">
<ele>58.69</ele>
<time>2015-04-24T15:55:03Z</time>
</trkpt>
<trkpt lat="34.8557991" lon="32.3815360">
<ele>58.37</ele>
<time>2015-04-24T15:55:05Z</time>
</trkpt>
<trkpt lat="34.8558558" lon="32.3814852">
<ele>58.04</ele>
<time>2015-04-24T15:55:07Z</time>
</trkpt>
<trkpt lat="34.8559118" lon="32.3814275">
<ele>58.70</ele>
<time>2015-04-24T15:55:09Z</time>
</trkpt>
<trkpt lat="34.8559678" lon="32.3813692">
<ele>59.37</ele>
<time>2015-04-24T15:55:11Z</time>
</trkpt>
<trkpt lat="34.8560287" lon="32.3813109">
<ele>59.79</ele>
<time>2015-04-24T15:55:13Z</time>
</trkpt>
<trkpt lat="34.8560879" lon="32.3812520">
<ele>59.64</ele>
<time>2015-04-24T15:55:15Z</time>
</trkpt>
<trkpt lat="34.8561479" lon="32.3811933">
<ele>59.10</ele>
<time>2015-04-24T15:55:17Z</time>
</trkpt>
<trkpt lat="34.8562024" lon="32.3811387">
<ele>59.72</ele>
<time>2015-04-24T15:55:19Z</time>
</trkpt>
<trkpt lat="34.8562610" lon="32.3810890">
<ele>60.62</ele>
<time>2015-04-24T15:55:21Z</time>
</trkpt>
<trkpt lat="34.8563202" lon="32.3810358">
<ele>61.60</ele>
<time>2015-04-24T15:55:23Z</time>
</trkpt>
<trkpt lat="34.8563836" lon="32.3809871">
<ele>61.34</ele>
<time>2015-04-24T15:55:25Z</time>
</trkpt>
<trkpt lat="34.8564408" lon="32.3809465">
<ele>60.78</ele>
<time>2015-04-24T15:55:27Z</time>
</trkpt>
<trkpt lat="34.8564969" lon="32.3809045">
<ele>60.89</ele>
<time>2015-04-24T15:55:29Z</time>
</trkpt>
<trkpt lat="34.8565530" lon="32.3808650">
<ele>60.92</ele>
<time>2015-04-24T15:55:31Z</time>
</trkpt>
<trkpt lat="34.8566064" lon="32.3808264">
<ele>60.92</ele>
<time>2015-04-24T15:55:33Z</time>
</trkpt>
<trkpt lat="34.8566513" lon="32.3807868">
<ele>61.67</ele>
<time>2015-04-24T15:55:35Z</time>
</trkpt>
<trkpt lat="34.8567035" lon="32.3807418">
<ele>61.89</ele>
<time>2015-04-24T15:55:38Z</time>
</trkpt>
<trkpt lat="34.8567587" lon="32.3806940">
<ele>62.80</ele>
<time>2015-04-24T15:55:41Z</time>
</trkpt>
<trkpt lat="34.8568061" lon="32.3806625">
<ele>62.89</ele>
<time>2015-04-24T15:55:43Z</time>
</trkpt>
<trkpt lat="34.8568542" lon="32.3806292">
<ele>63.42</ele>
<time>2015-04-24T15:55:45Z</time>
</trkpt>
<trkpt lat="34.8568956" lon="32.3805979">
<ele>63.80</ele>
<time>2015-04-24T15:55:47Z</time>
</trkpt>
<trkpt lat="34.8569476" lon="32.3805544">
<ele>63.91</ele>
<time>2015-04-24T15:55:50Z</time>
</trkpt>
<trkpt lat="34.8569890" lon="32.3805292">
<ele>64.67</ele>
<time>2015-04-24T15:55:52Z</time>
</trkpt>
<trkpt lat="34.8570392" lon="32.3805007">
<ele>63.61</ele>
<time>2015-04-24T15:55:54Z</time>
</trkpt>
<trkpt lat="34.8570904" lon="32.3804648">
<ele>63.35</ele>
<time>2015-04-24T15:55:56Z</time>
</trkpt>
<trkpt lat="34.8571403" lon="32.3804229">
<ele>62.28</ele>
<time>2015-04-24T15:55:58Z</time>
</trkpt>
<trkpt lat="34.8571864" lon="32.3803876">
<ele>62.01</ele>
<time>2015-04-24T15:56:00Z</time>
</trkpt>
<trkpt lat="34.8572247" lon="32.3803533">
<ele>61.95</ele>
<time>2015-04-24T15:56:02Z</time>
</trkpt>
<trkpt lat="34.8572124" lon="32.3802858">
<ele>62.80</ele>
<time>2015-04-24T15:56:06Z</time>
</trkpt>
<trkpt lat="34.8571590" lon="32.3802497">
<ele>61.91</ele>
<time>2015-04-24T15:56:09Z</time>
</trkpt>
<trkpt lat="34.8571296" lon="32.3802971">
<ele>60.19</ele>
<time>2015-04-24T15:58:55Z</time>
</trkpt>
<trkpt lat="34.8571751" lon="32.3802978">
<ele>64.34</ele>
<time>2015-04-24T16:00:54Z</time>
</trkpt>
<trkpt lat="34.8572271" lon="32.3803202">
<ele>64.93</ele>
<time>2015-04-24T16:01:01Z</time>
</trkpt>
<trkpt lat="34.8572781" lon="32.3803421">
<ele>64.43</ele>
<time>2015-04-24T16:01:04Z</time>
</trkpt>
<trkpt lat="34.8573281" lon="32.3803165">
<ele>63.61</ele>
<time>2015-04-24T16:01:07Z</time>
</trkpt>
<trkpt lat="34.8573791" lon="32.3802863">
<ele>63.76</ele>
<time>2015-04-24T16:01:10Z</time>
</trkpt>
<trkpt lat="34.8574370" lon="32.3802490">
<ele>63.03</ele>
<time>2015-04-24T16:01:13Z</time>
</trkpt>
<trkpt lat="34.8574781" lon="32.3802239">
<ele>63.45</ele>
<time>2015-04-24T16:01:15Z</time>
</trkpt>
<trkpt lat="34.8575236" lon="32.3801992">
<ele>63.81</ele>
<time>2015-04-24T16:01:17Z</time>
</trkpt>
<trkpt lat="34.8575697" lon="32.3801744">
<ele>63.90</ele>
<time>2015-04-24T16:01:19Z</time>
</trkpt>
<trkpt lat="34.8576262" lon="32.3801449">
<ele>64.67</ele>
<time>2015-04-24T16:01:21Z</time>
</trkpt>
<trkpt lat="34.8576810" lon="32.3801192">
<ele>65.36</ele>
<time>2015-04-24T16:01:23Z</time>
</trkpt>
<trkpt lat="34.8577354" lon="32.3800948">
<ele>65.53</ele>
<time>2015-04-24T16:01:25Z</time>
</trkpt>
<trkpt lat="34.8577896" lon="32.3800680">
<ele>65.83</ele>
<time>2015-04-24T16:01:27Z</time>
</trkpt>
<trkpt lat="34.8578541" lon="32.3800409">
<ele>65.90</ele>
<time>2015-04-24T16:01:29Z</time>
</trkpt>
<trkpt lat="34.8579222" lon="32.3800148">
<ele>65.92</ele>
<time>2015-04-24T16:01:31Z</time>
</trkpt>
<trkpt lat="34.8579937" lon="32.3799912">
<ele>65.92</ele>
<time>2015-04-24T16:01:33Z</time>
</trkpt>
<trkpt lat="34.8580631" lon="32.3799676">
<ele>65.92</ele>
<time>2015-04-24T16:01:35Z</time>
</trkpt>
<trkpt lat="34.8581347" lon="32.3799422">
<ele>66.67</ele>
<time>2015-04-24T16:01:37Z</time>
</trkpt>
<trkpt lat="34.8582041" lon="32.3799195">
<ele>66.86</ele>
<time>2015-04-24T16:01:39Z</time>
</trkpt>
<trkpt lat="34.8582741" lon="32.3798954">
<ele>66.16</ele>
<time>2015-04-24T16:01:41Z</time>
</trkpt>
<trkpt lat="34.8583406" lon="32.3798711">
<ele>66.48</ele>
<time>2015-04-24T16:01:43Z</time>
</trkpt>
<trkpt lat="34.8584098" lon="32.3798509">
<ele>66.81</ele>
<time>2015-04-24T16:01:45Z</time>
</trkpt>
<trkpt lat="34.8584568" lon="32.3798363">
<ele>66.90</ele>
<time>2015-04-24T16:01:47Z</time>
</trkpt>
<trkpt lat="34.8584991" lon="32.3798153">
<ele>66.71</ele>
<time>2015-04-24T16:01:55Z</time>
</trkpt>
<trkpt lat="34.8585592" lon="32.3798230">
<ele>64.46</ele>
<time>2015-04-24T16:02:13Z</time>
</trkpt>
<trkpt lat="34.8586068" lon="32.3798148">
<ele>64.06</ele>
<time>2015-04-24T16:02:15Z</time>
</trkpt>
<trkpt lat="34.8586577" lon="32.3798091">
<ele>63.96</ele>
<time>2015-04-24T16:02:17Z</time>
</trkpt>
<trkpt lat="34.8587040" lon="32.3798030">
<ele>63.93</ele>
<time>2015-04-24T16:02:19Z</time>
</trkpt>
<trkpt lat="34.8587511" lon="32.3797936">
<ele>63.93</ele>
<time>2015-04-24T16:02:21Z</time>
</trkpt>
<trkpt lat="34.8587969" lon="32.3797838">
<ele>64.68</ele>
<time>2015-04-24T16:02:23Z</time>
</trkpt>
<trkpt lat="34.8588538" lon="32.3797564">
<ele>64.89</ele>
<time>2015-04-24T16:02:26Z</time>
</trkpt>
<trkpt lat="34.8589049" lon="32.3797276">
<ele>64.92</ele>
<time>2015-04-24T16:02:29Z</time>
</trkpt>
<trkpt lat="34.8589710" lon="32.3797288">
<ele>65.42</ele>
<time>2015-04-24T16:02:32Z</time>
</trkpt>
<trkpt lat="34.8590189" lon="32.3797304">
<ele>65.80</ele>
<time>2015-04-24T16:02:34Z</time>
</trkpt>
<trkpt lat="34.8590840" lon="32.3797272">
<ele>65.89</ele>
<time>2015-04-24T16:02:36Z</time>
</trkpt>
<trkpt lat="34.8591488" lon="32.3797199">
<ele>65.92</ele>
<time>2015-04-24T16:02:38Z</time>
</trkpt>
<trkpt lat="34.8592138" lon="32.3797123">
<ele>65.67</ele>
<time>2015-04-24T16:02:40Z</time>
</trkpt>
<trkpt lat="34.8592801" lon="32.3797066">
<ele>65.61</ele>
<time>2015-04-24T16:02:42Z</time>
</trkpt>
<trkpt lat="34.8593472" lon="32.3797010">
<ele>65.10</ele>
<time>2015-04-24T16:02:44Z</time>
</trkpt>
<trkpt lat="34.8594114" lon="32.3796940">
<ele>65.72</ele>
<time>2015-04-24T16:02:46Z</time>
</trkpt>
<trkpt lat="34.8594736" lon="32.3796868">
<ele>66.37</ele>
<time>2015-04-24T16:02:48Z</time>
</trkpt>
<trkpt lat="34.8595358" lon="32.3796872">
<ele>66.79</ele>
<time>2015-04-24T16:02:50Z</time>
</trkpt>
<trkpt lat="34.8596008" lon="32.3796845">
<ele>67.39</ele>
<time>2015-04-24T16:02:52Z</time>
</trkpt>
<trkpt lat="34.8596678" lon="32.3796809">
<ele>68.29</ele>
<time>2015-04-24T16:02:54Z</time>
</trkpt>
<trkpt lat="34.8597295" lon="32.3796799">
<ele>68.27</ele>
<time>2015-04-24T16:02:56Z</time>
</trkpt>
<trkpt lat="34.8597912" lon="32.3796760">
<ele>68.01</ele>
<time>2015-04-24T16:02:58Z</time>
</trkpt>
<trkpt lat="34.8598554" lon="32.3796719">
<ele>67.95</ele>
<time>2015-04-24T16:03:00Z</time>
</trkpt>
<trkpt lat="34.8599233" lon="32.3796701">
<ele>68.68</ele>
<time>2015-04-24T16:03:02Z</time>
</trkpt>
<trkpt lat="34.8599908" lon="32.3796671">
<ele>68.36</ele>
<time>2015-04-24T16:03:04Z</time>
</trkpt>
<trkpt lat="34.8600582" lon="32.3796646">
<ele>68.53</ele>
<time>2015-04-24T16:03:06Z</time>
</trkpt>
<trkpt lat="34.8601233" lon="32.3796591">
<ele>68.33</ele>
<time>2015-04-24T16:03:08Z</time>
</trkpt>
<trkpt lat="34.8601811" lon="32.3796559">
<ele>68.03</ele>
<time>2015-04-24T16:03:10Z</time>
</trkpt>
<trkpt lat="34.8602420" lon="32.3796537">
<ele>68.70</ele>
<time>2015-04-24T16:03:12Z</time>
</trkpt>
<trkpt lat="34.8603128" lon="32.3796507">
<ele>68.87</ele>
<time>2015-04-24T16:03:14Z</time>
</trkpt>
<trkpt lat="34.8603863" lon="32.3796486">
<ele>68.91</ele>
<time>2015-04-24T16:03:16Z</time>
</trkpt>
<trkpt lat="34.8604578" lon="32.3796477">
<ele>68.92</ele>
<time>2015-04-24T16:03:18Z</time>
</trkpt>
<trkpt lat="34.8605254" lon="32.3796482">
<ele>69.42</ele>
<time>2015-04-24T16:03:20Z</time>
</trkpt>
<trkpt lat="34.8605880" lon="32.3796509">
<ele>70.30</ele>
<time>2015-04-24T16:03:22Z</time>
</trkpt>
<trkpt lat="34.8606573" lon="32.3796563">
<ele>70.77</ele>
<time>2015-04-24T16:03:24Z</time>
</trkpt>
<trkpt lat="34.8607261" lon="32.3796641">
<ele>70.39</ele>
<time>2015-04-24T16:03:26Z</time>
</trkpt>
<trkpt lat="34.8607951" lon="32.3796679">
<ele>71.29</ele>
<time>2015-04-24T16:03:28Z</time>
</trkpt>
<trkpt lat="34.8608615" lon="32.3796725">
<ele>72.27</ele>
<time>2015-04-24T16:03:30Z</time>
</trkpt>
<trkpt lat="34.8609270" lon="32.3796793">
<ele>72.76</ele>
<time>2015-04-24T16:03:32Z</time>
</trkpt>
<trkpt lat="34.8609944" lon="32.3796871">
<ele>72.88</ele>
<time>2015-04-24T16:03:34Z</time>
</trkpt>
<trkpt lat="34.8610627" lon="32.3796964">
<ele>73.41</ele>
<time>2015-04-24T16:03:36Z</time>
</trkpt>
<trkpt lat="34.8611314" lon="32.3797052">
<ele>73.30</ele>
<time>2015-04-24T16:03:38Z</time>
</trkpt>
<trkpt lat="34.8612044" lon="32.3797102">
<ele>73.02</ele>
<time>2015-04-24T16:03:40Z</time>
</trkpt>
<trkpt lat="34.8612775" lon="32.3797229">
<ele>72.95</ele>
<time>2015-04-24T16:03:42Z</time>
</trkpt>
<trkpt lat="34.8613504" lon="32.3797348">
<ele>72.18</ele>
<time>2015-04-24T16:03:44Z</time>
</trkpt>
<trkpt lat="34.8614229" lon="32.3797483">
<ele>72.49</ele>
<time>2015-04-24T16:03:46Z</time>
</trkpt>
<trkpt lat="34.8614939" lon="32.3797641">
<ele>72.07</ele>
<time>2015-04-24T16:03:48Z</time>
</trkpt>
<trkpt lat="34.8615597" lon="32.3797783">
<ele>71.96</ele>
<time>2015-04-24T16:03:50Z</time>
</trkpt>
<trkpt lat="34.8616218" lon="32.3797919">
<ele>71.93</ele>
<time>2015-04-24T16:03:53Z</time>
</trkpt>
<trkpt lat="34.8616694" lon="32.3797937">
<ele>71.93</ele>
<time>2015-04-24T16:03:55Z</time>
</trkpt>
<trkpt lat="34.8617225" lon="32.3798012">
<ele>71.93</ele>
<time>2015-04-24T16:03:57Z</time>
</trkpt>
<trkpt lat="34.8617838" lon="32.3798128">
<ele>72.43</ele>
<time>2015-04-24T16:03:59Z</time>
</trkpt>
<trkpt lat="34.8618557" lon="32.3798205">
<ele>73.30</ele>
<time>2015-04-24T16:04:01Z</time>
</trkpt>
<trkpt lat="34.8619280" lon="32.3798258">
<ele>73.52</ele>
<time>2015-04-24T16:04:03Z</time>
</trkpt>
<trkpt lat="34.8620022" lon="32.3798364">
<ele>73.82</ele>
<time>2015-04-24T16:04:05Z</time>
</trkpt>
<trkpt lat="34.8620753" lon="32.3798467">
<ele>73.90</ele>
<time>2015-04-24T16:04:07Z</time>
</trkpt>
<trkpt lat="34.8621496" lon="32.3798580">
<ele>73.92</ele>
<time>2015-04-24T16:04:09Z</time>
</trkpt>
<trkpt lat="34.8622215" lon="32.3798668">
<ele>73.92</ele>
<time>2015-04-24T16:04:11Z</time>
</trkpt>
<trkpt lat="34.8622947" lon="32.3798741">
<ele>73.92</ele>
<time>2015-04-24T16:04:13Z</time>
</trkpt>
<trkpt lat="34.8623652" lon="32.3798791">
<ele>73.92</ele>
<time>2015-04-24T16:04:15Z</time>
</trkpt>
<trkpt lat="34.8624400" lon="32.3798787">
<ele>74.42</ele>
<time>2015-04-24T16:04:17Z</time>
</trkpt>
<trkpt lat="34.8625140" lon="32.3798741">
<ele>74.80</ele>
<time>2015-04-24T16:04:19Z</time>
</trkpt>
<trkpt lat="34.8625901" lon="32.3798651">
<ele>74.14</ele>
<time>2015-04-24T16:04:21Z</time>
</trkpt>
<trkpt lat="34.8626640" lon="32.3798433">
<ele>73.98</ele>
<time>2015-04-24T16:04:23Z</time>
</trkpt>
<trkpt lat="34.8627496" lon="32.3798199">
<ele>73.94</ele>
<time>2015-04-24T16:04:25Z</time>
</trkpt>
<trkpt lat="34.8628310" lon="32.3798047">
<ele>75.18</ele>
<time>2015-04-24T16:04:27Z</time>
</trkpt>
<trkpt lat="34.8629134" lon="32.3797912">
<ele>74.99</ele>
<time>2015-04-24T16:04:29Z</time>
</trkpt>
<trkpt lat="34.8629909" lon="32.3797804">
<ele>74.94</ele>
<time>2015-04-24T16:04:31Z</time>
</trkpt>
<trkpt lat="34.8630677" lon="32.3797689">
<ele>74.93</ele>
<time>2015-04-24T16:04:33Z</time>
</trkpt>
<trkpt lat="34.8631297" lon="32.3797515">
<ele>75.43</ele>
<time>2015-04-24T16:04:35Z</time>
</trkpt>
<trkpt lat="34.8631898" lon="32.3797405">
<ele>75.80</ele>
<time>2015-04-24T16:04:37Z</time>
</trkpt>
<trkpt lat="34.8632466" lon="32.3797307">
<ele>75.89</ele>
<time>2015-04-24T16:04:39Z</time>
</trkpt>
<trkpt lat="34.8633071" lon="32.3797180">
<ele>75.92</ele>
<time>2015-04-24T16:04:41Z</time>
</trkpt>
<trkpt lat="34.8633662" lon="32.3797023">
<ele>75.92</ele>
<time>2015-04-24T16:04:43Z</time>
</trkpt>
<trkpt lat="34.8634292" lon="32.3796850">
<ele>75.92</ele>
<time>2015-04-24T16:04:45Z</time>
</trkpt>
<trkpt lat="34.8634893" lon="32.3796663">
<ele>75.92</ele>
<time>2015-04-24T16:04:47Z</time>
</trkpt>
<trkpt lat="34.8635509" lon="32.3796409">
<ele>76.67</ele>
<time>2015-04-24T16:04:49Z</time>
</trkpt>
<trkpt lat="34.8636095" lon="32.3796106">
<ele>76.86</ele>
<time>2015-04-24T16:04:51Z</time>
</trkpt>
<trkpt lat="34.8636695" lon="32.3795750">
<ele>76.91</ele>
<time>2015-04-24T16:04:53Z</time>
</trkpt>
<trkpt lat="34.8637247" lon="32.3795339">
<ele>77.67</ele>
<time>2015-04-24T16:04:55Z</time>
</trkpt>
<trkpt lat="34.8637816" lon="32.3794971">
<ele>77.86</ele>
<time>2015-04-24T16:04:57Z</time>
</trkpt>
<trkpt lat="34.8638371" lon="32.3794623">
<ele>77.91</ele>
<time>2015-04-24T16:04:59Z</time>
</trkpt>
<trkpt lat="34.8638957" lon="32.3794264">
<ele>77.92</ele>
<time>2015-04-24T16:05:01Z</time>
</trkpt>
<trkpt lat="34.8639530" lon="32.3793858">
<ele>77.92</ele>
<time>2015-04-24T16:05:03Z</time>
</trkpt>
<trkpt lat="34.8640161" lon="32.3793364">
<ele>77.92</ele>
<time>2015-04-24T16:05:05Z</time>
</trkpt>
<trkpt lat="34.8640756" lon="32.3792910">
<ele>78.67</ele>
<time>2015-04-24T16:05:07Z</time>
</trkpt>
<trkpt lat="34.8641339" lon="32.3792464">
<ele>79.36</ele>
<time>2015-04-24T16:05:09Z</time>
</trkpt>
<trkpt lat="34.8641885" lon="32.3792078">
<ele>79.78</ele>
<time>2015-04-24T16:05:11Z</time>
</trkpt>
<trkpt lat="34.8642439" lon="32.3791668">
<ele>79.89</ele>
<time>2015-04-24T16:05:13Z</time>
</trkpt>
<trkpt lat="34.8642985" lon="32.3791238">
<ele>79.92</ele>
<time>2015-04-24T16:05:15Z</time>
</trkpt>
<trkpt lat="34.8643561" lon="32.3790791">
<ele>80.42</ele>
<time>2015-04-24T16:05:17Z</time>
</trkpt>
<trkpt lat="34.8644124" lon="32.3790368">
<ele>80.80</ele>
<time>2015-04-24T16:05:19Z</time>
</trkpt>
<trkpt lat="34.8644706" lon="32.3789917">
<ele>81.64</ele>
<time>2015-04-24T16:05:21Z</time>
</trkpt>
<trkpt lat="34.8645265" lon="32.3789528">
<ele>81.85</ele>
<time>2015-04-24T16:05:23Z</time>
</trkpt>
<trkpt lat="34.8645828" lon="32.3789133">
<ele>81.91</ele>
<time>2015-04-24T16:05:25Z</time>
</trkpt>
<trkpt lat="34.8646358" lon="32.3788739">
<ele>81.92</ele>
<time>2015-04-24T16:05:27Z</time>
</trkpt>
<trkpt lat="34.8646923" lon="32.3788340">
<ele>82.42</ele>
<time>2015-04-24T16:05:29Z</time>
</trkpt>
<trkpt lat="34.8647460" lon="32.3787950">
<ele>82.80</ele>
<time>2015-04-24T16:05:31Z</time>
</trkpt>
<trkpt lat="34.8647994" lon="32.3787521">
<ele>83.39</ele>
<time>2015-04-24T16:05:33Z</time>
</trkpt>
<trkpt lat="34.8648516" lon="32.3787088">
<ele>84.54</ele>
<time>2015-04-24T16:05:35Z</time>
</trkpt>
<trkpt lat="34.8649066" lon="32.3786662">
<ele>85.33</ele>
<time>2015-04-24T16:05:37Z</time>
</trkpt>
<trkpt lat="34.8649619" lon="32.3786264">
<ele>86.28</ele>
<time>2015-04-24T16:05:39Z</time>
</trkpt>
<trkpt lat="34.8650171" lon="32.3785868">
<ele>86.01</ele>
<time>2015-04-24T16:05:41Z</time>
</trkpt>
<trkpt lat="34.8650686" lon="32.3785500">
<ele>86.45</ele>
<time>2015-04-24T16:05:43Z</time>
</trkpt>
<trkpt lat="34.8651180" lon="32.3785100">
<ele>86.81</ele>
<time>2015-04-24T16:05:45Z</time>
</trkpt>
<trkpt lat="34.8651655" lon="32.3784746">
<ele>86.90</ele>
<time>2015-04-24T16:05:47Z</time>
</trkpt>
<trkpt lat="34.8652117" lon="32.3784387">
<ele>87.67</ele>
<time>2015-04-24T16:05:49Z</time>
</trkpt>
<trkpt lat="34.8652560" lon="32.3784046">
<ele>88.36</ele>
<time>2015-04-24T16:05:51Z</time>
</trkpt>
<trkpt lat="34.8653005" lon="32.3783698">
<ele>88.78</ele>
<time>2015-04-24T16:05:53Z</time>
</trkpt>
<trkpt lat="34.8653397" lon="32.3783391">
<ele>89.39</ele>
<time>2015-04-24T16:05:55Z</time>
</trkpt>
<trkpt lat="34.8653856" lon="32.3783092">
<ele>89.04</ele>
<time>2015-04-24T16:05:57Z</time>
</trkpt>
<trkpt lat="34.8654315" lon="32.3782789">
<ele>89.45</ele>
<time>2015-04-24T16:05:59Z</time>
</trkpt>
<trkpt lat="34.8654807" lon="32.3782505">
<ele>89.81</ele>
<time>2015-04-24T16:06:01Z</time>
</trkpt>
<trkpt lat="34.8655301" lon="32.3782248">
<ele>89.40</ele>
<time>2015-04-24T16:06:03Z</time>
</trkpt>
<trkpt lat="34.8655816" lon="32.3781988">
<ele>89.79</ele>
<time>2015-04-24T16:06:05Z</time>
</trkpt>
<trkpt lat="34.8656313" lon="32.3781770">
<ele>89.89</ele>
<time>2015-04-24T16:06:07Z</time>
</trkpt>
<trkpt lat="34.8656796" lon="32.3781543">
<ele>89.92</ele>
<time>2015-04-24T16:06:09Z</time>
</trkpt>
<trkpt lat="34.8657266" lon="32.3781308">
<ele>89.42</ele>
<time>2015-04-24T16:06:11Z</time>
</trkpt>
<trkpt lat="34.8657770" lon="32.3781068">
<ele>89.80</ele>
<time>2015-04-24T16:06:13Z</time>
</trkpt>
<trkpt lat="34.8658263" lon="32.3780856">
<ele>89.89</ele>
<time>2015-04-24T16:06:15Z</time>
</trkpt>
<trkpt lat="34.8658755" lon="32.3780658">
<ele>90.17</ele>
<time>2015-04-24T16:06:17Z</time>
</trkpt>
<trkpt lat="34.8659235" lon="32.3780466">
<ele>89.99</ele>
<time>2015-04-24T16:06:19Z</time>
</trkpt>
<trkpt lat="34.8659738" lon="32.3780252">
<ele>89.94</ele>
<time>2015-04-24T16:06:21Z</time>
</trkpt>
<trkpt lat="34.8660228" lon="32.3780027">
<ele>90.43</ele>
<time>2015-04-24T16:06:23Z</time>
</trkpt>
<trkpt lat="34.8660744" lon="32.3779815">
<ele>90.80</ele>
<time>2015-04-24T16:06:25Z</time>
</trkpt>
<trkpt lat="34.8661256" lon="32.3779628">
<ele>90.89</ele>
<time>2015-04-24T16:06:27Z</time>
</trkpt>
<trkpt lat="34.8661762" lon="32.3779452">
<ele>90.92</ele>
<time>2015-04-24T16:06:29Z</time>
</trkpt>
<trkpt lat="34.8662245" lon="32.3779289">
<ele>90.92</ele>
<time>2015-04-24T16:06:31Z</time>
</trkpt>
<trkpt lat="34.8662730" lon="32.3779140">
<ele>91.67</ele>
<time>2015-04-24T16:06:33Z</time>
</trkpt>
<trkpt lat="34.8663191" lon="32.3778953">
<ele>91.86</ele>
<time>2015-04-24T16:06:35Z</time>
</trkpt>
<trkpt lat="34.8663646" lon="32.3778769">
<ele>92.16</ele>
<time>2015-04-24T16:06:37Z</time>
</trkpt>
<trkpt lat="34.8664084" lon="32.3778590">
<ele>91.98</ele>
<time>2015-04-24T16:06:39Z</time>
</trkpt>
<trkpt lat="34.8664566" lon="32.3778419">
<ele>91.44</ele>
<time>2015-04-24T16:06:41Z</time>
</trkpt>
<trkpt lat="34.8665052" lon="32.3778280">
<ele>91.05</ele>
<time>2015-04-24T16:06:43Z</time>
</trkpt>
<trkpt lat="34.8665558" lon="32.3778156">
<ele>91.71</ele>
<time>2015-04-24T16:06:45Z</time>
</trkpt>
<trkpt lat="34.8666039" lon="32.3778019">
<ele>91.87</ele>
<time>2015-04-24T16:06:47Z</time>
</trkpt>
<trkpt lat="34.8666506" lon="32.3777858">
<ele>91.91</ele>
<time>2015-04-24T16:06:49Z</time>
</trkpt>
<trkpt lat="34.8667051" lon="32.3777635">
<ele>91.92</ele>
<time>2015-04-24T16:06:52Z</time>
</trkpt>
<trkpt lat="34.8667530" lon="32.3777460">
<ele>91.92</ele>
<time>2015-04-24T16:06:55Z</time>
</trkpt>
<trkpt lat="34.8668039" lon="32.3777341">
<ele>92.42</ele>
<time>2015-04-24T16:06:58Z</time>
</trkpt>
<trkpt lat="34.8668502" lon="32.3777246">
<ele>92.80</ele>
<time>2015-04-24T16:07:00Z</time>
</trkpt>
<trkpt lat="34.8669056" lon="32.3777216">
<ele>92.14</ele>
<time>2015-04-24T16:07:02Z</time>
</trkpt>
<trkpt lat="34.8669700" lon="32.3777297">
<ele>91.23</ele>
<time>2015-04-24T16:07:04Z</time>
</trkpt>
<trkpt lat="34.8670559" lon="32.3777448">
<ele>91.00</ele>
<time>2015-04-24T16:07:06Z</time>
</trkpt>
<trkpt lat="34.8671472" lon="32.3777612">
<ele>90.44</ele>
<time>2015-04-24T16:07:08Z</time>
</trkpt>
<trkpt lat="34.8672131" lon="32.3777723">
<ele>90.18</ele>
<time>2015-04-24T16:07:09Z</time>
</trkpt>
<trkpt lat="34.8672688" lon="32.3777840">
<ele>90.05</ele>
<time>2015-04-24T16:07:10Z</time>
</trkpt>
<trkpt lat="34.8673235" lon="32.3777912">
<ele>89.49</ele>
<time>2015-04-24T16:07:11Z</time>
</trkpt>
<trkpt lat="34.8673857" lon="32.3778016">
<ele>89.21</ele>
<time>2015-04-24T16:07:12Z</time>
</trkpt>
<trkpt lat="34.8674423" lon="32.3778117">
<ele>89.07</ele>
<time>2015-04-24T16:07:13Z</time>
</trkpt>
<trkpt lat="34.8674996" lon="32.3778223">
<ele>89.00</ele>
<time>2015-04-24T16:07:14Z</time>
</trkpt>
<trkpt lat="34.8675589" lon="32.3778305">
<ele>88.96</ele>
<time>2015-04-24T16:07:15Z</time>
</trkpt>
<trkpt lat="34.8676220" lon="32.3778466">
<ele>88.94</ele>
<time>2015-04-24T16:07:16Z</time>
</trkpt>
<trkpt lat="34.8676762" lon="32.3778528">
<ele>88.93</ele>
<time>2015-04-24T16:07:17Z</time>
</trkpt>
<trkpt lat="34.8677290" lon="32.3778626">
<ele>89.43</ele>
<time>2015-04-24T16:07:18Z</time>
</trkpt>
<trkpt lat="34.8677779" lon="32.3778693">
<ele>89.68</ele>
<time>2015-04-24T16:07:19Z</time>
</trkpt>
<trkpt lat="34.8678283" lon="32.3778774">
<ele>90.30</ele>
<time>2015-04-24T16:07:20Z</time>
</trkpt>
<trkpt lat="34.8678747" lon="32.3778843">
<ele>90.61</ele>
<time>2015-04-24T16:07:21Z</time>
</trkpt>
<trkpt lat="34.8679565" lon="32.3778951">
<ele>91.35</ele>
<time>2015-04-24T16:07:23Z</time>
</trkpt>
<trkpt lat="34.8680313" lon="32.3779043">
<ele>93.03</ele>
<time>2015-04-24T16:07:25Z</time>
</trkpt>
<trkpt lat="34.8680846" lon="32.3779151">
<ele>94.20</ele>
<time>2015-04-24T16:07:27Z</time>
</trkpt>
<trkpt lat="34.8681468" lon="32.3779227">
<ele>95.71</ele>
<time>2015-04-24T16:07:30Z</time>
</trkpt>
<trkpt lat="34.8682091" lon="32.3779385">
<ele>95.15</ele>
<time>2015-04-24T16:07:33Z</time>
</trkpt>
<trkpt lat="34.8682724" lon="32.3779529">
<ele>95.45</ele>
<time>2015-04-24T16:07:36Z</time>
</trkpt>
<trkpt lat="34.8683244" lon="32.3779668">
<ele>95.74</ele>
<time>2015-04-24T16:07:39Z</time>
</trkpt>
<trkpt lat="34.8683738" lon="32.3779765">
<ele>96.65</ele>
<time>2015-04-24T16:07:42Z</time>
</trkpt>
<trkpt lat="34.8684246" lon="32.3779875">
<ele>98.27</ele>
<time>2015-04-24T16:07:45Z</time>
</trkpt>
<trkpt lat="34.8684777" lon="32.3779961">
<ele>99.59</ele>
<time>2015-04-24T16:07:48Z</time>
</trkpt>
<trkpt lat="34.8685302" lon="32.3780028">
<ele>99.88</ele>
<time>2015-04-24T16:07:51Z</time>
</trkpt>
<trkpt lat="34.8685822" lon="32.3780072">
<ele>100.86</ele>
<time>2015-04-24T16:07:55Z</time>
</trkpt>
<trkpt lat="34.8686337" lon="32.3780110">
<ele>98.95</ele>
<time>2015-04-24T16:08:00Z</time>
</trkpt>
<trkpt lat="34.8686802" lon="32.3780186">
<ele>96.87</ele>
<time>2015-04-24T16:08:29Z</time>
</trkpt>
<trkpt lat="34.8687248" lon="32.3780300">
<ele>98.74</ele>
<time>2015-04-24T16:08:38Z</time>
</trkpt>
<trkpt lat="34.8687830" lon="32.3780310">
<ele>99.65</ele>
<time>2015-04-24T16:08:41Z</time>
</trkpt>
<trkpt lat="34.8688452" lon="32.3780292">
<ele>100.64</ele>
<time>2015-04-24T16:08:44Z</time>
</trkpt>
<trkpt lat="34.8689076" lon="32.3780292">
<ele>100.89</ele>
<time>2015-04-24T16:08:47Z</time>
</trkpt>
<trkpt lat="34.8689732" lon="32.3780302">
<ele>100.17</ele>
<time>2015-04-24T16:08:50Z</time>
</trkpt>
<trkpt lat="34.8690363" lon="32.3780275">
<ele>101.33</ele>
<time>2015-04-24T16:08:53Z</time>
</trkpt>
<trkpt lat="34.8690977" lon="32.3780264">
<ele>101.73</ele>
<time>2015-04-24T16:08:56Z</time>
</trkpt>
<trkpt lat="34.8691552" lon="32.3780294">
<ele>103.53</ele>
<time>2015-04-24T16:08:59Z</time>
</trkpt>
<trkpt lat="34.8692136" lon="32.3780351">
<ele>103.88</ele>
<time>2015-04-24T16:09:02Z</time>
</trkpt>
<trkpt lat="34.8692711" lon="32.3780490">
<ele>103.92</ele>
<time>2015-04-24T16:09:05Z</time>
</trkpt>
<trkpt lat="34.8693266" lon="32.3780550">
<ele>103.92</ele>
<time>2015-04-24T16:09:08Z</time>
</trkpt>
<trkpt lat="34.8693812" lon="32.3780504">
<ele>104.67</ele>
<time>2015-04-24T16:09:11Z</time>
</trkpt>
<trkpt lat="34.8694376" lon="32.3780506">
<ele>104.89</ele>
<time>2015-04-24T16:09:14Z</time>
</trkpt>
<trkpt lat="34.8694912" lon="32.3780600">
<ele>105.67</ele>
<time>2015-04-24T16:09:17Z</time>
</trkpt>
<trkpt lat="34.8695338" lon="32.3780805">
<ele>105.89</ele>
<time>2015-04-24T16:09:20Z</time>
</trkpt>
<trkpt lat="34.8695757" lon="32.3781012">
<ele>105.92</ele>
<time>2015-04-24T16:09:23Z</time>
</trkpt>
<trkpt lat="34.8696261" lon="32.3781246">
<ele>106.80</ele>
<time>2015-04-24T16:09:26Z</time>
</trkpt>
<trkpt lat="34.8696680" lon="32.3781454">
<ele>106.62</ele>
<time>2015-04-24T16:09:47Z</time>
</trkpt>
<trkpt lat="34.8697250" lon="32.3781716">
<ele>106.91</ele>
<time>2015-04-24T16:09:51Z</time>
</trkpt>
<trkpt lat="34.8697878" lon="32.3782034">
<ele>107.67</ele>
<time>2015-04-24T16:09:54Z</time>
</trkpt>
<trkpt lat="34.8698297" lon="32.3782246">
<ele>107.86</ele>
<time>2015-04-24T16:09:56Z</time>
</trkpt>
<trkpt lat="34.8698696" lon="32.3782499">
<ele>108.41</ele>
<time>2015-04-24T16:09:58Z</time>
</trkpt>
<trkpt lat="34.8699250" lon="32.3782846">
<ele>108.86</ele>
<time>2015-04-24T16:10:01Z</time>
</trkpt>
<trkpt lat="34.8699812" lon="32.3783173">
<ele>109.42</ele>
<time>2015-04-24T16:10:04Z</time>
</trkpt>
<trkpt lat="34.8700384" lon="32.3783462">
<ele>111.24</ele>
<time>2015-04-24T16:10:07Z</time>
</trkpt>
<trkpt lat="34.8700952" lon="32.3783677">
<ele>111.84</ele>
<time>2015-04-24T16:10:10Z</time>
</trkpt>
<trkpt lat="34.8701521" lon="32.3783829">
<ele>112.66</ele>
<time>2015-04-24T16:10:13Z</time>
</trkpt>
<trkpt lat="34.8702128" lon="32.3784024">
<ele>113.39</ele>
<time>2015-04-24T16:10:16Z</time>
</trkpt>
<trkpt lat="34.8702790" lon="32.3784134">
<ele>113.86</ele>
<time>2015-04-24T16:10:19Z</time>
</trkpt>
<trkpt lat="34.8703246" lon="32.3784178">
<ele>114.66</ele>
<time>2015-04-24T16:10:21Z</time>
</trkpt>
<trkpt lat="34.8703900" lon="32.3784264">
<ele>113.77</ele>
<time>2015-04-24T16:10:24Z</time>
</trkpt>
<trkpt lat="34.8704446" lon="32.3784306">
<ele>114.78</ele>
<time>2015-04-24T16:10:27Z</time>
</trkpt>
<trkpt lat="34.8704935" lon="32.3784155">
<ele>116.28</ele>
<time>2015-04-24T16:10:30Z</time>
</trkpt>
<trkpt lat="34.8705489" lon="32.3783849">
<ele>116.84</ele>
<time>2015-04-24T16:10:33Z</time>
</trkpt>
<trkpt lat="34.8706075" lon="32.3783583">
<ele>117.04</ele>
<time>2015-04-24T16:10:36Z</time>
</trkpt>
<trkpt lat="34.8706622" lon="32.3783417">
<ele>117.81</ele>
<time>2015-04-24T16:10:39Z</time>
</trkpt>
<trkpt lat="34.8707188" lon="32.3783282">
<ele>117.79</ele>
<time>2015-04-24T16:10:42Z</time>
</trkpt>
<trkpt lat="34.8707809" lon="32.3783140">
<ele>117.91</ele>
<time>2015-04-24T16:10:45Z</time>
</trkpt>
<trkpt lat="34.8708310" lon="32.3782978">
<ele>118.42</ele>
<time>2015-04-24T16:10:47Z</time>
</trkpt>
<trkpt lat="34.8708761" lon="32.3782781">
<ele>118.80</ele>
<time>2015-04-24T16:10:49Z</time>
</trkpt>
<trkpt lat="34.8709181" lon="32.3782579">
<ele>118.89</ele>
<time>2015-04-24T16:10:51Z</time>
</trkpt>
<trkpt lat="34.8709675" lon="32.3782398">
<ele>118.92</ele>
<time>2015-04-24T16:10:53Z</time>
</trkpt>
<trkpt lat="34.8710144" lon="32.3782200">
<ele>118.92</ele>
<time>2015-04-24T16:10:55Z</time>
</trkpt>
<trkpt lat="34.8710646" lon="32.3782029">
<ele>118.92</ele>
<time>2015-04-24T16:10:57Z</time>
</trkpt>
<trkpt lat="34.8711147" lon="32.3781852">
<ele>118.92</ele>
<time>2015-04-24T16:10:59Z</time>
</trkpt>
<trkpt lat="34.8711665" lon="32.3781672">
<ele>119.67</ele>
<time>2015-04-24T16:11:01Z</time>
</trkpt>
<trkpt lat="34.8712172" lon="32.3781496">
<ele>119.86</ele>
<time>2015-04-24T16:11:03Z</time>
</trkpt>
<trkpt lat="34.8712696" lon="32.3781334">
<ele>120.41</ele>
<time>2015-04-24T16:11:05Z</time>
</trkpt>
<trkpt lat="34.8713182" lon="32.3781095">
<ele>122.05</ele>
<time>2015-04-24T16:11:07Z</time>
</trkpt>
<trkpt lat="34.8713688" lon="32.3780861">
<ele>122.71</ele>
<time>2015-04-24T16:11:09Z</time>
</trkpt>
<trkpt lat="34.8714186" lon="32.3780680">
<ele>123.62</ele>
<time>2015-04-24T16:11:11Z</time>
</trkpt>
<trkpt lat="34.8714726" lon="32.3780509">
<ele>123.85</ele>
<time>2015-04-24T16:11:13Z</time>
</trkpt>
<trkpt lat="34.8715288" lon="32.3780360">
<ele>124.66</ele>
<time>2015-04-24T16:11:15Z</time>
</trkpt>
<trkpt lat="34.8715848" lon="32.3780264">
<ele>124.11</ele>
<time>2015-04-24T16:11:17Z</time>
</trkpt>
<trkpt lat="34.8716349" lon="32.3780156">
<ele>123.97</ele>
<time>2015-04-24T16:11:19Z</time>
</trkpt>
<trkpt lat="34.8716869" lon="32.3780030">
<ele>124.68</ele>
<time>2015-04-24T16:11:22Z</time>
</trkpt>
<trkpt lat="34.8717317" lon="32.3779926">
<ele>125.64</ele>
<time>2015-04-24T16:11:25Z</time>
</trkpt>
<trkpt lat="34.8717810" lon="32.3779807">
<ele>126.60</ele>
<time>2015-04-24T16:11:27Z</time>
</trkpt>
<trkpt lat="34.8718443" lon="32.3779594">
<ele>127.59</ele>
<time>2015-04-24T16:11:29Z</time>
</trkpt>
<trkpt lat="34.8719169" lon="32.3779431">
<ele>127.84</ele>
<time>2015-04-24T16:11:31Z</time>
</trkpt>
<trkpt lat="34.8719961" lon="32.3779343">
<ele>127.15</ele>
<time>2015-04-24T16:11:33Z</time>
</trkpt>
<trkpt lat="34.8720686" lon="32.3779265">
<ele>126.98</ele>
<time>2015-04-24T16:11:35Z</time>
</trkpt>
<trkpt lat="34.8721420" lon="32.3779244">
<ele>126.94</ele>
<time>2015-04-24T16:11:37Z</time>
</trkpt>
<trkpt lat="34.8722129" lon="32.3779254">
<ele>127.68</ele>
<time>2015-04-24T16:11:39Z</time>
</trkpt>
<trkpt lat="34.8722857" lon="32.3779271">
<ele>127.86</ele>
<time>2015-04-24T16:11:41Z</time>
</trkpt>
<trkpt lat="34.8723556" lon="32.3779337">
<ele>127.41</ele>
<time>2015-04-24T16:11:43Z</time>
</trkpt>
<trkpt lat="34.8724307" lon="32.3779428">
<ele>127.05</ele>
<time>2015-04-24T16:11:45Z</time>
</trkpt>
<trkpt lat="34.8725030" lon="32.3779513">
<ele>126.96</ele>
<time>2015-04-24T16:11:47Z</time>
</trkpt>
<trkpt lat="34.8725740" lon="32.3779610">
<ele>126.18</ele>
<time>2015-04-24T16:11:49Z</time>
</trkpt>
<trkpt lat="34.8726315" lon="32.3779694">
<ele>125.99</ele>
<time>2015-04-24T16:11:51Z</time>
</trkpt>
<trkpt lat="34.8726922" lon="32.3779794">
<ele>125.94</ele>
<time>2015-04-24T16:11:53Z</time>
</trkpt>
<trkpt lat="34.8727530" lon="32.3779961">
<ele>125.18</ele>
<time>2015-04-24T16:11:55Z</time>
</trkpt>
<trkpt lat="34.8728162" lon="32.3780195">
<ele>124.99</ele>
<time>2015-04-24T16:11:57Z</time>
</trkpt>
<trkpt lat="34.8728783" lon="32.3780421">
<ele>124.94</ele>
<time>2015-04-24T16:11:59Z</time>
</trkpt>
<trkpt lat="34.8729436" lon="32.3780588">
<ele>124.43</ele>
<time>2015-04-24T16:12:01Z</time>
</trkpt>
<trkpt lat="34.8730051" lon="32.3780752">
<ele>124.55</ele>
<time>2015-04-24T16:12:03Z</time>
</trkpt>
<trkpt lat="34.8730672" lon="32.3780934">
<ele>124.33</ele>
<time>2015-04-24T16:12:05Z</time>
</trkpt>
<trkpt lat="34.8731283" lon="32.3781119">
<ele>124.03</ele>
<time>2015-04-24T16:12:07Z</time>
</trkpt>
<trkpt lat="34.8731925" lon="32.3781281">
<ele>123.95</ele>
<time>2015-04-24T16:12:09Z</time>
</trkpt>
<trkpt lat="34.8732499" lon="32.3781457">
<ele>124.43</ele>
<time>2015-04-24T16:12:11Z</time>
</trkpt>
<trkpt lat="34.8733073" lon="32.3781662">
<ele>124.80</ele>
<time>2015-04-24T16:12:13Z</time>
</trkpt>
<trkpt lat="34.8733643" lon="32.3781825">
<ele>125.39</ele>
<time>2015-04-24T16:12:15Z</time>
</trkpt>
<trkpt lat="34.8734148" lon="32.3782091">
<ele>126.54</ele>
<time>2015-04-24T16:12:17Z</time>
</trkpt>
<trkpt lat="34.8734619" lon="32.3782294">
<ele>126.83</ele>
<time>2015-04-24T16:12:19Z</time>
</trkpt>
<trkpt lat="34.8735166" lon="32.3782470">
<ele>126.40</ele>
<time>2015-04-24T16:12:21Z</time>
</trkpt>
<trkpt lat="34.8735808" lon="32.3782658">
<ele>126.29</ele>
<time>2015-04-24T16:12:23Z</time>
</trkpt>
<trkpt lat="34.8736476" lon="32.3782898">
<ele>126.02</ele>
<time>2015-04-24T16:12:25Z</time>
</trkpt>
<trkpt lat="34.8737062" lon="32.3783127">
<ele>126.70</ele>
<time>2015-04-24T16:12:27Z</time>
</trkpt>
<trkpt lat="34.8737616" lon="32.3783460">
<ele>127.62</ele>
<time>2015-04-24T16:12:29Z</time>
</trkpt>
<trkpt lat="34.8738176" lon="32.3783720">
<ele>128.60</ele>
<time>2015-04-24T16:12:31Z</time>
</trkpt>
<trkpt lat="34.8738778" lon="32.3783912">
<ele>129.09</ele>
<time>2015-04-24T16:12:33Z</time>
</trkpt>
<trkpt lat="34.8739295" lon="32.3784260">
<ele>128.97</ele>
<time>2015-04-24T16:12:35Z</time>
</trkpt>
<trkpt lat="34.8739803" lon="32.3784643">
<ele>128.94</ele>
<time>2015-04-24T16:12:37Z</time>
</trkpt>
<trkpt lat="34.8740327" lon="32.3784918">
<ele>128.93</ele>
<time>2015-04-24T16:12:39Z</time>
</trkpt>
<trkpt lat="34.8740908" lon="32.3785178">
<ele>129.68</ele>
<time>2015-04-24T16:12:41Z</time>
</trkpt>
<trkpt lat="34.8741470" lon="32.3785510">
<ele>129.86</ele>
<time>2015-04-24T16:12:43Z</time>
</trkpt>
<trkpt lat="34.8742027" lon="32.3785925">
<ele>129.91</ele>
<time>2015-04-24T16:12:45Z</time>
</trkpt>
<trkpt lat="34.8742585" lon="32.3786280">
<ele>129.92</ele>
<time>2015-04-24T16:12:47Z</time>
</trkpt>
<trkpt lat="34.8743142" lon="32.3786676">
<ele>130.42</ele>
<time>2015-04-24T16:12:49Z</time>
</trkpt>
<trkpt lat="34.8743636" lon="32.3787105">
<ele>130.55</ele>
<time>2015-04-24T16:12:51Z</time>
</trkpt>
<trkpt lat="34.8744123" lon="32.3787535">
<ele>130.08</ele>
<time>2015-04-24T16:12:53Z</time>
</trkpt>
<trkpt lat="34.8744595" lon="32.3787908">
<ele>129.96</ele>
<time>2015-04-24T16:12:55Z</time>
</trkpt>
<trkpt lat="34.8745065" lon="32.3788322">
<ele>129.93</ele>
<time>2015-04-24T16:12:57Z</time>
</trkpt>
<trkpt lat="34.8745529" lon="32.3788690">
<ele>129.93</ele>
<time>2015-04-24T16:12:59Z</time>
</trkpt>
<trkpt lat="34.8745995" lon="32.3789086">
<ele>129.93</ele>
<time>2015-04-24T16:13:01Z</time>
</trkpt>
<trkpt lat="34.8746440" lon="32.3789487">
<ele>129.93</ele>
<time>2015-04-24T16:13:03Z</time>
</trkpt>
<trkpt lat="34.8746873" lon="32.3789923">
<ele>129.93</ele>
<time>2015-04-24T16:13:05Z</time>
</trkpt>
<trkpt lat="34.8747332" lon="32.3790303">
<ele>129.93</ele>
<time>2015-04-24T16:13:07Z</time>
</trkpt>
<trkpt lat="34.8747806" lon="32.3790684">
<ele>129.43</ele>
<time>2015-04-24T16:13:09Z</time>
</trkpt>
<trkpt lat="34.8748278" lon="32.3791041">
<ele>129.05</ele>
<time>2015-04-24T16:13:11Z</time>
</trkpt>
<trkpt lat="34.8748769" lon="32.3791378">
<ele>129.46</ele>
<time>2015-04-24T16:13:13Z</time>
</trkpt>
<trkpt lat="34.8749243" lon="32.3791726">
<ele>129.81</ele>
<time>2015-04-24T16:13:15Z</time>
</trkpt>
<trkpt lat="34.8749740" lon="32.3792090">
<ele>131.15</ele>
<time>2015-04-24T16:13:17Z</time>
</trkpt>
<trkpt lat="34.8750202" lon="32.3792488">
<ele>131.73</ele>
<time>2015-04-24T16:13:19Z</time>
</trkpt>
<trkpt lat="34.8750674" lon="32.3792926">
<ele>131.38</ele>
<time>2015-04-24T16:13:21Z</time>
</trkpt>
<trkpt lat="34.8751113" lon="32.3793356">
<ele>130.54</ele>
<time>2015-04-24T16:13:23Z</time>
</trkpt>
<trkpt lat="34.8751513" lon="32.3793794">
<ele>130.58</ele>
<time>2015-04-24T16:13:25Z</time>
</trkpt>
<trkpt lat="34.8752088" lon="32.3794291">
<ele>130.88</ele>
<time>2015-04-24T16:13:28Z</time>
</trkpt>
<trkpt lat="34.8752602" lon="32.3794667">
<ele>130.91</ele>
<time>2015-04-24T16:13:30Z</time>
</trkpt>
<trkpt lat="34.8753128" lon="32.3795121">
<ele>131.67</ele>
<time>2015-04-24T16:13:32Z</time>
</trkpt>
<trkpt lat="34.8753638" lon="32.3795574">
<ele>132.11</ele>
<time>2015-04-24T16:13:34Z</time>
</trkpt>
<trkpt lat="34.8754166" lon="32.3795900">
<ele>132.47</ele>
<time>2015-04-24T16:13:36Z</time>
</trkpt>
<trkpt lat="34.8754690" lon="32.3796251">
<ele>132.81</ele>
<time>2015-04-24T16:13:38Z</time>
</trkpt>
<trkpt lat="34.8755226" lon="32.3796610">
<ele>132.90</ele>
<time>2015-04-24T16:13:40Z</time>
</trkpt>
<trkpt lat="34.8755787" lon="32.3796956">
<ele>133.67</ele>
<time>2015-04-24T16:13:42Z</time>
</trkpt>
<trkpt lat="34.8756320" lon="32.3797349">
<ele>133.86</ele>
<time>2015-04-24T16:13:44Z</time>
</trkpt>
<trkpt lat="34.8756819" lon="32.3797749">
<ele>133.91</ele>
<time>2015-04-24T16:13:46Z</time>
</trkpt>
<trkpt lat="34.8757286" lon="32.3798147">
<ele>133.92</ele>
<time>2015-04-24T16:13:48Z</time>
</trkpt>
<trkpt lat="34.8757760" lon="32.3798534">
<ele>133.92</ele>
<time>2015-04-24T16:13:50Z</time>
</trkpt>
<trkpt lat="34.8758237" lon="32.3798892">
<ele>133.92</ele>
<time>2015-04-24T16:13:52Z</time>
</trkpt>
<trkpt lat="34.8758698" lon="32.3799260">
<ele>134.42</ele>
<time>2015-04-24T16:13:54Z</time>
</trkpt>
<trkpt lat="34.8759158" lon="32.3799631">
<ele>134.80</ele>
<time>2015-04-24T16:13:56Z</time>
</trkpt>
<trkpt lat="34.8759626" lon="32.3799994">
<ele>135.14</ele>
<time>2015-04-24T16:13:58Z</time>
</trkpt>
<trkpt lat="34.8760061" lon="32.3800420">
<ele>135.73</ele>
<time>2015-04-24T16:14:00Z</time>
</trkpt>
<trkpt lat="34.8760532" lon="32.3800798">
<ele>136.38</ele>
<time>2015-04-24T16:14:02Z</time>
</trkpt>
<trkpt lat="34.8761049" lon="32.3801080">
<ele>136.79</ele>
<time>2015-04-24T16:14:04Z</time>
</trkpt>
<trkpt lat="34.8761554" lon="32.3801377">
<ele>136.64</ele>
<time>2015-04-24T16:14:06Z</time>
</trkpt>
<trkpt lat="34.8762055" lon="32.3801724">
<ele>136.85</ele>
<time>2015-04-24T16:14:08Z</time>
</trkpt>
<trkpt lat="34.8762590" lon="32.3802157">
<ele>137.41</ele>
<time>2015-04-24T16:14:10Z</time>
</trkpt>
<trkpt lat="34.8763131" lon="32.3802557">
<ele>137.80</ele>
<time>2015-04-24T16:14:12Z</time>
</trkpt>
<trkpt lat="34.8763681" lon="32.3802891">
<ele>137.89</ele>
<time>2015-04-24T16:14:14Z</time>
</trkpt>
<trkpt lat="34.8764214" lon="32.3803174">
<ele>137.92</ele>
<time>2015-04-24T16:14:16Z</time>
</trkpt>
<trkpt lat="34.8764633" lon="32.3803386">
<ele>137.92</ele>
<time>2015-04-24T16:14:18Z</time>
</trkpt>
<trkpt lat="34.8765299" lon="32.3803684">
<ele>138.42</ele>
<time>2015-04-24T16:14:21Z</time>
</trkpt>
<trkpt lat="34.8765936" lon="32.3803837">
<ele>138.80</ele>
<time>2015-04-24T16:14:23Z</time>
</trkpt>
<trkpt lat="34.8766569" lon="32.3803930">
<ele>138.39</ele>
<time>2015-04-24T16:14:25Z</time>
</trkpt>
<trkpt lat="34.8767147" lon="32.3803887">
<ele>137.54</ele>
<time>2015-04-24T16:14:27Z</time>
</trkpt>
<trkpt lat="34.8767712" lon="32.3803728">
<ele>135.83</ele>
<time>2015-04-24T16:14:29Z</time>
</trkpt>
<trkpt lat="34.8768244" lon="32.3803577">
<ele>136.65</ele>
<time>2015-04-24T16:14:31Z</time>
</trkpt>
<trkpt lat="34.8768745" lon="32.3803375">
<ele>138.36</ele>
<time>2015-04-24T16:14:33Z</time>
</trkpt>
<trkpt lat="34.8769309" lon="32.3803107">
<ele>139.23</ele>
<time>2015-04-24T16:14:36Z</time>
</trkpt>
<trkpt lat="34.8769953" lon="32.3802916">
<ele>138.96</ele>
<time>2015-04-24T16:14:39Z</time>
</trkpt>
<trkpt lat="34.8770403" lon="32.3802779">
<ele>138.68</ele>
<time>2015-04-24T16:14:41Z</time>
</trkpt>
<trkpt lat="34.8771028" lon="32.3802560">
<ele>139.39</ele>
<time>2015-04-24T16:14:44Z</time>
</trkpt>
<trkpt lat="34.8771475" lon="32.3802450">
<ele>139.79</ele>
<time>2015-04-24T16:14:46Z</time>
</trkpt>
<trkpt lat="34.8771930" lon="32.3802375">
<ele>138.64</ele>
<time>2015-04-24T16:14:48Z</time>
</trkpt>
<trkpt lat="34.8772540" lon="32.3802186">
<ele>138.01</ele>
<time>2015-04-24T16:14:51Z</time>
</trkpt>
<trkpt lat="34.8773165" lon="32.3802049">
<ele>137.94</ele>
<time>2015-04-24T16:14:54Z</time>
</trkpt>
<trkpt lat="34.8773791" lon="32.3801923">
<ele>139.55</ele>
<time>2015-04-24T16:14:57Z</time>
</trkpt>
<trkpt lat="34.8774397" lon="32.3801798">
<ele>141.50</ele>
<time>2015-04-24T16:15:00Z</time>
</trkpt>
<trkpt lat="34.8774894" lon="32.3801632">
<ele>143.62</ele>
<time>2015-04-24T16:15:03Z</time>
</trkpt>
<trkpt lat="34.8775401" lon="32.3801498">
<ele>146.39</ele>
<time>2015-04-24T16:15:06Z</time>
</trkpt>
<trkpt lat="34.8775948" lon="32.3801283">
<ele>146.86</ele>
<time>2015-04-24T16:15:09Z</time>
</trkpt>
<trkpt lat="34.8776456" lon="32.3801124">
<ele>148.17</ele>
<time>2015-04-24T16:15:12Z</time>
</trkpt>
<trkpt lat="34.8776941" lon="32.3800919">
<ele>147.96</ele>
<time>2015-04-24T16:15:15Z</time>
</trkpt>
<trkpt lat="34.8777520" lon="32.3800679">
<ele>148.43</ele>
<time>2015-04-24T16:15:18Z</time>
</trkpt>
<trkpt lat="34.8778197" lon="32.3800573">
<ele>150.11</ele>
<time>2015-04-24T16:15:21Z</time>
</trkpt>
<trkpt lat="34.8778751" lon="32.3800488">
<ele>150.22</ele>
<time>2015-04-24T16:15:23Z</time>
</trkpt>
<trkpt lat="34.8779276" lon="32.3800362">
<ele>149.75</ele>
<time>2015-04-24T16:15:25Z</time>
</trkpt>
<trkpt lat="34.8779751" lon="32.3800210">
<ele>151.63</ele>
<time>2015-04-24T16:15:27Z</time>
</trkpt>
<trkpt lat="34.8780185" lon="32.3800044">
<ele>153.10</ele>
<time>2015-04-24T16:15:29Z</time>
</trkpt>
<trkpt lat="34.8780838" lon="32.3799877">
<ele>154.32</ele>
<time>2015-04-24T16:15:32Z</time>
</trkpt>
<trkpt lat="34.8781279" lon="32.3799751">
<ele>154.77</ele>
<time>2015-04-24T16:15:34Z</time>
</trkpt>
<trkpt lat="34.8781725" lon="32.3799595">
<ele>154.64</ele>
<time>2015-04-24T16:15:36Z</time>
</trkpt>
<trkpt lat="34.8782195" lon="32.3799485">
<ele>155.35</ele>
<time>2015-04-24T16:15:38Z</time>
</trkpt>
<trkpt lat="34.8782808" lon="32.3799325">
<ele>156.23</ele>
<time>2015-04-24T16:15:41Z</time>
</trkpt>
<trkpt lat="34.8783396" lon="32.3799058">
<ele>155.84</ele>
<time>2015-04-24T16:15:44Z</time>
</trkpt>
<trkpt lat="34.8784057" lon="32.3798837">
<ele>155.41</ele>
<time>2015-04-24T16:15:47Z</time>
</trkpt>
<trkpt lat="34.8784526" lon="32.3798676">
<ele>153.80</ele>
<time>2015-04-24T16:15:49Z</time>
</trkpt>
<trkpt lat="34.8784979" lon="32.3798558">
<ele>153.39</ele>
<time>2015-04-24T16:15:51Z</time>
</trkpt>
<trkpt lat="34.8785630" lon="32.3798328">
<ele>153.36</ele>
<time>2015-04-24T16:15:54Z</time>
</trkpt>
<trkpt lat="34.8786064" lon="32.3798180">
<ele>152.28</ele>
<time>2015-04-24T16:15:56Z</time>
</trkpt>
<trkpt lat="34.8786661" lon="32.3797920">
<ele>152.34</ele>
<time>2015-04-24T16:15:59Z</time>
</trkpt>
<trkpt lat="34.8787269" lon="32.3797845">
<ele>151.85</ele>
<time>2015-04-24T16:16:02Z</time>
</trkpt>
<trkpt lat="34.8787880" lon="32.3797819">
<ele>151.67</ele>
<time>2015-04-24T16:16:05Z</time>
</trkpt>
<trkpt lat="34.8788486" lon="32.3797713">
<ele>150.89</ele>
<time>2015-04-24T16:16:08Z</time>
</trkpt>
<trkpt lat="34.8789106" lon="32.3797685">
<ele>153.30</ele>
<time>2015-04-24T16:16:11Z</time>
</trkpt>
<trkpt lat="34.8789753" lon="32.3797782">
<ele>151.72</ele>
<time>2015-04-24T16:16:14Z</time>
</trkpt>
<trkpt lat="34.8790424" lon="32.3797769">
<ele>152.15</ele>
<time>2015-04-24T16:16:17Z</time>
</trkpt>
<trkpt lat="34.8790902" lon="32.3797722">
<ele>151.73</ele>
<time>2015-04-24T16:16:19Z</time>
</trkpt>
<trkpt lat="34.8791358" lon="32.3797670">
<ele>152.88</ele>
<time>2015-04-24T16:16:21Z</time>
</trkpt>
<trkpt lat="34.8791815" lon="32.3797629">
<ele>154.91</ele>
<time>2015-04-24T16:16:23Z</time>
</trkpt>
<trkpt lat="34.8792305" lon="32.3797527">
<ele>155.42</ele>
<time>2015-04-24T16:16:25Z</time>
</trkpt>
<trkpt lat="34.8792800" lon="32.3797434">
<ele>155.55</ele>
<time>2015-04-24T16:16:27Z</time>
</trkpt>
<trkpt lat="34.8793328" lon="32.3797388">
<ele>156.33</ele>
<time>2015-04-24T16:16:29Z</time>
</trkpt>
<trkpt lat="34.8793826" lon="32.3797431">
<ele>157.28</ele>
<time>2015-04-24T16:16:31Z</time>
</trkpt>
<trkpt lat="34.8794280" lon="32.3797415">
<ele>159.01</ele>
<time>2015-04-24T16:16:33Z</time>
</trkpt>
<trkpt lat="34.8794730" lon="32.3797397">
<ele>159.70</ele>
<time>2015-04-24T16:16:35Z</time>
</trkpt>
<trkpt lat="34.8795192" lon="32.3797403">
<ele>159.87</ele>
<time>2015-04-24T16:16:37Z</time>
</trkpt>
<trkpt lat="34.8795679" lon="32.3797437">
<ele>160.41</ele>
<time>2015-04-24T16:16:39Z</time>
</trkpt>
<trkpt lat="34.8796147" lon="32.3797494">
<ele>161.55</ele>
<time>2015-04-24T16:16:41Z</time>
</trkpt>
<trkpt lat="34.8796714" lon="32.3797653">
<ele>163.25</ele>
<time>2015-04-24T16:16:44Z</time>
</trkpt>
<trkpt lat="34.8797300" lon="32.3797666">
<ele>163.09</ele>
<time>2015-04-24T16:16:47Z</time>
</trkpt>
<trkpt lat="34.8797889" lon="32.3797633">
<ele>165.07</ele>
<time>2015-04-24T16:16:50Z</time>
</trkpt>
<trkpt lat="34.8798520" lon="32.3797664">
<ele>164.94</ele>
<time>2015-04-24T16:16:53Z</time>
</trkpt>
<trkpt lat="34.8799184" lon="32.3797782">
<ele>165.68</ele>
<time>2015-04-24T16:16:56Z</time>
</trkpt>
<trkpt lat="34.8799638" lon="32.3797858">
<ele>165.36</ele>
<time>2015-04-24T16:16:58Z</time>
</trkpt>
<trkpt lat="34.8800308" lon="32.3797934">
<ele>164.48</ele>
<time>2015-04-24T16:17:01Z</time>
</trkpt>
<trkpt lat="34.8800994" lon="32.3798009">
<ele>163.99</ele>
<time>2015-04-24T16:17:04Z</time>
</trkpt>
<trkpt lat="34.8801464" lon="32.3798066">
<ele>164.19</ele>
<time>2015-04-24T16:17:06Z</time>
</trkpt>
<trkpt lat="34.8801974" lon="32.3798111">
<ele>164.24</ele>
<time>2015-04-24T16:17:08Z</time>
</trkpt>
<trkpt lat="34.8802477" lon="32.3798178">
<ele>164.00</ele>
<time>2015-04-24T16:17:10Z</time>
</trkpt>
<trkpt lat="34.8802954" lon="32.3798235">
<ele>163.94</ele>
<time>2015-04-24T16:17:12Z</time>
</trkpt>
<trkpt lat="34.8803433" lon="32.3798281">
<ele>163.93</ele>
<time>2015-04-24T16:17:14Z</time>
</trkpt>
<trkpt lat="34.8804138" lon="32.3798335">
<ele>163.43</ele>
<time>2015-04-24T16:17:17Z</time>
</trkpt>
<trkpt lat="34.8804600" lon="32.3798407">
<ele>162.80</ele>
<time>2015-04-24T16:17:19Z</time>
</trkpt>
<trkpt lat="34.8805055" lon="32.3798465">
<ele>164.39</ele>
<time>2015-04-24T16:17:21Z</time>
</trkpt>
<trkpt lat="34.8805509" lon="32.3798561">
<ele>167.04</ele>
<time>2015-04-24T16:17:23Z</time>
</trkpt>
<trkpt lat="34.8806154" lon="32.3798667">
<ele>168.31</ele>
<time>2015-04-24T16:17:26Z</time>
</trkpt>
<trkpt lat="34.8806790" lon="32.3798706">
<ele>169.47</ele>
<time>2015-04-24T16:17:29Z</time>
</trkpt>
<trkpt lat="34.8807265" lon="32.3798785">
<ele>169.81</ele>
<time>2015-04-24T16:17:31Z</time>
</trkpt>
<trkpt lat="34.8807736" lon="32.3798847">
<ele>169.90</ele>
<time>2015-04-24T16:17:33Z</time>
</trkpt>
<trkpt lat="34.8808365" lon="32.3798924">
<ele>171.42</ele>
<time>2015-04-24T16:17:36Z</time>
</trkpt>
<trkpt lat="34.8809043" lon="32.3798992">
<ele>172.61</ele>
<time>2015-04-24T16:17:39Z</time>
</trkpt>
<trkpt lat="34.8809546" lon="32.3799068">
<ele>173.35</ele>
<time>2015-04-24T16:17:41Z</time>
</trkpt>
<trkpt lat="34.8810080" lon="32.3799157">
<ele>174.03</ele>
<time>2015-04-24T16:17:43Z</time>
</trkpt>
<trkpt lat="34.8810584" lon="32.3799293">
<ele>173.95</ele>
<time>2015-04-24T16:17:45Z</time>
</trkpt>
<trkpt lat="34.8811119" lon="32.3799402">
<ele>173.18</ele>
<time>2015-04-24T16:17:47Z</time>
</trkpt>
<trkpt lat="34.8811646" lon="32.3799435">
<ele>173.74</ele>
<time>2015-04-24T16:17:49Z</time>
</trkpt>
<trkpt lat="34.8812136" lon="32.3799438">
<ele>172.13</ele>
<time>2015-04-24T16:17:51Z</time>
</trkpt>
<trkpt lat="34.8812594" lon="32.3799436">
<ele>170.48</ele>
<time>2015-04-24T16:17:53Z</time>
</trkpt>
<trkpt lat="34.8813058" lon="32.3799482">
<ele>169.81</ele>
<time>2015-04-24T16:17:55Z</time>
</trkpt>
<trkpt lat="34.8813511" lon="32.3799523">
<ele>168.90</ele>
<time>2015-04-24T16:17:57Z</time>
</trkpt>
<trkpt lat="34.8814135" lon="32.3799446">
<ele>171.30</ele>
<time>2015-04-24T16:18:00Z</time>
</trkpt>
<trkpt lat="34.8814805" lon="32.3799444">
<ele>172.10</ele>
<time>2015-04-24T16:18:03Z</time>
</trkpt>
<trkpt lat="34.8815451" lon="32.3799504">
<ele>173.82</ele>
<time>2015-04-24T16:18:06Z</time>
</trkpt>
<trkpt lat="34.8816037" lon="32.3799485">
<ele>174.66</ele>
<time>2015-04-24T16:18:09Z</time>
</trkpt>
<trkpt lat="34.8816715" lon="32.3799495">
<ele>174.39</ele>
<time>2015-04-24T16:18:12Z</time>
</trkpt>
<trkpt lat="34.8817202" lon="32.3799566">
<ele>174.79</ele>
<time>2015-04-24T16:18:14Z</time>
</trkpt>
<trkpt lat="34.8817663" lon="32.3799564">
<ele>175.39</ele>
<time>2015-04-24T16:18:16Z</time>
</trkpt>
<trkpt lat="34.8818152" lon="32.3799453">
<ele>177.29</ele>
<time>2015-04-24T16:18:18Z</time>
</trkpt>
<trkpt lat="34.8818643" lon="32.3799451">
<ele>178.27</ele>
<time>2015-04-24T16:18:20Z</time>
</trkpt>
<trkpt lat="34.8819310" lon="32.3799587">
<ele>179.09</ele>
<time>2015-04-24T16:18:23Z</time>
</trkpt>
<trkpt lat="34.8819771" lon="32.3799568">
<ele>180.22</ele>
<time>2015-04-24T16:18:25Z</time>
</trkpt>
<trkpt lat="34.8820421" lon="32.3799606">
<ele>181.71</ele>
<time>2015-04-24T16:18:28Z</time>
</trkpt>
<trkpt lat="34.8820891" lon="32.3799671">
<ele>181.62</ele>
<time>2015-04-24T16:18:30Z</time>
</trkpt>
<trkpt lat="34.8821351" lon="32.3799822">
<ele>180.35</ele>
<time>2015-04-24T16:18:32Z</time>
</trkpt>
<trkpt lat="34.8821889" lon="32.3800217">
<ele>178.85</ele>
<time>2015-04-24T16:18:35Z</time>
</trkpt>
<trkpt lat="34.8822441" lon="32.3800448">
<ele>177.29</ele>
<time>2015-04-24T16:18:38Z</time>
</trkpt>
<trkpt lat="34.8822989" lon="32.3800635">
<ele>177.35</ele>
<time>2015-04-24T16:18:41Z</time>
</trkpt>
<trkpt lat="34.8823454" lon="32.3801001">
<ele>176.98</ele>
<time>2015-04-24T16:18:44Z</time>
</trkpt>
<trkpt lat="34.8823857" lon="32.3801360">
<ele>178.56</ele>
<time>2015-04-24T16:18:47Z</time>
</trkpt>
<trkpt lat="34.8824269" lon="32.3801739">
<ele>182.38</ele>
<time>2015-04-24T16:18:50Z</time>
</trkpt>
<trkpt lat="34.8824658" lon="32.3802124">
<ele>184.23</ele>
<time>2015-04-24T16:18:53Z</time>
</trkpt>
<trkpt lat="34.8825021" lon="32.3802499">
<ele>185.59</ele>
<time>2015-04-24T16:18:56Z</time>
</trkpt>
<trkpt lat="34.8825363" lon="32.3802874">
<ele>185.88</ele>
<time>2015-04-24T16:18:59Z</time>
</trkpt>
<trkpt lat="34.8825721" lon="32.3803217">
<ele>185.79</ele>
<time>2015-04-24T16:19:02Z</time>
</trkpt>
<trkpt lat="34.8826124" lon="32.3803515">
<ele>186.78</ele>
<time>2015-04-24T16:19:05Z</time>
</trkpt>
<trkpt lat="34.8826552" lon="32.3803845">
<ele>188.16</ele>
<time>2015-04-24T16:19:08Z</time>
</trkpt>
<trkpt lat="34.8827038" lon="32.3804139">
<ele>188.83</ele>
<time>2015-04-24T16:19:11Z</time>
</trkpt>
<trkpt lat="34.8827500" lon="32.3804433">
<ele>190.29</ele>
<time>2015-04-24T16:19:14Z</time>
</trkpt>
<trkpt lat="34.8827945" lon="32.3804837">
<ele>190.10</ele>
<time>2015-04-24T16:19:17Z</time>
</trkpt>
<trkpt lat="34.8828277" lon="32.3805295">
<ele>189.20</ele>
<time>2015-04-24T16:19:20Z</time>
</trkpt>
<trkpt lat="34.8828600" lon="32.3805764">
<ele>188.21</ele>
<time>2015-04-24T16:19:23Z</time>
</trkpt>
<trkpt lat="34.8829036" lon="32.3806230">
<ele>187.76</ele>
<time>2015-04-24T16:19:27Z</time>
</trkpt>
<trkpt lat="34.8829549" lon="32.3806595">
<ele>185.98</ele>
<time>2015-04-24T16:19:31Z</time>
</trkpt>
<trkpt lat="34.8829982" lon="32.3807027">
<ele>184.68</ele>
<time>2015-04-24T16:19:35Z</time>
</trkpt>
<trkpt lat="34.8830315" lon="32.3807480">
<ele>183.47</ele>
<time>2015-04-24T16:19:39Z</time>
</trkpt>
<trkpt lat="34.8830646" lon="32.3808008">
<ele>183.46</ele>
<time>2015-04-24T16:19:43Z</time>
</trkpt>
<trkpt lat="34.8830961" lon="32.3808426">
<ele>184.74</ele>
<time>2015-04-24T16:19:46Z</time>
</trkpt>
<trkpt lat="34.8831387" lon="32.3808930">
<ele>185.41</ele>
<time>2015-04-24T16:19:50Z</time>
</trkpt>
<trkpt lat="34.8831727" lon="32.3809303">
<ele>186.61</ele>
<time>2015-04-24T16:19:53Z</time>
</trkpt>
<trkpt lat="34.8832081" lon="32.3809683">
<ele>189.01</ele>
<time>2015-04-24T16:19:56Z</time>
</trkpt>
<trkpt lat="34.8832418" lon="32.3810147">
<ele>189.44</ele>
<time>2015-04-24T16:19:59Z</time>
</trkpt>
<trkpt lat="34.8832803" lon="32.3810537">
<ele>191.24</ele>
<time>2015-04-24T16:20:02Z</time>
</trkpt>
<trkpt lat="34.8833195" lon="32.3810967">
<ele>192.59</ele>
<time>2015-04-24T16:20:05Z</time>
</trkpt>
<trkpt lat="34.8833607" lon="32.3811393">
<ele>192.63</ele>
<time>2015-04-24T16:20:08Z</time>
</trkpt>
<trkpt lat="34.8833892" lon="32.3811942">
<ele>192.26</ele>
<time>2015-04-24T16:20:11Z</time>
</trkpt>
<trkpt lat="34.8834186" lon="32.3812408">
<ele>194.72</ele>
<time>2015-04-24T16:20:14Z</time>
</trkpt>
<trkpt lat="34.8834544" lon="32.3812824">
<ele>196.27</ele>
<time>2015-04-24T16:20:17Z</time>
</trkpt>
<trkpt lat="34.8834921" lon="32.3813339">
<ele>196.20</ele>
<time>2015-04-24T16:20:21Z</time>
</trkpt>
<trkpt lat="34.8835226" lon="32.3813880">
<ele>195.07</ele>
<time>2015-04-24T16:20:25Z</time>
</trkpt>
<trkpt lat="34.8835558" lon="32.3814358">
<ele>197.18</ele>
<time>2015-04-24T16:20:29Z</time>
</trkpt>
<trkpt lat="34.8835811" lon="32.3814924">
<ele>197.94</ele>
<time>2015-04-24T16:20:33Z</time>
</trkpt>
<trkpt lat="34.8835996" lon="32.3815521">
<ele>199.36</ele>
<time>2015-04-24T16:20:37Z</time>
</trkpt>
<trkpt lat="34.8836346" lon="32.3816014">
<ele>199.03</ele>
<time>2015-04-24T16:20:42Z</time>
</trkpt>
<trkpt lat="34.8836748" lon="32.3816336">
<ele>199.06</ele>
<time>2015-04-24T16:20:46Z</time>
</trkpt>
<trkpt lat="34.8837140" lon="32.3816834">
<ele>201.25</ele>
<time>2015-04-24T16:20:50Z</time>
</trkpt>
<trkpt lat="34.8837523" lon="32.3817350">
<ele>200.95</ele>
<time>2015-04-24T16:20:54Z</time>
</trkpt>
<trkpt lat="34.8837888" lon="32.3817877">
<ele>201.68</ele>
<time>2015-04-24T16:20:58Z</time>
</trkpt>
<trkpt lat="34.8838282" lon="32.3818348">
<ele>203.10</ele>
<time>2015-04-24T16:21:02Z</time>
</trkpt>
<trkpt lat="34.8838667" lon="32.3818786">
<ele>203.00</ele>
<time>2015-04-24T16:21:06Z</time>
</trkpt>
<trkpt lat="34.8839041" lon="32.3819164">
<ele>203.68</ele>
<time>2015-04-24T16:21:10Z</time>
</trkpt>
<trkpt lat="34.8839423" lon="32.3819479">
<ele>204.60</ele>
<time>2015-04-24T16:21:14Z</time>
</trkpt>
<trkpt lat="34.8839777" lon="32.3819883">
<ele>205.40</ele>
<time>2015-04-24T16:21:18Z</time>
</trkpt>
<trkpt lat="34.8840258" lon="32.3820163">
<ele>205.52</ele>
<time>2015-04-24T16:21:22Z</time>
</trkpt>
<trkpt lat="34.8840736" lon="32.3820428">
<ele>206.34</ele>
<time>2015-04-24T16:21:26Z</time>
</trkpt>
<trkpt lat="34.8841209" lon="32.3820551">
<ele>207.20</ele>
<time>2015-04-24T16:21:30Z</time>
</trkpt>
<trkpt lat="34.8841709" lon="32.3820613">
<ele>209.83</ele>
<time>2015-04-24T16:22:56Z</time>
</trkpt>
<trkpt lat="34.8842200" lon="32.3820491">
<ele>208.54</ele>
<time>2015-04-24T16:22:59Z</time>
</trkpt>
<trkpt lat="34.8842670" lon="32.3820238">
<ele>210.13</ele>
<time>2015-04-24T16:23:02Z</time>
</trkpt>
<trkpt lat="34.8843054" lon="32.3819793">
<ele>212.08</ele>
<time>2015-04-24T16:23:05Z</time>
</trkpt>
<trkpt lat="34.8843476" lon="32.3819486">
<ele>212.82</ele>
<time>2015-04-24T16:23:08Z</time>
</trkpt>
<trkpt lat="34.8843903" lon="32.3819210">
<ele>211.79</ele>
<time>2015-04-24T16:23:11Z</time>
</trkpt>
<trkpt lat="34.8844185" lon="32.3818749">
<ele>215.41</ele>
<time>2015-04-24T16:23:14Z</time>
</trkpt>
<trkpt lat="34.8844206" lon="32.3818128">
<ele>217.24</ele>
<time>2015-04-24T16:23:17Z</time>
</trkpt>
<trkpt lat="34.8844609" lon="32.3817658">
<ele>216.46</ele>
<time>2015-04-24T16:23:20Z</time>
</trkpt>
<trkpt lat="34.8845022" lon="32.3817389">
<ele>214.56</ele>
<time>2015-04-24T16:23:22Z</time>
</trkpt>
<trkpt lat="34.8845501" lon="32.3816873">
<ele>216.00</ele>
<time>2015-04-24T16:23:25Z</time>
</trkpt>
<trkpt lat="34.8845779" lon="32.3816322">
<ele>217.31</ele>
<time>2015-04-24T16:23:28Z</time>
</trkpt>
<trkpt lat="34.8845887" lon="32.3815747">
<ele>217.10</ele>
<time>2015-04-24T16:23:31Z</time>
</trkpt>
<trkpt lat="34.8845978" lon="32.3815113">
<ele>216.95</ele>
<time>2015-04-24T16:23:34Z</time>
</trkpt>
<trkpt lat="34.8845916" lon="32.3814415">
<ele>216.68</ele>
<time>2015-04-24T16:23:37Z</time>
</trkpt>
<trkpt lat="34.8845669" lon="32.3813713">
<ele>216.02</ele>
<time>2015-04-24T16:23:40Z</time>
</trkpt>
<trkpt lat="34.8845428" lon="32.3813202">
<ele>215.70</ele>
<time>2015-04-24T16:23:42Z</time>
</trkpt>
<trkpt lat="34.8845174" lon="32.3812671">
<ele>216.37</ele>
<time>2015-04-24T16:23:44Z</time>
</trkpt>
<trkpt lat="34.8844776" lon="32.3811677">
<ele>218.23</ele>
<time>2015-04-24T16:23:47Z</time>
</trkpt>
<trkpt lat="34.8844490" lon="32.3810784">
<ele>218.75</ele>
<time>2015-04-24T16:23:49Z</time>
</trkpt>
<trkpt lat="34.8844322" lon="32.3809971">
<ele>220.13</ele>
<time>2015-04-24T16:23:51Z</time>
</trkpt>
<trkpt lat="34.8844142" lon="32.3809218">
<ele>220.73</ele>
<time>2015-04-24T16:23:53Z</time>
</trkpt>
<trkpt lat="34.8843971" lon="32.3808511">
<ele>221.38</ele>
<time>2015-04-24T16:23:55Z</time>
</trkpt>
<trkpt lat="34.8843789" lon="32.3807795">
<ele>221.79</ele>
<time>2015-04-24T16:23:57Z</time>
</trkpt>
<trkpt lat="34.8843677" lon="32.3807125">
<ele>220.64</ele>
<time>2015-04-24T16:23:59Z</time>
</trkpt>
<trkpt lat="34.8843565" lon="32.3806567">
<ele>220.60</ele>
<time>2015-04-24T16:24:01Z</time>
</trkpt>
<trkpt lat="34.8843492" lon="32.3805938">
<ele>220.59</ele>
<time>2015-04-24T16:24:03Z</time>
</trkpt>
<trkpt lat="34.8843487" lon="32.3805264">
<ele>220.09</ele>
<time>2015-04-24T16:24:05Z</time>
</trkpt>
<trkpt lat="34.8843454" lon="32.3804632">
<ele>219.97</ele>
<time>2015-04-24T16:24:07Z</time>
</trkpt>
<trkpt lat="34.8843452" lon="32.3803983">
<ele>219.94</ele>
<time>2015-04-24T16:24:09Z</time>
</trkpt>
<trkpt lat="34.8843471" lon="32.3803353">
<ele>219.93</ele>
<time>2015-04-24T16:24:11Z</time>
</trkpt>
<trkpt lat="34.8843518" lon="32.3802629">
<ele>220.43</ele>
<time>2015-04-24T16:24:13Z</time>
</trkpt>
<trkpt lat="34.8843673" lon="32.3801701">
<ele>221.30</ele>
<time>2015-04-24T16:24:15Z</time>
</trkpt>
<trkpt lat="34.8843945" lon="32.3800879">
<ele>222.27</ele>
<time>2015-04-24T16:24:17Z</time>
</trkpt>
<trkpt lat="34.8844145" lon="32.3800335">
<ele>223.26</ele>
<time>2015-04-24T16:24:19Z</time>
</trkpt>
<trkpt lat="34.8844413" lon="32.3799731">
<ele>224.09</ele>
<time>2015-04-24T16:24:22Z</time>
</trkpt>
<trkpt lat="34.8844760" lon="32.3799212">
<ele>223.95</ele>
<time>2015-04-24T16:24:25Z</time>
</trkpt>
<trkpt lat="34.8845019" lon="32.3798652">
<ele>225.30</ele>
<time>2015-04-24T16:24:28Z</time>
</trkpt>
<trkpt lat="34.8845283" lon="32.3798087">
<ele>226.72</ele>
<time>2015-04-24T16:24:31Z</time>
</trkpt>
<trkpt lat="34.8845599" lon="32.3797555">
<ele>227.65</ele>
<time>2015-04-24T16:24:34Z</time>
</trkpt>
<trkpt lat="34.8845888" lon="32.3797021">
<ele>227.39</ele>
<time>2015-04-24T16:24:37Z</time>
</trkpt>
<trkpt lat="34.8846189" lon="32.3796533">
<ele>228.23</ele>
<time>2015-04-24T16:24:40Z</time>
</trkpt>
<trkpt lat="34.8846484" lon="32.3795990">
<ele>228.84</ele>
<time>2015-04-24T16:24:43Z</time>
</trkpt>
<trkpt lat="34.8846826" lon="32.3795429">
<ele>230.41</ele>
<time>2015-04-24T16:24:46Z</time>
</trkpt>
<trkpt lat="34.8847166" lon="32.3794785">
<ele>231.74</ele>
<time>2015-04-24T16:24:49Z</time>
</trkpt>
<trkpt lat="34.8847418" lon="32.3794318">
<ele>231.88</ele>
<time>2015-04-24T16:24:51Z</time>
</trkpt>
<trkpt lat="34.8847712" lon="32.3793835">
<ele>231.91</ele>
<time>2015-04-24T16:24:53Z</time>
</trkpt>
<trkpt lat="34.8847996" lon="32.3793338">
<ele>232.67</ele>
<time>2015-04-24T16:24:55Z</time>
</trkpt>
<trkpt lat="34.8848249" lon="32.3792836">
<ele>231.61</ele>
<time>2015-04-24T16:24:57Z</time>
</trkpt>
<trkpt lat="34.8848467" lon="32.3792330">
<ele>231.10</ele>
<time>2015-04-24T16:24:59Z</time>
</trkpt>
<trkpt lat="34.8848665" lon="32.3791801">
<ele>230.22</ele>
<time>2015-04-24T16:25:01Z</time>
</trkpt>
<trkpt lat="34.8848965" lon="32.3791048">
<ele>231.09</ele>
<time>2015-04-24T16:25:04Z</time>
</trkpt>
<trkpt lat="34.8849261" lon="32.3790325">
<ele>231.70</ele>
<time>2015-04-24T16:25:07Z</time>
</trkpt>
<trkpt lat="34.8849493" lon="32.3789808">
<ele>231.37</ele>
<time>2015-04-24T16:25:09Z</time>
</trkpt>
<trkpt lat="34.8849768" lon="32.3789306">
<ele>231.04</ele>
<time>2015-04-24T16:25:11Z</time>
</trkpt>
<trkpt lat="34.8850046" lon="32.3788850">
<ele>230.95</ele>
<time>2015-04-24T16:25:13Z</time>
</trkpt>
<trkpt lat="34.8850366" lon="32.3788201">
<ele>232.55</ele>
<time>2015-04-24T16:25:16Z</time>
</trkpt>
<trkpt lat="34.8850707" lon="32.3787619">
<ele>233.13</ele>
<time>2015-04-24T16:25:19Z</time>
</trkpt>
<trkpt lat="34.8851099" lon="32.3787072">
<ele>233.45</ele>
<time>2015-04-24T16:25:22Z</time>
</trkpt>
<trkpt lat="34.8851432" lon="32.3786457">
<ele>233.12</ele>
<time>2015-04-24T16:25:25Z</time>
</trkpt>
<trkpt lat="34.8851705" lon="32.3785824">
<ele>233.32</ele>
<time>2015-04-24T16:25:28Z</time>
</trkpt>
<trkpt lat="34.8851937" lon="32.3785226">
<ele>234.60</ele>
<time>2015-04-24T16:25:31Z</time>
</trkpt>
<trkpt lat="34.8852160" lon="32.3784620">
<ele>234.38</ele>
<time>2015-04-24T16:25:34Z</time>
</trkpt>
<trkpt lat="34.8852430" lon="32.3784006">
<ele>234.86</ele>
<time>2015-04-24T16:25:37Z</time>
</trkpt>
<trkpt lat="34.8852767" lon="32.3783399">
<ele>235.54</ele>
<time>2015-04-24T16:25:40Z</time>
</trkpt>
<trkpt lat="34.8853104" lon="32.3782764">
<ele>236.75</ele>
<time>2015-04-24T16:25:43Z</time>
</trkpt>
<trkpt lat="34.8853345" lon="32.3782113">
<ele>237.40</ele>
<time>2015-04-24T16:25:46Z</time>
</trkpt>
<trkpt lat="34.8853621" lon="32.3781433">
<ele>236.98</ele>
<time>2015-04-24T16:25:49Z</time>
</trkpt>
<trkpt lat="34.8853923" lon="32.3780772">
<ele>236.93</ele>
<time>2015-04-24T16:25:52Z</time>
</trkpt>
<trkpt lat="34.8854189" lon="32.3780120">
<ele>236.18</ele>
<time>2015-04-24T16:25:55Z</time>
</trkpt>
<trkpt lat="34.8854511" lon="32.3779476">
<ele>237.33</ele>
<time>2015-04-24T16:25:58Z</time>
</trkpt>
<trkpt lat="34.8854709" lon="32.3778787">
<ele>237.73</ele>
<time>2015-04-24T16:26:01Z</time>
</trkpt>
<trkpt lat="34.8854968" lon="32.3778150">
<ele>238.65</ele>
<time>2015-04-24T16:26:04Z</time>
</trkpt>
<trkpt lat="34.8855282" lon="32.3777560">
<ele>238.52</ele>
<time>2015-04-24T16:26:07Z</time>
</trkpt>
<trkpt lat="34.8855646" lon="32.3776988">
<ele>236.25</ele>
<time>2015-04-24T16:26:10Z</time>
</trkpt>
<trkpt lat="34.8855907" lon="32.3776340">
<ele>236.47</ele>
<time>2015-04-24T16:26:13Z</time>
</trkpt>
<trkpt lat="34.8856157" lon="32.3775727">
<ele>236.12</ele>
<time>2015-04-24T16:26:16Z</time>
</trkpt>
<trkpt lat="34.8856351" lon="32.3775113">
<ele>237.32</ele>
<time>2015-04-24T16:26:19Z</time>
</trkpt>
<trkpt lat="34.8856571" lon="32.3774547">
<ele>238.35</ele>
<time>2015-04-24T16:26:22Z</time>
</trkpt>
<trkpt lat="34.8856872" lon="32.3773987">
<ele>239.60</ele>
<time>2015-04-24T16:26:25Z</time>
</trkpt>
<trkpt lat="34.8857122" lon="32.3773373">
<ele>240.76</ele>
<time>2015-04-24T16:26:28Z</time>
</trkpt>
<trkpt lat="34.8857369" lon="32.3772854">
<ele>241.78</ele>
<time>2015-04-24T16:26:31Z</time>
</trkpt>
<trkpt lat="34.8857553" lon="32.3772284">
<ele>242.78</ele>
<time>2015-04-24T16:26:34Z</time>
</trkpt>
<trkpt lat="34.8857871" lon="32.3771749">
<ele>242.91</ele>
<time>2015-04-24T16:26:37Z</time>
</trkpt>
<trkpt lat="34.8858266" lon="32.3771258">
<ele>244.55</ele>
<time>2015-04-24T16:26:40Z</time>
</trkpt>
<trkpt lat="34.8858605" lon="32.3770759">
<ele>243.25</ele>
<time>2015-04-24T16:26:43Z</time>
</trkpt>
<trkpt lat="34.8859001" lon="32.3770306">
<ele>243.22</ele>
<time>2015-04-24T16:26:46Z</time>
</trkpt>
<trkpt lat="34.8859432" lon="32.3769898">
<ele>243.09</ele>
<time>2015-04-24T16:26:49Z</time>
</trkpt>
<trkpt lat="34.8859927" lon="32.3769566">
<ele>242.20</ele>
<time>2015-04-24T16:26:52Z</time>
</trkpt>
<trkpt lat="34.8860435" lon="32.3769320">
<ele>243.33</ele>
<time>2015-04-24T16:26:55Z</time>
</trkpt>
<trkpt lat="34.8860970" lon="32.3769135">
<ele>243.85</ele>
<time>2015-04-24T16:26:58Z</time>
</trkpt>
<trkpt lat="34.8861544" lon="32.3769133">
<ele>243.42</ele>
<time>2015-04-24T16:27:01Z</time>
</trkpt>
<trkpt lat="34.8862156" lon="32.3769261">
<ele>244.11</ele>
<time>2015-04-24T16:27:04Z</time>
</trkpt>
<trkpt lat="34.8862717" lon="32.3769540">
<ele>245.32</ele>
<time>2015-04-24T16:27:07Z</time>
</trkpt>
<trkpt lat="34.8863235" lon="32.3769965">
<ele>243.60</ele>
<time>2015-04-24T16:27:10Z</time>
</trkpt>
<trkpt lat="34.8863534" lon="32.3770387">
<ele>244.09</ele>
<time>2015-04-24T16:27:12Z</time>
</trkpt>
<trkpt lat="34.8863737" lon="32.3770907">
<ele>244.72</ele>
<time>2015-04-24T16:27:14Z</time>
</trkpt>
<trkpt lat="34.8863870" lon="32.3771511">
<ele>244.62</ele>
<time>2015-04-24T16:27:16Z</time>
</trkpt>
<trkpt lat="34.8863898" lon="32.3772148">
<ele>244.35</ele>
<time>2015-04-24T16:27:18Z</time>
</trkpt>
<trkpt lat="34.8863774" lon="32.3772915">
<ele>246.28</ele>
<time>2015-04-24T16:27:20Z</time>
</trkpt>
<trkpt lat="34.8863505" lon="32.3773738">
<ele>246.76</ele>
<time>2015-04-24T16:27:22Z</time>
</trkpt>
<trkpt lat="34.8863176" lon="32.3774486">
<ele>246.88</ele>
<time>2015-04-24T16:27:24Z</time>
</trkpt>
<trkpt lat="34.8862828" lon="32.3775208">
<ele>248.16</ele>
<time>2015-04-24T16:27:26Z</time>
</trkpt>
<trkpt lat="34.8862508" lon="32.3775941">
<ele>248.73</ele>
<time>2015-04-24T16:27:28Z</time>
</trkpt>
<trkpt lat="34.8862193" lon="32.3776585">
<ele>249.63</ele>
<time>2015-04-24T16:27:30Z</time>
</trkpt>
<trkpt lat="34.8861909" lon="32.3777205">
<ele>249.35</ele>
<time>2015-04-24T16:27:32Z</time>
</trkpt>
<trkpt lat="34.8861669" lon="32.3777818">
<ele>249.78</ele>
<time>2015-04-24T16:27:34Z</time>
</trkpt>
<trkpt lat="34.8861410" lon="32.3778339">
<ele>250.39</ele>
<time>2015-04-24T16:27:36Z</time>
</trkpt>
<trkpt lat="34.8861145" lon="32.3778911">
<ele>252.48</ele>
<time>2015-04-24T16:27:39Z</time>
</trkpt>
<trkpt lat="34.8861036" lon="32.3779581">
<ele>254.74</ele>
<time>2015-04-24T16:27:42Z</time>
</trkpt>
<trkpt lat="34.8861004" lon="32.3780310">
<ele>256.28</ele>
<time>2015-04-24T16:27:45Z</time>
</trkpt>
<trkpt lat="34.8861199" lon="32.3780978">
<ele>257.09</ele>
<time>2015-04-24T16:27:48Z</time>
</trkpt>
<trkpt lat="34.8861527" lon="32.3781401">
<ele>257.07</ele>
<time>2015-04-24T16:27:51Z</time>
</trkpt>
<trkpt lat="34.8862099" lon="32.3781798">
<ele>257.44</ele>
<time>2015-04-24T16:27:54Z</time>
</trkpt>
<trkpt lat="34.8862711" lon="32.3782007">
<ele>258.36</ele>
<time>2015-04-24T16:27:57Z</time>
</trkpt>
<trkpt lat="34.8863213" lon="32.3782008">
<ele>259.35</ele>
<time>2015-04-24T16:28:00Z</time>
</trkpt>
<trkpt lat="34.8863684" lon="32.3781965">
<ele>259.85</ele>
<time>2015-04-24T16:28:03Z</time>
</trkpt>
<trkpt lat="34.8864214" lon="32.3781664">
<ele>261.61</ele>
<time>2015-04-24T16:28:07Z</time>
</trkpt>
<trkpt lat="34.8864553" lon="32.3781154">
<ele>262.76</ele>
<time>2015-04-24T16:28:10Z</time>
</trkpt>
<trkpt lat="34.8864948" lon="32.3780580">
<ele>263.40</ele>
<time>2015-04-24T16:28:13Z</time>
</trkpt>
<trkpt lat="34.8865308" lon="32.3779969">
<ele>263.86</ele>
<time>2015-04-24T16:28:16Z</time>
</trkpt>
<trkpt lat="34.8865699" lon="32.3779377">
<ele>264.42</ele>
<time>2015-04-24T16:28:19Z</time>
</trkpt>
<trkpt lat="34.8866107" lon="32.3778788">
<ele>264.86</ele>
<time>2015-04-24T16:28:22Z</time>
</trkpt>
<trkpt lat="34.8866523" lon="32.3778237">
<ele>265.67</ele>
<time>2015-04-24T16:28:25Z</time>
</trkpt>
<trkpt lat="34.8866882" lon="32.3777697">
<ele>266.02</ele>
<time>2015-04-24T16:28:28Z</time>
</trkpt>
<trkpt lat="34.8867298" lon="32.3777222">
<ele>266.44</ele>
<time>2015-04-24T16:28:31Z</time>
</trkpt>
<trkpt lat="34.8867704" lon="32.3776798">
<ele>267.36</ele>
<time>2015-04-24T16:28:34Z</time>
</trkpt>
<trkpt lat="34.8868123" lon="32.3776350">
<ele>267.35</ele>
<time>2015-04-24T16:28:37Z</time>
</trkpt>
<trkpt lat="34.8868565" lon="32.3775993">
<ele>267.85</ele>
<time>2015-04-24T16:28:40Z</time>
</trkpt>
<trkpt lat="34.8869023" lon="32.3775605">
<ele>268.79</ele>
<time>2015-04-24T16:28:43Z</time>
</trkpt>
<trkpt lat="34.8869516" lon="32.3775181">
<ele>268.91</ele>
<time>2015-04-24T16:28:46Z</time>
</trkpt>
<trkpt lat="34.8870022" lon="32.3774781">
<ele>270.30</ele>
<time>2015-04-24T16:28:49Z</time>
</trkpt>
<trkpt lat="34.8870520" lon="32.3774452">
<ele>270.85</ele>
<time>2015-04-24T16:28:52Z</time>
</trkpt>
<trkpt lat="34.8871037" lon="32.3774177">
<ele>271.79</ele>
<time>2015-04-24T16:28:55Z</time>
</trkpt>
<trkpt lat="34.8871570" lon="32.3773866">
<ele>271.91</ele>
<time>2015-04-24T16:28:58Z</time>
</trkpt>
<trkpt lat="34.8872060" lon="32.3773488">
<ele>272.67</ele>
<time>2015-04-24T16:29:01Z</time>
</trkpt>
<trkpt lat="34.8872675" lon="32.3773107">
<ele>272.89</ele>
<time>2015-04-24T16:29:04Z</time>
</trkpt>
<trkpt lat="34.8873143" lon="32.3772803">
<ele>273.42</ele>
<time>2015-04-24T16:29:06Z</time>
</trkpt>
<trkpt lat="34.8873611" lon="32.3772528">
<ele>273.80</ele>
<time>2015-04-24T16:29:08Z</time>
</trkpt>
<trkpt lat="34.8874070" lon="32.3772256">
<ele>273.39</ele>
<time>2015-04-24T16:29:10Z</time>
</trkpt>
<trkpt lat="34.8874523" lon="32.3771950">
<ele>272.54</ele>
<time>2015-04-24T16:29:12Z</time>
</trkpt>
<trkpt lat="34.8874949" lon="32.3771631">
<ele>272.83</ele>
<time>2015-04-24T16:29:14Z</time>
</trkpt>
<trkpt lat="34.8875346" lon="32.3771279">
<ele>273.90</ele>
<time>2015-04-24T16:29:16Z</time>
</trkpt>
<trkpt lat="34.8875713" lon="32.3770892">
<ele>274.67</ele>
<time>2015-04-24T16:29:18Z</time>
</trkpt>
<trkpt lat="34.8876019" lon="32.3770476">
<ele>276.11</ele>
<time>2015-04-24T16:29:20Z</time>
</trkpt>
<trkpt lat="34.8876406" lon="32.3769812">
<ele>277.32</ele>
<time>2015-04-24T16:29:23Z</time>
</trkpt>
<trkpt lat="34.8876628" lon="32.3769313">
<ele>277.77</ele>
<time>2015-04-24T16:29:25Z</time>
</trkpt>
<trkpt lat="34.8876953" lon="32.3768617">
<ele>278.41</ele>
<time>2015-04-24T16:29:28Z</time>
</trkpt>
<trkpt lat="34.8877267" lon="32.3767891">
<ele>278.86</ele>
<time>2015-04-24T16:29:31Z</time>
</trkpt>
<trkpt lat="34.8877463" lon="32.3767345">
<ele>279.41</ele>
<time>2015-04-24T16:29:33Z</time>
</trkpt>
<trkpt lat="34.8877696" lon="32.3766608">
<ele>279.55</ele>
<time>2015-04-24T16:29:35Z</time>
</trkpt>
<trkpt lat="34.8877888" lon="32.3765865">
<ele>279.88</ele>
<time>2015-04-24T16:29:38Z</time>
</trkpt>
<trkpt lat="34.8878033" lon="32.3765095">
<ele>279.92</ele>
<time>2015-04-24T16:29:41Z</time>
</trkpt>
<trkpt lat="34.8878160" lon="32.3764290">
<ele>280.42</ele>
<time>2015-04-24T16:29:44Z</time>
</trkpt>
<trkpt lat="34.8878192" lon="32.3763721">
<ele>281.30</ele>
<time>2015-04-24T16:29:46Z</time>
</trkpt>
<trkpt lat="34.8878209" lon="32.3763120">
<ele>281.77</ele>
<time>2015-04-24T16:29:48Z</time>
</trkpt>
<trkpt lat="34.8878219" lon="32.3762547">
<ele>281.89</ele>
<time>2015-04-24T16:29:50Z</time>
</trkpt>
<trkpt lat="34.8878200" lon="32.3761852">
<ele>282.42</ele>
<time>2015-04-24T16:29:53Z</time>
</trkpt>
<trkpt lat="34.8878146" lon="32.3761183">
<ele>283.61</ele>
<time>2015-04-24T16:29:56Z</time>
</trkpt>
<trkpt lat="34.8878082" lon="32.3760363">
<ele>284.39</ele>
<time>2015-04-24T16:29:59Z</time>
</trkpt>
<trkpt lat="34.8878051" lon="32.3759726">
<ele>284.79</ele>
<time>2015-04-24T16:30:01Z</time>
</trkpt>
<trkpt lat="34.8878024" lon="32.3759116">
<ele>284.89</ele>
<time>2015-04-24T16:30:03Z</time>
</trkpt>
<trkpt lat="34.8878007" lon="32.3758491">
<ele>284.42</ele>
<time>2015-04-24T16:30:05Z</time>
</trkpt>
<trkpt lat="34.8878017" lon="32.3757906">
<ele>283.55</ele>
<time>2015-04-24T16:30:07Z</time>
</trkpt>
<trkpt lat="34.8878012" lon="32.3757308">
<ele>283.83</ele>
<time>2015-04-24T16:30:09Z</time>
</trkpt>
<trkpt lat="34.8878011" lon="32.3756748">
<ele>283.90</ele>
<time>2015-04-24T16:30:11Z</time>
</trkpt>
<trkpt lat="34.8877986" lon="32.3755990">
<ele>284.67</ele>
<time>2015-04-24T16:30:14Z</time>
</trkpt>
<trkpt lat="34.8877961" lon="32.3755291">
<ele>284.89</ele>
<time>2015-04-24T16:30:17Z</time>
</trkpt>
<trkpt lat="34.8877936" lon="32.3754672">
<ele>284.92</ele>
<time>2015-04-24T16:30:20Z</time>
</trkpt>
<trkpt lat="34.8877900" lon="32.3753943">
<ele>285.80</ele>
<time>2015-04-24T16:30:23Z</time>
</trkpt>
<trkpt lat="34.8877882" lon="32.3753094">
<ele>286.41</ele>
<time>2015-04-24T16:30:26Z</time>
</trkpt>
<trkpt lat="34.8877830" lon="32.3752425">
<ele>287.30</ele>
<time>2015-04-24T16:30:28Z</time>
</trkpt>
<trkpt lat="34.8877783" lon="32.3751752">
<ele>287.77</ele>
<time>2015-04-24T16:30:30Z</time>
</trkpt>
<trkpt lat="34.8877762" lon="32.3751048">
<ele>287.89</ele>
<time>2015-04-24T16:30:32Z</time>
</trkpt>
<trkpt lat="34.8877728" lon="32.3750368">
<ele>288.42</ele>
<time>2015-04-24T16:30:34Z</time>
</trkpt>
<trkpt lat="34.8877750" lon="32.3749781">
<ele>289.30</ele>
<time>2015-04-24T16:30:36Z</time>
</trkpt>
<trkpt lat="34.8877734" lon="32.3749233">
<ele>289.77</ele>
<time>2015-04-24T16:30:38Z</time>
</trkpt>
<trkpt lat="34.8877680" lon="32.3748670">
<ele>290.39</ele>
<time>2015-04-24T16:30:40Z</time>
</trkpt>
<trkpt lat="34.8877662" lon="32.3748090">
<ele>290.79</ele>
<time>2015-04-24T16:30:42Z</time>
</trkpt>
<trkpt lat="34.8877652" lon="32.3747518">
<ele>290.89</ele>
<time>2015-04-24T16:30:44Z</time>
</trkpt>
<trkpt lat="34.8877615" lon="32.3746940">
<ele>291.42</ele>
<time>2015-04-24T16:30:46Z</time>
</trkpt>
<trkpt lat="34.8877554" lon="32.3746381">
<ele>291.55</ele>
<time>2015-04-24T16:30:48Z</time>
</trkpt>
<trkpt lat="34.8877514" lon="32.3745810">
<ele>291.83</ele>
<time>2015-04-24T16:30:50Z</time>
</trkpt>
<trkpt lat="34.8877494" lon="32.3745258">
<ele>292.40</ele>
<time>2015-04-24T16:30:52Z</time>
</trkpt>
<trkpt lat="34.8877497" lon="32.3744454">
<ele>292.86</ele>
<time>2015-04-24T16:30:55Z</time>
</trkpt>
<trkpt lat="34.8877382" lon="32.3743666">
<ele>293.79</ele>
<time>2015-04-24T16:30:58Z</time>
</trkpt>
<trkpt lat="34.8877329" lon="32.3742893">
<ele>294.78</ele>
<time>2015-04-24T16:31:01Z</time>
</trkpt>
<trkpt lat="34.8877351" lon="32.3742189">
<ele>294.03</ele>
<time>2015-04-24T16:31:04Z</time>
</trkpt>
<trkpt lat="34.8877324" lon="32.3741445">
<ele>294.19</ele>
<time>2015-04-24T16:31:07Z</time>
</trkpt>
<trkpt lat="34.8877364" lon="32.3740692">
<ele>293.71</ele>
<time>2015-04-24T16:31:10Z</time>
</trkpt>
<trkpt lat="34.8877402" lon="32.3739920">
<ele>294.15</ele>
<time>2015-04-24T16:31:13Z</time>
</trkpt>
<trkpt lat="34.8877443" lon="32.3739144">
<ele>294.83</ele>
<time>2015-04-24T16:31:16Z</time>
</trkpt>
<trkpt lat="34.8877513" lon="32.3738357">
<ele>294.91</ele>
<time>2015-04-24T16:31:19Z</time>
</trkpt>
<trkpt lat="34.8877566" lon="32.3737809">
<ele>294.92</ele>
<time>2015-04-24T16:31:21Z</time>
</trkpt>
<trkpt lat="34.8877637" lon="32.3737221">
<ele>295.67</ele>
<time>2015-04-24T16:31:23Z</time>
</trkpt>
<trkpt lat="34.8877710" lon="32.3736438">
<ele>296.64</ele>
<time>2015-04-24T16:31:26Z</time>
</trkpt>
<trkpt lat="34.8877739" lon="32.3735632">
<ele>297.64</ele>
<time>2015-04-24T16:31:29Z</time>
</trkpt>
<trkpt lat="34.8877769" lon="32.3735014">
<ele>297.85</ele>
<time>2015-04-24T16:31:31Z</time>
</trkpt>
<trkpt lat="34.8877817" lon="32.3734410">
<ele>297.91</ele>
<time>2015-04-24T16:31:33Z</time>
</trkpt>
<trkpt lat="34.8877861" lon="32.3733843">
<ele>298.17</ele>
<time>2015-04-24T16:31:35Z</time>
</trkpt>
<trkpt lat="34.8877929" lon="32.3733269">
<ele>298.74</ele>
<time>2015-04-24T16:31:37Z</time>
</trkpt>
<trkpt lat="34.8878015" lon="32.3732704">
<ele>298.88</ele>
<time>2015-04-24T16:31:39Z</time>
</trkpt>
<trkpt lat="34.8878068" lon="32.3732114">
<ele>299.66</ele>
<time>2015-04-24T16:31:41Z</time>
</trkpt>
<trkpt lat="34.8878217" lon="32.3731335">
<ele>299.39</ele>
<time>2015-04-24T16:31:44Z</time>
</trkpt>
<trkpt lat="34.8878295" lon="32.3730641">
<ele>299.86</ele>
<time>2015-04-24T16:31:47Z</time>
</trkpt>
<trkpt lat="34.8878356" lon="32.3729863">
<ele>299.92</ele>
<time>2015-04-24T16:31:50Z</time>
</trkpt>
<trkpt lat="34.8878420" lon="32.3729038">
<ele>300.42</ele>
<time>2015-04-24T16:31:53Z</time>
</trkpt>
<trkpt lat="34.8878422" lon="32.3728454">
<ele>301.30</ele>
<time>2015-04-24T16:31:55Z</time>
</trkpt>
<trkpt lat="34.8878462" lon="32.3727853">
<ele>301.02</ele>
<time>2015-04-24T16:31:57Z</time>
</trkpt>
<trkpt lat="34.8878496" lon="32.3727255">
<ele>301.70</ele>
<time>2015-04-24T16:31:59Z</time>
</trkpt>
<trkpt lat="34.8878541" lon="32.3726652">
<ele>302.62</ele>
<time>2015-04-24T16:32:01Z</time>
</trkpt>
<trkpt lat="34.8878599" lon="32.3726096">
<ele>303.35</ele>
<time>2015-04-24T16:32:03Z</time>
</trkpt>
<trkpt lat="34.8878669" lon="32.3725535">
<ele>303.78</ele>
<time>2015-04-24T16:32:05Z</time>
</trkpt>
<trkpt lat="34.8878769" lon="32.3724986">
<ele>304.39</ele>
<time>2015-04-24T16:32:07Z</time>
</trkpt>
<trkpt lat="34.8878860" lon="32.3724326">
<ele>304.73</ele>
<time>2015-04-24T16:32:10Z</time>
</trkpt>
<trkpt lat="34.8878964" lon="32.3723675">
<ele>304.91</ele>
<time>2015-04-24T16:32:14Z</time>
</trkpt>
<trkpt lat="34.8879060" lon="32.3723128">
<ele>304.05</ele>
<time>2015-04-24T16:32:17Z</time>
</trkpt>
<trkpt lat="34.8879155" lon="32.3722362">
<ele>304.82</ele>
<time>2015-04-24T16:32:20Z</time>
</trkpt>
<trkpt lat="34.8879304" lon="32.3721579">
<ele>305.79</ele>
<time>2015-04-24T16:32:23Z</time>
</trkpt>
<trkpt lat="34.8879492" lon="32.3720854">
<ele>305.91</ele>
<time>2015-04-24T16:32:26Z</time>
</trkpt>
<trkpt lat="34.8879577" lon="32.3720154">
<ele>306.42</ele>
<time>2015-04-24T16:32:29Z</time>
</trkpt>
<trkpt lat="34.8879687" lon="32.3719590">
<ele>306.86</ele>
<time>2015-04-24T16:32:32Z</time>
</trkpt>
<trkpt lat="34.8879858" lon="32.3718973">
<ele>306.92</ele>
<time>2015-04-24T16:32:35Z</time>
</trkpt>
<trkpt lat="34.8880084" lon="32.3718276">
<ele>306.92</ele>
<time>2015-04-24T16:32:38Z</time>
</trkpt>
<trkpt lat="34.8880353" lon="32.3717652">
<ele>307.17</ele>
<time>2015-04-24T16:32:41Z</time>
</trkpt>
<trkpt lat="34.8880666" lon="32.3717045">
<ele>306.96</ele>
<time>2015-04-24T16:32:44Z</time>
</trkpt>
<trkpt lat="34.8880942" lon="32.3716410">
<ele>306.55</ele>
<time>2015-04-24T16:32:47Z</time>
</trkpt>
<trkpt lat="34.8881276" lon="32.3715758">
<ele>306.88</ele>
<time>2015-04-24T16:32:50Z</time>
</trkpt>
<trkpt lat="34.8881624" lon="32.3715119">
<ele>307.67</ele>
<time>2015-04-24T16:32:53Z</time>
</trkpt>
<trkpt lat="34.8881874" lon="32.3714653">
<ele>308.61</ele>
<time>2015-04-24T16:32:55Z</time>
</trkpt>
<trkpt lat="34.8882145" lon="32.3714186">
<ele>309.60</ele>
<time>2015-04-24T16:32:57Z</time>
</trkpt>
<trkpt lat="34.8882434" lon="32.3713625">
<ele>309.26</ele>
<time>2015-04-24T16:33:00Z</time>
</trkpt>
<trkpt lat="34.8882813" lon="32.3713045">
<ele>309.84</ele>
<time>2015-04-24T16:33:03Z</time>
</trkpt>
<trkpt lat="34.8883236" lon="32.3712450">
<ele>311.29</ele>
<time>2015-04-24T16:33:06Z</time>
</trkpt>
<trkpt lat="34.8883531" lon="32.3712024">
<ele>311.27</ele>
<time>2015-04-24T16:33:08Z</time>
</trkpt>
<trkpt lat="34.8883805" lon="32.3711558">
<ele>310.76</ele>
<time>2015-04-24T16:33:10Z</time>
</trkpt>
<trkpt lat="34.8884231" lon="32.3710932">
<ele>311.78</ele>
<time>2015-04-24T16:33:13Z</time>
</trkpt>
<trkpt lat="34.8884683" lon="32.3710368">
<ele>311.91</ele>
<time>2015-04-24T16:33:16Z</time>
</trkpt>
<trkpt lat="34.8885132" lon="32.3709787">
<ele>312.80</ele>
<time>2015-04-24T16:33:19Z</time>
</trkpt>
<trkpt lat="34.8885613" lon="32.3709170">
<ele>312.91</ele>
<time>2015-04-24T16:33:22Z</time>
</trkpt>
<trkpt lat="34.8885926" lon="32.3708762">
<ele>312.92</ele>
<time>2015-04-24T16:33:24Z</time>
</trkpt>
<trkpt lat="34.8886406" lon="32.3708208">
<ele>312.92</ele>
<time>2015-04-24T16:33:27Z</time>
</trkpt>
<trkpt lat="34.8886720" lon="32.3707804">
<ele>313.67</ele>
<time>2015-04-24T16:33:29Z</time>
</trkpt>
<trkpt lat="34.8887179" lon="32.3707231">
<ele>313.89</ele>
<time>2015-04-24T16:33:32Z</time>
</trkpt>
<trkpt lat="34.8887574" lon="32.3706670">
<ele>314.42</ele>
<time>2015-04-24T16:33:35Z</time>
</trkpt>
<trkpt lat="34.8887995" lon="32.3706109">
<ele>315.36</ele>
<time>2015-04-24T16:33:38Z</time>
</trkpt>
<trkpt lat="34.8888325" lon="32.3705712">
<ele>315.78</ele>
<time>2015-04-24T16:33:40Z</time>
</trkpt>
<trkpt lat="34.8888669" lon="32.3705341">
<ele>315.89</ele>
<time>2015-04-24T16:33:42Z</time>
</trkpt>
<trkpt lat="34.8889153" lon="32.3704789">
<ele>315.92</ele>
<time>2015-04-24T16:33:45Z</time>
</trkpt>
<trkpt lat="34.8889650" lon="32.3704223">
<ele>316.80</ele>
<time>2015-04-24T16:33:48Z</time>
</trkpt>
<trkpt lat="34.8890137" lon="32.3703676">
<ele>316.78</ele>
<time>2015-04-24T16:33:51Z</time>
</trkpt>
<trkpt lat="34.8890641" lon="32.3703156">
<ele>316.91</ele>
<time>2015-04-24T16:33:54Z</time>
</trkpt>
<trkpt lat="34.8891119" lon="32.3702607">
<ele>316.92</ele>
<time>2015-04-24T16:33:57Z</time>
</trkpt>
<trkpt lat="34.8891430" lon="32.3702181">
<ele>316.92</ele>
<time>2015-04-24T16:33:59Z</time>
</trkpt>
<trkpt lat="34.8891822" lon="32.3701769">
<ele>317.42</ele>
<time>2015-04-24T16:34:01Z</time>
</trkpt>
<trkpt lat="34.8892167" lon="32.3701360">
<ele>317.80</ele>
<time>2015-04-24T16:34:03Z</time>
</trkpt>
<trkpt lat="34.8892524" lon="32.3700952">
<ele>317.89</ele>
<time>2015-04-24T16:34:05Z</time>
</trkpt>
<trkpt lat="34.8892889" lon="32.3700550">
<ele>318.67</ele>
<time>2015-04-24T16:34:07Z</time>
</trkpt>
<trkpt lat="34.8893220" lon="32.3700130">
<ele>318.86</ele>
<time>2015-04-24T16:34:09Z</time>
</trkpt>
<trkpt lat="34.8893552" lon="32.3699734">
<ele>319.41</ele>
<time>2015-04-24T16:34:11Z</time>
</trkpt>
<trkpt lat="34.8893902" lon="32.3699337">
<ele>319.80</ele>
<time>2015-04-24T16:34:13Z</time>
</trkpt>
<trkpt lat="34.8894230" lon="32.3698960">
<ele>319.89</ele>
<time>2015-04-24T16:34:15Z</time>
</trkpt>
<trkpt lat="34.8894637" lon="32.3698467">
<ele>319.92</ele>
<time>2015-04-24T16:34:18Z</time>
</trkpt>
<trkpt lat="34.8895158" lon="32.3697848">
<ele>319.92</ele>
<time>2015-04-24T16:34:21Z</time>
</trkpt>
<trkpt lat="34.8895565" lon="32.3697340">
<ele>319.92</ele>
<time>2015-04-24T16:34:23Z</time>
</trkpt>
<trkpt lat="34.8896005" lon="32.3696832">
<ele>319.92</ele>
<time>2015-04-24T16:34:25Z</time>
</trkpt>
<trkpt lat="34.8896391" lon="32.3696326">
<ele>320.42</ele>
<time>2015-04-24T16:34:27Z</time>
</trkpt>
<trkpt lat="34.8896767" lon="32.3695648">
<ele>320.86</ele>
<time>2015-04-24T16:34:30Z</time>
</trkpt>
<trkpt lat="34.8897151" lon="32.3695016">
<ele>321.41</ele>
<time>2015-04-24T16:34:32Z</time>
</trkpt>
<trkpt lat="34.8897514" lon="32.3694306">
<ele>321.80</ele>
<time>2015-04-24T16:34:34Z</time>
</trkpt>
<trkpt lat="34.8897826" lon="32.3693650">
<ele>321.89</ele>
<time>2015-04-24T16:34:36Z</time>
</trkpt>
<trkpt lat="34.8898101" lon="32.3693010">
<ele>322.42</ele>
<time>2015-04-24T16:34:38Z</time>
</trkpt>
<trkpt lat="34.8898352" lon="32.3692357">
<ele>322.80</ele>
<time>2015-04-24T16:34:40Z</time>
</trkpt>
<trkpt lat="34.8898574" lon="32.3691703">
<ele>323.39</ele>
<time>2015-04-24T16:34:42Z</time>
</trkpt>
<trkpt lat="34.8898795" lon="32.3691072">
<ele>323.79</ele>
<time>2015-04-24T16:34:44Z</time>
</trkpt>
<trkpt lat="34.8899023" lon="32.3690415">
<ele>323.89</ele>
<time>2015-04-24T16:34:46Z</time>
</trkpt>
<trkpt lat="34.8899290" lon="32.3689740">
<ele>324.67</ele>
<time>2015-04-24T16:34:48Z</time>
</trkpt>
<trkpt lat="34.8899502" lon="32.3689054">
<ele>325.36</ele>
<time>2015-04-24T16:34:50Z</time>
</trkpt>
<trkpt lat="34.8899701" lon="32.3688405">
<ele>325.03</ele>
<time>2015-04-24T16:34:52Z</time>
</trkpt>
<trkpt lat="34.8899892" lon="32.3687633">
<ele>324.94</ele>
<time>2015-04-24T16:34:55Z</time>
</trkpt>
<trkpt lat="34.8900000" lon="32.3687071">
<ele>325.68</ele>
<time>2015-04-24T16:34:57Z</time>
</trkpt>
<trkpt lat="34.8900123" lon="32.3686497">
<ele>326.36</ele>
<time>2015-04-24T16:34:59Z</time>
</trkpt>
<trkpt lat="34.8900248" lon="32.3685879">
<ele>326.78</ele>
<time>2015-04-24T16:35:01Z</time>
</trkpt>
<trkpt lat="34.8900408" lon="32.3685285">
<ele>326.89</ele>
<time>2015-04-24T16:35:03Z</time>
</trkpt>
<trkpt lat="34.8900547" lon="32.3684710">
<ele>326.92</ele>
<time>2015-04-24T16:35:05Z</time>
</trkpt>
<trkpt lat="34.8900666" lon="32.3684144">
<ele>327.17</ele>
<time>2015-04-24T16:35:07Z</time>
</trkpt>
<trkpt lat="34.8900799" lon="32.3683513">
<ele>327.74</ele>
<time>2015-04-24T16:35:09Z</time>
</trkpt>
<trkpt lat="34.8900948" lon="32.3682899">
<ele>327.88</ele>
<time>2015-04-24T16:35:11Z</time>
</trkpt>
<trkpt lat="34.8901127" lon="32.3682256">
<ele>328.66</ele>
<time>2015-04-24T16:35:13Z</time>
</trkpt>
<trkpt lat="34.8901278" lon="32.3681663">
<ele>328.86</ele>
<time>2015-04-24T16:35:15Z</time>
</trkpt>
<trkpt lat="34.8901422" lon="32.3681103">
<ele>329.41</ele>
<time>2015-04-24T16:35:17Z</time>
</trkpt>
<trkpt lat="34.8901576" lon="32.3680556">
<ele>329.05</ele>
<time>2015-04-24T16:35:19Z</time>
</trkpt>
<trkpt lat="34.8901733" lon="32.3679982">
<ele>328.96</ele>
<time>2015-04-24T16:35:21Z</time>
</trkpt>
<trkpt lat="34.8901874" lon="32.3679423">
<ele>329.68</ele>
<time>2015-04-24T16:35:23Z</time>
</trkpt>
<trkpt lat="34.8902027" lon="32.3678891">
<ele>330.36</ele>
<time>2015-04-24T16:35:25Z</time>
</trkpt>
<trkpt lat="34.8902245" lon="32.3678120">
<ele>330.10</ele>
<time>2015-04-24T16:35:28Z</time>
</trkpt>
<trkpt lat="34.8902455" lon="32.3677371">
<ele>330.20</ele>
<time>2015-04-24T16:35:31Z</time>
</trkpt>
<trkpt lat="34.8902664" lon="32.3676618">
<ele>329.08</ele>
<time>2015-04-24T16:35:34Z</time>
</trkpt>
<trkpt lat="34.8902948" lon="32.3675900">
<ele>329.82</ele>
<time>2015-04-24T16:35:37Z</time>
</trkpt>
<trkpt lat="34.8903093" lon="32.3675368">
<ele>329.90</ele>
<time>2015-04-24T16:35:39Z</time>
</trkpt>
<trkpt lat="34.8903299" lon="32.3674838">
<ele>328.17</ele>
<time>2015-04-24T16:35:41Z</time>
</trkpt>
<trkpt lat="34.8903521" lon="32.3674330">
<ele>327.74</ele>
<time>2015-04-24T16:35:43Z</time>
</trkpt>
<trkpt lat="34.8903697" lon="32.3673814">
<ele>327.88</ele>
<time>2015-04-24T16:35:45Z</time>
</trkpt>
<trkpt lat="34.8903809" lon="32.3673180">
<ele>328.67</ele>
<time>2015-04-24T16:35:48Z</time>
</trkpt>
<trkpt lat="34.8903945" lon="32.3672574">
<ele>328.64</ele>
<time>2015-04-24T16:35:51Z</time>
</trkpt>
<trkpt lat="34.8904076" lon="32.3671933">
<ele>328.64</ele>
<time>2015-04-24T16:35:54Z</time>
</trkpt>
<trkpt lat="34.8904232" lon="32.3671359">
<ele>330.14</ele>
<time>2015-04-24T16:35:57Z</time>
</trkpt>
<trkpt lat="34.8904431" lon="32.3670772">
<ele>330.75</ele>
<time>2015-04-24T16:36:01Z</time>
</trkpt>
<trkpt lat="34.8904372" lon="32.3670072">
<ele>330.91</ele>
<time>2015-04-24T16:36:05Z</time>
</trkpt>
<trkpt lat="34.8904698" lon="32.3669481">
<ele>331.46</ele>
<time>2015-04-24T16:37:57Z</time>
</trkpt>
<trkpt lat="34.8904958" lon="32.3668772">
<ele>331.87</ele>
<time>2015-04-24T16:38:00Z</time>
</trkpt>
<trkpt lat="34.8905184" lon="32.3668198">
<ele>331.91</ele>
<time>2015-04-24T16:38:02Z</time>
</trkpt>
<trkpt lat="34.8905441" lon="32.3667411">
<ele>331.17</ele>
<time>2015-04-24T16:38:04Z</time>
</trkpt>
<trkpt lat="34.8905709" lon="32.3666404">
<ele>331.24</ele>
<time>2015-04-24T16:38:06Z</time>
</trkpt>
<trkpt lat="34.8905863" lon="32.3665833">
<ele>331.08</ele>
<time>2015-04-24T16:38:07Z</time>
</trkpt>
<trkpt lat="34.8906037" lon="32.3665087">
<ele>330.50</ele>
<time>2015-04-24T16:38:08Z</time>
</trkpt>
<trkpt lat="34.8906146" lon="32.3664453">
<ele>329.71</ele>
<time>2015-04-24T16:38:09Z</time>
</trkpt>
<trkpt lat="34.8906296" lon="32.3663692">
<ele>329.32</ele>
<time>2015-04-24T16:38:10Z</time>
</trkpt>
<trkpt lat="34.8906406" lon="32.3662890">
<ele>329.12</ele>
<time>2015-04-24T16:38:11Z</time>
</trkpt>
<trkpt lat="34.8906532" lon="32.3661987">
<ele>329.52</ele>
<time>2015-04-24T16:38:12Z</time>
</trkpt>
<trkpt lat="34.8906698" lon="32.3661112">
<ele>329.72</ele>
<time>2015-04-24T16:38:13Z</time>
</trkpt>
<trkpt lat="34.8906838" lon="32.3660226">
<ele>329.82</ele>
<time>2015-04-24T16:38:14Z</time>
</trkpt>
<trkpt lat="34.8907024" lon="32.3659456">
<ele>329.37</ele>
<time>2015-04-24T16:38:15Z</time>
</trkpt>
<trkpt lat="34.8907292" lon="32.3658705">
<ele>328.65</ele>
<time>2015-04-24T16:38:16Z</time>
</trkpt>
<trkpt lat="34.8907582" lon="32.3658018">
<ele>328.29</ele>
<time>2015-04-24T16:38:17Z</time>
</trkpt>
<trkpt lat="34.8907959" lon="32.3657429">
<ele>327.61</ele>
<time>2015-04-24T16:38:18Z</time>
</trkpt>
<trkpt lat="34.8908383" lon="32.3656860">
<ele>327.27</ele>
<time>2015-04-24T16:38:19Z</time>
</trkpt>
<trkpt lat="34.8908764" lon="32.3656315">
<ele>327.10</ele>
<time>2015-04-24T16:38:20Z</time>
</trkpt>
<trkpt lat="34.8909132" lon="32.3655862">
<ele>327.01</ele>
<time>2015-04-24T16:38:21Z</time>
</trkpt>
<trkpt lat="34.8909507" lon="32.3655386">
<ele>327.47</ele>
<time>2015-04-24T16:38:22Z</time>
</trkpt>
<trkpt lat="34.8909871" lon="32.3654986">
<ele>327.20</ele>
<time>2015-04-24T16:38:23Z</time>
</trkpt>
<trkpt lat="34.8910407" lon="32.3654272">
<ele>327.24</ele>
<time>2015-04-24T16:38:25Z</time>
</trkpt>
<trkpt lat="34.8910866" lon="32.3653728">
<ele>327.75</ele>
<time>2015-04-24T16:38:27Z</time>
</trkpt>
<trkpt lat="34.8911205" lon="32.3653160">
<ele>328.78</ele>
<time>2015-04-24T16:38:30Z</time>
</trkpt>
<trkpt lat="34.8911423" lon="32.3652484">
<ele>328.92</ele>
<time>2015-04-24T16:38:35Z</time>
</trkpt>
<trkpt lat="34.8911586" lon="32.3651942">
<ele>329.67</ele>
<time>2015-04-24T16:38:37Z</time>
</trkpt>
<trkpt lat="34.8911822" lon="32.3651152">
<ele>330.61</ele>
<time>2015-04-24T16:38:39Z</time>
</trkpt>
<trkpt lat="34.8912028" lon="32.3650306">
<ele>331.60</ele>
<time>2015-04-24T16:38:41Z</time>
</trkpt>
<trkpt lat="34.8912178" lon="32.3649518">
<ele>332.34</ele>
<time>2015-04-24T16:38:43Z</time>
</trkpt>
<trkpt lat="34.8912307" lon="32.3648817">
<ele>332.78</ele>
<time>2015-04-24T16:38:45Z</time>
</trkpt>
<trkpt lat="34.8912460" lon="32.3648182">
<ele>332.64</ele>
<time>2015-04-24T16:38:47Z</time>
</trkpt>
<trkpt lat="34.8912593" lon="32.3647533">
<ele>332.85</ele>
<time>2015-04-24T16:38:49Z</time>
</trkpt>
<trkpt lat="34.8912762" lon="32.3646907">
<ele>332.41</ele>
<time>2015-04-24T16:38:51Z</time>
</trkpt>
<trkpt lat="34.8912890" lon="32.3646272">
<ele>332.55</ele>
<time>2015-04-24T16:38:53Z</time>
</trkpt>
<trkpt lat="34.8912987" lon="32.3645634">
<ele>332.58</ele>
<time>2015-04-24T16:38:55Z</time>
</trkpt>
<trkpt lat="34.8913096" lon="32.3644971">
<ele>332.84</ele>
<time>2015-04-24T16:38:57Z</time>
</trkpt>
<trkpt lat="34.8913232" lon="32.3644327">
<ele>332.90</ele>
<time>2015-04-24T16:38:59Z</time>
</trkpt>
<trkpt lat="34.8913420" lon="32.3643665">
<ele>332.92</ele>
<time>2015-04-24T16:39:01Z</time>
</trkpt>
<trkpt lat="34.8913587" lon="32.3643037">
<ele>332.92</ele>
<time>2015-04-24T16:39:03Z</time>
</trkpt>
<trkpt lat="34.8913718" lon="32.3642377">
<ele>333.42</ele>
<time>2015-04-24T16:39:05Z</time>
</trkpt>
<trkpt lat="34.8913836" lon="32.3641751">
<ele>333.80</ele>
<time>2015-04-24T16:39:07Z</time>
</trkpt>
<trkpt lat="34.8913984" lon="32.3641113">
<ele>335.14</ele>
<time>2015-04-24T16:39:09Z</time>
</trkpt>
<trkpt lat="34.8914138" lon="32.3640498">
<ele>335.73</ele>
<time>2015-04-24T16:39:11Z</time>
</trkpt>
<trkpt lat="34.8914330" lon="32.3639856">
<ele>336.13</ele>
<time>2015-04-24T16:39:13Z</time>
</trkpt>
<trkpt lat="34.8914546" lon="32.3639255">
<ele>335.98</ele>
<time>2015-04-24T16:39:15Z</time>
</trkpt>
<trkpt lat="34.8914732" lon="32.3638662">
<ele>336.44</ele>
<time>2015-04-24T16:39:17Z</time>
</trkpt>
<trkpt lat="34.8914943" lon="32.3638054">
<ele>336.80</ele>
<time>2015-04-24T16:39:19Z</time>
</trkpt>
<trkpt lat="34.8915192" lon="32.3637455">
<ele>337.14</ele>
<time>2015-04-24T16:39:21Z</time>
</trkpt>
<trkpt lat="34.8915472" lon="32.3636925">
<ele>336.98</ele>
<time>2015-04-24T16:39:23Z</time>
</trkpt>
<trkpt lat="34.8915748" lon="32.3636322">
<ele>337.69</ele>
<time>2015-04-24T16:39:25Z</time>
</trkpt>
<trkpt lat="34.8916077" lon="32.3635785">
<ele>337.37</ele>
<time>2015-04-24T16:39:27Z</time>
</trkpt>
<trkpt lat="34.8916429" lon="32.3635289">
<ele>337.04</ele>
<time>2015-04-24T16:39:29Z</time>
</trkpt>
<trkpt lat="34.8916759" lon="32.3634808">
<ele>337.45</ele>
<time>2015-04-24T16:39:31Z</time>
</trkpt>
<trkpt lat="34.8917143" lon="32.3634273">
<ele>338.56</ele>
<time>2015-04-24T16:39:33Z</time>
</trkpt>
<trkpt lat="34.8917499" lon="32.3633709">
<ele>339.33</ele>
<time>2015-04-24T16:39:35Z</time>
</trkpt>
<trkpt lat="34.8917930" lon="32.3633209">
<ele>340.28</ele>
<time>2015-04-24T16:39:37Z</time>
</trkpt>
<trkpt lat="34.8918356" lon="32.3632716">
<ele>340.51</ele>
<time>2015-04-24T16:39:39Z</time>
</trkpt>
<trkpt lat="34.8918802" lon="32.3632202">
<ele>341.32</ele>
<time>2015-04-24T16:39:41Z</time>
</trkpt>
<trkpt lat="34.8919266" lon="32.3631743">
<ele>341.77</ele>
<time>2015-04-24T16:39:43Z</time>
</trkpt>
<trkpt lat="34.8919762" lon="32.3631320">
<ele>342.39</ele>
<time>2015-04-24T16:39:45Z</time>
</trkpt>
<trkpt lat="34.8920267" lon="32.3630942">
<ele>342.29</ele>
<time>2015-04-24T16:39:47Z</time>
</trkpt>
<trkpt lat="34.8920782" lon="32.3630562">
<ele>342.02</ele>
<time>2015-04-24T16:39:49Z</time>
</trkpt>
<trkpt lat="34.8921296" lon="32.3630242">
<ele>342.45</ele>
<time>2015-04-24T16:39:51Z</time>
</trkpt>
<trkpt lat="34.8921807" lon="32.3629973">
<ele>343.56</ele>
<time>2015-04-24T16:39:53Z</time>
</trkpt>
<trkpt lat="34.8922317" lon="32.3629683">
<ele>343.83</ele>
<time>2015-04-24T16:39:55Z</time>
</trkpt>
<trkpt lat="34.8922873" lon="32.3629376">
<ele>343.90</ele>
<time>2015-04-24T16:39:57Z</time>
</trkpt>
<trkpt lat="34.8923460" lon="32.3629156">
<ele>343.92</ele>
<time>2015-04-24T16:39:59Z</time>
</trkpt>
<trkpt lat="34.8924080" lon="32.3628989">
<ele>343.92</ele>
<time>2015-04-24T16:40:01Z</time>
</trkpt>
<trkpt lat="34.8924680" lon="32.3628900">
<ele>343.42</ele>
<time>2015-04-24T16:40:03Z</time>
</trkpt>
<trkpt lat="34.8925289" lon="32.3628801">
<ele>343.80</ele>
<time>2015-04-24T16:40:05Z</time>
</trkpt>
<trkpt lat="34.8925882" lon="32.3628718">
<ele>343.89</ele>
<time>2015-04-24T16:40:07Z</time>
</trkpt>
<trkpt lat="34.8926500" lon="32.3628746">
<ele>344.42</ele>
<time>2015-04-24T16:40:09Z</time>
</trkpt>
<trkpt lat="34.8927102" lon="32.3628752">
<ele>344.80</ele>
<time>2015-04-24T16:40:11Z</time>
</trkpt>
<trkpt lat="34.8927676" lon="32.3628728">
<ele>344.89</ele>
<time>2015-04-24T16:40:13Z</time>
</trkpt>
<trkpt lat="34.8928217" lon="32.3628736">
<ele>344.17</ele>
<time>2015-04-24T16:40:15Z</time>
</trkpt>
<trkpt lat="34.8928776" lon="32.3628725">
<ele>343.99</ele>
<time>2015-04-24T16:40:17Z</time>
</trkpt>
<trkpt lat="34.8929324" lon="32.3628736">
<ele>343.94</ele>
<time>2015-04-24T16:40:19Z</time>
</trkpt>
<trkpt lat="34.8929883" lon="32.3628785">
<ele>344.43</ele>
<time>2015-04-24T16:40:21Z</time>
</trkpt>
<trkpt lat="34.8930409" lon="32.3628868">
<ele>344.80</ele>
<time>2015-04-24T16:40:23Z</time>
</trkpt>
<trkpt lat="34.8930944" lon="32.3629031">
<ele>345.39</ele>
<time>2015-04-24T16:40:25Z</time>
</trkpt>
<trkpt lat="34.8931484" lon="32.3629270">
<ele>345.79</ele>
<time>2015-04-24T16:40:27Z</time>
</trkpt>
<trkpt lat="34.8932060" lon="32.3629459">
<ele>346.39</ele>
<time>2015-04-24T16:40:29Z</time>
</trkpt>
<trkpt lat="34.8932607" lon="32.3629619">
<ele>346.04</ele>
<time>2015-04-24T16:40:31Z</time>
</trkpt>
<trkpt lat="34.8933142" lon="32.3629920">
<ele>345.45</ele>
<time>2015-04-24T16:40:33Z</time>
</trkpt>
<trkpt lat="34.8933638" lon="32.3630237">
<ele>345.81</ele>
<time>2015-04-24T16:40:35Z</time>
</trkpt>
<trkpt lat="34.8934122" lon="32.3630613">
<ele>345.90</ele>
<time>2015-04-24T16:40:37Z</time>
</trkpt>
<trkpt lat="34.8934587" lon="32.3630986">
<ele>345.92</ele>
<time>2015-04-24T16:40:39Z</time>
</trkpt>
<trkpt lat="34.8935093" lon="32.3631325">
<ele>346.42</ele>
<time>2015-04-24T16:40:41Z</time>
</trkpt>
<trkpt lat="34.8935596" lon="32.3631640">
<ele>346.55</ele>
<time>2015-04-24T16:40:43Z</time>
</trkpt>
<trkpt lat="34.8936086" lon="32.3632025">
<ele>346.58</ele>
<time>2015-04-24T16:40:45Z</time>
</trkpt>
<trkpt lat="34.8936544" lon="32.3632509">
<ele>346.34</ele>
<time>2015-04-24T16:40:47Z</time>
</trkpt>
<trkpt lat="34.8936996" lon="32.3633079">
<ele>345.78</ele>
<time>2015-04-24T16:40:49Z</time>
</trkpt>
<trkpt lat="34.8937456" lon="32.3633634">
<ele>345.89</ele>
<time>2015-04-24T16:40:51Z</time>
</trkpt>
<trkpt lat="34.8937904" lon="32.3634204">
<ele>345.92</ele>
<time>2015-04-24T16:40:53Z</time>
</trkpt>
<trkpt lat="34.8938326" lon="32.3634760">
<ele>345.92</ele>
<time>2015-04-24T16:40:55Z</time>
</trkpt>
<trkpt lat="34.8938760" lon="32.3635371">
<ele>345.92</ele>
<time>2015-04-24T16:40:57Z</time>
</trkpt>
<trkpt lat="34.8939117" lon="32.3636073">
<ele>346.67</ele>
<time>2015-04-24T16:40:59Z</time>
</trkpt>
<trkpt lat="34.8939455" lon="32.3636836">
<ele>347.61</ele>
<time>2015-04-24T16:41:01Z</time>
</trkpt>
<trkpt lat="34.8939801" lon="32.3637556">
<ele>347.85</ele>
<time>2015-04-24T16:41:03Z</time>
</trkpt>
<trkpt lat="34.8940150" lon="32.3638284">
<ele>348.41</ele>
<time>2015-04-24T16:41:05Z</time>
</trkpt>
<trkpt lat="34.8940446" lon="32.3639007">
<ele>348.05</ele>
<time>2015-04-24T16:41:07Z</time>
</trkpt>
<trkpt lat="34.8940717" lon="32.3639767">
<ele>347.96</ele>
<time>2015-04-24T16:41:09Z</time>
</trkpt>
<trkpt lat="34.8941051" lon="32.3640492">
<ele>350.18</ele>
<time>2015-04-24T16:41:11Z</time>
</trkpt>
<trkpt lat="34.8941444" lon="32.3641262">
<ele>350.74</ele>
<time>2015-04-24T16:41:13Z</time>
</trkpt>
<trkpt lat="34.8941787" lon="32.3642047">
<ele>350.88</ele>
<time>2015-04-24T16:41:15Z</time>
</trkpt>
<trkpt lat="34.8942124" lon="32.3642878">
<ele>351.66</ele>
<time>2015-04-24T16:41:17Z</time>
</trkpt>
<trkpt lat="34.8942476" lon="32.3643681">
<ele>352.36</ele>
<time>2015-04-24T16:41:19Z</time>
</trkpt>
<trkpt lat="34.8942896" lon="32.3644466">
<ele>353.78</ele>
<time>2015-04-24T16:41:21Z</time>
</trkpt>
<trkpt lat="34.8943348" lon="32.3645194">
<ele>353.64</ele>
<time>2015-04-24T16:41:23Z</time>
</trkpt>
<trkpt lat="34.8943726" lon="32.3646004">
<ele>354.35</ele>
<time>2015-04-24T16:41:25Z</time>
</trkpt>
<trkpt lat="34.8944043" lon="32.3646813">
<ele>356.03</ele>
<time>2015-04-24T16:41:27Z</time>
</trkpt>
<trkpt lat="34.8944409" lon="32.3647600">
<ele>356.70</ele>
<time>2015-04-24T16:41:29Z</time>
</trkpt>
<trkpt lat="34.8944770" lon="32.3648344">
<ele>356.62</ele>
<time>2015-04-24T16:41:31Z</time>
</trkpt>
<trkpt lat="34.8945146" lon="32.3649081">
<ele>356.85</ele>
<time>2015-04-24T16:41:33Z</time>
</trkpt>
<trkpt lat="34.8945478" lon="32.3649794">
<ele>357.66</ele>
<time>2015-04-24T16:41:35Z</time>
</trkpt>
<trkpt lat="34.8945769" lon="32.3650547">
<ele>357.86</ele>
<time>2015-04-24T16:41:37Z</time>
</trkpt>
<trkpt lat="34.8946049" lon="32.3651314">
<ele>358.66</ele>
<time>2015-04-24T16:41:39Z</time>
</trkpt>
<trkpt lat="34.8946332" lon="32.3652051">
<ele>358.36</ele>
<time>2015-04-24T16:41:41Z</time>
</trkpt>
<trkpt lat="34.8946575" lon="32.3652762">
<ele>358.28</ele>
<time>2015-04-24T16:41:43Z</time>
</trkpt>
<trkpt lat="34.8946856" lon="32.3653426">
<ele>358.01</ele>
<time>2015-04-24T16:41:45Z</time>
</trkpt>
<trkpt lat="34.8947141" lon="32.3654011">
<ele>357.20</ele>
<time>2015-04-24T16:41:47Z</time>
</trkpt>
<trkpt lat="34.8947431" lon="32.3654590">
<ele>356.24</ele>
<time>2015-04-24T16:41:49Z</time>
</trkpt>
<trkpt lat="34.8947696" lon="32.3655172">
<ele>356.75</ele>
<time>2015-04-24T16:41:51Z</time>
</trkpt>
<trkpt lat="34.8947963" lon="32.3655788">
<ele>356.88</ele>
<time>2015-04-24T16:41:53Z</time>
</trkpt>
<trkpt lat="34.8948227" lon="32.3656415">
<ele>356.41</ele>
<time>2015-04-24T16:41:55Z</time>
</trkpt>
<trkpt lat="34.8948514" lon="32.3657094">
<ele>356.05</ele>
<time>2015-04-24T16:41:57Z</time>
</trkpt>
<trkpt lat="34.8948831" lon="32.3657747">
<ele>356.71</ele>
<time>2015-04-24T16:41:59Z</time>
</trkpt>
<trkpt lat="34.8949179" lon="32.3658368">
<ele>356.87</ele>
<time>2015-04-24T16:42:01Z</time>
</trkpt>
<trkpt lat="34.8949479" lon="32.3659014">
<ele>356.91</ele>
<time>2015-04-24T16:42:03Z</time>
</trkpt>
<trkpt lat="34.8949819" lon="32.3659645">
<ele>357.42</ele>
<time>2015-04-24T16:42:05Z</time>
</trkpt>
<trkpt lat="34.8950146" lon="32.3660272">
<ele>357.80</ele>
<time>2015-04-24T16:42:07Z</time>
</trkpt>
<trkpt lat="34.8950472" lon="32.3660892">
<ele>357.89</ele>
<time>2015-04-24T16:42:09Z</time>
</trkpt>
<trkpt lat="34.8950778" lon="32.3661470">
<ele>357.92</ele>
<time>2015-04-24T16:42:11Z</time>
</trkpt>
<trkpt lat="34.8951070" lon="32.3662060">
<ele>358.42</ele>
<time>2015-04-24T16:42:13Z</time>
</trkpt>
<trkpt lat="34.8951352" lon="32.3662628">
<ele>358.80</ele>
<time>2015-04-24T16:42:15Z</time>
</trkpt>
<trkpt lat="34.8951602" lon="32.3663272">
<ele>359.64</ele>
<time>2015-04-24T16:42:17Z</time>
</trkpt>
<trkpt lat="34.8951859" lon="32.3663917">
<ele>361.10</ele>
<time>2015-04-24T16:42:19Z</time>
</trkpt>
<trkpt lat="34.8952153" lon="32.3664573">
<ele>361.72</ele>
<time>2015-04-24T16:42:21Z</time>
</trkpt>
<trkpt lat="34.8952439" lon="32.3665226">
<ele>361.87</ele>
<time>2015-04-24T16:42:23Z</time>
</trkpt>
<trkpt lat="34.8952752" lon="32.3665897">
<ele>362.66</ele>
<time>2015-04-24T16:42:25Z</time>
</trkpt>
<trkpt lat="34.8953089" lon="32.3666577">
<ele>362.86</ele>
<time>2015-04-24T16:42:27Z</time>
</trkpt>
<trkpt lat="34.8953455" lon="32.3667331">
<ele>362.41</ele>
<time>2015-04-24T16:42:29Z</time>
</trkpt>
<trkpt lat="34.8953850" lon="32.3668036">
<ele>362.55</ele>
<time>2015-04-24T16:42:31Z</time>
</trkpt>
<trkpt lat="34.8954320" lon="32.3668647">
<ele>362.33</ele>
<time>2015-04-24T16:42:33Z</time>
</trkpt>
<trkpt lat="34.8954766" lon="32.3669236">
<ele>361.28</ele>
<time>2015-04-24T16:42:35Z</time>
</trkpt>
<trkpt lat="34.8955209" lon="32.3669909">
<ele>361.51</ele>
<time>2015-04-24T16:42:37Z</time>
</trkpt>
<trkpt lat="34.8955658" lon="32.3670551">
<ele>361.82</ele>
<time>2015-04-24T16:42:39Z</time>
</trkpt>
<trkpt lat="34.8956070" lon="32.3671250">
<ele>361.90</ele>
<time>2015-04-24T16:42:41Z</time>
</trkpt>
<trkpt lat="34.8956440" lon="32.3671934">
<ele>361.92</ele>
<time>2015-04-24T16:42:43Z</time>
</trkpt>
<trkpt lat="34.8956888" lon="32.3672536">
<ele>362.17</ele>
<time>2015-04-24T16:42:45Z</time>
</trkpt>
<trkpt lat="34.8957354" lon="32.3673073">
<ele>362.24</ele>
<time>2015-04-24T16:42:47Z</time>
</trkpt>
<trkpt lat="34.8957803" lon="32.3673622">
<ele>362.00</ele>
<time>2015-04-24T16:42:49Z</time>
</trkpt>
<trkpt lat="34.8958241" lon="32.3674180">
<ele>361.19</ele>
<time>2015-04-24T16:42:51Z</time>
</trkpt>
<trkpt lat="34.8958739" lon="32.3674739">
<ele>361.24</ele>
<time>2015-04-24T16:42:53Z</time>
</trkpt>
<trkpt lat="34.8959189" lon="32.3675349">
<ele>361.00</ele>
<time>2015-04-24T16:42:55Z</time>
</trkpt>
<trkpt lat="34.8959691" lon="32.3675933">
<ele>359.94</ele>
<time>2015-04-24T16:42:57Z</time>
</trkpt>
<trkpt lat="34.8960191" lon="32.3676531">
<ele>360.18</ele>
<time>2015-04-24T16:42:59Z</time>
</trkpt>
<trkpt lat="34.8960707" lon="32.3677205">
<ele>361.74</ele>
<time>2015-04-24T16:43:01Z</time>
</trkpt>
<trkpt lat="34.8961231" lon="32.3677827">
<ele>362.63</ele>
<time>2015-04-24T16:43:03Z</time>
</trkpt>
<trkpt lat="34.8961712" lon="32.3678489">
<ele>362.10</ele>
<time>2015-04-24T16:43:05Z</time>
</trkpt>
<trkpt lat="34.8962147" lon="32.3679166">
<ele>361.97</ele>
<time>2015-04-24T16:43:07Z</time>
</trkpt>
<trkpt lat="34.8962596" lon="32.3679771">
<ele>361.94</ele>
<time>2015-04-24T16:43:09Z</time>
</trkpt>
<trkpt lat="34.8963028" lon="32.3680330">
<ele>361.43</ele>
<time>2015-04-24T16:43:11Z</time>
</trkpt>
<trkpt lat="34.8963458" lon="32.3680952">
<ele>361.55</ele>
<time>2015-04-24T16:43:13Z</time>
</trkpt>
<trkpt lat="34.8963926" lon="32.3681527">
<ele>362.08</ele>
<time>2015-04-24T16:43:15Z</time>
</trkpt>
<trkpt lat="34.8964420" lon="32.3682079">
<ele>361.71</ele>
<time>2015-04-24T16:43:17Z</time>
</trkpt>
<trkpt lat="34.8964882" lon="32.3682656">
<ele>363.12</ele>
<time>2015-04-24T16:43:19Z</time>
</trkpt>
<trkpt lat="34.8965334" lon="32.3683320">
<ele>362.97</ele>
<time>2015-04-24T16:43:21Z</time>
</trkpt>
<trkpt lat="34.8965778" lon="32.3683966">
<ele>364.44</ele>
<time>2015-04-24T16:43:23Z</time>
</trkpt>
<trkpt lat="34.8966276" lon="32.3684581">
<ele>365.55</ele>
<time>2015-04-24T16:43:25Z</time>
</trkpt>
<trkpt lat="34.8966790" lon="32.3685142">
<ele>365.83</ele>
<time>2015-04-24T16:43:27Z</time>
</trkpt>
<trkpt lat="34.8967286" lon="32.3685736">
<ele>366.65</ele>
<time>2015-04-24T16:43:29Z</time>
</trkpt>
<trkpt lat="34.8967759" lon="32.3686335">
<ele>367.61</ele>
<time>2015-04-24T16:43:31Z</time>
</trkpt>
<trkpt lat="34.8968274" lon="32.3686873">
<ele>367.85</ele>
<time>2015-04-24T16:43:33Z</time>
</trkpt>
<trkpt lat="34.8968779" lon="32.3687392">
<ele>367.91</ele>
<time>2015-04-24T16:43:35Z</time>
</trkpt>
<trkpt lat="34.8969265" lon="32.3687926">
<ele>367.92</ele>
<time>2015-04-24T16:43:37Z</time>
</trkpt>
<trkpt lat="34.8969742" lon="32.3688472">
<ele>369.42</ele>
<time>2015-04-24T16:43:39Z</time>
</trkpt>
<trkpt lat="34.8970218" lon="32.3689054">
<ele>371.80</ele>
<time>2015-04-24T16:43:41Z</time>
</trkpt>
<trkpt lat="34.8970701" lon="32.3689676">
<ele>371.39</ele>
<time>2015-04-24T16:43:43Z</time>
</trkpt>
<trkpt lat="34.8971198" lon="32.3690205">
<ele>371.29</ele>
<time>2015-04-24T16:43:45Z</time>
</trkpt>
<trkpt lat="34.8971636" lon="32.3690677">
<ele>372.27</ele>
<time>2015-04-24T16:43:47Z</time>
</trkpt>
<trkpt lat="34.8972024" lon="32.3691267">
<ele>372.51</ele>
<time>2015-04-24T16:43:49Z</time>
</trkpt>
<trkpt lat="34.8972388" lon="32.3691838">
<ele>374.07</ele>
<time>2015-04-24T16:43:51Z</time>
</trkpt>
<trkpt lat="34.8972740" lon="32.3692373">
<ele>375.21</ele>
<time>2015-04-24T16:43:53Z</time>
</trkpt>
<trkpt lat="34.8973053" lon="32.3692867">
<ele>375.00</ele>
<time>2015-04-24T16:43:55Z</time>
</trkpt>
<trkpt lat="34.8973454" lon="32.3693374">
<ele>374.69</ele>
<time>2015-04-24T16:43:57Z</time>
</trkpt>
<trkpt lat="34.8973735" lon="32.3693837">
<ele>375.62</ele>
<time>2015-04-24T16:43:59Z</time>
</trkpt>
<trkpt lat="34.8974107" lon="32.3694322">
<ele>375.35</ele>
<time>2015-04-24T16:44:01Z</time>
</trkpt>
<trkpt lat="34.8974507" lon="32.3694820">
<ele>376.53</ele>
<time>2015-04-24T16:44:03Z</time>
</trkpt>
<trkpt lat="34.8974870" lon="32.3695323">
<ele>376.83</ele>
<time>2015-04-24T16:44:05Z</time>
</trkpt>
<trkpt lat="34.8975170" lon="32.3695811">
<ele>378.90</ele>
<time>2015-04-24T16:44:07Z</time>
</trkpt>
<trkpt lat="34.8975524" lon="32.3696267">
<ele>380.17</ele>
<time>2015-04-24T16:44:09Z</time>
</trkpt>
<trkpt lat="34.8975939" lon="32.3696862">
<ele>380.71</ele>
<time>2015-04-24T16:44:12Z</time>
</trkpt>
<trkpt lat="34.8976251" lon="32.3697292">
<ele>378.62</ele>
<time>2015-04-24T16:44:14Z</time>
</trkpt>
<trkpt lat="34.8976565" lon="32.3697730">
<ele>377.60</ele>
<time>2015-04-24T16:44:16Z</time>
</trkpt>
<trkpt lat="34.8976912" lon="32.3698096">
<ele>377.59</ele>
<time>2015-04-24T16:44:18Z</time>
</trkpt>
<trkpt lat="34.8977288" lon="32.3698477">
<ele>377.34</ele>
<time>2015-04-24T16:44:20Z</time>
</trkpt>
<trkpt lat="34.8977645" lon="32.3698914">
<ele>375.28</ele>
<time>2015-04-24T16:44:22Z</time>
</trkpt>
<trkpt lat="34.8978012" lon="32.3699313">
<ele>374.76</ele>
<time>2015-04-24T16:44:24Z</time>
</trkpt>
<trkpt lat="34.8978387" lon="32.3699710">
<ele>373.38</ele>
<time>2015-04-24T16:44:26Z</time>
</trkpt>
<trkpt lat="34.8978740" lon="32.3700131">
<ele>373.04</ele>
<time>2015-04-24T16:44:28Z</time>
</trkpt>
<trkpt lat="34.8979114" lon="32.3700519">
<ele>372.95</ele>
<time>2015-04-24T16:44:30Z</time>
</trkpt>
<trkpt lat="34.8979506" lon="32.3700874">
<ele>371.68</ele>
<time>2015-04-24T16:44:32Z</time>
</trkpt>
<trkpt lat="34.8979839" lon="32.3701252">
<ele>371.61</ele>
<time>2015-04-24T16:44:34Z</time>
</trkpt>
<trkpt lat="34.8980104" lon="32.3701711">
<ele>372.60</ele>
<time>2015-04-24T16:44:36Z</time>
</trkpt>
<trkpt lat="34.8980405" lon="32.3702152">
<ele>373.59</ele>
<time>2015-04-24T16:44:38Z</time>
</trkpt>
<trkpt lat="34.8980744" lon="32.3702658">
<ele>375.84</ele>
<time>2015-04-24T16:44:40Z</time>
</trkpt>
<trkpt lat="34.8981066" lon="32.3703228">
<ele>377.15</ele>
<time>2015-04-24T16:44:42Z</time>
</trkpt>
<trkpt lat="34.8981380" lon="32.3703805">
<ele>378.23</ele>
<time>2015-04-24T16:44:44Z</time>
</trkpt>
<trkpt lat="34.8981704" lon="32.3704372">
<ele>378.75</ele>
<time>2015-04-24T16:44:46Z</time>
</trkpt>
<trkpt lat="34.8982022" lon="32.3704938">
<ele>379.13</ele>
<time>2015-04-24T16:44:48Z</time>
</trkpt>
<trkpt lat="34.8982282" lon="32.3705502">
<ele>379.73</ele>
<time>2015-04-24T16:44:50Z</time>
</trkpt>
<trkpt lat="34.8982511" lon="32.3706064">
<ele>379.88</ele>
<time>2015-04-24T16:44:52Z</time>
</trkpt>
<trkpt lat="34.8982659" lon="32.3706712">
<ele>379.91</ele>
<time>2015-04-24T16:44:54Z</time>
</trkpt>
<trkpt lat="34.8982787" lon="32.3707359">
<ele>381.42</ele>
<time>2015-04-24T16:44:56Z</time>
</trkpt>
<trkpt lat="34.8982959" lon="32.3707900">
<ele>381.05</ele>
<time>2015-04-24T16:44:58Z</time>
</trkpt>
<trkpt lat="34.8983130" lon="32.3708434">
<ele>380.96</ele>
<time>2015-04-24T16:45:00Z</time>
</trkpt>
<trkpt lat="34.8983349" lon="32.3709119">
<ele>381.80</ele>
<time>2015-04-24T16:45:03Z</time>
</trkpt>
<trkpt lat="34.8983442" lon="32.3709913">
<ele>381.28</ele>
<time>2015-04-24T16:45:06Z</time>
</trkpt>
<trkpt lat="34.8983502" lon="32.3710537">
<ele>381.76</ele>
<time>2015-04-24T16:45:08Z</time>
</trkpt>
<trkpt lat="34.8983548" lon="32.3711183">
<ele>382.63</ele>
<time>2015-04-24T16:45:10Z</time>
</trkpt>
<trkpt lat="34.8983615" lon="32.3711809">
<ele>383.10</ele>
<time>2015-04-24T16:45:12Z</time>
</trkpt>
<trkpt lat="34.8983665" lon="32.3712400">
<ele>382.97</ele>
<time>2015-04-24T16:45:14Z</time>
</trkpt>
<trkpt lat="34.8983684" lon="32.3712973">
<ele>382.94</ele>
<time>2015-04-24T16:45:16Z</time>
</trkpt>
<trkpt lat="34.8983693" lon="32.3713548">
<ele>382.93</ele>
<time>2015-04-24T16:45:18Z</time>
</trkpt>
<trkpt lat="34.8983721" lon="32.3714128">
<ele>383.68</ele>
<time>2015-04-24T16:45:20Z</time>
</trkpt>
<trkpt lat="34.8983752" lon="32.3714716">
<ele>383.36</ele>
<time>2015-04-24T16:45:22Z</time>
</trkpt>
<trkpt lat="34.8983825" lon="32.3715279">
<ele>382.53</ele>
<time>2015-04-24T16:45:24Z</time>
</trkpt>
<trkpt lat="34.8983866" lon="32.3715854">
<ele>382.83</ele>
<time>2015-04-24T16:45:26Z</time>
</trkpt>
<trkpt lat="34.8983882" lon="32.3716447">
<ele>383.65</ele>
<time>2015-04-24T16:45:28Z</time>
</trkpt>
<trkpt lat="34.8983858" lon="32.3717049">
<ele>383.86</ele>
<time>2015-04-24T16:45:30Z</time>
</trkpt>
<trkpt lat="34.8983805" lon="32.3717630">
<ele>383.91</ele>
<time>2015-04-24T16:45:32Z</time>
</trkpt>
<trkpt lat="34.8983749" lon="32.3718211">
<ele>384.42</ele>
<time>2015-04-24T16:45:34Z</time>
</trkpt>
<trkpt lat="34.8983702" lon="32.3718808">
<ele>384.80</ele>
<time>2015-04-24T16:45:36Z</time>
</trkpt>
<trkpt lat="34.8983552" lon="32.3719395">
<ele>384.89</ele>
<time>2015-04-24T16:45:38Z</time>
</trkpt>
<trkpt lat="34.8983364" lon="32.3719949">
<ele>385.67</ele>
<time>2015-04-24T16:45:40Z</time>
</trkpt>
<trkpt lat="34.8983290" lon="32.3720681">
<ele>385.89</ele>
<time>2015-04-24T16:45:43Z</time>
</trkpt>
<trkpt lat="34.8983262" lon="32.3721346">
<ele>389.74</ele>
<time>2015-04-24T16:45:48Z</time>
</trkpt>
<trkpt lat="34.8983144" lon="32.3721989">
<ele>389.91</ele>
<time>2015-04-24T16:45:52Z</time>
</trkpt>
<trkpt lat="34.8982945" lon="32.3722550">
<ele>390.42</ele>
<time>2015-04-24T16:45:55Z</time>
</trkpt>
<trkpt lat="34.8982772" lon="32.3723184">
<ele>391.36</ele>
<time>2015-04-24T16:45:58Z</time>
</trkpt>
<trkpt lat="34.8982488" lon="32.3723787">
<ele>392.85</ele>
<time>2015-04-24T16:46:01Z</time>
</trkpt>
<trkpt lat="34.8982253" lon="32.3724372">
<ele>393.54</ele>
<time>2015-04-24T16:46:04Z</time>
</trkpt>
<trkpt lat="34.8981980" lon="32.3724876">
<ele>393.88</ele>
<time>2015-04-24T16:46:07Z</time>
</trkpt>
<trkpt lat="34.8981697" lon="32.3725427">
<ele>395.54</ele>
<time>2015-04-24T16:46:10Z</time>
</trkpt>
<trkpt lat="34.8981432" lon="32.3725949">
<ele>395.88</ele>
<time>2015-04-24T16:46:13Z</time>
</trkpt>
<trkpt lat="34.8981112" lon="32.3726551">
<ele>395.86</ele>
<time>2015-04-24T16:46:17Z</time>
</trkpt>
<trkpt lat="34.8980935" lon="32.3727062">
<ele>395.92</ele>
<time>2015-04-24T16:46:20Z</time>
</trkpt>
<trkpt lat="34.8980676" lon="32.3727574">
<ele>395.92</ele>
<time>2015-04-24T16:46:23Z</time>
</trkpt>
<trkpt lat="34.8980464" lon="32.3728138">
<ele>396.05</ele>
<time>2015-04-24T16:46:26Z</time>
</trkpt>
<trkpt lat="34.8980247" lon="32.3728619">
<ele>396.82</ele>
<time>2015-04-24T16:46:29Z</time>
</trkpt>
<trkpt lat="34.8979964" lon="32.3729197">
<ele>397.61</ele>
<time>2015-04-24T16:46:33Z</time>
</trkpt>
<trkpt lat="34.8979669" lon="32.3729784">
<ele>398.41</ele>
<time>2015-04-24T16:46:37Z</time>
</trkpt>
<trkpt lat="34.8979381" lon="32.3730222">
<ele>397.74</ele>
<time>2015-04-24T16:46:40Z</time>
</trkpt>
<trkpt lat="34.8979002" lon="32.3730782">
<ele>396.98</ele>
<time>2015-04-24T16:46:44Z</time>
</trkpt>
<trkpt lat="34.8978701" lon="32.3731386">
<ele>396.87</ele>
<time>2015-04-24T16:46:48Z</time>
</trkpt>
<trkpt lat="34.8978368" lon="32.3731802">
<ele>398.54</ele>
<time>2015-04-24T16:46:51Z</time>
</trkpt>
<trkpt lat="34.8978115" lon="32.3732290">
<ele>399.75</ele>
<time>2015-04-24T16:46:54Z</time>
</trkpt>
<trkpt lat="34.8977855" lon="32.3732922">
<ele>399.48</ele>
<time>2015-04-24T16:46:58Z</time>
</trkpt>
<trkpt lat="34.8977461" lon="32.3733408">
<ele>399.90</ele>
<time>2015-04-24T16:47:02Z</time>
</trkpt>
<trkpt lat="34.8977094" lon="32.3733915">
<ele>398.99</ele>
<time>2015-04-24T16:47:06Z</time>
</trkpt>
<trkpt lat="34.8976689" lon="32.3734418">
<ele>399.30</ele>
<time>2015-04-24T16:47:10Z</time>
</trkpt>
<trkpt lat="34.8976364" lon="32.3734996">
<ele>399.64</ele>
<time>2015-04-24T16:47:14Z</time>
</trkpt>
<trkpt lat="34.8976047" lon="32.3735422">
<ele>401.51</ele>
<time>2015-04-24T16:47:17Z</time>
</trkpt>
<trkpt lat="34.8975712" lon="32.3735848">
<ele>402.37</ele>
<time>2015-04-24T16:47:20Z</time>
</trkpt>
<trkpt lat="34.8975412" lon="32.3736326">
<ele>402.11</ele>
<time>2015-04-24T16:47:23Z</time>
</trkpt>
<trkpt lat="34.8975128" lon="32.3736860">
<ele>402.82</ele>
<time>2015-04-24T16:47:26Z</time>
</trkpt>
<trkpt lat="34.8974876" lon="32.3737420">
<ele>403.41</ele>
<time>2015-04-24T16:47:29Z</time>
</trkpt>
<trkpt lat="34.8974535" lon="32.3737927">
<ele>405.49</ele>
<time>2015-04-24T16:47:32Z</time>
</trkpt>
<trkpt lat="34.8974277" lon="32.3738498">
<ele>405.00</ele>
<time>2015-04-24T16:47:35Z</time>
</trkpt>
<trkpt lat="34.8973994" lon="32.3739058">
<ele>404.43</ele>
<time>2015-04-24T16:47:38Z</time>
</trkpt>
<trkpt lat="34.8973714" lon="32.3739554">
<ele>404.11</ele>
<time>2015-04-24T16:47:41Z</time>
</trkpt>
<trkpt lat="34.8973457" lon="32.3740037">
<ele>404.70</ele>
<time>2015-04-24T16:47:44Z</time>
</trkpt>
<trkpt lat="34.8973140" lon="32.3740662">
<ele>405.66</ele>
<time>2015-04-24T16:47:48Z</time>
</trkpt>
<trkpt lat="34.8972855" lon="32.3741112">
<ele>407.27</ele>
<time>2015-04-24T16:47:51Z</time>
</trkpt>
<trkpt lat="34.8972545" lon="32.3741570">
<ele>407.84</ele>
<time>2015-04-24T16:47:54Z</time>
</trkpt>
<trkpt lat="34.8972137" lon="32.3742055">
<ele>408.79</ele>
<time>2015-04-24T16:47:58Z</time>
</trkpt>
<trkpt lat="34.8971876" lon="32.3742563">
<ele>409.42</ele>
<time>2015-04-24T16:48:03Z</time>
</trkpt>
<trkpt lat="34.8971658" lon="32.3743076">
<ele>408.89</ele>
<time>2015-04-24T16:48:07Z</time>
</trkpt>
<trkpt lat="34.8971406" lon="32.3743677">
<ele>409.55</ele>
<time>2015-04-24T16:48:11Z</time>
</trkpt>
<trkpt lat="34.8971105" lon="32.3744270">
<ele>411.28</ele>
<time>2015-04-24T16:48:15Z</time>
</trkpt>
<trkpt lat="34.8970838" lon="32.3744807">
<ele>411.01</ele>
<time>2015-04-24T16:48:19Z</time>
</trkpt>
<trkpt lat="34.8970607" lon="32.3745288">
<ele>411.44</ele>
<time>2015-04-24T16:48:22Z</time>
</trkpt>
<trkpt lat="34.8970349" lon="32.3745800">
<ele>412.74</ele>
<time>2015-04-24T16:48:25Z</time>
</trkpt>
<trkpt lat="34.8970045" lon="32.3746285">
<ele>412.65</ele>
<time>2015-04-24T16:48:28Z</time>
</trkpt>
<trkpt lat="34.8969754" lon="32.3746804">
<ele>413.77</ele>
<time>2015-04-24T16:48:31Z</time>
</trkpt>
<trkpt lat="34.8969426" lon="32.3747302">
<ele>415.53</ele>
<time>2015-04-24T16:48:34Z</time>
</trkpt>
<trkpt lat="34.8969111" lon="32.3747828">
<ele>416.63</ele>
<time>2015-04-24T16:48:37Z</time>
</trkpt>
<trkpt lat="34.8968823" lon="32.3748330">
<ele>416.01</ele>
<time>2015-04-24T16:48:40Z</time>
</trkpt>
<trkpt lat="34.8968562" lon="32.3748897">
<ele>416.81</ele>
<time>2015-04-24T16:48:43Z</time>
</trkpt>
<trkpt lat="34.8968255" lon="32.3749442">
<ele>417.41</ele>
<time>2015-04-24T16:48:46Z</time>
</trkpt>
<trkpt lat="34.8967949" lon="32.3749990">
<ele>416.99</ele>
<time>2015-04-24T16:48:49Z</time>
</trkpt>
<trkpt lat="34.8967678" lon="32.3750606">
<ele>418.93</ele>
<time>2015-04-24T16:48:52Z</time>
</trkpt>
<trkpt lat="34.8967420" lon="32.3751163">
<ele>419.55</ele>
<time>2015-04-24T16:48:55Z</time>
</trkpt>
<trkpt lat="34.8967139" lon="32.3751702">
<ele>421.50</ele>
<time>2015-04-24T16:48:58Z</time>
</trkpt>
<trkpt lat="34.8966851" lon="32.3752267">
<ele>422.12</ele>
<time>2015-04-24T16:49:01Z</time>
</trkpt>
<trkpt lat="34.8966466" lon="32.3752823">
<ele>422.82</ele>
<time>2015-04-24T16:49:04Z</time>
</trkpt>
<trkpt lat="34.8966144" lon="32.3753419">
<ele>423.04</ele>
<time>2015-04-24T16:49:07Z</time>
</trkpt>
<trkpt lat="34.8965915" lon="32.3754038">
<ele>422.44</ele>
<time>2015-04-24T16:49:10Z</time>
</trkpt>
<trkpt lat="34.8965725" lon="32.3754637">
<ele>420.61</ele>
<time>2015-04-24T16:49:13Z</time>
</trkpt>
<trkpt lat="34.8965473" lon="32.3755175">
<ele>422.14</ele>
<time>2015-04-24T16:49:16Z</time>
</trkpt>
<trkpt lat="34.8965218" lon="32.3755723">
<ele>423.08</ele>
<time>2015-04-24T16:49:19Z</time>
</trkpt>
<trkpt lat="34.8964978" lon="32.3756322">
<ele>423.44</ele>
<time>2015-04-24T16:49:22Z</time>
</trkpt>
<trkpt lat="34.8964799" lon="32.3756937">
<ele>422.61</ele>
<time>2015-04-24T16:49:25Z</time>
</trkpt>
<trkpt lat="34.8964584" lon="32.3757480">
<ele>422.39</ele>
<time>2015-04-24T16:49:28Z</time>
</trkpt>
<trkpt lat="34.8964426" lon="32.3758048">
<ele>422.48</ele>
<time>2015-04-24T16:49:31Z</time>
</trkpt>
<trkpt lat="34.8964180" lon="32.3758606">
<ele>424.24</ele>
<time>2015-04-24T16:49:34Z</time>
</trkpt>
<trkpt lat="34.8963936" lon="32.3759082">
<ele>424.71</ele>
<time>2015-04-24T16:49:37Z</time>
</trkpt>
<trkpt lat="34.8963722" lon="32.3759580">
<ele>425.40</ele>
<time>2015-04-24T16:49:40Z</time>
</trkpt>
<trkpt lat="34.8963486" lon="32.3760104">
<ele>426.36</ele>
<time>2015-04-24T16:49:43Z</time>
</trkpt>
<trkpt lat="34.8963202" lon="32.3760671">
<ele>429.85</ele>
<time>2015-04-24T16:49:46Z</time>
</trkpt>
<trkpt lat="34.8962888" lon="32.3761178">
<ele>431.29</ele>
<time>2015-04-24T16:49:49Z</time>
</trkpt>
<trkpt lat="34.8962732" lon="32.3761761">
<ele>430.85</ele>
<time>2015-04-24T16:49:52Z</time>
</trkpt>
<trkpt lat="34.8962562" lon="32.3762363">
<ele>430.04</ele>
<time>2015-04-24T16:49:55Z</time>
</trkpt>
<trkpt lat="34.8962379" lon="32.3763000">
<ele>430.19</ele>
<time>2015-04-24T16:49:58Z</time>
</trkpt>
<trkpt lat="34.8962109" lon="32.3763623">
<ele>430.46</ele>
<time>2015-04-24T16:50:01Z</time>
</trkpt>
<trkpt lat="34.8961710" lon="32.3764210">
<ele>432.24</ele>
<time>2015-04-24T16:50:04Z</time>
</trkpt>
<trkpt lat="34.8961302" lon="32.3764823">
<ele>434.21</ele>
<time>2015-04-24T16:50:07Z</time>
</trkpt>
<trkpt lat="34.8961121" lon="32.3765429">
<ele>430.96</ele>
<time>2015-04-24T16:50:10Z</time>
</trkpt>
<trkpt lat="34.8960940" lon="32.3766036">
<ele>430.05</ele>
<time>2015-04-24T16:50:13Z</time>
</trkpt>
<trkpt lat="34.8960721" lon="32.3766678">
<ele>431.19</ele>
<time>2015-04-24T16:50:16Z</time>
</trkpt>
<trkpt lat="34.8960376" lon="32.3767280">
<ele>432.58</ele>
<time>2015-04-24T16:50:19Z</time>
</trkpt>
<trkpt lat="34.8960098" lon="32.3767911">
<ele>433.13</ele>
<time>2015-04-24T16:50:22Z</time>
</trkpt>
<trkpt lat="34.8959791" lon="32.3768480">
<ele>434.08</ele>
<time>2015-04-24T16:50:25Z</time>
</trkpt>
<trkpt lat="34.8959547" lon="32.3769033">
<ele>435.19</ele>
<time>2015-04-24T16:50:28Z</time>
</trkpt>
<trkpt lat="34.8959335" lon="32.3769566">
<ele>435.08</ele>
<time>2015-04-24T16:50:31Z</time>
</trkpt>
<trkpt lat="34.8959114" lon="32.3770090">
<ele>436.32</ele>
<time>2015-04-24T16:50:34Z</time>
</trkpt>
<trkpt lat="34.8958913" lon="32.3770612">
<ele>436.10</ele>
<time>2015-04-24T16:50:37Z</time>
</trkpt>
<trkpt lat="34.8958619" lon="32.3771201">
<ele>437.50</ele>
<time>2015-04-24T16:50:41Z</time>
</trkpt>
<trkpt lat="34.8958439" lon="32.3771880">
<ele>437.40</ele>
<time>2015-04-24T16:50:45Z</time>
</trkpt>
<trkpt lat="34.8958156" lon="32.3772504">
<ele>436.08</ele>
<time>2015-04-24T16:50:49Z</time>
</trkpt>
<trkpt lat="34.8957948" lon="32.3773016">
<ele>435.94</ele>
<time>2015-04-24T16:50:52Z</time>
</trkpt>
<trkpt lat="34.8957723" lon="32.3773572">
<ele>435.93</ele>
<time>2015-04-24T16:50:55Z</time>
</trkpt>
<trkpt lat="34.8957539" lon="32.3774166">
<ele>435.93</ele>
<time>2015-04-24T16:50:58Z</time>
</trkpt>
<trkpt lat="34.8957314" lon="32.3774703">
<ele>435.93</ele>
<time>2015-04-24T16:51:01Z</time>
</trkpt>
<trkpt lat="34.8957016" lon="32.3775208">
<ele>436.68</ele>
<time>2015-04-24T16:51:04Z</time>
</trkpt>
<trkpt lat="34.8956766" lon="32.3775800">
<ele>436.89</ele>
<time>2015-04-24T16:51:07Z</time>
</trkpt>
<trkpt lat="34.8956505" lon="32.3776420">
<ele>437.42</ele>
<time>2015-04-24T16:51:10Z</time>
</trkpt>
<trkpt lat="34.8956090" lon="32.3776956">
<ele>438.61</ele>
<time>2015-04-24T16:51:13Z</time>
</trkpt>
<trkpt lat="34.8955763" lon="32.3777519">
<ele>438.64</ele>
<time>2015-04-24T16:51:16Z</time>
</trkpt>
<trkpt lat="34.8955472" lon="32.3778062">
<ele>439.64</ele>
<time>2015-04-24T16:51:19Z</time>
</trkpt>
<trkpt lat="34.8955202" lon="32.3778624">
<ele>440.76</ele>
<time>2015-04-24T16:51:22Z</time>
</trkpt>
<trkpt lat="34.8954963" lon="32.3779161">
<ele>441.40</ele>
<time>2015-04-24T16:51:25Z</time>
</trkpt>
<trkpt lat="34.8954657" lon="32.3779743">
<ele>441.48</ele>
<time>2015-04-24T16:51:28Z</time>
</trkpt>
<trkpt lat="34.8954367" lon="32.3780310">
<ele>441.37</ele>
<time>2015-04-24T16:51:31Z</time>
</trkpt>
<trkpt lat="34.8954121" lon="32.3780866">
<ele>442.61</ele>
<time>2015-04-24T16:51:34Z</time>
</trkpt>
<trkpt lat="34.8953799" lon="32.3781348">
<ele>443.84</ele>
<time>2015-04-24T16:51:38Z</time>
</trkpt>
<trkpt lat="34.8953471" lon="32.3781805">
<ele>445.39</ele>
<time>2015-04-24T16:51:43Z</time>
</trkpt>
<trkpt lat="34.8953226" lon="32.3782447">
<ele>446.64</ele>
<time>2015-04-24T16:51:47Z</time>
</trkpt>
<trkpt lat="34.8953002" lon="32.3782938">
<ele>447.39</ele>
<time>2015-04-24T16:51:50Z</time>
</trkpt>
<trkpt lat="34.8952782" lon="32.3783449">
<ele>448.73</ele>
<time>2015-04-24T16:51:53Z</time>
</trkpt>
<trkpt lat="34.8952535" lon="32.3784100">
<ele>449.48</ele>
<time>2015-04-24T16:51:57Z</time>
</trkpt>
<trkpt lat="34.8952405" lon="32.3784646">
<ele>448.99</ele>
<time>2015-04-24T16:52:00Z</time>
</trkpt>
<trkpt lat="34.8952096" lon="32.3785133">
<ele>449.31</ele>
<time>2015-04-24T16:52:03Z</time>
</trkpt>
<trkpt lat="34.8951803" lon="32.3785693">
<ele>450.72</ele>
<time>2015-04-24T16:52:06Z</time>
</trkpt>
<trkpt lat="34.8951505" lon="32.3786266">
<ele>451.40</ele>
<time>2015-04-24T16:52:09Z</time>
</trkpt>
<trkpt lat="34.8951199" lon="32.3786886">
<ele>451.48</ele>
<time>2015-04-24T16:52:12Z</time>
</trkpt>
<trkpt lat="34.8950937" lon="32.3787456">
<ele>451.87</ele>
<time>2015-04-24T16:52:15Z</time>
</trkpt>
<trkpt lat="34.8950684" lon="32.3788121">
<ele>452.67</ele>
<time>2015-04-24T16:52:18Z</time>
</trkpt>
<trkpt lat="34.8950380" lon="32.3788680">
<ele>453.52</ele>
<time>2015-04-24T16:52:21Z</time>
</trkpt>
<trkpt lat="34.8950131" lon="32.3789281">
<ele>454.07</ele>
<time>2015-04-24T16:52:26Z</time>
</trkpt>
<trkpt lat="34.8949871" lon="32.3789895">
<ele>453.93</ele>
<time>2015-04-24T16:52:30Z</time>
</trkpt>
<trkpt lat="34.8949699" lon="32.3790402">
<ele>454.68</ele>
<time>2015-04-24T16:52:33Z</time>
</trkpt>
<trkpt lat="34.8949568" lon="32.3790942">
<ele>454.02</ele>
<time>2015-04-24T16:52:36Z</time>
</trkpt>
<trkpt lat="34.8949397" lon="32.3791468">
<ele>453.06</ele>
<time>2015-04-24T16:52:39Z</time>
</trkpt>
<trkpt lat="34.8949215" lon="32.3792036">
<ele>453.44</ele>
<time>2015-04-24T16:52:42Z</time>
</trkpt>
<trkpt lat="34.8949021" lon="32.3792605">
<ele>454.61</ele>
<time>2015-04-24T16:52:45Z</time>
</trkpt>
<trkpt lat="34.8948848" lon="32.3793220">
<ele>454.89</ele>
<time>2015-04-24T16:52:48Z</time>
</trkpt>
<trkpt lat="34.8948698" lon="32.3793796">
<ele>453.42</ele>
<time>2015-04-24T16:52:51Z</time>
</trkpt>
<trkpt lat="34.8948552" lon="32.3794398">
<ele>453.61</ele>
<time>2015-04-24T16:52:54Z</time>
</trkpt>
<trkpt lat="34.8948337" lon="32.3794995">
<ele>454.76</ele>
<time>2015-04-24T16:52:57Z</time>
</trkpt>
<trkpt lat="34.8948187" lon="32.3795565">
<ele>456.15</ele>
<time>2015-04-24T16:53:00Z</time>
</trkpt>
<trkpt lat="34.8948036" lon="32.3796120">
<ele>456.08</ele>
<time>2015-04-24T16:53:03Z</time>
</trkpt>
<trkpt lat="34.8947870" lon="32.3796675">
<ele>456.69</ele>
<time>2015-04-24T16:53:06Z</time>
</trkpt>
<trkpt lat="34.8947805" lon="32.3797251">
<ele>456.02</ele>
<time>2015-04-24T16:53:09Z</time>
</trkpt>
<trkpt lat="34.8947696" lon="32.3797792">
<ele>454.56</ele>
<time>2015-04-24T16:53:12Z</time>
</trkpt>
<trkpt lat="34.8947660" lon="32.3798368">
<ele>454.88</ele>
<time>2015-04-24T16:53:15Z</time>
</trkpt>
<trkpt lat="34.8947600" lon="32.3798964">
<ele>455.29</ele>
<time>2015-04-24T16:53:18Z</time>
</trkpt>
<trkpt lat="34.8947568" lon="32.3799571">
<ele>455.85</ele>
<time>2015-04-24T16:53:21Z</time>
</trkpt>
<trkpt lat="34.8947422" lon="32.3800221">
<ele>457.54</ele>
<time>2015-04-24T16:53:24Z</time>
</trkpt>
<trkpt lat="34.8947289" lon="32.3800892">
<ele>459.25</ele>
<time>2015-04-24T16:53:27Z</time>
</trkpt>
<trkpt lat="34.8947198" lon="32.3801524">
<ele>459.84</ele>
<time>2015-04-24T16:53:30Z</time>
</trkpt>
<trkpt lat="34.8947074" lon="32.3802097">
<ele>461.29</ele>
<time>2015-04-24T16:53:33Z</time>
</trkpt>
<trkpt lat="34.8947034" lon="32.3802679">
<ele>462.72</ele>
<time>2015-04-24T16:53:36Z</time>
</trkpt>
<trkpt lat="34.8947020" lon="32.3803296">
<ele>462.40</ele>
<time>2015-04-24T16:53:39Z</time>
</trkpt>
<trkpt lat="34.8946967" lon="32.3803934">
<ele>463.11</ele>
<time>2015-04-24T16:53:42Z</time>
</trkpt>
<trkpt lat="34.8946934" lon="32.3804597">
<ele>464.57</ele>
<time>2015-04-24T16:53:45Z</time>
</trkpt>
<trkpt lat="34.8946857" lon="32.3805254">
<ele>464.88</ele>
<time>2015-04-24T16:53:48Z</time>
</trkpt>
<trkpt lat="34.8946844" lon="32.3805948">
<ele>465.79</ele>
<time>2015-04-24T16:53:51Z</time>
</trkpt>
<trkpt lat="34.8946931" lon="32.3806712">
<ele>467.28</ele>
<time>2015-04-24T16:53:54Z</time>
</trkpt>
<trkpt lat="34.8947016" lon="32.3807456">
<ele>469.97</ele>
<time>2015-04-24T16:53:57Z</time>
</trkpt>
<trkpt lat="34.8947059" lon="32.3808026">
<ele>471.31</ele>
<time>2015-04-24T16:54:00Z</time>
</trkpt>
<trkpt lat="34.8947140" lon="32.3808745">
<ele>472.20</ele>
<time>2015-04-24T16:54:04Z</time>
</trkpt>
<trkpt lat="34.8947170" lon="32.3809400">
<ele>474.58</ele>
<time>2015-04-24T16:54:07Z</time>
</trkpt>
<trkpt lat="34.8947292" lon="32.3810118">
<ele>476.88</ele>
<time>2015-04-24T16:54:10Z</time>
</trkpt>
<trkpt lat="34.8947370" lon="32.3810902">
<ele>479.42</ele>
<time>2015-04-24T16:54:13Z</time>
</trkpt>
<trkpt lat="34.8947548" lon="32.3811630">
<ele>478.86</ele>
<time>2015-04-24T16:54:16Z</time>
</trkpt>
<trkpt lat="34.8947744" lon="32.3812258">
<ele>477.54</ele>
<time>2015-04-24T16:54:19Z</time>
</trkpt>
<trkpt lat="34.8947993" lon="32.3812902">
<ele>475.75</ele>
<time>2015-04-24T16:54:22Z</time>
</trkpt>
<trkpt lat="34.8948252" lon="32.3813558">
<ele>475.03</ele>
<time>2015-04-24T16:54:25Z</time>
</trkpt>
<trkpt lat="34.8948466" lon="32.3814160">
<ele>474.94</ele>
<time>2015-04-24T16:54:28Z</time>
</trkpt>
<trkpt lat="34.8948644" lon="32.3814855">
<ele>473.24</ele>
<time>2015-04-24T16:54:32Z</time>
</trkpt>
<trkpt lat="34.8948823" lon="32.3815446">
<ele>472.09</ele>
<time>2015-04-24T16:54:35Z</time>
</trkpt>
<trkpt lat="34.8949042" lon="32.3816091">
<ele>471.45</ele>
<time>2015-04-24T16:54:38Z</time>
</trkpt>
<trkpt lat="34.8949215" lon="32.3816766">
<ele>471.87</ele>
<time>2015-04-24T16:54:41Z</time>
</trkpt>
<trkpt lat="34.8949434" lon="32.3817395">
<ele>471.92</ele>
<time>2015-04-24T16:54:44Z</time>
</trkpt>
<trkpt lat="34.8949736" lon="32.3818016">
<ele>472.67</ele>
<time>2015-04-24T16:54:47Z</time>
</trkpt>
<trkpt lat="34.8949950" lon="32.3818659">
<ele>473.39</ele>
<time>2015-04-24T16:54:50Z</time>
</trkpt>
<trkpt lat="34.8950131" lon="32.3819267">
<ele>473.86</ele>
<time>2015-04-24T16:54:53Z</time>
</trkpt>
<trkpt lat="34.8950313" lon="32.3819859">
<ele>473.92</ele>
<time>2015-04-24T16:54:56Z</time>
</trkpt>
<trkpt lat="34.8950516" lon="32.3820538">
<ele>475.24</ele>
<time>2015-04-24T16:55:00Z</time>
</trkpt>
<trkpt lat="34.8950766" lon="32.3821118">
<ele>475.82</ele>
<time>2015-04-24T16:55:04Z</time>
</trkpt>
<trkpt lat="34.8950968" lon="32.3821808">
<ele>476.17</ele>
<time>2015-04-24T16:55:08Z</time>
</trkpt>
<trkpt lat="34.8951143" lon="32.3822382">
<ele>476.21</ele>
<time>2015-04-24T16:55:11Z</time>
</trkpt>
<trkpt lat="34.8951307" lon="32.3822998">
<ele>476.46</ele>
<time>2015-04-24T16:55:14Z</time>
</trkpt>
<trkpt lat="34.8951507" lon="32.3823582">
<ele>478.12</ele>
<time>2015-04-24T16:55:17Z</time>
</trkpt>
<trkpt lat="34.8951674" lon="32.3824215">
<ele>478.82</ele>
<time>2015-04-24T16:55:20Z</time>
</trkpt>
<trkpt lat="34.8951876" lon="32.3824759">
<ele>478.91</ele>
<time>2015-04-24T16:55:23Z</time>
</trkpt>
<trkpt lat="34.8952123" lon="32.3825324">
<ele>478.67</ele>
<time>2015-04-24T16:55:26Z</time>
</trkpt>
<trkpt lat="34.8952400" lon="32.3825889">
<ele>479.39</ele>
<time>2015-04-24T16:55:29Z</time>
</trkpt>
<trkpt lat="34.8952633" lon="32.3826500">
<ele>479.86</ele>
<time>2015-04-24T16:55:32Z</time>
</trkpt>
<trkpt lat="34.8952920" lon="32.3827047">
<ele>479.92</ele>
<time>2015-04-24T16:55:35Z</time>
</trkpt>
<trkpt lat="34.8953288" lon="32.3827635">
<ele>479.92</ele>
<time>2015-04-24T16:55:38Z</time>
</trkpt>
<trkpt lat="34.8953503" lon="32.3828122">
<ele>479.92</ele>
<time>2015-04-24T16:55:40Z</time>
</trkpt>
<trkpt lat="34.8953755" lon="32.3828714">
<ele>480.17</ele>
<time>2015-04-24T16:55:43Z</time>
</trkpt>
<trkpt lat="34.8954024" lon="32.3829205">
<ele>478.88</ele>
<time>2015-04-24T16:55:47Z</time>
</trkpt>
<trkpt lat="34.8954333" lon="32.3829693">
<ele>479.42</ele>
<time>2015-04-24T16:55:51Z</time>
</trkpt>
<trkpt lat="34.8954710" lon="32.3830240">
<ele>480.83</ele>
<time>2015-04-24T16:55:55Z</time>
</trkpt>
<trkpt lat="34.8954973" lon="32.3830785">
<ele>481.54</ele>
<time>2015-04-24T16:55:58Z</time>
</trkpt>
<trkpt lat="34.8955249" lon="32.3831394">
<ele>482.63</ele>
<time>2015-04-24T16:56:01Z</time>
</trkpt>
<trkpt lat="34.8955550" lon="32.3832012">
<ele>483.76</ele>
<time>2015-04-24T16:56:04Z</time>
</trkpt>
<trkpt lat="34.8955806" lon="32.3832648">
<ele>485.15</ele>
<time>2015-04-24T16:56:07Z</time>
</trkpt>
<trkpt lat="34.8956134" lon="32.3833254">
<ele>486.20</ele>
<time>2015-04-24T16:56:10Z</time>
</trkpt>
<trkpt lat="34.8956406" lon="32.3833875">
<ele>486.46</ele>
<time>2015-04-24T16:56:13Z</time>
</trkpt>
<trkpt lat="34.8956736" lon="32.3834457">
<ele>487.87</ele>
<time>2015-04-24T16:56:16Z</time>
</trkpt>
<trkpt lat="34.8957018" lon="32.3835083">
<ele>488.79</ele>
<time>2015-04-24T16:56:19Z</time>
</trkpt>
<trkpt lat="34.8957389" lon="32.3835667">
<ele>490.78</ele>
<time>2015-04-24T16:56:22Z</time>
</trkpt>
<trkpt lat="34.8957740" lon="32.3836276">
<ele>491.78</ele>
<time>2015-04-24T16:56:25Z</time>
</trkpt>
<trkpt lat="34.8958066" lon="32.3836899">
<ele>491.91</ele>
<time>2015-04-24T16:56:28Z</time>
</trkpt>
<trkpt lat="34.8958358" lon="32.3837511">
<ele>492.42</ele>
<time>2015-04-24T16:56:31Z</time>
</trkpt>
<trkpt lat="34.8958641" lon="32.3838182">
<ele>495.36</ele>
<time>2015-04-24T16:56:34Z</time>
</trkpt>
<trkpt lat="34.8958992" lon="32.3838840">
<ele>498.10</ele>
<time>2015-04-24T16:56:37Z</time>
</trkpt>
<trkpt lat="34.8959236" lon="32.3839619">
<ele>498.32</ele>
<time>2015-04-24T16:56:40Z</time>
</trkpt>
<trkpt lat="34.8959355" lon="32.3840235">
<ele>498.77</ele>
<time>2015-04-24T16:56:42Z</time>
</trkpt>
<trkpt lat="34.8959615" lon="32.3840809">
<ele>498.39</ele>
<time>2015-04-24T16:56:44Z</time>
</trkpt>
<trkpt lat="34.8959962" lon="32.3841296">
<ele>497.29</ele>
<time>2015-04-24T16:56:46Z</time>
</trkpt>
<trkpt lat="34.8960254" lon="32.3841720">
<ele>497.02</ele>
<time>2015-04-24T16:56:48Z</time>
</trkpt>
<trkpt lat="34.8960687" lon="32.3842187">
<ele>494.19</ele>
<time>2015-04-24T16:56:51Z</time>
</trkpt>
<trkpt lat="34.8961001" lon="32.3842733">
<ele>494.71</ele>
<time>2015-04-24T16:56:54Z</time>
</trkpt>
<trkpt lat="34.8961099" lon="32.3843357">
<ele>496.15</ele>
<time>2015-04-24T16:56:57Z</time>
</trkpt>
<trkpt lat="34.8961150" lon="32.3843908">
<ele>495.56</ele>
<time>2015-04-24T16:57:02Z</time>
</trkpt>
<trkpt lat="34.8961108" lon="32.3844471">
<ele>495.14</ele>
<time>2015-04-24T16:57:08Z</time>
</trkpt>
<trkpt lat="34.8960656" lon="32.3844364">
<ele>492.67</ele>
<time>2015-04-24T17:01:43Z</time>
</trkpt>
<trkpt lat="34.8961039" lon="32.3843935">
<ele>489.92</ele>
<time>2015-04-24T17:04:21Z</time>
</trkpt>
<trkpt lat="34.8961513" lon="32.3843911">
<ele>490.42</ele>
<time>2015-04-24T17:04:24Z</time>
</trkpt>
<trkpt lat="34.8961898" lon="32.3844468">
<ele>490.86</ele>
<time>2015-04-24T17:04:27Z</time>
</trkpt>
<trkpt lat="34.8962420" lon="32.3844873">
<ele>492.04</ele>
<time>2015-04-24T17:04:30Z</time>
</trkpt>
<trkpt lat="34.8962840" lon="32.3845090">
<ele>492.20</ele>
<time>2015-04-24T17:04:32Z</time>
</trkpt>
<trkpt lat="34.8963185" lon="32.3845443">
<ele>491.74</ele>
<time>2015-04-24T17:04:34Z</time>
</trkpt>
<trkpt lat="34.8963596" lon="32.3846082">
<ele>491.90</ele>
<time>2015-04-24T17:04:37Z</time>
</trkpt>
<trkpt lat="34.8963969" lon="32.3846748">
<ele>493.17</ele>
<time>2015-04-24T17:04:40Z</time>
</trkpt>
<trkpt lat="34.8964262" lon="32.3847280">
<ele>494.33</ele>
<time>2015-04-24T17:04:43Z</time>
</trkpt>
<trkpt lat="34.8964568" lon="32.3847763">
<ele>495.10</ele>
<time>2015-04-24T17:04:46Z</time>
</trkpt>
<trkpt lat="34.8964878" lon="32.3848287">
<ele>496.20</ele>
<time>2015-04-24T17:04:49Z</time>
</trkpt>
<trkpt lat="34.8965106" lon="32.3848900">
<ele>498.46</ele>
<time>2015-04-24T17:04:52Z</time>
</trkpt>
<trkpt lat="34.8965428" lon="32.3849581">
<ele>498.87</ele>
<time>2015-04-24T17:04:55Z</time>
</trkpt>
<trkpt lat="34.8965723" lon="32.3850026">
<ele>499.41</ele>
<time>2015-04-24T17:04:57Z</time>
</trkpt>
<trkpt lat="34.8966101" lon="32.3850709">
<ele>500.74</ele>
<time>2015-04-24T17:05:00Z</time>
</trkpt>
<trkpt lat="34.8966486" lon="32.3851271">
<ele>500.90</ele>
<time>2015-04-24T17:05:03Z</time>
</trkpt>
<trkpt lat="34.8966843" lon="32.3851759">
<ele>500.17</ele>
<time>2015-04-24T17:05:06Z</time>
</trkpt>
<trkpt lat="34.8967130" lon="32.3852268">
<ele>499.96</ele>
<time>2015-04-24T17:05:09Z</time>
</trkpt>
<trkpt lat="34.8967462" lon="32.3852826">
<ele>500.55</ele>
<time>2015-04-24T17:05:12Z</time>
</trkpt>
<trkpt lat="34.8967843" lon="32.3853441">
<ele>500.00</ele>
<time>2015-04-24T17:05:15Z</time>
</trkpt>
<trkpt lat="34.8968265" lon="32.3854071">
<ele>499.93</ele>
<time>2015-04-24T17:05:18Z</time>
</trkpt>
<trkpt lat="34.8968542" lon="32.3854519">
<ele>499.93</ele>
<time>2015-04-24T17:05:20Z</time>
</trkpt>
<trkpt lat="34.8968833" lon="32.3855015">
<ele>499.93</ele>
<time>2015-04-24T17:05:22Z</time>
</trkpt>
<trkpt lat="34.8969139" lon="32.3855518">
<ele>499.93</ele>
<time>2015-04-24T17:05:24Z</time>
</trkpt>
<trkpt lat="34.8969421" lon="32.3856099">
<ele>499.93</ele>
<time>2015-04-24T17:05:26Z</time>
</trkpt>
<trkpt lat="34.8969677" lon="32.3856672">
<ele>500.43</ele>
<time>2015-04-24T17:05:28Z</time>
</trkpt>
<trkpt lat="34.8969978" lon="32.3857192">
<ele>500.80</ele>
<time>2015-04-24T17:05:30Z</time>
</trkpt>
<trkpt lat="34.8970313" lon="32.3857738">
<ele>500.89</ele>
<time>2015-04-24T17:05:32Z</time>
</trkpt>
<trkpt lat="34.8970658" lon="32.3858318">
<ele>500.92</ele>
<time>2015-04-24T17:05:34Z</time>
</trkpt>
<trkpt lat="34.8970990" lon="32.3858920">
<ele>501.42</ele>
<time>2015-04-24T17:05:36Z</time>
</trkpt>
<trkpt lat="34.8971320" lon="32.3859505">
<ele>501.80</ele>
<time>2015-04-24T17:05:38Z</time>
</trkpt>
<trkpt lat="34.8971637" lon="32.3860110">
<ele>502.39</ele>
<time>2015-04-24T17:05:40Z</time>
</trkpt>
<trkpt lat="34.8971940" lon="32.3860745">
<ele>503.29</ele>
<time>2015-04-24T17:05:42Z</time>
</trkpt>
<trkpt lat="34.8972287" lon="32.3861380">
<ele>504.27</ele>
<time>2015-04-24T17:05:44Z</time>
</trkpt>
<trkpt lat="34.8972666" lon="32.3862078">
<ele>504.76</ele>
<time>2015-04-24T17:05:46Z</time>
</trkpt>
<trkpt lat="34.8973073" lon="32.3862790">
<ele>504.88</ele>
<time>2015-04-24T17:05:48Z</time>
</trkpt>
<trkpt lat="34.8973503" lon="32.3863462">
<ele>505.41</ele>
<time>2015-04-24T17:05:50Z</time>
</trkpt>
<trkpt lat="34.8973837" lon="32.3864064">
<ele>506.30</ele>
<time>2015-04-24T17:05:52Z</time>
</trkpt>
<trkpt lat="34.8974114" lon="32.3864597">
<ele>507.27</ele>
<time>2015-04-24T17:05:54Z</time>
</trkpt>
<trkpt lat="34.8974436" lon="32.3865079">
<ele>507.76</ele>
<time>2015-04-24T17:05:56Z</time>
</trkpt>
<trkpt lat="34.8974764" lon="32.3865603">
<ele>508.63</ele>
<time>2015-04-24T17:05:58Z</time>
</trkpt>
<trkpt lat="34.8975142" lon="32.3866147">
<ele>508.85</ele>
<time>2015-04-24T17:06:00Z</time>
</trkpt>
<trkpt lat="34.8975546" lon="32.3866666">
<ele>509.41</ele>
<time>2015-04-24T17:06:02Z</time>
</trkpt>
<trkpt lat="34.8975977" lon="32.3867183">
<ele>510.30</ele>
<time>2015-04-24T17:06:04Z</time>
</trkpt>
<trkpt lat="34.8976438" lon="32.3867722">
<ele>511.27</ele>
<time>2015-04-24T17:06:06Z</time>
</trkpt>
<trkpt lat="34.8976876" lon="32.3868207">
<ele>511.01</ele>
<time>2015-04-24T17:06:08Z</time>
</trkpt>
<trkpt lat="34.8977272" lon="32.3868656">
<ele>510.95</ele>
<time>2015-04-24T17:06:10Z</time>
</trkpt>
<trkpt lat="34.8977704" lon="32.3869084">
<ele>510.68</ele>
<time>2015-04-24T17:06:12Z</time>
</trkpt>
<trkpt lat="34.8978140" lon="32.3869536">
<ele>511.61</ele>
<time>2015-04-24T17:06:14Z</time>
</trkpt>
<trkpt lat="34.8978608" lon="32.3869922">
<ele>511.35</ele>
<time>2015-04-24T17:06:16Z</time>
</trkpt>
<trkpt lat="34.8979095" lon="32.3870335">
<ele>511.03</ele>
<time>2015-04-24T17:06:18Z</time>
</trkpt>
<trkpt lat="34.8979580" lon="32.3870747">
<ele>510.95</ele>
<time>2015-04-24T17:06:20Z</time>
</trkpt>
<trkpt lat="34.8980063" lon="32.3871208">
<ele>510.93</ele>
<time>2015-04-24T17:06:22Z</time>
</trkpt>
<trkpt lat="34.8980575" lon="32.3871680">
<ele>510.93</ele>
<time>2015-04-24T17:06:24Z</time>
</trkpt>
<trkpt lat="34.8981126" lon="32.3872214">
<ele>511.68</ele>
<time>2015-04-24T17:06:26Z</time>
</trkpt>
<trkpt lat="34.8981701" lon="32.3872709">
<ele>511.86</ele>
<time>2015-04-24T17:06:28Z</time>
</trkpt>
<trkpt lat="34.8982226" lon="32.3873191">
<ele>512.16</ele>
<time>2015-04-24T17:06:30Z</time>
</trkpt>
<trkpt lat="34.8982635" lon="32.3873666">
<ele>511.98</ele>
<time>2015-04-24T17:06:32Z</time>
</trkpt>
<trkpt lat="34.8983034" lon="32.3874013">
<ele>511.44</ele>
<time>2015-04-24T17:06:34Z</time>
</trkpt>
<trkpt lat="34.8983506" lon="32.3874213">
<ele>511.05</ele>
<time>2015-04-24T17:06:36Z</time>
</trkpt>
<trkpt lat="34.8983951" lon="32.3874592">
<ele>510.96</ele>
<time>2015-04-24T17:06:38Z</time>
</trkpt>
<trkpt lat="34.8984410" lon="32.3875070">
<ele>511.68</ele>
<time>2015-04-24T17:06:40Z</time>
</trkpt>
<trkpt lat="34.8984942" lon="32.3875560">
<ele>512.36</ele>
<time>2015-04-24T17:06:42Z</time>
</trkpt>
<trkpt lat="34.8985506" lon="32.3876071">
<ele>512.78</ele>
<time>2015-04-24T17:06:44Z</time>
</trkpt>
<trkpt lat="34.8986406" lon="32.3876998">
<ele>513.64</ele>
<time>2015-04-24T17:06:46Z</time>
</trkpt>
<trkpt lat="34.8987105" lon="32.3877697">
<ele>514.35</ele>
<time>2015-04-24T17:06:48Z</time>
</trkpt>
<trkpt lat="34.8987775" lon="32.3878107">
<ele>514.53</ele>
<time>2015-04-24T17:06:50Z</time>
</trkpt>
<trkpt lat="34.8988262" lon="32.3878410">
<ele>514.08</ele>
<time>2015-04-24T17:06:52Z</time>
</trkpt>
<trkpt lat="34.8988768" lon="32.3878905">
<ele>513.96</ele>
<time>2015-04-24T17:06:54Z</time>
</trkpt>
<trkpt lat="34.8989325" lon="32.3879325">
<ele>513.68</ele>
<time>2015-04-24T17:06:56Z</time>
</trkpt>
<trkpt lat="34.8989863" lon="32.3879844">
<ele>513.86</ele>
<time>2015-04-24T17:06:58Z</time>
</trkpt>
<trkpt lat="34.8990387" lon="32.3880342">
<ele>513.91</ele>
<time>2015-04-24T17:07:00Z</time>
</trkpt>
<trkpt lat="34.8990874" lon="32.3880810">
<ele>514.42</ele>
<time>2015-04-24T17:07:02Z</time>
</trkpt>
<trkpt lat="34.8991277" lon="32.3881239">
<ele>514.80</ele>
<time>2015-04-24T17:07:04Z</time>
</trkpt>
<trkpt lat="34.8991668" lon="32.3881586">
<ele>514.89</ele>
<time>2015-04-24T17:07:06Z</time>
</trkpt>
<trkpt lat="34.8992100" lon="32.3881898">
<ele>514.42</ele>
<time>2015-04-24T17:07:08Z</time>
</trkpt>
<trkpt lat="34.8992557" lon="32.3882302">
<ele>513.55</ele>
<time>2015-04-24T17:07:10Z</time>
</trkpt>
<trkpt lat="34.8993056" lon="32.3882748">
<ele>513.58</ele>
<time>2015-04-24T17:07:12Z</time>
</trkpt>
<trkpt lat="34.8993602" lon="32.3883208">
<ele>513.84</ele>
<time>2015-04-24T17:07:14Z</time>
</trkpt>
<trkpt lat="34.8994163" lon="32.3883719">
<ele>514.40</ele>
<time>2015-04-24T17:07:16Z</time>
</trkpt>
<trkpt lat="34.8994721" lon="32.3884268">
<ele>514.79</ele>
<time>2015-04-24T17:07:18Z</time>
</trkpt>
<trkpt lat="34.8995246" lon="32.3884905">
<ele>515.64</ele>
<time>2015-04-24T17:07:20Z</time>
</trkpt>
<trkpt lat="34.8995791" lon="32.3885540">
<ele>516.35</ele>
<time>2015-04-24T17:07:22Z</time>
</trkpt>
<trkpt lat="34.8996331" lon="32.3886190">
<ele>517.28</ele>
<time>2015-04-24T17:07:24Z</time>
</trkpt>
<trkpt lat="34.8996894" lon="32.3886825">
<ele>516.51</ele>
<time>2015-04-24T17:07:26Z</time>
</trkpt>
<trkpt lat="34.8997452" lon="32.3887465">
<ele>516.07</ele>
<time>2015-04-24T17:07:28Z</time>
</trkpt>
<trkpt lat="34.8997976" lon="32.3888116">
<ele>516.71</ele>
<time>2015-04-24T17:07:30Z</time>
</trkpt>
<trkpt lat="34.8998418" lon="32.3888686">
<ele>516.87</ele>
<time>2015-04-24T17:07:32Z</time>
</trkpt>
<trkpt lat="34.8998681" lon="32.3889169">
<ele>517.29</ele>
<time>2015-04-24T17:07:35Z</time>
</trkpt>
<trkpt lat="34.8998979" lon="32.3889721">
<ele>516.95</ele>
<time>2015-04-24T17:07:39Z</time>
</trkpt>
<trkpt lat="34.8999364" lon="32.3890227">
<ele>518.55</ele>
<time>2015-04-24T17:07:42Z</time>
</trkpt>
<trkpt lat="34.8999681" lon="32.3890628">
<ele>518.83</ele>
<time>2015-04-24T17:07:44Z</time>
</trkpt>
<trkpt lat="34.8999998" lon="32.3891130">
<ele>518.40</ele>
<time>2015-04-24T17:07:46Z</time>
</trkpt>
<trkpt lat="34.9000335" lon="32.3891658">
<ele>518.79</ele>
<time>2015-04-24T17:07:48Z</time>
</trkpt>
<trkpt lat="34.9000707" lon="32.3892175">
<ele>518.64</ele>
<time>2015-04-24T17:07:50Z</time>
</trkpt>
<trkpt lat="34.9001068" lon="32.3892752">
<ele>520.35</ele>
<time>2015-04-24T17:07:52Z</time>
</trkpt>
<trkpt lat="34.9001448" lon="32.3893336">
<ele>521.78</ele>
<time>2015-04-24T17:07:54Z</time>
</trkpt>
<trkpt lat="34.9001849" lon="32.3893941">
<ele>521.89</ele>
<time>2015-04-24T17:07:56Z</time>
</trkpt>
<trkpt lat="34.9002261" lon="32.3894563">
<ele>521.92</ele>
<time>2015-04-24T17:07:58Z</time>
</trkpt>
<trkpt lat="34.9002711" lon="32.3895101">
<ele>521.92</ele>
<time>2015-04-24T17:08:00Z</time>
</trkpt>
<trkpt lat="34.9003125" lon="32.3895660">
<ele>521.67</ele>
<time>2015-04-24T17:08:02Z</time>
</trkpt>
<trkpt lat="34.9003481" lon="32.3896260">
<ele>521.86</ele>
<time>2015-04-24T17:08:04Z</time>
</trkpt>
<trkpt lat="34.9003783" lon="32.3896878">
<ele>521.41</ele>
<time>2015-04-24T17:08:06Z</time>
</trkpt>
<trkpt lat="34.9004143" lon="32.3897454">
<ele>521.05</ele>
<time>2015-04-24T17:08:08Z</time>
</trkpt>
<trkpt lat="34.9004532" lon="32.3897984">
<ele>521.71</ele>
<time>2015-04-24T17:08:10Z</time>
</trkpt>
<trkpt lat="34.9004889" lon="32.3898569">
<ele>521.87</ele>
<time>2015-04-24T17:08:12Z</time>
</trkpt>
<trkpt lat="34.9005208" lon="32.3899133">
<ele>521.16</ele>
<time>2015-04-24T17:08:14Z</time>
</trkpt>
<trkpt lat="34.9005517" lon="32.3899706">
<ele>521.48</ele>
<time>2015-04-24T17:08:16Z</time>
</trkpt>
<trkpt lat="34.9005884" lon="32.3900243">
<ele>521.81</ele>
<time>2015-04-24T17:08:18Z</time>
</trkpt>
<trkpt lat="34.9006264" lon="32.3900796">
<ele>521.90</ele>
<time>2015-04-24T17:08:20Z</time>
</trkpt>
<trkpt lat="34.9006658" lon="32.3901367">
<ele>521.92</ele>
<time>2015-04-24T17:08:22Z</time>
</trkpt>
<trkpt lat="34.9007076" lon="32.3901961">
<ele>522.67</ele>
<time>2015-04-24T17:08:24Z</time>
</trkpt>
<trkpt lat="34.9007428" lon="32.3902570">
<ele>522.61</ele>
<time>2015-04-24T17:08:26Z</time>
</trkpt>
<trkpt lat="34.9007726" lon="32.3903042">
<ele>522.35</ele>
<time>2015-04-24T17:08:28Z</time>
</trkpt>
<trkpt lat="34.9008139" lon="32.3903598">
<ele>522.14</ele>
<time>2015-04-24T17:08:32Z</time>
</trkpt>
<trkpt lat="34.9008559" lon="32.3904246">
<ele>524.20</ele>
<time>2015-04-24T17:08:35Z</time>
</trkpt>
<trkpt lat="34.9008870" lon="32.3904802">
<ele>525.24</ele>
<time>2015-04-24T17:08:37Z</time>
</trkpt>
<trkpt lat="34.9009204" lon="32.3905375">
<ele>525.25</ele>
<time>2015-04-24T17:08:39Z</time>
</trkpt>
<trkpt lat="34.9009606" lon="32.3905962">
<ele>526.26</ele>
<time>2015-04-24T17:08:41Z</time>
</trkpt>
<trkpt lat="34.9010005" lon="32.3906641">
<ele>527.76</ele>
<time>2015-04-24T17:08:43Z</time>
</trkpt>
<trkpt lat="34.9010398" lon="32.3907386">
<ele>528.63</ele>
<time>2015-04-24T17:08:45Z</time>
</trkpt>
<trkpt lat="34.9010847" lon="32.3908156">
<ele>528.85</ele>
<time>2015-04-24T17:08:47Z</time>
</trkpt>
<trkpt lat="34.9011314" lon="32.3908995">
<ele>529.66</ele>
<time>2015-04-24T17:08:49Z</time>
</trkpt>
<trkpt lat="34.9011718" lon="32.3909652">
<ele>529.86</ele>
<time>2015-04-24T17:08:51Z</time>
</trkpt>
<trkpt lat="34.9012094" lon="32.3910181">
<ele>530.16</ele>
<time>2015-04-24T17:08:53Z</time>
</trkpt>
<trkpt lat="34.9012428" lon="32.3910664">
<ele>530.73</ele>
<time>2015-04-24T17:08:55Z</time>
</trkpt>
<trkpt lat="34.9012784" lon="32.3911211">
<ele>530.88</ele>
<time>2015-04-24T17:08:57Z</time>
</trkpt>
<trkpt lat="34.9013148" lon="32.3911789">
<ele>530.16</ele>
<time>2015-04-24T17:08:59Z</time>
</trkpt>
<trkpt lat="34.9013559" lon="32.3912389">
<ele>529.98</ele>
<time>2015-04-24T17:09:01Z</time>
</trkpt>
<trkpt lat="34.9013947" lon="32.3912980">
<ele>529.44</ele>
<time>2015-04-24T17:09:03Z</time>
</trkpt>
<trkpt lat="34.9014354" lon="32.3913614">
<ele>529.05</ele>
<time>2015-04-24T17:09:05Z</time>
</trkpt>
<trkpt lat="34.9014775" lon="32.3914225">
<ele>529.71</ele>
<time>2015-04-24T17:09:07Z</time>
</trkpt>
<trkpt lat="34.9015211" lon="32.3914807">
<ele>530.62</ele>
<time>2015-04-24T17:09:09Z</time>
</trkpt>
<trkpt lat="34.9015605" lon="32.3915394">
<ele>531.60</ele>
<time>2015-04-24T17:09:11Z</time>
</trkpt>
<trkpt lat="34.9015960" lon="32.3915975">
<ele>531.59</ele>
<time>2015-04-24T17:09:13Z</time>
</trkpt>
<trkpt lat="34.9016280" lon="32.3916538">
<ele>531.84</ele>
<time>2015-04-24T17:09:15Z</time>
</trkpt>
<trkpt lat="34.9016583" lon="32.3917156">
<ele>531.65</ele>
<time>2015-04-24T17:09:17Z</time>
</trkpt>
<trkpt lat="34.9016867" lon="32.3917782">
<ele>531.11</ele>
<time>2015-04-24T17:09:19Z</time>
</trkpt>
<trkpt lat="34.9017107" lon="32.3918408">
<ele>530.97</ele>
<time>2015-04-24T17:09:21Z</time>
</trkpt>
<trkpt lat="34.9017254" lon="32.3919102">
<ele>531.56</ele>
<time>2015-04-24T17:09:24Z</time>
</trkpt>
<trkpt lat="34.9017454" lon="32.3919737">
<ele>532.38</ele>
<time>2015-04-24T17:09:27Z</time>
</trkpt>
<trkpt lat="34.9017704" lon="32.3920292">
<ele>533.29</ele>
<time>2015-04-24T17:09:29Z</time>
</trkpt>
<trkpt lat="34.9017902" lon="32.3920984">
<ele>534.27</ele>
<time>2015-04-24T17:09:31Z</time>
</trkpt>
<trkpt lat="34.9018107" lon="32.3921781">
<ele>534.76</ele>
<time>2015-04-24T17:09:33Z</time>
</trkpt>
<trkpt lat="34.9018286" lon="32.3922557">
<ele>534.88</ele>
<time>2015-04-24T17:09:35Z</time>
</trkpt>
<trkpt lat="34.9018432" lon="32.3923259">
<ele>534.91</ele>
<time>2015-04-24T17:09:37Z</time>
</trkpt>
<trkpt lat="34.9018533" lon="32.3923801">
<ele>534.42</ele>
<time>2015-04-24T17:09:39Z</time>
</trkpt>
<trkpt lat="34.9018540" lon="32.3924371">
<ele>533.36</ele>
<time>2015-04-24T17:09:42Z</time>
</trkpt>
<trkpt lat="34.9018606" lon="32.3924932">
<ele>532.95</ele>
<time>2015-04-24T17:09:46Z</time>
</trkpt>
<trkpt lat="34.9018735" lon="32.3925501">
<ele>534.74</ele>
<time>2015-04-24T17:09:50Z</time>
</trkpt>
<trkpt lat="34.9018891" lon="32.3926089">
<ele>534.90</ele>
<time>2015-04-24T17:09:53Z</time>
</trkpt>
<trkpt lat="34.9019094" lon="32.3926820">
<ele>534.92</ele>
<time>2015-04-24T17:09:56Z</time>
</trkpt>
<trkpt lat="34.9019229" lon="32.3927435">
<ele>534.92</ele>
<time>2015-04-24T17:09:58Z</time>
</trkpt>
<trkpt lat="34.9019341" lon="32.3928128">
<ele>535.17</ele>
<time>2015-04-24T17:10:00Z</time>
</trkpt>
<trkpt lat="34.9019465" lon="32.3928820">
<ele>535.74</ele>
<time>2015-04-24T17:10:02Z</time>
</trkpt>
<trkpt lat="34.9019650" lon="32.3929506">
<ele>535.88</ele>
<time>2015-04-24T17:10:04Z</time>
</trkpt>
<trkpt lat="34.9019851" lon="32.3930215">
<ele>535.91</ele>
<time>2015-04-24T17:10:06Z</time>
</trkpt>
<trkpt lat="34.9020030" lon="32.3930924">
<ele>535.42</ele>
<time>2015-04-24T17:10:08Z</time>
</trkpt>
<trkpt lat="34.9020174" lon="32.3931614">
<ele>535.55</ele>
<time>2015-04-24T17:10:10Z</time>
</trkpt>
<trkpt lat="34.9020312" lon="32.3932284">
<ele>535.83</ele>
<time>2015-04-24T17:10:12Z</time>
</trkpt>
<trkpt lat="34.9020454" lon="32.3932918">
<ele>536.40</ele>
<time>2015-04-24T17:10:14Z</time>
</trkpt>
<trkpt lat="34.9020588" lon="32.3933524">
<ele>536.29</ele>
<time>2015-04-24T17:10:16Z</time>
</trkpt>
<trkpt lat="34.9020713" lon="32.3934136">
<ele>536.52</ele>
<time>2015-04-24T17:10:18Z</time>
</trkpt>
<trkpt lat="34.9020852" lon="32.3934773">
<ele>536.82</ele>
<time>2015-04-24T17:10:20Z</time>
</trkpt>
<trkpt lat="34.9020982" lon="32.3935380">
<ele>536.40</ele>
<time>2015-04-24T17:10:22Z</time>
</trkpt>
<trkpt lat="34.9021097" lon="32.3935969">
<ele>536.54</ele>
<time>2015-04-24T17:10:24Z</time>
</trkpt>
<trkpt lat="34.9021166" lon="32.3936544">
<ele>536.33</ele>
<time>2015-04-24T17:10:26Z</time>
</trkpt>
<trkpt lat="34.9021272" lon="32.3937087">
<ele>536.03</ele>
<time>2015-04-24T17:10:28Z</time>
</trkpt>
<trkpt lat="34.9021439" lon="32.3937645">
<ele>535.95</ele>
<time>2015-04-24T17:10:30Z</time>
</trkpt>
<trkpt lat="34.9021605" lon="32.3938231">
<ele>535.93</ele>
<time>2015-04-24T17:10:32Z</time>
</trkpt>
<trkpt lat="34.9021771" lon="32.3938856">
<ele>536.43</ele>
<time>2015-04-24T17:10:34Z</time>
</trkpt>
<trkpt lat="34.9021923" lon="32.3939507">
<ele>536.80</ele>
<time>2015-04-24T17:10:36Z</time>
</trkpt>
<trkpt lat="34.9022061" lon="32.3940191">
<ele>537.39</ele>
<time>2015-04-24T17:10:38Z</time>
</trkpt>
<trkpt lat="34.9022201" lon="32.3940869">
<ele>537.79</ele>
<time>2015-04-24T17:10:40Z</time>
</trkpt>
<trkpt lat="34.9022360" lon="32.3941528">
<ele>537.89</ele>
<time>2015-04-24T17:10:42Z</time>
</trkpt>
<trkpt lat="34.9022503" lon="32.3942206">
<ele>538.67</ele>
<time>2015-04-24T17:10:44Z</time>
</trkpt>
<trkpt lat="34.9022638" lon="32.3942882">
<ele>538.86</ele>
<time>2015-04-24T17:10:46Z</time>
</trkpt>
<trkpt lat="34.9022776" lon="32.3943486">
<ele>538.91</ele>
<time>2015-04-24T17:10:48Z</time>
</trkpt>
<trkpt lat="34.9022931" lon="32.3944030">
<ele>538.92</ele>
<time>2015-04-24T17:10:50Z</time>
</trkpt>
<trkpt lat="34.9023108" lon="32.3944826">
<ele>538.92</ele>
<time>2015-04-24T17:10:53Z</time>
</trkpt>
<trkpt lat="34.9023187" lon="32.3945617">
<ele>538.92</ele>
<time>2015-04-24T17:10:56Z</time>
</trkpt>
<trkpt lat="34.9023298" lon="32.3946336">
<ele>538.92</ele>
<time>2015-04-24T17:10:59Z</time>
</trkpt>
<trkpt lat="34.9023512" lon="32.3947146">
<ele>538.92</ele>
<time>2015-04-24T17:11:02Z</time>
</trkpt>
<trkpt lat="34.9023692" lon="32.3947787">
<ele>540.42</ele>
<time>2015-04-24T17:11:04Z</time>
</trkpt>
<trkpt lat="34.9023896" lon="32.3948590">
<ele>540.80</ele>
<time>2015-04-24T17:11:06Z</time>
</trkpt>
<trkpt lat="34.9024079" lon="32.3949497">
<ele>540.39</ele>
<time>2015-04-24T17:11:08Z</time>
</trkpt>
<trkpt lat="34.9024260" lon="32.3950422">
<ele>540.04</ele>
<time>2015-04-24T17:11:10Z</time>
</trkpt>
<trkpt lat="34.9024445" lon="32.3951312">
<ele>540.45</ele>
<time>2015-04-24T17:11:12Z</time>
</trkpt>
<trkpt lat="34.9024631" lon="32.3952169">
<ele>541.31</ele>
<time>2015-04-24T17:11:14Z</time>
</trkpt>
<trkpt lat="34.9024798" lon="32.3952967">
<ele>541.77</ele>
<time>2015-04-24T17:11:16Z</time>
</trkpt>
<trkpt lat="34.9025016" lon="32.3953706">
<ele>541.89</ele>
<time>2015-04-24T17:11:18Z</time>
</trkpt>
<trkpt lat="34.9025232" lon="32.3954396">
<ele>541.92</ele>
<time>2015-04-24T17:11:20Z</time>
</trkpt>
<trkpt lat="34.9025402" lon="32.3955042">
<ele>541.92</ele>
<time>2015-04-24T17:11:22Z</time>
</trkpt>
<trkpt lat="34.9025636" lon="32.3955668">
<ele>543.17</ele>
<time>2015-04-24T17:11:24Z</time>
</trkpt>
<trkpt lat="34.9025904" lon="32.3956284">
<ele>542.99</ele>
<time>2015-04-24T17:11:26Z</time>
</trkpt>
<trkpt lat="34.9026270" lon="32.3956858">
<ele>542.44</ele>
<time>2015-04-24T17:11:28Z</time>
</trkpt>
<trkpt lat="34.9026632" lon="32.3957453">
<ele>542.05</ele>
<time>2015-04-24T17:11:30Z</time>
</trkpt>
<trkpt lat="34.9027048" lon="32.3957988">
<ele>541.96</ele>
<time>2015-04-24T17:11:32Z</time>
</trkpt>
<trkpt lat="34.9027486" lon="32.3958499">
<ele>541.93</ele>
<time>2015-04-24T17:11:34Z</time>
</trkpt>
<trkpt lat="34.9027948" lon="32.3958966">
<ele>541.93</ele>
<time>2015-04-24T17:11:36Z</time>
</trkpt>
<trkpt lat="34.9028481" lon="32.3959318">
<ele>541.93</ele>
<time>2015-04-24T17:11:38Z</time>
</trkpt>
<trkpt lat="34.9029071" lon="32.3959604">
<ele>541.93</ele>
<time>2015-04-24T17:11:40Z</time>
</trkpt>
<trkpt lat="34.9029731" lon="32.3959788">
<ele>542.43</ele>
<time>2015-04-24T17:11:42Z</time>
</trkpt>
<trkpt lat="34.9030446" lon="32.3959888">
<ele>542.80</ele>
<time>2015-04-24T17:11:44Z</time>
</trkpt>
<trkpt lat="34.9031192" lon="32.3959922">
<ele>542.14</ele>
<time>2015-04-24T17:11:46Z</time>
</trkpt>
<trkpt lat="34.9031925" lon="32.3959850">
<ele>541.48</ele>
<time>2015-04-24T17:11:48Z</time>
</trkpt>
<trkpt lat="34.9032514" lon="32.3959685">
<ele>540.81</ele>
<time>2015-04-24T17:11:50Z</time>
</trkpt>
<trkpt lat="34.9033067" lon="32.3959598">
<ele>541.23</ele>
<time>2015-04-24T17:17:05Z</time>
</trkpt>
<trkpt lat="34.9033556" lon="32.3959522">
<ele>540.21</ele>
<time>2015-04-24T17:17:08Z</time>
</trkpt>
<trkpt lat="34.9034043" lon="32.3959473">
<ele>541.25</ele>
<time>2015-04-24T17:17:10Z</time>
</trkpt>
<trkpt lat="34.9034743" lon="32.3959441">
<ele>541.76</ele>
<time>2015-04-24T17:17:12Z</time>
</trkpt>
<trkpt lat="34.9035532" lon="32.3959368">
<ele>541.13</ele>
<time>2015-04-24T17:17:14Z</time>
</trkpt>
<trkpt lat="34.9036345" lon="32.3959235">
<ele>539.73</ele>
<time>2015-04-24T17:17:16Z</time>
</trkpt>
<trkpt lat="34.9037178" lon="32.3959072">
<ele>538.63</ele>
<time>2015-04-24T17:17:18Z</time>
</trkpt>
<trkpt lat="34.9038024" lon="32.3958960">
<ele>538.85</ele>
<time>2015-04-24T17:17:20Z</time>
</trkpt>
<trkpt lat="34.9038663" lon="32.3958917">
<ele>538.39</ele>
<time>2015-04-24T17:17:21Z</time>
</trkpt>
<trkpt lat="34.9039125" lon="32.3958861">
<ele>537.66</ele>
<time>2015-04-24T17:17:22Z</time>
</trkpt>
<trkpt lat="34.9040091" lon="32.3959061">
<ele>537.11</ele>
<time>2015-04-24T17:17:24Z</time>
</trkpt>
<trkpt lat="34.9040561" lon="32.3959319">
<ele>536.52</ele>
<time>2015-04-24T17:17:25Z</time>
</trkpt>
<trkpt lat="34.9041049" lon="32.3959511">
<ele>536.22</ele>
<time>2015-04-24T17:17:26Z</time>
</trkpt>
<trkpt lat="34.9041475" lon="32.3959762">
<ele>536.07</ele>
<time>2015-04-24T17:17:27Z</time>
</trkpt>
<trkpt lat="34.9041915" lon="32.3960039">
<ele>536.50</ele>
<time>2015-04-24T17:17:28Z</time>
</trkpt>
<trkpt lat="34.9042333" lon="32.3960359">
<ele>536.21</ele>
<time>2015-04-24T17:17:29Z</time>
</trkpt>
<trkpt lat="34.9042732" lon="32.3960671">
<ele>536.07</ele>
<time>2015-04-24T17:17:30Z</time>
</trkpt>
<trkpt lat="34.9043127" lon="32.3961030">
<ele>535.50</ele>
<time>2015-04-24T17:17:31Z</time>
</trkpt>
<trkpt lat="34.9043772" lon="32.3961727">
<ele>535.07</ele>
<time>2015-04-24T17:17:33Z</time>
</trkpt>
<trkpt lat="34.9044125" lon="32.3962164">
<ele>534.50</ele>
<time>2015-04-24T17:17:34Z</time>
</trkpt>
<trkpt lat="34.9044834" lon="32.3962784">
<ele>534.07</ele>
<time>2015-04-24T17:17:36Z</time>
</trkpt>
<trkpt lat="34.9045133" lon="32.3963193">
<ele>534.50</ele>
<time>2015-04-24T17:17:37Z</time>
</trkpt>
<trkpt lat="34.9045365" lon="32.3963681">
<ele>534.71</ele>
<time>2015-04-24T17:17:38Z</time>
</trkpt>
<trkpt lat="34.9045907" lon="32.3964399">
<ele>534.37</ele>
<time>2015-04-24T17:17:40Z</time>
</trkpt>
<trkpt lat="34.9046396" lon="32.3965158">
<ele>534.04</ele>
<time>2015-04-24T17:17:42Z</time>
</trkpt>
<trkpt lat="34.9046845" lon="32.3966008">
<ele>534.45</ele>
<time>2015-04-24T17:17:44Z</time>
</trkpt>
<trkpt lat="34.9047138" lon="32.3966860">
<ele>534.06</ele>
<time>2015-04-24T17:17:46Z</time>
</trkpt>
<trkpt lat="34.9047381" lon="32.3967726">
<ele>533.96</ele>
<time>2015-04-24T17:17:48Z</time>
</trkpt>
<trkpt lat="34.9047510" lon="32.3968708">
<ele>533.43</ele>
<time>2015-04-24T17:17:50Z</time>
</trkpt>
<trkpt lat="34.9047390" lon="32.3969379">
<ele>533.18</ele>
<time>2015-04-24T17:17:51Z</time>
</trkpt>
<trkpt lat="34.9047351" lon="32.3970111">
<ele>533.05</ele>
<time>2015-04-24T17:17:52Z</time>
</trkpt>
<trkpt lat="34.9047219" lon="32.3970794">
<ele>532.99</ele>
<time>2015-04-24T17:17:53Z</time>
</trkpt>
<trkpt lat="34.9047188" lon="32.3971598">
<ele>532.46</ele>
<time>2015-04-24T17:17:54Z</time>
</trkpt>
<trkpt lat="34.9047087" lon="32.3972425">
<ele>532.19</ele>
<time>2015-04-24T17:17:55Z</time>
</trkpt>
<trkpt lat="34.9047037" lon="32.3973267">
<ele>531.56</ele>
<time>2015-04-24T17:17:56Z</time>
</trkpt>
<trkpt lat="34.9046816" lon="32.3974230">
<ele>531.74</ele>
<time>2015-04-24T17:17:57Z</time>
</trkpt>
<trkpt lat="34.9046618" lon="32.3975034">
<ele>531.83</ele>
<time>2015-04-24T17:17:58Z</time>
</trkpt>
<trkpt lat="34.9046373" lon="32.3975900">
<ele>531.38</ele>
<time>2015-04-24T17:17:59Z</time>
</trkpt>
<trkpt lat="34.9046060" lon="32.3976840">
<ele>531.15</ele>
<time>2015-04-24T17:18:00Z</time>
</trkpt>
<trkpt lat="34.9045774" lon="32.3977680">
<ele>530.54</ele>
<time>2015-04-24T17:18:01Z</time>
</trkpt>
<trkpt lat="34.9045400" lon="32.3978466">
<ele>529.73</ele>
<time>2015-04-24T17:18:02Z</time>
</trkpt>
<trkpt lat="34.9044961" lon="32.3979167">
<ele>528.83</ele>
<time>2015-04-24T17:18:03Z</time>
</trkpt>
<trkpt lat="34.9044447" lon="32.3979922">
<ele>527.88</ele>
<time>2015-04-24T17:18:04Z</time>
</trkpt>
<trkpt lat="34.9044096" lon="32.3980786">
<ele>526.90</ele>
<time>2015-04-24T17:18:05Z</time>
</trkpt>
<trkpt lat="34.9043572" lon="32.3981603">
<ele>525.91</ele>
<time>2015-04-24T17:18:06Z</time>
</trkpt>
<trkpt lat="34.9043090" lon="32.3982255">
<ele>525.42</ele>
<time>2015-04-24T17:18:07Z</time>
</trkpt>
<trkpt lat="34.9042585" lon="32.3982981">
<ele>524.17</ele>
<time>2015-04-24T17:18:08Z</time>
</trkpt>
<trkpt lat="34.9042013" lon="32.3983809">
<ele>523.05</ele>
<time>2015-04-24T17:18:09Z</time>
</trkpt>
<trkpt lat="34.9041517" lon="32.3984662">
<ele>522.49</ele>
<time>2015-04-24T17:18:10Z</time>
</trkpt>
<trkpt lat="34.9041084" lon="32.3985437">
<ele>521.71</ele>
<time>2015-04-24T17:18:11Z</time>
</trkpt>
<trkpt lat="34.9040505" lon="32.3986340">
<ele>520.32</ele>
<time>2015-04-24T17:18:12Z</time>
</trkpt>
<trkpt lat="34.9040020" lon="32.3987286">
<ele>519.62</ele>
<time>2015-04-24T17:18:13Z</time>
</trkpt>
<trkpt lat="34.9039493" lon="32.3988206">
<ele>518.77</ele>
<time>2015-04-24T17:18:14Z</time>
</trkpt>
<trkpt lat="34.9038960" lon="32.3989124">
<ele>518.85</ele>
<time>2015-04-24T17:18:15Z</time>
</trkpt>
<trkpt lat="34.9038440" lon="32.3990122">
<ele>518.89</ele>
<time>2015-04-24T17:18:16Z</time>
</trkpt>
<trkpt lat="34.9037887" lon="32.3991026">
<ele>518.41</ele>
<time>2015-04-24T17:18:17Z</time>
</trkpt>
<trkpt lat="34.9037256" lon="32.3991965">
<ele>517.67</ele>
<time>2015-04-24T17:18:18Z</time>
</trkpt>
<trkpt lat="34.9036665" lon="32.3992933">
<ele>516.30</ele>
<time>2015-04-24T17:18:19Z</time>
</trkpt>
<trkpt lat="34.9036098" lon="32.3993885">
<ele>515.61</ele>
<time>2015-04-24T17:18:20Z</time>
</trkpt>
<trkpt lat="34.9035348" lon="32.3994848">
<ele>514.27</ele>
<time>2015-04-24T17:18:21Z</time>
</trkpt>
<trkpt lat="34.9034798" lon="32.3995782">
<ele>513.10</ele>
<time>2015-04-24T17:18:22Z</time>
</trkpt>
<trkpt lat="34.9034212" lon="32.3996774">
<ele>512.51</ele>
<time>2015-04-24T17:18:23Z</time>
</trkpt>
<trkpt lat="34.9033735" lon="32.3997831">
<ele>511.72</ele>
<time>2015-04-24T17:18:24Z</time>
</trkpt>
<trkpt lat="34.9033346" lon="32.3998971">
<ele>511.32</ele>
<time>2015-04-24T17:18:25Z</time>
</trkpt>
<trkpt lat="34.9032960" lon="32.4000136">
<ele>511.12</ele>
<time>2015-04-24T17:18:26Z</time>
</trkpt>
<trkpt lat="34.9032566" lon="32.4001304">
<ele>510.52</ele>
<time>2015-04-24T17:18:27Z</time>
</trkpt>
<trkpt lat="34.9032144" lon="32.4002525">
<ele>510.22</ele>
<time>2015-04-24T17:18:28Z</time>
</trkpt>
<trkpt lat="34.9031921" lon="32.4003792">
<ele>510.07</ele>
<time>2015-04-24T17:18:29Z</time>
</trkpt>
<trkpt lat="34.9031703" lon="32.4005077">
<ele>510.00</ele>
<time>2015-04-24T17:18:30Z</time>
</trkpt>
<trkpt lat="34.9031493" lon="32.4006210">
<ele>510.46</ele>
<time>2015-04-24T17:18:31Z</time>
</trkpt>
<trkpt lat="34.9031303" lon="32.4007441">
<ele>511.19</ele>
<time>2015-04-24T17:18:32Z</time>
</trkpt>
<trkpt lat="34.9031175" lon="32.4008552">
<ele>511.56</ele>
<time>2015-04-24T17:18:33Z</time>
</trkpt>
<trkpt lat="34.9031024" lon="32.4009574">
<ele>512.24</ele>
<time>2015-04-24T17:18:34Z</time>
</trkpt>
<trkpt lat="34.9030880" lon="32.4010520">
<ele>512.08</ele>
<time>2015-04-24T17:18:35Z</time>
</trkpt>
<trkpt lat="34.9030741" lon="32.4011560">
<ele>512.00</ele>
<time>2015-04-24T17:18:36Z</time>
</trkpt>
<trkpt lat="34.9030613" lon="32.4012433">
<ele>511.46</ele>
<time>2015-04-24T17:18:37Z</time>
</trkpt>
<trkpt lat="34.9030522" lon="32.4013392">
<ele>511.19</ele>
<time>2015-04-24T17:18:38Z</time>
</trkpt>
<trkpt lat="34.9030388" lon="32.4014209">
<ele>511.06</ele>
<time>2015-04-24T17:18:39Z</time>
</trkpt>
<trkpt lat="34.9030176" lon="32.4015095">
<ele>510.99</ele>
<time>2015-04-24T17:18:40Z</time>
</trkpt>
<trkpt lat="34.9030030" lon="32.4015938">
<ele>510.96</ele>
<time>2015-04-24T17:18:41Z</time>
</trkpt>
<trkpt lat="34.9029943" lon="32.4016757">
<ele>510.44</ele>
<time>2015-04-24T17:18:42Z</time>
</trkpt>
<trkpt lat="34.9029751" lon="32.4017491">
<ele>509.68</ele>
<time>2015-04-24T17:18:43Z</time>
</trkpt>
<trkpt lat="34.9029621" lon="32.4018371">
<ele>509.80</ele>
<time>2015-04-24T17:18:44Z</time>
</trkpt>
<trkpt lat="34.9029552" lon="32.4019214">
<ele>509.86</ele>
<time>2015-04-24T17:18:45Z</time>
</trkpt>
<trkpt lat="34.9029427" lon="32.4019994">
<ele>509.89</ele>
<time>2015-04-24T17:18:46Z</time>
</trkpt>
<trkpt lat="34.9029256" lon="32.4020749">
<ele>509.41</ele>
<time>2015-04-24T17:18:47Z</time>
</trkpt>
<trkpt lat="34.9029140" lon="32.4021465">
<ele>509.67</ele>
<time>2015-04-24T17:18:48Z</time>
</trkpt>
<trkpt lat="34.9029045" lon="32.4022254">
<ele>509.80</ele>
<time>2015-04-24T17:18:49Z</time>
</trkpt>
<trkpt lat="34.9028895" lon="32.4022922">
<ele>509.86</ele>
<time>2015-04-24T17:18:50Z</time>
</trkpt>
<trkpt lat="34.9028696" lon="32.4023555">
<ele>510.39</ele>
<time>2015-04-24T17:18:51Z</time>
</trkpt>
<trkpt lat="34.9028608" lon="32.4024224">
<ele>510.66</ele>
<time>2015-04-24T17:18:52Z</time>
</trkpt>
<trkpt lat="34.9028539" lon="32.4024845">
<ele>510.79</ele>
<time>2015-04-24T17:18:53Z</time>
</trkpt>
<trkpt lat="34.9028484" lon="32.4025402">
<ele>510.36</ele>
<time>2015-04-24T17:18:54Z</time>
</trkpt>
<trkpt lat="34.9028362" lon="32.4025949">
<ele>509.64</ele>
<time>2015-04-24T17:18:55Z</time>
</trkpt>
<trkpt lat="34.9028204" lon="32.4026695">
<ele>509.85</ele>
<time>2015-04-24T17:18:57Z</time>
</trkpt>
<trkpt lat="34.9028079" lon="32.4027230">
<ele>509.92</ele>
<time>2015-04-24T17:19:00Z</time>
</trkpt>
<trkpt lat="34.9027963" lon="32.4028018">
<ele>509.92</ele>
<time>2015-04-24T17:19:03Z</time>
</trkpt>
<trkpt lat="34.9027831" lon="32.4028645">
<ele>509.92</ele>
<time>2015-04-24T17:19:05Z</time>
</trkpt>
<trkpt lat="34.9027843" lon="32.4029226">
<ele>509.92</ele>
<time>2015-04-24T17:19:07Z</time>
</trkpt>
<trkpt lat="34.9027812" lon="32.4029776">
<ele>510.42</ele>
<time>2015-04-24T17:19:09Z</time>
</trkpt>
<trkpt lat="34.9027648" lon="32.4030442">
<ele>511.36</ele>
<time>2015-04-24T17:19:12Z</time>
</trkpt>
<trkpt lat="34.9027523" lon="32.4031124">
<ele>512.10</ele>
<time>2015-04-24T17:19:15Z</time>
</trkpt>
<trkpt lat="34.9027464" lon="32.4031807">
<ele>512.47</ele>
<time>2015-04-24T17:19:17Z</time>
</trkpt>
<trkpt lat="34.9027326" lon="32.4032738">
<ele>512.56</ele>
<time>2015-04-24T17:19:19Z</time>
</trkpt>
<trkpt lat="34.9027206" lon="32.4033742">
<ele>511.58</ele>
<time>2015-04-24T17:19:21Z</time>
</trkpt>
<trkpt lat="34.9027133" lon="32.4034737">
<ele>511.09</ele>
<time>2015-04-24T17:19:23Z</time>
</trkpt>
<trkpt lat="34.9027056" lon="32.4035751">
<ele>512.47</ele>
<time>2015-04-24T17:19:25Z</time>
</trkpt>
<trkpt lat="34.9027018" lon="32.4036681">
<ele>512.81</ele>
<time>2015-04-24T17:19:27Z</time>
</trkpt>
<trkpt lat="34.9027024" lon="32.4037549">
<ele>513.65</ele>
<time>2015-04-24T17:19:29Z</time>
</trkpt>
<trkpt lat="34.9027056" lon="32.4038414">
<ele>513.86</ele>
<time>2015-04-24T17:19:31Z</time>
</trkpt>
<trkpt lat="34.9027123" lon="32.4039407">
<ele>514.41</ele>
<time>2015-04-24T17:19:33Z</time>
</trkpt>
<trkpt lat="34.9027185" lon="32.4040122">
<ele>514.67</ele>
<time>2015-04-24T17:19:34Z</time>
</trkpt>
<trkpt lat="34.9027276" lon="32.4041219">
<ele>513.36</ele>
<time>2015-04-24T17:19:36Z</time>
</trkpt>
<trkpt lat="34.9027373" lon="32.4041806">
<ele>513.64</ele>
<time>2015-04-24T17:19:37Z</time>
</trkpt>
<trkpt lat="34.9027412" lon="32.4042354">
<ele>514.28</ele>
<time>2015-04-24T17:19:38Z</time>
</trkpt>
<trkpt lat="34.9027524" lon="32.4043432">
<ele>514.76</ele>
<time>2015-04-24T17:19:40Z</time>
</trkpt>
<trkpt lat="34.9027648" lon="32.4044424">
<ele>515.38</ele>
<time>2015-04-24T17:19:42Z</time>
</trkpt>
<trkpt lat="34.9027791" lon="32.4045368">
<ele>514.54</ele>
<time>2015-04-24T17:19:44Z</time>
</trkpt>
<trkpt lat="34.9027849" lon="32.4046215">
<ele>513.58</ele>
<time>2015-04-24T17:19:46Z</time>
</trkpt>
<trkpt lat="34.9027953" lon="32.4047065">
<ele>513.09</ele>
<time>2015-04-24T17:19:48Z</time>
</trkpt>
<trkpt lat="34.9028013" lon="32.4047852">
<ele>513.22</ele>
<time>2015-04-24T17:19:50Z</time>
</trkpt>
<trkpt lat="34.9028087" lon="32.4048686">
<ele>514.25</ele>
<time>2015-04-24T17:19:52Z</time>
</trkpt>
<trkpt lat="34.9028159" lon="32.4049553">
<ele>514.76</ele>
<time>2015-04-24T17:19:54Z</time>
</trkpt>
<trkpt lat="34.9028167" lon="32.4050403">
<ele>516.13</ele>
<time>2015-04-24T17:19:56Z</time>
</trkpt>
<trkpt lat="34.9028271" lon="32.4051197">
<ele>515.98</ele>
<time>2015-04-24T17:19:58Z</time>
</trkpt>
<trkpt lat="34.9028401" lon="32.4051991">
<ele>516.44</ele>
<time>2015-04-24T17:20:00Z</time>
</trkpt>
<trkpt lat="34.9028493" lon="32.4052798">
<ele>516.80</ele>
<time>2015-04-24T17:20:02Z</time>
</trkpt>
<trkpt lat="34.9028554" lon="32.4053617">
<ele>516.89</ele>
<time>2015-04-24T17:20:04Z</time>
</trkpt>
<trkpt lat="34.9028639" lon="32.4054423">
<ele>516.92</ele>
<time>2015-04-24T17:20:06Z</time>
</trkpt>
<trkpt lat="34.9028739" lon="32.4055176">
<ele>516.92</ele>
<time>2015-04-24T17:20:08Z</time>
</trkpt>
<trkpt lat="34.9028792" lon="32.4055864">
<ele>518.17</ele>
<time>2015-04-24T17:20:10Z</time>
</trkpt>
<trkpt lat="34.9028860" lon="32.4056515">
<ele>519.24</ele>
<time>2015-04-24T17:20:12Z</time>
</trkpt>
<trkpt lat="34.9028929" lon="32.4057151">
<ele>519.00</ele>
<time>2015-04-24T17:20:14Z</time>
</trkpt>
<trkpt lat="34.9029011" lon="32.4057804">
<ele>518.44</ele>
<time>2015-04-24T17:20:16Z</time>
</trkpt>
<trkpt lat="34.9029083" lon="32.4058448">
<ele>518.80</ele>
<time>2015-04-24T17:20:18Z</time>
</trkpt>
<trkpt lat="34.9029114" lon="32.4059056">
<ele>519.64</ele>
<time>2015-04-24T17:20:20Z</time>
</trkpt>
<trkpt lat="34.9029186" lon="32.4059640">
<ele>521.10</ele>
<time>2015-04-24T17:20:22Z</time>
</trkpt>
<trkpt lat="34.9029268" lon="32.4060223">
<ele>521.72</ele>
<time>2015-04-24T17:20:24Z</time>
</trkpt>
<trkpt lat="34.9029362" lon="32.4060809">
<ele>520.62</ele>
<time>2015-04-24T17:20:26Z</time>
</trkpt>
<trkpt lat="34.9029464" lon="32.4061396">
<ele>520.85</ele>
<time>2015-04-24T17:20:28Z</time>
</trkpt>
<trkpt lat="34.9029528" lon="32.4061988">
<ele>520.91</ele>
<time>2015-04-24T17:20:30Z</time>
</trkpt>
<trkpt lat="34.9029590" lon="32.4062571">
<ele>520.92</ele>
<time>2015-04-24T17:20:32Z</time>
</trkpt>
<trkpt lat="34.9029616" lon="32.4063167">
<ele>521.42</ele>
<time>2015-04-24T17:20:34Z</time>
</trkpt>
<trkpt lat="34.9029652" lon="32.4063746">
<ele>520.30</ele>
<time>2015-04-24T17:20:36Z</time>
</trkpt>
<trkpt lat="34.9029670" lon="32.4064297">
<ele>519.27</ele>
<time>2015-04-24T17:20:38Z</time>
</trkpt>
<trkpt lat="34.9029726" lon="32.4064932">
<ele>520.72</ele>
<time>2015-04-24T17:20:41Z</time>
</trkpt>
<trkpt lat="34.9029872" lon="32.4065516">
<ele>519.52</ele>
<time>2015-04-24T17:20:44Z</time>
</trkpt>
<trkpt lat="34.9029940" lon="32.4066204">
<ele>519.50</ele>
<time>2015-04-24T17:20:47Z</time>
</trkpt>
<trkpt lat="34.9030000" lon="32.4066972">
<ele>519.87</ele>
<time>2015-04-24T17:20:50Z</time>
</trkpt>
<trkpt lat="34.9030097" lon="32.4067769">
<ele>518.54</ele>
<time>2015-04-24T17:20:53Z</time>
</trkpt>
<trkpt lat="34.9030168" lon="32.4068556">
<ele>519.25</ele>
<time>2015-04-24T17:20:56Z</time>
</trkpt>
<trkpt lat="34.9030227" lon="32.4069317">
<ele>520.22</ele>
<time>2015-04-24T17:20:59Z</time>
</trkpt>
<trkpt lat="34.9030259" lon="32.4070077">
<ele>520.96</ele>
<time>2015-04-24T17:21:02Z</time>
</trkpt>
<trkpt lat="34.9030336" lon="32.4070814">
<ele>519.80</ele>
<time>2015-04-24T17:21:05Z</time>
</trkpt>
<trkpt lat="34.9030359" lon="32.4071511">
<ele>521.28</ele>
<time>2015-04-24T17:21:08Z</time>
</trkpt>
<trkpt lat="34.9030274" lon="32.4072227">
<ele>522.59</ele>
<time>2015-04-24T17:21:11Z</time>
</trkpt>
<trkpt lat="34.9030186" lon="32.4072979">
<ele>521.51</ele>
<time>2015-04-24T17:21:14Z</time>
</trkpt>
<trkpt lat="34.9030160" lon="32.4073765">
<ele>522.62</ele>
<time>2015-04-24T17:21:17Z</time>
</trkpt>
<trkpt lat="34.9030075" lon="32.4074581">
<ele>523.64</ele>
<time>2015-04-24T17:21:20Z</time>
</trkpt>
<trkpt lat="34.9030025" lon="32.4075336">
<ele>524.14</ele>
<time>2015-04-24T17:21:23Z</time>
</trkpt>
<trkpt lat="34.9030019" lon="32.4076100">
<ele>525.33</ele>
<time>2015-04-24T17:21:26Z</time>
</trkpt>
<trkpt lat="34.9030025" lon="32.4076836">
<ele>525.73</ele>
<time>2015-04-24T17:21:29Z</time>
</trkpt>
<trkpt lat="34.9030073" lon="32.4077617">
<ele>525.90</ele>
<time>2015-04-24T17:21:32Z</time>
</trkpt>
<trkpt lat="34.9030203" lon="32.4078359">
<ele>527.17</ele>
<time>2015-04-24T17:21:35Z</time>
</trkpt>
<trkpt lat="34.9030469" lon="32.4079096">
<ele>528.33</ele>
<time>2015-04-24T17:21:38Z</time>
</trkpt>
<trkpt lat="34.9030821" lon="32.4079762">
<ele>529.23</ele>
<time>2015-04-24T17:21:41Z</time>
</trkpt>
<trkpt lat="34.9031170" lon="32.4080357">
<ele>529.84</ele>
<time>2015-04-24T17:21:44Z</time>
</trkpt>
<trkpt lat="34.9031601" lon="32.4080855">
<ele>530.66</ele>
<time>2015-04-24T17:21:47Z</time>
</trkpt>
<trkpt lat="34.9032078" lon="32.4081318">
<ele>530.89</ele>
<time>2015-04-24T17:21:50Z</time>
</trkpt>
<trkpt lat="34.9032670" lon="32.4081617">
<ele>531.67</ele>
<time>2015-04-24T17:21:53Z</time>
</trkpt>
<trkpt lat="34.9033269" lon="32.4081889">
<ele>531.89</ele>
<time>2015-04-24T17:21:56Z</time>
</trkpt>
<trkpt lat="34.9033891" lon="32.4082041">
<ele>532.67</ele>
<time>2015-04-24T17:21:59Z</time>
</trkpt>
<trkpt lat="34.9034515" lon="32.4082218">
<ele>532.89</ele>
<time>2015-04-24T17:22:02Z</time>
</trkpt>
<trkpt lat="34.9035156" lon="32.4082361">
<ele>533.92</ele>
<time>2015-04-24T17:22:05Z</time>
</trkpt>
<trkpt lat="34.9035807" lon="32.4082335">
<ele>534.55</ele>
<time>2015-04-24T17:22:08Z</time>
</trkpt>
<trkpt lat="34.9036385" lon="32.4082301">
<ele>535.63</ele>
<time>2015-04-24T17:22:11Z</time>
</trkpt>
<trkpt lat="34.9036868" lon="32.4082061">
<ele>536.39</ele>
<time>2015-04-24T17:22:14Z</time>
</trkpt>
<trkpt lat="34.9037362" lon="32.4081785">
<ele>537.36</ele>
<time>2015-04-24T17:22:17Z</time>
</trkpt>
<trkpt lat="34.9037872" lon="32.4081418">
<ele>536.98</ele>
<time>2015-04-24T17:22:20Z</time>
</trkpt>
<trkpt lat="34.9038355" lon="32.4081000">
<ele>538.93</ele>
<time>2015-04-24T17:22:23Z</time>
</trkpt>
<trkpt lat="34.9038784" lon="32.4080497">
<ele>539.80</ele>
<time>2015-04-24T17:22:26Z</time>
</trkpt>
<trkpt lat="34.9039223" lon="32.4079916">
<ele>538.16</ele>
<time>2015-04-24T17:22:29Z</time>
</trkpt>
<trkpt lat="34.9039501" lon="32.4079260">
<ele>537.95</ele>
<time>2015-04-24T17:22:32Z</time>
</trkpt>
<trkpt lat="34.9039718" lon="32.4078525">
<ele>538.55</ele>
<time>2015-04-24T17:22:35Z</time>
</trkpt>
<trkpt lat="34.9039928" lon="32.4077773">
<ele>538.88</ele>
<time>2015-04-24T17:22:38Z</time>
</trkpt>
<trkpt lat="34.9040072" lon="32.4077039">
<ele>537.79</ele>
<time>2015-04-24T17:22:41Z</time>
</trkpt>
<trkpt lat="34.9040306" lon="32.4076406">
<ele>537.41</ele>
<time>2015-04-24T17:22:44Z</time>
</trkpt>
<trkpt lat="34.9040367" lon="32.4075697">
<ele>537.74</ele>
<time>2015-04-24T17:22:47Z</time>
</trkpt>
<trkpt lat="34.9040417" lon="32.4074980">
<ele>537.90</ele>
<time>2015-04-24T17:22:50Z</time>
</trkpt>
<trkpt lat="34.9040441" lon="32.4074264">
<ele>539.17</ele>
<time>2015-04-24T17:22:53Z</time>
</trkpt>
<trkpt lat="34.9040477" lon="32.4073548">
<ele>539.71</ele>
<time>2015-04-24T17:22:56Z</time>
</trkpt>
<trkpt lat="34.9040516" lon="32.4072847">
<ele>540.77</ele>
<time>2015-04-24T17:22:59Z</time>
</trkpt>
<trkpt lat="34.9040640" lon="32.4072151">
<ele>540.41</ele>
<time>2015-04-24T17:23:02Z</time>
</trkpt>
<trkpt lat="34.9040742" lon="32.4071495">
<ele>540.74</ele>
<time>2015-04-24T17:23:05Z</time>
</trkpt>
<trkpt lat="34.9040794" lon="32.4070832">
<ele>542.53</ele>
<time>2015-04-24T17:23:08Z</time>
</trkpt>
<trkpt lat="34.9040897" lon="32.4070194">
<ele>542.88</ele>
<time>2015-04-24T17:23:11Z</time>
</trkpt>
<trkpt lat="34.9041093" lon="32.4069505">
<ele>542.92</ele>
<time>2015-04-24T17:23:14Z</time>
</trkpt>
<trkpt lat="34.9041165" lon="32.4068800">
<ele>543.30</ele>
<time>2015-04-24T17:23:17Z</time>
</trkpt>
<trkpt lat="34.9041249" lon="32.4068106">
<ele>543.72</ele>
<time>2015-04-24T17:23:20Z</time>
</trkpt>
<trkpt lat="34.9041298" lon="32.4067411">
<ele>544.40</ele>
<time>2015-04-24T17:23:23Z</time>
</trkpt>
<trkpt lat="34.9041436" lon="32.4066722">
<ele>544.11</ele>
<time>2015-04-24T17:23:26Z</time>
</trkpt>
<trkpt lat="34.9041561" lon="32.4066098">
<ele>546.07</ele>
<time>2015-04-24T17:23:29Z</time>
</trkpt>
<trkpt lat="34.9041604" lon="32.4065473">
<ele>546.82</ele>
<time>2015-04-24T17:23:32Z</time>
</trkpt>
<trkpt lat="34.9041708" lon="32.4064814">
<ele>547.79</ele>
<time>2015-04-24T17:23:35Z</time>
</trkpt>
<trkpt lat="34.9041769" lon="32.4064158">
<ele>548.78</ele>
<time>2015-04-24T17:23:38Z</time>
</trkpt>
<trkpt lat="34.9041849" lon="32.4063475">
<ele>549.66</ele>
<time>2015-04-24T17:23:41Z</time>
</trkpt>
<trkpt lat="34.9041958" lon="32.4062826">
<ele>549.89</ele>
<time>2015-04-24T17:23:44Z</time>
</trkpt>
<trkpt lat="34.9042132" lon="32.4062210">
<ele>550.42</ele>
<time>2015-04-24T17:23:47Z</time>
</trkpt>
<trkpt lat="34.9042302" lon="32.4061649">
<ele>551.36</ele>
<time>2015-04-24T17:23:50Z</time>
</trkpt>
<trkpt lat="34.9042389" lon="32.4061034">
<ele>551.85</ele>
<time>2015-04-24T17:23:53Z</time>
</trkpt>
<trkpt lat="34.9042440" lon="32.4060434">
<ele>553.54</ele>
<time>2015-04-24T17:23:56Z</time>
</trkpt>
<trkpt lat="34.9042631" lon="32.4059910">
<ele>554.75</ele>
<time>2015-04-24T17:23:59Z</time>
</trkpt>
<trkpt lat="34.9042916" lon="32.4059381">
<ele>555.65</ele>
<time>2015-04-24T17:24:02Z</time>
</trkpt>
<trkpt lat="34.9043336" lon="32.4058849">
<ele>555.39</ele>
<time>2015-04-24T17:24:05Z</time>
</trkpt>
<trkpt lat="34.9043752" lon="32.4058272">
<ele>553.98</ele>
<time>2015-04-24T17:24:08Z</time>
</trkpt>
<trkpt lat="34.9044180" lon="32.4057831">
<ele>553.93</ele>
<time>2015-04-24T17:24:11Z</time>
</trkpt>
<trkpt lat="34.9044697" lon="32.4057545">
<ele>553.43</ele>
<time>2015-04-24T17:24:14Z</time>
</trkpt>
<trkpt lat="34.9045236" lon="32.4057389">
<ele>552.99</ele>
<time>2015-04-24T17:24:17Z</time>
</trkpt>
<trkpt lat="34.9045781" lon="32.4057396">
<ele>552.93</ele>
<time>2015-04-24T17:24:20Z</time>
</trkpt>
<trkpt lat="34.9046331" lon="32.4057493">
<ele>553.80</ele>
<time>2015-04-24T17:24:23Z</time>
</trkpt>
<trkpt lat="34.9046849" lon="32.4057684">
<ele>554.66</ele>
<time>2015-04-24T17:24:26Z</time>
</trkpt>
<trkpt lat="34.9047342" lon="32.4058019">
<ele>555.64</ele>
<time>2015-04-24T17:24:29Z</time>
</trkpt>
<trkpt lat="34.9047751" lon="32.4058483">
<ele>556.76</ele>
<time>2015-04-24T17:24:32Z</time>
</trkpt>
<trkpt lat="34.9048075" lon="32.4059078">
<ele>557.40</ele>
<time>2015-04-24T17:24:35Z</time>
</trkpt>
<trkpt lat="34.9048331" lon="32.4059709">
<ele>557.86</ele>
<time>2015-04-24T17:24:38Z</time>
</trkpt>
<trkpt lat="34.9048571" lon="32.4060280">
<ele>558.67</ele>
<time>2015-04-24T17:24:41Z</time>
</trkpt>
<trkpt lat="34.9048701" lon="32.4060901">
<ele>558.27</ele>
<time>2015-04-24T17:24:44Z</time>
</trkpt>
<trkpt lat="34.9048745" lon="32.4061581">
<ele>557.97</ele>
<time>2015-04-24T17:24:47Z</time>
</trkpt>
<trkpt lat="34.9048836" lon="32.4062204">
<ele>557.68</ele>
<time>2015-04-24T17:24:50Z</time>
</trkpt>
<trkpt lat="34.9048805" lon="32.4062894">
<ele>557.89</ele>
<time>2015-04-24T17:24:53Z</time>
</trkpt>
<trkpt lat="34.9048824" lon="32.4063525">
<ele>557.92</ele>
<time>2015-04-24T17:24:56Z</time>
</trkpt>
<trkpt lat="34.9048804" lon="32.4064203">
<ele>559.17</ele>
<time>2015-04-24T17:24:59Z</time>
</trkpt>
<trkpt lat="34.9048849" lon="32.4064880">
<ele>560.08</ele>
<time>2015-04-24T17:25:02Z</time>
</trkpt>
<trkpt lat="34.9048906" lon="32.4065507">
<ele>560.57</ele>
<time>2015-04-24T17:25:05Z</time>
</trkpt>
<trkpt lat="34.9048981" lon="32.4066143">
<ele>560.51</ele>
<time>2015-04-24T17:25:08Z</time>
</trkpt>
<trkpt lat="34.9049050" lon="32.4066755">
<ele>560.75</ele>
<time>2015-04-24T17:25:11Z</time>
</trkpt>
<trkpt lat="34.9049152" lon="32.4067356">
<ele>560.90</ele>
<time>2015-04-24T17:25:14Z</time>
</trkpt>
<trkpt lat="34.9049250" lon="32.4067934">
<ele>560.92</ele>
<time>2015-04-24T17:25:17Z</time>
</trkpt>
<trkpt lat="34.9049295" lon="32.4068651">
<ele>560.92</ele>
<time>2015-04-24T17:25:21Z</time>
</trkpt>
<trkpt lat="34.9049314" lon="32.4069325">
<ele>561.42</ele>
<time>2015-04-24T17:25:25Z</time>
</trkpt>
<trkpt lat="34.9049313" lon="32.4069952">
<ele>561.89</ele>
<time>2015-04-24T17:25:29Z</time>
</trkpt>
<trkpt lat="34.9049327" lon="32.4070682">
<ele>561.92</ele>
<time>2015-04-24T17:25:33Z</time>
</trkpt>
<trkpt lat="34.9049340" lon="32.4071355">
<ele>561.05</ele>
<time>2015-04-24T17:25:36Z</time>
</trkpt>
<trkpt lat="34.9049363" lon="32.4072168">
<ele>561.82</ele>
<time>2015-04-24T17:25:39Z</time>
</trkpt>
<trkpt lat="34.9049424" lon="32.4072916">
<ele>562.16</ele>
<time>2015-04-24T17:25:42Z</time>
</trkpt>
<trkpt lat="34.9049403" lon="32.4073611">
<ele>562.20</ele>
<time>2015-04-24T17:25:45Z</time>
</trkpt>
<trkpt lat="34.9049447" lon="32.4074347">
<ele>562.83</ele>
<time>2015-04-24T17:25:48Z</time>
</trkpt>
<trkpt lat="34.9049462" lon="32.4075143">
<ele>563.04</ele>
<time>2015-04-24T17:25:51Z</time>
</trkpt>
<trkpt lat="34.9049406" lon="32.4075922">
<ele>564.20</ele>
<time>2015-04-24T17:25:53Z</time>
</trkpt>
<trkpt lat="34.9049384" lon="32.4076810">
<ele>564.74</ele>
<time>2015-04-24T17:25:55Z</time>
</trkpt>
<trkpt lat="34.9049406" lon="32.4077658">
<ele>565.38</ele>
<time>2015-04-24T17:25:57Z</time>
</trkpt>
<trkpt lat="34.9049425" lon="32.4078451">
<ele>565.79</ele>
<time>2015-04-24T17:25:59Z</time>
</trkpt>
<trkpt lat="34.9049451" lon="32.4079308">
<ele>565.89</ele>
<time>2015-04-24T17:26:01Z</time>
</trkpt>
<trkpt lat="34.9049511" lon="32.4080217">
<ele>565.92</ele>
<time>2015-04-24T17:26:03Z</time>
</trkpt>
<trkpt lat="34.9049657" lon="32.4081196">
<ele>566.67</ele>
<time>2015-04-24T17:26:05Z</time>
</trkpt>
<trkpt lat="34.9049890" lon="32.4082123">
<ele>566.86</ele>
<time>2015-04-24T17:26:07Z</time>
</trkpt>
<trkpt lat="34.9050130" lon="32.4083016">
<ele>567.41</ele>
<time>2015-04-24T17:26:09Z</time>
</trkpt>
<trkpt lat="34.9050428" lon="32.4083717">
<ele>567.05</ele>
<time>2015-04-24T17:26:11Z</time>
</trkpt>
<trkpt lat="34.9050782" lon="32.4084385">
<ele>566.96</ele>
<time>2015-04-24T17:26:13Z</time>
</trkpt>
<trkpt lat="34.9051144" lon="32.4085017">
<ele>566.93</ele>
<time>2015-04-24T17:26:15Z</time>
</trkpt>
<trkpt lat="34.9051544" lon="32.4085655">
<ele>566.93</ele>
<time>2015-04-24T17:26:17Z</time>
</trkpt>
<trkpt lat="34.9051928" lon="32.4086219">
<ele>566.93</ele>
<time>2015-04-24T17:26:19Z</time>
</trkpt>
<trkpt lat="34.9052235" lon="32.4086756">
<ele>566.93</ele>
<time>2015-04-24T17:26:21Z</time>
</trkpt>
<trkpt lat="34.9052543" lon="32.4087164">
<ele>566.93</ele>
<time>2015-04-24T17:26:23Z</time>
</trkpt>
<trkpt lat="34.9052896" lon="32.4087594">
<ele>566.92</ele>
<time>2015-04-24T17:26:25Z</time>
</trkpt>
<trkpt lat="34.9053212" lon="32.4088071">
<ele>567.42</ele>
<time>2015-04-24T17:26:27Z</time>
</trkpt>
<trkpt lat="34.9053523" lon="32.4088539">
<ele>568.30</ele>
<time>2015-04-24T17:26:29Z</time>
</trkpt>
<trkpt lat="34.9053855" lon="32.4089000">
<ele>569.47</ele>
<time>2015-04-24T17:26:32Z</time>
</trkpt>
<trkpt lat="34.9054195" lon="32.4089517">
<ele>569.87</ele>
<time>2015-04-24T17:26:35Z</time>
</trkpt>
<trkpt lat="34.9054669" lon="32.4090104">
<ele>569.92</ele>
<time>2015-04-24T17:26:38Z</time>
</trkpt>
<trkpt lat="34.9054998" lon="32.4090528">
<ele>570.42</ele>
<time>2015-04-24T17:26:40Z</time>
</trkpt>
<trkpt lat="34.9055477" lon="32.4091039">
<ele>570.61</ele>
<time>2015-04-24T17:26:43Z</time>
</trkpt>
<trkpt lat="34.9055863" lon="32.4091385">
<ele>570.35</ele>
<time>2015-04-24T17:26:45Z</time>
</trkpt>
<trkpt lat="34.9056240" lon="32.4091836">
<ele>570.28</ele>
<time>2015-04-24T17:26:47Z</time>
</trkpt>
<trkpt lat="34.9056625" lon="32.4092383">
<ele>570.01</ele>
<time>2015-04-24T17:26:49Z</time>
</trkpt>
<trkpt lat="34.9056979" lon="32.4092922">
<ele>569.70</ele>
<time>2015-04-24T17:26:51Z</time>
</trkpt>
<trkpt lat="34.9057387" lon="32.4093405">
<ele>569.37</ele>
<time>2015-04-24T17:26:53Z</time>
</trkpt>
<trkpt lat="34.9057727" lon="32.4093903">
<ele>570.29</ele>
<time>2015-04-24T17:26:55Z</time>
</trkpt>
<trkpt lat="34.9058016" lon="32.4094484">
<ele>570.77</ele>
<time>2015-04-24T17:26:57Z</time>
</trkpt>
<trkpt lat="34.9058308" lon="32.4095002">
<ele>572.14</ele>
<time>2015-04-24T17:26:59Z</time>
</trkpt>
<trkpt lat="34.9058557" lon="32.4095482">
<ele>572.73</ele>
<time>2015-04-24T17:27:01Z</time>
</trkpt>
<trkpt lat="34.9058853" lon="32.4096108">
<ele>572.90</ele>
<time>2015-04-24T17:27:04Z</time>
</trkpt>
<trkpt lat="34.9059181" lon="32.4096610">
<ele>572.05</ele>
<time>2015-04-24T17:27:07Z</time>
</trkpt>
<trkpt lat="34.9059347" lon="32.4097202">
<ele>572.69</ele>
<time>2015-04-24T17:27:10Z</time>
</trkpt>
<trkpt lat="34.9059427" lon="32.4097743">
<ele>572.90</ele>
<time>2015-04-24T17:27:13Z</time>
</trkpt>
<trkpt lat="34.9059597" lon="32.4098260">
<ele>573.80</ele>
<time>2015-04-24T17:27:16Z</time>
</trkpt>
<trkpt lat="34.9059753" lon="32.4098810">
<ele>574.41</ele>
<time>2015-04-24T17:27:19Z</time>
</trkpt>
<trkpt lat="34.9059820" lon="32.4099436">
<ele>574.86</ele>
<time>2015-04-24T17:27:22Z</time>
</trkpt>
<trkpt lat="34.9059769" lon="32.4100091">
<ele>576.29</ele>
<time>2015-04-24T17:27:25Z</time>
</trkpt>
<trkpt lat="34.9059673" lon="32.4100785">
<ele>577.35</ele>
<time>2015-04-24T17:27:28Z</time>
</trkpt>
<trkpt lat="34.9059690" lon="32.4101485">
<ele>576.98</ele>
<time>2015-04-24T17:27:31Z</time>
</trkpt>
<trkpt lat="34.9059726" lon="32.4102132">
<ele>577.06</ele>
<time>2015-04-24T17:27:34Z</time>
</trkpt>
<trkpt lat="34.9059725" lon="32.4102770">
<ele>577.82</ele>
<time>2015-04-24T17:27:37Z</time>
</trkpt>
<trkpt lat="34.9059760" lon="32.4103376">
<ele>576.66</ele>
<time>2015-04-24T17:27:40Z</time>
</trkpt>
<trkpt lat="34.9059752" lon="32.4103986">
<ele>575.27</ele>
<time>2015-04-24T17:27:43Z</time>
</trkpt>
<trkpt lat="34.9059848" lon="32.4104590">
<ele>576.59</ele>
<time>2015-04-24T17:27:46Z</time>
</trkpt>
<trkpt lat="34.9059950" lon="32.4105198">
<ele>576.88</ele>
<time>2015-04-24T17:27:49Z</time>
</trkpt>
<trkpt lat="34.9059980" lon="32.4105804">
<ele>576.92</ele>
<time>2015-04-24T17:27:52Z</time>
</trkpt>
<trkpt lat="34.9060008" lon="32.4106393">
<ele>576.92</ele>
<time>2015-04-24T17:27:55Z</time>
</trkpt>
<trkpt lat="34.9060098" lon="32.4107002">
<ele>577.67</ele>
<time>2015-04-24T17:27:58Z</time>
</trkpt>
<trkpt lat="34.9060116" lon="32.4107625">
<ele>577.77</ele>
<time>2015-04-24T17:28:01Z</time>
</trkpt>
<trkpt lat="34.9060163" lon="32.4108315">
<ele>578.66</ele>
<time>2015-04-24T17:28:04Z</time>
</trkpt>
<trkpt lat="34.9060267" lon="32.4108992">
<ele>578.89</ele>
<time>2015-04-24T17:28:07Z</time>
</trkpt>
<trkpt lat="34.9060375" lon="32.4109602">
<ele>578.55</ele>
<time>2015-04-24T17:28:10Z</time>
</trkpt>
<trkpt lat="34.9060482" lon="32.4110262">
<ele>580.25</ele>
<time>2015-04-24T17:28:13Z</time>
</trkpt>
<trkpt lat="34.9060554" lon="32.4110962">
<ele>579.97</ele>
<time>2015-04-24T17:28:16Z</time>
</trkpt>
<trkpt lat="34.9060566" lon="32.4111650">
<ele>580.56</ele>
<time>2015-04-24T17:28:19Z</time>
</trkpt>
<trkpt lat="34.9060553" lon="32.4112322">
<ele>580.88</ele>
<time>2015-04-24T17:28:22Z</time>
</trkpt>
<trkpt lat="34.9060590" lon="32.4112987">
<ele>581.04</ele>
<time>2015-04-24T17:28:25Z</time>
</trkpt>
<trkpt lat="34.9060657" lon="32.4113630">
<ele>580.94</ele>
<time>2015-04-24T17:28:28Z</time>
</trkpt>
<trkpt lat="34.9060702" lon="32.4114264">
<ele>580.93</ele>
<time>2015-04-24T17:28:31Z</time>
</trkpt>
<trkpt lat="34.9060768" lon="32.4114941">
<ele>581.43</ele>
<time>2015-04-24T17:28:34Z</time>
</trkpt>
<trkpt lat="34.9060808" lon="32.4115630">
<ele>582.61</ele>
<time>2015-04-24T17:28:37Z</time>
</trkpt>
<trkpt lat="34.9060823" lon="32.4116293">
<ele>582.89</ele>
<time>2015-04-24T17:28:40Z</time>
</trkpt>
<trkpt lat="34.9060881" lon="32.4116951">
<ele>583.42</ele>
<time>2015-04-24T17:28:43Z</time>
</trkpt>
<trkpt lat="34.9060925" lon="32.4117605">
<ele>583.86</ele>
<time>2015-04-24T17:28:46Z</time>
</trkpt>
<trkpt lat="34.9060992" lon="32.4118234">
<ele>583.92</ele>
<time>2015-04-24T17:28:49Z</time>
</trkpt>
<trkpt lat="34.9060990" lon="32.4118882">
<ele>584.42</ele>
<time>2015-04-24T17:28:52Z</time>
</trkpt>
<trkpt lat="34.9061012" lon="32.4119514">
<ele>585.36</ele>
<time>2015-04-24T17:28:55Z</time>
</trkpt>
<trkpt lat="34.9061182" lon="32.4120150">
<ele>585.76</ele>
<time>2015-04-24T17:28:59Z</time>
</trkpt>
<trkpt lat="34.9061288" lon="32.4119532">
<ele>584.98</ele>
<time>2015-04-24T17:29:04Z</time>
</trkpt>
<trkpt lat="34.9060772" lon="32.4119635">
<ele>585.20</ele>
<time>2015-04-24T17:29:20Z</time>
</trkpt>
<trkpt lat="34.9060940" lon="32.4120260">
<ele>585.00</ele>
<time>2015-04-24T17:29:24Z</time>
</trkpt>
<trkpt lat="34.9061094" lon="32.4120893">
<ele>584.93</ele>
<time>2015-04-24T17:29:28Z</time>
</trkpt>
<trkpt lat="34.9061211" lon="32.4121602">
<ele>584.68</ele>
<time>2015-04-24T17:29:32Z</time>
</trkpt>
<trkpt lat="34.9061260" lon="32.4122173">
<ele>585.64</ele>
<time>2015-04-24T17:29:35Z</time>
</trkpt>
<trkpt lat="34.9061332" lon="32.4122786">
<ele>586.76</ele>
<time>2015-04-24T17:29:38Z</time>
</trkpt>
<trkpt lat="34.9061416" lon="32.4123402">
<ele>588.28</ele>
<time>2015-04-24T17:29:41Z</time>
</trkpt>
<trkpt lat="34.9061416" lon="32.4124067">
<ele>588.34</ele>
<time>2015-04-24T17:29:44Z</time>
</trkpt>
<trkpt lat="34.9061443" lon="32.4124710">
<ele>587.98</ele>
<time>2015-04-24T17:29:47Z</time>
</trkpt>
<trkpt lat="34.9061491" lon="32.4125420">
<ele>588.81</ele>
<time>2015-04-24T17:29:50Z</time>
</trkpt>
<trkpt lat="34.9061521" lon="32.4126156">
<ele>589.41</ele>
<time>2015-04-24T17:29:53Z</time>
</trkpt>
<trkpt lat="34.9061543" lon="32.4126932">
<ele>590.36</ele>
<time>2015-04-24T17:29:56Z</time>
</trkpt>
<trkpt lat="34.9061534" lon="32.4127715">
<ele>590.35</ele>
<time>2015-04-24T17:29:59Z</time>
</trkpt>
<trkpt lat="34.9061543" lon="32.4128495">
<ele>590.48</ele>
<time>2015-04-24T17:30:02Z</time>
</trkpt>
<trkpt lat="34.9061560" lon="32.4129280">
<ele>590.49</ele>
<time>2015-04-24T17:30:05Z</time>
</trkpt>
<trkpt lat="34.9061591" lon="32.4130071">
<ele>591.75</ele>
<time>2015-04-24T17:30:08Z</time>
</trkpt>
<trkpt lat="34.9061661" lon="32.4130803">
<ele>591.90</ele>
<time>2015-04-24T17:30:11Z</time>
</trkpt>
<trkpt lat="34.9061687" lon="32.4131576">
<ele>591.92</ele>
<time>2015-04-24T17:30:14Z</time>
</trkpt>
<trkpt lat="34.9061740" lon="32.4132385">
<ele>591.92</ele>
<time>2015-04-24T17:30:17Z</time>
</trkpt>
<trkpt lat="34.9061755" lon="32.4132964">
<ele>591.92</ele>
<time>2015-04-24T17:30:19Z</time>
</trkpt>
<trkpt lat="34.9061752" lon="32.4133555">
<ele>591.17</ele>
<time>2015-04-24T17:30:21Z</time>
</trkpt>
<trkpt lat="34.9061737" lon="32.4134136">
<ele>590.99</ele>
<time>2015-04-24T17:30:23Z</time>
</trkpt>
<trkpt lat="34.9061687" lon="32.4134731">
<ele>591.69</ele>
<time>2015-04-24T17:30:25Z</time>
</trkpt>
<trkpt lat="34.9061634" lon="32.4135332">
<ele>592.37</ele>
<time>2015-04-24T17:30:27Z</time>
</trkpt>
<trkpt lat="34.9061609" lon="32.4135956">
<ele>593.54</ele>
<time>2015-04-24T17:30:29Z</time>
</trkpt>
<trkpt lat="34.9061543" lon="32.4136574">
<ele>593.83</ele>
<time>2015-04-24T17:30:31Z</time>
</trkpt>
<trkpt lat="34.9061447" lon="32.4137208">
<ele>593.90</ele>
<time>2015-04-24T17:30:33Z</time>
</trkpt>
<trkpt lat="34.9061339" lon="32.4137814">
<ele>594.67</ele>
<time>2015-04-24T17:30:35Z</time>
</trkpt>
<trkpt lat="34.9061230" lon="32.4138426">
<ele>595.61</ele>
<time>2015-04-24T17:30:37Z</time>
</trkpt>
<trkpt lat="34.9061153" lon="32.4139013">
<ele>596.60</ele>
<time>2015-04-24T17:30:39Z</time>
</trkpt>
<trkpt lat="34.9061092" lon="32.4139597">
<ele>596.84</ele>
<time>2015-04-24T17:30:41Z</time>
</trkpt>
<trkpt lat="34.9061046" lon="32.4140163">
<ele>596.90</ele>
<time>2015-04-24T17:30:43Z</time>
</trkpt>
<trkpt lat="34.9061000" lon="32.4140711">
<ele>596.17</ele>
<time>2015-04-24T17:30:45Z</time>
</trkpt>
<trkpt lat="34.9060949" lon="32.4141261">
<ele>596.49</ele>
<time>2015-04-24T17:30:47Z</time>
</trkpt>
<trkpt lat="34.9060843" lon="32.4141830">
<ele>596.82</ele>
<time>2015-04-24T17:30:49Z</time>
</trkpt>
<trkpt lat="34.9060792" lon="32.4142397">
<ele>597.65</ele>
<time>2015-04-24T17:30:51Z</time>
</trkpt>
<trkpt lat="34.9060766" lon="32.4142992">
<ele>597.86</ele>
<time>2015-04-24T17:30:53Z</time>
</trkpt>
<trkpt lat="34.9060689" lon="32.4143599">
<ele>598.66</ele>
<time>2015-04-24T17:30:55Z</time>
</trkpt>
<trkpt lat="34.9060546" lon="32.4144174">
<ele>599.11</ele>
<time>2015-04-24T17:30:57Z</time>
</trkpt>
<trkpt lat="34.9060482" lon="32.4144720">
<ele>598.97</ele>
<time>2015-04-24T17:30:59Z</time>
</trkpt>
<trkpt lat="34.9060413" lon="32.4145311">
<ele>598.94</ele>
<time>2015-04-24T17:31:01Z</time>
</trkpt>
<trkpt lat="34.9060360" lon="32.4145879">
<ele>598.93</ele>
<time>2015-04-24T17:31:03Z</time>
</trkpt>
<trkpt lat="34.9060372" lon="32.4146440">
<ele>600.18</ele>
<time>2015-04-24T17:31:05Z</time>
</trkpt>
<trkpt lat="34.9060217" lon="32.4147196">
<ele>599.96</ele>
<time>2015-04-24T17:31:08Z</time>
</trkpt>
<trkpt lat="34.9060083" lon="32.4147894">
<ele>600.80</ele>
<time>2015-04-24T17:31:11Z</time>
</trkpt>
<trkpt lat="34.9060051" lon="32.4148534">
<ele>600.16</ele>
<time>2015-04-24T17:31:14Z</time>
</trkpt>
<trkpt lat="34.9060306" lon="32.4149043">
<ele>602.71</ele>
<time>2015-04-24T17:31:19Z</time>
</trkpt>
<trkpt lat="34.9059973" lon="32.4149765">
<ele>600.60</ele>
<time>2015-04-24T17:31:27Z</time>
</trkpt>
<trkpt lat="34.9059686" lon="32.4150390">
<ele>599.59</ele>
<time>2015-04-24T17:31:29Z</time>
</trkpt>
<trkpt lat="34.9059454" lon="32.4150895">
<ele>597.09</ele>
<time>2015-04-24T17:31:31Z</time>
</trkpt>
<trkpt lat="34.9059406" lon="32.4151506">
<ele>596.22</ele>
<time>2015-04-24T17:31:33Z</time>
</trkpt>
<trkpt lat="34.9059551" lon="32.4152150">
<ele>596.00</ele>
<time>2015-04-24T17:31:35Z</time>
</trkpt>
<trkpt lat="34.9059753" lon="32.4152791">
<ele>596.44</ele>
<time>2015-04-24T17:31:37Z</time>
</trkpt>
<trkpt lat="34.9059885" lon="32.4153392">
<ele>596.05</ele>
<time>2015-04-24T17:31:39Z</time>
</trkpt>
<trkpt lat="34.9059894" lon="32.4154006">
<ele>595.96</ele>
<time>2015-04-24T17:31:41Z</time>
</trkpt>
<trkpt lat="34.9059891" lon="32.4154567">
<ele>597.18</ele>
<time>2015-04-24T17:31:43Z</time>
</trkpt>
<trkpt lat="34.9059931" lon="32.4155134">
<ele>597.74</ele>
<time>2015-04-24T17:31:45Z</time>
</trkpt>
<trkpt lat="34.9059999" lon="32.4155885">
<ele>599.28</ele>
<time>2015-04-24T17:31:48Z</time>
</trkpt>
<trkpt lat="34.9060087" lon="32.4156498">
<ele>600.34</ele>
<time>2015-04-24T17:31:51Z</time>
</trkpt>
<trkpt lat="34.9060187" lon="32.4157086">
<ele>599.98</ele>
<time>2015-04-24T17:31:54Z</time>
</trkpt>
<trkpt lat="34.9060340" lon="32.4157633">
<ele>599.93</ele>
<time>2015-04-24T17:31:57Z</time>
</trkpt>
<trkpt lat="34.9060517" lon="32.4158192">
<ele>599.93</ele>
<time>2015-04-24T17:32:00Z</time>
</trkpt>
<trkpt lat="34.9060660" lon="32.4158753">
<ele>600.43</ele>
<time>2015-04-24T17:32:03Z</time>
</trkpt>
<trkpt lat="34.9060730" lon="32.4159316">
<ele>601.49</ele>
<time>2015-04-24T17:32:06Z</time>
</trkpt>
<trkpt lat="34.9060813" lon="32.4160020">
<ele>602.65</ele>
<time>2015-04-24T17:32:10Z</time>
</trkpt>
<trkpt lat="34.9060898" lon="32.4160713">
<ele>602.66</ele>
<time>2015-04-24T17:32:14Z</time>
</trkpt>
<trkpt lat="34.9061007" lon="32.4161262">
<ele>603.89</ele>
<time>2015-04-24T17:32:17Z</time>
</trkpt>
<trkpt lat="34.9061235" lon="32.4161915">
<ele>604.99</ele>
<time>2015-04-24T17:32:21Z</time>
</trkpt>
<trkpt lat="34.9061369" lon="32.4162456">
<ele>605.81</ele>
<time>2015-04-24T17:32:24Z</time>
</trkpt>
<trkpt lat="34.9061516" lon="32.4163042">
<ele>606.79</ele>
<time>2015-04-24T17:32:27Z</time>
</trkpt>
<trkpt lat="34.9061643" lon="32.4163655">
<ele>607.53</ele>
<time>2015-04-24T17:32:30Z</time>
</trkpt>
<trkpt lat="34.9061764" lon="32.4164246">
<ele>609.50</ele>
<time>2015-04-24T17:32:33Z</time>
</trkpt>
<trkpt lat="34.9061897" lon="32.4164838">
<ele>609.62</ele>
<time>2015-04-24T17:32:36Z</time>
</trkpt>
<trkpt lat="34.9062062" lon="32.4165547">
<ele>611.51</ele>
<time>2015-04-24T17:32:39Z</time>
</trkpt>
<trkpt lat="34.9062249" lon="32.4166263">
<ele>612.37</ele>
<time>2015-04-24T17:32:42Z</time>
</trkpt>
<trkpt lat="34.9062408" lon="32.4166962">
<ele>613.73</ele>
<time>2015-04-24T17:32:45Z</time>
</trkpt>
<trkpt lat="34.9062534" lon="32.4167607">
<ele>613.90</ele>
<time>2015-04-24T17:32:48Z</time>
</trkpt>
<trkpt lat="34.9062609" lon="32.4168155">
<ele>613.17</ele>
<time>2015-04-24T17:32:51Z</time>
</trkpt>
<trkpt lat="34.9062701" lon="32.4168711">
<ele>613.71</ele>
<time>2015-04-24T17:32:54Z</time>
</trkpt>
<trkpt lat="34.9062912" lon="32.4169248">
<ele>613.90</ele>
<time>2015-04-24T17:32:57Z</time>
</trkpt>
<trkpt lat="34.9063100" lon="32.4169794">
<ele>613.92</ele>
<time>2015-04-24T17:33:00Z</time>
</trkpt>
<trkpt lat="34.9063266" lon="32.4170437">
<ele>613.92</ele>
<time>2015-04-24T17:33:03Z</time>
</trkpt>
<trkpt lat="34.9063465" lon="32.4171124">
<ele>615.30</ele>
<time>2015-04-24T17:33:06Z</time>
</trkpt>
<trkpt lat="34.9063596" lon="32.4171880">
<ele>615.85</ele>
<time>2015-04-24T17:33:09Z</time>
</trkpt>
<trkpt lat="34.9063877" lon="32.4172490">
<ele>616.79</ele>
<time>2015-04-24T17:33:12Z</time>
</trkpt>
<trkpt lat="34.9064142" lon="32.4173092">
<ele>616.91</ele>
<time>2015-04-24T17:33:15Z</time>
</trkpt>
<trkpt lat="34.9064346" lon="32.4173755">
<ele>616.92</ele>
<time>2015-04-24T17:33:18Z</time>
</trkpt>
<trkpt lat="34.9064603" lon="32.4174437">
<ele>616.92</ele>
<time>2015-04-24T17:33:21Z</time>
</trkpt>
<trkpt lat="34.9064895" lon="32.4175124">
<ele>616.92</ele>
<time>2015-04-24T17:33:24Z</time>
</trkpt>
<trkpt lat="34.9065126" lon="32.4175621">
<ele>617.67</ele>
<time>2015-04-24T17:33:26Z</time>
</trkpt>
<trkpt lat="34.9065371" lon="32.4176134">
<ele>617.86</ele>
<time>2015-04-24T17:33:28Z</time>
</trkpt>
<trkpt lat="34.9065602" lon="32.4176670">
<ele>618.66</ele>
<time>2015-04-24T17:33:30Z</time>
</trkpt>
<trkpt lat="34.9065864" lon="32.4177213">
<ele>618.86</ele>
<time>2015-04-24T17:33:32Z</time>
</trkpt>
<trkpt lat="34.9066132" lon="32.4177749">
<ele>620.16</ele>
<time>2015-04-24T17:33:34Z</time>
</trkpt>
<trkpt lat="34.9066425" lon="32.4178295">
<ele>620.73</ele>
<time>2015-04-24T17:33:36Z</time>
</trkpt>
<trkpt lat="34.9066744" lon="32.4178806">
<ele>620.88</ele>
<time>2015-04-24T17:33:38Z</time>
</trkpt>
<trkpt lat="34.9067098" lon="32.4179314">
<ele>620.91</ele>
<time>2015-04-24T17:33:40Z</time>
</trkpt>
<trkpt lat="34.9067465" lon="32.4179768">
<ele>620.92</ele>
<time>2015-04-24T17:33:42Z</time>
</trkpt>
<trkpt lat="34.9067842" lon="32.4180202">
<ele>620.92</ele>
<time>2015-04-24T17:33:44Z</time>
</trkpt>
<trkpt lat="34.9068227" lon="32.4180593">
<ele>620.92</ele>
<time>2015-04-24T17:33:46Z</time>
</trkpt>
<trkpt lat="34.9068610" lon="32.4180976">
<ele>620.92</ele>
<time>2015-04-24T17:33:48Z</time>
</trkpt>
<trkpt lat="34.9068959" lon="32.4181374">
<ele>620.42</ele>
<time>2015-04-24T17:33:50Z</time>
</trkpt>
<trkpt lat="34.9069309" lon="32.4181742">
<ele>620.05</ele>
<time>2015-04-24T17:33:52Z</time>
</trkpt>
<trkpt lat="34.9069769" lon="32.4182228">
<ele>619.44</ele>
<time>2015-04-24T17:33:55Z</time>
</trkpt>
<trkpt lat="34.9070149" lon="32.4182571">
<ele>619.80</ele>
<time>2015-04-24T17:33:57Z</time>
</trkpt>
<trkpt lat="34.9070527" lon="32.4182973">
<ele>619.89</ele>
<time>2015-04-24T17:33:59Z</time>
</trkpt>
<trkpt lat="34.9070912" lon="32.4183394">
<ele>620.17</ele>
<time>2015-04-24T17:34:01Z</time>
</trkpt>
<trkpt lat="34.9071277" lon="32.4183746">
<ele>620.74</ele>
<time>2015-04-24T17:34:03Z</time>
</trkpt>
<trkpt lat="34.9071800" lon="32.4184293">
<ele>620.78</ele>
<time>2015-04-24T17:34:06Z</time>
</trkpt>
<trkpt lat="34.9072155" lon="32.4184630">
<ele>621.64</ele>
<time>2015-04-24T17:34:08Z</time>
</trkpt>
<trkpt lat="34.9072685" lon="32.4185073">
<ele>622.14</ele>
<time>2015-04-24T17:34:11Z</time>
</trkpt>
<trkpt lat="34.9073046" lon="32.4185445">
<ele>622.73</ele>
<time>2015-04-24T17:34:13Z</time>
</trkpt>
<trkpt lat="34.9073402" lon="32.4185845">
<ele>622.88</ele>
<time>2015-04-24T17:34:15Z</time>
</trkpt>
<trkpt lat="34.9073736" lon="32.4186289">
<ele>622.91</ele>
<time>2015-04-24T17:34:17Z</time>
</trkpt>
<trkpt lat="34.9074075" lon="32.4186714">
<ele>622.92</ele>
<time>2015-04-24T17:34:19Z</time>
</trkpt>
<trkpt lat="34.9074466" lon="32.4187122">
<ele>622.92</ele>
<time>2015-04-24T17:34:21Z</time>
</trkpt>
<trkpt lat="34.9074845" lon="32.4187515">
<ele>622.92</ele>
<time>2015-04-24T17:34:23Z</time>
</trkpt>
<trkpt lat="34.9075206" lon="32.4187946">
<ele>623.42</ele>
<time>2015-04-24T17:34:25Z</time>
</trkpt>
<trkpt lat="34.9075574" lon="32.4188354">
<ele>623.80</ele>
<time>2015-04-24T17:34:27Z</time>
</trkpt>
<trkpt lat="34.9075929" lon="32.4188804">
<ele>624.39</ele>
<time>2015-04-24T17:34:29Z</time>
</trkpt>
<trkpt lat="34.9076237" lon="32.4189257">
<ele>624.79</ele>
<time>2015-04-24T17:34:31Z</time>
</trkpt>
<trkpt lat="34.9076612" lon="32.4189606">
<ele>624.39</ele>
<time>2015-04-24T17:34:33Z</time>
</trkpt>
<trkpt lat="34.9077179" lon="32.4189980">
<ele>624.73</ele>
<time>2015-04-24T17:34:36Z</time>
</trkpt>
<trkpt lat="34.9077505" lon="32.4190416">
<ele>624.88</ele>
<time>2015-04-24T17:34:38Z</time>
</trkpt>
<trkpt lat="34.9077838" lon="32.4190893">
<ele>624.91</ele>
<time>2015-04-24T17:34:40Z</time>
</trkpt>
<trkpt lat="34.9078169" lon="32.4191355">
<ele>624.17</ele>
<time>2015-04-24T17:34:42Z</time>
</trkpt>
<trkpt lat="34.9078515" lon="32.4191834">
<ele>623.99</ele>
<time>2015-04-24T17:34:44Z</time>
</trkpt>
<trkpt lat="34.9078890" lon="32.4192297">
<ele>623.94</ele>
<time>2015-04-24T17:34:46Z</time>
</trkpt>
<trkpt lat="34.9079254" lon="32.4192765">
<ele>623.93</ele>
<time>2015-04-24T17:34:48Z</time>
</trkpt>
<trkpt lat="34.9079574" lon="32.4193233">
<ele>624.68</ele>
<time>2015-04-24T17:34:50Z</time>
</trkpt>
<trkpt lat="34.9079904" lon="32.4193708">
<ele>624.86</ele>
<time>2015-04-24T17:34:52Z</time>
</trkpt>
<trkpt lat="34.9080253" lon="32.4194149">
<ele>625.66</ele>
<time>2015-04-24T17:34:54Z</time>
</trkpt>
<trkpt lat="34.9080586" lon="32.4194610">
<ele>625.86</ele>
<time>2015-04-24T17:34:56Z</time>
</trkpt>
<trkpt lat="34.9080919" lon="32.4195112">
<ele>625.91</ele>
<time>2015-04-24T17:34:58Z</time>
</trkpt>
<trkpt lat="34.9081236" lon="32.4195659">
<ele>626.42</ele>
<time>2015-04-24T17:35:00Z</time>
</trkpt>
<trkpt lat="34.9081575" lon="32.4196201">
<ele>626.80</ele>
<time>2015-04-24T17:35:02Z</time>
</trkpt>
<trkpt lat="34.9081955" lon="32.4196662">
<ele>626.89</ele>
<time>2015-04-24T17:35:04Z</time>
</trkpt>
<trkpt lat="34.9082316" lon="32.4197082">
<ele>626.92</ele>
<time>2015-04-24T17:35:06Z</time>
</trkpt>
<trkpt lat="34.9082642" lon="32.4197505">
<ele>626.92</ele>
<time>2015-04-24T17:35:08Z</time>
</trkpt>
<trkpt lat="34.9082947" lon="32.4197920">
<ele>626.92</ele>
<time>2015-04-24T17:35:10Z</time>
</trkpt>
<trkpt lat="34.9083402" lon="32.4198387">
<ele>627.80</ele>
<time>2015-04-24T17:35:13Z</time>
</trkpt>
<trkpt lat="34.9083927" lon="32.4198925">
<ele>627.91</ele>
<time>2015-04-24T17:35:16Z</time>
</trkpt>
<trkpt lat="34.9084249" lon="32.4199397">
<ele>627.42</ele>
<time>2015-04-24T17:35:18Z</time>
</trkpt>
<trkpt lat="34.9084538" lon="32.4199862">
<ele>627.55</ele>
<time>2015-04-24T17:35:20Z</time>
</trkpt>
<trkpt lat="34.9084883" lon="32.4200262">
<ele>628.33</ele>
<time>2015-04-24T17:35:22Z</time>
</trkpt>
<trkpt lat="34.9085269" lon="32.4200687">
<ele>629.53</ele>
<time>2015-04-24T17:35:24Z</time>
</trkpt>
<trkpt lat="34.9085654" lon="32.4201061">
<ele>631.08</ele>
<time>2015-04-24T17:35:26Z</time>
</trkpt>
<trkpt lat="34.9085979" lon="32.4201490">
<ele>630.96</ele>
<time>2015-04-24T17:35:28Z</time>
</trkpt>
<trkpt lat="34.9086278" lon="32.4201934">
<ele>631.43</ele>
<time>2015-04-24T17:35:30Z</time>
</trkpt>
<trkpt lat="34.9086539" lon="32.4202589">
<ele>633.24</ele>
<time>2015-04-24T17:35:33Z</time>
</trkpt>
<trkpt lat="34.9086769" lon="32.4203111">
<ele>632.68</ele>
<time>2015-04-24T17:35:38Z</time>
</trkpt>
<trkpt lat="34.9087125" lon="32.4203640">
<ele>633.66</ele>
<time>2015-04-24T17:35:42Z</time>
</trkpt>
<trkpt lat="34.9087588" lon="32.4204082">
<ele>635.35</ele>
<time>2015-04-24T17:35:46Z</time>
</trkpt>
<trkpt lat="34.9087822" lon="32.4204652">
<ele>635.85</ele>
<time>2015-04-24T17:35:49Z</time>
</trkpt>
<trkpt lat="34.9088126" lon="32.4205302">
<ele>635.92</ele>
<time>2015-04-24T17:35:52Z</time>
</trkpt>
<trkpt lat="34.9088436" lon="32.4205955">
<ele>636.67</ele>
<time>2015-04-24T17:35:55Z</time>
</trkpt>
<trkpt lat="34.9088693" lon="32.4206616">
<ele>636.89</ele>
<time>2015-04-24T17:35:58Z</time>
</trkpt>
<trkpt lat="34.9089010" lon="32.4207205">
<ele>638.17</ele>
<time>2015-04-24T17:36:01Z</time>
</trkpt>
<trkpt lat="34.9089296" lon="32.4207824">
<ele>638.33</ele>
<time>2015-04-24T17:36:04Z</time>
</trkpt>
<trkpt lat="34.9089628" lon="32.4208444">
<ele>637.98</ele>
<time>2015-04-24T17:36:07Z</time>
</trkpt>
<trkpt lat="34.9089775" lon="32.4209065">
<ele>637.93</ele>
<time>2015-04-24T17:36:10Z</time>
</trkpt>
<trkpt lat="34.9090035" lon="32.4209644">
<ele>637.30</ele>
<time>2015-04-24T17:36:13Z</time>
</trkpt>
<trkpt lat="34.9090348" lon="32.4210283">
<ele>637.85</ele>
<time>2015-04-24T17:36:16Z</time>
</trkpt>
<trkpt lat="34.9090768" lon="32.4210877">
<ele>637.79</ele>
<time>2015-04-24T17:36:19Z</time>
</trkpt>
<trkpt lat="34.9091152" lon="32.4211481">
<ele>637.16</ele>
<time>2015-04-24T17:36:22Z</time>
</trkpt>
<trkpt lat="34.9091438" lon="32.4211962">
<ele>636.98</ele>
<time>2015-04-24T17:36:24Z</time>
</trkpt>
<trkpt lat="34.9091727" lon="32.4212435">
<ele>636.94</ele>
<time>2015-04-24T17:36:26Z</time>
</trkpt>
<trkpt lat="34.9092065" lon="32.4212845">
<ele>636.93</ele>
<time>2015-04-24T17:36:28Z</time>
</trkpt>
<trkpt lat="34.9092458" lon="32.4213278">
<ele>636.93</ele>
<time>2015-04-24T17:36:30Z</time>
</trkpt>
<trkpt lat="34.9092848" lon="32.4213634">
<ele>636.93</ele>
<time>2015-04-24T17:36:32Z</time>
</trkpt>
<trkpt lat="34.9093233" lon="32.4213928">
<ele>637.68</ele>
<time>2015-04-24T17:36:34Z</time>
</trkpt>
<trkpt lat="34.9093626" lon="32.4214224">
<ele>637.86</ele>
<time>2015-04-24T17:36:36Z</time>
</trkpt>
<trkpt lat="34.9094074" lon="32.4214481">
<ele>638.41</ele>
<time>2015-04-24T17:36:38Z</time>
</trkpt>
<trkpt lat="34.9094581" lon="32.4214697">
<ele>638.05</ele>
<time>2015-04-24T17:36:40Z</time>
</trkpt>
<trkpt lat="34.9095053" lon="32.4214938">
<ele>637.96</ele>
<time>2015-04-24T17:36:42Z</time>
</trkpt>
<trkpt lat="34.9095494" lon="32.4215134">
<ele>637.18</ele>
<time>2015-04-24T17:36:44Z</time>
</trkpt>
<trkpt lat="34.9095936" lon="32.4215336">
<ele>637.74</ele>
<time>2015-04-24T17:36:46Z</time>
</trkpt>
<trkpt lat="34.9096407" lon="32.4215517">
<ele>637.63</ele>
<time>2015-04-24T17:36:48Z</time>
</trkpt>
<trkpt lat="34.9096886" lon="32.4215632">
<ele>637.35</ele>
<time>2015-04-24T17:36:50Z</time>
</trkpt>
<trkpt lat="34.9097442" lon="32.4215872">
<ele>636.23</ele>
<time>2015-04-24T17:36:53Z</time>
</trkpt>
<trkpt lat="34.9098008" lon="32.4215965">
<ele>636.84</ele>
<time>2015-04-24T17:36:56Z</time>
</trkpt>
<trkpt lat="34.9098549" lon="32.4215990">
<ele>636.66</ele>
<time>2015-04-24T17:36:59Z</time>
</trkpt>
<trkpt lat="34.9099084" lon="32.4215999">
<ele>636.89</ele>
<time>2015-04-24T17:37:02Z</time>
</trkpt>
<trkpt lat="34.9099563" lon="32.4215921">
<ele>636.67</ele>
<time>2015-04-24T17:37:05Z</time>
</trkpt>
<trkpt lat="34.9100029" lon="32.4215860">
<ele>636.91</ele>
<time>2015-04-24T17:37:09Z</time>
</trkpt>
<trkpt lat="34.9100560" lon="32.4215887">
<ele>638.30</ele>
<time>2015-04-24T17:37:14Z</time>
</trkpt>
<trkpt lat="34.9101043" lon="32.4215837">
<ele>638.16</ele>
<time>2015-04-24T17:37:19Z</time>
</trkpt>
<trkpt lat="34.9101575" lon="32.4215992">
<ele>638.00</ele>
<time>2015-04-24T17:37:23Z</time>
</trkpt>
<trkpt lat="34.9102141" lon="32.4216019">
<ele>639.37</ele>
<time>2015-04-24T17:37:27Z</time>
</trkpt>
<trkpt lat="34.9102697" lon="32.4215934">
<ele>640.83</ele>
<time>2015-04-24T17:37:31Z</time>
</trkpt>
<trkpt lat="34.9103191" lon="32.4215947">
<ele>640.91</ele>
<time>2015-04-24T17:37:34Z</time>
</trkpt>
<trkpt lat="34.9103787" lon="32.4215901">
<ele>640.92</ele>
<time>2015-04-24T17:37:37Z</time>
</trkpt>
<trkpt lat="34.9104420" lon="32.4215900">
<ele>640.42</ele>
<time>2015-04-24T17:37:40Z</time>
</trkpt>
<trkpt lat="34.9105083" lon="32.4215892">
<ele>640.49</ele>
<time>2015-04-24T17:37:43Z</time>
</trkpt>
<trkpt lat="34.9105559" lon="32.4215883">
<ele>641.57</ele>
<time>2015-04-24T17:37:45Z</time>
</trkpt>
<trkpt lat="34.9106243" lon="32.4215899">
<ele>642.34</ele>
<time>2015-04-24T17:37:47Z</time>
</trkpt>
<trkpt lat="34.9106946" lon="32.4215889">
<ele>643.28</ele>
<time>2015-04-24T17:37:49Z</time>
</trkpt>
<trkpt lat="34.9107549" lon="32.4215773">
<ele>643.76</ele>
<time>2015-04-24T17:37:51Z</time>
</trkpt>
<trkpt lat="34.9108043" lon="32.4215697">
<ele>644.63</ele>
<time>2015-04-24T17:37:53Z</time>
</trkpt>
<trkpt lat="34.9108683" lon="32.4215593">
<ele>644.89</ele>
<time>2015-04-24T17:37:56Z</time>
</trkpt>
<trkpt lat="34.9109169" lon="32.4215555">
<ele>645.67</ele>
<time>2015-04-24T17:37:58Z</time>
</trkpt>
<trkpt lat="34.9109716" lon="32.4215550">
<ele>645.86</ele>
<time>2015-04-24T17:38:00Z</time>
</trkpt>
<trkpt lat="34.9110258" lon="32.4215510">
<ele>646.66</ele>
<time>2015-04-24T17:38:02Z</time>
</trkpt>
<trkpt lat="34.9110764" lon="32.4215486">
<ele>646.86</ele>
<time>2015-04-24T17:38:04Z</time>
</trkpt>
<trkpt lat="34.9111252" lon="32.4215437">
<ele>646.91</ele>
<time>2015-04-24T17:38:06Z</time>
</trkpt>
<trkpt lat="34.9111732" lon="32.4215377">
<ele>647.67</ele>
<time>2015-04-24T17:38:08Z</time>
</trkpt>
<trkpt lat="34.9112227" lon="32.4215354">
<ele>648.61</ele>
<time>2015-04-24T17:38:10Z</time>
</trkpt>
<trkpt lat="34.9112706" lon="32.4215370">
<ele>648.85</ele>
<time>2015-04-24T17:38:12Z</time>
</trkpt>
<trkpt lat="34.9113310" lon="32.4215365">
<ele>648.92</ele>
<time>2015-04-24T17:38:15Z</time>
</trkpt>
<trkpt lat="34.9113912" lon="32.4215292">
<ele>648.92</ele>
<time>2015-04-24T17:38:18Z</time>
</trkpt>
<trkpt lat="34.9114390" lon="32.4215285">
<ele>649.42</ele>
<time>2015-04-24T17:38:20Z</time>
</trkpt>
<trkpt lat="34.9114895" lon="32.4215222">
<ele>649.80</ele>
<time>2015-04-24T17:38:22Z</time>
</trkpt>
<trkpt lat="34.9115408" lon="32.4215202">
<ele>649.89</ele>
<time>2015-04-24T17:38:24Z</time>
</trkpt>
<trkpt lat="34.9115919" lon="32.4215200">
<ele>649.42</ele>
<time>2015-04-24T17:38:26Z</time>
</trkpt>
<trkpt lat="34.9116442" lon="32.4215202">
<ele>649.05</ele>
<time>2015-04-24T17:38:28Z</time>
</trkpt>
<trkpt lat="34.9116971" lon="32.4215197">
<ele>649.46</ele>
<time>2015-04-24T17:38:30Z</time>
</trkpt>
<trkpt lat="34.9117503" lon="32.4215153">
<ele>649.81</ele>
<time>2015-04-24T17:38:32Z</time>
</trkpt>
<trkpt lat="34.9117994" lon="32.4215140">
<ele>649.90</ele>
<time>2015-04-24T17:38:34Z</time>
</trkpt>
<trkpt lat="34.9118475" lon="32.4215134">
<ele>650.67</ele>
<time>2015-04-24T17:38:36Z</time>
</trkpt>
<trkpt lat="34.9118949" lon="32.4215132">
<ele>652.11</ele>
<time>2015-04-24T17:38:38Z</time>
</trkpt>
<trkpt lat="34.9119414" lon="32.4215130">
<ele>652.72</ele>
<time>2015-04-24T17:38:40Z</time>
</trkpt>
<trkpt lat="34.9119893" lon="32.4215113">
<ele>652.87</ele>
<time>2015-04-24T17:38:42Z</time>
</trkpt>
<trkpt lat="34.9120398" lon="32.4215126">
<ele>652.91</ele>
<time>2015-04-24T17:38:44Z</time>
</trkpt>
<trkpt lat="34.9120953" lon="32.4215094">
<ele>653.42</ele>
<time>2015-04-24T17:38:46Z</time>
</trkpt>
<trkpt lat="34.9121711" lon="32.4215108">
<ele>653.05</ele>
<time>2015-04-24T17:38:48Z</time>
</trkpt>
<trkpt lat="34.9122553" lon="32.4215095">
<ele>652.96</ele>
<time>2015-04-24T17:38:50Z</time>
</trkpt>
<trkpt lat="34.9123272" lon="32.4215123">
<ele>652.93</ele>
<time>2015-04-24T17:38:52Z</time>
</trkpt>
<trkpt lat="34.9123887" lon="32.4215063">
<ele>652.93</ele>
<time>2015-04-24T17:38:54Z</time>
</trkpt>
<trkpt lat="34.9124485" lon="32.4215033">
<ele>652.18</ele>
<time>2015-04-24T17:38:56Z</time>
</trkpt>
<trkpt lat="34.9125036" lon="32.4215020">
<ele>653.24</ele>
<time>2015-04-24T17:38:58Z</time>
</trkpt>
<trkpt lat="34.9125570" lon="32.4215014">
<ele>654.00</ele>
<time>2015-04-24T17:39:00Z</time>
</trkpt>
<trkpt lat="34.9126103" lon="32.4214987">
<ele>653.94</ele>
<time>2015-04-24T17:39:02Z</time>
</trkpt>
<trkpt lat="34.9126651" lon="32.4214937">
<ele>653.93</ele>
<time>2015-04-24T17:39:04Z</time>
</trkpt>
<trkpt lat="34.9127182" lon="32.4214834">
<ele>654.18</ele>
<time>2015-04-24T17:39:06Z</time>
</trkpt>
<trkpt lat="34.9127724" lon="32.4214743">
<ele>654.74</ele>
<time>2015-04-24T17:39:08Z</time>
</trkpt>
<trkpt lat="34.9128219" lon="32.4214641">
<ele>654.88</ele>
<time>2015-04-24T17:39:10Z</time>
</trkpt>
<trkpt lat="34.9128759" lon="32.4214548">
<ele>654.91</ele>
<time>2015-04-24T17:39:12Z</time>
</trkpt>
<trkpt lat="34.9129322" lon="32.4214418">
<ele>655.42</ele>
<time>2015-04-24T17:39:14Z</time>
</trkpt>
<trkpt lat="34.9129859" lon="32.4214266">
<ele>655.80</ele>
<time>2015-04-24T17:39:16Z</time>
</trkpt>
<trkpt lat="34.9130409" lon="32.4214146">
<ele>655.64</ele>
<time>2015-04-24T17:39:18Z</time>
</trkpt>
<trkpt lat="34.9130979" lon="32.4213978">
<ele>655.60</ele>
<time>2015-04-24T17:39:20Z</time>
</trkpt>
<trkpt lat="34.9131529" lon="32.4213822">
<ele>655.09</ele>
<time>2015-04-24T17:39:22Z</time>
</trkpt>
<trkpt lat="34.9132066" lon="32.4213714">
<ele>655.47</ele>
<time>2015-04-24T17:39:24Z</time>
</trkpt>
<trkpt lat="34.9132616" lon="32.4213642">
<ele>655.31</ele>
<time>2015-04-24T17:39:26Z</time>
</trkpt>
<trkpt lat="34.9133151" lon="32.4213440">
<ele>656.52</ele>
<time>2015-04-24T17:39:28Z</time>
</trkpt>
<trkpt lat="34.9133734" lon="32.4213254">
<ele>656.57</ele>
<time>2015-04-24T17:39:30Z</time>
</trkpt>
<trkpt lat="34.9134312" lon="32.4213068">
<ele>657.09</ele>
<time>2015-04-24T17:39:32Z</time>
</trkpt>
<trkpt lat="34.9134827" lon="32.4212928">
<ele>657.72</ele>
<time>2015-04-24T17:39:34Z</time>
</trkpt>
<trkpt lat="34.9135359" lon="32.4212824">
<ele>657.87</ele>
<time>2015-04-24T17:39:36Z</time>
</trkpt>
<trkpt lat="34.9135927" lon="32.4212664">
<ele>658.41</ele>
<time>2015-04-24T17:39:38Z</time>
</trkpt>
<trkpt lat="34.9136539" lon="32.4212528">
<ele>658.30</ele>
<time>2015-04-24T17:39:40Z</time>
</trkpt>
<trkpt lat="34.9137288" lon="32.4212411">
<ele>659.27</ele>
<time>2015-04-24T17:39:42Z</time>
</trkpt>
<trkpt lat="34.9138028" lon="32.4212367">
<ele>659.76</ele>
<time>2015-04-24T17:39:44Z</time>
</trkpt>
<trkpt lat="34.9138678" lon="32.4212345">
<ele>661.13</ele>
<time>2015-04-24T17:39:46Z</time>
</trkpt>
<trkpt lat="34.9139322" lon="32.4212297">
<ele>661.48</ele>
<time>2015-04-24T17:39:48Z</time>
</trkpt>
<trkpt lat="34.9139973" lon="32.4212282">
<ele>662.56</ele>
<time>2015-04-24T17:39:50Z</time>
</trkpt>
<trkpt lat="34.9140647" lon="32.4212359">
<ele>662.58</ele>
<time>2015-04-24T17:39:52Z</time>
</trkpt>
<trkpt lat="34.9141293" lon="32.4212444">
<ele>662.09</ele>
<time>2015-04-24T17:39:54Z</time>
</trkpt>
<trkpt lat="34.9141886" lon="32.4212564">
<ele>661.47</ele>
<time>2015-04-24T17:39:56Z</time>
</trkpt>
<trkpt lat="34.9142405" lon="32.4212627">
<ele>661.81</ele>
<time>2015-04-24T17:39:58Z</time>
</trkpt>
<trkpt lat="34.9142876" lon="32.4212670">
<ele>661.90</ele>
<time>2015-04-24T17:40:00Z</time>
</trkpt>
<trkpt lat="34.9143552" lon="32.4212690">
<ele>661.42</ele>
<time>2015-04-24T17:40:03Z</time>
</trkpt>
<trkpt lat="34.9144058" lon="32.4212715">
<ele>660.55</ele>
<time>2015-04-24T17:40:05Z</time>
</trkpt>
<trkpt lat="34.9144585" lon="32.4212597">
<ele>660.83</ele>
<time>2015-04-24T17:40:07Z</time>
</trkpt>
<trkpt lat="34.9145159" lon="32.4212413">
<ele>660.90</ele>
<time>2015-04-24T17:40:09Z</time>
</trkpt>
<trkpt lat="34.9145678" lon="32.4212224">
<ele>661.67</ele>
<time>2015-04-24T17:40:11Z</time>
</trkpt>
<trkpt lat="34.9146195" lon="32.4211967">
<ele>661.61</ele>
<time>2015-04-24T17:40:13Z</time>
</trkpt>
<trkpt lat="34.9146741" lon="32.4211771">
<ele>661.35</ele>
<time>2015-04-24T17:40:15Z</time>
</trkpt>
<trkpt lat="34.9147318" lon="32.4211627">
<ele>661.53</ele>
<time>2015-04-24T17:40:17Z</time>
</trkpt>
<trkpt lat="34.9147871" lon="32.4211426">
<ele>662.33</ele>
<time>2015-04-24T17:40:19Z</time>
</trkpt>
<trkpt lat="34.9148417" lon="32.4211139">
<ele>662.78</ele>
<time>2015-04-24T17:40:21Z</time>
</trkpt>
<trkpt lat="34.9148956" lon="32.4210805">
<ele>663.39</ele>
<time>2015-04-24T17:40:23Z</time>
</trkpt>
<trkpt lat="34.9149508" lon="32.4210431">
<ele>663.29</ele>
<time>2015-04-24T17:40:25Z</time>
</trkpt>
<trkpt lat="34.9150040" lon="32.4210077">
<ele>663.52</ele>
<time>2015-04-24T17:40:27Z</time>
</trkpt>
<trkpt lat="34.9150585" lon="32.4209702">
<ele>663.32</ele>
<time>2015-04-24T17:40:29Z</time>
</trkpt>
<trkpt lat="34.9151152" lon="32.4209294">
<ele>663.02</ele>
<time>2015-04-24T17:40:31Z</time>
</trkpt>
<trkpt lat="34.9151762" lon="32.4208878">
<ele>662.95</ele>
<time>2015-04-24T17:40:33Z</time>
</trkpt>
<trkpt lat="34.9152379" lon="32.4208508">
<ele>662.93</ele>
<time>2015-04-24T17:40:35Z</time>
</trkpt>
<trkpt lat="34.9153030" lon="32.4208080">
<ele>662.18</ele>
<time>2015-04-24T17:40:37Z</time>
</trkpt>
<trkpt lat="34.9153635" lon="32.4207638">
<ele>661.24</ele>
<time>2015-04-24T17:40:39Z</time>
</trkpt>
<trkpt lat="34.9154228" lon="32.4207180">
<ele>661.00</ele>
<time>2015-04-24T17:40:41Z</time>
</trkpt>
<trkpt lat="34.9154819" lon="32.4206737">
<ele>660.94</ele>
<time>2015-04-24T17:40:43Z</time>
</trkpt>
<trkpt lat="34.9155490" lon="32.4206277">
<ele>660.93</ele>
<time>2015-04-24T17:40:45Z</time>
</trkpt>
<trkpt lat="34.9156179" lon="32.4205866">
<ele>660.93</ele>
<time>2015-04-24T17:40:47Z</time>
</trkpt>
<trkpt lat="34.9156802" lon="32.4205434">
<ele>661.18</ele>
<time>2015-04-24T17:40:49Z</time>
</trkpt>
<trkpt lat="34.9157309" lon="32.4204922">
<ele>661.49</ele>
<time>2015-04-24T17:40:51Z</time>
</trkpt>
<trkpt lat="34.9157852" lon="32.4204506">
<ele>661.07</ele>
<time>2015-04-24T17:40:53Z</time>
</trkpt>
<trkpt lat="34.9158402" lon="32.4204249">
<ele>661.71</ele>
<time>2015-04-24T17:40:55Z</time>
</trkpt>
<trkpt lat="34.9159208" lon="32.4203899">
<ele>661.90</ele>
<time>2015-04-24T17:40:58Z</time>
</trkpt>
<trkpt lat="34.9159700" lon="32.4203670">
<ele>661.92</ele>
<time>2015-04-24T17:41:00Z</time>
</trkpt>
<trkpt lat="34.9160225" lon="32.4203431">
<ele>661.42</ele>
<time>2015-04-24T17:41:02Z</time>
</trkpt>
<trkpt lat="34.9160779" lon="32.4203150">
<ele>662.30</ele>
<time>2015-04-24T17:41:04Z</time>
</trkpt>
<trkpt lat="34.9161417" lon="32.4202897">
<ele>662.77</ele>
<time>2015-04-24T17:41:06Z</time>
</trkpt>
<trkpt lat="34.9162125" lon="32.4202661">
<ele>663.64</ele>
<time>2015-04-24T17:41:08Z</time>
</trkpt>
<trkpt lat="34.9162850" lon="32.4202479">
<ele>663.85</ele>
<time>2015-04-24T17:41:10Z</time>
</trkpt>
<trkpt lat="34.9163562" lon="32.4202329">
<ele>664.66</ele>
<time>2015-04-24T17:41:12Z</time>
</trkpt>
<trkpt lat="34.9164280" lon="32.4202241">
<ele>664.61</ele>
<time>2015-04-24T17:41:14Z</time>
</trkpt>
<trkpt lat="34.9164975" lon="32.4202148">
<ele>664.35</ele>
<time>2015-04-24T17:41:16Z</time>
</trkpt>
<trkpt lat="34.9165627" lon="32.4202026">
<ele>664.78</ele>
<time>2015-04-24T17:41:18Z</time>
</trkpt>
<trkpt lat="34.9166280" lon="32.4201912">
<ele>664.89</ele>
<time>2015-04-24T17:41:20Z</time>
</trkpt>
<trkpt lat="34.9166962" lon="32.4201846">
<ele>664.92</ele>
<time>2015-04-24T17:41:22Z</time>
</trkpt>
<trkpt lat="34.9167695" lon="32.4201813">
<ele>664.92</ele>
<time>2015-04-24T17:41:24Z</time>
</trkpt>
<trkpt lat="34.9168455" lon="32.4201771">
<ele>664.42</ele>
<time>2015-04-24T17:41:26Z</time>
</trkpt>
<trkpt lat="34.9169200" lon="32.4201763">
<ele>664.05</ele>
<time>2015-04-24T17:41:28Z</time>
</trkpt>
<trkpt lat="34.9169941" lon="32.4201685">
<ele>663.96</ele>
<time>2015-04-24T17:41:30Z</time>
</trkpt>
<trkpt lat="34.9170694" lon="32.4201573">
<ele>664.43</ele>
<time>2015-04-24T17:41:32Z</time>
</trkpt>
<trkpt lat="34.9171444" lon="32.4201546">
<ele>664.80</ele>
<time>2015-04-24T17:41:34Z</time>
</trkpt>
<trkpt lat="34.9172196" lon="32.4201598">
<ele>664.39</ele>
<time>2015-04-24T17:41:36Z</time>
</trkpt>
<trkpt lat="34.9172931" lon="32.4201649">
<ele>664.04</ele>
<time>2015-04-24T17:41:38Z</time>
</trkpt>
<trkpt lat="34.9173616" lon="32.4201591">
<ele>663.95</ele>
<time>2015-04-24T17:41:40Z</time>
</trkpt>
<trkpt lat="34.9174236" lon="32.4201532">
<ele>663.93</ele>
<time>2015-04-24T17:41:42Z</time>
</trkpt>
<trkpt lat="34.9174822" lon="32.4201547">
<ele>663.43</ele>
<time>2015-04-24T17:41:44Z</time>
</trkpt>
<trkpt lat="34.9175388" lon="32.4201526">
<ele>663.05</ele>
<time>2015-04-24T17:41:46Z</time>
</trkpt>
<trkpt lat="34.9175950" lon="32.4201548">
<ele>663.71</ele>
<time>2015-04-24T17:41:48Z</time>
</trkpt>
<trkpt lat="34.9176494" lon="32.4201593">
<ele>663.62</ele>
<time>2015-04-24T17:41:50Z</time>
</trkpt>
<trkpt lat="34.9177013" lon="32.4201651">
<ele>663.85</ele>
<time>2015-04-24T17:41:52Z</time>
</trkpt>
<trkpt lat="34.9177509" lon="32.4201725">
<ele>663.16</ele>
<time>2015-04-24T17:41:54Z</time>
</trkpt>
<trkpt lat="34.9177985" lon="32.4201829">
<ele>662.48</ele>
<time>2015-04-24T17:41:56Z</time>
</trkpt>
<trkpt lat="34.9178467" lon="32.4201913">
<ele>662.06</ele>
<time>2015-04-24T17:41:58Z</time>
</trkpt>
<trkpt lat="34.9178961" lon="32.4201950">
<ele>661.96</ele>
<time>2015-04-24T17:42:00Z</time>
</trkpt>
<trkpt lat="34.9179565" lon="32.4202015">
<ele>661.18</ele>
<time>2015-04-24T17:42:03Z</time>
</trkpt>
<trkpt lat="34.9180024" lon="32.4202079">
<ele>660.49</ele>
<time>2015-04-24T17:42:05Z</time>
</trkpt>
<trkpt lat="34.9180515" lon="32.4202149">
<ele>660.07</ele>
<time>2015-04-24T17:42:07Z</time>
</trkpt>
<trkpt lat="34.9181056" lon="32.4202320">
<ele>660.46</ele>
<time>2015-04-24T17:42:09Z</time>
</trkpt>
<trkpt lat="34.9181518" lon="32.4202490">
<ele>660.69</ele>
<time>2015-04-24T17:42:10Z</time>
</trkpt>
<trkpt lat="34.9182328" lon="32.4202777">
<ele>660.87</ele>
<time>2015-04-24T17:42:12Z</time>
</trkpt>
<trkpt lat="34.9183098" lon="32.4203108">
<ele>660.91</ele>
<time>2015-04-24T17:42:14Z</time>
</trkpt>
<trkpt lat="34.9183828" lon="32.4203414">
<ele>660.42</ele>
<time>2015-04-24T17:42:16Z</time>
</trkpt>
<trkpt lat="34.9184441" lon="32.4203636">
<ele>660.05</ele>
<time>2015-04-24T17:42:18Z</time>
</trkpt>
<trkpt lat="34.9185095" lon="32.4203876">
<ele>659.46</ele>
<time>2015-04-24T17:42:20Z</time>
</trkpt>
<trkpt lat="34.9185794" lon="32.4204179">
<ele>659.06</ele>
<time>2015-04-24T17:42:22Z</time>
</trkpt>
<trkpt lat="34.9186298" lon="32.4204443">
<ele>659.49</ele>
<time>2015-04-24T17:42:23Z</time>
</trkpt>
<trkpt lat="34.9186830" lon="32.4204706">
<ele>659.71</ele>
<time>2015-04-24T17:42:24Z</time>
</trkpt>
<trkpt lat="34.9187260" lon="32.4204907">
<ele>659.82</ele>
<time>2015-04-24T17:42:25Z</time>
</trkpt>
<trkpt lat="34.9187702" lon="32.4205046">
<ele>659.37</ele>
<time>2015-04-24T17:42:26Z</time>
</trkpt>
<trkpt lat="34.9188132" lon="32.4205225">
<ele>659.15</ele>
<time>2015-04-24T17:42:27Z</time>
</trkpt>
<trkpt lat="34.9188610" lon="32.4205524">
<ele>659.04</ele>
<time>2015-04-24T17:42:28Z</time>
</trkpt>
<trkpt lat="34.9189065" lon="32.4205746">
<ele>658.98</ele>
<time>2015-04-24T17:42:29Z</time>
</trkpt>
<trkpt lat="34.9189534" lon="32.4205977">
<ele>659.45</ele>
<time>2015-04-24T17:42:30Z</time>
</trkpt>
<trkpt lat="34.9190008" lon="32.4206235">
<ele>659.69</ele>
<time>2015-04-24T17:42:31Z</time>
</trkpt>
<trkpt lat="34.9190494" lon="32.4206454">
<ele>659.81</ele>
<time>2015-04-24T17:42:32Z</time>
</trkpt>
<trkpt lat="34.9190962" lon="32.4206677">
<ele>659.87</ele>
<time>2015-04-24T17:42:33Z</time>
</trkpt>
<trkpt lat="34.9191469" lon="32.4206893">
<ele>659.90</ele>
<time>2015-04-24T17:42:34Z</time>
</trkpt>
<trkpt lat="34.9191955" lon="32.4207113">
<ele>659.91</ele>
<time>2015-04-24T17:42:35Z</time>
</trkpt>
<trkpt lat="34.9192472" lon="32.4207427">
<ele>659.92</ele>
<time>2015-04-24T17:42:36Z</time>
</trkpt>
<trkpt lat="34.9192962" lon="32.4207654">
<ele>659.92</ele>
<time>2015-04-24T17:42:37Z</time>
</trkpt>
<trkpt lat="34.9193639" lon="32.4207922">
<ele>659.92</ele>
<time>2015-04-24T17:42:38Z</time>
</trkpt>
<trkpt lat="34.9194179" lon="32.4208121">
<ele>660.42</ele>
<time>2015-04-24T17:42:39Z</time>
</trkpt>
<trkpt lat="34.9194764" lon="32.4208455">
<ele>660.17</ele>
<time>2015-04-24T17:42:40Z</time>
</trkpt>
<trkpt lat="34.9195314" lon="32.4208710">
<ele>660.05</ele>
<time>2015-04-24T17:42:41Z</time>
</trkpt>
<trkpt lat="34.9195912" lon="32.4208894">
<ele>659.99</ele>
<time>2015-04-24T17:42:42Z</time>
</trkpt>
<trkpt lat="34.9196478" lon="32.4209100">
<ele>659.96</ele>
<time>2015-04-24T17:42:43Z</time>
</trkpt>
<trkpt lat="34.9197077" lon="32.4209181">
<ele>660.44</ele>
<time>2015-04-24T17:42:44Z</time>
</trkpt>
<trkpt lat="34.9197676" lon="32.4209323">
<ele>660.68</ele>
<time>2015-04-24T17:42:45Z</time>
</trkpt>
<trkpt lat="34.9198321" lon="32.4209311">
<ele>660.80</ele>
<time>2015-04-24T17:42:46Z</time>
</trkpt>
<trkpt lat="34.9198931" lon="32.4209409">
<ele>660.86</ele>
<time>2015-04-24T17:42:47Z</time>
</trkpt>
<trkpt lat="34.9199493" lon="32.4209461">
<ele>661.39</ele>
<time>2015-04-24T17:42:48Z</time>
</trkpt>
<trkpt lat="34.9200110" lon="32.4209500">
<ele>661.66</ele>
<time>2015-04-24T17:42:49Z</time>
</trkpt>
<trkpt lat="34.9200648" lon="32.4209575">
<ele>661.79</ele>
<time>2015-04-24T17:42:50Z</time>
</trkpt>
<trkpt lat="34.9201242" lon="32.4209589">
<ele>661.86</ele>
<time>2015-04-24T17:42:51Z</time>
</trkpt>
<trkpt lat="34.9201790" lon="32.4209557">
<ele>661.89</ele>
<time>2015-04-24T17:42:52Z</time>
</trkpt>
<trkpt lat="34.9202384" lon="32.4209473">
<ele>661.41</ele>
<time>2015-04-24T17:42:53Z</time>
</trkpt>
<trkpt lat="34.9202952" lon="32.4209298">
<ele>661.17</ele>
<time>2015-04-24T17:42:54Z</time>
</trkpt>
<trkpt lat="34.9203548" lon="32.4209206">
<ele>661.05</ele>
<time>2015-04-24T17:42:55Z</time>
</trkpt>
<trkpt lat="34.9204142" lon="32.4209040">
<ele>661.49</ele>
<time>2015-04-24T17:42:56Z</time>
</trkpt>
<trkpt lat="34.9204732" lon="32.4208932">
<ele>661.71</ele>
<time>2015-04-24T17:42:57Z</time>
</trkpt>
<trkpt lat="34.9205278" lon="32.4208818">
<ele>661.82</ele>
<time>2015-04-24T17:42:58Z</time>
</trkpt>
<trkpt lat="34.9205858" lon="32.4208688">
<ele>662.37</ele>
<time>2015-04-24T17:42:59Z</time>
</trkpt>
<trkpt lat="34.9206478" lon="32.4208444">
<ele>662.15</ele>
<time>2015-04-24T17:43:00Z</time>
</trkpt>
<trkpt lat="34.9207091" lon="32.4208286">
<ele>662.04</ele>
<time>2015-04-24T17:43:01Z</time>
</trkpt>
<trkpt lat="34.9207692" lon="32.4208130">
<ele>661.98</ele>
<time>2015-04-24T17:43:02Z</time>
</trkpt>
<trkpt lat="34.9208274" lon="32.4208005">
<ele>661.95</ele>
<time>2015-04-24T17:43:03Z</time>
</trkpt>
<trkpt lat="34.9208826" lon="32.4207833">
<ele>662.44</ele>
<time>2015-04-24T17:43:04Z</time>
</trkpt>
<trkpt lat="34.9209282" lon="32.4207684">
<ele>662.68</ele>
<time>2015-04-24T17:43:05Z</time>
</trkpt>
<trkpt lat="34.9210120" lon="32.4207416">
<ele>662.86</ele>
<time>2015-04-24T17:43:07Z</time>
</trkpt>
<trkpt lat="34.9210585" lon="32.4207298">
<ele>662.89</ele>
<time>2015-04-24T17:43:08Z</time>
</trkpt>
<trkpt lat="34.9211039" lon="32.4207155">
<ele>662.91</ele>
<time>2015-04-24T17:43:09Z</time>
</trkpt>
<trkpt lat="34.9211494" lon="32.4207049">
<ele>662.92</ele>
<time>2015-04-24T17:43:10Z</time>
</trkpt>
<trkpt lat="34.9212019" lon="32.4207006">
<ele>662.42</ele>
<time>2015-04-24T17:43:11Z</time>
</trkpt>
<trkpt lat="34.9212498" lon="32.4206908">
<ele>662.67</ele>
<time>2015-04-24T17:43:12Z</time>
</trkpt>
<trkpt lat="34.9212969" lon="32.4206780">
<ele>662.30</ele>
<time>2015-04-24T17:43:13Z</time>
</trkpt>
<trkpt lat="34.9213515" lon="32.4206643">
<ele>662.61</ele>
<time>2015-04-24T17:43:14Z</time>
</trkpt>
<trkpt lat="34.9214005" lon="32.4206497">
<ele>662.77</ele>
<time>2015-04-24T17:43:15Z</time>
</trkpt>
<trkpt lat="34.9214560" lon="32.4206384">
<ele>662.85</ele>
<time>2015-04-24T17:43:16Z</time>
</trkpt>
<trkpt lat="34.9215084" lon="32.4206251">
<ele>662.89</ele>
<time>2015-04-24T17:43:17Z</time>
</trkpt>
<trkpt lat="34.9215689" lon="32.4206090">
<ele>662.41</ele>
<time>2015-04-24T17:43:18Z</time>
</trkpt>
<trkpt lat="34.9216240" lon="32.4205955">
<ele>662.17</ele>
<time>2015-04-24T17:43:19Z</time>
</trkpt>
<trkpt lat="34.9216791" lon="32.4205780">
<ele>662.55</ele>
<time>2015-04-24T17:43:20Z</time>
</trkpt>
<trkpt lat="34.9217400" lon="32.4205610">
<ele>662.74</ele>
<time>2015-04-24T17:43:21Z</time>
</trkpt>
<trkpt lat="34.9218046" lon="32.4205491">
<ele>662.33</ele>
<time>2015-04-24T17:43:22Z</time>
</trkpt>
<trkpt lat="34.9218634" lon="32.4205320">
<ele>662.13</ele>
<time>2015-04-24T17:43:23Z</time>
</trkpt>
<trkpt lat="34.9219296" lon="32.4205154">
<ele>662.03</ele>
<time>2015-04-24T17:43:24Z</time>
</trkpt>
<trkpt lat="34.9219909" lon="32.4204991">
<ele>661.98</ele>
<time>2015-04-24T17:43:25Z</time>
</trkpt>
<trkpt lat="34.9220562" lon="32.4204826">
<ele>661.95</ele>
<time>2015-04-24T17:43:26Z</time>
</trkpt>
<trkpt lat="34.9221256" lon="32.4204733">
<ele>661.44</ele>
<time>2015-04-24T17:43:27Z</time>
</trkpt>
<trkpt lat="34.9221928" lon="32.4204582">
<ele>661.18</ele>
<time>2015-04-24T17:43:28Z</time>
</trkpt>
<trkpt lat="34.9222594" lon="32.4204433">
<ele>661.05</ele>
<time>2015-04-24T17:43:29Z</time>
</trkpt>
<trkpt lat="34.9223299" lon="32.4204288">
<ele>660.99</ele>
<time>2015-04-24T17:43:30Z</time>
</trkpt>
<trkpt lat="34.9223971" lon="32.4204119">
<ele>660.96</ele>
<time>2015-04-24T17:43:31Z</time>
</trkpt>
<trkpt lat="34.9224642" lon="32.4203916">
<ele>660.94</ele>
<time>2015-04-24T17:43:32Z</time>
</trkpt>
<trkpt lat="34.9225329" lon="32.4203720">
<ele>660.93</ele>
<time>2015-04-24T17:43:33Z</time>
</trkpt>
<trkpt lat="34.9225893" lon="32.4203562">
<ele>660.93</ele>
<time>2015-04-24T17:43:34Z</time>
</trkpt>
<trkpt lat="34.9226541" lon="32.4203427">
<ele>660.93</ele>
<time>2015-04-24T17:43:35Z</time>
</trkpt>
<trkpt lat="34.9227163" lon="32.4203143">
<ele>660.93</ele>
<time>2015-04-24T17:43:36Z</time>
</trkpt>
<trkpt lat="34.9227792" lon="32.4202937">
<ele>660.93</ele>
<time>2015-04-24T17:43:37Z</time>
</trkpt>
<trkpt lat="34.9228357" lon="32.4202702">
<ele>660.43</ele>
<time>2015-04-24T17:43:38Z</time>
</trkpt>
<trkpt lat="34.9228943" lon="32.4202464">
<ele>659.68</ele>
<time>2015-04-24T17:43:39Z</time>
</trkpt>
<trkpt lat="34.9229469" lon="32.4202255">
<ele>659.30</ele>
<time>2015-04-24T17:43:40Z</time>
</trkpt>
<trkpt lat="34.9230002" lon="32.4202002">
<ele>659.11</ele>
<time>2015-04-24T17:43:41Z</time>
</trkpt>
<trkpt lat="34.9230480" lon="32.4201663">
<ele>659.02</ele>
<time>2015-04-24T17:43:42Z</time>
</trkpt>
<trkpt lat="34.9230956" lon="32.4201341">
<ele>658.97</ele>
<time>2015-04-24T17:43:43Z</time>
</trkpt>
<trkpt lat="34.9231459" lon="32.4201048">
<ele>658.45</ele>
<time>2015-04-24T17:43:44Z</time>
</trkpt>
<trkpt lat="34.9231943" lon="32.4200724">
<ele>658.19</ele>
<time>2015-04-24T17:43:45Z</time>
</trkpt>
<trkpt lat="34.9232481" lon="32.4200417">
<ele>658.06</ele>
<time>2015-04-24T17:43:46Z</time>
</trkpt>
<trkpt lat="34.9232995" lon="32.4200127">
<ele>657.99</ele>
<time>2015-04-24T17:43:47Z</time>
</trkpt>
<trkpt lat="34.9233537" lon="32.4199780">
<ele>657.96</ele>
<time>2015-04-24T17:43:48Z</time>
</trkpt>
<trkpt lat="34.9234062" lon="32.4199450">
<ele>657.44</ele>
<time>2015-04-24T17:43:49Z</time>
</trkpt>
<trkpt lat="34.9234712" lon="32.4199184">
<ele>657.18</ele>
<time>2015-04-24T17:43:50Z</time>
</trkpt>
<trkpt lat="34.9235279" lon="32.4198887">
<ele>657.05</ele>
<time>2015-04-24T17:43:51Z</time>
</trkpt>
<trkpt lat="34.9235940" lon="32.4198587">
<ele>656.99</ele>
<time>2015-04-24T17:43:52Z</time>
</trkpt>
<trkpt lat="34.9236531" lon="32.4198286">
<ele>656.96</ele>
<time>2015-04-24T17:43:53Z</time>
</trkpt>
<trkpt lat="34.9237174" lon="32.4198081">
<ele>656.44</ele>
<time>2015-04-24T17:43:54Z</time>
</trkpt>
<trkpt lat="34.9237794" lon="32.4197833">
<ele>656.18</ele>
<time>2015-04-24T17:43:55Z</time>
</trkpt>
<trkpt lat="34.9238372" lon="32.4197530">
<ele>656.55</ele>
<time>2015-04-24T17:43:56Z</time>
</trkpt>
<trkpt lat="34.9238967" lon="32.4197278">
<ele>656.74</ele>
<time>2015-04-24T17:43:57Z</time>
</trkpt>
<trkpt lat="34.9239752" lon="32.4197058">
<ele>655.83</ele>
<time>2015-04-24T17:43:58Z</time>
</trkpt>
<trkpt lat="34.9240404" lon="32.4196843">
<ele>655.38</ele>
<time>2015-04-24T17:43:59Z</time>
</trkpt>
<trkpt lat="34.9241050" lon="32.4196724">
<ele>655.65</ele>
<time>2015-04-24T17:44:00Z</time>
</trkpt>
<trkpt lat="34.9241736" lon="32.4196548">
<ele>655.79</ele>
<time>2015-04-24T17:44:01Z</time>
</trkpt>
<trkpt lat="34.9242451" lon="32.4196307">
<ele>656.36</ele>
<time>2015-04-24T17:44:02Z</time>
</trkpt>
<trkpt lat="34.9243145" lon="32.4196124">
<ele>656.64</ele>
<time>2015-04-24T17:44:03Z</time>
</trkpt>
<trkpt lat="34.9243882" lon="32.4195838">
<ele>656.28</ele>
<time>2015-04-24T17:44:04Z</time>
</trkpt>
<trkpt lat="34.9244630" lon="32.4195623">
<ele>656.10</ele>
<time>2015-04-24T17:44:05Z</time>
</trkpt>
<trkpt lat="34.9245356" lon="32.4195372">
<ele>655.51</ele>
<time>2015-04-24T17:44:06Z</time>
</trkpt>
<trkpt lat="34.9246050" lon="32.4195054">
<ele>655.22</ele>
<time>2015-04-24T17:44:07Z</time>
</trkpt>
<trkpt lat="34.9246756" lon="32.4194574">
<ele>654.57</ele>
<time>2015-04-24T17:44:08Z</time>
</trkpt>
<trkpt lat="34.9247440" lon="32.4194160">
<ele>654.25</ele>
<time>2015-04-24T17:44:09Z</time>
</trkpt>
<trkpt lat="34.9248055" lon="32.4193650">
<ele>654.09</ele>
<time>2015-04-24T17:44:10Z</time>
</trkpt>
<trkpt lat="34.9248683" lon="32.4193135">
<ele>654.01</ele>
<time>2015-04-24T17:44:11Z</time>
</trkpt>
<trkpt lat="34.9249240" lon="32.4192536">
<ele>653.47</ele>
<time>2015-04-24T17:44:12Z</time>
</trkpt>
<trkpt lat="34.9249829" lon="32.4191953">
<ele>652.70</ele>
<time>2015-04-24T17:44:13Z</time>
</trkpt>
<trkpt lat="34.9250410" lon="32.4191306">
<ele>652.31</ele>
<time>2015-04-24T17:44:14Z</time>
</trkpt>
<trkpt lat="34.9250978" lon="32.4190725">
<ele>651.62</ele>
<time>2015-04-24T17:44:15Z</time>
</trkpt>
<trkpt lat="34.9251532" lon="32.4190155">
<ele>651.27</ele>
<time>2015-04-24T17:44:16Z</time>
</trkpt>
<trkpt lat="34.9252056" lon="32.4189546">
<ele>651.10</ele>
<time>2015-04-24T17:44:17Z</time>
</trkpt>
<trkpt lat="34.9252531" lon="32.4188917">
<ele>650.51</ele>
<time>2015-04-24T17:44:18Z</time>
</trkpt>
<trkpt lat="34.9253066" lon="32.4188403">
<ele>650.22</ele>
<time>2015-04-24T17:44:19Z</time>
</trkpt>
<trkpt lat="34.9253611" lon="32.4187828">
<ele>650.07</ele>
<time>2015-04-24T17:44:20Z</time>
</trkpt>
<trkpt lat="34.9254202" lon="32.4187369">
<ele>650.00</ele>
<time>2015-04-24T17:44:21Z</time>
</trkpt>
<trkpt lat="34.9254753" lon="32.4186840">
<ele>649.96</ele>
<time>2015-04-24T17:44:22Z</time>
</trkpt>
<trkpt lat="34.9255336" lon="32.4186334">
<ele>649.94</ele>
<time>2015-04-24T17:44:23Z</time>
</trkpt>
<trkpt lat="34.9255976" lon="32.4185876">
<ele>649.43</ele>
<time>2015-04-24T17:44:24Z</time>
</trkpt>
<trkpt lat="34.9256582" lon="32.4185378">
<ele>649.18</ele>
<time>2015-04-24T17:44:25Z</time>
</trkpt>
<trkpt lat="34.9257228" lon="32.4184841">
<ele>649.05</ele>
<time>2015-04-24T17:44:26Z</time>
</trkpt>
<trkpt lat="34.9257862" lon="32.4184352">
<ele>648.99</ele>
<time>2015-04-24T17:44:27Z</time>
</trkpt>
<trkpt lat="34.9258572" lon="32.4183947">
<ele>648.96</ele>
<time>2015-04-24T17:44:28Z</time>
</trkpt>
<trkpt lat="34.9259260" lon="32.4183514">
<ele>648.44</ele>
<time>2015-04-24T17:44:29Z</time>
</trkpt>
<trkpt lat="34.9259979" lon="32.4183097">
<ele>648.68</ele>
<time>2015-04-24T17:44:30Z</time>
</trkpt>
<trkpt lat="34.9260708" lon="32.4182709">
<ele>648.80</ele>
<time>2015-04-24T17:44:31Z</time>
</trkpt>
<trkpt lat="34.9261500" lon="32.4182282">
<ele>648.36</ele>
<time>2015-04-24T17:44:32Z</time>
</trkpt>
<trkpt lat="34.9262269" lon="32.4181936">
<ele>648.14</ele>
<time>2015-04-24T17:44:33Z</time>
</trkpt>
<trkpt lat="34.9263032" lon="32.4181622">
<ele>648.03</ele>
<time>2015-04-24T17:44:34Z</time>
</trkpt>
<trkpt lat="34.9263806" lon="32.4181279">
<ele>647.48</ele>
<time>2015-04-24T17:44:35Z</time>
</trkpt>
<trkpt lat="34.9264598" lon="32.4180969">
<ele>647.70</ele>
<time>2015-04-24T17:44:36Z</time>
</trkpt>
<trkpt lat="34.9265366" lon="32.4180796">
<ele>646.81</ele>
<time>2015-04-24T17:44:37Z</time>
</trkpt>
<trkpt lat="34.9266145" lon="32.4180534">
<ele>646.37</ele>
<time>2015-04-24T17:44:38Z</time>
</trkpt>
<trkpt lat="34.9266930" lon="32.4180333">
<ele>646.15</ele>
<time>2015-04-24T17:44:39Z</time>
</trkpt>
<trkpt lat="34.9267701" lon="32.4180119">
<ele>645.54</ele>
<time>2015-04-24T17:44:40Z</time>
</trkpt>
<trkpt lat="34.9268438" lon="32.4179932">
<ele>644.73</ele>
<time>2015-04-24T17:44:41Z</time>
</trkpt>
<trkpt lat="34.9269189" lon="32.4179703">
<ele>644.33</ele>
<time>2015-04-24T17:44:42Z</time>
</trkpt>
<trkpt lat="34.9269879" lon="32.4179560">
<ele>643.63</ele>
<time>2015-04-24T17:44:43Z</time>
</trkpt>
<trkpt lat="34.9270635" lon="32.4179360">
<ele>643.28</ele>
<time>2015-04-24T17:44:44Z</time>
</trkpt>
<trkpt lat="34.9271359" lon="32.4179168">
<ele>643.10</ele>
<time>2015-04-24T17:44:45Z</time>
</trkpt>
<trkpt lat="34.9272093" lon="32.4178999">
<ele>643.01</ele>
<time>2015-04-24T17:44:46Z</time>
</trkpt>
<trkpt lat="34.9272789" lon="32.4178780">
<ele>642.47</ele>
<time>2015-04-24T17:44:47Z</time>
</trkpt>
<trkpt lat="34.9273469" lon="32.4178583">
<ele>642.20</ele>
<time>2015-04-24T17:44:48Z</time>
</trkpt>
<trkpt lat="34.9274170" lon="32.4178413">
<ele>642.06</ele>
<time>2015-04-24T17:44:49Z</time>
</trkpt>
<trkpt lat="34.9274936" lon="32.4178287">
<ele>641.49</ele>
<time>2015-04-24T17:44:50Z</time>
</trkpt>
<trkpt lat="34.9275653" lon="32.4178117">
<ele>641.21</ele>
<time>2015-04-24T17:44:51Z</time>
</trkpt>
<trkpt lat="34.9276473" lon="32.4177973">
<ele>641.07</ele>
<time>2015-04-24T17:44:52Z</time>
</trkpt>
<trkpt lat="34.9277209" lon="32.4177856">
<ele>641.00</ele>
<time>2015-04-24T17:44:53Z</time>
</trkpt>
<trkpt lat="34.9278018" lon="32.4177659">
<ele>640.46</ele>
<time>2015-04-24T17:44:54Z</time>
</trkpt>
<trkpt lat="34.9278778" lon="32.4177554">
<ele>639.69</ele>
<time>2015-04-24T17:44:55Z</time>
</trkpt>
<trkpt lat="34.9279566" lon="32.4177449">
<ele>639.31</ele>
<time>2015-04-24T17:44:56Z</time>
</trkpt>
<trkpt lat="34.9280323" lon="32.4177277">
<ele>639.12</ele>
<time>2015-04-24T17:44:57Z</time>
</trkpt>
<trkpt lat="34.9281137" lon="32.4177100">
<ele>638.52</ele>
<time>2015-04-24T17:44:58Z</time>
</trkpt>
<trkpt lat="34.9281893" lon="32.4176928">
<ele>638.22</ele>
<time>2015-04-24T17:44:59Z</time>
</trkpt>
<trkpt lat="34.9282640" lon="32.4176655">
<ele>638.57</ele>
<time>2015-04-24T17:45:00Z</time>
</trkpt>
<trkpt lat="34.9283387" lon="32.4176457">
<ele>638.75</ele>
<time>2015-04-24T17:45:01Z</time>
</trkpt>
<trkpt lat="34.9284108" lon="32.4176278">
<ele>638.34</ele>
<time>2015-04-24T17:45:02Z</time>
</trkpt>
<trkpt lat="34.9284805" lon="32.4176097">
<ele>637.63</ele>
<time>2015-04-24T17:45:03Z</time>
</trkpt>
<trkpt lat="34.9285485" lon="32.4175838">
<ele>637.28</ele>
<time>2015-04-24T17:45:04Z</time>
</trkpt>
<trkpt lat="34.9286171" lon="32.4175651">
<ele>637.10</ele>
<time>2015-04-24T17:45:05Z</time>
</trkpt>
<trkpt lat="34.9286803" lon="32.4175473">
<ele>637.01</ele>
<time>2015-04-24T17:45:06Z</time>
</trkpt>
<trkpt lat="34.9287466" lon="32.4175268">
<ele>636.97</ele>
<time>2015-04-24T17:45:07Z</time>
</trkpt>
<trkpt lat="34.9288107" lon="32.4175057">
<ele>636.95</ele>
<time>2015-04-24T17:45:08Z</time>
</trkpt>
<trkpt lat="34.9288728" lon="32.4174900">
<ele>636.94</ele>
<time>2015-04-24T17:45:09Z</time>
</trkpt>
<trkpt lat="34.9289408" lon="32.4174618">
<ele>636.93</ele>
<time>2015-04-24T17:45:10Z</time>
</trkpt>
<trkpt lat="34.9290049" lon="32.4174400">
<ele>636.93</ele>
<time>2015-04-24T17:45:11Z</time>
</trkpt>
<trkpt lat="34.9290730" lon="32.4174169">
<ele>636.93</ele>
<time>2015-04-24T17:45:12Z</time>
</trkpt>
<trkpt lat="34.9291329" lon="32.4173924">
<ele>636.93</ele>
<time>2015-04-24T17:45:13Z</time>
</trkpt>
<trkpt lat="34.9291974" lon="32.4173685">
<ele>636.93</ele>
<time>2015-04-24T17:45:14Z</time>
</trkpt>
<trkpt lat="34.9292610" lon="32.4173421">
<ele>636.93</ele>
<time>2015-04-24T17:45:15Z</time>
</trkpt>
<trkpt lat="34.9293256" lon="32.4173154">
<ele>636.93</ele>
<time>2015-04-24T17:45:16Z</time>
</trkpt>
<trkpt lat="34.9293882" lon="32.4172856">
<ele>636.93</ele>
<time>2015-04-24T17:45:17Z</time>
</trkpt>
<trkpt lat="34.9294477" lon="32.4172549">
<ele>636.43</ele>
<time>2015-04-24T17:45:18Z</time>
</trkpt>
<trkpt lat="34.9295039" lon="32.4172243">
<ele>636.17</ele>
<time>2015-04-24T17:45:19Z</time>
</trkpt>
<trkpt lat="34.9295630" lon="32.4171914">
<ele>636.05</ele>
<time>2015-04-24T17:45:20Z</time>
</trkpt>
<trkpt lat="34.9296139" lon="32.4171788">
<ele>635.49</ele>
<time>2015-04-24T17:45:21Z</time>
</trkpt>
<trkpt lat="34.9296637" lon="32.4171550">
<ele>635.21</ele>
<time>2015-04-24T17:45:22Z</time>
</trkpt>
<trkpt lat="34.9297430" lon="32.4171176">
<ele>634.25</ele>
<time>2015-04-24T17:45:24Z</time>
</trkpt>
<trkpt lat="34.9298080" lon="32.4170753">
<ele>634.01</ele>
<time>2015-04-24T17:45:26Z</time>
</trkpt>
<trkpt lat="34.9298526" lon="32.4170499">
<ele>633.70</ele>
<time>2015-04-24T17:45:28Z</time>
</trkpt>
<trkpt lat="34.9298954" lon="32.4170068">
<ele>633.90</ele>
<time>2015-04-24T17:45:31Z</time>
</trkpt>
<trkpt lat="34.9298505" lon="32.4170269">
<ele>634.86</ele>
<time>2015-04-24T17:46:01Z</time>
</trkpt>
<trkpt lat="34.9298876" lon="32.4169886">
<ele>638.11</ele>
<time>2015-04-24T17:52:29Z</time>
</trkpt>
<trkpt lat="34.9299377" lon="32.4169484">
<ele>639.70</ele>
<time>2015-04-24T17:52:32Z</time>
</trkpt>
<trkpt lat="34.9299946" lon="32.4169100">
<ele>639.87</ele>
<time>2015-04-24T17:52:34Z</time>
</trkpt>
<trkpt lat="34.9300590" lon="32.4168717">
<ele>639.66</ele>
<time>2015-04-24T17:52:36Z</time>
</trkpt>
<trkpt lat="34.9301308" lon="32.4168315">
<ele>639.86</ele>
<time>2015-04-24T17:52:38Z</time>
</trkpt>
<trkpt lat="34.9302085" lon="32.4167860">
<ele>639.91</ele>
<time>2015-04-24T17:52:40Z</time>
</trkpt>
<trkpt lat="34.9302744" lon="32.4167474">
<ele>640.42</ele>
<time>2015-04-24T17:52:41Z</time>
</trkpt>
<trkpt lat="34.9303135" lon="32.4167165">
<ele>640.67</ele>
<time>2015-04-24T17:52:42Z</time>
</trkpt>
<trkpt lat="34.9303583" lon="32.4166911">
<ele>640.80</ele>
<time>2015-04-24T17:52:43Z</time>
</trkpt>
<trkpt lat="34.9304115" lon="32.4166544">
<ele>640.36</ele>
<time>2015-04-24T17:52:44Z</time>
</trkpt>
<trkpt lat="34.9304530" lon="32.4166220">
<ele>640.14</ele>
<time>2015-04-24T17:52:45Z</time>
</trkpt>
<trkpt lat="34.9305024" lon="32.4165859">
<ele>640.03</ele>
<time>2015-04-24T17:52:46Z</time>
</trkpt>
<trkpt lat="34.9305496" lon="32.4165621">
<ele>639.98</ele>
<time>2015-04-24T17:52:47Z</time>
</trkpt>
<trkpt lat="34.9306114" lon="32.4165270">
<ele>640.45</ele>
<time>2015-04-24T17:52:48Z</time>
</trkpt>
<trkpt lat="34.9306657" lon="32.4164992">
<ele>640.19</ele>
<time>2015-04-24T17:52:49Z</time>
</trkpt>
<trkpt lat="34.9307267" lon="32.4164578">
<ele>640.56</ele>
<time>2015-04-24T17:52:50Z</time>
</trkpt>
<trkpt lat="34.9307813" lon="32.4164335">
<ele>640.24</ele>
<time>2015-04-24T17:52:51Z</time>
</trkpt>
<trkpt lat="34.9308354" lon="32.4164201">
<ele>640.08</ele>
<time>2015-04-24T17:52:52Z</time>
</trkpt>
<trkpt lat="34.9308966" lon="32.4164121">
<ele>639.00</ele>
<time>2015-04-24T17:52:53Z</time>
</trkpt>
<trkpt lat="34.9309518" lon="32.4164027">
<ele>637.96</ele>
<time>2015-04-24T17:52:54Z</time>
</trkpt>
<trkpt lat="34.9310031" lon="32.4163809">
<ele>637.94</ele>
<time>2015-04-24T17:52:55Z</time>
</trkpt>
<trkpt lat="34.9310559" lon="32.4163609">
<ele>636.93</ele>
<time>2015-04-24T17:52:56Z</time>
</trkpt>
<trkpt lat="34.9311162" lon="32.4163484">
<ele>636.43</ele>
<time>2015-04-24T17:52:57Z</time>
</trkpt>
<trkpt lat="34.9311772" lon="32.4163422">
<ele>636.18</ele>
<time>2015-04-24T17:52:58Z</time>
</trkpt>
<trkpt lat="34.9312389" lon="32.4163203">
<ele>636.55</ele>
<time>2015-04-24T17:52:59Z</time>
</trkpt>
<trkpt lat="34.9313107" lon="32.4163137">
<ele>637.24</ele>
<time>2015-04-24T17:53:00Z</time>
</trkpt>
<trkpt lat="34.9313793" lon="32.4163120">
<ele>637.58</ele>
<time>2015-04-24T17:53:01Z</time>
</trkpt>
<trkpt lat="34.9314354" lon="32.4163170">
<ele>637.75</ele>
<time>2015-04-24T17:53:02Z</time>
</trkpt>
<trkpt lat="34.9315070" lon="32.4163134">
<ele>637.84</ele>
<time>2015-04-24T17:53:03Z</time>
</trkpt>
<trkpt lat="34.9315780" lon="32.4163156">
<ele>637.88</ele>
<time>2015-04-24T17:53:04Z</time>
</trkpt>
<trkpt lat="34.9316501" lon="32.4162995">
<ele>637.90</ele>
<time>2015-04-24T17:53:05Z</time>
</trkpt>
<trkpt lat="34.9317085" lon="32.4162804">
<ele>637.41</ele>
<time>2015-04-24T17:53:06Z</time>
</trkpt>
<trkpt lat="34.9317726" lon="32.4162695">
<ele>637.17</ele>
<time>2015-04-24T17:53:07Z</time>
</trkpt>
<trkpt lat="34.9318458" lon="32.4162635">
<ele>637.05</ele>
<time>2015-04-24T17:53:08Z</time>
</trkpt>
<trkpt lat="34.9319251" lon="32.4162567">
<ele>636.49</ele>
<time>2015-04-24T17:53:09Z</time>
</trkpt>
<trkpt lat="34.9319986" lon="32.4162500">
<ele>635.71</ele>
<time>2015-04-24T17:53:10Z</time>
</trkpt>
<trkpt lat="34.9320727" lon="32.4162491">
<ele>635.82</ele>
<time>2015-04-24T17:53:11Z</time>
</trkpt>
<trkpt lat="34.9321504" lon="32.4162485">
<ele>635.37</ele>
<time>2015-04-24T17:53:12Z</time>
</trkpt>
<trkpt lat="34.9322213" lon="32.4162506">
<ele>635.65</ele>
<time>2015-04-24T17:53:13Z</time>
</trkpt>
<trkpt lat="34.9322845" lon="32.4162459">
<ele>635.79</ele>
<time>2015-04-24T17:53:14Z</time>
</trkpt>
<trkpt lat="34.9323552" lon="32.4162388">
<ele>636.36</ele>
<time>2015-04-24T17:53:15Z</time>
</trkpt>
<trkpt lat="34.9324325" lon="32.4162318">
<ele>637.14</ele>
<time>2015-04-24T17:53:16Z</time>
</trkpt>
<trkpt lat="34.9324995" lon="32.4162335">
<ele>637.53</ele>
<time>2015-04-24T17:53:17Z</time>
</trkpt>
<trkpt lat="34.9325580" lon="32.4162365">
<ele>637.73</ele>
<time>2015-04-24T17:53:18Z</time>
</trkpt>
<trkpt lat="34.9326260" lon="32.4162309">
<ele>638.83</ele>
<time>2015-04-24T17:53:19Z</time>
</trkpt>
<trkpt lat="34.9326870" lon="32.4162362">
<ele>638.88</ele>
<time>2015-04-24T17:53:20Z</time>
</trkpt>
<trkpt lat="34.9327886" lon="32.4162254">
<ele>638.41</ele>
<time>2015-04-24T17:53:22Z</time>
</trkpt>
<trkpt lat="34.9328342" lon="32.4162199">
<ele>638.17</ele>
<time>2015-04-24T17:53:23Z</time>
</trkpt>
<trkpt lat="34.9328852" lon="32.4162162">
<ele>638.05</ele>
<time>2015-04-24T17:53:24Z</time>
</trkpt>
<trkpt lat="34.9329672" lon="32.4162186">
<ele>637.96</ele>
<time>2015-04-24T17:53:26Z</time>
</trkpt>
<trkpt lat="34.9330155" lon="32.4162195">
<ele>637.44</ele>
<time>2015-04-24T17:53:27Z</time>
</trkpt>
<trkpt lat="34.9330654" lon="32.4162104">
<ele>637.68</ele>
<time>2015-04-24T17:53:28Z</time>
</trkpt>
<trkpt lat="34.9331149" lon="32.4162055">
<ele>638.30</ele>
<time>2015-04-24T17:53:29Z</time>
</trkpt>
<trkpt lat="34.9331608" lon="32.4161914">
<ele>639.61</ele>
<time>2015-04-24T17:53:30Z</time>
</trkpt>
<trkpt lat="34.9332610" lon="32.4161795">
<ele>640.60</ele>
<time>2015-04-24T17:53:32Z</time>
</trkpt>
<trkpt lat="34.9333115" lon="32.4161704">
<ele>640.76</ele>
<time>2015-04-24T17:53:33Z</time>
</trkpt>
<trkpt lat="34.9333605" lon="32.4161687">
<ele>640.84</ele>
<time>2015-04-24T17:53:34Z</time>
</trkpt>
<trkpt lat="34.9334488" lon="32.4161795">
<ele>640.90</ele>
<time>2015-04-24T17:53:36Z</time>
</trkpt>
<trkpt lat="34.9335276" lon="32.4161690">
<ele>640.42</ele>
<time>2015-04-24T17:53:38Z</time>
</trkpt>
<trkpt lat="34.9336184" lon="32.4161573">
<ele>640.30</ele>
<time>2015-04-24T17:53:40Z</time>
</trkpt>
<trkpt lat="34.9337128" lon="32.4161352">
<ele>639.27</ele>
<time>2015-04-24T17:53:42Z</time>
</trkpt>
<trkpt lat="34.9337616" lon="32.4161238">
<ele>639.10</ele>
<time>2015-04-24T17:53:43Z</time>
</trkpt>
<trkpt lat="34.9338077" lon="32.4161143">
<ele>639.01</ele>
<time>2015-04-24T17:53:44Z</time>
</trkpt>
<trkpt lat="34.9338533" lon="32.4161046">
<ele>638.97</ele>
<time>2015-04-24T17:53:45Z</time>
</trkpt>
<trkpt lat="34.9339362" lon="32.4160677">
<ele>638.69</ele>
<time>2015-04-24T17:53:47Z</time>
</trkpt>
<trkpt lat="34.9339794" lon="32.4160443">
<ele>638.81</ele>
<time>2015-04-24T17:53:48Z</time>
</trkpt>
<trkpt lat="34.9340242" lon="32.4160252">
<ele>638.37</ele>
<time>2015-04-24T17:53:49Z</time>
</trkpt>
<trkpt lat="34.9340999" lon="32.4159612">
<ele>637.29</ele>
<time>2015-04-24T17:53:51Z</time>
</trkpt>
<trkpt lat="34.9341427" lon="32.4159250">
<ele>637.11</ele>
<time>2015-04-24T17:53:52Z</time>
</trkpt>
<trkpt lat="34.9341826" lon="32.4158896">
<ele>636.52</ele>
<time>2015-04-24T17:53:53Z</time>
</trkpt>
<trkpt lat="34.9342238" lon="32.4158456">
<ele>635.22</ele>
<time>2015-04-24T17:53:54Z</time>
</trkpt>
<trkpt lat="34.9342585" lon="32.4158056">
<ele>635.07</ele>
<time>2015-04-24T17:53:55Z</time>
</trkpt>
<trkpt lat="34.9342910" lon="32.4157585">
<ele>635.50</ele>
<time>2015-04-24T17:53:56Z</time>
</trkpt>
<trkpt lat="34.9343277" lon="32.4157156">
<ele>635.71</ele>
<time>2015-04-24T17:53:57Z</time>
</trkpt>
<trkpt lat="34.9343659" lon="32.4156556">
<ele>635.82</ele>
<time>2015-04-24T17:53:58Z</time>
</trkpt>
<trkpt lat="34.9343997" lon="32.4156081">
<ele>635.87</ele>
<time>2015-04-24T17:53:59Z</time>
</trkpt>
<trkpt lat="34.9344318" lon="32.4155517">
<ele>635.90</ele>
<time>2015-04-24T17:54:00Z</time>
</trkpt>
<trkpt lat="34.9344634" lon="32.4154850">
<ele>635.41</ele>
<time>2015-04-24T17:54:01Z</time>
</trkpt>
<trkpt lat="34.9344951" lon="32.4154270">
<ele>635.17</ele>
<time>2015-04-24T17:54:02Z</time>
</trkpt>
<trkpt lat="34.9345245" lon="32.4153652">
<ele>635.05</ele>
<time>2015-04-24T17:54:03Z</time>
</trkpt>
<trkpt lat="34.9345493" lon="32.4152981">
<ele>635.49</ele>
<time>2015-04-24T17:54:04Z</time>
</trkpt>
<trkpt lat="34.9345609" lon="32.4152248">
<ele>635.71</ele>
<time>2015-04-24T17:54:05Z</time>
</trkpt>
<trkpt lat="34.9345873" lon="32.4151460">
<ele>636.32</ele>
<time>2015-04-24T17:54:06Z</time>
</trkpt>
<trkpt lat="34.9346157" lon="32.4150719">
<ele>636.62</ele>
<time>2015-04-24T17:54:07Z</time>
</trkpt>
<trkpt lat="34.9346309" lon="32.4149932">
<ele>636.77</ele>
<time>2015-04-24T17:54:08Z</time>
</trkpt>
<trkpt lat="34.9346478" lon="32.4149018">
<ele>636.85</ele>
<time>2015-04-24T17:54:09Z</time>
</trkpt>
<trkpt lat="34.9346663" lon="32.4148318">
<ele>636.39</ele>
<time>2015-04-24T17:54:10Z</time>
</trkpt>
<trkpt lat="34.9346935" lon="32.4147559">
<ele>636.16</ele>
<time>2015-04-24T17:54:11Z</time>
</trkpt>
<trkpt lat="34.9347156" lon="32.4146810">
<ele>636.54</ele>
<time>2015-04-24T17:54:12Z</time>
</trkpt>
<trkpt lat="34.9347339" lon="32.4145975">
<ele>636.73</ele>
<time>2015-04-24T17:54:13Z</time>
</trkpt>
<trkpt lat="34.9347578" lon="32.4145205">
<ele>636.33</ele>
<time>2015-04-24T17:54:14Z</time>
</trkpt>
<trkpt lat="34.9347755" lon="32.4144524">
<ele>636.13</ele>
<time>2015-04-24T17:54:15Z</time>
</trkpt>
<trkpt lat="34.9348009" lon="32.4143716">
<ele>635.53</ele>
<time>2015-04-24T17:54:16Z</time>
</trkpt>
<trkpt lat="34.9348294" lon="32.4142926">
<ele>635.23</ele>
<time>2015-04-24T17:54:17Z</time>
</trkpt>
<trkpt lat="34.9348472" lon="32.4142103">
<ele>634.58</ele>
<time>2015-04-24T17:54:18Z</time>
</trkpt>
<trkpt lat="34.9348620" lon="32.4141344">
<ele>634.25</ele>
<time>2015-04-24T17:54:19Z</time>
</trkpt>
<trkpt lat="34.9348892" lon="32.4140390">
<ele>634.09</ele>
<time>2015-04-24T17:54:20Z</time>
</trkpt>
<trkpt lat="34.9349076" lon="32.4139607">
<ele>634.01</ele>
<time>2015-04-24T17:54:21Z</time>
</trkpt>
<trkpt lat="34.9349319" lon="32.4138714">
<ele>633.97</ele>
<time>2015-04-24T17:54:22Z</time>
</trkpt>
<trkpt lat="34.9349499" lon="32.4137913">
<ele>633.95</ele>
<time>2015-04-24T17:54:23Z</time>
</trkpt>
<trkpt lat="34.9349786" lon="32.4136968">
<ele>633.44</ele>
<time>2015-04-24T17:54:24Z</time>
</trkpt>
<trkpt lat="34.9350005" lon="32.4136101">
<ele>633.18</ele>
<time>2015-04-24T17:54:25Z</time>
</trkpt>
<trkpt lat="34.9350274" lon="32.4135208">
<ele>632.55</ele>
<time>2015-04-24T17:54:26Z</time>
</trkpt>
<trkpt lat="34.9350568" lon="32.4134220">
<ele>632.24</ele>
<time>2015-04-24T17:54:27Z</time>
</trkpt>
<trkpt lat="34.9350866" lon="32.4133378">
<ele>632.08</ele>
<time>2015-04-24T17:54:28Z</time>
</trkpt>
<trkpt lat="34.9351175" lon="32.4132523">
<ele>631.50</ele>
<time>2015-04-24T17:54:29Z</time>
</trkpt>
<trkpt lat="34.9351636" lon="32.4131729">
<ele>631.21</ele>
<time>2015-04-24T17:54:30Z</time>
</trkpt>
<trkpt lat="34.9352039" lon="32.4131003">
<ele>630.57</ele>
<time>2015-04-24T17:54:31Z</time>
</trkpt>
<trkpt lat="34.9352543" lon="32.4130180">
<ele>629.75</ele>
<time>2015-04-24T17:54:32Z</time>
</trkpt>
<trkpt lat="34.9353088" lon="32.4129547">
<ele>629.34</ele>
<time>2015-04-24T17:54:33Z</time>
</trkpt>
<trkpt lat="34.9353629" lon="32.4128885">
<ele>628.63</ele>
<time>2015-04-24T17:54:34Z</time>
</trkpt>
<trkpt lat="34.9354286" lon="32.4128328">
<ele>627.78</ele>
<time>2015-04-24T17:54:35Z</time>
</trkpt>
<trkpt lat="34.9354951" lon="32.4127831">
<ele>626.85</ele>
<time>2015-04-24T17:54:36Z</time>
</trkpt>
<trkpt lat="34.9355660" lon="32.4127378">
<ele>625.89</ele>
<time>2015-04-24T17:54:37Z</time>
</trkpt>
<trkpt lat="34.9356436" lon="32.4126975">
<ele>624.91</ele>
<time>2015-04-24T17:54:38Z</time>
</trkpt>
<trkpt lat="34.9357212" lon="32.4126618">
<ele>623.92</ele>
<time>2015-04-24T17:54:39Z</time>
</trkpt>
<trkpt lat="34.9358037" lon="32.4126216">
<ele>623.42</ele>
<time>2015-04-24T17:54:40Z</time>
</trkpt>
<trkpt lat="34.9358920" lon="32.4125967">
<ele>622.67</ele>
<time>2015-04-24T17:54:41Z</time>
</trkpt>
<trkpt lat="34.9359774" lon="32.4125672">
<ele>621.80</ele>
<time>2015-04-24T17:54:42Z</time>
</trkpt>
<trkpt lat="34.9360674" lon="32.4125404">
<ele>621.36</ele>
<time>2015-04-24T17:54:43Z</time>
</trkpt>
<trkpt lat="34.9361584" lon="32.4125093">
<ele>620.64</ele>
<time>2015-04-24T17:54:44Z</time>
</trkpt>
<trkpt lat="34.9362461" lon="32.4124781">
<ele>619.78</ele>
<time>2015-04-24T17:54:45Z</time>
</trkpt>
<trkpt lat="34.9363358" lon="32.4124467">
<ele>618.85</ele>
<time>2015-04-24T17:54:46Z</time>
</trkpt>
<trkpt lat="34.9364282" lon="32.4124102">
<ele>617.89</ele>
<time>2015-04-24T17:54:47Z</time>
</trkpt>
<trkpt lat="34.9365219" lon="32.4123757">
<ele>616.91</ele>
<time>2015-04-24T17:54:48Z</time>
</trkpt>
<trkpt lat="34.9366106" lon="32.4123433">
<ele>615.92</ele>
<time>2015-04-24T17:54:49Z</time>
</trkpt>
<trkpt lat="34.9367024" lon="32.4123107">
<ele>614.92</ele>
<time>2015-04-24T17:54:50Z</time>
</trkpt>
<trkpt lat="34.9367934" lon="32.4122728">
<ele>613.92</ele>
<time>2015-04-24T17:54:51Z</time>
</trkpt>
<trkpt lat="34.9368866" lon="32.4122376">
<ele>613.42</ele>
<time>2015-04-24T17:54:52Z</time>
</trkpt>
<trkpt lat="34.9369697" lon="32.4122077">
<ele>613.17</ele>
<time>2015-04-24T17:54:53Z</time>
</trkpt>
<trkpt lat="34.9370589" lon="32.4121766">
<ele>612.55</ele>
<time>2015-04-24T17:54:54Z</time>
</trkpt>
<trkpt lat="34.9371479" lon="32.4121453">
<ele>612.24</ele>
<time>2015-04-24T17:54:55Z</time>
</trkpt>
<trkpt lat="34.9372376" lon="32.4121118">
<ele>612.08</ele>
<time>2015-04-24T17:54:56Z</time>
</trkpt>
<trkpt lat="34.9373184" lon="32.4120877">
<ele>611.50</ele>
<time>2015-04-24T17:54:57Z</time>
</trkpt>
<trkpt lat="34.9374018" lon="32.4120553">
<ele>611.21</ele>
<time>2015-04-24T17:54:58Z</time>
</trkpt>
<trkpt lat="34.9374795" lon="32.4120241">
<ele>611.07</ele>
<time>2015-04-24T17:54:59Z</time>
</trkpt>
<trkpt lat="34.9375636" lon="32.4119952">
<ele>611.00</ele>
<time>2015-04-24T17:55:00Z</time>
</trkpt>
<trkpt lat="34.9376522" lon="32.4119654">
<ele>610.96</ele>
<time>2015-04-24T17:55:01Z</time>
</trkpt>
<trkpt lat="34.9377290" lon="32.4119347">
<ele>610.94</ele>
<time>2015-04-24T17:55:02Z</time>
</trkpt>
<trkpt lat="34.9378056" lon="32.4119134">
<ele>610.93</ele>
<time>2015-04-24T17:55:03Z</time>
</trkpt>
<trkpt lat="34.9378804" lon="32.4118839">
<ele>610.93</ele>
<time>2015-04-24T17:55:04Z</time>
</trkpt>
<trkpt lat="34.9379471" lon="32.4118523">
<ele>611.43</ele>
<time>2015-04-24T17:55:05Z</time>
</trkpt>
<trkpt lat="34.9380186" lon="32.4118193">
<ele>612.18</ele>
<time>2015-04-24T17:55:06Z</time>
</trkpt>
<trkpt lat="34.9380903" lon="32.4117914">
<ele>612.55</ele>
<time>2015-04-24T17:55:07Z</time>
</trkpt>
<trkpt lat="34.9381598" lon="32.4117583">
<ele>612.24</ele>
<time>2015-04-24T17:55:08Z</time>
</trkpt>
<trkpt lat="34.9382347" lon="32.4117336">
<ele>612.58</ele>
<time>2015-04-24T17:55:09Z</time>
</trkpt>
<trkpt lat="34.9383004" lon="32.4116986">
<ele>613.25</ele>
<time>2015-04-24T17:55:10Z</time>
</trkpt>
<trkpt lat="34.9383699" lon="32.4116774">
<ele>613.59</ele>
<time>2015-04-24T17:55:11Z</time>
</trkpt>
<trkpt lat="34.9384439" lon="32.4116526">
<ele>613.26</ele>
<time>2015-04-24T17:55:12Z</time>
</trkpt>
<trkpt lat="34.9385163" lon="32.4116293">
<ele>613.59</ele>
<time>2015-04-24T17:55:13Z</time>
</trkpt>
<trkpt lat="34.9385838" lon="32.4116065">
<ele>613.76</ele>
<time>2015-04-24T17:55:14Z</time>
</trkpt>
<trkpt lat="34.9386487" lon="32.4115853">
<ele>613.84</ele>
<time>2015-04-24T17:55:15Z</time>
</trkpt>
<trkpt lat="34.9387167" lon="32.4115575">
<ele>613.88</ele>
<time>2015-04-24T17:55:16Z</time>
</trkpt>
<trkpt lat="34.9387877" lon="32.4115350">
<ele>613.90</ele>
<time>2015-04-24T17:55:17Z</time>
</trkpt>
<trkpt lat="34.9388572" lon="32.4115036">
<ele>613.91</ele>
<time>2015-04-24T17:55:18Z</time>
</trkpt>
<trkpt lat="34.9389231" lon="32.4114800">
<ele>613.42</ele>
<time>2015-04-24T17:55:19Z</time>
</trkpt>
<trkpt lat="34.9389937" lon="32.4114510">
<ele>613.17</ele>
<time>2015-04-24T17:55:20Z</time>
</trkpt>
<trkpt lat="34.9390678" lon="32.4114257">
<ele>613.55</ele>
<time>2015-04-24T17:55:21Z</time>
</trkpt>
<trkpt lat="34.9391389" lon="32.4114007">
<ele>613.24</ele>
<time>2015-04-24T17:55:22Z</time>
</trkpt>
<trkpt lat="34.9392071" lon="32.4113794">
<ele>613.08</ele>
<time>2015-04-24T17:55:23Z</time>
</trkpt>
<trkpt lat="34.9392850" lon="32.4113522">
<ele>613.00</ele>
<time>2015-04-24T17:55:24Z</time>
</trkpt>
<trkpt lat="34.9393598" lon="32.4113329">
<ele>612.96</ele>
<time>2015-04-24T17:55:25Z</time>
</trkpt>
<trkpt lat="34.9394325" lon="32.4113013">
<ele>612.44</ele>
<time>2015-04-24T17:55:26Z</time>
</trkpt>
<trkpt lat="34.9395046" lon="32.4112716">
<ele>612.18</ele>
<time>2015-04-24T17:55:27Z</time>
</trkpt>
<trkpt lat="34.9395866" lon="32.4112325">
<ele>612.05</ele>
<time>2015-04-24T17:55:28Z</time>
</trkpt>
<trkpt lat="34.9396697" lon="32.4112058">
<ele>611.49</ele>
<time>2015-04-24T17:55:29Z</time>
</trkpt>
<trkpt lat="34.9397526" lon="32.4111783">
<ele>611.21</ele>
<time>2015-04-24T17:55:30Z</time>
</trkpt>
<trkpt lat="34.9398250" lon="32.4111394">
<ele>611.07</ele>
<time>2015-04-24T17:55:31Z</time>
</trkpt>
<trkpt lat="34.9399033" lon="32.4111017">
<ele>610.50</ele>
<time>2015-04-24T17:55:32Z</time>
</trkpt>
<trkpt lat="34.9399908" lon="32.4110714">
<ele>609.71</ele>
<time>2015-04-24T17:55:33Z</time>
</trkpt>
<trkpt lat="34.9400767" lon="32.4110388">
<ele>609.32</ele>
<time>2015-04-24T17:55:34Z</time>
</trkpt>
<trkpt lat="34.9401597" lon="32.4110078">
<ele>608.62</ele>
<time>2015-04-24T17:55:35Z</time>
</trkpt>
<trkpt lat="34.9402411" lon="32.4109633">
<ele>608.27</ele>
<time>2015-04-24T17:55:36Z</time>
</trkpt>
<trkpt lat="34.9403283" lon="32.4109309">
<ele>608.10</ele>
<time>2015-04-24T17:55:37Z</time>
</trkpt>
<trkpt lat="34.9404132" lon="32.4108909">
<ele>607.51</ele>
<time>2015-04-24T17:55:38Z</time>
</trkpt>
<trkpt lat="34.9404985" lon="32.4108536">
<ele>606.72</ele>
<time>2015-04-24T17:55:39Z</time>
</trkpt>
<trkpt lat="34.9405827" lon="32.4108091">
<ele>606.32</ele>
<time>2015-04-24T17:55:40Z</time>
</trkpt>
<trkpt lat="34.9406681" lon="32.4107697">
<ele>606.62</ele>
<time>2015-04-24T17:55:41Z</time>
</trkpt>
<trkpt lat="34.9407542" lon="32.4107273">
<ele>606.27</ele>
<time>2015-04-24T17:55:42Z</time>
</trkpt>
<trkpt lat="34.9408380" lon="32.4106912">
<ele>606.10</ele>
<time>2015-04-24T17:55:43Z</time>
</trkpt>
<trkpt lat="34.9409360" lon="32.4106581">
<ele>606.01</ele>
<time>2015-04-24T17:55:44Z</time>
</trkpt>
<trkpt lat="34.9410259" lon="32.4106290">
<ele>605.47</ele>
<time>2015-04-24T17:55:45Z</time>
</trkpt>
<trkpt lat="34.9411212" lon="32.4105914">
<ele>604.20</ele>
<time>2015-04-24T17:55:46Z</time>
</trkpt>
<trkpt lat="34.9412151" lon="32.4105611">
<ele>603.06</ele>
<time>2015-04-24T17:55:47Z</time>
</trkpt>
<trkpt lat="34.9413121" lon="32.4105366">
<ele>602.99</ele>
<time>2015-04-24T17:55:48Z</time>
</trkpt>
<trkpt lat="34.9414026" lon="32.4105166">
<ele>602.96</ele>
<time>2015-04-24T17:55:49Z</time>
</trkpt>
<trkpt lat="34.9414947" lon="32.4105142">
<ele>602.94</ele>
<time>2015-04-24T17:55:50Z</time>
</trkpt>
<trkpt lat="34.9415877" lon="32.4105127">
<ele>602.43</ele>
<time>2015-04-24T17:55:51Z</time>
</trkpt>
<trkpt lat="34.9416836" lon="32.4105155">
<ele>602.18</ele>
<time>2015-04-24T17:55:52Z</time>
</trkpt>
<trkpt lat="34.9417851" lon="32.4105148">
<ele>602.05</ele>
<time>2015-04-24T17:55:53Z</time>
</trkpt>
<trkpt lat="34.9418806" lon="32.4105293">
<ele>601.99</ele>
<time>2015-04-24T17:55:54Z</time>
</trkpt>
<trkpt lat="34.9419704" lon="32.4105469">
<ele>601.46</ele>
<time>2015-04-24T17:55:55Z</time>
</trkpt>
<trkpt lat="34.9420649" lon="32.4105673">
<ele>600.69</ele>
<time>2015-04-24T17:55:56Z</time>
</trkpt>
<trkpt lat="34.9421521" lon="32.4105972">
<ele>599.81</ele>
<time>2015-04-24T17:55:57Z</time>
</trkpt>
<trkpt lat="34.9422326" lon="32.4106253">
<ele>599.37</ele>
<time>2015-04-24T17:55:58Z</time>
</trkpt>
<trkpt lat="34.9423046" lon="32.4106615">
<ele>599.15</ele>
<time>2015-04-24T17:55:59Z</time>
</trkpt>
<trkpt lat="34.9423852" lon="32.4106956">
<ele>599.04</ele>
<time>2015-04-24T17:56:00Z</time>
</trkpt>
<trkpt lat="34.9424591" lon="32.4107426">
<ele>599.48</ele>
<time>2015-04-24T17:56:01Z</time>
</trkpt>
<trkpt lat="34.9425355" lon="32.4107907">
<ele>599.20</ele>
<time>2015-04-24T17:56:02Z</time>
</trkpt>
<trkpt lat="34.9426178" lon="32.4108457">
<ele>599.56</ele>
<time>2015-04-24T17:56:03Z</time>
</trkpt>
<trkpt lat="34.9426948" lon="32.4109114">
<ele>599.74</ele>
<time>2015-04-24T17:56:04Z</time>
</trkpt>
<trkpt lat="34.9427711" lon="32.4109764">
<ele>599.33</ele>
<time>2015-04-24T17:56:05Z</time>
</trkpt>
<trkpt lat="34.9428465" lon="32.4110458">
<ele>599.63</ele>
<time>2015-04-24T17:56:06Z</time>
</trkpt>
<trkpt lat="34.9429162" lon="32.4111063">
<ele>599.78</ele>
<time>2015-04-24T17:56:07Z</time>
</trkpt>
<trkpt lat="34.9429790" lon="32.4111711">
<ele>599.35</ele>
<time>2015-04-24T17:56:08Z</time>
</trkpt>
<trkpt lat="34.9430478" lon="32.4112423">
<ele>598.64</ele>
<time>2015-04-24T17:56:09Z</time>
</trkpt>
<trkpt lat="34.9431218" lon="32.4113061">
<ele>597.78</ele>
<time>2015-04-24T17:56:10Z</time>
</trkpt>
<trkpt lat="34.9431905" lon="32.4113756">
<ele>597.35</ele>
<time>2015-04-24T17:56:11Z</time>
</trkpt>
<trkpt lat="34.9432688" lon="32.4114486">
<ele>597.14</ele>
<time>2015-04-24T17:56:12Z</time>
</trkpt>
<trkpt lat="34.9433395" lon="32.4115050">
<ele>597.03</ele>
<time>2015-04-24T17:56:13Z</time>
</trkpt>
<trkpt lat="34.9434112" lon="32.4115706">
<ele>596.48</ele>
<time>2015-04-24T17:56:14Z</time>
</trkpt>
<trkpt lat="34.9434777" lon="32.4116316">
<ele>596.20</ele>
<time>2015-04-24T17:56:15Z</time>
</trkpt>
<trkpt lat="34.9435525" lon="32.4117001">
<ele>596.06</ele>
<time>2015-04-24T17:56:16Z</time>
</trkpt>
<trkpt lat="34.9436198" lon="32.4117644">
<ele>595.99</ele>
<time>2015-04-24T17:56:17Z</time>
</trkpt>
<trkpt lat="34.9436797" lon="32.4118198">
<ele>596.46</ele>
<time>2015-04-24T17:56:18Z</time>
</trkpt>
<trkpt lat="34.9437539" lon="32.4118816">
<ele>596.69</ele>
<time>2015-04-24T17:56:19Z</time>
</trkpt>
<trkpt lat="34.9438378" lon="32.4119309">
<ele>596.81</ele>
<time>2015-04-24T17:56:20Z</time>
</trkpt>
<trkpt lat="34.9438975" lon="32.4119594">
<ele>596.37</ele>
<time>2015-04-24T17:56:21Z</time>
</trkpt>
<trkpt lat="34.9439624" lon="32.4119949">
<ele>596.65</ele>
<time>2015-04-24T17:56:22Z</time>
</trkpt>
<trkpt lat="34.9440455" lon="32.4120507">
<ele>596.79</ele>
<time>2015-04-24T17:56:23Z</time>
</trkpt>
<trkpt lat="34.9441134" lon="32.4120862">
<ele>597.36</ele>
<time>2015-04-24T17:56:24Z</time>
</trkpt>
<trkpt lat="34.9441898" lon="32.4121205">
<ele>597.14</ele>
<time>2015-04-24T17:56:25Z</time>
</trkpt>
<trkpt lat="34.9442650" lon="32.4121556">
<ele>597.03</ele>
<time>2015-04-24T17:56:26Z</time>
</trkpt>
<trkpt lat="34.9443490" lon="32.4121832">
<ele>596.98</ele>
<time>2015-04-24T17:56:27Z</time>
</trkpt>
<trkpt lat="34.9444398" lon="32.4122103">
<ele>597.45</ele>
<time>2015-04-24T17:56:28Z</time>
</trkpt>
<trkpt lat="34.9445316" lon="32.4122373">
<ele>597.19</ele>
<time>2015-04-24T17:56:29Z</time>
</trkpt>
<trkpt lat="34.9446275" lon="32.4122526">
<ele>597.56</ele>
<time>2015-04-24T17:56:30Z</time>
</trkpt>
<trkpt lat="34.9446974" lon="32.4122620">
<ele>597.74</ele>
<time>2015-04-24T17:56:31Z</time>
</trkpt>
<trkpt lat="34.9447708" lon="32.4122653">
<ele>597.83</ele>
<time>2015-04-24T17:56:32Z</time>
</trkpt>
<trkpt lat="34.9448446" lon="32.4122668">
<ele>597.88</ele>
<time>2015-04-24T17:56:33Z</time>
</trkpt>
<trkpt lat="34.9449027" lon="32.4122678">
<ele>597.90</ele>
<time>2015-04-24T17:56:34Z</time>
</trkpt>
<trkpt lat="34.9449638" lon="32.4122680">
<ele>597.91</ele>
<time>2015-04-24T17:56:35Z</time>
</trkpt>
<trkpt lat="34.9450298" lon="32.4122704">
<ele>597.92</ele>
<time>2015-04-24T17:56:36Z</time>
</trkpt>
<trkpt lat="34.9450952" lon="32.4122791">
<ele>596.92</ele>
<time>2015-04-24T17:56:37Z</time>
</trkpt>
<trkpt lat="34.9451544" lon="32.4122674">
<ele>596.92</ele>
<time>2015-04-24T17:56:38Z</time>
</trkpt>
<trkpt lat="34.9452084" lon="32.4122695">
<ele>596.92</ele>
<time>2015-04-24T17:56:39Z</time>
</trkpt>
<trkpt lat="34.9452553" lon="32.4122687">
<ele>597.42</ele>
<time>2015-04-24T17:56:40Z</time>
</trkpt>
<trkpt lat="34.9453024" lon="32.4122640">
<ele>597.67</ele>
<time>2015-04-24T17:56:41Z</time>
</trkpt>
<trkpt lat="34.9453469" lon="32.4122507">
<ele>597.80</ele>
<time>2015-04-24T17:56:42Z</time>
</trkpt>
<trkpt lat="34.9454281" lon="32.4122198">
<ele>597.89</ele>
<time>2015-04-24T17:56:44Z</time>
</trkpt>
<trkpt lat="34.9454757" lon="32.4122098">
<ele>597.91</ele>
<time>2015-04-24T17:56:45Z</time>
</trkpt>
<trkpt lat="34.9455282" lon="32.4121922">
<ele>598.42</ele>
<time>2015-04-24T17:56:46Z</time>
</trkpt>
<trkpt lat="34.9455703" lon="32.4121655">
<ele>599.17</ele>
<time>2015-04-24T17:56:47Z</time>
</trkpt>
<trkpt lat="34.9456188" lon="32.4121544">
<ele>599.55</ele>
<time>2015-04-24T17:56:48Z</time>
</trkpt>
<trkpt lat="34.9456940" lon="32.4121263">
<ele>599.83</ele>
<time>2015-04-24T17:56:50Z</time>
</trkpt>
<trkpt lat="34.9457708" lon="32.4120991">
<ele>599.90</ele>
<time>2015-04-24T17:56:52Z</time>
</trkpt>
<trkpt lat="34.9458555" lon="32.4120678">
<ele>600.42</ele>
<time>2015-04-24T17:56:54Z</time>
</trkpt>
<trkpt lat="34.9459329" lon="32.4120263">
<ele>601.05</ele>
<time>2015-04-24T17:56:56Z</time>
</trkpt>
<trkpt lat="34.9459803" lon="32.4120107">
<ele>601.49</ele>
<time>2015-04-24T17:56:57Z</time>
</trkpt>
<trkpt lat="34.9460249" lon="32.4119968">
<ele>601.71</ele>
<time>2015-04-24T17:56:58Z</time>
</trkpt>
<trkpt lat="34.9460741" lon="32.4119780">
<ele>601.82</ele>
<time>2015-04-24T17:56:59Z</time>
</trkpt>
<trkpt lat="34.9461243" lon="32.4119663">
<ele>602.37</ele>
<time>2015-04-24T17:57:00Z</time>
</trkpt>
<trkpt lat="34.9461946" lon="32.4119432">
<ele>602.04</ele>
<time>2015-04-24T17:57:02Z</time>
</trkpt>
<trkpt lat="34.9462583" lon="32.4119178">
<ele>602.70</ele>
<time>2015-04-24T17:57:04Z</time>
</trkpt>
<trkpt lat="34.9463415" lon="32.4118927">
<ele>602.12</ele>
<time>2015-04-24T17:57:06Z</time>
</trkpt>
<trkpt lat="34.9464258" lon="32.4118684">
<ele>601.97</ele>
<time>2015-04-24T17:57:08Z</time>
</trkpt>
<trkpt lat="34.9465018" lon="32.4118448">
<ele>602.69</ele>
<time>2015-04-24T17:57:10Z</time>
</trkpt>
<trkpt lat="34.9465786" lon="32.4118155">
<ele>603.37</ele>
<time>2015-04-24T17:57:12Z</time>
</trkpt>
<trkpt lat="34.9466607" lon="32.4117925">
<ele>603.04</ele>
<time>2015-04-24T17:57:14Z</time>
</trkpt>
<trkpt lat="34.9467402" lon="32.4117759">
<ele>602.45</ele>
<time>2015-04-24T17:57:16Z</time>
</trkpt>
<trkpt lat="34.9468195" lon="32.4117563">
<ele>600.81</ele>
<time>2015-04-24T17:57:18Z</time>
</trkpt>
<trkpt lat="34.9469018" lon="32.4117405">
<ele>600.15</ele>
<time>2015-04-24T17:57:20Z</time>
</trkpt>
<trkpt lat="34.9469818" lon="32.4117288">
<ele>600.48</ele>
<time>2015-04-24T17:57:22Z</time>
</trkpt>
<trkpt lat="34.9470644" lon="32.4117249">
<ele>601.31</ele>
<time>2015-04-24T17:57:24Z</time>
</trkpt>
<trkpt lat="34.9471452" lon="32.4117236">
<ele>601.77</ele>
<time>2015-04-24T17:57:26Z</time>
</trkpt>
<trkpt lat="34.9472265" lon="32.4117254">
<ele>602.64</ele>
<time>2015-04-24T17:57:28Z</time>
</trkpt>
<trkpt lat="34.9473068" lon="32.4117287">
<ele>602.35</ele>
<time>2015-04-24T17:57:30Z</time>
</trkpt>
<trkpt lat="34.9473837" lon="32.4117296">
<ele>602.53</ele>
<time>2015-04-24T17:57:32Z</time>
</trkpt>
<trkpt lat="34.9474617" lon="32.4117260">
<ele>603.58</ele>
<time>2015-04-24T17:57:34Z</time>
</trkpt>
<trkpt lat="34.9475423" lon="32.4117219">
<ele>604.59</ele>
<time>2015-04-24T17:57:36Z</time>
</trkpt>
<trkpt lat="34.9476257" lon="32.4117208">
<ele>605.59</ele>
<time>2015-04-24T17:57:38Z</time>
</trkpt>
<trkpt lat="34.9477072" lon="32.4117203">
<ele>605.34</ele>
<time>2015-04-24T17:57:40Z</time>
</trkpt>
<trkpt lat="34.9477887" lon="32.4117038">
<ele>605.78</ele>
<time>2015-04-24T17:57:42Z</time>
</trkpt>
<trkpt lat="34.9478717" lon="32.4116875">
<ele>606.39</ele>
<time>2015-04-24T17:57:44Z</time>
</trkpt>
<trkpt lat="34.9479582" lon="32.4116710">
<ele>606.79</ele>
<time>2015-04-24T17:57:46Z</time>
</trkpt>
<trkpt lat="34.9480417" lon="32.4116467">
<ele>607.64</ele>
<time>2015-04-24T17:57:48Z</time>
</trkpt>
<trkpt lat="34.9481236" lon="32.4116160">
<ele>607.60</ele>
<time>2015-04-24T17:57:50Z</time>
</trkpt>
<trkpt lat="34.9482061" lon="32.4115767">
<ele>607.09</ele>
<time>2015-04-24T17:57:52Z</time>
</trkpt>
<trkpt lat="34.9482533" lon="32.4115466">
<ele>607.01</ele>
<time>2015-04-24T17:57:53Z</time>
</trkpt>
<trkpt lat="34.9483336" lon="32.4114924">
<ele>606.95</ele>
<time>2015-04-24T17:57:55Z</time>
</trkpt>
<trkpt lat="34.9484168" lon="32.4114262">
<ele>606.43</ele>
<time>2015-04-24T17:57:57Z</time>
</trkpt>
<trkpt lat="34.9484585" lon="32.4113950">
<ele>605.68</ele>
<time>2015-04-24T17:57:58Z</time>
</trkpt>
<trkpt lat="34.9484885" lon="32.4113476">
<ele>605.80</ele>
<time>2015-04-24T17:57:59Z</time>
</trkpt>
<trkpt lat="34.9485308" lon="32.4112981">
<ele>605.86</ele>
<time>2015-04-24T17:58:00Z</time>
</trkpt>
<trkpt lat="34.9485779" lon="32.4112582">
<ele>605.39</ele>
<time>2015-04-24T17:58:01Z</time>
</trkpt>
<trkpt lat="34.9486240" lon="32.4112158">
<ele>605.16</ele>
<time>2015-04-24T17:58:02Z</time>
</trkpt>
<trkpt lat="34.9486716" lon="32.4111698">
<ele>605.04</ele>
<time>2015-04-24T17:58:03Z</time>
</trkpt>
<trkpt lat="34.9487199" lon="32.4111209">
<ele>604.98</ele>
<time>2015-04-24T17:58:04Z</time>
</trkpt>
<trkpt lat="34.9487664" lon="32.4110637">
<ele>604.45</ele>
<time>2015-04-24T17:58:05Z</time>
</trkpt>
<trkpt lat="34.9488060" lon="32.4110003">
<ele>603.69</ele>
<time>2015-04-24T17:58:06Z</time>
</trkpt>
<trkpt lat="34.9488582" lon="32.4109500">
<ele>603.31</ele>
<time>2015-04-24T17:58:07Z</time>
</trkpt>
<trkpt lat="34.9489174" lon="32.4108960">
<ele>602.12</ele>
<time>2015-04-24T17:58:08Z</time>
</trkpt>
<trkpt lat="34.9489827" lon="32.4108422">
<ele>601.52</ele>
<time>2015-04-24T17:58:09Z</time>
</trkpt>
<trkpt lat="34.9490482" lon="32.4107923">
<ele>600.72</ele>
<time>2015-04-24T17:58:10Z</time>
</trkpt>
<trkpt lat="34.9491110" lon="32.4107547">
<ele>599.82</ele>
<time>2015-04-24T17:58:11Z</time>
</trkpt>
<trkpt lat="34.9491828" lon="32.4107227">
<ele>599.87</ele>
<time>2015-04-24T17:58:12Z</time>
</trkpt>
<trkpt lat="34.9492584" lon="32.4107060">
<ele>599.40</ele>
<time>2015-04-24T17:58:13Z</time>
</trkpt>
<trkpt lat="34.9493303" lon="32.4106827">
<ele>599.66</ele>
<time>2015-04-24T17:58:14Z</time>
</trkpt>
<trkpt lat="34.9494048" lon="32.4106742">
<ele>599.29</ele>
<time>2015-04-24T17:58:15Z</time>
</trkpt>
<trkpt lat="34.9494939" lon="32.4106577">
<ele>599.11</ele>
<time>2015-04-24T17:58:16Z</time>
</trkpt>
<trkpt lat="34.9495824" lon="32.4106487">
<ele>598.02</ele>
<time>2015-04-24T17:58:17Z</time>
</trkpt>
<trkpt lat="34.9496571" lon="32.4106481">
<ele>597.97</ele>
<time>2015-04-24T17:58:18Z</time>
</trkpt>
<trkpt lat="34.9497379" lon="32.4106491">
<ele>598.45</ele>
<time>2015-04-24T17:58:19Z</time>
</trkpt>
<trkpt lat="34.9498162" lon="32.4106354">
<ele>598.69</ele>
<time>2015-04-24T17:58:20Z</time>
</trkpt>
<trkpt lat="34.9499053" lon="32.4106379">
<ele>598.81</ele>
<time>2015-04-24T17:58:21Z</time>
</trkpt>
<trkpt lat="34.9499907" lon="32.4106368">
<ele>598.87</ele>
<time>2015-04-24T17:58:22Z</time>
</trkpt>
<trkpt lat="34.9500785" lon="32.4106369">
<ele>598.90</ele>
<time>2015-04-24T17:58:23Z</time>
</trkpt>
<trkpt lat="34.9501720" lon="32.4106443">
<ele>598.41</ele>
<time>2015-04-24T17:58:24Z</time>
</trkpt>
<trkpt lat="34.9502646" lon="32.4106387">
<ele>598.17</ele>
<time>2015-04-24T17:58:25Z</time>
</trkpt>
<trkpt lat="34.9503498" lon="32.4106429">
<ele>598.05</ele>
<time>2015-04-24T17:58:26Z</time>
</trkpt>
<trkpt lat="34.9504312" lon="32.4106470">
<ele>597.49</ele>
<time>2015-04-24T17:58:27Z</time>
</trkpt>
<trkpt lat="34.9505250" lon="32.4106407">
<ele>597.21</ele>
<time>2015-04-24T17:58:28Z</time>
</trkpt>
<trkpt lat="34.9506090" lon="32.4106462">
<ele>597.07</ele>
<time>2015-04-24T17:58:29Z</time>
</trkpt>
<trkpt lat="34.9506830" lon="32.4106310">
<ele>597.50</ele>
<time>2015-04-24T17:58:30Z</time>
</trkpt>
<trkpt lat="34.9507563" lon="32.4106184">
<ele>598.21</ele>
<time>2015-04-24T17:58:31Z</time>
</trkpt>
<trkpt lat="34.9508330" lon="32.4106138">
<ele>598.57</ele>
<time>2015-04-24T17:58:32Z</time>
</trkpt>
<trkpt lat="34.9509024" lon="32.4106152">
<ele>598.75</ele>
<time>2015-04-24T17:58:33Z</time>
</trkpt>
<trkpt lat="34.9509693" lon="32.4106101">
<ele>598.34</ele>
<time>2015-04-24T17:58:34Z</time>
</trkpt>
<trkpt lat="34.9510286" lon="32.4106098">
<ele>597.63</ele>
<time>2015-04-24T17:58:35Z</time>
</trkpt>
<trkpt lat="34.9510847" lon="32.4106112">
<ele>597.28</ele>
<time>2015-04-24T17:58:36Z</time>
</trkpt>
<trkpt lat="34.9511507" lon="32.4106123">
<ele>597.10</ele>
<time>2015-04-24T17:58:37Z</time>
</trkpt>
<trkpt lat="34.9512126" lon="32.4106144">
<ele>597.01</ele>
<time>2015-04-24T17:58:38Z</time>
</trkpt>
<trkpt lat="34.9512661" lon="32.4106010">
<ele>597.47</ele>
<time>2015-04-24T17:58:39Z</time>
</trkpt>
<trkpt lat="34.9513294" lon="32.4106064">
<ele>597.20</ele>
<time>2015-04-24T17:58:40Z</time>
</trkpt>
<trkpt lat="34.9513908" lon="32.4106008">
<ele>597.06</ele>
<time>2015-04-24T17:58:41Z</time>
</trkpt>
<trkpt lat="34.9514549" lon="32.4105902">
<ele>596.49</ele>
<time>2015-04-24T17:58:42Z</time>
</trkpt>
<trkpt lat="34.9515094" lon="32.4105768">
<ele>596.71</ele>
<time>2015-04-24T17:58:43Z</time>
</trkpt>
<trkpt lat="34.9515692" lon="32.4105683">
<ele>596.82</ele>
<time>2015-04-24T17:58:44Z</time>
</trkpt>
<trkpt lat="34.9516228" lon="32.4105600">
<ele>597.37</ele>
<time>2015-04-24T17:58:45Z</time>
</trkpt>
<trkpt lat="34.9516773" lon="32.4105516">
<ele>597.65</ele>
<time>2015-04-24T17:58:46Z</time>
</trkpt>
<trkpt lat="34.9517277" lon="32.4105439">
<ele>597.79</ele>
<time>2015-04-24T17:58:47Z</time>
</trkpt>
<trkpt lat="34.9517902" lon="32.4105420">
<ele>597.86</ele>
<time>2015-04-24T17:58:48Z</time>
</trkpt>
<trkpt lat="34.9518540" lon="32.4105351">
<ele>597.39</ele>
<time>2015-04-24T17:58:49Z</time>
</trkpt>
<trkpt lat="34.9519160" lon="32.4105275">
<ele>597.16</ele>
<time>2015-04-24T17:58:50Z</time>
</trkpt>
<trkpt lat="34.9519708" lon="32.4105142">
<ele>597.54</ele>
<time>2015-04-24T17:58:51Z</time>
</trkpt>
<trkpt lat="34.9520272" lon="32.4104987">
<ele>598.23</ele>
<time>2015-04-24T17:58:52Z</time>
</trkpt>
<trkpt lat="34.9520900" lon="32.4105043">
<ele>598.08</ele>
<time>2015-04-24T17:58:53Z</time>
</trkpt>
<trkpt lat="34.9521528" lon="32.4105014">
<ele>598.00</ele>
<time>2015-04-24T17:58:54Z</time>
</trkpt>
<trkpt lat="34.9522094" lon="32.4105068">
<ele>597.96</ele>
<time>2015-04-24T17:58:55Z</time>
</trkpt>
<trkpt lat="34.9522784" lon="32.4105089">
<ele>597.44</ele>
<time>2015-04-24T17:58:56Z</time>
</trkpt>
<trkpt lat="34.9523431" lon="32.4105078">
<ele>597.68</ele>
<time>2015-04-24T17:58:57Z</time>
</trkpt>
<trkpt lat="34.9524118" lon="32.4105140">
<ele>597.80</ele>
<time>2015-04-24T17:58:58Z</time>
</trkpt>
<trkpt lat="34.9524811" lon="32.4105124">
<ele>597.86</ele>
<time>2015-04-24T17:58:59Z</time>
</trkpt>
<trkpt lat="34.9525484" lon="32.4105224">
<ele>597.39</ele>
<time>2015-04-24T17:59:00Z</time>
</trkpt>
<trkpt lat="34.9526157" lon="32.4105290">
<ele>597.66</ele>
<time>2015-04-24T17:59:01Z</time>
</trkpt>
<trkpt lat="34.9526806" lon="32.4105388">
<ele>598.29</ele>
<time>2015-04-24T17:59:02Z</time>
</trkpt>
<trkpt lat="34.9527536" lon="32.4105479">
<ele>598.61</ele>
<time>2015-04-24T17:59:03Z</time>
</trkpt>
<trkpt lat="34.9528305" lon="32.4105653">
<ele>598.27</ele>
<time>2015-04-24T17:59:04Z</time>
</trkpt>
<trkpt lat="34.9529034" lon="32.4105822">
<ele>597.60</ele>
<time>2015-04-24T17:59:05Z</time>
</trkpt>
<trkpt lat="34.9530414" lon="32.4105936">
<ele>597.34</ele>
<time>2015-04-24T17:59:07Z</time>
</trkpt>
<trkpt lat="34.9531122" lon="32.4106128">
<ele>597.13</ele>
<time>2015-04-24T17:59:08Z</time>
</trkpt>
<trkpt lat="34.9531897" lon="32.4106273">
<ele>597.03</ele>
<time>2015-04-24T17:59:09Z</time>
</trkpt>
<trkpt lat="34.9532658" lon="32.4106419">
<ele>596.98</ele>
<time>2015-04-24T17:59:10Z</time>
</trkpt>
<trkpt lat="34.9533298" lon="32.4106454">
<ele>596.45</ele>
<time>2015-04-24T17:59:11Z</time>
</trkpt>
<trkpt lat="34.9534055" lon="32.4106578">
<ele>596.19</ele>
<time>2015-04-24T17:59:12Z</time>
</trkpt>
<trkpt lat="34.9534861" lon="32.4106662">
<ele>596.06</ele>
<time>2015-04-24T17:59:13Z</time>
</trkpt>
<trkpt lat="34.9535602" lon="32.4106764">
<ele>595.99</ele>
<time>2015-04-24T17:59:14Z</time>
</trkpt>
<trkpt lat="34.9536361" lon="32.4106973">
<ele>595.96</ele>
<time>2015-04-24T17:59:15Z</time>
</trkpt>
<trkpt lat="34.9537150" lon="32.4107174">
<ele>595.94</ele>
<time>2015-04-24T17:59:16Z</time>
</trkpt>
<trkpt lat="34.9538001" lon="32.4107329">
<ele>595.43</ele>
<time>2015-04-24T17:59:17Z</time>
</trkpt>
<trkpt lat="34.9538824" lon="32.4107541">
<ele>595.18</ele>
<time>2015-04-24T17:59:18Z</time>
</trkpt>
<trkpt lat="34.9539564" lon="32.4107722">
<ele>594.55</ele>
<time>2015-04-24T17:59:19Z</time>
</trkpt>
<trkpt lat="34.9540396" lon="32.4107906">
<ele>593.74</ele>
<time>2015-04-24T17:59:20Z</time>
</trkpt>
<trkpt lat="34.9541283" lon="32.4108000">
<ele>592.83</ele>
<time>2015-04-24T17:59:21Z</time>
</trkpt>
<trkpt lat="34.9542104" lon="32.4108208">
<ele>592.38</ele>
<time>2015-04-24T17:59:22Z</time>
</trkpt>
<trkpt lat="34.9542979" lon="32.4108389">
<ele>591.15</ele>
<time>2015-04-24T17:59:23Z</time>
</trkpt>
<trkpt lat="34.9543828" lon="32.4108558">
<ele>590.04</ele>
<time>2015-04-24T17:59:24Z</time>
</trkpt>
<trkpt lat="34.9544664" lon="32.4108599">
<ele>589.98</ele>
<time>2015-04-24T17:59:25Z</time>
</trkpt>
<trkpt lat="34.9545485" lon="32.4108898">
<ele>589.45</ele>
<time>2015-04-24T17:59:26Z</time>
</trkpt>
<trkpt lat="34.9546266" lon="32.4109151">
<ele>589.19</ele>
<time>2015-04-24T17:59:27Z</time>
</trkpt>
<trkpt lat="34.9547004" lon="32.4109543">
<ele>588.56</ele>
<time>2015-04-24T17:59:28Z</time>
</trkpt>
<trkpt lat="34.9547753" lon="32.4109895">
<ele>588.24</ele>
<time>2015-04-24T17:59:29Z</time>
</trkpt>
<trkpt lat="34.9548386" lon="32.4110241">
<ele>588.08</ele>
<time>2015-04-24T17:59:30Z</time>
</trkpt>
<trkpt lat="34.9549130" lon="32.4110754">
<ele>587.50</ele>
<time>2015-04-24T17:59:31Z</time>
</trkpt>
<trkpt lat="34.9549907" lon="32.4111343">
<ele>587.21</ele>
<time>2015-04-24T17:59:32Z</time>
</trkpt>
<trkpt lat="34.9550743" lon="32.4111919">
<ele>587.07</ele>
<time>2015-04-24T17:59:33Z</time>
</trkpt>
<trkpt lat="34.9551527" lon="32.4112533">
<ele>586.50</ele>
<time>2015-04-24T17:59:34Z</time>
</trkpt>
<trkpt lat="34.9552361" lon="32.4113132">
<ele>585.71</ele>
<time>2015-04-24T17:59:35Z</time>
</trkpt>
<trkpt lat="34.9553132" lon="32.4113696">
<ele>584.82</ele>
<time>2015-04-24T17:59:36Z</time>
</trkpt>
<trkpt lat="34.9554019" lon="32.4114341">
<ele>583.87</ele>
<time>2015-04-24T17:59:37Z</time>
</trkpt>
<trkpt lat="34.9554890" lon="32.4114868">
<ele>582.40</ele>
<time>2015-04-24T17:59:38Z</time>
</trkpt>
<trkpt lat="34.9555887" lon="32.4115489">
<ele>581.16</ele>
<time>2015-04-24T17:59:39Z</time>
</trkpt>
<trkpt lat="34.9556757" lon="32.4115928">
<ele>580.04</ele>
<time>2015-04-24T17:59:40Z</time>
</trkpt>
<trkpt lat="34.9557429" lon="32.4116218">
<ele>579.98</ele>
<time>2015-04-24T17:59:41Z</time>
</trkpt>
<trkpt lat="34.9558250" lon="32.4116593">
<ele>579.95</ele>
<time>2015-04-24T17:59:42Z</time>
</trkpt>
<trkpt lat="34.9559160" lon="32.4116929">
<ele>579.94</ele>
<time>2015-04-24T17:59:43Z</time>
</trkpt>
<trkpt lat="34.9560103" lon="32.4117290">
<ele>579.43</ele>
<time>2015-04-24T17:59:44Z</time>
</trkpt>
<trkpt lat="34.9561115" lon="32.4117562">
<ele>579.18</ele>
<time>2015-04-24T17:59:45Z</time>
</trkpt>
<trkpt lat="34.9562072" lon="32.4117861">
<ele>579.05</ele>
<time>2015-04-24T17:59:46Z</time>
</trkpt>
<trkpt lat="34.9563043" lon="32.4118120">
<ele>578.99</ele>
<time>2015-04-24T17:59:47Z</time>
</trkpt>
<trkpt lat="34.9564079" lon="32.4118309">
<ele>578.96</ele>
<time>2015-04-24T17:59:48Z</time>
</trkpt>
<trkpt lat="34.9565110" lon="32.4118547">
<ele>578.94</ele>
<time>2015-04-24T17:59:49Z</time>
</trkpt>
<trkpt lat="34.9566070" lon="32.4118724">
<ele>578.43</ele>
<time>2015-04-24T17:59:50Z</time>
</trkpt>
<trkpt lat="34.9566984" lon="32.4118904">
<ele>577.68</ele>
<time>2015-04-24T17:59:51Z</time>
</trkpt>
<trkpt lat="34.9567976" lon="32.4119047">
<ele>577.30</ele>
<time>2015-04-24T17:59:52Z</time>
</trkpt>
<trkpt lat="34.9569006" lon="32.4119191">
<ele>576.61</ele>
<time>2015-04-24T17:59:53Z</time>
</trkpt>
<trkpt lat="34.9570029" lon="32.4119319">
<ele>575.77</ele>
<time>2015-04-24T17:59:54Z</time>
</trkpt>
<trkpt lat="34.9570986" lon="32.4119504">
<ele>575.85</ele>
<time>2015-04-24T17:59:55Z</time>
</trkpt>
<trkpt lat="34.9572001" lon="32.4119671">
<ele>575.89</ele>
<time>2015-04-24T17:59:56Z</time>
</trkpt>
<trkpt lat="34.9572974" lon="32.4119878">
<ele>575.91</ele>
<time>2015-04-24T17:59:57Z</time>
</trkpt>
<trkpt lat="34.9573880" lon="32.4120156">
<ele>575.92</ele>
<time>2015-04-24T17:59:58Z</time>
</trkpt>
<trkpt lat="34.9574900" lon="32.4120387">
<ele>576.42</ele>
<time>2015-04-24T17:59:59Z</time>
</trkpt>
<trkpt lat="34.9575905" lon="32.4120655">
<ele>576.67</ele>
<time>2015-04-24T18:00:00Z</time>
</trkpt>
<trkpt lat="34.9576800" lon="32.4120922">
<ele>576.30</ele>
<time>2015-04-24T18:00:01Z</time>
</trkpt>
<trkpt lat="34.9577628" lon="32.4121166">
<ele>576.61</ele>
<time>2015-04-24T18:00:02Z</time>
</trkpt>
<trkpt lat="34.9578274" lon="32.4121363">
<ele>576.27</ele>
<time>2015-04-24T18:00:03Z</time>
</trkpt>
<trkpt lat="34.9578961" lon="32.4121634">
<ele>576.10</ele>
<time>2015-04-24T18:00:04Z</time>
</trkpt>
<trkpt lat="34.9579483" lon="32.4121952">
<ele>576.01</ele>
<time>2015-04-24T18:00:05Z</time>
</trkpt>
<trkpt lat="34.9580050" lon="32.4122167">
<ele>575.47</ele>
<time>2015-04-24T18:00:06Z</time>
</trkpt>
<trkpt lat="34.9580579" lon="32.4122340">
<ele>575.20</ele>
<time>2015-04-24T18:00:07Z</time>
</trkpt>
<trkpt lat="34.9581056" lon="32.4122604">
<ele>575.06</ele>
<time>2015-04-24T18:00:08Z</time>
</trkpt>
<trkpt lat="34.9581501" lon="32.4122889">
<ele>574.99</ele>
<time>2015-04-24T18:00:09Z</time>
</trkpt>
<trkpt lat="34.9581939" lon="32.4123144">
<ele>574.46</ele>
<time>2015-04-24T18:00:10Z</time>
</trkpt>
<trkpt lat="34.9582361" lon="32.4123387">
<ele>574.19</ele>
<time>2015-04-24T18:00:11Z</time>
</trkpt>
<trkpt lat="34.9582816" lon="32.4123715">
<ele>574.06</ele>
<time>2015-04-24T18:00:12Z</time>
</trkpt>
<trkpt lat="34.9583408" lon="32.4124153">
<ele>572.99</ele>
<time>2015-04-24T18:00:13Z</time>
</trkpt>
<trkpt lat="34.9583849" lon="32.4124357">
<ele>572.46</ele>
<time>2015-04-24T18:00:14Z</time>
</trkpt>
<trkpt lat="34.9584467" lon="32.4124615">
<ele>571.31</ele>
<time>2015-04-24T18:00:16Z</time>
</trkpt>
<trkpt lat="34.9585113" lon="32.4124976">
<ele>571.27</ele>
<time>2015-04-24T18:00:18Z</time>
</trkpt>
<trkpt lat="34.9585859" lon="32.4125398">
<ele>571.01</ele>
<time>2015-04-24T18:00:20Z</time>
</trkpt>
<trkpt lat="34.9586346" lon="32.4125790">
<ele>570.45</ele>
<time>2015-04-24T18:00:22Z</time>
</trkpt>
<trkpt lat="34.9586908" lon="32.4126128">
<ele>569.56</ele>
<time>2015-04-24T18:00:24Z</time>
</trkpt>
<trkpt lat="34.9587388" lon="32.4126337">
<ele>569.83</ele>
<time>2015-04-24T18:00:26Z</time>
</trkpt>
<trkpt lat="34.9587829" lon="32.4126606">
<ele>569.90</ele>
<time>2015-04-24T18:00:28Z</time>
</trkpt>
<trkpt lat="34.9588240" lon="32.4126894">
<ele>569.92</ele>
<time>2015-04-24T18:00:30Z</time>
</trkpt>
<trkpt lat="34.9588811" lon="32.4127262">
<ele>569.92</ele>
<time>2015-04-24T18:00:33Z</time>
</trkpt>
<trkpt lat="34.9589272" lon="32.4127665">
<ele>568.30</ele>
<time>2015-04-24T18:00:36Z</time>
</trkpt>
<trkpt lat="34.9589792" lon="32.4128049">
<ele>567.10</ele>
<time>2015-04-24T18:00:39Z</time>
</trkpt>
<trkpt lat="34.9590331" lon="32.4128272">
<ele>565.72</ele>
<time>2015-04-24T18:00:41Z</time>
</trkpt>
<trkpt lat="34.9591093" lon="32.4128675">
<ele>564.62</ele>
<time>2015-04-24T18:00:43Z</time>
</trkpt>
<trkpt lat="34.9591749" lon="32.4129110">
<ele>564.27</ele>
<time>2015-04-24T18:00:44Z</time>
</trkpt>
<trkpt lat="34.9592336" lon="32.4129498">
<ele>564.10</ele>
<time>2015-04-24T18:00:45Z</time>
</trkpt>
<trkpt lat="34.9592840" lon="32.4129782">
<ele>564.51</ele>
<time>2015-04-24T18:00:46Z</time>
</trkpt>
<trkpt lat="34.9593390" lon="32.4130112">
<ele>564.72</ele>
<time>2015-04-24T18:00:47Z</time>
</trkpt>
<trkpt lat="34.9594006" lon="32.4130505">
<ele>564.32</ele>
<time>2015-04-24T18:00:48Z</time>
</trkpt>
<trkpt lat="34.9594498" lon="32.4130825">
<ele>563.62</ele>
<time>2015-04-24T18:00:49Z</time>
</trkpt>
<trkpt lat="34.9595120" lon="32.4131261">
<ele>563.27</ele>
<time>2015-04-24T18:00:50Z</time>
</trkpt>
<trkpt lat="34.9595865" lon="32.4131728">
<ele>563.10</ele>
<time>2015-04-24T18:00:51Z</time>
</trkpt>
<trkpt lat="34.9596625" lon="32.4132229">
<ele>562.51</ele>
<time>2015-04-24T18:00:52Z</time>
</trkpt>
<trkpt lat="34.9597294" lon="32.4132714">
<ele>562.22</ele>
<time>2015-04-24T18:00:53Z</time>
</trkpt>
<trkpt lat="34.9598120" lon="32.4133268">
<ele>561.57</ele>
<time>2015-04-24T18:00:54Z</time>
</trkpt>
<trkpt lat="34.9598922" lon="32.4133745">
<ele>561.25</ele>
<time>2015-04-24T18:00:55Z</time>
</trkpt>
<trkpt lat="34.9599802" lon="32.4134302">
<ele>561.09</ele>
<time>2015-04-24T18:00:56Z</time>
</trkpt>
<trkpt lat="34.9600702" lon="32.4134832">
<ele>560.51</ele>
<time>2015-04-24T18:00:57Z</time>
</trkpt>
<trkpt lat="34.9601677" lon="32.4135326">
<ele>560.22</ele>
<time>2015-04-24T18:00:58Z</time>
</trkpt>
<trkpt lat="34.9602628" lon="32.4135807">
<ele>560.07</ele>
<time>2015-04-24T18:00:59Z</time>
</trkpt>
<trkpt lat="34.9603706" lon="32.4136357">
<ele>559.50</ele>
<time>2015-04-24T18:01:00Z</time>
</trkpt>
<trkpt lat="34.9604644" lon="32.4136883">
<ele>558.71</ele>
<time>2015-04-24T18:01:01Z</time>
</trkpt>
<trkpt lat="34.9605593" lon="32.4137326">
<ele>557.82</ele>
<time>2015-04-24T18:01:02Z</time>
</trkpt>
<trkpt lat="34.9606598" lon="32.4137752">
<ele>557.37</ele>
<time>2015-04-24T18:01:03Z</time>
</trkpt>
<trkpt lat="34.9607654" lon="32.4138217">
<ele>556.65</ele>
<time>2015-04-24T18:01:04Z</time>
</trkpt>
<trkpt lat="34.9608414" lon="32.4138517">
<ele>555.29</ele>
<time>2015-04-24T18:01:05Z</time>
</trkpt>
<trkpt lat="34.9609584" lon="32.4138976">
<ele>554.61</ele>
<time>2015-04-24T18:01:06Z</time>
</trkpt>
<trkpt lat="34.9610610" lon="32.4139397">
<ele>553.77</ele>
<time>2015-04-24T18:01:07Z</time>
</trkpt>
<trkpt lat="34.9611702" lon="32.4139971">
<ele>552.85</ele>
<time>2015-04-24T18:01:08Z</time>
</trkpt>
<trkpt lat="34.9612776" lon="32.4140449">
<ele>551.89</ele>
<time>2015-04-24T18:01:09Z</time>
</trkpt>
<trkpt lat="34.9613811" lon="32.4140876">
<ele>550.91</ele>
<time>2015-04-24T18:01:10Z</time>
</trkpt>
<trkpt lat="34.9614958" lon="32.4141424">
<ele>549.42</ele>
<time>2015-04-24T18:01:11Z</time>
</trkpt>
<trkpt lat="34.9616077" lon="32.4141867">
<ele>548.17</ele>
<time>2015-04-24T18:01:12Z</time>
</trkpt>
<trkpt lat="34.9617143" lon="32.4142283">
<ele>547.55</ele>
<time>2015-04-24T18:01:13Z</time>
</trkpt>
<trkpt lat="34.9618271" lon="32.4142738">
<ele>546.24</ele>
<time>2015-04-24T18:01:14Z</time>
</trkpt>
<trkpt lat="34.9619308" lon="32.4143168">
<ele>545.08</ele>
<time>2015-04-24T18:01:15Z</time>
</trkpt>
<trkpt lat="34.9620439" lon="32.4143457">
<ele>544.00</ele>
<time>2015-04-24T18:01:16Z</time>
</trkpt>
<trkpt lat="34.9621506" lon="32.4143729">
<ele>543.96</ele>
<time>2015-04-24T18:01:17Z</time>
</trkpt>
<trkpt lat="34.9622610" lon="32.4143699">
<ele>543.44</ele>
<time>2015-04-24T18:01:18Z</time>
</trkpt>
<trkpt lat="34.9623656" lon="32.4143582">
<ele>542.68</ele>
<time>2015-04-24T18:01:19Z</time>
</trkpt>
<trkpt lat="34.9624658" lon="32.4143250">
<ele>541.80</ele>
<time>2015-04-24T18:01:20Z</time>
</trkpt>
<trkpt lat="34.9625526" lon="32.4142755">
<ele>541.36</ele>
<time>2015-04-24T18:01:21Z</time>
</trkpt>
<trkpt lat="34.9626492" lon="32.4142054">
<ele>540.64</ele>
<time>2015-04-24T18:01:22Z</time>
</trkpt>
<trkpt lat="34.9627378" lon="32.4141402">
<ele>539.78</ele>
<time>2015-04-24T18:01:23Z</time>
</trkpt>
<trkpt lat="34.9628334" lon="32.4140942">
<ele>538.85</ele>
<time>2015-04-24T18:01:24Z</time>
</trkpt>
<trkpt lat="34.9629341" lon="32.4140285">
<ele>538.39</ele>
<time>2015-04-24T18:01:25Z</time>
</trkpt>
<trkpt lat="34.9630316" lon="32.4139669">
<ele>537.66</ele>
<time>2015-04-24T18:01:26Z</time>
</trkpt>
<trkpt lat="34.9631299" lon="32.4139090">
<ele>537.29</ele>
<time>2015-04-24T18:01:27Z</time>
</trkpt>
<trkpt lat="34.9632375" lon="32.4138415">
<ele>537.61</ele>
<time>2015-04-24T18:01:28Z</time>
</trkpt>
<trkpt lat="34.9633343" lon="32.4137833">
<ele>537.77</ele>
<time>2015-04-24T18:01:29Z</time>
</trkpt>
<trkpt lat="34.9634272" lon="32.4137212">
<ele>537.85</ele>
<time>2015-04-24T18:01:30Z</time>
</trkpt>
<trkpt lat="34.9635184" lon="32.4136609">
<ele>537.39</ele>
<time>2015-04-24T18:01:31Z</time>
</trkpt>
<trkpt lat="34.9636177" lon="32.4135972">
<ele>536.66</ele>
<time>2015-04-24T18:01:32Z</time>
</trkpt>
<trkpt lat="34.9637059" lon="32.4135419">
<ele>536.29</ele>
<time>2015-04-24T18:01:33Z</time>
</trkpt>
<trkpt lat="34.9638043" lon="32.4134882">
<ele>536.11</ele>
<time>2015-04-24T18:01:34Z</time>
</trkpt>
<trkpt lat="34.9639008" lon="32.4134335">
<ele>535.02</ele>
<time>2015-04-24T18:01:35Z</time>
</trkpt>
<trkpt lat="34.9639924" lon="32.4133739">
<ele>533.97</ele>
<time>2015-04-24T18:01:36Z</time>
</trkpt>
<trkpt lat="34.9640850" lon="32.4133138">
<ele>533.45</ele>
<time>2015-04-24T18:01:37Z</time>
</trkpt>
<trkpt lat="34.9641736" lon="32.4132549">
<ele>533.19</ele>
<time>2015-04-24T18:01:38Z</time>
</trkpt>
<trkpt lat="34.9642559" lon="32.4132074">
<ele>532.56</ele>
<time>2015-04-24T18:01:39Z</time>
</trkpt>
<trkpt lat="34.9643492" lon="32.4131459">
<ele>531.74</ele>
<time>2015-04-24T18:01:40Z</time>
</trkpt>
<trkpt lat="34.9644429" lon="32.4130917">
<ele>531.33</ele>
<time>2015-04-24T18:01:41Z</time>
</trkpt>
<trkpt lat="34.9645378" lon="32.4130380">
<ele>531.13</ele>
<time>2015-04-24T18:01:42Z</time>
</trkpt>
<trkpt lat="34.9646246" lon="32.4129815">
<ele>531.03</ele>
<time>2015-04-24T18:01:43Z</time>
</trkpt>
<trkpt lat="34.9647163" lon="32.4129240">
<ele>530.48</ele>
<time>2015-04-24T18:01:44Z</time>
</trkpt>
<trkpt lat="34.9648035" lon="32.4128692">
<ele>530.70</ele>
<time>2015-04-24T18:01:45Z</time>
</trkpt>
<trkpt lat="34.9648959" lon="32.4128118">
<ele>530.31</ele>
<time>2015-04-24T18:01:46Z</time>
</trkpt>
<trkpt lat="34.9649860" lon="32.4127535">
<ele>529.62</ele>
<time>2015-04-24T18:01:47Z</time>
</trkpt>
<trkpt lat="34.9650794" lon="32.4126967">
<ele>529.27</ele>
<time>2015-04-24T18:01:48Z</time>
</trkpt>
<trkpt lat="34.9651627" lon="32.4126419">
<ele>528.60</ele>
<time>2015-04-24T18:01:49Z</time>
</trkpt>
<trkpt lat="34.9652526" lon="32.4125946">
<ele>528.76</ele>
<time>2015-04-24T18:01:50Z</time>
</trkpt>
<trkpt lat="34.9653305" lon="32.4125406">
<ele>528.34</ele>
<time>2015-04-24T18:01:51Z</time>
</trkpt>
<trkpt lat="34.9654134" lon="32.4124882">
<ele>528.13</ele>
<time>2015-04-24T18:01:52Z</time>
</trkpt>
<trkpt lat="34.9654941" lon="32.4124306">
<ele>527.53</ele>
<time>2015-04-24T18:01:53Z</time>
</trkpt>
<trkpt lat="34.9655803" lon="32.4123743">
<ele>527.23</ele>
<time>2015-04-24T18:01:54Z</time>
</trkpt>
<trkpt lat="34.9656608" lon="32.4123280">
<ele>527.08</ele>
<time>2015-04-24T18:01:55Z</time>
</trkpt>
<trkpt lat="34.9657394" lon="32.4122789">
<ele>526.50</ele>
<time>2015-04-24T18:01:56Z</time>
</trkpt>
<trkpt lat="34.9658194" lon="32.4122308">
<ele>526.21</ele>
<time>2015-04-24T18:01:57Z</time>
</trkpt>
<trkpt lat="34.9658974" lon="32.4121775">
<ele>526.07</ele>
<time>2015-04-24T18:01:58Z</time>
</trkpt>
<trkpt lat="34.9659665" lon="32.4121217">
<ele>526.00</ele>
<time>2015-04-24T18:01:59Z</time>
</trkpt>
<trkpt lat="34.9660458" lon="32.4120652">
<ele>525.96</ele>
<time>2015-04-24T18:02:00Z</time>
</trkpt>
<trkpt lat="34.9661232" lon="32.4120243">
<ele>525.44</ele>
<time>2015-04-24T18:02:01Z</time>
</trkpt>
<trkpt lat="34.9661974" lon="32.4119836">
<ele>525.18</ele>
<time>2015-04-24T18:02:02Z</time>
</trkpt>
<trkpt lat="34.9662710" lon="32.4119406">
<ele>524.55</ele>
<time>2015-04-24T18:02:03Z</time>
</trkpt>
<trkpt lat="34.9663445" lon="32.4118871">
<ele>523.74</ele>
<time>2015-04-24T18:02:04Z</time>
</trkpt>
<trkpt lat="34.9664099" lon="32.4118373">
<ele>523.33</ele>
<time>2015-04-24T18:02:05Z</time>
</trkpt>
<trkpt lat="34.9664773" lon="32.4117897">
<ele>523.13</ele>
<time>2015-04-24T18:02:06Z</time>
</trkpt>
<trkpt lat="34.9665428" lon="32.4117506">
<ele>522.53</ele>
<time>2015-04-24T18:02:07Z</time>
</trkpt>
<trkpt lat="34.9666133" lon="32.4117063">
<ele>522.23</ele>
<time>2015-04-24T18:02:08Z</time>
</trkpt>
<trkpt lat="34.9666820" lon="32.4116671">
<ele>521.58</ele>
<time>2015-04-24T18:02:09Z</time>
</trkpt>
<trkpt lat="34.9667580" lon="32.4116257">
<ele>520.75</ele>
<time>2015-04-24T18:02:10Z</time>
</trkpt>
<trkpt lat="34.9668320" lon="32.4115806">
<ele>520.34</ele>
<time>2015-04-24T18:02:11Z</time>
</trkpt>
<trkpt lat="34.9668975" lon="32.4115360">
<ele>519.63</ele>
<time>2015-04-24T18:02:12Z</time>
</trkpt>
<trkpt lat="34.9669600" lon="32.4114908">
<ele>519.28</ele>
<time>2015-04-24T18:02:13Z</time>
</trkpt>
<trkpt lat="34.9670237" lon="32.4114432">
<ele>519.10</ele>
<time>2015-04-24T18:02:14Z</time>
</trkpt>
<trkpt lat="34.9670853" lon="32.4114069">
<ele>518.51</ele>
<time>2015-04-24T18:02:15Z</time>
</trkpt>
<trkpt lat="34.9671559" lon="32.4113644">
<ele>518.22</ele>
<time>2015-04-24T18:02:16Z</time>
</trkpt>
<trkpt lat="34.9672206" lon="32.4113144">
<ele>517.57</ele>
<time>2015-04-24T18:02:17Z</time>
</trkpt>
<trkpt lat="34.9672867" lon="32.4112569">
<ele>517.25</ele>
<time>2015-04-24T18:02:18Z</time>
</trkpt>
<trkpt lat="34.9673534" lon="32.4112037">
<ele>516.59</ele>
<time>2015-04-24T18:02:19Z</time>
</trkpt>
<trkpt lat="34.9674165" lon="32.4111418">
<ele>515.76</ele>
<time>2015-04-24T18:02:20Z</time>
</trkpt>
<trkpt lat="34.9674702" lon="32.4110673">
<ele>515.34</ele>
<time>2015-04-24T18:02:21Z</time>
</trkpt>
<trkpt lat="34.9675261" lon="32.4109838">
<ele>514.63</ele>
<time>2015-04-24T18:02:22Z</time>
</trkpt>
<trkpt lat="34.9675752" lon="32.4108949">
<ele>514.28</ele>
<time>2015-04-24T18:02:23Z</time>
</trkpt>
<trkpt lat="34.9676218" lon="32.4107979">
<ele>513.60</ele>
<time>2015-04-24T18:02:24Z</time>
</trkpt>
<trkpt lat="34.9676603" lon="32.4107062">
<ele>513.26</ele>
<time>2015-04-24T18:02:25Z</time>
</trkpt>
<trkpt lat="34.9677021" lon="32.4106028">
<ele>512.59</ele>
<time>2015-04-24T18:02:26Z</time>
</trkpt>
<trkpt lat="34.9677315" lon="32.4105031">
<ele>512.26</ele>
<time>2015-04-24T18:02:27Z</time>
</trkpt>
<trkpt lat="34.9677560" lon="32.4104022">
<ele>512.09</ele>
<time>2015-04-24T18:02:28Z</time>
</trkpt>
<trkpt lat="34.9677709" lon="32.4103217">
<ele>511.51</ele>
<time>2015-04-24T18:02:29Z</time>
</trkpt>
<trkpt lat="34.9677834" lon="32.4102385">
<ele>510.72</ele>
<time>2015-04-24T18:02:30Z</time>
</trkpt>
<trkpt lat="34.9677912" lon="32.4101465">
<ele>509.82</ele>
<time>2015-04-24T18:02:31Z</time>
</trkpt>
<trkpt lat="34.9677951" lon="32.4100547">
<ele>509.37</ele>
<time>2015-04-24T18:02:32Z</time>
</trkpt>
<trkpt lat="34.9677913" lon="32.4099634">
<ele>509.15</ele>
<time>2015-04-24T18:02:33Z</time>
</trkpt>
<trkpt lat="34.9677801" lon="32.4098738">
<ele>509.04</ele>
<time>2015-04-24T18:02:34Z</time>
</trkpt>
<trkpt lat="34.9677722" lon="32.4097823">
<ele>508.98</ele>
<time>2015-04-24T18:02:35Z</time>
</trkpt>
<trkpt lat="34.9677604" lon="32.4096825">
<ele>508.95</ele>
<time>2015-04-24T18:02:36Z</time>
</trkpt>
<trkpt lat="34.9677416" lon="32.4095919">
<ele>508.44</ele>
<time>2015-04-24T18:02:37Z</time>
</trkpt>
<trkpt lat="34.9677102" lon="32.4094990">
<ele>507.68</ele>
<time>2015-04-24T18:02:38Z</time>
</trkpt>
<trkpt lat="34.9676832" lon="32.4094073">
<ele>507.30</ele>
<time>2015-04-24T18:02:39Z</time>
</trkpt>
<trkpt lat="34.9676563" lon="32.4093033">
<ele>507.11</ele>
<time>2015-04-24T18:02:40Z</time>
</trkpt>
<trkpt lat="34.9676286" lon="32.4092034">
<ele>507.02</ele>
<time>2015-04-24T18:02:41Z</time>
</trkpt>
<trkpt lat="34.9676102" lon="32.4090989">
<ele>506.47</ele>
<time>2015-04-24T18:02:42Z</time>
</trkpt>
<trkpt lat="34.9675865" lon="32.4089991">
<ele>505.70</ele>
<time>2015-04-24T18:02:43Z</time>
</trkpt>
<trkpt lat="34.9675588" lon="32.4088941">
<ele>505.31</ele>
<time>2015-04-24T18:02:44Z</time>
</trkpt>
<trkpt lat="34.9675267" lon="32.4087846">
<ele>504.62</ele>
<time>2015-04-24T18:02:45Z</time>
</trkpt>
<trkpt lat="34.9675004" lon="32.4086710">
<ele>504.27</ele>
<time>2015-04-24T18:02:46Z</time>
</trkpt>
<trkpt lat="34.9674747" lon="32.4085573">
<ele>503.60</ele>
<time>2015-04-24T18:02:47Z</time>
</trkpt>
<trkpt lat="34.9674632" lon="32.4084314">
<ele>502.76</ele>
<time>2015-04-24T18:02:48Z</time>
</trkpt>
<trkpt lat="34.9674576" lon="32.4083054">
<ele>502.34</ele>
<time>2015-04-24T18:02:49Z</time>
</trkpt>
<trkpt lat="34.9674604" lon="32.4081773">
<ele>501.63</ele>
<time>2015-04-24T18:02:50Z</time>
</trkpt>
<trkpt lat="34.9674690" lon="32.4080550">
<ele>500.78</ele>
<time>2015-04-24T18:02:51Z</time>
</trkpt>
<trkpt lat="34.9674880" lon="32.4079244">
<ele>499.85</ele>
<time>2015-04-24T18:02:52Z</time>
</trkpt>
<trkpt lat="34.9675195" lon="32.4078036">
<ele>499.39</ele>
<time>2015-04-24T18:02:53Z</time>
</trkpt>
<trkpt lat="34.9675634" lon="32.4076798">
<ele>498.66</ele>
<time>2015-04-24T18:02:54Z</time>
</trkpt>
<trkpt lat="34.9676085" lon="32.4075630">
<ele>497.79</ele>
<time>2015-04-24T18:02:55Z</time>
</trkpt>
<trkpt lat="34.9676611" lon="32.4074458">
<ele>497.36</ele>
<time>2015-04-24T18:02:56Z</time>
</trkpt>
<trkpt lat="34.9677169" lon="32.4073482">
<ele>496.64</ele>
<time>2015-04-24T18:02:57Z</time>
</trkpt>
<trkpt lat="34.9677715" lon="32.4072603">
<ele>495.78</ele>
<time>2015-04-24T18:02:58Z</time>
</trkpt>
<trkpt lat="34.9678293" lon="32.4071700">
<ele>495.35</ele>
<time>2015-04-24T18:02:59Z</time>
</trkpt>
<trkpt lat="34.9678991" lon="32.4070865">
<ele>494.64</ele>
<time>2015-04-24T18:03:00Z</time>
</trkpt>
<trkpt lat="34.9679735" lon="32.4070216">
<ele>493.28</ele>
<time>2015-04-24T18:03:01Z</time>
</trkpt>
<trkpt lat="34.9680486" lon="32.4069584">
<ele>492.10</ele>
<time>2015-04-24T18:03:02Z</time>
</trkpt>
<trkpt lat="34.9681347" lon="32.4069026">
<ele>491.01</ele>
<time>2015-04-24T18:03:03Z</time>
</trkpt>
<trkpt lat="34.9682289" lon="32.4068474">
<ele>489.97</ele>
<time>2015-04-24T18:03:04Z</time>
</trkpt>
<trkpt lat="34.9683294" lon="32.4067949">
<ele>489.45</ele>
<time>2015-04-24T18:03:05Z</time>
</trkpt>
<trkpt lat="34.9684236" lon="32.4067370">
<ele>488.69</ele>
<time>2015-04-24T18:03:06Z</time>
</trkpt>
<trkpt lat="34.9685106" lon="32.4066770">
<ele>487.81</ele>
<time>2015-04-24T18:03:07Z</time>
</trkpt>
<trkpt lat="34.9686074" lon="32.4066097">
<ele>486.87</ele>
<time>2015-04-24T18:03:08Z</time>
</trkpt>
<trkpt lat="34.9687031" lon="32.4065557">
<ele>485.90</ele>
<time>2015-04-24T18:03:09Z</time>
</trkpt>
<trkpt lat="34.9688016" lon="32.4065380">
<ele>485.41</ele>
<time>2015-04-24T18:03:10Z</time>
</trkpt>
<trkpt lat="34.9689004" lon="32.4065465">
<ele>484.67</ele>
<time>2015-04-24T18:03:11Z</time>
</trkpt>
<trkpt lat="34.9690074" lon="32.4065658">
<ele>483.80</ele>
<time>2015-04-24T18:03:12Z</time>
</trkpt>
<trkpt lat="34.9690937" lon="32.4065911">
<ele>482.86</ele>
<time>2015-04-24T18:03:13Z</time>
</trkpt>
<trkpt lat="34.9691867" lon="32.4066052">
<ele>481.89</ele>
<time>2015-04-24T18:03:14Z</time>
</trkpt>
<trkpt lat="34.9692821" lon="32.4066115">
<ele>480.91</ele>
<time>2015-04-24T18:03:15Z</time>
</trkpt>
<trkpt lat="34.9693828" lon="32.4066166">
<ele>480.42</ele>
<time>2015-04-24T18:03:16Z</time>
</trkpt>
<trkpt lat="34.9694829" lon="32.4066073">
<ele>479.67</ele>
<time>2015-04-24T18:03:17Z</time>
</trkpt>
<trkpt lat="34.9695871" lon="32.4065938">
<ele>478.80</ele>
<time>2015-04-24T18:03:18Z</time>
</trkpt>
<trkpt lat="34.9696810" lon="32.4065782">
<ele>477.86</ele>
<time>2015-04-24T18:03:19Z</time>
</trkpt>
<trkpt lat="34.9697805" lon="32.4065294">
<ele>476.89</ele>
<time>2015-04-24T18:03:20Z</time>
</trkpt>
<trkpt lat="34.9698708" lon="32.4064675">
<ele>476.41</ele>
<time>2015-04-24T18:03:21Z</time>
</trkpt>
<trkpt lat="34.9699538" lon="32.4063971">
<ele>475.67</ele>
<time>2015-04-24T18:03:22Z</time>
</trkpt>
<trkpt lat="34.9700322" lon="32.4063200">
<ele>474.80</ele>
<time>2015-04-24T18:03:23Z</time>
</trkpt>
<trkpt lat="34.9701082" lon="32.4062180">
<ele>474.36</ele>
<time>2015-04-24T18:03:24Z</time>
</trkpt>
<trkpt lat="34.9701746" lon="32.4061056">
<ele>473.64</ele>
<time>2015-04-24T18:03:25Z</time>
</trkpt>
<trkpt lat="34.9702390" lon="32.4059939">
<ele>472.78</ele>
<time>2015-04-24T18:03:26Z</time>
</trkpt>
<trkpt lat="34.9702991" lon="32.4058845">
<ele>471.85</ele>
<time>2015-04-24T18:03:27Z</time>
</trkpt>
<trkpt lat="34.9703710" lon="32.4057748">
<ele>470.89</ele>
<time>2015-04-24T18:03:28Z</time>
</trkpt>
<trkpt lat="34.9704507" lon="32.4056733">
<ele>470.41</ele>
<time>2015-04-24T18:03:29Z</time>
</trkpt>
<trkpt lat="34.9705264" lon="32.4055634">
<ele>469.17</ele>
<time>2015-04-24T18:03:30Z</time>
</trkpt>
<trkpt lat="34.9705871" lon="32.4054555">
<ele>468.55</ele>
<time>2015-04-24T18:03:31Z</time>
</trkpt>
<trkpt lat="34.9706384" lon="32.4053512">
<ele>467.74</ele>
<time>2015-04-24T18:03:32Z</time>
</trkpt>
<trkpt lat="34.9706823" lon="32.4052688">
<ele>467.33</ele>
<time>2015-04-24T18:03:33Z</time>
</trkpt>
<trkpt lat="34.9707354" lon="32.4051972">
<ele>466.63</ele>
<time>2015-04-24T18:03:34Z</time>
</trkpt>
<trkpt lat="34.9707851" lon="32.4051306">
<ele>465.78</ele>
<time>2015-04-24T18:03:35Z</time>
</trkpt>
<trkpt lat="34.9708476" lon="32.4050737">
<ele>465.35</ele>
<time>2015-04-24T18:03:36Z</time>
</trkpt>
<trkpt lat="34.9709123" lon="32.4050277">
<ele>465.14</ele>
<time>2015-04-24T18:03:37Z</time>
</trkpt>
<trkpt lat="34.9709774" lon="32.4049860">
<ele>464.53</ele>
<time>2015-04-24T18:03:38Z</time>
</trkpt>
<trkpt lat="34.9710438" lon="32.4049522">
<ele>464.23</ele>
<time>2015-04-24T18:03:39Z</time>
</trkpt>
<trkpt lat="34.9711140" lon="32.4049269">
<ele>463.58</ele>
<time>2015-04-24T18:03:40Z</time>
</trkpt>
<trkpt lat="34.9711765" lon="32.4049131">
<ele>463.25</ele>
<time>2015-04-24T18:03:41Z</time>
</trkpt>
<trkpt lat="34.9712377" lon="32.4049095">
<ele>462.59</ele>
<time>2015-04-24T18:03:42Z</time>
</trkpt>
<trkpt lat="34.9712962" lon="32.4049149">
<ele>461.76</ele>
<time>2015-04-24T18:03:43Z</time>
</trkpt>
<trkpt lat="34.9713599" lon="32.4049317">
<ele>461.34</ele>
<time>2015-04-24T18:03:44Z</time>
</trkpt>
<trkpt lat="34.9714272" lon="32.4049544">
<ele>460.63</ele>
<time>2015-04-24T18:03:45Z</time>
</trkpt>
<trkpt lat="34.9715046" lon="32.4049778">
<ele>460.28</ele>
<time>2015-04-24T18:03:46Z</time>
</trkpt>
<trkpt lat="34.9715667" lon="32.4050064">
<ele>459.60</ele>
<time>2015-04-24T18:03:47Z</time>
</trkpt>
<trkpt lat="34.9716512" lon="32.4050468">
<ele>459.26</ele>
<time>2015-04-24T18:03:48Z</time>
</trkpt>
<trkpt lat="34.9717339" lon="32.4050870">
<ele>458.59</ele>
<time>2015-04-24T18:03:49Z</time>
</trkpt>
<trkpt lat="34.9718228" lon="32.4051360">
<ele>458.26</ele>
<time>2015-04-24T18:03:50Z</time>
</trkpt>
<trkpt lat="34.9719086" lon="32.4051714">
<ele>457.59</ele>
<time>2015-04-24T18:03:51Z</time>
</trkpt>
<trkpt lat="34.9720029" lon="32.4052182">
<ele>457.26</ele>
<time>2015-04-24T18:03:52Z</time>
</trkpt>
<trkpt lat="34.9720954" lon="32.4052680">
<ele>457.09</ele>
<time>2015-04-24T18:03:53Z</time>
</trkpt>
<trkpt lat="34.9721950" lon="32.4053094">
<ele>456.51</ele>
<time>2015-04-24T18:03:54Z</time>
</trkpt>
<trkpt lat="34.9722899" lon="32.4053580">
<ele>455.72</ele>
<time>2015-04-24T18:03:55Z</time>
</trkpt>
<trkpt lat="34.9723910" lon="32.4054058">
<ele>455.32</ele>
<time>2015-04-24T18:03:56Z</time>
</trkpt>
<trkpt lat="34.9724928" lon="32.4054575">
<ele>454.62</ele>
<time>2015-04-24T18:03:57Z</time>
</trkpt>
<trkpt lat="34.9725885" lon="32.4054988">
<ele>454.27</ele>
<time>2015-04-24T18:03:58Z</time>
</trkpt>
<trkpt lat="34.9726773" lon="32.4055406">
<ele>454.10</ele>
<time>2015-04-24T18:03:59Z</time>
</trkpt>
<trkpt lat="34.9727700" lon="32.4055820">
<ele>453.51</ele>
<time>2015-04-24T18:04:00Z</time>
</trkpt>
<trkpt lat="34.9728555" lon="32.4056258">
<ele>453.22</ele>
<time>2015-04-24T18:04:01Z</time>
</trkpt>
<trkpt lat="34.9729423" lon="32.4056648">
<ele>452.57</ele>
<time>2015-04-24T18:04:02Z</time>
</trkpt>
<trkpt lat="34.9730268" lon="32.4056992">
<ele>452.25</ele>
<time>2015-04-24T18:04:03Z</time>
</trkpt>
<trkpt lat="34.9731118" lon="32.4057383">
<ele>451.59</ele>
<time>2015-04-24T18:04:04Z</time>
</trkpt>
<trkpt lat="34.9731903" lon="32.4057790">
<ele>450.76</ele>
<time>2015-04-24T18:04:05Z</time>
</trkpt>
<trkpt lat="34.9732699" lon="32.4058120">
<ele>450.34</ele>
<time>2015-04-24T18:04:06Z</time>
</trkpt>
<trkpt lat="34.9733559" lon="32.4058400">
<ele>449.13</ele>
<time>2015-04-24T18:04:07Z</time>
</trkpt>
<trkpt lat="34.9734556" lon="32.4058669">
<ele>448.03</ele>
<time>2015-04-24T18:04:08Z</time>
</trkpt>
<trkpt lat="34.9735547" lon="32.4058864">
<ele>446.98</ele>
<time>2015-04-24T18:04:09Z</time>
</trkpt>
<trkpt lat="34.9736582" lon="32.4058861">
<ele>445.95</ele>
<time>2015-04-24T18:04:10Z</time>
</trkpt>
<trkpt lat="34.9737556" lon="32.4058720">
<ele>444.94</ele>
<time>2015-04-24T18:04:11Z</time>
</trkpt>
<trkpt lat="34.9738627" lon="32.4058459">
<ele>443.93</ele>
<time>2015-04-24T18:04:12Z</time>
</trkpt>
<trkpt lat="34.9739681" lon="32.4058016">
<ele>442.93</ele>
<time>2015-04-24T18:04:13Z</time>
</trkpt>
<trkpt lat="34.9740724" lon="32.4057450">
<ele>441.43</ele>
<time>2015-04-24T18:04:14Z</time>
</trkpt>
<trkpt lat="34.9741701" lon="32.4056839">
<ele>440.18</ele>
<time>2015-04-24T18:04:15Z</time>
</trkpt>
<trkpt lat="34.9742715" lon="32.4056240">
<ele>439.05</ele>
<time>2015-04-24T18:04:16Z</time>
</trkpt>
<trkpt lat="34.9743836" lon="32.4055543">
<ele>437.49</ele>
<time>2015-04-24T18:04:17Z</time>
</trkpt>
<trkpt lat="34.9744964" lon="32.4054948">
<ele>436.21</ele>
<time>2015-04-24T18:04:18Z</time>
</trkpt>
<trkpt lat="34.9746016" lon="32.4054242">
<ele>435.07</ele>
<time>2015-04-24T18:04:19Z</time>
</trkpt>
<trkpt lat="34.9747221" lon="32.4053516">
<ele>434.00</ele>
<time>2015-04-24T18:04:20Z</time>
</trkpt>
<trkpt lat="34.9748364" lon="32.4052830">
<ele>432.46</ele>
<time>2015-04-24T18:04:21Z</time>
</trkpt>
<trkpt lat="34.9749403" lon="32.4052290">
<ele>431.19</ele>
<time>2015-04-24T18:04:22Z</time>
</trkpt>
<trkpt lat="34.9750556" lon="32.4051867">
<ele>430.06</ele>
<time>2015-04-24T18:04:23Z</time>
</trkpt>
<trkpt lat="34.9751818" lon="32.4051595">
<ele>428.99</ele>
<time>2015-04-24T18:04:24Z</time>
</trkpt>
<trkpt lat="34.9753147" lon="32.4051543">
<ele>427.96</ele>
<time>2015-04-24T18:04:25Z</time>
</trkpt>
<trkpt lat="34.9754397" lon="32.4051843">
<ele>426.44</ele>
<time>2015-04-24T18:04:26Z</time>
</trkpt>
<trkpt lat="34.9755474" lon="32.4052276">
<ele>425.18</ele>
<time>2015-04-24T18:04:27Z</time>
</trkpt>
<trkpt lat="34.9756601" lon="32.4052713">
<ele>424.55</ele>
<time>2015-04-24T18:04:28Z</time>
</trkpt>
<trkpt lat="34.9757723" lon="32.4053038">
<ele>423.24</ele>
<time>2015-04-24T18:04:29Z</time>
</trkpt>
<trkpt lat="34.9758885" lon="32.4053219">
<ele>422.08</ele>
<time>2015-04-24T18:04:30Z</time>
</trkpt>
<trkpt lat="34.9759962" lon="32.4053279">
<ele>421.00</ele>
<time>2015-04-24T18:04:31Z</time>
</trkpt>
<trkpt lat="34.9761120" lon="32.4053098">
<ele>419.96</ele>
<time>2015-04-24T18:04:32Z</time>
</trkpt>
<trkpt lat="34.9762263" lon="32.4052648">
<ele>418.94</ele>
<time>2015-04-24T18:04:33Z</time>
</trkpt>
<trkpt lat="34.9763424" lon="32.4052054">
<ele>418.43</ele>
<time>2015-04-24T18:04:34Z</time>
</trkpt>
<trkpt lat="34.9764446" lon="32.4051445">
<ele>417.68</ele>
<time>2015-04-24T18:04:35Z</time>
</trkpt>
<trkpt lat="34.9765577" lon="32.4050757">
<ele>415.80</ele>
<time>2015-04-24T18:04:36Z</time>
</trkpt>
<trkpt lat="34.9766704" lon="32.4050191">
<ele>414.86</ele>
<time>2015-04-24T18:04:37Z</time>
</trkpt>
<trkpt lat="34.9767725" lon="32.4049637">
<ele>413.89</ele>
<time>2015-04-24T18:04:38Z</time>
</trkpt>
<trkpt lat="34.9768723" lon="32.4049000">
<ele>412.91</ele>
<time>2015-04-24T18:04:39Z</time>
</trkpt>
<trkpt lat="34.9769829" lon="32.4048261">
<ele>411.92</ele>
<time>2015-04-24T18:04:40Z</time>
</trkpt>
<trkpt lat="34.9770919" lon="32.4047723">
<ele>410.92</ele>
<time>2015-04-24T18:04:41Z</time>
</trkpt>
<trkpt lat="34.9771964" lon="32.4047229">
<ele>409.92</ele>
<time>2015-04-24T18:04:42Z</time>
</trkpt>
<trkpt lat="34.9772948" lon="32.4046754">
<ele>408.92</ele>
<time>2015-04-24T18:04:43Z</time>
</trkpt>
<trkpt lat="34.9774017" lon="32.4046427">
<ele>407.92</ele>
<time>2015-04-24T18:04:44Z</time>
</trkpt>
<trkpt lat="34.9775055" lon="32.4046401">
<ele>407.42</ele>
<time>2015-04-24T18:04:45Z</time>
</trkpt>
<trkpt lat="34.9776116" lon="32.4046787">
<ele>407.17</ele>
<time>2015-04-24T18:04:46Z</time>
</trkpt>
<trkpt lat="34.9777112" lon="32.4047288">
<ele>406.55</ele>
<time>2015-04-24T18:04:47Z</time>
</trkpt>
<trkpt lat="34.9778147" lon="32.4047925">
<ele>405.74</ele>
<time>2015-04-24T18:04:48Z</time>
</trkpt>
<trkpt lat="34.9779140" lon="32.4048590">
<ele>404.83</ele>
<time>2015-04-24T18:04:49Z</time>
</trkpt>
<trkpt lat="34.9780121" lon="32.4049259">
<ele>404.38</ele>
<time>2015-04-24T18:04:50Z</time>
</trkpt>
<trkpt lat="34.9781177" lon="32.4049723">
<ele>403.65</ele>
<time>2015-04-24T18:04:51Z</time>
</trkpt>
<trkpt lat="34.9782346" lon="32.4050093">
<ele>402.79</ele>
<time>2015-04-24T18:04:52Z</time>
</trkpt>
<trkpt lat="34.9783493" lon="32.4050281">
<ele>401.86</ele>
<time>2015-04-24T18:04:53Z</time>
</trkpt>
<trkpt lat="34.9784617" lon="32.4050442">
<ele>400.89</ele>
<time>2015-04-24T18:04:54Z</time>
</trkpt>
<trkpt lat="34.9785606" lon="32.4050756">
<ele>400.41</ele>
<time>2015-04-24T18:04:55Z</time>
</trkpt>
<trkpt lat="34.9786737" lon="32.4050974">
<ele>400.17</ele>
<time>2015-04-24T18:04:56Z</time>
</trkpt>
<trkpt lat="34.9787783" lon="32.4051129">
<ele>399.55</ele>
<time>2015-04-24T18:04:57Z</time>
</trkpt>
<trkpt lat="34.9788866" lon="32.4051291">
<ele>399.24</ele>
<time>2015-04-24T18:04:58Z</time>
</trkpt>
<trkpt lat="34.9789900" lon="32.4051489">
<ele>398.58</ele>
<time>2015-04-24T18:04:59Z</time>
</trkpt>
<trkpt lat="34.9790975" lon="32.4051727">
<ele>398.25</ele>
<time>2015-04-24T18:05:00Z</time>
</trkpt>
<trkpt lat="34.9791989" lon="32.4051936">
<ele>398.09</ele>
<time>2015-04-24T18:05:01Z</time>
</trkpt>
<trkpt lat="34.9793026" lon="32.4052116">
<ele>397.51</ele>
<time>2015-04-24T18:05:02Z</time>
</trkpt>
<trkpt lat="34.9794015" lon="32.4052314">
<ele>396.72</ele>
<time>2015-04-24T18:05:03Z</time>
</trkpt>
<trkpt lat="34.9795054" lon="32.4052608">
<ele>396.32</ele>
<time>2015-04-24T18:05:04Z</time>
</trkpt>
<trkpt lat="34.9795954" lon="32.4052860">
<ele>395.62</ele>
<time>2015-04-24T18:05:05Z</time>
</trkpt>
<trkpt lat="34.9796911" lon="32.4053006">
<ele>395.27</ele>
<time>2015-04-24T18:05:06Z</time>
</trkpt>
<trkpt lat="34.9797840" lon="32.4053176">
<ele>394.60</ele>
<time>2015-04-24T18:05:07Z</time>
</trkpt>
<trkpt lat="34.9798843" lon="32.4053369">
<ele>393.76</ele>
<time>2015-04-24T18:05:08Z</time>
</trkpt>
<trkpt lat="34.9799744" lon="32.4053540">
<ele>393.84</ele>
<time>2015-04-24T18:05:09Z</time>
</trkpt>
<trkpt lat="34.9800699" lon="32.4053729">
<ele>393.88</ele>
<time>2015-04-24T18:05:10Z</time>
</trkpt>
<trkpt lat="34.9801653" lon="32.4053947">
<ele>393.40</ele>
<time>2015-04-24T18:05:11Z</time>
</trkpt>
<trkpt lat="34.9802705" lon="32.4054099">
<ele>392.66</ele>
<time>2015-04-24T18:05:12Z</time>
</trkpt>
<trkpt lat="34.9803729" lon="32.4054319">
<ele>392.29</ele>
<time>2015-04-24T18:05:13Z</time>
</trkpt>
<trkpt lat="34.9804715" lon="32.4054502">
<ele>392.11</ele>
<time>2015-04-24T18:05:14Z</time>
</trkpt>
<trkpt lat="34.9805623" lon="32.4054749">
<ele>391.52</ele>
<time>2015-04-24T18:05:15Z</time>
</trkpt>
<trkpt lat="34.9806608" lon="32.4054978">
<ele>390.72</ele>
<time>2015-04-24T18:05:16Z</time>
</trkpt>
<trkpt lat="34.9807580" lon="32.4055207">
<ele>389.82</ele>
<time>2015-04-24T18:05:17Z</time>
</trkpt>
<trkpt lat="34.9808517" lon="32.4055406">
<ele>389.37</ele>
<time>2015-04-24T18:05:18Z</time>
</trkpt>
<trkpt lat="34.9809458" lon="32.4055612">
<ele>389.15</ele>
<time>2015-04-24T18:05:19Z</time>
</trkpt>
<trkpt lat="34.9810398" lon="32.4055814">
<ele>389.04</ele>
<time>2015-04-24T18:05:20Z</time>
</trkpt>
<trkpt lat="34.9811375" lon="32.4056050">
<ele>388.48</ele>
<time>2015-04-24T18:05:21Z</time>
</trkpt>
<trkpt lat="34.9812359" lon="32.4056241">
<ele>388.20</ele>
<time>2015-04-24T18:05:22Z</time>
</trkpt>
<trkpt lat="34.9813259" lon="32.4056409">
<ele>388.06</ele>
<time>2015-04-24T18:05:23Z</time>
</trkpt>
<trkpt lat="34.9814270" lon="32.4056543">
<ele>388.49</ele>
<time>2015-04-24T18:05:24Z</time>
</trkpt>
<trkpt lat="34.9815264" lon="32.4056747">
<ele>388.71</ele>
<time>2015-04-24T18:05:25Z</time>
</trkpt>
<trkpt lat="34.9816224" lon="32.4056955">
<ele>388.82</ele>
<time>2015-04-24T18:05:26Z</time>
</trkpt>
<trkpt lat="34.9817138" lon="32.4057164">
<ele>388.37</ele>
<time>2015-04-24T18:05:27Z</time>
</trkpt>
<trkpt lat="34.9818095" lon="32.4057396">
<ele>388.65</ele>
<time>2015-04-24T18:05:28Z</time>
</trkpt>
<trkpt lat="34.9819125" lon="32.4057568">
<ele>388.29</ele>
<time>2015-04-24T18:05:29Z</time>
</trkpt>
<trkpt lat="34.9820086" lon="32.4057790">
<ele>388.11</ele>
<time>2015-04-24T18:05:30Z</time>
</trkpt>
<trkpt lat="34.9820960" lon="32.4058011">
<ele>388.02</ele>
<time>2015-04-24T18:05:31Z</time>
</trkpt>
<trkpt lat="34.9821954" lon="32.4058229">
<ele>387.47</ele>
<time>2015-04-24T18:05:32Z</time>
</trkpt>
<trkpt lat="34.9822909" lon="32.4058427">
<ele>387.20</ele>
<time>2015-04-24T18:05:33Z</time>
</trkpt>
<trkpt lat="34.9823860" lon="32.4058614">
<ele>387.56</ele>
<time>2015-04-24T18:05:34Z</time>
</trkpt>
<trkpt lat="34.9824760" lon="32.4058767">
<ele>387.74</ele>
<time>2015-04-24T18:05:35Z</time>
</trkpt>
<trkpt lat="34.9825675" lon="32.4059013">
<ele>387.33</ele>
<time>2015-04-24T18:05:36Z</time>
</trkpt>
<trkpt lat="34.9826526" lon="32.4059174">
<ele>387.13</ele>
<time>2015-04-24T18:05:37Z</time>
</trkpt>
<trkpt lat="34.9827388" lon="32.4059362">
<ele>386.53</ele>
<time>2015-04-24T18:05:38Z</time>
</trkpt>
<trkpt lat="34.9828292" lon="32.4059523">
<ele>385.73</ele>
<time>2015-04-24T18:05:39Z</time>
</trkpt>
<trkpt lat="34.9829136" lon="32.4059529">
<ele>385.33</ele>
<time>2015-04-24T18:05:40Z</time>
</trkpt>
<trkpt lat="34.9830022" lon="32.4059464">
<ele>385.13</ele>
<time>2015-04-24T18:05:41Z</time>
</trkpt>
<trkpt lat="34.9830893" lon="32.4059532">
<ele>385.03</ele>
<time>2015-04-24T18:05:42Z</time>
</trkpt>
<trkpt lat="34.9831750" lon="32.4059641">
<ele>384.98</ele>
<time>2015-04-24T18:05:43Z</time>
</trkpt>
<trkpt lat="34.9832647" lon="32.4059771">
<ele>384.45</ele>
<time>2015-04-24T18:05:44Z</time>
</trkpt>
<trkpt lat="34.9833514" lon="32.4059826">
<ele>383.69</ele>
<time>2015-04-24T18:05:45Z</time>
</trkpt>
<trkpt lat="34.9834344" lon="32.4059888">
<ele>383.31</ele>
<time>2015-04-24T18:05:46Z</time>
</trkpt>
<trkpt lat="34.9835178" lon="32.4060013">
<ele>383.12</ele>
<time>2015-04-24T18:05:47Z</time>
</trkpt>
<trkpt lat="34.9836110" lon="32.4060002">
<ele>383.02</ele>
<time>2015-04-24T18:05:48Z</time>
</trkpt>
<trkpt lat="34.9836959" lon="32.4060084">
<ele>382.47</ele>
<time>2015-04-24T18:05:49Z</time>
</trkpt>
<trkpt lat="34.9837832" lon="32.4060141">
<ele>382.20</ele>
<time>2015-04-24T18:05:50Z</time>
</trkpt>
<trkpt lat="34.9838646" lon="32.4060219">
<ele>382.06</ele>
<time>2015-04-24T18:05:51Z</time>
</trkpt>
<trkpt lat="34.9839575" lon="32.4060225">
<ele>381.49</ele>
<time>2015-04-24T18:05:52Z</time>
</trkpt>
<trkpt lat="34.9840440" lon="32.4060258">
<ele>381.21</ele>
<time>2015-04-24T18:05:53Z</time>
</trkpt>
<trkpt lat="34.9841326" lon="32.4060384">
<ele>381.07</ele>
<time>2015-04-24T18:05:54Z</time>
</trkpt>
<trkpt lat="34.9842234" lon="32.4060416">
<ele>380.50</ele>
<time>2015-04-24T18:05:55Z</time>
</trkpt>
<trkpt lat="34.9843170" lon="32.4060425">
<ele>380.21</ele>
<time>2015-04-24T18:05:56Z</time>
</trkpt>
<trkpt lat="34.9844073" lon="32.4060500">
<ele>379.57</ele>
<time>2015-04-24T18:05:57Z</time>
</trkpt>
<trkpt lat="34.9844994" lon="32.4060559">
<ele>379.25</ele>
<time>2015-04-24T18:05:58Z</time>
</trkpt>
<trkpt lat="34.9845919" lon="32.4060686">
<ele>379.09</ele>
<time>2015-04-24T18:05:59Z</time>
</trkpt>
<trkpt lat="34.9846943" lon="32.4060773">
<ele>378.51</ele>
<time>2015-04-24T18:06:00Z</time>
</trkpt>
<trkpt lat="34.9847923" lon="32.4060803">
<ele>378.22</ele>
<time>2015-04-24T18:06:01Z</time>
</trkpt>
<trkpt lat="34.9848866" lon="32.4060838">
<ele>377.57</ele>
<time>2015-04-24T18:06:02Z</time>
</trkpt>
<trkpt lat="34.9849813" lon="32.4060869">
<ele>376.75</ele>
<time>2015-04-24T18:06:03Z</time>
</trkpt>
<trkpt lat="34.9850822" lon="32.4061004">
<ele>376.34</ele>
<time>2015-04-24T18:06:04Z</time>
</trkpt>
<trkpt lat="34.9851807" lon="32.4061113">
<ele>376.13</ele>
<time>2015-04-24T18:06:05Z</time>
</trkpt>
<trkpt lat="34.9852840" lon="32.4061159">
<ele>375.53</ele>
<time>2015-04-24T18:06:06Z</time>
</trkpt>
<trkpt lat="34.9853789" lon="32.4061246">
<ele>375.23</ele>
<time>2015-04-24T18:06:07Z</time>
</trkpt>
<trkpt lat="34.9854863" lon="32.4061346">
<ele>374.58</ele>
<time>2015-04-24T18:06:08Z</time>
</trkpt>
<trkpt lat="34.9855929" lon="32.4061418">
<ele>373.75</ele>
<time>2015-04-24T18:06:09Z</time>
</trkpt>
<trkpt lat="34.9857009" lon="32.4061457">
<ele>372.84</ele>
<time>2015-04-24T18:06:10Z</time>
</trkpt>
<trkpt lat="34.9858071" lon="32.4061517">
<ele>371.88</ele>
<time>2015-04-24T18:06:11Z</time>
</trkpt>
<trkpt lat="34.9859243" lon="32.4061637">
<ele>370.90</ele>
<time>2015-04-24T18:06:12Z</time>
</trkpt>
<trkpt lat="34.9860329" lon="32.4061677">
<ele>369.91</ele>
<time>2015-04-24T18:06:13Z</time>
</trkpt>
<trkpt lat="34.9861480" lon="32.4061688">
<ele>368.92</ele>
<time>2015-04-24T18:06:14Z</time>
</trkpt>
<trkpt lat="34.9862620" lon="32.4061743">
<ele>368.42</ele>
<time>2015-04-24T18:06:15Z</time>
</trkpt>
<trkpt lat="34.9863852" lon="32.4061839">
<ele>367.67</ele>
<time>2015-04-24T18:06:16Z</time>
</trkpt>
<trkpt lat="34.9865002" lon="32.4061928">
<ele>366.80</ele>
<time>2015-04-24T18:06:17Z</time>
</trkpt>
<trkpt lat="34.9866180" lon="32.4062021">
<ele>365.86</ele>
<time>2015-04-24T18:06:18Z</time>
</trkpt>
<trkpt lat="34.9867328" lon="32.4062078">
<ele>364.89</ele>
<time>2015-04-24T18:06:19Z</time>
</trkpt>
<trkpt lat="34.9868611" lon="32.4062180">
<ele>363.91</ele>
<time>2015-04-24T18:06:20Z</time>
</trkpt>
<trkpt lat="34.9869744" lon="32.4062059">
<ele>362.92</ele>
<time>2015-04-24T18:06:21Z</time>
</trkpt>
<trkpt lat="34.9870781" lon="32.4061827">
<ele>361.92</ele>
<time>2015-04-24T18:06:22Z</time>
</trkpt>
<trkpt lat="34.9871740" lon="32.4061576">
<ele>361.42</ele>
<time>2015-04-24T18:06:23Z</time>
</trkpt>
<trkpt lat="34.9872715" lon="32.4061274">
<ele>360.67</ele>
<time>2015-04-24T18:06:24Z</time>
</trkpt>
<trkpt lat="34.9873667" lon="32.4060932">
<ele>360.30</ele>
<time>2015-04-24T18:06:25Z</time>
</trkpt>
<trkpt lat="34.9874663" lon="32.4060626">
<ele>360.11</ele>
<time>2015-04-24T18:06:26Z</time>
</trkpt>
<trkpt lat="34.9875669" lon="32.4060302">
<ele>359.52</ele>
<time>2015-04-24T18:06:27Z</time>
</trkpt>
<trkpt lat="34.9876730" lon="32.4059876">
<ele>358.72</ele>
<time>2015-04-24T18:06:28Z</time>
</trkpt>
<trkpt lat="34.9877761" lon="32.4059485">
<ele>357.82</ele>
<time>2015-04-24T18:06:29Z</time>
</trkpt>
<trkpt lat="34.9878825" lon="32.4059048">
<ele>356.87</ele>
<time>2015-04-24T18:06:30Z</time>
</trkpt>
<trkpt lat="34.9879816" lon="32.4058653">
<ele>355.90</ele>
<time>2015-04-24T18:06:31Z</time>
</trkpt>
<trkpt lat="34.9880915" lon="32.4058180">
<ele>355.41</ele>
<time>2015-04-24T18:06:32Z</time>
</trkpt>
<trkpt lat="34.9882025" lon="32.4057768">
<ele>354.67</ele>
<time>2015-04-24T18:06:33Z</time>
</trkpt>
<trkpt lat="34.9883080" lon="32.4057403">
<ele>353.80</ele>
<time>2015-04-24T18:06:34Z</time>
</trkpt>
<trkpt lat="34.9884093" lon="32.4057150">
<ele>353.36</ele>
<time>2015-04-24T18:06:35Z</time>
</trkpt>
<trkpt lat="34.9885226" lon="32.4057035">
<ele>352.64</ele>
<time>2015-04-24T18:06:36Z</time>
</trkpt>
<trkpt lat="34.9886390" lon="32.4057049">
<ele>352.28</ele>
<time>2015-04-24T18:06:37Z</time>
</trkpt>
<trkpt lat="34.9887539" lon="32.4056984">
<ele>351.60</ele>
<time>2015-04-24T18:06:38Z</time>
</trkpt>
<trkpt lat="34.9888628" lon="32.4057048">
<ele>351.26</ele>
<time>2015-04-24T18:06:39Z</time>
</trkpt>
<trkpt lat="34.9889825" lon="32.4057124">
<ele>350.59</ele>
<time>2015-04-24T18:06:40Z</time>
</trkpt>
<trkpt lat="34.9890973" lon="32.4057366">
<ele>349.76</ele>
<time>2015-04-24T18:06:41Z</time>
</trkpt>
<trkpt lat="34.9892080" lon="32.4057740">
<ele>348.84</ele>
<time>2015-04-24T18:06:42Z</time>
</trkpt>
<trkpt lat="34.9893185" lon="32.4058135">
<ele>347.88</ele>
<time>2015-04-24T18:06:43Z</time>
</trkpt>
<trkpt lat="34.9894347" lon="32.4058396">
<ele>346.90</ele>
<time>2015-04-24T18:06:44Z</time>
</trkpt>
<trkpt lat="34.9895469" lon="32.4058608">
<ele>346.41</ele>
<time>2015-04-24T18:06:45Z</time>
</trkpt>
<trkpt lat="34.9896587" lon="32.4058882">
<ele>345.67</ele>
<time>2015-04-24T18:06:46Z</time>
</trkpt>
<trkpt lat="34.9897669" lon="32.4059186">
<ele>345.30</ele>
<time>2015-04-24T18:06:47Z</time>
</trkpt>
<trkpt lat="34.9898820" lon="32.4059505">
<ele>344.61</ele>
<time>2015-04-24T18:06:48Z</time>
</trkpt>
<trkpt lat="34.9899900" lon="32.4059780">
<ele>344.27</ele>
<time>2015-04-24T18:06:49Z</time>
</trkpt>
<trkpt lat="34.9900994" lon="32.4060106">
<ele>343.60</ele>
<time>2015-04-24T18:06:50Z</time>
</trkpt>
<trkpt lat="34.9902054" lon="32.4060377">
<ele>343.26</ele>
<time>2015-04-24T18:06:51Z</time>
</trkpt>
<trkpt lat="34.9903176" lon="32.4060670">
<ele>342.59</ele>
<time>2015-04-24T18:06:52Z</time>
</trkpt>
<trkpt lat="34.9904291" lon="32.4060861">
<ele>342.26</ele>
<time>2015-04-24T18:06:53Z</time>
</trkpt>
<trkpt lat="34.9905252" lon="32.4061081">
<ele>341.59</ele>
<time>2015-04-24T18:06:54Z</time>
</trkpt>
<trkpt lat="34.9905983" lon="32.4061250">
<ele>341.26</ele>
<time>2015-04-24T18:06:55Z</time>
</trkpt>
<trkpt lat="34.9906778" lon="32.4061365">
<ele>341.09</ele>
<time>2015-04-24T18:06:56Z</time>
</trkpt>
<trkpt lat="34.9907610" lon="32.4061346">
<ele>341.01</ele>
<time>2015-04-24T18:06:57Z</time>
</trkpt>
<trkpt lat="34.9908513" lon="32.4061250">
<ele>339.97</ele>
<time>2015-04-24T18:06:58Z</time>
</trkpt>
<trkpt lat="34.9909348" lon="32.4061105">
<ele>339.45</ele>
<time>2015-04-24T18:06:59Z</time>
</trkpt>
<trkpt lat="34.9910239" lon="32.4060874">
<ele>339.19</ele>
<time>2015-04-24T18:07:00Z</time>
</trkpt>
<trkpt lat="34.9911066" lon="32.4060571">
<ele>339.06</ele>
<time>2015-04-24T18:07:01Z</time>
</trkpt>
<trkpt lat="34.9911938" lon="32.4060165">
<ele>338.49</ele>
<time>2015-04-24T18:07:02Z</time>
</trkpt>
<trkpt lat="34.9912773" lon="32.4059584">
<ele>338.21</ele>
<time>2015-04-24T18:07:03Z</time>
</trkpt>
<trkpt lat="34.9913569" lon="32.4058858">
<ele>337.57</ele>
<time>2015-04-24T18:07:04Z</time>
</trkpt>
<trkpt lat="34.9914300" lon="32.4058179">
<ele>336.25</ele>
<time>2015-04-24T18:07:05Z</time>
</trkpt>
<trkpt lat="34.9915033" lon="32.4057423">
<ele>335.59</ele>
<time>2015-04-24T18:07:06Z</time>
</trkpt>
<trkpt lat="34.9915758" lon="32.4056675">
<ele>334.76</ele>
<time>2015-04-24T18:07:07Z</time>
</trkpt>
<trkpt lat="34.9916486" lon="32.4055826">
<ele>333.84</ele>
<time>2015-04-24T18:07:08Z</time>
</trkpt>
<trkpt lat="34.9917156" lon="32.4054987">
<ele>332.88</ele>
<time>2015-04-24T18:07:09Z</time>
</trkpt>
<trkpt lat="34.9917865" lon="32.4054187">
<ele>332.40</ele>
<time>2015-04-24T18:07:10Z</time>
</trkpt>
<trkpt lat="34.9918564" lon="32.4053402">
<ele>331.66</ele>
<time>2015-04-24T18:07:11Z</time>
</trkpt>
<trkpt lat="34.9919300" lon="32.4052547">
<ele>330.79</ele>
<time>2015-04-24T18:07:12Z</time>
</trkpt>
<trkpt lat="34.9920070" lon="32.4051710">
<ele>329.86</ele>
<time>2015-04-24T18:07:13Z</time>
</trkpt>
<trkpt lat="34.9920839" lon="32.4050790">
<ele>328.89</ele>
<time>2015-04-24T18:07:14Z</time>
</trkpt>
<trkpt lat="34.9921650" lon="32.4049875">
<ele>327.91</ele>
<time>2015-04-24T18:07:15Z</time>
</trkpt>
<trkpt lat="34.9922477" lon="32.4048935">
<ele>326.92</ele>
<time>2015-04-24T18:07:16Z</time>
</trkpt>
<trkpt lat="34.9923354" lon="32.4048145">
<ele>325.92</ele>
<time>2015-04-24T18:07:17Z</time>
</trkpt>
<trkpt lat="34.9924360" lon="32.4047481">
<ele>324.92</ele>
<time>2015-04-24T18:07:18Z</time>
</trkpt>
<trkpt lat="34.9925366" lon="32.4046902">
<ele>323.92</ele>
<time>2015-04-24T18:07:19Z</time>
</trkpt>
<trkpt lat="34.9926499" lon="32.4046281">
<ele>322.92</ele>
<time>2015-04-24T18:07:20Z</time>
</trkpt>
<trkpt lat="34.9927630" lon="32.4045765">
<ele>321.92</ele>
<time>2015-04-24T18:07:21Z</time>
</trkpt>
<trkpt lat="34.9928782" lon="32.4045377">
<ele>320.92</ele>
<time>2015-04-24T18:07:22Z</time>
</trkpt>
<trkpt lat="34.9929932" lon="32.4045038">
<ele>319.92</ele>
<time>2015-04-24T18:07:23Z</time>
</trkpt>
<trkpt lat="34.9931147" lon="32.4044761">
<ele>319.42</ele>
<time>2015-04-24T18:07:24Z</time>
</trkpt>
<trkpt lat="34.9932370" lon="32.4044627">
<ele>318.67</ele>
<time>2015-04-24T18:07:25Z</time>
</trkpt>
<trkpt lat="34.9933630" lon="32.4044539">
<ele>317.80</ele>
<time>2015-04-24T18:07:26Z</time>
</trkpt>
<trkpt lat="34.9934819" lon="32.4044443">
<ele>316.86</ele>
<time>2015-04-24T18:07:27Z</time>
</trkpt>
<trkpt lat="34.9936000" lon="32.4044441">
<ele>315.89</ele>
<time>2015-04-24T18:07:28Z</time>
</trkpt>
<trkpt lat="34.9936954" lon="32.4044346">
<ele>314.91</ele>
<time>2015-04-24T18:07:29Z</time>
</trkpt>
<trkpt lat="34.9937880" lon="32.4044288">
<ele>314.42</ele>
<time>2015-04-24T18:07:30Z</time>
</trkpt>
<trkpt lat="34.9938604" lon="32.4044293">
<ele>313.67</ele>
<time>2015-04-24T18:07:31Z</time>
</trkpt>
<trkpt lat="34.9939412" lon="32.4044311">
<ele>312.80</ele>
<time>2015-04-24T18:07:32Z</time>
</trkpt>
<trkpt lat="34.9940397" lon="32.4044396">
<ele>312.36</ele>
<time>2015-04-24T18:07:33Z</time>
</trkpt>
<trkpt lat="34.9941312" lon="32.4044453">
<ele>311.64</ele>
<time>2015-04-24T18:07:34Z</time>
</trkpt>
<trkpt lat="34.9942290" lon="32.4044545">
<ele>310.78</ele>
<time>2015-04-24T18:07:35Z</time>
</trkpt>
<trkpt lat="34.9943406" lon="32.4044701">
<ele>309.35</ele>
<time>2015-04-24T18:07:36Z</time>
</trkpt>
<trkpt lat="34.9944372" lon="32.4044908">
<ele>308.64</ele>
<time>2015-04-24T18:07:37Z</time>
</trkpt>
<trkpt lat="34.9945472" lon="32.4045138">
<ele>307.78</ele>
<time>2015-04-24T18:07:38Z</time>
</trkpt>
<trkpt lat="34.9946576" lon="32.4045325">
<ele>307.35</ele>
<time>2015-04-24T18:07:39Z</time>
</trkpt>
<trkpt lat="34.9947817" lon="32.4045638">
<ele>306.64</ele>
<time>2015-04-24T18:07:40Z</time>
</trkpt>
<trkpt lat="34.9949002" lon="32.4045899">
<ele>306.28</ele>
<time>2015-04-24T18:07:41Z</time>
</trkpt>
<trkpt lat="34.9950250" lon="32.4046140">
<ele>305.10</ele>
<time>2015-04-24T18:07:42Z</time>
</trkpt>
<trkpt lat="34.9951502" lon="32.4046447">
<ele>303.51</ele>
<time>2015-04-24T18:07:43Z</time>
</trkpt>
<trkpt lat="34.9952828" lon="32.4046692">
<ele>302.22</ele>
<time>2015-04-24T18:07:44Z</time>
</trkpt>
<trkpt lat="34.9954180" lon="32.4046964">
<ele>300.57</ele>
<time>2015-04-24T18:07:45Z</time>
</trkpt>
<trkpt lat="34.9955496" lon="32.4047272">
<ele>298.75</ele>
<time>2015-04-24T18:07:46Z</time>
</trkpt>
<trkpt lat="34.9956769" lon="32.4047542">
<ele>297.34</ele>
<time>2015-04-24T18:07:47Z</time>
</trkpt>
<trkpt lat="34.9958052" lon="32.4047806">
<ele>296.63</ele>
<time>2015-04-24T18:07:48Z</time>
</trkpt>
<trkpt lat="34.9959372" lon="32.4048056">
<ele>295.28</ele>
<time>2015-04-24T18:07:49Z</time>
</trkpt>
<trkpt lat="34.9960732" lon="32.4048283">
<ele>294.10</ele>
<time>2015-04-24T18:07:50Z</time>
</trkpt>
<trkpt lat="34.9962075" lon="32.4048496">
<ele>293.01</ele>
<time>2015-04-24T18:07:51Z</time>
</trkpt>
<trkpt lat="34.9963518" lon="32.4048735">
<ele>291.97</ele>
<time>2015-04-24T18:07:52Z</time>
</trkpt>
<trkpt lat="34.9964872" lon="32.4048938">
<ele>290.95</ele>
<time>2015-04-24T18:07:53Z</time>
</trkpt>
<trkpt lat="34.9966346" lon="32.4049042">
<ele>289.94</ele>
<time>2015-04-24T18:07:54Z</time>
</trkpt>
<trkpt lat="34.9967749" lon="32.4048988">
<ele>288.93</ele>
<time>2015-04-24T18:07:55Z</time>
</trkpt>
<trkpt lat="34.9969281" lon="32.4048993">
<ele>287.43</ele>
<time>2015-04-24T18:07:56Z</time>
</trkpt>
<trkpt lat="34.9970719" lon="32.4048849">
<ele>286.18</ele>
<time>2015-04-24T18:07:57Z</time>
</trkpt>
<trkpt lat="34.9972206" lon="32.4048670">
<ele>284.55</ele>
<time>2015-04-24T18:07:58Z</time>
</trkpt>
<trkpt lat="34.9973630" lon="32.4048503">
<ele>283.24</ele>
<time>2015-04-24T18:07:59Z</time>
</trkpt>
<trkpt lat="34.9974919" lon="32.4048141">
<ele>281.58</ele>
<time>2015-04-24T18:08:00Z</time>
</trkpt>
<trkpt lat="34.9976024" lon="32.4047833">
<ele>280.75</ele>
<time>2015-04-24T18:08:01Z</time>
</trkpt>
<trkpt lat="34.9977200" lon="32.4047499">
<ele>279.84</ele>
<time>2015-04-24T18:08:02Z</time>
</trkpt>
<trkpt lat="34.9978358" lon="32.4047270">
<ele>279.38</ele>
<time>2015-04-24T18:08:03Z</time>
</trkpt>
<trkpt lat="34.9979618" lon="32.4046773">
<ele>277.65</ele>
<time>2015-04-24T18:08:04Z</time>
</trkpt>
<trkpt lat="34.9980833" lon="32.4046229">
<ele>276.29</ele>
<time>2015-04-24T18:08:05Z</time>
</trkpt>
<trkpt lat="34.9981922" lon="32.4045818">
<ele>275.11</ele>
<time>2015-04-24T18:08:06Z</time>
</trkpt>
<trkpt lat="34.9982859" lon="32.4045477">
<ele>274.02</ele>
<time>2015-04-24T18:08:07Z</time>
</trkpt>
<trkpt lat="34.9983796" lon="32.4045073">
<ele>272.97</ele>
<time>2015-04-24T18:08:08Z</time>
</trkpt>
<trkpt lat="34.9984668" lon="32.4044723">
<ele>271.95</ele>
<time>2015-04-24T18:08:09Z</time>
</trkpt>
<trkpt lat="34.9985447" lon="32.4044389">
<ele>271.44</ele>
<time>2015-04-24T18:08:10Z</time>
</trkpt>
<trkpt lat="34.9986268" lon="32.4044139">
<ele>270.68</ele>
<time>2015-04-24T18:08:11Z</time>
</trkpt>
<trkpt lat="34.9987168" lon="32.4043897">
<ele>270.30</ele>
<time>2015-04-24T18:08:12Z</time>
</trkpt>
<trkpt lat="34.9987981" lon="32.4043693">
<ele>269.61</ele>
<time>2015-04-24T18:08:13Z</time>
</trkpt>
<trkpt lat="34.9988859" lon="32.4043359">
<ele>268.77</ele>
<time>2015-04-24T18:08:14Z</time>
</trkpt>
<trkpt lat="34.9989750" lon="32.4043037">
<ele>267.85</ele>
<time>2015-04-24T18:08:15Z</time>
</trkpt>
<trkpt lat="34.9990696" lon="32.4042737">
<ele>266.89</ele>
<time>2015-04-24T18:08:16Z</time>
</trkpt>
<trkpt lat="34.9991654" lon="32.4042523">
<ele>265.91</ele>
<time>2015-04-24T18:08:17Z</time>
</trkpt>
<trkpt lat="34.9992699" lon="32.4042326">
<ele>264.92</ele>
<time>2015-04-24T18:08:18Z</time>
</trkpt>
<trkpt lat="34.9993707" lon="32.4042107">
<ele>263.42</ele>
<time>2015-04-24T18:08:19Z</time>
</trkpt>
<trkpt lat="34.9994864" lon="32.4042099">
<ele>261.67</ele>
<time>2015-04-24T18:08:20Z</time>
</trkpt>
<trkpt lat="34.9995980" lon="32.4042068">
<ele>260.30</ele>
<time>2015-04-24T18:08:21Z</time>
</trkpt>
<trkpt lat="34.9997124" lon="32.4042081">
<ele>259.11</ele>
<time>2015-04-24T18:08:22Z</time>
</trkpt>
<trkpt lat="34.9998245" lon="32.4042124">
<ele>258.02</ele>
<time>2015-04-24T18:08:23Z</time>
</trkpt>
<trkpt lat="34.9999430" lon="32.4042138">
<ele>256.97</ele>
<time>2015-04-24T18:08:24Z</time>
</trkpt>
<trkpt lat="35.0000647" lon="32.4042172">
<ele>255.45</ele>
<time>2015-04-24T18:08:25Z</time>
</trkpt>
<trkpt lat="35.0001837" lon="32.4042244">
<ele>254.19</ele>
<time>2015-04-24T18:08:26Z</time>
</trkpt>
<trkpt lat="35.0002918" lon="32.4042416">
<ele>253.06</ele>
<time>2015-04-24T18:08:27Z</time>
</trkpt>
<trkpt lat="35.0003941" lon="32.4042624">
<ele>251.49</ele>
<time>2015-04-24T18:08:28Z</time>
</trkpt>
<trkpt lat="35.0004954" lon="32.4042912">
<ele>250.21</ele>
<time>2015-04-24T18:08:29Z</time>
</trkpt>
<trkpt lat="35.0005925" lon="32.4043276">
<ele>248.57</ele>
<time>2015-04-24T18:08:30Z</time>
</trkpt>
<trkpt lat="35.0006857" lon="32.4043665">
<ele>247.25</ele>
<time>2015-04-24T18:08:31Z</time>
</trkpt>
<trkpt lat="35.0007798" lon="32.4044054">
<ele>246.09</ele>
<time>2015-04-24T18:08:32Z</time>
</trkpt>
<trkpt lat="35.0008691" lon="32.4044485">
<ele>245.01</ele>
<time>2015-04-24T18:08:33Z</time>
</trkpt>
<trkpt lat="35.0009599" lon="32.4044959">
<ele>244.47</ele>
<time>2015-04-24T18:08:34Z</time>
</trkpt>
<trkpt lat="35.0010455" lon="32.4045400">
<ele>243.70</ele>
<time>2015-04-24T18:08:35Z</time>
</trkpt>
<trkpt lat="35.0011317" lon="32.4045881">
<ele>243.31</ele>
<time>2015-04-24T18:08:36Z</time>
</trkpt>
<trkpt lat="35.0012200" lon="32.4046268">
<ele>242.62</ele>
<time>2015-04-24T18:08:37Z</time>
</trkpt>
<trkpt lat="35.0013062" lon="32.4046577">
<ele>241.77</ele>
<time>2015-04-24T18:08:38Z</time>
</trkpt>
<trkpt lat="35.0014001" lon="32.4046914">
<ele>240.35</ele>
<time>2015-04-24T18:08:39Z</time>
</trkpt>
<trkpt lat="35.0014993" lon="32.4047155">
<ele>239.64</ele>
<time>2015-04-24T18:08:40Z</time>
</trkpt>
<trkpt lat="35.0016039" lon="32.4047460">
<ele>238.78</ele>
<time>2015-04-24T18:08:41Z</time>
</trkpt>
<trkpt lat="35.0017031" lon="32.4047659">
<ele>238.35</ele>
<time>2015-04-24T18:08:42Z</time>
</trkpt>
<trkpt lat="35.0018013" lon="32.4047726">
<ele>238.14</ele>
<time>2015-04-24T18:08:43Z</time>
</trkpt>
<trkpt lat="35.0019117" lon="32.4047764">
<ele>237.03</ele>
<time>2015-04-24T18:08:44Z</time>
</trkpt>
<trkpt lat="35.0020218" lon="32.4047655">
<ele>236.48</ele>
<time>2015-04-24T18:08:45Z</time>
</trkpt>
<trkpt lat="35.0021287" lon="32.4047545">
<ele>235.70</ele>
<time>2015-04-24T18:08:46Z</time>
</trkpt>
<trkpt lat="35.0022348" lon="32.4047426">
<ele>234.81</ele>
<time>2015-04-24T18:08:47Z</time>
</trkpt>
<trkpt lat="35.0023412" lon="32.4047164">
<ele>234.37</ele>
<time>2015-04-24T18:08:48Z</time>
</trkpt>
<trkpt lat="35.0024494" lon="32.4046934">
<ele>234.15</ele>
<time>2015-04-24T18:08:49Z</time>
</trkpt>
<trkpt lat="35.0025590" lon="32.4046661">
<ele>234.04</ele>
<time>2015-04-24T18:08:50Z</time>
</trkpt>
<trkpt lat="35.0026583" lon="32.4046140">
<ele>233.48</ele>
<time>2015-04-24T18:08:51Z</time>
</trkpt>
<trkpt lat="35.0027769" lon="32.4045731">
<ele>233.70</ele>
<time>2015-04-24T18:08:52Z</time>
</trkpt>
<trkpt lat="35.0028862" lon="32.4045248">
<ele>233.31</ele>
<time>2015-04-24T18:08:53Z</time>
</trkpt>
<trkpt lat="35.0029839" lon="32.4044536">
<ele>232.62</ele>
<time>2015-04-24T18:08:54Z</time>
</trkpt>
<trkpt lat="35.0030860" lon="32.4043897">
<ele>231.77</ele>
<time>2015-04-24T18:08:55Z</time>
</trkpt>
<trkpt lat="35.0031909" lon="32.4043333">
<ele>229.35</ele>
<time>2015-04-24T18:08:56Z</time>
</trkpt>
<trkpt lat="35.0032929" lon="32.4042860">
<ele>227.64</ele>
<time>2015-04-24T18:08:57Z</time>
</trkpt>
<trkpt lat="35.0033933" lon="32.4042251">
<ele>226.78</ele>
<time>2015-04-24T18:08:58Z</time>
</trkpt>
<trkpt lat="35.0035004" lon="32.4041687">
<ele>225.35</ele>
<time>2015-04-24T18:08:59Z</time>
</trkpt>
<trkpt lat="35.0036143" lon="32.4041050">
<ele>223.14</ele>
<time>2015-04-24T18:09:00Z</time>
</trkpt>
<trkpt lat="35.0037258" lon="32.4040479">
<ele>221.53</ele>
<time>2015-04-24T18:09:01Z</time>
</trkpt>
<trkpt lat="35.0038449" lon="32.4039850">
<ele>219.73</ele>
<time>2015-04-24T18:09:02Z</time>
</trkpt>
<trkpt lat="35.0039600" lon="32.4039367">
<ele>217.83</ele>
<time>2015-04-24T18:09:03Z</time>
</trkpt>
<trkpt lat="35.0040848" lon="32.4038837">
<ele>216.88</ele>
<time>2015-04-24T18:09:04Z</time>
</trkpt>
<trkpt lat="35.0042055" lon="32.4038281">
<ele>215.90</ele>
<time>2015-04-24T18:09:05Z</time>
</trkpt>
<trkpt lat="35.0043172" lon="32.4037734">
<ele>214.91</ele>
<time>2015-04-24T18:09:06Z</time>
</trkpt>
<trkpt lat="35.0044323" lon="32.4037317">
<ele>213.92</ele>
<time>2015-04-24T18:09:07Z</time>
</trkpt>
<trkpt lat="35.0045591" lon="32.4036991">
<ele>212.42</ele>
<time>2015-04-24T18:09:08Z</time>
</trkpt>
<trkpt lat="35.0046852" lon="32.4036777">
<ele>211.17</ele>
<time>2015-04-24T18:09:09Z</time>
</trkpt>
<trkpt lat="35.0048112" lon="32.4036692">
<ele>209.55</ele>
<time>2015-04-24T18:09:10Z</time>
</trkpt>
<trkpt lat="35.0049387" lon="32.4036651">
<ele>208.24</ele>
<time>2015-04-24T18:09:11Z</time>
</trkpt>
<trkpt lat="35.0050785" lon="32.4036842">
<ele>207.08</ele>
<time>2015-04-24T18:09:12Z</time>
</trkpt>
<trkpt lat="35.0052072" lon="32.4037097">
<ele>206.00</ele>
<time>2015-04-24T18:09:13Z</time>
</trkpt>
<trkpt lat="35.0053368" lon="32.4037322">
<ele>204.96</ele>
<time>2015-04-24T18:09:14Z</time>
</trkpt>
<trkpt lat="35.0054658" lon="32.4037700">
<ele>203.44</ele>
<time>2015-04-24T18:09:15Z</time>
</trkpt>
<trkpt lat="35.0056043" lon="32.4038100">
<ele>202.18</ele>
<time>2015-04-24T18:09:16Z</time>
</trkpt>
<trkpt lat="35.0057377" lon="32.4038578">
<ele>200.55</ele>
<time>2015-04-24T18:09:17Z</time>
</trkpt>
<trkpt lat="35.0058725" lon="32.4039041">
<ele>199.24</ele>
<time>2015-04-24T18:09:18Z</time>
</trkpt>
<trkpt lat="35.0060019" lon="32.4039544">
<ele>198.08</ele>
<time>2015-04-24T18:09:19Z</time>
</trkpt>
<trkpt lat="35.0061358" lon="32.4040110">
<ele>197.00</ele>
<time>2015-04-24T18:09:20Z</time>
</trkpt>
<trkpt lat="35.0062672" lon="32.4040636">
<ele>195.46</ele>
<time>2015-04-24T18:09:21Z</time>
</trkpt>
<trkpt lat="35.0063960" lon="32.4041016">
<ele>194.19</ele>
<time>2015-04-24T18:09:22Z</time>
</trkpt>
<trkpt lat="35.0065296" lon="32.4041480">
<ele>193.06</ele>
<time>2015-04-24T18:09:23Z</time>
</trkpt>
<trkpt lat="35.0066686" lon="32.4041852">
<ele>192.49</ele>
<time>2015-04-24T18:09:24Z</time>
</trkpt>
<trkpt lat="35.0068122" lon="32.4042228">
<ele>191.71</ele>
<time>2015-04-24T18:09:25Z</time>
</trkpt>
<trkpt lat="35.0069573" lon="32.4042484">
<ele>190.82</ele>
<time>2015-04-24T18:09:26Z</time>
</trkpt>
<trkpt lat="35.0070939" lon="32.4042610">
<ele>190.37</ele>
<time>2015-04-24T18:09:27Z</time>
</trkpt>
<trkpt lat="35.0072481" lon="32.4042662">
<ele>190.15</ele>
<time>2015-04-24T18:09:28Z</time>
</trkpt>
<trkpt lat="35.0073924" lon="32.4042525">
<ele>189.04</ele>
<time>2015-04-24T18:09:29Z</time>
</trkpt>
<trkpt lat="35.0075306" lon="32.4042448">
<ele>187.98</ele>
<time>2015-04-24T18:09:30Z</time>
</trkpt>
<trkpt lat="35.0076681" lon="32.4042296">
<ele>186.45</ele>
<time>2015-04-24T18:09:31Z</time>
</trkpt>
<trkpt lat="35.0078152" lon="32.4042142">
<ele>185.19</ele>
<time>2015-04-24T18:09:32Z</time>
</trkpt>
<trkpt lat="35.0079485" lon="32.4041931">
<ele>184.06</ele>
<time>2015-04-24T18:09:33Z</time>
</trkpt>
<trkpt lat="35.0080842" lon="32.4041833">
<ele>183.49</ele>
<time>2015-04-24T18:09:34Z</time>
</trkpt>
<trkpt lat="35.0082161" lon="32.4041672">
<ele>183.21</ele>
<time>2015-04-24T18:09:35Z</time>
</trkpt>
<trkpt lat="35.0083526" lon="32.4041523">
<ele>182.07</ele>
<time>2015-04-24T18:09:36Z</time>
</trkpt>
<trkpt lat="35.0084767" lon="32.4041426">
<ele>181.50</ele>
<time>2015-04-24T18:09:37Z</time>
</trkpt>
<trkpt lat="35.0085945" lon="32.4041262">
<ele>181.21</ele>
<time>2015-04-24T18:09:38Z</time>
</trkpt>
<trkpt lat="35.0087136" lon="32.4041284">
<ele>180.57</ele>
<time>2015-04-24T18:09:39Z</time>
</trkpt>
<trkpt lat="35.0088405" lon="32.4041321">
<ele>180.25</ele>
<time>2015-04-24T18:09:40Z</time>
</trkpt>
<trkpt lat="35.0089490" lon="32.4041228">
<ele>180.09</ele>
<time>2015-04-24T18:09:41Z</time>
</trkpt>
<trkpt lat="35.0090518" lon="32.4041176">
<ele>180.01</ele>
<time>2015-04-24T18:09:42Z</time>
</trkpt>
<trkpt lat="35.0091536" lon="32.4041085">
<ele>179.97</ele>
<time>2015-04-24T18:09:43Z</time>
</trkpt>
<trkpt lat="35.0092499" lon="32.4041149">
<ele>179.45</ele>
<time>2015-04-24T18:09:44Z</time>
</trkpt>
<trkpt lat="35.0093470" lon="32.4041238">
<ele>179.19</ele>
<time>2015-04-24T18:09:45Z</time>
</trkpt>
<trkpt lat="35.0094421" lon="32.4041302">
<ele>179.06</ele>
<time>2015-04-24T18:09:46Z</time>
</trkpt>
<trkpt lat="35.0095297" lon="32.4041422">
<ele>178.99</ele>
<time>2015-04-24T18:09:47Z</time>
</trkpt>
<trkpt lat="35.0096303" lon="32.4041618">
<ele>178.46</ele>
<time>2015-04-24T18:09:48Z</time>
</trkpt>
<trkpt lat="35.0097275" lon="32.4041777">
<ele>178.19</ele>
<time>2015-04-24T18:09:49Z</time>
</trkpt>
<trkpt lat="35.0098165" lon="32.4041977">
<ele>177.06</ele>
<time>2015-04-24T18:09:50Z</time>
</trkpt>
<trkpt lat="35.0099080" lon="32.4042085">
<ele>176.49</ele>
<time>2015-04-24T18:09:51Z</time>
</trkpt>
<trkpt lat="35.0100166" lon="32.4042282">
<ele>176.21</ele>
<time>2015-04-24T18:09:52Z</time>
</trkpt>
<trkpt lat="35.0101209" lon="32.4042464">
<ele>176.07</ele>
<time>2015-04-24T18:09:53Z</time>
</trkpt>
<trkpt lat="35.0102231" lon="32.4042643">
<ele>176.00</ele>
<time>2015-04-24T18:09:54Z</time>
</trkpt>
<trkpt lat="35.0103254" lon="32.4042908">
<ele>175.96</ele>
<time>2015-04-24T18:09:55Z</time>
</trkpt>
<trkpt lat="35.0104357" lon="32.4043129">
<ele>174.94</ele>
<time>2015-04-24T18:09:56Z</time>
</trkpt>
<trkpt lat="35.0105412" lon="32.4043433">
<ele>174.43</ele>
<time>2015-04-24T18:09:57Z</time>
</trkpt>
<trkpt lat="35.0106513" lon="32.4043686">
<ele>173.68</ele>
<time>2015-04-24T18:09:58Z</time>
</trkpt>
<trkpt lat="35.0107616" lon="32.4043904">
<ele>173.30</ele>
<time>2015-04-24T18:09:59Z</time>
</trkpt>
<trkpt lat="35.0108865" lon="32.4044083">
<ele>173.11</ele>
<time>2015-04-24T18:10:00Z</time>
</trkpt>
<trkpt lat="35.0109974" lon="32.4044397">
<ele>172.52</ele>
<time>2015-04-24T18:10:01Z</time>
</trkpt>
<trkpt lat="35.0111131" lon="32.4044685">
<ele>171.22</ele>
<time>2015-04-24T18:10:02Z</time>
</trkpt>
<trkpt lat="35.0112452" lon="32.4045044">
<ele>169.07</ele>
<time>2015-04-24T18:10:03Z</time>
</trkpt>
<trkpt lat="35.0113716" lon="32.4045385">
<ele>167.50</ele>
<time>2015-04-24T18:10:04Z</time>
</trkpt>
<trkpt lat="35.0114868" lon="32.4045648">
<ele>166.21</ele>
<time>2015-04-24T18:10:05Z</time>
</trkpt>
<trkpt lat="35.0115990" lon="32.4045839">
<ele>165.57</ele>
<time>2015-04-24T18:10:06Z</time>
</trkpt>
<trkpt lat="35.0117222" lon="32.4046169">
<ele>164.75</ele>
<time>2015-04-24T18:10:07Z</time>
</trkpt>
<trkpt lat="35.0118463" lon="32.4046459">
<ele>163.84</ele>
<time>2015-04-24T18:10:08Z</time>
</trkpt>
<trkpt lat="35.0119703" lon="32.4046826">
<ele>162.38</ele>
<time>2015-04-24T18:10:09Z</time>
</trkpt>
<trkpt lat="35.0120994" lon="32.4046973">
<ele>161.65</ele>
<time>2015-04-24T18:10:10Z</time>
</trkpt>
<trkpt lat="35.0122366" lon="32.4047243">
<ele>160.29</ele>
<time>2015-04-24T18:10:11Z</time>
</trkpt>
<trkpt lat="35.0123743" lon="32.4047392">
<ele>158.61</ele>
<time>2015-04-24T18:10:12Z</time>
</trkpt>
<trkpt lat="35.0125049" lon="32.4047621">
<ele>156.77</ele>
<time>2015-04-24T18:10:13Z</time>
</trkpt>
<trkpt lat="35.0126344" lon="32.4047930">
<ele>154.85</ele>
<time>2015-04-24T18:10:14Z</time>
</trkpt>
<trkpt lat="35.0127521" lon="32.4048206">
<ele>153.39</ele>
<time>2015-04-24T18:10:15Z</time>
</trkpt>
<trkpt lat="35.0128672" lon="32.4048356">
<ele>153.16</ele>
<time>2015-04-24T18:10:16Z</time>
</trkpt>
<trkpt lat="35.0129925" lon="32.4048623">
<ele>153.04</ele>
<time>2015-04-24T18:10:17Z</time>
</trkpt>
<trkpt lat="35.0131046" lon="32.4048838">
<ele>152.48</ele>
<time>2015-04-24T18:10:18Z</time>
</trkpt>
<trkpt lat="35.0132155" lon="32.4049140">
<ele>151.70</ele>
<time>2015-04-24T18:10:19Z</time>
</trkpt>
<trkpt lat="35.0133233" lon="32.4049407">
<ele>150.81</ele>
<time>2015-04-24T18:10:20Z</time>
</trkpt>
<trkpt lat="35.0134314" lon="32.4049797">
<ele>149.87</ele>
<time>2015-04-24T18:10:21Z</time>
</trkpt>
<trkpt lat="35.0135290" lon="32.4050157">
<ele>149.90</ele>
<time>2015-04-24T18:10:22Z</time>
</trkpt>
<trkpt lat="35.0136285" lon="32.4050640">
<ele>148.91</ele>
<time>2015-04-24T18:10:23Z</time>
</trkpt>
<trkpt lat="35.0137324" lon="32.4051349">
<ele>147.92</ele>
<time>2015-04-24T18:10:24Z</time>
</trkpt>
<trkpt lat="35.0138310" lon="32.4052082">
<ele>146.42</ele>
<time>2015-04-24T18:10:25Z</time>
</trkpt>
<trkpt lat="35.0139326" lon="32.4052948">
<ele>145.17</ele>
<time>2015-04-24T18:10:26Z</time>
</trkpt>
<trkpt lat="35.0140220" lon="32.4053736">
<ele>143.55</ele>
<time>2015-04-24T18:10:27Z</time>
</trkpt>
<trkpt lat="35.0141043" lon="32.4054631">
<ele>142.24</ele>
<time>2015-04-24T18:10:28Z</time>
</trkpt>
<trkpt lat="35.0141730" lon="32.4055365">
<ele>141.08</ele>
<time>2015-04-24T18:10:29Z</time>
</trkpt>
<trkpt lat="35.0142356" lon="32.4056193">
<ele>140.50</ele>
<time>2015-04-24T18:10:30Z</time>
</trkpt>
<trkpt lat="35.0142768" lon="32.4056949">
<ele>139.21</ele>
<time>2015-04-24T18:10:31Z</time>
</trkpt>
<trkpt lat="35.0143219" lon="32.4057667">
<ele>138.57</ele>
<time>2015-04-24T18:10:32Z</time>
</trkpt>
<trkpt lat="35.0143567" lon="32.4058342">
<ele>137.75</ele>
<time>2015-04-24T18:10:33Z</time>
</trkpt>
<trkpt lat="35.0143770" lon="32.4059002">
<ele>136.84</ele>
<time>2015-04-24T18:10:34Z</time>
</trkpt>
<trkpt lat="35.0144035" lon="32.4059532">
<ele>136.38</ele>
<time>2015-04-24T18:10:35Z</time>
</trkpt>
<trkpt lat="35.0144344" lon="32.4060250">
<ele>135.65</ele>
<time>2015-04-24T18:10:36Z</time>
</trkpt>
<trkpt lat="35.0144604" lon="32.4060936">
<ele>134.79</ele>
<time>2015-04-24T18:10:37Z</time>
</trkpt>
<trkpt lat="35.0144935" lon="32.4061703">
<ele>134.36</ele>
<time>2015-04-24T18:10:38Z</time>
</trkpt>
<trkpt lat="35.0145202" lon="32.4062499">
<ele>134.14</ele>
<time>2015-04-24T18:10:39Z</time>
</trkpt>
<trkpt lat="35.0145534" lon="32.4063453">
<ele>133.53</ele>
<time>2015-04-24T18:10:40Z</time>
</trkpt>
<trkpt lat="35.0145877" lon="32.4064392">
<ele>133.23</ele>
<time>2015-04-24T18:10:41Z</time>
</trkpt>
<trkpt lat="35.0146164" lon="32.4065343">
<ele>132.58</ele>
<time>2015-04-24T18:10:42Z</time>
</trkpt>
<trkpt lat="35.0146429" lon="32.4066302">
<ele>132.25</ele>
<time>2015-04-24T18:10:43Z</time>
</trkpt>
<trkpt lat="35.0146726" lon="32.4067374">
<ele>131.59</ele>
<time>2015-04-24T18:10:44Z</time>
</trkpt>
<trkpt lat="35.0147094" lon="32.4068405">
<ele>130.76</ele>
<time>2015-04-24T18:10:45Z</time>
</trkpt>
<trkpt lat="35.0147465" lon="32.4069578">
<ele>130.34</ele>
<time>2015-04-24T18:10:46Z</time>
</trkpt>
<trkpt lat="35.0147762" lon="32.4070685">
<ele>129.63</ele>
<time>2015-04-24T18:10:47Z</time>
</trkpt>
<trkpt lat="35.0148179" lon="32.4071774">
<ele>129.28</ele>
<time>2015-04-24T18:10:48Z</time>
</trkpt>
<trkpt lat="35.0148516" lon="32.4072964">
<ele>128.60</ele>
<time>2015-04-24T18:10:49Z</time>
</trkpt>
<trkpt lat="35.0148880" lon="32.4074103">
<ele>127.76</ele>
<time>2015-04-24T18:10:50Z</time>
</trkpt>
<trkpt lat="35.0149281" lon="32.4075230">
<ele>126.84</ele>
<time>2015-04-24T18:10:51Z</time>
</trkpt>
<trkpt lat="35.0149773" lon="32.4076421">
<ele>126.38</ele>
<time>2015-04-24T18:10:52Z</time>
</trkpt>
<trkpt lat="35.0150240" lon="32.4077620">
<ele>126.15</ele>
<time>2015-04-24T18:10:53Z</time>
</trkpt>
<trkpt lat="35.0150601" lon="32.4078897">
<ele>126.04</ele>
<time>2015-04-24T18:10:54Z</time>
</trkpt>
<trkpt lat="35.0150995" lon="32.4080142">
<ele>125.48</ele>
<time>2015-04-24T18:10:55Z</time>
</trkpt>
<trkpt lat="35.0151433" lon="32.4081472">
<ele>125.20</ele>
<time>2015-04-24T18:10:56Z</time>
</trkpt>
<trkpt lat="35.0151830" lon="32.4082775">
<ele>124.56</ele>
<time>2015-04-24T18:10:57Z</time>
</trkpt>
<trkpt lat="35.0152265" lon="32.4084130">
<ele>123.74</ele>
<time>2015-04-24T18:10:58Z</time>
</trkpt>
<trkpt lat="35.0152721" lon="32.4085500">
<ele>123.33</ele>
<time>2015-04-24T18:10:59Z</time>
</trkpt>
<trkpt lat="35.0153142" lon="32.4086886">
<ele>123.13</ele>
<time>2015-04-24T18:11:00Z</time>
</trkpt>
<trkpt lat="35.0153570" lon="32.4088240">
<ele>122.53</ele>
<time>2015-04-24T18:11:01Z</time>
</trkpt>
<trkpt lat="35.0154097" lon="32.4089475">
<ele>121.73</ele>
<time>2015-04-24T18:11:02Z</time>
</trkpt>
<trkpt lat="35.0154558" lon="32.4090663">
<ele>121.33</ele>
<time>2015-04-24T18:11:03Z</time>
</trkpt>
<trkpt lat="35.0155059" lon="32.4091937">
<ele>120.63</ele>
<time>2015-04-24T18:11:04Z</time>
</trkpt>
<trkpt lat="35.0155669" lon="32.4093103">
<ele>119.78</ele>
<time>2015-04-24T18:11:05Z</time>
</trkpt>
<trkpt lat="35.0156406" lon="32.4094213">
<ele>119.35</ele>
<time>2015-04-24T18:11:06Z</time>
</trkpt>
<trkpt lat="35.0157048" lon="32.4095181">
<ele>118.64</ele>
<time>2015-04-24T18:11:07Z</time>
</trkpt>
<trkpt lat="35.0157768" lon="32.4096062">
<ele>117.78</ele>
<time>2015-04-24T18:11:08Z</time>
</trkpt>
<trkpt lat="35.0158569" lon="32.4096926">
<ele>117.35</ele>
<time>2015-04-24T18:11:09Z</time>
</trkpt>
<trkpt lat="35.0159400" lon="32.4097687">
<ele>117.14</ele>
<time>2015-04-24T18:11:10Z</time>
</trkpt>
<trkpt lat="35.0160296" lon="32.4098316">
<ele>116.53</ele>
<time>2015-04-24T18:11:11Z</time>
</trkpt>
<trkpt lat="35.0161273" lon="32.4098815">
<ele>115.73</ele>
<time>2015-04-24T18:11:12Z</time>
</trkpt>
<trkpt lat="35.0162254" lon="32.4099260">
<ele>114.83</ele>
<time>2015-04-24T18:11:13Z</time>
</trkpt>
<trkpt lat="35.0163232" lon="32.4099643">
<ele>114.38</ele>
<time>2015-04-24T18:11:14Z</time>
</trkpt>
<trkpt lat="35.0164179" lon="32.4099929">
<ele>113.65</ele>
<time>2015-04-24T18:11:15Z</time>
</trkpt>
<trkpt lat="35.0165181" lon="32.4100103">
<ele>113.29</ele>
<time>2015-04-24T18:11:16Z</time>
</trkpt>
<trkpt lat="35.0166225" lon="32.4100286">
<ele>113.11</ele>
<time>2015-04-24T18:11:17Z</time>
</trkpt>
<trkpt lat="35.0167180" lon="32.4100508">
<ele>113.02</ele>
<time>2015-04-24T18:11:18Z</time>
</trkpt>
<trkpt lat="35.0168124" lon="32.4100650">
<ele>112.97</ele>
<time>2015-04-24T18:11:19Z</time>
</trkpt>
<trkpt lat="35.0168971" lon="32.4100713">
<ele>112.45</ele>
<time>2015-04-24T18:11:20Z</time>
</trkpt>
<trkpt lat="35.0169872" lon="32.4100837">
<ele>112.19</ele>
<time>2015-04-24T18:11:21Z</time>
</trkpt>
<trkpt lat="35.0170698" lon="32.4100981">
<ele>112.06</ele>
<time>2015-04-24T18:11:22Z</time>
</trkpt>
<trkpt lat="35.0171527" lon="32.4101170">
<ele>111.99</ele>
<time>2015-04-24T18:11:23Z</time>
</trkpt>
<trkpt lat="35.0172372" lon="32.4101319">
<ele>111.96</ele>
<time>2015-04-24T18:11:24Z</time>
</trkpt>
<trkpt lat="35.0173186" lon="32.4101505">
<ele>111.44</ele>
<time>2015-04-24T18:11:25Z</time>
</trkpt>
<trkpt lat="35.0174002" lon="32.4101538">
<ele>111.18</ele>
<time>2015-04-24T18:11:26Z</time>
</trkpt>
<trkpt lat="35.0174702" lon="32.4101759">
<ele>111.55</ele>
<time>2015-04-24T18:11:27Z</time>
</trkpt>
<trkpt lat="35.0175443" lon="32.4102004">
<ele>111.74</ele>
<time>2015-04-24T18:11:28Z</time>
</trkpt>
<trkpt lat="35.0176125" lon="32.4102297">
<ele>111.33</ele>
<time>2015-04-24T18:11:29Z</time>
</trkpt>
<trkpt lat="35.0176627" lon="32.4102568">
<ele>111.13</ele>
<time>2015-04-24T18:11:30Z</time>
</trkpt>
<trkpt lat="35.0177262" lon="32.4102903">
<ele>111.03</ele>
<time>2015-04-24T18:11:31Z</time>
</trkpt>
<trkpt lat="35.0177967" lon="32.4103256">
<ele>110.98</ele>
<time>2015-04-24T18:11:32Z</time>
</trkpt>
<trkpt lat="35.0178577" lon="32.4103690">
<ele>110.95</ele>
<time>2015-04-24T18:11:33Z</time>
</trkpt>
<trkpt lat="35.0179097" lon="32.4104094">
<ele>110.44</ele>
<time>2015-04-24T18:11:34Z</time>
</trkpt>
<trkpt lat="35.0179581" lon="32.4104491">
<ele>110.18</ele>
<time>2015-04-24T18:11:35Z</time>
</trkpt>
<trkpt lat="35.0180100" lon="32.4104945">
<ele>110.05</ele>
<time>2015-04-24T18:11:36Z</time>
</trkpt>
<trkpt lat="35.0180657" lon="32.4105460">
<ele>109.99</ele>
<time>2015-04-24T18:11:37Z</time>
</trkpt>
<trkpt lat="35.0181240" lon="32.4105840">
<ele>108.96</ele>
<time>2015-04-24T18:11:38Z</time>
</trkpt>
<trkpt lat="35.0181776" lon="32.4106347">
<ele>108.44</ele>
<time>2015-04-24T18:11:39Z</time>
</trkpt>
<trkpt lat="35.0182261" lon="32.4106866">
<ele>108.18</ele>
<time>2015-04-24T18:11:40Z</time>
</trkpt>
<trkpt lat="35.0182775" lon="32.4107464">
<ele>108.05</ele>
<time>2015-04-24T18:11:41Z</time>
</trkpt>
<trkpt lat="35.0183336" lon="32.4108048">
<ele>107.49</ele>
<time>2015-04-24T18:11:42Z</time>
</trkpt>
<trkpt lat="35.0183784" lon="32.4108606">
<ele>106.71</ele>
<time>2015-04-24T18:11:43Z</time>
</trkpt>
<trkpt lat="35.0184270" lon="32.4109166">
<ele>106.32</ele>
<time>2015-04-24T18:11:44Z</time>
</trkpt>
<trkpt lat="35.0184729" lon="32.4109810">
<ele>106.12</ele>
<time>2015-04-24T18:11:45Z</time>
</trkpt>
<trkpt lat="35.0185207" lon="32.4110414">
<ele>106.02</ele>
<time>2015-04-24T18:11:46Z</time>
</trkpt>
<trkpt lat="35.0185544" lon="32.4111029">
<ele>105.97</ele>
<time>2015-04-24T18:11:47Z</time>
</trkpt>
<trkpt lat="35.0185978" lon="32.4111630">
<ele>105.95</ele>
<time>2015-04-24T18:11:48Z</time>
</trkpt>
<trkpt lat="35.0186416" lon="32.4112195">
<ele>105.44</ele>
<time>2015-04-24T18:11:49Z</time>
</trkpt>
<trkpt lat="35.0186858" lon="32.4112874">
<ele>105.18</ele>
<time>2015-04-24T18:11:50Z</time>
</trkpt>
<trkpt lat="35.0187201" lon="32.4113487">
<ele>105.05</ele>
<time>2015-04-24T18:11:51Z</time>
</trkpt>
<trkpt lat="35.0187615" lon="32.4114156">
<ele>104.99</ele>
<time>2015-04-24T18:11:52Z</time>
</trkpt>
<trkpt lat="35.0188019" lon="32.4114805">
<ele>104.96</ele>
<time>2015-04-24T18:11:53Z</time>
</trkpt>
<trkpt lat="35.0188355" lon="32.4115431">
<ele>104.44</ele>
<time>2015-04-24T18:11:54Z</time>
</trkpt>
<trkpt lat="35.0188793" lon="32.4116055">
<ele>104.18</ele>
<time>2015-04-24T18:11:55Z</time>
</trkpt>
<trkpt lat="35.0189260" lon="32.4116734">
<ele>104.05</ele>
<time>2015-04-24T18:11:56Z</time>
</trkpt>
<trkpt lat="35.0189660" lon="32.4117329">
<ele>103.99</ele>
<time>2015-04-24T18:11:57Z</time>
</trkpt>
<trkpt lat="35.0190079" lon="32.4117890">
<ele>103.96</ele>
<time>2015-04-24T18:11:58Z</time>
</trkpt>
<trkpt lat="35.0190454" lon="32.4118546">
<ele>103.94</ele>
<time>2015-04-24T18:11:59Z</time>
</trkpt>
<trkpt lat="35.0190902" lon="32.4119206">
<ele>103.93</ele>
<time>2015-04-24T18:12:00Z</time>
</trkpt>
<trkpt lat="35.0191360" lon="32.4119840">
<ele>103.93</ele>
<time>2015-04-24T18:12:01Z</time>
</trkpt>
<trkpt lat="35.0191772" lon="32.4120507">
<ele>103.93</ele>
<time>2015-04-24T18:12:02Z</time>
</trkpt>
<trkpt lat="35.0192241" lon="32.4121142">
<ele>103.93</ele>
<time>2015-04-24T18:12:03Z</time>
</trkpt>
<trkpt lat="35.0192651" lon="32.4121810">
<ele>103.93</ele>
<time>2015-04-24T18:12:04Z</time>
</trkpt>
<trkpt lat="35.0193054" lon="32.4122442">
<ele>103.93</ele>
<time>2015-04-24T18:12:05Z</time>
</trkpt>
<trkpt lat="35.0193506" lon="32.4123072">
<ele>103.93</ele>
<time>2015-04-24T18:12:06Z</time>
</trkpt>
<trkpt lat="35.0193830" lon="32.4123707">
<ele>104.43</ele>
<time>2015-04-24T18:12:07Z</time>
</trkpt>
<trkpt lat="35.0194358" lon="32.4124400">
<ele>104.68</ele>
<time>2015-04-24T18:12:08Z</time>
</trkpt>
<trkpt lat="35.0194804" lon="32.4125126">
<ele>104.30</ele>
<time>2015-04-24T18:12:09Z</time>
</trkpt>
<trkpt lat="35.0195325" lon="32.4125725">
<ele>104.61</ele>
<time>2015-04-24T18:12:10Z</time>
</trkpt>
<trkpt lat="35.0195847" lon="32.4126364">
<ele>104.27</ele>
<time>2015-04-24T18:12:11Z</time>
</trkpt>
<trkpt lat="35.0196381" lon="32.4127045">
<ele>103.60</ele>
<time>2015-04-24T18:12:12Z</time>
</trkpt>
<trkpt lat="35.0196882" lon="32.4127695">
<ele>102.76</ele>
<time>2015-04-24T18:12:13Z</time>
</trkpt>
<trkpt lat="35.0197372" lon="32.4128331">
<ele>101.84</ele>
<time>2015-04-24T18:12:14Z</time>
</trkpt>
<trkpt lat="35.0197927" lon="32.4128976">
<ele>100.88</ele>
<time>2015-04-24T18:12:15Z</time>
</trkpt>
<trkpt lat="35.0198556" lon="32.4129551">
<ele>100.40</ele>
<time>2015-04-24T18:12:16Z</time>
</trkpt>
<trkpt lat="35.0199110" lon="32.4130111">
<ele>100.16</ele>
<time>2015-04-24T18:12:17Z</time>
</trkpt>
<trkpt lat="35.0199700" lon="32.4130674">
<ele>100.04</ele>
<time>2015-04-24T18:12:18Z</time>
</trkpt>
<trkpt lat="35.0200315" lon="32.4131302">
<ele>99.48</ele>
<time>2015-04-24T18:12:19Z</time>
</trkpt>
<trkpt lat="35.0201002" lon="32.4131858">
<ele>99.20</ele>
<time>2015-04-24T18:12:20Z</time>
</trkpt>
<trkpt lat="35.0201760" lon="32.4132314">
<ele>98.56</ele>
<time>2015-04-24T18:12:21Z</time>
</trkpt>
<trkpt lat="35.0202522" lon="32.4132744">
<ele>98.24</ele>
<time>2015-04-24T18:12:22Z</time>
</trkpt>
<trkpt lat="35.0203198" lon="32.4133230">
<ele>98.08</ele>
<time>2015-04-24T18:12:23Z</time>
</trkpt>
<trkpt lat="35.0203940" lon="32.4133748">
<ele>97.50</ele>
<time>2015-04-24T18:12:24Z</time>
</trkpt>
<trkpt lat="35.0204737" lon="32.4134221">
<ele>97.21</ele>
<time>2015-04-24T18:12:25Z</time>
</trkpt>
<trkpt lat="35.0205589" lon="32.4134675">
<ele>96.57</ele>
<time>2015-04-24T18:12:26Z</time>
</trkpt>
<trkpt lat="35.0206419" lon="32.4135076">
<ele>95.75</ele>
<time>2015-04-24T18:12:27Z</time>
</trkpt>
<trkpt lat="35.0207252" lon="32.4135598">
<ele>94.84</ele>
<time>2015-04-24T18:12:28Z</time>
</trkpt>
<trkpt lat="35.0207988" lon="32.4136006">
<ele>94.88</ele>
<time>2015-04-24T18:12:29Z</time>
</trkpt>
<trkpt lat="35.0208672" lon="32.4136355">
<ele>94.40</ele>
<time>2015-04-24T18:12:30Z</time>
</trkpt>
<trkpt lat="35.0209096" lon="32.4136588">
<ele>94.16</ele>
<time>2015-04-24T18:12:31Z</time>
</trkpt>
<trkpt lat="35.0209670" lon="32.4136885">
<ele>93.54</ele>
<time>2015-04-24T18:12:32Z</time>
</trkpt>
<trkpt lat="35.0210241" lon="32.4137081">
<ele>93.23</ele>
<time>2015-04-24T18:12:33Z</time>
</trkpt>
<trkpt lat="35.0210839" lon="32.4137377">
<ele>92.58</ele>
<time>2015-04-24T18:12:34Z</time>
</trkpt>
<trkpt lat="35.0211375" lon="32.4137648">
<ele>92.25</ele>
<time>2015-04-24T18:12:35Z</time>
</trkpt>
<trkpt lat="35.0211895" lon="32.4137912">
<ele>91.59</ele>
<time>2015-04-24T18:12:36Z</time>
</trkpt>
<trkpt lat="35.0212530" lon="32.4138274">
<ele>91.26</ele>
<time>2015-04-24T18:12:37Z</time>
</trkpt>
<trkpt lat="35.0213119" lon="32.4138557">
<ele>91.09</ele>
<time>2015-04-24T18:12:38Z</time>
</trkpt>
<trkpt lat="35.0213694" lon="32.4138778">
<ele>91.01</ele>
<time>2015-04-24T18:12:39Z</time>
</trkpt>
<trkpt lat="35.0214292" lon="32.4139076">
<ele>90.47</ele>
<time>2015-04-24T18:12:40Z</time>
</trkpt>
<trkpt lat="35.0214866" lon="32.4139403">
<ele>90.20</ele>
<time>2015-04-24T18:12:41Z</time>
</trkpt>
<trkpt lat="35.0215455" lon="32.4139736">
<ele>89.56</ele>
<time>2015-04-24T18:12:42Z</time>
</trkpt>
<trkpt lat="35.0216125" lon="32.4139941">
<ele>89.24</ele>
<time>2015-04-24T18:12:43Z</time>
</trkpt>
<trkpt lat="35.0216680" lon="32.4140322">
<ele>89.08</ele>
<time>2015-04-24T18:12:44Z</time>
</trkpt>
<trkpt lat="35.0217362" lon="32.4140770">
<ele>88.50</ele>
<time>2015-04-24T18:12:45Z</time>
</trkpt>
<trkpt lat="35.0218056" lon="32.4141140">
<ele>87.71</ele>
<time>2015-04-24T18:12:46Z</time>
</trkpt>
<trkpt lat="35.0218768" lon="32.4141592">
<ele>86.82</ele>
<time>2015-04-24T18:12:47Z</time>
</trkpt>
<trkpt lat="35.0219446" lon="32.4141954">
<ele>86.87</ele>
<time>2015-04-24T18:12:48Z</time>
</trkpt>
<trkpt lat="35.0220232" lon="32.4142405">
<ele>86.90</ele>
<time>2015-04-24T18:12:49Z</time>
</trkpt>
<trkpt lat="35.0220914" lon="32.4142737">
<ele>86.41</ele>
<time>2015-04-24T18:12:50Z</time>
</trkpt>
<trkpt lat="35.0221716" lon="32.4143183">
<ele>86.17</ele>
<time>2015-04-24T18:12:51Z</time>
</trkpt>
<trkpt lat="35.0222525" lon="32.4143621">
<ele>85.55</ele>
<time>2015-04-24T18:12:52Z</time>
</trkpt>
<trkpt lat="35.0223247" lon="32.4144022">
<ele>85.24</ele>
<time>2015-04-24T18:12:53Z</time>
</trkpt>
<trkpt lat="35.0224045" lon="32.4144454">
<ele>85.08</ele>
<time>2015-04-24T18:12:54Z</time>
</trkpt>
<trkpt lat="35.0224855" lon="32.4144932">
<ele>84.50</ele>
<time>2015-04-24T18:12:55Z</time>
</trkpt>
<trkpt lat="35.0225761" lon="32.4145455">
<ele>83.71</ele>
<time>2015-04-24T18:12:56Z</time>
</trkpt>
<trkpt lat="35.0226611" lon="32.4145898">
<ele>83.32</ele>
<time>2015-04-24T18:12:57Z</time>
</trkpt>
<trkpt lat="35.0227531" lon="32.4146297">
<ele>82.62</ele>
<time>2015-04-24T18:12:58Z</time>
</trkpt>
<trkpt lat="35.0228312" lon="32.4146768">
<ele>81.77</ele>
<time>2015-04-24T18:12:59Z</time>
</trkpt>
<trkpt lat="35.0229249" lon="32.4147228">
<ele>80.85</ele>
<time>2015-04-24T18:13:00Z</time>
</trkpt>
<trkpt lat="35.0230117" lon="32.4147512">
<ele>81.39</ele>
<time>2015-04-24T18:13:01Z</time>
</trkpt>
<trkpt lat="35.0231056" lon="32.4147906">
<ele>81.16</ele>
<time>2015-04-24T18:13:02Z</time>
</trkpt>
<trkpt lat="35.0231922" lon="32.4148218">
<ele>81.04</ele>
<time>2015-04-24T18:13:03Z</time>
</trkpt>
<trkpt lat="35.0232952" lon="32.4148574">
<ele>80.48</ele>
<time>2015-04-24T18:13:04Z</time>
</trkpt>
<trkpt lat="35.0233768" lon="32.4148813">
<ele>80.20</ele>
<time>2015-04-24T18:13:05Z</time>
</trkpt>
<trkpt lat="35.0234597" lon="32.4149071">
<ele>79.56</ele>
<time>2015-04-24T18:13:06Z</time>
</trkpt>
<trkpt lat="35.0235475" lon="32.4149213">
<ele>78.74</ele>
<time>2015-04-24T18:13:07Z</time>
</trkpt>
<trkpt lat="35.0236288" lon="32.4149372">
<ele>78.33</ele>
<time>2015-04-24T18:13:08Z</time>
</trkpt>
<trkpt lat="35.0237095" lon="32.4149450">
<ele>77.63</ele>
<time>2015-04-24T18:13:09Z</time>
</trkpt>
<trkpt lat="35.0237982" lon="32.4149402">
<ele>77.28</ele>
<time>2015-04-24T18:13:10Z</time>
</trkpt>
<trkpt lat="35.0238751" lon="32.4149351">
<ele>76.10</ele>
<time>2015-04-24T18:13:11Z</time>
</trkpt>
<trkpt lat="35.0239561" lon="32.4149464">
<ele>75.01</ele>
<time>2015-04-24T18:13:12Z</time>
</trkpt>
<trkpt lat="35.0240380" lon="32.4149474">
<ele>73.97</ele>
<time>2015-04-24T18:13:13Z</time>
</trkpt>
<trkpt lat="35.0241225" lon="32.4149404">
<ele>73.45</ele>
<time>2015-04-24T18:13:14Z</time>
</trkpt>
<trkpt lat="35.0242032" lon="32.4149352">
<ele>72.69</ele>
<time>2015-04-24T18:13:15Z</time>
</trkpt>
<trkpt lat="35.0242951" lon="32.4149303">
<ele>71.81</ele>
<time>2015-04-24T18:13:16Z</time>
</trkpt>
<trkpt lat="35.0243804" lon="32.4149216">
<ele>70.87</ele>
<time>2015-04-24T18:13:17Z</time>
</trkpt>
<trkpt lat="35.0244665" lon="32.4149147">
<ele>69.90</ele>
<time>2015-04-24T18:13:18Z</time>
</trkpt>
<trkpt lat="35.0245553" lon="32.4148912">
<ele>69.91</ele>
<time>2015-04-24T18:13:19Z</time>
</trkpt>
<trkpt lat="35.0246449" lon="32.4148725">
<ele>69.42</ele>
<time>2015-04-24T18:13:20Z</time>
</trkpt>
<trkpt lat="35.0247375" lon="32.4148521">
<ele>69.17</ele>
<time>2015-04-24T18:13:21Z</time>
</trkpt>
<trkpt lat="35.0248213" lon="32.4148385">
<ele>68.55</ele>
<time>2015-04-24T18:13:22Z</time>
</trkpt>
<trkpt lat="35.0249033" lon="32.4148111">
<ele>67.74</ele>
<time>2015-04-24T18:13:23Z</time>
</trkpt>
<trkpt lat="35.0249968" lon="32.4147846">
<ele>67.33</ele>
<time>2015-04-24T18:13:24Z</time>
</trkpt>
<trkpt lat="35.0250898" lon="32.4147697">
<ele>66.63</ele>
<time>2015-04-24T18:13:25Z</time>
</trkpt>
<trkpt lat="35.0251861" lon="32.4147486">
<ele>66.28</ele>
<time>2015-04-24T18:13:26Z</time>
</trkpt>
<trkpt lat="35.0252762" lon="32.4147330">
<ele>65.60</ele>
<time>2015-04-24T18:13:27Z</time>
</trkpt>
<trkpt lat="35.0253767" lon="32.4147191">
<ele>64.76</ele>
<time>2015-04-24T18:13:28Z</time>
</trkpt>
<trkpt lat="35.0254742" lon="32.4146926">
<ele>64.84</ele>
<time>2015-04-24T18:13:29Z</time>
</trkpt>
<trkpt lat="35.0255684" lon="32.4146755">
<ele>64.88</ele>
<time>2015-04-24T18:13:30Z</time>
</trkpt>
<trkpt lat="35.0256681" lon="32.4146610">
<ele>64.90</ele>
<time>2015-04-24T18:13:31Z</time>
</trkpt>
<trkpt lat="35.0257698" lon="32.4146462">
<ele>64.41</ele>
<time>2015-04-24T18:13:32Z</time>
</trkpt>
<trkpt lat="35.0258576" lon="32.4146226">
<ele>64.17</ele>
<time>2015-04-24T18:13:33Z</time>
</trkpt>
<trkpt lat="35.0259509" lon="32.4145972">
<ele>63.05</ele>
<time>2015-04-24T18:13:34Z</time>
</trkpt>
<trkpt lat="35.0260424" lon="32.4145791">
<ele>62.49</ele>
<time>2015-04-24T18:13:35Z</time>
</trkpt>
<trkpt lat="35.0261430" lon="32.4145622">
<ele>62.21</ele>
<time>2015-04-24T18:13:36Z</time>
</trkpt>
<trkpt lat="35.0262469" lon="32.4145360">
<ele>61.07</ele>
<time>2015-04-24T18:13:37Z</time>
</trkpt>
<trkpt lat="35.0263348" lon="32.4145192">
<ele>60.50</ele>
<time>2015-04-24T18:13:38Z</time>
</trkpt>
<trkpt lat="35.0264257" lon="32.4145042">
<ele>60.21</ele>
<time>2015-04-24T18:13:39Z</time>
</trkpt>
<trkpt lat="35.0265208" lon="32.4144794">
<ele>59.57</ele>
<time>2015-04-24T18:13:40Z</time>
</trkpt>
<trkpt lat="35.0266171" lon="32.4144669">
<ele>59.25</ele>
<time>2015-04-24T18:13:41Z</time>
</trkpt>
<trkpt lat="35.0267212" lon="32.4144560">
<ele>59.09</ele>
<time>2015-04-24T18:13:42Z</time>
</trkpt>
<trkpt lat="35.0268261" lon="32.4144478">
<ele>59.01</ele>
<time>2015-04-24T18:13:43Z</time>
</trkpt>
<trkpt lat="35.0269381" lon="32.4144256">
<ele>58.97</ele>
<time>2015-04-24T18:13:44Z</time>
</trkpt>
<trkpt lat="35.0270436" lon="32.4144001">
<ele>58.95</ele>
<time>2015-04-24T18:13:45Z</time>
</trkpt>
<trkpt lat="35.0271413" lon="32.4143696">
<ele>58.94</ele>
<time>2015-04-24T18:13:46Z</time>
</trkpt>
<trkpt lat="35.0272502" lon="32.4143534">
<ele>58.93</ele>
<time>2015-04-24T18:13:47Z</time>
</trkpt>
<trkpt lat="35.0273598" lon="32.4143430">
<ele>58.93</ele>
<time>2015-04-24T18:13:48Z</time>
</trkpt>
<trkpt lat="35.0274780" lon="32.4143216">
<ele>58.43</ele>
<time>2015-04-24T18:13:49Z</time>
</trkpt>
<trkpt lat="35.0276027" lon="32.4142997">
<ele>57.68</ele>
<time>2015-04-24T18:13:50Z</time>
</trkpt>
<trkpt lat="35.0277103" lon="32.4142738">
<ele>56.80</ele>
<time>2015-04-24T18:13:51Z</time>
</trkpt>
<trkpt lat="35.0278160" lon="32.4142464">
<ele>56.36</ele>
<time>2015-04-24T18:13:52Z</time>
</trkpt>
<trkpt lat="35.0279175" lon="32.4142126">
<ele>56.14</ele>
<time>2015-04-24T18:13:53Z</time>
</trkpt>
<trkpt lat="35.0280082" lon="32.4141790">
<ele>56.03</ele>
<time>2015-04-24T18:13:54Z</time>
</trkpt>
<trkpt lat="35.0280781" lon="32.4141553">
<ele>55.48</ele>
<time>2015-04-24T18:13:55Z</time>
</trkpt>
<trkpt lat="35.0281410" lon="32.4141396">
<ele>55.20</ele>
<time>2015-04-24T18:13:56Z</time>
</trkpt>
<trkpt lat="35.0281909" lon="32.4141263">
<ele>55.06</ele>
<time>2015-04-24T18:13:57Z</time>
</trkpt>
<trkpt lat="35.0282507" lon="32.4141084">
<ele>54.46</ele>
<time>2015-04-24T18:13:59Z</time>
</trkpt>
<trkpt lat="35.0283170" lon="32.4141057">
<ele>53.12</ele>
<time>2015-04-24T18:14:02Z</time>
</trkpt>
<trkpt lat="35.0282812" lon="32.4141450">
<ele>50.50</ele>
<time>2015-04-24T18:14:41Z</time>
</trkpt>
<trkpt lat="35.0282335" lon="32.4141636">
<ele>50.65</ele>
<time>2015-04-24T18:14:45Z</time>
</trkpt>
<trkpt lat="35.0281761" lon="32.4141852">
<ele>51.89</ele>
<time>2015-04-24T18:14:48Z</time>
</trkpt>
<trkpt lat="35.0281162" lon="32.4141999">
<ele>51.92</ele>
<time>2015-04-24T18:14:50Z</time>
</trkpt>
<trkpt lat="35.0280541" lon="32.4142142">
<ele>52.42</ele>
<time>2015-04-24T18:14:52Z</time>
</trkpt>
<trkpt lat="35.0279951" lon="32.4142285">
<ele>53.55</ele>
<time>2015-04-24T18:14:54Z</time>
</trkpt>
<trkpt lat="35.0279318" lon="32.4142402">
<ele>53.33</ele>
<time>2015-04-24T18:14:56Z</time>
</trkpt>
<trkpt lat="35.0278660" lon="32.4142500">
<ele>53.03</ele>
<time>2015-04-24T18:14:58Z</time>
</trkpt>
<trkpt lat="35.0277995" lon="32.4142677">
<ele>53.70</ele>
<time>2015-04-24T18:15:00Z</time>
</trkpt>
<trkpt lat="35.0277354" lon="32.4142873">
<ele>53.87</ele>
<time>2015-04-24T18:15:02Z</time>
</trkpt>
<trkpt lat="35.0276734" lon="32.4143028">
<ele>53.66</ele>
<time>2015-04-24T18:15:04Z</time>
</trkpt>
<trkpt lat="35.0276106" lon="32.4143133">
<ele>53.11</ele>
<time>2015-04-24T18:15:06Z</time>
</trkpt>
<trkpt lat="35.0275485" lon="32.4143244">
<ele>53.47</ele>
<time>2015-04-24T18:15:08Z</time>
</trkpt>
<trkpt lat="35.0274867" lon="32.4143323">
<ele>53.81</ele>
<time>2015-04-24T18:15:10Z</time>
</trkpt>
<trkpt lat="35.0274241" lon="32.4143425">
<ele>53.90</ele>
<time>2015-04-24T18:15:12Z</time>
</trkpt>
<trkpt lat="35.0273645" lon="32.4143548">
<ele>54.67</ele>
<time>2015-04-24T18:15:14Z</time>
</trkpt>
<trkpt lat="35.0273173" lon="32.4143740">
<ele>54.86</ele>
<time>2015-04-24T18:15:16Z</time>
</trkpt>
<trkpt lat="35.0272576" lon="32.4144065">
<ele>54.36</ele>
<time>2015-04-24T18:15:38Z</time>
</trkpt>
<trkpt lat="35.0271928" lon="32.4144161">
<ele>54.78</ele>
<time>2015-04-24T18:15:40Z</time>
</trkpt>
<trkpt lat="35.0271270" lon="32.4144385">
<ele>54.64</ele>
<time>2015-04-24T18:15:42Z</time>
</trkpt>
<trkpt lat="35.0270641" lon="32.4144629">
<ele>55.10</ele>
<time>2015-04-24T18:15:44Z</time>
</trkpt>
<trkpt lat="35.0270085" lon="32.4144817">
<ele>55.22</ele>
<time>2015-04-24T18:15:46Z</time>
</trkpt>
<trkpt lat="35.0269531" lon="32.4144888">
<ele>55.25</ele>
<time>2015-04-24T18:15:48Z</time>
</trkpt>
<trkpt lat="35.0268984" lon="32.4144968">
<ele>56.26</ele>
<time>2015-04-24T18:15:50Z</time>
</trkpt>
<trkpt lat="35.0268408" lon="32.4145080">
<ele>56.76</ele>
<time>2015-04-24T18:15:52Z</time>
</trkpt>
<trkpt lat="35.0267864" lon="32.4145188">
<ele>56.88</ele>
<time>2015-04-24T18:15:54Z</time>
</trkpt>
<trkpt lat="35.0267352" lon="32.4145402">
<ele>56.91</ele>
<time>2015-04-24T18:15:56Z</time>
</trkpt>
<trkpt lat="35.0266903" lon="32.4145605">
<ele>56.17</ele>
<time>2015-04-24T18:15:58Z</time>
</trkpt>
<trkpt lat="35.0266281" lon="32.4145696">
<ele>55.96</ele>
<time>2015-04-24T18:16:01Z</time>
</trkpt>
<trkpt lat="35.0265702" lon="32.4145840">
<ele>56.80</ele>
<time>2015-04-24T18:16:04Z</time>
</trkpt>
<trkpt lat="35.0265081" lon="32.4145889">
<ele>56.16</ele>
<time>2015-04-24T18:16:07Z</time>
</trkpt>
<trkpt lat="35.0264600" lon="32.4145964">
<ele>56.23</ele>
<time>2015-04-24T18:16:09Z</time>
</trkpt>
<trkpt lat="35.0264066" lon="32.4146055">
<ele>56.00</ele>
<time>2015-04-24T18:16:11Z</time>
</trkpt>
<trkpt lat="35.0263488" lon="32.4146207">
<ele>56.69</ele>
<time>2015-04-24T18:16:13Z</time>
</trkpt>
<trkpt lat="35.0262931" lon="32.4146403">
<ele>56.87</ele>
<time>2015-04-24T18:16:15Z</time>
</trkpt>
<trkpt lat="35.0262362" lon="32.4146523">
<ele>56.16</ele>
<time>2015-04-24T18:16:17Z</time>
</trkpt>
<trkpt lat="35.0261780" lon="32.4146539">
<ele>56.73</ele>
<time>2015-04-24T18:16:19Z</time>
</trkpt>
<trkpt lat="35.0261206" lon="32.4146514">
<ele>57.63</ele>
<time>2015-04-24T18:16:21Z</time>
</trkpt>
<trkpt lat="35.0260701" lon="32.4146434">
<ele>57.60</ele>
<time>2015-04-24T18:16:23Z</time>
</trkpt>
<trkpt lat="35.0260188" lon="32.4146424">
<ele>57.84</ele>
<time>2015-04-24T18:16:25Z</time>
</trkpt>
<trkpt lat="35.0259669" lon="32.4146505">
<ele>57.40</ele>
<time>2015-04-24T18:16:27Z</time>
</trkpt>
<trkpt lat="35.0259125" lon="32.4146606">
<ele>57.54</ele>
<time>2015-04-24T18:16:29Z</time>
</trkpt>
<trkpt lat="35.0258613" lon="32.4146674">
<ele>57.83</ele>
<time>2015-04-24T18:16:31Z</time>
</trkpt>
<trkpt lat="35.0258086" lon="32.4146745">
<ele>57.90</ele>
<time>2015-04-24T18:16:33Z</time>
</trkpt>
<trkpt lat="35.0257624" lon="32.4146958">
<ele>59.17</ele>
<time>2015-04-24T18:16:35Z</time>
</trkpt>
<trkpt lat="35.0257377" lon="32.4147420">
<ele>60.24</ele>
<time>2015-04-24T18:16:37Z</time>
</trkpt>
<trkpt lat="35.0257478" lon="32.4148136">
<ele>60.84</ele>
<time>2015-04-24T18:16:40Z</time>
</trkpt>
<trkpt lat="35.0257664" lon="32.4148658">
<ele>60.65</ele>
<time>2015-04-24T18:16:42Z</time>
</trkpt>
<trkpt lat="35.0257926" lon="32.4149233">
<ele>59.61</ele>
<time>2015-04-24T18:16:44Z</time>
</trkpt>
<trkpt lat="35.0258178" lon="32.4149835">
<ele>59.60</ele>
<time>2015-04-24T18:16:46Z</time>
</trkpt>
<trkpt lat="35.0258398" lon="32.4150483">
<ele>59.84</ele>
<time>2015-04-24T18:16:48Z</time>
</trkpt>
<trkpt lat="35.0258583" lon="32.4151131">
<ele>59.90</ele>
<time>2015-04-24T18:16:50Z</time>
</trkpt>
<trkpt lat="35.0258789" lon="32.4151773">
<ele>59.92</ele>
<time>2015-04-24T18:16:52Z</time>
</trkpt>
<trkpt lat="35.0258969" lon="32.4152413">
<ele>59.92</ele>
<time>2015-04-24T18:16:54Z</time>
</trkpt>
<trkpt lat="35.0259123" lon="32.4153053">
<ele>59.67</ele>
<time>2015-04-24T18:16:56Z</time>
</trkpt>
<trkpt lat="35.0259278" lon="32.4153700">
<ele>59.86</ele>
<time>2015-04-24T18:16:58Z</time>
</trkpt>
<trkpt lat="35.0259428" lon="32.4154346">
<ele>60.16</ele>
<time>2015-04-24T18:17:00Z</time>
</trkpt>
<trkpt lat="35.0259581" lon="32.4155061">
<ele>60.23</ele>
<time>2015-04-24T18:17:02Z</time>
</trkpt>
<trkpt lat="35.0259837" lon="32.4155924">
<ele>60.00</ele>
<time>2015-04-24T18:17:04Z</time>
</trkpt>
<trkpt lat="35.0260095" lon="32.4156876">
<ele>59.94</ele>
<time>2015-04-24T18:17:06Z</time>
</trkpt>
<trkpt lat="35.0260305" lon="32.4157853">
<ele>59.93</ele>
<time>2015-04-24T18:17:08Z</time>
</trkpt>
<trkpt lat="35.0260628" lon="32.4158801">
<ele>59.93</ele>
<time>2015-04-24T18:17:10Z</time>
</trkpt>
<trkpt lat="35.0261046" lon="32.4159747">
<ele>61.18</ele>
<time>2015-04-24T18:17:12Z</time>
</trkpt>
<trkpt lat="35.0261226" lon="32.4160253">
<ele>61.55</ele>
<time>2015-04-24T18:17:13Z</time>
</trkpt>
<trkpt lat="35.0261512" lon="32.4161272">
<ele>62.33</ele>
<time>2015-04-24T18:17:15Z</time>
</trkpt>
<trkpt lat="35.0261686" lon="32.4161782">
<ele>62.63</ele>
<time>2015-04-24T18:17:16Z</time>
</trkpt>
<trkpt lat="35.0262050" lon="32.4162763">
<ele>62.35</ele>
<time>2015-04-24T18:17:18Z</time>
</trkpt>
<trkpt lat="35.0262469" lon="32.4163707">
<ele>62.03</ele>
<time>2015-04-24T18:17:20Z</time>
</trkpt>
<trkpt lat="35.0262909" lon="32.4164587">
<ele>61.20</ele>
<time>2015-04-24T18:17:22Z</time>
</trkpt>
<trkpt lat="35.0263322" lon="32.4165477">
<ele>60.24</ele>
<time>2015-04-24T18:17:24Z</time>
</trkpt>
<trkpt lat="35.0263731" lon="32.4166352">
<ele>60.50</ele>
<time>2015-04-24T18:17:26Z</time>
</trkpt>
<trkpt lat="35.0264128" lon="32.4167131">
<ele>60.82</ele>
<time>2015-04-24T18:17:28Z</time>
</trkpt>
<trkpt lat="35.0264411" lon="32.4167766">
<ele>60.90</ele>
<time>2015-04-24T18:17:30Z</time>
</trkpt>
<trkpt lat="35.0264597" lon="32.4168321">
<ele>60.67</ele>
<time>2015-04-24T18:17:32Z</time>
</trkpt>
<trkpt lat="35.0264858" lon="32.4168892">
<ele>60.86</ele>
<time>2015-04-24T18:17:34Z</time>
</trkpt>
<trkpt lat="35.0265137" lon="32.4169558">
<ele>60.41</ele>
<time>2015-04-24T18:17:36Z</time>
</trkpt>
<trkpt lat="35.0265522" lon="32.4170242">
<ele>60.30</ele>
<time>2015-04-24T18:17:38Z</time>
</trkpt>
<trkpt lat="35.0265936" lon="32.4170960">
<ele>60.02</ele>
<time>2015-04-24T18:17:40Z</time>
</trkpt>
<trkpt lat="35.0266436" lon="32.4171657">
<ele>59.95</ele>
<time>2015-04-24T18:17:42Z</time>
</trkpt>
<trkpt lat="35.0267053" lon="32.4172249">
<ele>59.18</ele>
<time>2015-04-24T18:17:44Z</time>
</trkpt>
<trkpt lat="35.0268196" lon="32.4172661">
<ele>57.74</ele>
<time>2015-04-24T18:17:46Z</time>
</trkpt>
<trkpt lat="35.0268818" lon="32.4172927">
<ele>57.33</ele>
<time>2015-04-24T18:17:47Z</time>
</trkpt>
<trkpt lat="35.0269508" lon="32.4173265">
<ele>57.13</ele>
<time>2015-04-24T18:17:48Z</time>
</trkpt>
<trkpt lat="35.0270163" lon="32.4173519">
<ele>56.53</ele>
<time>2015-04-24T18:17:49Z</time>
</trkpt>
<trkpt lat="35.0270807" lon="32.4173756">
<ele>55.23</ele>
<time>2015-04-24T18:17:50Z</time>
</trkpt>
<trkpt lat="35.0271431" lon="32.4174167">
<ele>54.58</ele>
<time>2015-04-24T18:17:51Z</time>
</trkpt>
<trkpt lat="35.0272174" lon="32.4174503">
<ele>53.75</ele>
<time>2015-04-24T18:17:52Z</time>
</trkpt>
<trkpt lat="35.0272776" lon="32.4174872">
<ele>52.84</ele>
<time>2015-04-24T18:17:53Z</time>
</trkpt>
<trkpt lat="35.0273294" lon="32.4175384">
<ele>51.88</ele>
<time>2015-04-24T18:17:54Z</time>
</trkpt>
<trkpt lat="35.0273939" lon="32.4175929">
<ele>50.90</ele>
<time>2015-04-24T18:17:55Z</time>
</trkpt>
<trkpt lat="35.0274502" lon="32.4176483">
<ele>49.91</ele>
<time>2015-04-24T18:17:56Z</time>
</trkpt>
<trkpt lat="35.0275027" lon="32.4177123">
<ele>48.92</ele>
<time>2015-04-24T18:17:57Z</time>
</trkpt>
<trkpt lat="35.0275652" lon="32.4177718">
<ele>47.92</ele>
<time>2015-04-24T18:17:58Z</time>
</trkpt>
<trkpt lat="35.0276283" lon="32.4178381">
<ele>46.92</ele>
<time>2015-04-24T18:17:59Z</time>
</trkpt>
<trkpt lat="35.0276863" lon="32.4179001">
<ele>45.92</ele>
<time>2015-04-24T18:18:00Z</time>
</trkpt>
<trkpt lat="35.0277446" lon="32.4179564">
<ele>44.92</ele>
<time>2015-04-24T18:18:01Z</time>
</trkpt>
<trkpt lat="35.0277907" lon="32.4180260">
<ele>43.92</ele>
<time>2015-04-24T18:18:02Z</time>
</trkpt>
<trkpt lat="35.0278370" lon="32.4180894">
<ele>42.42</ele>
<time>2015-04-24T18:18:03Z</time>
</trkpt>
<trkpt lat="35.0278908" lon="32.4181531">
<ele>41.67</ele>
<time>2015-04-24T18:18:04Z</time>
</trkpt>
<trkpt lat="35.0279273" lon="32.4182066">
<ele>41.30</ele>
<time>2015-04-24T18:18:05Z</time>
</trkpt>
<trkpt lat="35.0279583" lon="32.4182567">
<ele>40.61</ele>
<time>2015-04-24T18:18:06Z</time>
</trkpt>
<trkpt lat="35.0279938" lon="32.4183102">
<ele>40.77</ele>
<time>2015-04-24T18:18:07Z</time>
</trkpt>
<trkpt lat="35.0280187" lon="32.4183676">
<ele>40.35</ele>
<time>2015-04-24T18:18:08Z</time>
</trkpt>
<trkpt lat="35.0280583" lon="32.4184417">
<ele>40.03</ele>
<time>2015-04-24T18:18:10Z</time>
</trkpt>
<trkpt lat="35.0281092" lon="32.4184653">
<ele>39.95</ele>
<time>2015-04-24T18:18:12Z</time>
</trkpt>
<trkpt lat="35.0281725" lon="32.4184572">
<ele>39.68</ele>
<time>2015-04-24T18:18:14Z</time>
</trkpt>
<trkpt lat="35.0282492" lon="32.4184508">
<ele>40.61</ele>
<time>2015-04-24T18:18:16Z</time>
</trkpt>
<trkpt lat="35.0283150" lon="32.4184154">
<ele>40.85</ele>
<time>2015-04-24T18:18:18Z</time>
</trkpt>
<trkpt lat="35.0283985" lon="32.4183772">
<ele>39.91</ele>
<time>2015-04-24T18:18:20Z</time>
</trkpt>
<trkpt lat="35.0284575" lon="32.4183421">
<ele>39.42</ele>
<time>2015-04-24T18:18:21Z</time>
</trkpt>
<trkpt lat="35.0285020" lon="32.4183017">
<ele>38.67</ele>
<time>2015-04-24T18:18:22Z</time>
</trkpt>
<trkpt lat="35.0285410" lon="32.4182632">
<ele>37.80</ele>
<time>2015-04-24T18:18:23Z</time>
</trkpt>
<trkpt lat="35.0285783" lon="32.4182146">
<ele>36.36</ele>
<time>2015-04-24T18:18:24Z</time>
</trkpt>
<trkpt lat="35.0286188" lon="32.4181573">
<ele>34.14</ele>
<time>2015-04-24T18:18:25Z</time>
</trkpt>
<trkpt lat="35.0286454" lon="32.4181071">
<ele>33.53</ele>
<time>2015-04-24T18:18:26Z</time>
</trkpt>
<trkpt lat="35.0286833" lon="32.4180595">
<ele>32.73</ele>
<time>2015-04-24T18:18:27Z</time>
</trkpt>
<trkpt lat="35.0287136" lon="32.4180183">
<ele>32.33</ele>
<time>2015-04-24T18:18:28Z</time>
</trkpt>
<trkpt lat="35.0287666" lon="32.4179710">
<ele>30.53</ele>
<time>2015-04-24T18:18:30Z</time>
</trkpt>
<trkpt lat="35.0288216" lon="32.4179556">
<ele>31.33</ele>
<time>2015-04-24T18:18:32Z</time>
</trkpt>
<trkpt lat="35.0288708" lon="32.4179738">
<ele>32.13</ele>
<time>2015-04-24T18:18:33Z</time>
</trkpt>
<trkpt lat="35.0289270" lon="32.4180124">
<ele>31.98</ele>
<time>2015-04-24T18:18:35Z</time>
</trkpt>
<trkpt lat="35.0289591" lon="32.4180543">
<ele>31.45</ele>
<time>2015-04-24T18:18:36Z</time>
</trkpt>
<trkpt lat="35.0289993" lon="32.4181314">
<ele>30.56</ele>
<time>2015-04-24T18:18:38Z</time>
</trkpt>
<trkpt lat="35.0290399" lon="32.4182187">
<ele>30.83</ele>
<time>2015-04-24T18:18:40Z</time>
</trkpt>
<trkpt lat="35.0290736" lon="32.4183089">
<ele>30.90</ele>
<time>2015-04-24T18:18:42Z</time>
</trkpt>
<trkpt lat="35.0291034" lon="32.4184040">
<ele>30.42</ele>
<time>2015-04-24T18:18:44Z</time>
</trkpt>
<trkpt lat="35.0291422" lon="32.4184936">
<ele>29.30</ele>
<time>2015-04-24T18:18:46Z</time>
</trkpt>
<trkpt lat="35.0291852" lon="32.4185793">
<ele>29.02</ele>
<time>2015-04-24T18:18:48Z</time>
</trkpt>
<trkpt lat="35.0292251" lon="32.4186684">
<ele>27.70</ele>
<time>2015-04-24T18:18:50Z</time>
</trkpt>
<trkpt lat="35.0292598" lon="32.4187237">
<ele>27.81</ele>
<time>2015-04-24T18:18:51Z</time>
</trkpt>
<trkpt lat="35.0292831" lon="32.4187875">
<ele>27.37</ele>
<time>2015-04-24T18:18:52Z</time>
</trkpt>
<trkpt lat="35.0293059" lon="32.4188506">
<ele>26.65</ele>
<time>2015-04-24T18:18:53Z</time>
</trkpt>
<trkpt lat="35.0293371" lon="32.4189566">
<ele>26.11</ele>
<time>2015-04-24T18:18:55Z</time>
</trkpt>
<trkpt lat="35.0293775" lon="32.4190476">
<ele>26.72</ele>
<time>2015-04-24T18:18:57Z</time>
</trkpt>
<trkpt lat="35.0294111" lon="32.4191236">
<ele>26.87</ele>
<time>2015-04-24T18:18:59Z</time>
</trkpt>
<trkpt lat="35.0294527" lon="32.4191928">
<ele>26.91</ele>
<time>2015-04-24T18:19:01Z</time>
</trkpt>
<trkpt lat="35.0294887" lon="32.4192287">
<ele>27.92</ele>
<time>2015-04-24T18:19:02Z</time>
</trkpt>
<trkpt lat="35.0295440" lon="32.4192926">
<ele>28.17</ele>
<time>2015-04-24T18:19:04Z</time>
</trkpt>
<trkpt lat="35.0295950" lon="32.4193455">
<ele>28.74</ele>
<time>2015-04-24T18:19:06Z</time>
</trkpt>
<trkpt lat="35.0296485" lon="32.4193948">
<ele>28.88</ele>
<time>2015-04-24T18:19:08Z</time>
</trkpt>
<trkpt lat="35.0297008" lon="32.4194503">
<ele>29.16</ele>
<time>2015-04-24T18:19:10Z</time>
</trkpt>
<trkpt lat="35.0297572" lon="32.4195149">
<ele>28.98</ele>
<time>2015-04-24T18:19:12Z</time>
</trkpt>
<trkpt lat="35.0298151" lon="32.4195763">
<ele>29.69</ele>
<time>2015-04-24T18:19:14Z</time>
</trkpt>
<trkpt lat="35.0298772" lon="32.4196331">
<ele>29.87</ele>
<time>2015-04-24T18:19:16Z</time>
</trkpt>
<trkpt lat="35.0299380" lon="32.4196902">
<ele>29.91</ele>
<time>2015-04-24T18:19:18Z</time>
</trkpt>
<trkpt lat="35.0299930" lon="32.4197502">
<ele>30.42</ele>
<time>2015-04-24T18:19:20Z</time>
</trkpt>
<trkpt lat="35.0300439" lon="32.4198125">
<ele>30.80</ele>
<time>2015-04-24T18:19:22Z</time>
</trkpt>
<trkpt lat="35.0300901" lon="32.4198719">
<ele>30.89</ele>
<time>2015-04-24T18:19:24Z</time>
</trkpt>
<trkpt lat="35.0301332" lon="32.4199290">
<ele>30.92</ele>
<time>2015-04-24T18:19:26Z</time>
</trkpt>
<trkpt lat="35.0301683" lon="32.4199831">
<ele>31.67</ele>
<time>2015-04-24T18:19:28Z</time>
</trkpt>
<trkpt lat="35.0302059" lon="32.4200334">
<ele>32.03</ele>
<time>2015-04-24T18:19:32Z</time>
</trkpt>
<trkpt lat="35.0301694" lon="32.4200753">
<ele>31.97</ele>
<time>2015-04-24T18:19:43Z</time>
</trkpt>
<trkpt lat="35.0301329" lon="32.4201095">
<ele>31.37</ele>
<time>2015-04-24T18:19:51Z</time>
</trkpt>
<trkpt lat="35.0300891" lon="32.4200918">
<ele>32.49</ele>
<time>2015-04-24T18:20:54Z</time>
</trkpt>
<trkpt lat="35.0301346" lon="32.4200905">
<ele>34.76</ele>
<time>2015-04-24T18:22:15Z</time>
</trkpt>
<trkpt lat="35.0301797" lon="32.4200916">
<ele>35.92</ele>
<time>2015-04-24T18:23:11Z</time>
</trkpt>
<trkpt lat="35.0301849" lon="32.4201461">
<ele>31.93</ele>
<time>2015-04-24T18:28:18Z</time>
</trkpt>
<trkpt lat="35.0301736" lon="32.4200905">
<ele>32.92</ele>
<time>2015-04-24T18:29:27Z</time>
</trkpt>
<trkpt lat="35.0301452" lon="32.4201340">
<ele>32.93</ele>
<time>2015-04-24T18:33:53Z</time>
</trkpt>
<trkpt lat="35.0301897" lon="32.4201528">
<ele>33.49</ele>
<time>2015-04-24T18:34:19Z</time>
</trkpt>
<trkpt lat="35.0302425" lon="32.4202027">
<ele>33.87</ele>
<time>2015-04-24T18:34:22Z</time>
</trkpt>
<trkpt lat="35.0302745" lon="32.4202644">
<ele>33.91</ele>
<time>2015-04-24T18:34:24Z</time>
</trkpt>
<trkpt lat="35.0303052" lon="32.4203339">
<ele>33.17</ele>
<time>2015-04-24T18:34:26Z</time>
</trkpt>
<trkpt lat="35.0303344" lon="32.4203985">
<ele>33.49</ele>
<time>2015-04-24T18:34:28Z</time>
</trkpt>
<trkpt lat="35.0303558" lon="32.4204583">
<ele>33.07</ele>
<time>2015-04-24T18:34:30Z</time>
</trkpt>
<trkpt lat="35.0303734" lon="32.4205093">
<ele>32.96</ele>
<time>2015-04-24T18:34:32Z</time>
</trkpt>
<trkpt lat="35.0303936" lon="32.4205607">
<ele>32.43</ele>
<time>2015-04-24T18:34:34Z</time>
</trkpt>
<trkpt lat="35.0304104" lon="32.4206133">
<ele>32.05</ele>
<time>2015-04-24T18:34:36Z</time>
</trkpt>
<trkpt lat="35.0304316" lon="32.4206671">
<ele>32.71</ele>
<time>2015-04-24T18:34:38Z</time>
</trkpt>
<trkpt lat="35.0304537" lon="32.4207227">
<ele>32.87</ele>
<time>2015-04-24T18:34:40Z</time>
</trkpt>
<trkpt lat="35.0304756" lon="32.4207780">
<ele>32.91</ele>
<time>2015-04-24T18:34:42Z</time>
</trkpt>
<trkpt lat="35.0305021" lon="32.4208281">
<ele>32.42</ele>
<time>2015-04-24T18:34:44Z</time>
</trkpt>
<trkpt lat="35.0305212" lon="32.4208838">
<ele>32.80</ele>
<time>2015-04-24T18:34:46Z</time>
</trkpt>
<trkpt lat="35.0305453" lon="32.4209422">
<ele>32.64</ele>
<time>2015-04-24T18:34:48Z</time>
</trkpt>
<trkpt lat="35.0305682" lon="32.4210003">
<ele>32.35</ele>
<time>2015-04-24T18:34:50Z</time>
</trkpt>
<trkpt lat="35.0305924" lon="32.4210610">
<ele>32.78</ele>
<time>2015-04-24T18:34:52Z</time>
</trkpt>
<trkpt lat="35.0306148" lon="32.4211193">
<ele>32.89</ele>
<time>2015-04-24T18:34:54Z</time>
</trkpt>
<trkpt lat="35.0306338" lon="32.4211813">
<ele>32.42</ele>
<time>2015-04-24T18:34:56Z</time>
</trkpt>
<trkpt lat="35.0306520" lon="32.4212444">
<ele>32.05</ele>
<time>2015-04-24T18:34:58Z</time>
</trkpt>
<trkpt lat="35.0306681" lon="32.4213077">
<ele>31.71</ele>
<time>2015-04-24T18:35:00Z</time>
</trkpt>
<trkpt lat="35.0306893" lon="32.4213693">
<ele>31.87</ele>
<time>2015-04-24T18:35:02Z</time>
</trkpt>
<trkpt lat="35.0307142" lon="32.4214419">
<ele>31.91</ele>
<time>2015-04-24T18:35:04Z</time>
</trkpt>
<trkpt lat="35.0307402" lon="32.4215236">
<ele>31.17</ele>
<time>2015-04-24T18:35:06Z</time>
</trkpt>
<trkpt lat="35.0307631" lon="32.4216077">
<ele>30.99</ele>
<time>2015-04-24T18:35:08Z</time>
</trkpt>
<trkpt lat="35.0307814" lon="32.4216915">
<ele>30.44</ele>
<time>2015-04-24T18:35:10Z</time>
</trkpt>
<trkpt lat="35.0307958" lon="32.4217764">
<ele>30.05</ele>
<time>2015-04-24T18:35:12Z</time>
</trkpt>
<trkpt lat="35.0308128" lon="32.4218660">
<ele>30.71</ele>
<time>2015-04-24T18:35:14Z</time>
</trkpt>
<trkpt lat="35.0308242" lon="32.4219343">
<ele>30.82</ele>
<time>2015-04-24T18:35:15Z</time>
</trkpt>
<trkpt lat="35.0308378" lon="32.4219906">
<ele>30.87</ele>
<time>2015-04-24T18:35:16Z</time>
</trkpt>
<trkpt lat="35.0308573" lon="32.4220877">
<ele>30.91</ele>
<time>2015-04-24T18:35:18Z</time>
</trkpt>
<trkpt lat="35.0308689" lon="32.4221425">
<ele>30.92</ele>
<time>2015-04-24T18:35:19Z</time>
</trkpt>
<trkpt lat="35.0308958" lon="32.4222451">
<ele>30.92</ele>
<time>2015-04-24T18:35:21Z</time>
</trkpt>
<trkpt lat="35.0309200" lon="32.4222993">
<ele>30.42</ele>
<time>2015-04-24T18:35:22Z</time>
</trkpt>
<trkpt lat="35.0309382" lon="32.4223570">
<ele>30.17</ele>
<time>2015-04-24T18:35:23Z</time>
</trkpt>
<trkpt lat="35.0309588" lon="32.4224065">
<ele>30.05</ele>
<time>2015-04-24T18:35:24Z</time>
</trkpt>
<trkpt lat="35.0310026" lon="32.4225069">
<ele>30.71</ele>
<time>2015-04-24T18:35:26Z</time>
</trkpt>
<trkpt lat="35.0310298" lon="32.4225549">
<ele>30.32</ele>
<time>2015-04-24T18:35:27Z</time>
</trkpt>
<trkpt lat="35.0310648" lon="32.4226008">
<ele>30.12</ele>
<time>2015-04-24T18:35:28Z</time>
</trkpt>
<trkpt lat="35.0310959" lon="32.4226465">
<ele>30.52</ele>
<time>2015-04-24T18:35:29Z</time>
</trkpt>
<trkpt lat="35.0311352" lon="32.4226956">
<ele>30.72</ele>
<time>2015-04-24T18:35:30Z</time>
</trkpt>
<trkpt lat="35.0311717" lon="32.4227432">
<ele>30.82</ele>
<time>2015-04-24T18:35:31Z</time>
</trkpt>
<trkpt lat="35.0312172" lon="32.4227963">
<ele>31.37</ele>
<time>2015-04-24T18:35:32Z</time>
</trkpt>
<trkpt lat="35.0312530" lon="32.4228463">
<ele>31.65</ele>
<time>2015-04-24T18:35:33Z</time>
</trkpt>
<trkpt lat="35.0312938" lon="32.4228928">
<ele>31.29</ele>
<time>2015-04-24T18:35:34Z</time>
</trkpt>
<trkpt lat="35.0313351" lon="32.4229436">
<ele>31.11</ele>
<time>2015-04-24T18:35:35Z</time>
</trkpt>
<trkpt lat="35.0313666" lon="32.4229982">
<ele>31.52</ele>
<time>2015-04-24T18:35:36Z</time>
</trkpt>
<trkpt lat="35.0313976" lon="32.4230539">
<ele>31.72</ele>
<time>2015-04-24T18:35:37Z</time>
</trkpt>
<trkpt lat="35.0314328" lon="32.4231024">
<ele>31.82</ele>
<time>2015-04-24T18:35:38Z</time>
</trkpt>
<trkpt lat="35.0314687" lon="32.4231514">
<ele>31.87</ele>
<time>2015-04-24T18:35:39Z</time>
</trkpt>
<trkpt lat="35.0315004" lon="32.4231994">
<ele>31.40</ele>
<time>2015-04-24T18:35:40Z</time>
</trkpt>
<trkpt lat="35.0315360" lon="32.4232452">
<ele>31.16</ele>
<time>2015-04-24T18:35:41Z</time>
</trkpt>
<trkpt lat="35.0315800" lon="32.4233049">
<ele>30.98</ele>
<time>2015-04-24T18:35:43Z</time>
</trkpt>
<trkpt lat="35.0316156" lon="32.4233517">
<ele>31.61</ele>
<time>2015-04-24T18:35:48Z</time>
</trkpt>
<trkpt lat="35.0316495" lon="32.4234011">
<ele>31.46</ele>
<time>2015-04-24T18:35:56Z</time>
</trkpt>
<trkpt lat="35.0316973" lon="32.4234462">
<ele>32.62</ele>
<time>2015-04-24T18:35:59Z</time>
</trkpt>
<trkpt lat="35.0317333" lon="32.4234879">
<ele>31.60</ele>
<time>2015-04-24T18:36:01Z</time>
</trkpt>
<trkpt lat="35.0317706" lon="32.4235360">
<ele>31.09</ele>
<time>2015-04-24T18:36:03Z</time>
</trkpt>
<trkpt lat="35.0318086" lon="32.4235960">
<ele>30.97</ele>
<time>2015-04-24T18:36:05Z</time>
</trkpt>
<trkpt lat="35.0318420" lon="32.4236635">
<ele>30.19</ele>
<time>2015-04-24T18:36:07Z</time>
</trkpt>
<trkpt lat="35.0318857" lon="32.4237318">
<ele>32.24</ele>
<time>2015-04-24T18:36:09Z</time>
</trkpt>
<trkpt lat="35.0319386" lon="32.4238010">
<ele>32.25</ele>
<time>2015-04-24T18:36:11Z</time>
</trkpt>
<trkpt lat="35.0319685" lon="32.4238426">
<ele>31.59</ele>
<time>2015-04-24T18:36:12Z</time>
</trkpt>
<trkpt lat="35.0319985" lon="32.4238846">
<ele>31.26</ele>
<time>2015-04-24T18:36:13Z</time>
</trkpt>
<trkpt lat="35.0320285" lon="32.4239268">
<ele>31.09</ele>
<time>2015-04-24T18:36:14Z</time>
</trkpt>
<trkpt lat="35.0320856" lon="32.4240073">
<ele>30.22</ele>
<time>2015-04-24T18:36:16Z</time>
</trkpt>
<trkpt lat="35.0321429" lon="32.4240814">
<ele>29.75</ele>
<time>2015-04-24T18:36:18Z</time>
</trkpt>
<trkpt lat="35.0321970" lon="32.4241513">
<ele>29.38</ele>
<time>2015-04-24T18:36:20Z</time>
</trkpt>
<trkpt lat="35.0322519" lon="32.4242202">
<ele>29.04</ele>
<time>2015-04-24T18:36:22Z</time>
</trkpt>
<trkpt lat="35.0323080" lon="32.4242922">
<ele>28.95</ele>
<time>2015-04-24T18:36:24Z</time>
</trkpt>
<trkpt lat="35.0323655" lon="32.4243654">
<ele>29.68</ele>
<time>2015-04-24T18:36:26Z</time>
</trkpt>
<trkpt lat="35.0324280" lon="32.4244428">
<ele>29.86</ele>
<time>2015-04-24T18:36:28Z</time>
</trkpt>
<trkpt lat="35.0324877" lon="32.4245218">
<ele>29.41</ele>
<time>2015-04-24T18:36:30Z</time>
</trkpt>
<trkpt lat="35.0325414" lon="32.4245980">
<ele>29.55</ele>
<time>2015-04-24T18:36:32Z</time>
</trkpt>
<trkpt lat="35.0325933" lon="32.4246730">
<ele>29.58</ele>
<time>2015-04-24T18:36:34Z</time>
</trkpt>
<trkpt lat="35.0326414" lon="32.4247474">
<ele>29.84</ele>
<time>2015-04-24T18:36:36Z</time>
</trkpt>
<trkpt lat="35.0326885" lon="32.4248184">
<ele>29.90</ele>
<time>2015-04-24T18:36:38Z</time>
</trkpt>
<trkpt lat="35.0327380" lon="32.4248853">
<ele>29.92</ele>
<time>2015-04-24T18:36:40Z</time>
</trkpt>
<trkpt lat="35.0327889" lon="32.4249500">
<ele>30.42</ele>
<time>2015-04-24T18:36:42Z</time>
</trkpt>
<trkpt lat="35.0328365" lon="32.4250052">
<ele>30.80</ele>
<time>2015-04-24T18:36:44Z</time>
</trkpt>
<trkpt lat="35.0328780" lon="32.4250558">
<ele>31.14</ele>
<time>2015-04-24T18:36:46Z</time>
</trkpt>
<trkpt lat="35.0329198" lon="32.4251077">
<ele>30.98</ele>
<time>2015-04-24T18:36:48Z</time>
</trkpt>
<trkpt lat="35.0329610" lon="32.4251597">
<ele>30.69</ele>
<time>2015-04-24T18:36:50Z</time>
</trkpt>
<trkpt lat="35.0330011" lon="32.4252088">
<ele>30.12</ele>
<time>2015-04-24T18:36:52Z</time>
</trkpt>
<trkpt lat="35.0330466" lon="32.4252455">
<ele>29.97</ele>
<time>2015-04-24T18:36:54Z</time>
</trkpt>
<trkpt lat="35.0330962" lon="32.4252619">
<ele>30.44</ele>
<time>2015-04-24T18:36:56Z</time>
</trkpt>
<trkpt lat="35.0331596" lon="32.4252914">
<ele>30.86</ele>
<time>2015-04-24T18:36:59Z</time>
</trkpt>
<trkpt lat="35.0332236" lon="32.4253249">
<ele>32.29</ele>
<time>2015-04-24T18:37:02Z</time>
</trkpt>
<trkpt lat="35.0332702" lon="32.4253571">
<ele>32.77</ele>
<time>2015-04-24T18:37:04Z</time>
</trkpt>
<trkpt lat="35.0333159" lon="32.4253854">
<ele>33.64</ele>
<time>2015-04-24T18:37:06Z</time>
</trkpt>
<trkpt lat="35.0333591" lon="32.4254103">
<ele>33.85</ele>
<time>2015-04-24T18:37:08Z</time>
</trkpt>
<trkpt lat="35.0333988" lon="32.4254381">
<ele>34.41</ele>
<time>2015-04-24T18:37:10Z</time>
</trkpt>
<trkpt lat="35.0334512" lon="32.4254760">
<ele>35.61</ele>
<time>2015-04-24T18:37:13Z</time>
</trkpt>
<trkpt lat="35.0335010" lon="32.4254965">
<ele>37.14</ele>
<time>2015-04-24T18:37:16Z</time>
</trkpt>
<trkpt lat="35.0335481" lon="32.4255198">
<ele>36.95</ele>
<time>2015-04-24T18:37:19Z</time>
</trkpt>
<trkpt lat="35.0335914" lon="32.4255403">
<ele>37.43</ele>
<time>2015-04-24T18:37:22Z</time>
</trkpt>
<trkpt lat="35.0336356" lon="32.4255562">
<ele>37.11</ele>
<time>2015-04-24T18:37:25Z</time>
</trkpt>
<trkpt lat="35.0336801" lon="32.4255980">
<ele>37.49</ele>
<time>2015-04-24T18:37:30Z</time>
</trkpt>
<trkpt lat="35.0336801" lon="32.4256594">
<ele>38.00</ele>
<time>2015-04-24T18:37:33Z</time>
</trkpt>
<trkpt lat="35.0336500" lon="32.4257056">
<ele>37.96</ele>
<time>2015-04-24T18:37:34Z</time>
</trkpt>
<trkpt lat="35.0336165" lon="32.4257530">
<ele>37.43</ele>
<time>2015-04-24T18:37:36Z</time>
</trkpt>
<trkpt lat="35.0335993" lon="32.4258111">
<ele>36.43</ele>
<time>2015-04-24T18:37:51Z</time>
</trkpt>
<trkpt lat="35.0335686" lon="32.4258663">
<ele>35.96</ele>
<time>2015-04-24T18:37:55Z</time>
</trkpt>
<trkpt lat="35.0335134" lon="32.4259079">
<ele>36.55</ele>
<time>2015-04-24T18:37:58Z</time>
</trkpt>
<trkpt lat="35.0334594" lon="32.4259455">
<ele>36.13</ele>
<time>2015-04-24T18:38:01Z</time>
</trkpt>
<trkpt lat="35.0333988" lon="32.4259950">
<ele>35.58</ele>
<time>2015-04-24T18:38:04Z</time>
</trkpt>
<trkpt lat="35.0333626" lon="32.4260302">
<ele>35.59</ele>
<time>2015-04-24T18:38:06Z</time>
</trkpt>
<trkpt lat="35.0333192" lon="32.4260863">
<ele>35.01</ele>
<time>2015-04-24T18:38:09Z</time>
</trkpt>
<trkpt lat="35.0332733" lon="32.4261479">
<ele>34.94</ele>
<time>2015-04-24T18:38:12Z</time>
</trkpt>
<trkpt lat="35.0332304" lon="32.4262058">
<ele>35.68</ele>
<time>2015-04-24T18:38:15Z</time>
</trkpt>
<trkpt lat="35.0331971" lon="32.4262487">
<ele>35.86</ele>
<time>2015-04-24T18:38:17Z</time>
</trkpt>
<trkpt lat="35.0331637" lon="32.4262931">
<ele>35.91</ele>
<time>2015-04-24T18:38:19Z</time>
</trkpt>
<trkpt lat="35.0331235" lon="32.4263444">
<ele>36.67</ele>
<time>2015-04-24T18:38:21Z</time>
</trkpt>
<trkpt lat="35.0330862" lon="32.4264013">
<ele>37.61</ele>
<time>2015-04-24T18:38:23Z</time>
</trkpt>
<trkpt lat="35.0330524" lon="32.4264574">
<ele>37.85</ele>
<time>2015-04-24T18:38:25Z</time>
</trkpt>
<trkpt lat="35.0330188" lon="32.4265062">
<ele>37.91</ele>
<time>2015-04-24T18:38:27Z</time>
</trkpt>
<trkpt lat="35.0329740" lon="32.4265664">
<ele>38.92</ele>
<time>2015-04-24T18:38:30Z</time>
</trkpt>
<trkpt lat="35.0329281" lon="32.4266250">
<ele>39.80</ele>
<time>2015-04-24T18:38:33Z</time>
</trkpt>
<trkpt lat="35.0328850" lon="32.4266795">
<ele>40.66</ele>
<time>2015-04-24T18:38:36Z</time>
</trkpt>
<trkpt lat="35.0328417" lon="32.4267323">
<ele>40.89</ele>
<time>2015-04-24T18:38:39Z</time>
</trkpt>
<trkpt lat="35.0328017" lon="32.4267784">
<ele>41.80</ele>
<time>2015-04-24T18:38:42Z</time>
</trkpt>
<trkpt lat="35.0327589" lon="32.4268339">
<ele>41.91</ele>
<time>2015-04-24T18:38:45Z</time>
</trkpt>
<trkpt lat="35.0327257" lon="32.4268880">
<ele>41.92</ele>
<time>2015-04-24T18:38:48Z</time>
</trkpt>
<trkpt lat="35.0326910" lon="32.4269503">
<ele>42.80</ele>
<time>2015-04-24T18:38:51Z</time>
</trkpt>
<trkpt lat="35.0326984" lon="32.4270199">
<ele>42.89</ele>
<time>2015-04-24T18:38:53Z</time>
</trkpt>
<trkpt lat="35.0327496" lon="32.4270722">
<ele>41.67</ele>
<time>2015-04-24T18:38:55Z</time>
</trkpt>
<trkpt lat="35.0328023" lon="32.4271076">
<ele>41.86</ele>
<time>2015-04-24T18:38:57Z</time>
</trkpt>
<trkpt lat="35.0328658" lon="32.4271335">
<ele>41.91</ele>
<time>2015-04-24T18:38:59Z</time>
</trkpt>
<trkpt lat="35.0329347" lon="32.4271647">
<ele>41.92</ele>
<time>2015-04-24T18:39:01Z</time>
</trkpt>
<trkpt lat="35.0330077" lon="32.4271984">
<ele>41.92</ele>
<time>2015-04-24T18:39:03Z</time>
</trkpt>
<trkpt lat="35.0330620" lon="32.4272099">
<ele>41.92</ele>
<time>2015-04-24T18:39:04Z</time>
</trkpt>
<trkpt lat="35.0331542" lon="32.4272135">
<ele>42.42</ele>
<time>2015-04-24T18:39:06Z</time>
</trkpt>
<trkpt lat="35.0332439" lon="32.4271902">
<ele>43.30</ele>
<time>2015-04-24T18:39:08Z</time>
</trkpt>
<trkpt lat="35.0333106" lon="32.4271848">
<ele>43.27</ele>
<time>2015-04-24T18:39:10Z</time>
</trkpt>
<trkpt lat="35.0333861" lon="32.4271546">
<ele>43.01</ele>
<time>2015-04-24T18:39:12Z</time>
</trkpt>
<trkpt lat="35.0334717" lon="32.4271428">
<ele>42.45</ele>
<time>2015-04-24T18:39:14Z</time>
</trkpt>
<trkpt lat="35.0335547" lon="32.4271280">
<ele>41.31</ele>
<time>2015-04-24T18:39:16Z</time>
</trkpt>
<trkpt lat="35.0336554" lon="32.4271228">
<ele>40.52</ele>
<time>2015-04-24T18:39:18Z</time>
</trkpt>
<trkpt lat="35.0337052" lon="32.4271239">
<ele>40.22</ele>
<time>2015-04-24T18:39:19Z</time>
</trkpt>
<trkpt lat="35.0337605" lon="32.4271305">
<ele>39.57</ele>
<time>2015-04-24T18:39:20Z</time>
</trkpt>
<trkpt lat="35.0338138" lon="32.4271354">
<ele>39.25</ele>
<time>2015-04-24T18:39:21Z</time>
</trkpt>
<trkpt lat="35.0338765" lon="32.4271586">
<ele>39.09</ele>
<time>2015-04-24T18:39:22Z</time>
</trkpt>
<trkpt lat="35.0339334" lon="32.4271724">
<ele>39.01</ele>
<time>2015-04-24T18:39:23Z</time>
</trkpt>
<trkpt lat="35.0339987" lon="32.4272003">
<ele>38.97</ele>
<time>2015-04-24T18:39:24Z</time>
</trkpt>
<trkpt lat="35.0340561" lon="32.4272202">
<ele>38.95</ele>
<time>2015-04-24T18:39:25Z</time>
</trkpt>
<trkpt lat="35.0341116" lon="32.4272510">
<ele>38.94</ele>
<time>2015-04-24T18:39:26Z</time>
</trkpt>
<trkpt lat="35.0341653" lon="32.4272753">
<ele>38.93</ele>
<time>2015-04-24T18:39:27Z</time>
</trkpt>
<trkpt lat="35.0342154" lon="32.4273130">
<ele>38.43</ele>
<time>2015-04-24T18:39:28Z</time>
</trkpt>
<trkpt lat="35.0342667" lon="32.4273463">
<ele>38.18</ele>
<time>2015-04-24T18:39:29Z</time>
</trkpt>
<trkpt lat="35.0343104" lon="32.4273950">
<ele>37.55</ele>
<time>2015-04-24T18:39:30Z</time>
</trkpt>
<trkpt lat="35.0343568" lon="32.4274367">
<ele>37.24</ele>
<time>2015-04-24T18:39:31Z</time>
</trkpt>
<trkpt lat="35.0344047" lon="32.4274815">
<ele>36.58</ele>
<time>2015-04-24T18:39:32Z</time>
</trkpt>
<trkpt lat="35.0344508" lon="32.4275228">
<ele>36.25</ele>
<time>2015-04-24T18:39:33Z</time>
</trkpt>
<trkpt lat="35.0344999" lon="32.4275596">
<ele>35.59</ele>
<time>2015-04-24T18:39:34Z</time>
</trkpt>
<trkpt lat="35.0345485" lon="32.4276018">
<ele>35.26</ele>
<time>2015-04-24T18:39:35Z</time>
</trkpt>
<trkpt lat="35.0346024" lon="32.4276496">
<ele>35.59</ele>
<time>2015-04-24T18:39:36Z</time>
</trkpt>
<trkpt lat="35.0346506" lon="32.4276944">
<ele>35.26</ele>
<time>2015-04-24T18:39:37Z</time>
</trkpt>
<trkpt lat="35.0347113" lon="32.4277321">
<ele>35.59</ele>
<time>2015-04-24T18:39:38Z</time>
</trkpt>
<trkpt lat="35.0347638" lon="32.4277715">
<ele>35.76</ele>
<time>2015-04-24T18:39:39Z</time>
</trkpt>
<trkpt lat="35.0348249" lon="32.4278020">
<ele>35.34</ele>
<time>2015-04-24T18:39:40Z</time>
</trkpt>
<trkpt lat="35.0348809" lon="32.4278372">
<ele>35.13</ele>
<time>2015-04-24T18:39:41Z</time>
</trkpt>
<trkpt lat="35.0349429" lon="32.4278554">
<ele>35.03</ele>
<time>2015-04-24T18:39:42Z</time>
</trkpt>
<trkpt lat="35.0350030" lon="32.4278792">
<ele>34.98</ele>
<time>2015-04-24T18:39:43Z</time>
</trkpt>
<trkpt lat="35.0350567" lon="32.4279093">
<ele>34.45</ele>
<time>2015-04-24T18:39:44Z</time>
</trkpt>
<trkpt lat="35.0351179" lon="32.4279301">
<ele>34.19</ele>
<time>2015-04-24T18:39:45Z</time>
</trkpt>
<trkpt lat="35.0351779" lon="32.4279469">
<ele>34.06</ele>
<time>2015-04-24T18:39:46Z</time>
</trkpt>
<trkpt lat="35.0352377" lon="32.4279678">
<ele>33.99</ele>
<time>2015-04-24T18:39:47Z</time>
</trkpt>
<trkpt lat="35.0353027" lon="32.4279927">
<ele>34.46</ele>
<time>2015-04-24T18:39:48Z</time>
</trkpt>
<trkpt lat="35.0353637" lon="32.4280157">
<ele>34.69</ele>
<time>2015-04-24T18:39:49Z</time>
</trkpt>
<trkpt lat="35.0354253" lon="32.4280392">
<ele>35.31</ele>
<time>2015-04-24T18:39:50Z</time>
</trkpt>
<trkpt lat="35.0354837" lon="32.4280668">
<ele>35.62</ele>
<time>2015-04-24T18:39:51Z</time>
</trkpt>
<trkpt lat="35.0355259" lon="32.4280989">
<ele>35.77</ele>
<time>2015-04-24T18:39:52Z</time>
</trkpt>
<trkpt lat="35.0355724" lon="32.4281270">
<ele>35.85</ele>
<time>2015-04-24T18:39:53Z</time>
</trkpt>
<trkpt lat="35.0356326" lon="32.4281985">
<ele>35.91</ele>
<time>2015-04-24T18:39:55Z</time>
</trkpt>
<trkpt lat="35.0356614" lon="32.4282427">
<ele>36.42</ele>
<time>2015-04-24T18:39:56Z</time>
</trkpt>
<trkpt lat="35.0357044" lon="32.4282971">
<ele>36.55</ele>
<time>2015-04-24T18:39:58Z</time>
</trkpt>
<trkpt lat="35.0357329" lon="32.4283616">
<ele>36.83</ele>
<time>2015-04-24T18:40:00Z</time>
</trkpt>
<trkpt lat="35.0357678" lon="32.4284377">
<ele>36.90</ele>
<time>2015-04-24T18:40:02Z</time>
</trkpt>
<trkpt lat="35.0358035" lon="32.4285211">
<ele>36.92</ele>
<time>2015-04-24T18:40:04Z</time>
</trkpt>
<trkpt lat="35.0358209" lon="32.4285720">
<ele>36.42</ele>
<time>2015-04-24T18:40:05Z</time>
</trkpt>
<trkpt lat="35.0358449" lon="32.4286411">
<ele>36.17</ele>
<time>2015-04-24T18:40:06Z</time>
</trkpt>
<trkpt lat="35.0358653" lon="32.4286990">
<ele>36.05</ele>
<time>2015-04-24T18:40:07Z</time>
</trkpt>
<trkpt lat="35.0358906" lon="32.4287772">
<ele>35.49</ele>
<time>2015-04-24T18:40:08Z</time>
</trkpt>
<trkpt lat="35.0359159" lon="32.4288439">
<ele>34.71</ele>
<time>2015-04-24T18:40:09Z</time>
</trkpt>
<trkpt lat="35.0359523" lon="32.4289325">
<ele>33.82</ele>
<time>2015-04-24T18:40:10Z</time>
</trkpt>
<trkpt lat="35.0359830" lon="32.4290144">
<ele>33.37</ele>
<time>2015-04-24T18:40:11Z</time>
</trkpt>
<trkpt lat="35.0360183" lon="32.4291223">
<ele>32.15</ele>
<time>2015-04-24T18:40:12Z</time>
</trkpt>
<trkpt lat="35.0360529" lon="32.4292148">
<ele>31.54</ele>
<time>2015-04-24T18:40:13Z</time>
</trkpt>
<trkpt lat="35.0360846" lon="32.4293223">
<ele>30.73</ele>
<time>2015-04-24T18:40:14Z</time>
</trkpt>
<trkpt lat="35.0361185" lon="32.4294216">
<ele>29.83</ele>
<time>2015-04-24T18:40:15Z</time>
</trkpt>
<trkpt lat="35.0361541" lon="32.4295195">
<ele>29.38</ele>
<time>2015-04-24T18:40:16Z</time>
</trkpt>
<trkpt lat="35.0361879" lon="32.4296172">
<ele>29.15</ele>
<time>2015-04-24T18:40:17Z</time>
</trkpt>
<trkpt lat="35.0362208" lon="32.4297105">
<ele>29.04</ele>
<time>2015-04-24T18:40:18Z</time>
</trkpt>
<trkpt lat="35.0362491" lon="32.4297991">
<ele>28.98</ele>
<time>2015-04-24T18:40:19Z</time>
</trkpt>
<trkpt lat="35.0362800" lon="32.4298934">
<ele>28.45</ele>
<time>2015-04-24T18:40:20Z</time>
</trkpt>
<trkpt lat="35.0363058" lon="32.4299826">
<ele>28.19</ele>
<time>2015-04-24T18:40:21Z</time>
</trkpt>
<trkpt lat="35.0363332" lon="32.4300639">
<ele>28.06</ele>
<time>2015-04-24T18:40:22Z</time>
</trkpt>
<trkpt lat="35.0363615" lon="32.4301461">
<ele>27.49</ele>
<time>2015-04-24T18:40:23Z</time>
</trkpt>
<trkpt lat="35.0363945" lon="32.4302238">
<ele>27.21</ele>
<time>2015-04-24T18:40:24Z</time>
</trkpt>
<trkpt lat="35.0364246" lon="32.4303003">
<ele>27.07</ele>
<time>2015-04-24T18:40:25Z</time>
</trkpt>
<trkpt lat="35.0364560" lon="32.4303655">
<ele>27.00</ele>
<time>2015-04-24T18:40:26Z</time>
</trkpt>
<trkpt lat="35.0364902" lon="32.4304274">
<ele>27.46</ele>
<time>2015-04-24T18:40:27Z</time>
</trkpt>
<trkpt lat="35.0365224" lon="32.4304873">
<ele>27.69</ele>
<time>2015-04-24T18:40:28Z</time>
</trkpt>
<trkpt lat="35.0365538" lon="32.4305540">
<ele>27.81</ele>
<time>2015-04-24T18:40:29Z</time>
</trkpt>
<trkpt lat="35.0365788" lon="32.4306099">
<ele>27.87</ele>
<time>2015-04-24T18:40:30Z</time>
</trkpt>
<trkpt lat="35.0366078" lon="32.4306696">
<ele>27.90</ele>
<time>2015-04-24T18:40:31Z</time>
</trkpt>
<trkpt lat="35.0366374" lon="32.4307331">
<ele>27.41</ele>
<time>2015-04-24T18:40:32Z</time>
</trkpt>
<trkpt lat="35.0366636" lon="32.4307936">
<ele>27.17</ele>
<time>2015-04-24T18:40:33Z</time>
</trkpt>
<trkpt lat="35.0366971" lon="32.4308466">
<ele>27.05</ele>
<time>2015-04-24T18:40:34Z</time>
</trkpt>
<trkpt lat="35.0367244" lon="32.4309018">
<ele>27.49</ele>
<time>2015-04-24T18:40:35Z</time>
</trkpt>
<trkpt lat="35.0367556" lon="32.4309481">
<ele>27.21</ele>
<time>2015-04-24T18:40:36Z</time>
</trkpt>
<trkpt lat="35.0367829" lon="32.4310000">
<ele>27.07</ele>
<time>2015-04-24T18:40:37Z</time>
</trkpt>
<trkpt lat="35.0368080" lon="32.4310482">
<ele>26.50</ele>
<time>2015-04-24T18:40:38Z</time>
</trkpt>
<trkpt lat="35.0368329" lon="32.4310985">
<ele>26.21</ele>
<time>2015-04-24T18:40:39Z</time>
</trkpt>
<trkpt lat="35.0368511" lon="32.4311575">
<ele>26.07</ele>
<time>2015-04-24T18:40:40Z</time>
</trkpt>
<trkpt lat="35.0368892" lon="32.4312614">
<ele>25.96</ele>
<time>2015-04-24T18:40:42Z</time>
</trkpt>
<trkpt lat="35.0369273" lon="32.4313431">
<ele>25.93</ele>
<time>2015-04-24T18:40:44Z</time>
</trkpt>
<trkpt lat="35.0369651" lon="32.4314308">
<ele>25.93</ele>
<time>2015-04-24T18:40:46Z</time>
</trkpt>
<trkpt lat="35.0370089" lon="32.4315345">
<ele>25.93</ele>
<time>2015-04-24T18:40:48Z</time>
</trkpt>
<trkpt lat="35.0370290" lon="32.4315846">
<ele>26.43</ele>
<time>2015-04-24T18:40:49Z</time>
</trkpt>
<trkpt lat="35.0370597" lon="32.4316338">
<ele>27.18</ele>
<time>2015-04-24T18:40:50Z</time>
</trkpt>
<trkpt lat="35.0370777" lon="32.4316877">
<ele>27.55</ele>
<time>2015-04-24T18:40:51Z</time>
</trkpt>
<trkpt lat="35.0370906" lon="32.4317478">
<ele>27.24</ele>
<time>2015-04-24T18:40:52Z</time>
</trkpt>
<trkpt lat="35.0371046" lon="32.4318043">
<ele>26.58</ele>
<time>2015-04-24T18:40:53Z</time>
</trkpt>
<trkpt lat="35.0371112" lon="32.4318636">
<ele>26.25</ele>
<time>2015-04-24T18:40:54Z</time>
</trkpt>
<trkpt lat="35.0371207" lon="32.4319214">
<ele>26.09</ele>
<time>2015-04-24T18:40:55Z</time>
</trkpt>
<trkpt lat="35.0371468" lon="32.4319801">
<ele>26.01</ele>
<time>2015-04-24T18:40:56Z</time>
</trkpt>
<trkpt lat="35.0371611" lon="32.4320359">
<ele>25.97</ele>
<time>2015-04-24T18:40:57Z</time>
</trkpt>
<trkpt lat="35.0371774" lon="32.4320916">
<ele>25.95</ele>
<time>2015-04-24T18:40:58Z</time>
</trkpt>
<trkpt lat="35.0372148" lon="32.4321943">
<ele>26.93</ele>
<time>2015-04-24T18:41:00Z</time>
</trkpt>
<trkpt lat="35.0372408" lon="32.4322902">
<ele>28.18</ele>
<time>2015-04-24T18:41:02Z</time>
</trkpt>
<trkpt lat="35.0372752" lon="32.4323772">
<ele>28.74</ele>
<time>2015-04-24T18:41:04Z</time>
</trkpt>
<trkpt lat="35.0373150" lon="32.4324784">
<ele>28.88</ele>
<time>2015-04-24T18:41:06Z</time>
</trkpt>
<trkpt lat="35.0373330" lon="32.4325289">
<ele>28.90</ele>
<time>2015-04-24T18:41:07Z</time>
</trkpt>
<trkpt lat="35.0373670" lon="32.4326051">
<ele>28.92</ele>
<time>2015-04-24T18:41:09Z</time>
</trkpt>
<trkpt lat="35.0374114" lon="32.4326824">
<ele>28.92</ele>
<time>2015-04-24T18:41:11Z</time>
</trkpt>
<trkpt lat="35.0374543" lon="32.4327491">
<ele>29.67</ele>
<time>2015-04-24T18:41:13Z</time>
</trkpt>
<trkpt lat="35.0374935" lon="32.4328177">
<ele>29.86</ele>
<time>2015-04-24T18:41:15Z</time>
</trkpt>
<trkpt lat="35.0375248" lon="32.4328852">
<ele>29.91</ele>
<time>2015-04-24T18:41:17Z</time>
</trkpt>
<trkpt lat="35.0375517" lon="32.4329545">
<ele>30.67</ele>
<time>2015-04-24T18:41:19Z</time>
</trkpt>
<trkpt lat="35.0375838" lon="32.4330240">
<ele>31.61</ele>
<time>2015-04-24T18:41:21Z</time>
</trkpt>
<trkpt lat="35.0376300" lon="32.4330896">
<ele>32.60</ele>
<time>2015-04-24T18:41:23Z</time>
</trkpt>
<trkpt lat="35.0376718" lon="32.4331568">
<ele>33.34</ele>
<time>2015-04-24T18:41:25Z</time>
</trkpt>
<trkpt lat="35.0377159" lon="32.4332153">
<ele>33.28</ele>
<time>2015-04-24T18:41:27Z</time>
</trkpt>
<trkpt lat="35.0377594" lon="32.4332750">
<ele>33.76</ele>
<time>2015-04-24T18:41:29Z</time>
</trkpt>
<trkpt lat="35.0377862" lon="32.4333378">
<ele>33.63</ele>
<time>2015-04-24T18:41:31Z</time>
</trkpt>
<trkpt lat="35.0378114" lon="32.4333983">
<ele>33.10</ele>
<time>2015-04-24T18:41:33Z</time>
</trkpt>
<trkpt lat="35.0378454" lon="32.4334549">
<ele>33.72</ele>
<time>2015-04-24T18:41:35Z</time>
</trkpt>
<trkpt lat="35.0378918" lon="32.4335075">
<ele>34.12</ele>
<time>2015-04-24T18:41:37Z</time>
</trkpt>
<trkpt lat="35.0379382" lon="32.4335606">
<ele>34.72</ele>
<time>2015-04-24T18:41:39Z</time>
</trkpt>
<trkpt lat="35.0379859" lon="32.4336205">
<ele>35.37</ele>
<time>2015-04-24T18:41:41Z</time>
</trkpt>
<trkpt lat="35.0380370" lon="32.4336786">
<ele>36.29</ele>
<time>2015-04-24T18:41:43Z</time>
</trkpt>
<trkpt lat="35.0380799" lon="32.4337449">
<ele>36.27</ele>
<time>2015-04-24T18:41:45Z</time>
</trkpt>
<trkpt lat="35.0381145" lon="32.4338100">
<ele>36.26</ele>
<time>2015-04-24T18:41:47Z</time>
</trkpt>
<trkpt lat="35.0381562" lon="32.4338666">
<ele>36.01</ele>
<time>2015-04-24T18:41:49Z</time>
</trkpt>
<trkpt lat="35.0381981" lon="32.4339197">
<ele>35.95</ele>
<time>2015-04-24T18:41:51Z</time>
</trkpt>
<trkpt lat="35.0382393" lon="32.4339743">
<ele>35.93</ele>
<time>2015-04-24T18:41:53Z</time>
</trkpt>
<trkpt lat="35.0382782" lon="32.4340291">
<ele>35.43</ele>
<time>2015-04-24T18:41:55Z</time>
</trkpt>
<trkpt lat="35.0382939" lon="32.4340824">
<ele>34.30</ele>
<time>2015-04-24T18:41:57Z</time>
</trkpt>
<trkpt lat="35.0383214" lon="32.4341375">
<ele>34.02</ele>
<time>2015-04-24T18:41:59Z</time>
</trkpt>
<trkpt lat="35.0383577" lon="32.4341926">
<ele>33.45</ele>
<time>2015-04-24T18:42:01Z</time>
</trkpt>
<trkpt lat="35.0383992" lon="32.4342398">
<ele>33.06</ele>
<time>2015-04-24T18:42:03Z</time>
</trkpt>
<trkpt lat="35.0384418" lon="32.4342792">
<ele>33.21</ele>
<time>2015-04-24T18:42:05Z</time>
</trkpt>
<trkpt lat="35.0384820" lon="32.4343313">
<ele>33.50</ele>
<time>2015-04-24T18:42:07Z</time>
</trkpt>
<trkpt lat="35.0385276" lon="32.4343982">
<ele>34.32</ele>
<time>2015-04-24T18:42:09Z</time>
</trkpt>
<trkpt lat="35.0385783" lon="32.4344779">
<ele>34.77</ele>
<time>2015-04-24T18:42:11Z</time>
</trkpt>
<trkpt lat="35.0386225" lon="32.4345688">
<ele>34.39</ele>
<time>2015-04-24T18:42:13Z</time>
</trkpt>
<trkpt lat="35.0386625" lon="32.4346556">
<ele>34.54</ele>
<time>2015-04-24T18:42:15Z</time>
</trkpt>
<trkpt lat="35.0387096" lon="32.4347342">
<ele>35.33</ele>
<time>2015-04-24T18:42:17Z</time>
</trkpt>
<trkpt lat="35.0387478" lon="32.4348119">
<ele>35.53</ele>
<time>2015-04-24T18:42:19Z</time>
</trkpt>
<trkpt lat="35.0387754" lon="32.4348938">
<ele>35.08</ele>
<time>2015-04-24T18:42:21Z</time>
</trkpt>
<trkpt lat="35.0387998" lon="32.4349766">
<ele>35.21</ele>
<time>2015-04-24T18:42:23Z</time>
</trkpt>
<trkpt lat="35.0388192" lon="32.4350673">
<ele>35.00</ele>
<time>2015-04-24T18:42:25Z</time>
</trkpt>
<trkpt lat="35.0388441" lon="32.4351601">
<ele>34.19</ele>
<time>2015-04-24T18:42:27Z</time>
</trkpt>
<trkpt lat="35.0388632" lon="32.4352570">
<ele>33.99</ele>
<time>2015-04-24T18:42:29Z</time>
</trkpt>
<trkpt lat="35.0388865" lon="32.4353517">
<ele>33.44</ele>
<time>2015-04-24T18:42:31Z</time>
</trkpt>
<trkpt lat="35.0389158" lon="32.4354449">
<ele>33.30</ele>
<time>2015-04-24T18:42:33Z</time>
</trkpt>
<trkpt lat="35.0389332" lon="32.4354968">
<ele>33.61</ele>
<time>2015-04-24T18:42:34Z</time>
</trkpt>
<trkpt lat="35.0389678" lon="32.4356111">
<ele>33.85</ele>
<time>2015-04-24T18:42:36Z</time>
</trkpt>
<trkpt lat="35.0389999" lon="32.4357048">
<ele>33.91</ele>
<time>2015-04-24T18:42:38Z</time>
</trkpt>
<trkpt lat="35.0390360" lon="32.4357882">
<ele>33.92</ele>
<time>2015-04-24T18:42:40Z</time>
</trkpt>
<trkpt lat="35.0390808" lon="32.4358667">
<ele>33.92</ele>
<time>2015-04-24T18:42:42Z</time>
</trkpt>
<trkpt lat="35.0391196" lon="32.4359316">
<ele>33.92</ele>
<time>2015-04-24T18:42:44Z</time>
</trkpt>
<trkpt lat="35.0391737" lon="32.4359980">
<ele>33.67</ele>
<time>2015-04-24T18:42:46Z</time>
</trkpt>
<trkpt lat="35.0392267" lon="32.4360649">
<ele>33.86</ele>
<time>2015-04-24T18:42:48Z</time>
</trkpt>
<trkpt lat="35.0392763" lon="32.4361273">
<ele>33.91</ele>
<time>2015-04-24T18:42:50Z</time>
</trkpt>
<trkpt lat="35.0393282" lon="32.4361876">
<ele>34.42</ele>
<time>2015-04-24T18:42:52Z</time>
</trkpt>
<trkpt lat="35.0393841" lon="32.4362477">
<ele>34.55</ele>
<time>2015-04-24T18:42:54Z</time>
</trkpt>
<trkpt lat="35.0394421" lon="32.4363099">
<ele>34.83</ele>
<time>2015-04-24T18:42:56Z</time>
</trkpt>
<trkpt lat="35.0394966" lon="32.4363750">
<ele>35.40</ele>
<time>2015-04-24T18:42:58Z</time>
</trkpt>
<trkpt lat="35.0395488" lon="32.4364447">
<ele>35.79</ele>
<time>2015-04-24T18:43:00Z</time>
</trkpt>
<trkpt lat="35.0396031" lon="32.4365113">
<ele>35.89</ele>
<time>2015-04-24T18:43:02Z</time>
</trkpt>
<trkpt lat="35.0396569" lon="32.4365815">
<ele>36.42</ele>
<time>2015-04-24T18:43:04Z</time>
</trkpt>
<trkpt lat="35.0397081" lon="32.4366572">
<ele>36.80</ele>
<time>2015-04-24T18:43:06Z</time>
</trkpt>
<trkpt lat="35.0397548" lon="32.4367318">
<ele>36.89</ele>
<time>2015-04-24T18:43:08Z</time>
</trkpt>
<trkpt lat="35.0397938" lon="32.4368072">
<ele>37.67</ele>
<time>2015-04-24T18:43:10Z</time>
</trkpt>
<trkpt lat="35.0398271" lon="32.4368841">
<ele>37.86</ele>
<time>2015-04-24T18:43:12Z</time>
</trkpt>
<trkpt lat="35.0398638" lon="32.4369596">
<ele>37.41</ele>
<time>2015-04-24T18:43:14Z</time>
</trkpt>
<trkpt lat="35.0399089" lon="32.4370343">
<ele>37.05</ele>
<time>2015-04-24T18:43:16Z</time>
</trkpt>
<trkpt lat="35.0399526" lon="32.4371141">
<ele>36.96</ele>
<time>2015-04-24T18:43:18Z</time>
</trkpt>
<trkpt lat="35.0399996" lon="32.4372009">
<ele>37.43</ele>
<time>2015-04-24T18:43:20Z</time>
</trkpt>
<trkpt lat="35.0400483" lon="32.4372902">
<ele>37.30</ele>
<time>2015-04-24T18:43:22Z</time>
</trkpt>
<trkpt lat="35.0400991" lon="32.4373727">
<ele>37.52</ele>
<time>2015-04-24T18:43:24Z</time>
</trkpt>
<trkpt lat="35.0401489" lon="32.4374491">
<ele>37.32</ele>
<time>2015-04-24T18:43:26Z</time>
</trkpt>
<trkpt lat="35.0401947" lon="32.4375265">
<ele>37.77</ele>
<time>2015-04-24T18:43:28Z</time>
</trkpt>
<trkpt lat="35.0402449" lon="32.4376025">
<ele>37.89</ele>
<time>2015-04-24T18:43:30Z</time>
</trkpt>
<trkpt lat="35.0402963" lon="32.4376857">
<ele>37.92</ele>
<time>2015-04-24T18:43:32Z</time>
</trkpt>
<trkpt lat="35.0403464" lon="32.4377736">
<ele>37.92</ele>
<time>2015-04-24T18:43:34Z</time>
</trkpt>
<trkpt lat="35.0403951" lon="32.4378612">
<ele>37.92</ele>
<time>2015-04-24T18:43:36Z</time>
</trkpt>
<trkpt lat="35.0404342" lon="32.4379512">
<ele>37.92</ele>
<time>2015-04-24T18:43:38Z</time>
</trkpt>
<trkpt lat="35.0404734" lon="32.4380396">
<ele>37.92</ele>
<time>2015-04-24T18:43:40Z</time>
</trkpt>
<trkpt lat="35.0405158" lon="32.4381323">
<ele>37.92</ele>
<time>2015-04-24T18:43:42Z</time>
</trkpt>
<trkpt lat="35.0405374" lon="32.4381809">
<ele>37.92</ele>
<time>2015-04-24T18:43:43Z</time>
</trkpt>
<trkpt lat="35.0405604" lon="32.4382345">
<ele>37.92</ele>
<time>2015-04-24T18:43:44Z</time>
</trkpt>
<trkpt lat="35.0405814" lon="32.4382852">
<ele>37.92</ele>
<time>2015-04-24T18:43:45Z</time>
</trkpt>
<trkpt lat="35.0406025" lon="32.4383352">
<ele>37.42</ele>
<time>2015-04-24T18:43:46Z</time>
</trkpt>
<trkpt lat="35.0406242" lon="32.4383852">
<ele>37.17</ele>
<time>2015-04-24T18:43:47Z</time>
</trkpt>
<trkpt lat="35.0406540" lon="32.4384264">
<ele>37.55</ele>
<time>2015-04-24T18:43:48Z</time>
</trkpt>
<trkpt lat="35.0406804" lon="32.4384726">
<ele>37.74</ele>
<time>2015-04-24T18:43:49Z</time>
</trkpt>
<trkpt lat="35.0407241" lon="32.4385713">
<ele>37.13</ele>
<time>2015-04-24T18:43:51Z</time>
</trkpt>
<trkpt lat="35.0407549" lon="32.4386306">
<ele>37.03</ele>
<time>2015-04-24T18:43:52Z</time>
</trkpt>
<trkpt lat="35.0407804" lon="32.4386840">
<ele>36.98</ele>
<time>2015-04-24T18:43:53Z</time>
</trkpt>
<trkpt lat="35.0408092" lon="32.4387357">
<ele>36.95</ele>
<time>2015-04-24T18:43:54Z</time>
</trkpt>
<trkpt lat="35.0408354" lon="32.4387876">
<ele>36.94</ele>
<time>2015-04-24T18:43:55Z</time>
</trkpt>
<trkpt lat="35.0408638" lon="32.4388434">
<ele>36.93</ele>
<time>2015-04-24T18:43:56Z</time>
</trkpt>
<trkpt lat="35.0408914" lon="32.4388953">
<ele>36.93</ele>
<time>2015-04-24T18:43:57Z</time>
</trkpt>
<trkpt lat="35.0409246" lon="32.4389622">
<ele>36.93</ele>
<time>2015-04-24T18:43:58Z</time>
</trkpt>
<trkpt lat="35.0409550" lon="32.4390167">
<ele>36.93</ele>
<time>2015-04-24T18:43:59Z</time>
</trkpt>
<trkpt lat="35.0409950" lon="32.4390688">
<ele>36.93</ele>
<time>2015-04-24T18:44:00Z</time>
</trkpt>
<trkpt lat="35.0410259" lon="32.4391237">
<ele>36.93</ele>
<time>2015-04-24T18:44:01Z</time>
</trkpt>
<trkpt lat="35.0410632" lon="32.4391718">
<ele>36.93</ele>
<time>2015-04-24T18:44:02Z</time>
</trkpt>
<trkpt lat="35.0410948" lon="32.4392239">
<ele>36.93</ele>
<time>2015-04-24T18:44:03Z</time>
</trkpt>
<trkpt lat="35.0411319" lon="32.4392679">
<ele>36.93</ele>
<time>2015-04-24T18:44:04Z</time>
</trkpt>
<trkpt lat="35.0411665" lon="32.4393171">
<ele>36.93</ele>
<time>2015-04-24T18:44:05Z</time>
</trkpt>
<trkpt lat="35.0411992" lon="32.4393797">
<ele>36.93</ele>
<time>2015-04-24T18:44:06Z</time>
</trkpt>
<trkpt lat="35.0412350" lon="32.4394337">
<ele>36.93</ele>
<time>2015-04-24T18:44:07Z</time>
</trkpt>
<trkpt lat="35.0412671" lon="32.4394838">
<ele>36.93</ele>
<time>2015-04-24T18:44:08Z</time>
</trkpt>
<trkpt lat="35.0413043" lon="32.4395384">
<ele>36.92</ele>
<time>2015-04-24T18:44:09Z</time>
</trkpt>
<trkpt lat="35.0413429" lon="32.4395924">
<ele>36.42</ele>
<time>2015-04-24T18:44:10Z</time>
</trkpt>
<trkpt lat="35.0413816" lon="32.4396451">
<ele>36.17</ele>
<time>2015-04-24T18:44:11Z</time>
</trkpt>
<trkpt lat="35.0414226" lon="32.4396973">
<ele>36.05</ele>
<time>2015-04-24T18:44:12Z</time>
</trkpt>
<trkpt lat="35.0414612" lon="32.4397494">
<ele>35.49</ele>
<time>2015-04-24T18:44:13Z</time>
</trkpt>
<trkpt lat="35.0415065" lon="32.4398022">
<ele>35.71</ele>
<time>2015-04-24T18:44:14Z</time>
</trkpt>
<trkpt lat="35.0415460" lon="32.4398547">
<ele>35.32</ele>
<time>2015-04-24T18:44:15Z</time>
</trkpt>
<trkpt lat="35.0415809" lon="32.4399053">
<ele>34.62</ele>
<time>2015-04-24T18:44:16Z</time>
</trkpt>
<trkpt lat="35.0416215" lon="32.4399564">
<ele>34.27</ele>
<time>2015-04-24T18:44:17Z</time>
</trkpt>
<trkpt lat="35.0416785" lon="32.4400000">
<ele>33.60</ele>
<time>2015-04-24T18:44:18Z</time>
</trkpt>
<trkpt lat="35.0417294" lon="32.4400502">
<ele>33.26</ele>
<time>2015-04-24T18:44:19Z</time>
</trkpt>
<trkpt lat="35.0417915" lon="32.4401076">
<ele>33.09</ele>
<time>2015-04-24T18:44:20Z</time>
</trkpt>
<trkpt lat="35.0418473" lon="32.4401604">
<ele>33.01</ele>
<time>2015-04-24T18:44:21Z</time>
</trkpt>
<trkpt lat="35.0419099" lon="32.4402148">
<ele>32.97</ele>
<time>2015-04-24T18:44:22Z</time>
</trkpt>
<trkpt lat="35.0419693" lon="32.4402642">
<ele>32.45</ele>
<time>2015-04-24T18:44:23Z</time>
</trkpt>
<trkpt lat="35.0420320" lon="32.4402989">
<ele>32.19</ele>
<time>2015-04-24T18:44:24Z</time>
</trkpt>
<trkpt lat="35.0420922" lon="32.4403425">
<ele>32.06</ele>
<time>2015-04-24T18:44:25Z</time>
</trkpt>
<trkpt lat="35.0421680" lon="32.4403868">
<ele>31.99</ele>
<time>2015-04-24T18:44:26Z</time>
</trkpt>
<trkpt lat="35.0422360" lon="32.4404243">
<ele>31.46</ele>
<time>2015-04-24T18:44:27Z</time>
</trkpt>
<trkpt lat="35.0423038" lon="32.4404592">
<ele>31.19</ele>
<time>2015-04-24T18:44:28Z</time>
</trkpt>
<trkpt lat="35.0423780" lon="32.4404961">
<ele>31.06</ele>
<time>2015-04-24T18:44:29Z</time>
</trkpt>
<trkpt lat="35.0424456" lon="32.4405259">
<ele>30.99</ele>
<time>2015-04-24T18:44:30Z</time>
</trkpt>
<trkpt lat="35.0425154" lon="32.4405584">
<ele>30.96</ele>
<time>2015-04-24T18:44:31Z</time>
</trkpt>
<trkpt lat="35.0425910" lon="32.4405868">
<ele>30.44</ele>
<time>2015-04-24T18:44:32Z</time>
</trkpt>
<trkpt lat="35.0426628" lon="32.4406165">
<ele>30.18</ele>
<time>2015-04-24T18:44:33Z</time>
</trkpt>
<trkpt lat="35.0427372" lon="32.4406352">
<ele>29.55</ele>
<time>2015-04-24T18:44:34Z</time>
</trkpt>
<trkpt lat="35.0428118" lon="32.4406583">
<ele>29.24</ele>
<time>2015-04-24T18:44:35Z</time>
</trkpt>
<trkpt lat="35.0428942" lon="32.4406563">
<ele>29.58</ele>
<time>2015-04-24T18:44:36Z</time>
</trkpt>
<trkpt lat="35.0429700" lon="32.4406689">
<ele>29.75</ele>
<time>2015-04-24T18:44:37Z</time>
</trkpt>
<trkpt lat="35.0430523" lon="32.4406919">
<ele>29.34</ele>
<time>2015-04-24T18:44:38Z</time>
</trkpt>
<trkpt lat="35.0431288" lon="32.4407075">
<ele>29.13</ele>
<time>2015-04-24T18:44:39Z</time>
</trkpt>
<trkpt lat="35.0432038" lon="32.4407309">
<ele>28.53</ele>
<time>2015-04-24T18:44:40Z</time>
</trkpt>
<trkpt lat="35.0432808" lon="32.4407481">
<ele>28.23</ele>
<time>2015-04-24T18:44:41Z</time>
</trkpt>
<trkpt lat="35.0433647" lon="32.4407550">
<ele>27.08</ele>
<time>2015-04-24T18:44:42Z</time>
</trkpt>
<trkpt lat="35.0434424" lon="32.4407671">
<ele>26.50</ele>
<time>2015-04-24T18:44:43Z</time>
</trkpt>
<trkpt lat="35.0435238" lon="32.4407649">
<ele>26.21</ele>
<time>2015-04-24T18:44:44Z</time>
</trkpt>
<trkpt lat="35.0436027" lon="32.4407724">
<ele>26.07</ele>
<time>2015-04-24T18:44:45Z</time>
</trkpt>
<trkpt lat="35.0436894" lon="32.4407763">
<ele>26.00</ele>
<time>2015-04-24T18:44:46Z</time>
</trkpt>
<trkpt lat="35.0437729" lon="32.4407797">
<ele>25.46</ele>
<time>2015-04-24T18:44:47Z</time>
</trkpt>
<trkpt lat="35.0438488" lon="32.4407877">
<ele>25.19</ele>
<time>2015-04-24T18:44:48Z</time>
</trkpt>
<trkpt lat="35.0439235" lon="32.4407909">
<ele>25.06</ele>
<time>2015-04-24T18:44:49Z</time>
</trkpt>
<trkpt lat="35.0440004" lon="32.4407991">
<ele>24.99</ele>
<time>2015-04-24T18:44:50Z</time>
</trkpt>
<trkpt lat="35.0440735" lon="32.4408027">
<ele>25.46</ele>
<time>2015-04-24T18:44:51Z</time>
</trkpt>
<trkpt lat="35.0441414" lon="32.4407982">
<ele>25.19</ele>
<time>2015-04-24T18:44:52Z</time>
</trkpt>
<trkpt lat="35.0442157" lon="32.4408037">
<ele>25.06</ele>
<time>2015-04-24T18:44:53Z</time>
</trkpt>
<trkpt lat="35.0442984" lon="32.4408023">
<ele>24.99</ele>
<time>2015-04-24T18:44:54Z</time>
</trkpt>
<trkpt lat="35.0443680" lon="32.4408037">
<ele>24.96</ele>
<time>2015-04-24T18:44:55Z</time>
</trkpt>
<trkpt lat="35.0444355" lon="32.4408085">
<ele>24.94</ele>
<time>2015-04-24T18:44:56Z</time>
</trkpt>
<trkpt lat="35.0445064" lon="32.4408116">
<ele>24.93</ele>
<time>2015-04-24T18:44:57Z</time>
</trkpt>
<trkpt lat="35.0445699" lon="32.4408059">
<ele>24.43</ele>
<time>2015-04-24T18:44:58Z</time>
</trkpt>
<trkpt lat="35.0446362" lon="32.4408067">
<ele>23.68</ele>
<time>2015-04-24T18:44:59Z</time>
</trkpt>
<trkpt lat="35.0447044" lon="32.4408200">
<ele>23.80</ele>
<time>2015-04-24T18:45:00Z</time>
</trkpt>
<trkpt lat="35.0447711" lon="32.4408240">
<ele>23.86</ele>
<time>2015-04-24T18:45:01Z</time>
</trkpt>
<trkpt lat="35.0448487" lon="32.4408380">
<ele>23.89</ele>
<time>2015-04-24T18:45:02Z</time>
</trkpt>
<trkpt lat="35.0449171" lon="32.4408442">
<ele>23.91</ele>
<time>2015-04-24T18:45:03Z</time>
</trkpt>
<trkpt lat="35.0449989" lon="32.4408408">
<ele>24.42</ele>
<time>2015-04-24T18:45:04Z</time>
</trkpt>
<trkpt lat="35.0450698" lon="32.4408437">
<ele>24.67</ele>
<time>2015-04-24T18:45:05Z</time>
</trkpt>
<trkpt lat="35.0451664" lon="32.4408590">
<ele>23.80</ele>
<time>2015-04-24T18:45:06Z</time>
</trkpt>
<trkpt lat="35.0452422" lon="32.4408647">
<ele>22.86</ele>
<time>2015-04-24T18:45:07Z</time>
</trkpt>
<trkpt lat="35.0453195" lon="32.4408711">
<ele>22.89</ele>
<time>2015-04-24T18:45:08Z</time>
</trkpt>
<trkpt lat="35.0453960" lon="32.4408782">
<ele>22.91</ele>
<time>2015-04-24T18:45:09Z</time>
</trkpt>
<trkpt lat="35.0454705" lon="32.4408951">
<ele>22.92</ele>
<time>2015-04-24T18:45:10Z</time>
</trkpt>
<trkpt lat="35.0455452" lon="32.4409055">
<ele>22.42</ele>
<time>2015-04-24T18:45:11Z</time>
</trkpt>
<trkpt lat="35.0456227" lon="32.4409130">
<ele>22.17</ele>
<time>2015-04-24T18:45:12Z</time>
</trkpt>
<trkpt lat="35.0456970" lon="32.4409241">
<ele>22.05</ele>
<time>2015-04-24T18:45:13Z</time>
</trkpt>
<trkpt lat="35.0457705" lon="32.4409336">
<ele>21.99</ele>
<time>2015-04-24T18:45:14Z</time>
</trkpt>
<trkpt lat="35.0458439" lon="32.4409450">
<ele>21.96</ele>
<time>2015-04-24T18:45:15Z</time>
</trkpt>
<trkpt lat="35.0459169" lon="32.4409635">
<ele>21.44</ele>
<time>2015-04-24T18:45:16Z</time>
</trkpt>
<trkpt lat="35.0459878" lon="32.4409759">
<ele>21.18</ele>
<time>2015-04-24T18:45:17Z</time>
</trkpt>
<trkpt lat="35.0460758" lon="32.4410008">
<ele>21.55</ele>
<time>2015-04-24T18:45:18Z</time>
</trkpt>
<trkpt lat="35.0461524" lon="32.4410202">
<ele>21.74</ele>
<time>2015-04-24T18:45:19Z</time>
</trkpt>
<trkpt lat="35.0462274" lon="32.4410465">
<ele>21.83</ele>
<time>2015-04-24T18:45:20Z</time>
</trkpt>
<trkpt lat="35.0463062" lon="32.4410723">
<ele>21.88</ele>
<time>2015-04-24T18:45:21Z</time>
</trkpt>
<trkpt lat="35.0463842" lon="32.4410994">
<ele>21.40</ele>
<time>2015-04-24T18:45:22Z</time>
</trkpt>
<trkpt lat="35.0464608" lon="32.4411295">
<ele>21.16</ele>
<time>2015-04-24T18:45:23Z</time>
</trkpt>
<trkpt lat="35.0465356" lon="32.4411642">
<ele>21.04</ele>
<time>2015-04-24T18:45:24Z</time>
</trkpt>
<trkpt lat="35.0466114" lon="32.4412011">
<ele>20.98</ele>
<time>2015-04-24T18:45:25Z</time>
</trkpt>
<trkpt lat="35.0466840" lon="32.4412490">
<ele>20.95</ele>
<time>2015-04-24T18:45:26Z</time>
</trkpt>
<trkpt lat="35.0467567" lon="32.4412878">
<ele>20.94</ele>
<time>2015-04-24T18:45:27Z</time>
</trkpt>
<trkpt lat="35.0468263" lon="32.4413283">
<ele>20.93</ele>
<time>2015-04-24T18:45:28Z</time>
</trkpt>
<trkpt lat="35.0468957" lon="32.4413716">
<ele>20.93</ele>
<time>2015-04-24T18:45:29Z</time>
</trkpt>
<trkpt lat="35.0469525" lon="32.4414252">
<ele>20.93</ele>
<time>2015-04-24T18:45:30Z</time>
</trkpt>
<trkpt lat="35.0470201" lon="32.4414782">
<ele>20.93</ele>
<time>2015-04-24T18:45:31Z</time>
</trkpt>
<trkpt lat="35.0470869" lon="32.4415315">
<ele>20.93</ele>
<time>2015-04-24T18:45:32Z</time>
</trkpt>
<trkpt lat="35.0471532" lon="32.4415869">
<ele>20.93</ele>
<time>2015-04-24T18:45:33Z</time>
</trkpt>
<trkpt lat="35.0472253" lon="32.4416453">
<ele>20.93</ele>
<time>2015-04-24T18:45:34Z</time>
</trkpt>
<trkpt lat="35.0472910" lon="32.4417050">
<ele>20.93</ele>
<time>2015-04-24T18:45:35Z</time>
</trkpt>
<trkpt lat="35.0473574" lon="32.4417723">
<ele>20.93</ele>
<time>2015-04-24T18:45:36Z</time>
</trkpt>
<trkpt lat="35.0474180" lon="32.4418400">
<ele>20.93</ele>
<time>2015-04-24T18:45:37Z</time>
</trkpt>
<trkpt lat="35.0474767" lon="32.4419148">
<ele>20.93</ele>
<time>2015-04-24T18:45:38Z</time>
</trkpt>
<trkpt lat="35.0475378" lon="32.4419862">
<ele>20.93</ele>
<time>2015-04-24T18:45:39Z</time>
</trkpt>
<trkpt lat="35.0475962" lon="32.4420613">
<ele>20.93</ele>
<time>2015-04-24T18:45:40Z</time>
</trkpt>
<trkpt lat="35.0476535" lon="32.4421335">
<ele>20.93</ele>
<time>2015-04-24T18:45:41Z</time>
</trkpt>
<trkpt lat="35.0477050" lon="32.4422031">
<ele>20.43</ele>
<time>2015-04-24T18:45:42Z</time>
</trkpt>
<trkpt lat="35.0477582" lon="32.4422760">
<ele>20.18</ele>
<time>2015-04-24T18:45:43Z</time>
</trkpt>
<trkpt lat="35.0478071" lon="32.4423511">
<ele>20.55</ele>
<time>2015-04-24T18:45:44Z</time>
</trkpt>
<trkpt lat="35.0478582" lon="32.4424220">
<ele>20.74</ele>
<time>2015-04-24T18:45:45Z</time>
</trkpt>
<trkpt lat="35.0479002" lon="32.4424930">
<ele>20.33</ele>
<time>2015-04-24T18:45:46Z</time>
</trkpt>
<trkpt lat="35.0479489" lon="32.4425618">
<ele>20.13</ele>
<time>2015-04-24T18:45:47Z</time>
</trkpt>
<trkpt lat="35.0479904" lon="32.4426368">
<ele>20.03</ele>
<time>2015-04-24T18:45:48Z</time>
</trkpt>
<trkpt lat="35.0480379" lon="32.4427052">
<ele>19.48</ele>
<time>2015-04-24T18:45:49Z</time>
</trkpt>
<trkpt lat="35.0480862" lon="32.4427842">
<ele>19.70</ele>
<time>2015-04-24T18:45:50Z</time>
</trkpt>
<trkpt lat="35.0481342" lon="32.4428586">
<ele>20.31</ele>
<time>2015-04-24T18:45:51Z</time>
</trkpt>
<trkpt lat="35.0481788" lon="32.4429391">
<ele>20.12</ele>
<time>2015-04-24T18:45:52Z</time>
</trkpt>
<trkpt lat="35.0482231" lon="32.4430141">
<ele>20.02</ele>
<time>2015-04-24T18:45:53Z</time>
</trkpt>
<trkpt lat="35.0482729" lon="32.4430884">
<ele>19.97</ele>
<time>2015-04-24T18:45:54Z</time>
</trkpt>
<trkpt lat="35.0483189" lon="32.4431623">
<ele>19.95</ele>
<time>2015-04-24T18:45:55Z</time>
</trkpt>
<trkpt lat="35.0483626" lon="32.4432423">
<ele>19.44</ele>
<time>2015-04-24T18:45:56Z</time>
</trkpt>
<trkpt lat="35.0484119" lon="32.4433206">
<ele>19.68</ele>
<time>2015-04-24T18:45:57Z</time>
</trkpt>
<trkpt lat="35.0484565" lon="32.4433981">
<ele>19.30</ele>
<time>2015-04-24T18:45:58Z</time>
</trkpt>
<trkpt lat="35.0485029" lon="32.4434750">
<ele>19.11</ele>
<time>2015-04-24T18:45:59Z</time>
</trkpt>
<trkpt lat="35.0485504" lon="32.4435477">
<ele>19.02</ele>
<time>2015-04-24T18:46:00Z</time>
</trkpt>
<trkpt lat="35.0485956" lon="32.4436303">
<ele>18.97</ele>
<time>2015-04-24T18:46:01Z</time>
</trkpt>
<trkpt lat="35.0486391" lon="32.4437086">
<ele>18.95</ele>
<time>2015-04-24T18:46:02Z</time>
</trkpt>
<trkpt lat="35.0486848" lon="32.4437854">
<ele>18.94</ele>
<time>2015-04-24T18:46:03Z</time>
</trkpt>
<trkpt lat="35.0487305" lon="32.4438509">
<ele>18.93</ele>
<time>2015-04-24T18:46:04Z</time>
</trkpt>
<trkpt lat="35.0487787" lon="32.4439233">
<ele>18.43</ele>
<time>2015-04-24T18:46:05Z</time>
</trkpt>
<trkpt lat="35.0488263" lon="32.4439989">
<ele>18.68</ele>
<time>2015-04-24T18:46:06Z</time>
</trkpt>
<trkpt lat="35.0488720" lon="32.4440714">
<ele>18.80</ele>
<time>2015-04-24T18:46:07Z</time>
</trkpt>
<trkpt lat="35.0489223" lon="32.4441400">
<ele>18.86</ele>
<time>2015-04-24T18:46:08Z</time>
</trkpt>
<trkpt lat="35.0489668" lon="32.4442122">
<ele>18.89</ele>
<time>2015-04-24T18:46:09Z</time>
</trkpt>
<trkpt lat="35.0490041" lon="32.4442858">
<ele>18.91</ele>
<time>2015-04-24T18:46:10Z</time>
</trkpt>
<trkpt lat="35.0490530" lon="32.4443553">
<ele>18.92</ele>
<time>2015-04-24T18:46:11Z</time>
</trkpt>
<trkpt lat="35.0490946" lon="32.4444261">
<ele>18.92</ele>
<time>2015-04-24T18:46:12Z</time>
</trkpt>
<trkpt lat="35.0491360" lon="32.4444900">
<ele>18.42</ele>
<time>2015-04-24T18:46:13Z</time>
</trkpt>
<trkpt lat="35.0491788" lon="32.4445570">
<ele>18.67</ele>
<time>2015-04-24T18:46:14Z</time>
</trkpt>
<trkpt lat="35.0492179" lon="32.4446208">
<ele>18.80</ele>
<time>2015-04-24T18:46:15Z</time>
</trkpt>
<trkpt lat="35.0492478" lon="32.4446793">
<ele>18.86</ele>
<time>2015-04-24T18:46:16Z</time>
</trkpt>
<trkpt lat="35.0492901" lon="32.4447439">
<ele>18.89</ele>
<time>2015-04-24T18:46:17Z</time>
</trkpt>
<trkpt lat="35.0493268" lon="32.4447985">
<ele>19.41</ele>
<time>2015-04-24T18:46:18Z</time>
</trkpt>
<trkpt lat="35.0493523" lon="32.4448496">
<ele>19.67</ele>
<time>2015-04-24T18:46:19Z</time>
</trkpt>
<trkpt lat="35.0493866" lon="32.4449008">
<ele>19.80</ele>
<time>2015-04-24T18:46:20Z</time>
</trkpt>
<trkpt lat="35.0494273" lon="32.4449581">
<ele>20.36</ele>
<time>2015-04-24T18:46:21Z</time>
</trkpt>
<trkpt lat="35.0494677" lon="32.4450219">
<ele>20.64</ele>
<time>2015-04-24T18:46:22Z</time>
</trkpt>
<trkpt lat="35.0495107" lon="32.4450725">
<ele>20.78</ele>
<time>2015-04-24T18:46:23Z</time>
</trkpt>
<trkpt lat="35.0495583" lon="32.4451215">
<ele>21.85</ele>
<time>2015-04-24T18:46:24Z</time>
</trkpt>
<trkpt lat="35.0496010" lon="32.4451836">
<ele>22.89</ele>
<time>2015-04-24T18:46:25Z</time>
</trkpt>
<trkpt lat="35.0496310" lon="32.4452465">
<ele>23.41</ele>
<time>2015-04-24T18:46:26Z</time>
</trkpt>
<trkpt lat="35.0496662" lon="32.4453073">
<ele>23.67</ele>
<time>2015-04-24T18:46:27Z</time>
</trkpt>
<trkpt lat="35.0497012" lon="32.4453726">
<ele>24.30</ele>
<time>2015-04-24T18:46:28Z</time>
</trkpt>
<trkpt lat="35.0497407" lon="32.4454278">
<ele>25.11</ele>
<time>2015-04-24T18:46:29Z</time>
</trkpt>
<trkpt lat="35.0497746" lon="32.4454893">
<ele>25.52</ele>
<time>2015-04-24T18:46:30Z</time>
</trkpt>
<trkpt lat="35.0498110" lon="32.4455378">
<ele>25.72</ele>
<time>2015-04-24T18:46:31Z</time>
</trkpt>
<trkpt lat="35.0498416" lon="32.4456058">
<ele>25.82</ele>
<time>2015-04-24T18:46:32Z</time>
</trkpt>
<trkpt lat="35.0498748" lon="32.4456582">
<ele>25.87</ele>
<time>2015-04-24T18:46:33Z</time>
</trkpt>
<trkpt lat="35.0499221" lon="32.4457166">
<ele>26.40</ele>
<time>2015-04-24T18:46:34Z</time>
</trkpt>
<trkpt lat="35.0499583" lon="32.4457558">
<ele>27.66</ele>
<time>2015-04-24T18:46:35Z</time>
</trkpt>
<trkpt lat="35.0499968" lon="32.4458117">
<ele>28.29</ele>
<time>2015-04-24T18:46:36Z</time>
</trkpt>
<trkpt lat="35.0500279" lon="32.4458705">
<ele>28.61</ele>
<time>2015-04-24T18:46:37Z</time>
</trkpt>
<trkpt lat="35.0500564" lon="32.4459220">
<ele>28.77</ele>
<time>2015-04-24T18:46:38Z</time>
</trkpt>
<trkpt lat="35.0500811" lon="32.4459702">
<ele>28.35</ele>
<time>2015-04-24T18:46:39Z</time>
</trkpt>
<trkpt lat="35.0501030" lon="32.4460207">
<ele>28.14</ele>
<time>2015-04-24T18:46:40Z</time>
</trkpt>
<trkpt lat="35.0501355" lon="32.4460602">
<ele>28.03</ele>
<time>2015-04-24T18:46:41Z</time>
</trkpt>
<trkpt lat="35.0501846" lon="32.4461436">
<ele>27.20</ele>
<time>2015-04-24T18:46:43Z</time>
</trkpt>
<trkpt lat="35.0502150" lon="32.4461940">
<ele>27.06</ele>
<time>2015-04-24T18:46:44Z</time>
</trkpt>
<trkpt lat="35.0502472" lon="32.4462444">
<ele>26.99</ele>
<time>2015-04-24T18:46:45Z</time>
</trkpt>
<trkpt lat="35.0502829" lon="32.4462980">
<ele>27.46</ele>
<time>2015-04-24T18:46:46Z</time>
</trkpt>
<trkpt lat="35.0503157" lon="32.4463525">
<ele>27.19</ele>
<time>2015-04-24T18:46:47Z</time>
</trkpt>
<trkpt lat="35.0503597" lon="32.4464066">
<ele>27.06</ele>
<time>2015-04-24T18:46:48Z</time>
</trkpt>
<trkpt lat="35.0504000" lon="32.4464654">
<ele>26.99</ele>
<time>2015-04-24T18:46:49Z</time>
</trkpt>
<trkpt lat="35.0504317" lon="32.4465310">
<ele>26.96</ele>
<time>2015-04-24T18:46:50Z</time>
</trkpt>
<trkpt lat="35.0504734" lon="32.4465779">
<ele>26.44</ele>
<time>2015-04-24T18:46:51Z</time>
</trkpt>
<trkpt lat="35.0505075" lon="32.4466402">
<ele>26.18</ele>
<time>2015-04-24T18:46:52Z</time>
</trkpt>
<trkpt lat="35.0505419" lon="32.4467017">
<ele>26.05</ele>
<time>2015-04-24T18:46:53Z</time>
</trkpt>
<trkpt lat="35.0505746" lon="32.4467542">
<ele>25.99</ele>
<time>2015-04-24T18:46:54Z</time>
</trkpt>
<trkpt lat="35.0506085" lon="32.4468056">
<ele>26.46</ele>
<time>2015-04-24T18:46:55Z</time>
</trkpt>
<trkpt lat="35.0506411" lon="32.4468453">
<ele>26.69</ele>
<time>2015-04-24T18:46:56Z</time>
</trkpt>
<trkpt lat="35.0506633" lon="32.4468975">
<ele>26.81</ele>
<time>2015-04-24T18:46:57Z</time>
</trkpt>
<trkpt lat="35.0506978" lon="32.4469542">
<ele>26.87</ele>
<time>2015-04-24T18:46:58Z</time>
</trkpt>
<trkpt lat="35.0507334" lon="32.4470010">
<ele>26.90</ele>
<time>2015-04-24T18:46:59Z</time>
</trkpt>
<trkpt lat="35.0507688" lon="32.4470603">
<ele>27.41</ele>
<time>2015-04-24T18:47:00Z</time>
</trkpt>
<trkpt lat="35.0507996" lon="32.4471144">
<ele>28.17</ele>
<time>2015-04-24T18:47:01Z</time>
</trkpt>
<trkpt lat="35.0508298" lon="32.4471741">
<ele>28.55</ele>
<time>2015-04-24T18:47:02Z</time>
</trkpt>
<trkpt lat="35.0508469" lon="32.4472384">
<ele>28.74</ele>
<time>2015-04-24T18:47:03Z</time>
</trkpt>
<trkpt lat="35.0508759" lon="32.4472972">
<ele>29.33</ele>
<time>2015-04-24T18:47:04Z</time>
</trkpt>
<trkpt lat="35.0509097" lon="32.4473495">
<ele>29.63</ele>
<time>2015-04-24T18:47:05Z</time>
</trkpt>
<trkpt lat="35.0509388" lon="32.4474107">
<ele>30.28</ele>
<time>2015-04-24T18:47:06Z</time>
</trkpt>
<trkpt lat="35.0509666" lon="32.4474585">
<ele>30.60</ele>
<time>2015-04-24T18:47:07Z</time>
</trkpt>
<trkpt lat="35.0509965" lon="32.4475200">
<ele>30.76</ele>
<time>2015-04-24T18:47:08Z</time>
</trkpt>
<trkpt lat="35.0510257" lon="32.4475746">
<ele>31.34</ele>
<time>2015-04-24T18:47:09Z</time>
</trkpt>
<trkpt lat="35.0510477" lon="32.4476304">
<ele>31.13</ele>
<time>2015-04-24T18:47:10Z</time>
</trkpt>
<trkpt lat="35.0510911" lon="32.4477214">
<ele>30.98</ele>
<time>2015-04-24T18:47:12Z</time>
</trkpt>
<trkpt lat="35.0511178" lon="32.4477734">
<ele>30.95</ele>
<time>2015-04-24T18:47:13Z</time>
</trkpt>
<trkpt lat="35.0511826" lon="32.4478404">
<ele>31.68</ele>
<time>2015-04-24T18:47:15Z</time>
</trkpt>
<trkpt lat="35.0512264" lon="32.4479364">
<ele>32.61</ele>
<time>2015-04-24T18:47:17Z</time>
</trkpt>
<trkpt lat="35.0512628" lon="32.4480373">
<ele>32.10</ele>
<time>2015-04-24T18:47:19Z</time>
</trkpt>
<trkpt lat="35.0512882" lon="32.4480893">
<ele>32.01</ele>
<time>2015-04-24T18:47:20Z</time>
</trkpt>
<trkpt lat="35.0513160" lon="32.4481442">
<ele>32.47</ele>
<time>2015-04-24T18:47:21Z</time>
</trkpt>
<trkpt lat="35.0513398" lon="32.4481989">
<ele>32.20</ele>
<time>2015-04-24T18:47:22Z</time>
</trkpt>
<trkpt lat="35.0513661" lon="32.4482539">
<ele>32.06</ele>
<time>2015-04-24T18:47:23Z</time>
</trkpt>
<trkpt lat="35.0513910" lon="32.4483062">
<ele>31.99</ele>
<time>2015-04-24T18:47:24Z</time>
</trkpt>
<trkpt lat="35.0514207" lon="32.4483616">
<ele>31.96</ele>
<time>2015-04-24T18:47:25Z</time>
</trkpt>
<trkpt lat="35.0514489" lon="32.4484183">
<ele>32.44</ele>
<time>2015-04-24T18:47:26Z</time>
</trkpt>
<trkpt lat="35.0514687" lon="32.4484705">
<ele>32.68</ele>
<time>2015-04-24T18:47:27Z</time>
</trkpt>
<trkpt lat="35.0514915" lon="32.4485288">
<ele>32.30</ele>
<time>2015-04-24T18:47:28Z</time>
</trkpt>
<trkpt lat="35.0515164" lon="32.4485867">
<ele>32.11</ele>
<time>2015-04-24T18:47:29Z</time>
</trkpt>
<trkpt lat="35.0515592" lon="32.4486833">
<ele>31.97</ele>
<time>2015-04-24T18:47:31Z</time>
</trkpt>
<trkpt lat="35.0515878" lon="32.4487370">
<ele>31.95</ele>
<time>2015-04-24T18:47:32Z</time>
</trkpt>
<trkpt lat="35.0516260" lon="32.4488285">
<ele>32.43</ele>
<time>2015-04-24T18:47:34Z</time>
</trkpt>
<trkpt lat="35.0516456" lon="32.4488841">
<ele>32.18</ele>
<time>2015-04-24T18:47:35Z</time>
</trkpt>
<trkpt lat="35.0516754" lon="32.4489444">
<ele>32.05</ele>
<time>2015-04-24T18:47:36Z</time>
</trkpt>
<trkpt lat="35.0517113" lon="32.4489982">
<ele>32.99</ele>
<time>2015-04-24T18:47:37Z</time>
</trkpt>
<trkpt lat="35.0517337" lon="32.4490549">
<ele>33.46</ele>
<time>2015-04-24T18:47:38Z</time>
</trkpt>
<trkpt lat="35.0517529" lon="32.4491086">
<ele>33.69</ele>
<time>2015-04-24T18:47:39Z</time>
</trkpt>
<trkpt lat="35.0517659" lon="32.4491619">
<ele>33.31</ele>
<time>2015-04-24T18:47:40Z</time>
</trkpt>
<trkpt lat="35.0517977" lon="32.4492158">
<ele>32.62</ele>
<time>2015-04-24T18:47:41Z</time>
</trkpt>
<trkpt lat="35.0518270" lon="32.4492728">
<ele>32.27</ele>
<time>2015-04-24T18:47:42Z</time>
</trkpt>
<trkpt lat="35.0518454" lon="32.4493266">
<ele>31.60</ele>
<time>2015-04-24T18:47:43Z</time>
</trkpt>
<trkpt lat="35.0518676" lon="32.4493790">
<ele>30.76</ele>
<time>2015-04-24T18:47:44Z</time>
</trkpt>
<trkpt lat="35.0519004" lon="32.4494423">
<ele>30.34</ele>
<time>2015-04-24T18:47:45Z</time>
</trkpt>
<trkpt lat="35.0519281" lon="32.4494947">
<ele>30.13</ele>
<time>2015-04-24T18:47:46Z</time>
</trkpt>
<trkpt lat="35.0519546" lon="32.4495487">
<ele>29.53</ele>
<time>2015-04-24T18:47:47Z</time>
</trkpt>
<trkpt lat="35.0519867" lon="32.4496035">
<ele>29.73</ele>
<time>2015-04-24T18:47:48Z</time>
</trkpt>
<trkpt lat="35.0520177" lon="32.4496677">
<ele>29.83</ele>
<time>2015-04-24T18:47:49Z</time>
</trkpt>
<trkpt lat="35.0520538" lon="32.4497192">
<ele>30.38</ele>
<time>2015-04-24T18:47:50Z</time>
</trkpt>
<trkpt lat="35.0520796" lon="32.4497830">
<ele>30.65</ele>
<time>2015-04-24T18:47:51Z</time>
</trkpt>
<trkpt lat="35.0520978" lon="32.4498384">
<ele>30.79</ele>
<time>2015-04-24T18:47:52Z</time>
</trkpt>
<trkpt lat="35.0521227" lon="32.4498995">
<ele>30.36</ele>
<time>2015-04-24T18:47:53Z</time>
</trkpt>
<trkpt lat="35.0521541" lon="32.4499542">
<ele>30.14</ele>
<time>2015-04-24T18:47:54Z</time>
</trkpt>
<trkpt lat="35.0521757" lon="32.4500100">
<ele>29.53</ele>
<time>2015-04-24T18:47:55Z</time>
</trkpt>
<trkpt lat="35.0522074" lon="32.4500726">
<ele>29.23</ele>
<time>2015-04-24T18:47:56Z</time>
</trkpt>
<trkpt lat="35.0522364" lon="32.4501337">
<ele>29.08</ele>
<time>2015-04-24T18:47:57Z</time>
</trkpt>
<trkpt lat="35.0522574" lon="32.4501928">
<ele>28.50</ele>
<time>2015-04-24T18:47:58Z</time>
</trkpt>
<trkpt lat="35.0522837" lon="32.4502379">
<ele>28.21</ele>
<time>2015-04-24T18:47:59Z</time>
</trkpt>
<trkpt lat="35.0523079" lon="32.4502867">
<ele>28.07</ele>
<time>2015-04-24T18:48:00Z</time>
</trkpt>
<trkpt lat="35.0523317" lon="32.4503392">
<ele>27.50</ele>
<time>2015-04-24T18:48:01Z</time>
</trkpt>
<trkpt lat="35.0523637" lon="32.4503887">
<ele>27.71</ele>
<time>2015-04-24T18:48:02Z</time>
</trkpt>
<trkpt lat="35.0523913" lon="32.4504445">
<ele>27.82</ele>
<time>2015-04-24T18:48:03Z</time>
</trkpt>
<trkpt lat="35.0524212" lon="32.4505060">
<ele>28.37</ele>
<time>2015-04-24T18:48:04Z</time>
</trkpt>
<trkpt lat="35.0524464" lon="32.4505524">
<ele>28.65</ele>
<time>2015-04-24T18:48:05Z</time>
</trkpt>
<trkpt lat="35.0524814" lon="32.4506087">
<ele>28.79</ele>
<time>2015-04-24T18:48:06Z</time>
</trkpt>
<trkpt lat="35.0525094" lon="32.4506643">
<ele>28.36</ele>
<time>2015-04-24T18:48:07Z</time>
</trkpt>
<trkpt lat="35.0525438" lon="32.4507298">
<ele>28.64</ele>
<time>2015-04-24T18:48:08Z</time>
</trkpt>
<trkpt lat="35.0525770" lon="32.4507984">
<ele>28.78</ele>
<time>2015-04-24T18:48:09Z</time>
</trkpt>
<trkpt lat="35.0526097" lon="32.4508628">
<ele>28.85</ele>
<time>2015-04-24T18:48:10Z</time>
</trkpt>
<trkpt lat="35.0526358" lon="32.4509266">
<ele>28.39</ele>
<time>2015-04-24T18:48:11Z</time>
</trkpt>
<trkpt lat="35.0526696" lon="32.4510012">
<ele>28.16</ele>
<time>2015-04-24T18:48:12Z</time>
</trkpt>
<trkpt lat="35.0527054" lon="32.4510624">
<ele>28.04</ele>
<time>2015-04-24T18:48:13Z</time>
</trkpt>
<trkpt lat="35.0527363" lon="32.4511284">
<ele>27.48</ele>
<time>2015-04-24T18:48:14Z</time>
</trkpt>
<trkpt lat="35.0527663" lon="32.4511946">
<ele>27.20</ele>
<time>2015-04-24T18:48:15Z</time>
</trkpt>
<trkpt lat="35.0527988" lon="32.4512627">
<ele>27.06</ele>
<time>2015-04-24T18:48:16Z</time>
</trkpt>
<trkpt lat="35.0528339" lon="32.4513350">
<ele>26.99</ele>
<time>2015-04-24T18:48:17Z</time>
</trkpt>
<trkpt lat="35.0528639" lon="32.4513903">
<ele>26.96</ele>
<time>2015-04-24T18:48:18Z</time>
</trkpt>
<trkpt lat="35.0528941" lon="32.4514501">
<ele>26.94</ele>
<time>2015-04-24T18:48:19Z</time>
</trkpt>
<trkpt lat="35.0529216" lon="32.4515208">
<ele>26.93</ele>
<time>2015-04-24T18:48:20Z</time>
</trkpt>
<trkpt lat="35.0529620" lon="32.4515927">
<ele>26.93</ele>
<time>2015-04-24T18:48:21Z</time>
</trkpt>
<trkpt lat="35.0529910" lon="32.4516651">
<ele>26.93</ele>
<time>2015-04-24T18:48:22Z</time>
</trkpt>
<trkpt lat="35.0530186" lon="32.4517369">
<ele>26.43</ele>
<time>2015-04-24T18:48:23Z</time>
</trkpt>
<trkpt lat="35.0530508" lon="32.4518083">
<ele>26.68</ele>
<time>2015-04-24T18:48:24Z</time>
</trkpt>
<trkpt lat="35.0530906" lon="32.4518840">
<ele>26.80</ele>
<time>2015-04-24T18:48:25Z</time>
</trkpt>
<trkpt lat="35.0531260" lon="32.4519579">
<ele>26.36</ele>
<time>2015-04-24T18:48:26Z</time>
</trkpt>
<trkpt lat="35.0531656" lon="32.4520208">
<ele>26.14</ele>
<time>2015-04-24T18:48:27Z</time>
</trkpt>
<trkpt lat="35.0532024" lon="32.4520963">
<ele>26.03</ele>
<time>2015-04-24T18:48:28Z</time>
</trkpt>
<trkpt lat="35.0532495" lon="32.4521602">
<ele>26.98</ele>
<time>2015-04-24T18:48:29Z</time>
</trkpt>
<trkpt lat="35.0532762" lon="32.4522192">
<ele>26.95</ele>
<time>2015-04-24T18:48:30Z</time>
</trkpt>
<trkpt lat="35.0533160" lon="32.4522860">
<ele>26.94</ele>
<time>2015-04-24T18:48:31Z</time>
</trkpt>
<trkpt lat="35.0533277" lon="32.4523622">
<ele>25.93</ele>
<time>2015-04-24T18:48:32Z</time>
</trkpt>
<trkpt lat="35.0533675" lon="32.4524211">
<ele>25.43</ele>
<time>2015-04-24T18:48:33Z</time>
</trkpt>
<trkpt lat="35.0534021" lon="32.4524919">
<ele>25.18</ele>
<time>2015-04-24T18:48:34Z</time>
</trkpt>
<trkpt lat="35.0534407" lon="32.4525588">
<ele>25.05</ele>
<time>2015-04-24T18:48:35Z</time>
</trkpt>
<trkpt lat="35.0534806" lon="32.4526284">
<ele>25.49</ele>
<time>2015-04-24T18:48:36Z</time>
</trkpt>
<trkpt lat="35.0535132" lon="32.4526851">
<ele>25.21</ele>
<time>2015-04-24T18:48:37Z</time>
</trkpt>
<trkpt lat="35.0535446" lon="32.4527391">
<ele>24.57</ele>
<time>2015-04-24T18:48:38Z</time>
</trkpt>
<trkpt lat="35.0535775" lon="32.4527947">
<ele>23.75</ele>
<time>2015-04-24T18:48:39Z</time>
</trkpt>
<trkpt lat="35.0536096" lon="32.4528557">
<ele>23.34</ele>
<time>2015-04-24T18:48:40Z</time>
</trkpt>
<trkpt lat="35.0536463" lon="32.4529214">
<ele>23.13</ele>
<time>2015-04-24T18:48:41Z</time>
</trkpt>
<trkpt lat="35.0536748" lon="32.4529882">
<ele>23.03</ele>
<time>2015-04-24T18:48:42Z</time>
</trkpt>
<trkpt lat="35.0537059" lon="32.4530570">
<ele>22.98</ele>
<time>2015-04-24T18:48:43Z</time>
</trkpt>
<trkpt lat="35.0537389" lon="32.4531214">
<ele>22.95</ele>
<time>2015-04-24T18:48:44Z</time>
</trkpt>
<trkpt lat="35.0537783" lon="32.4531916">
<ele>22.94</ele>
<time>2015-04-24T18:48:45Z</time>
</trkpt>
<trkpt lat="35.0538103" lon="32.4532593">
<ele>22.93</ele>
<time>2015-04-24T18:48:46Z</time>
</trkpt>
<trkpt lat="35.0538467" lon="32.4533145">
<ele>22.93</ele>
<time>2015-04-24T18:48:47Z</time>
</trkpt>
<trkpt lat="35.0538825" lon="32.4533774">
<ele>23.43</ele>
<time>2015-04-24T18:48:48Z</time>
</trkpt>
<trkpt lat="35.0539148" lon="32.4534477">
<ele>23.18</ele>
<time>2015-04-24T18:48:49Z</time>
</trkpt>
<trkpt lat="35.0539491" lon="32.4535036">
<ele>23.55</ele>
<time>2015-04-24T18:48:50Z</time>
</trkpt>
<trkpt lat="35.0539822" lon="32.4535592">
<ele>23.24</ele>
<time>2015-04-24T18:48:51Z</time>
</trkpt>
<trkpt lat="35.0540085" lon="32.4536159">
<ele>23.58</ele>
<time>2015-04-24T18:48:52Z</time>
</trkpt>
<trkpt lat="35.0540454" lon="32.4536801">
<ele>23.25</ele>
<time>2015-04-24T18:48:53Z</time>
</trkpt>
<trkpt lat="35.0540817" lon="32.4537417">
<ele>23.59</ele>
<time>2015-04-24T18:48:54Z</time>
</trkpt>
<trkpt lat="35.0541085" lon="32.4537998">
<ele>23.26</ele>
<time>2015-04-24T18:48:55Z</time>
</trkpt>
<trkpt lat="35.0541434" lon="32.4538534">
<ele>23.59</ele>
<time>2015-04-24T18:48:56Z</time>
</trkpt>
<trkpt lat="35.0541776" lon="32.4539134">
<ele>23.76</ele>
<time>2015-04-24T18:48:57Z</time>
</trkpt>
<trkpt lat="35.0542301" lon="32.4539707">
<ele>25.34</ele>
<time>2015-04-24T18:48:58Z</time>
</trkpt>
<trkpt lat="35.0542690" lon="32.4540331">
<ele>26.13</ele>
<time>2015-04-24T18:48:59Z</time>
</trkpt>
<trkpt lat="35.0543122" lon="32.4540904">
<ele>26.53</ele>
<time>2015-04-24T18:49:00Z</time>
</trkpt>
<trkpt lat="35.0543541" lon="32.4541417">
<ele>26.73</ele>
<time>2015-04-24T18:49:01Z</time>
</trkpt>
<trkpt lat="35.0543965" lon="32.4541966">
<ele>26.83</ele>
<time>2015-04-24T18:49:02Z</time>
</trkpt>
<trkpt lat="35.0544224" lon="32.4542462">
<ele>25.88</ele>
<time>2015-04-24T18:49:03Z</time>
</trkpt>
<trkpt lat="35.0544625" lon="32.4542881">
<ele>24.90</ele>
<time>2015-04-24T18:49:04Z</time>
</trkpt>
<trkpt lat="35.0545014" lon="32.4543268">
<ele>24.41</ele>
<time>2015-04-24T18:49:05Z</time>
</trkpt>
<trkpt lat="35.0545495" lon="32.4543511">
<ele>24.17</ele>
<time>2015-04-24T18:49:06Z</time>
</trkpt>
<trkpt lat="35.0545922" lon="32.4543864">
<ele>24.55</ele>
<time>2015-04-24T18:49:07Z</time>
</trkpt>
<trkpt lat="35.0546379" lon="32.4544206">
<ele>24.24</ele>
<time>2015-04-24T18:49:08Z</time>
</trkpt>
<trkpt lat="35.0546946" lon="32.4544491">
<ele>25.08</ele>
<time>2015-04-24T18:49:09Z</time>
</trkpt>
<trkpt lat="35.0547592" lon="32.4544682">
<ele>26.50</ele>
<time>2015-04-24T18:49:10Z</time>
</trkpt>
<trkpt lat="35.0548042" lon="32.4544985">
<ele>27.21</ele>
<time>2015-04-24T18:49:11Z</time>
</trkpt>
<trkpt lat="35.0548530" lon="32.4545294">
<ele>27.57</ele>
<time>2015-04-24T18:49:12Z</time>
</trkpt>
<trkpt lat="35.0549034" lon="32.4545409">
<ele>27.25</ele>
<time>2015-04-24T18:49:13Z</time>
</trkpt>
<trkpt lat="35.0549585" lon="32.4545654">
<ele>27.09</ele>
<time>2015-04-24T18:49:14Z</time>
</trkpt>
<trkpt lat="35.0550246" lon="32.4545784">
<ele>27.01</ele>
<time>2015-04-24T18:49:15Z</time>
</trkpt>
<trkpt lat="35.0550956" lon="32.4546005">
<ele>26.97</ele>
<time>2015-04-24T18:49:16Z</time>
</trkpt>
<trkpt lat="35.0551567" lon="32.4546091">
<ele>26.95</ele>
<time>2015-04-24T18:49:17Z</time>
</trkpt>
<trkpt lat="35.0552223" lon="32.4546224">
<ele>26.44</ele>
<time>2015-04-24T18:49:18Z</time>
</trkpt>
<trkpt lat="35.0552811" lon="32.4546166">
<ele>26.18</ele>
<time>2015-04-24T18:49:19Z</time>
</trkpt>
<trkpt lat="35.0553552" lon="32.4546308">
<ele>26.05</ele>
<time>2015-04-24T18:49:20Z</time>
</trkpt>
<trkpt lat="35.0554249" lon="32.4546443">
<ele>25.49</ele>
<time>2015-04-24T18:49:21Z</time>
</trkpt>
<trkpt lat="35.0555021" lon="32.4546639">
<ele>24.71</ele>
<time>2015-04-24T18:49:22Z</time>
</trkpt>
<trkpt lat="35.0555673" lon="32.4546686">
<ele>23.82</ele>
<time>2015-04-24T18:49:23Z</time>
</trkpt>
<trkpt lat="35.0556476" lon="32.4546677">
<ele>22.87</ele>
<time>2015-04-24T18:49:24Z</time>
</trkpt>
<trkpt lat="35.0557332" lon="32.4546785">
<ele>23.16</ele>
<time>2015-04-24T18:49:26Z</time>
</trkpt>
<trkpt lat="35.0557976" lon="32.4546936">
<ele>23.54</ele>
<time>2015-04-24T18:49:27Z</time>
</trkpt>
<trkpt lat="35.0558735" lon="32.4547049">
<ele>23.73</ele>
<time>2015-04-24T18:49:28Z</time>
</trkpt>
<trkpt lat="35.0559407" lon="32.4547224">
<ele>23.33</ele>
<time>2015-04-24T18:49:29Z</time>
</trkpt>
<trkpt lat="35.0560092" lon="32.4547349">
<ele>23.13</ele>
<time>2015-04-24T18:49:30Z</time>
</trkpt>
<trkpt lat="35.0560779" lon="32.4547447">
<ele>23.03</ele>
<time>2015-04-24T18:49:31Z</time>
</trkpt>
<trkpt lat="35.0561411" lon="32.4547468">
<ele>23.48</ele>
<time>2015-04-24T18:49:32Z</time>
</trkpt>
<trkpt lat="35.0562120" lon="32.4547557">
<ele>23.70</ele>
<time>2015-04-24T18:49:33Z</time>
</trkpt>
<trkpt lat="35.0562820" lon="32.4547646">
<ele>23.31</ele>
<time>2015-04-24T18:49:34Z</time>
</trkpt>
<trkpt lat="35.0563465" lon="32.4547704">
<ele>22.62</ele>
<time>2015-04-24T18:49:35Z</time>
</trkpt>
<trkpt lat="35.0564174" lon="32.4547766">
<ele>22.77</ele>
<time>2015-04-24T18:49:36Z</time>
</trkpt>
<trkpt lat="35.0564862" lon="32.4547880">
<ele>22.35</ele>
<time>2015-04-24T18:49:37Z</time>
</trkpt>
<trkpt lat="35.0565529" lon="32.4547935">
<ele>22.14</ele>
<time>2015-04-24T18:49:38Z</time>
</trkpt>
<trkpt lat="35.0566158" lon="32.4548097">
<ele>22.53</ele>
<time>2015-04-24T18:49:39Z</time>
</trkpt>
<trkpt lat="35.0566862" lon="32.4548187">
<ele>22.23</ele>
<time>2015-04-24T18:49:40Z</time>
</trkpt>
<trkpt lat="35.0567553" lon="32.4548307">
<ele>22.08</ele>
<time>2015-04-24T18:49:41Z</time>
</trkpt>
<trkpt lat="35.0568245" lon="32.4548288">
<ele>22.00</ele>
<time>2015-04-24T18:49:42Z</time>
</trkpt>
<trkpt lat="35.0568834" lon="32.4548424">
<ele>21.96</ele>
<time>2015-04-24T18:49:43Z</time>
</trkpt>
<trkpt lat="35.0569523" lon="32.4548541">
<ele>21.94</ele>
<time>2015-04-24T18:49:44Z</time>
</trkpt>
<trkpt lat="35.0570218" lon="32.4548797">
<ele>22.43</ele>
<time>2015-04-24T18:49:45Z</time>
</trkpt>
<trkpt lat="35.0570902" lon="32.4548966">
<ele>22.18</ele>
<time>2015-04-24T18:49:46Z</time>
</trkpt>
<trkpt lat="35.0571496" lon="32.4549219">
<ele>21.55</ele>
<time>2015-04-24T18:49:47Z</time>
</trkpt>
<trkpt lat="35.0572115" lon="32.4549623">
<ele>21.24</ele>
<time>2015-04-24T18:49:48Z</time>
</trkpt>
<trkpt lat="35.0572708" lon="32.4550136">
<ele>21.08</ele>
<time>2015-04-24T18:49:49Z</time>
</trkpt>
<trkpt lat="35.0573328" lon="32.4550687">
<ele>20.50</ele>
<time>2015-04-24T18:49:50Z</time>
</trkpt>
<trkpt lat="35.0573884" lon="32.4551191">
<ele>20.21</ele>
<time>2015-04-24T18:49:51Z</time>
</trkpt>
<trkpt lat="35.0574452" lon="32.4551747">
<ele>20.07</ele>
<time>2015-04-24T18:49:52Z</time>
</trkpt>
<trkpt lat="35.0574892" lon="32.4552336">
<ele>20.50</ele>
<time>2015-04-24T18:49:53Z</time>
</trkpt>
<trkpt lat="35.0575344" lon="32.4553026">
<ele>21.21</ele>
<time>2015-04-24T18:49:54Z</time>
</trkpt>
<trkpt lat="35.0575713" lon="32.4553673">
<ele>21.57</ele>
<time>2015-04-24T18:49:55Z</time>
</trkpt>
<trkpt lat="35.0576140" lon="32.4554194">
<ele>22.75</ele>
<time>2015-04-24T18:49:56Z</time>
</trkpt>
<trkpt lat="35.0576588" lon="32.4554842">
<ele>23.84</ele>
<time>2015-04-24T18:49:57Z</time>
</trkpt>
<trkpt lat="35.0576978" lon="32.4555422">
<ele>24.38</ele>
<time>2015-04-24T18:49:58Z</time>
</trkpt>
<trkpt lat="35.0577322" lon="32.4555968">
<ele>24.65</ele>
<time>2015-04-24T18:49:59Z</time>
</trkpt>
<trkpt lat="35.0577651" lon="32.4556551">
<ele>24.79</ele>
<time>2015-04-24T18:50:00Z</time>
</trkpt>
<trkpt lat="35.0577972" lon="32.4557102">
<ele>24.86</ele>
<time>2015-04-24T18:50:01Z</time>
</trkpt>
<trkpt lat="35.0578236" lon="32.4557599">
<ele>24.89</ele>
<time>2015-04-24T18:50:02Z</time>
</trkpt>
<trkpt lat="35.0578889" lon="32.4558522">
<ele>24.92</ele>
<time>2015-04-24T18:50:04Z</time>
</trkpt>
<trkpt lat="35.0579174" lon="32.4559076">
<ele>24.92</ele>
<time>2015-04-24T18:50:05Z</time>
</trkpt>
<trkpt lat="35.0579493" lon="32.4559584">
<ele>24.42</ele>
<time>2015-04-24T18:50:06Z</time>
</trkpt>
<trkpt lat="35.0579743" lon="32.4560107">
<ele>23.67</ele>
<time>2015-04-24T18:50:07Z</time>
</trkpt>
<trkpt lat="35.0580036" lon="32.4560629">
<ele>23.80</ele>
<time>2015-04-24T18:50:08Z</time>
</trkpt>
<trkpt lat="35.0580328" lon="32.4561132">
<ele>23.86</ele>
<time>2015-04-24T18:50:09Z</time>
</trkpt>
<trkpt lat="35.0580635" lon="32.4561565">
<ele>23.89</ele>
<time>2015-04-24T18:50:10Z</time>
</trkpt>
<trkpt lat="35.0580868" lon="32.4562125">
<ele>23.91</ele>
<time>2015-04-24T18:50:11Z</time>
</trkpt>
<trkpt lat="35.0581103" lon="32.4562648">
<ele>23.92</ele>
<time>2015-04-24T18:50:12Z</time>
</trkpt>
<trkpt lat="35.0581529" lon="32.4563509">
<ele>23.67</ele>
<time>2015-04-24T18:50:14Z</time>
</trkpt>
<trkpt lat="35.0581986" lon="32.4564377">
<ele>23.36</ele>
<time>2015-04-24T18:50:16Z</time>
</trkpt>
<trkpt lat="35.0582237" lon="32.4564897">
<ele>23.14</ele>
<time>2015-04-24T18:50:17Z</time>
</trkpt>
<trkpt lat="35.0582764" lon="32.4565870">
<ele>23.73</ele>
<time>2015-04-24T18:50:19Z</time>
</trkpt>
<trkpt lat="35.0583235" lon="32.4566705">
<ele>23.88</ele>
<time>2015-04-24T18:50:21Z</time>
</trkpt>
<trkpt lat="35.0583661" lon="32.4567519">
<ele>24.16</ele>
<time>2015-04-24T18:50:23Z</time>
</trkpt>
<trkpt lat="35.0583988" lon="32.4568332">
<ele>24.48</ele>
<time>2015-04-24T18:50:25Z</time>
</trkpt>
<trkpt lat="35.0584481" lon="32.4569172">
<ele>24.81</ele>
<time>2015-04-24T18:50:27Z</time>
</trkpt>
<trkpt lat="35.0585048" lon="32.4570084">
<ele>24.90</ele>
<time>2015-04-24T18:50:29Z</time>
</trkpt>
<trkpt lat="35.0585506" lon="32.4570960">
<ele>26.67</ele>
<time>2015-04-24T18:50:31Z</time>
</trkpt>
<trkpt lat="35.0585934" lon="32.4571791">
<ele>27.61</ele>
<time>2015-04-24T18:50:33Z</time>
</trkpt>
<trkpt lat="35.0586384" lon="32.4572582">
<ele>28.60</ele>
<time>2015-04-24T18:50:35Z</time>
</trkpt>
<trkpt lat="35.0586926" lon="32.4573424">
<ele>28.59</ele>
<time>2015-04-24T18:50:37Z</time>
</trkpt>
<trkpt lat="35.0587383" lon="32.4573942">
<ele>28.26</ele>
<time>2015-04-24T18:50:38Z</time>
</trkpt>
<trkpt lat="35.0587661" lon="32.4574390">
<ele>28.09</ele>
<time>2015-04-24T18:50:39Z</time>
</trkpt>
<trkpt lat="35.0587940" lon="32.4574931">
<ele>28.01</ele>
<time>2015-04-24T18:50:40Z</time>
</trkpt>
<trkpt lat="35.0588202" lon="32.4575380">
<ele>27.47</ele>
<time>2015-04-24T18:50:41Z</time>
</trkpt>
<trkpt lat="35.0588514" lon="32.4575912">
<ele>27.20</ele>
<time>2015-04-24T18:50:42Z</time>
</trkpt>
<trkpt lat="35.0589085" lon="32.4576764">
<ele>27.74</ele>
<time>2015-04-24T18:50:44Z</time>
</trkpt>
<trkpt lat="35.0589685" lon="32.4577608">
<ele>28.38</ele>
<time>2015-04-24T18:50:46Z</time>
</trkpt>
<trkpt lat="35.0590254" lon="32.4578316">
<ele>29.29</ele>
<time>2015-04-24T18:50:48Z</time>
</trkpt>
<trkpt lat="35.0590578" lon="32.4578779">
<ele>29.61</ele>
<time>2015-04-24T18:50:49Z</time>
</trkpt>
<trkpt lat="35.0590903" lon="32.4579311">
<ele>29.77</ele>
<time>2015-04-24T18:50:50Z</time>
</trkpt>
<trkpt lat="35.0591186" lon="32.4579779">
<ele>29.85</ele>
<time>2015-04-24T18:50:51Z</time>
</trkpt>
<trkpt lat="35.0591538" lon="32.4580181">
<ele>29.89</ele>
<time>2015-04-24T18:50:52Z</time>
</trkpt>
<trkpt lat="35.0591897" lon="32.4580617">
<ele>29.91</ele>
<time>2015-04-24T18:50:53Z</time>
</trkpt>
<trkpt lat="35.0592231" lon="32.4581016">
<ele>29.92</ele>
<time>2015-04-24T18:50:54Z</time>
</trkpt>
<trkpt lat="35.0592589" lon="32.4581462">
<ele>29.42</ele>
<time>2015-04-24T18:50:55Z</time>
</trkpt>
<trkpt lat="35.0593198" lon="32.4582254">
<ele>29.05</ele>
<time>2015-04-24T18:50:57Z</time>
</trkpt>
<trkpt lat="35.0593579" lon="32.4582549">
<ele>28.49</ele>
<time>2015-04-24T18:50:58Z</time>
</trkpt>
<trkpt lat="35.0594212" lon="32.4583396">
<ele>28.57</ele>
<time>2015-04-24T18:51:00Z</time>
</trkpt>
<trkpt lat="35.0594549" lon="32.4583815">
<ele>28.75</ele>
<time>2015-04-24T18:51:01Z</time>
</trkpt>
<trkpt lat="35.0594953" lon="32.4584226">
<ele>28.84</ele>
<time>2015-04-24T18:51:02Z</time>
</trkpt>
<trkpt lat="35.0595373" lon="32.4584594">
<ele>29.38</ele>
<time>2015-04-24T18:51:03Z</time>
</trkpt>
<trkpt lat="35.0595854" lon="32.4585266">
<ele>29.79</ele>
<time>2015-04-24T18:51:05Z</time>
</trkpt>
<trkpt lat="35.0596316" lon="32.4585846">
<ele>30.14</ele>
<time>2015-04-24T18:51:07Z</time>
</trkpt>
<trkpt lat="35.0596723" lon="32.4586384">
<ele>29.98</ele>
<time>2015-04-24T18:51:09Z</time>
</trkpt>
<trkpt lat="35.0597219" lon="32.4587132">
<ele>30.44</ele>
<time>2015-04-24T18:51:11Z</time>
</trkpt>
<trkpt lat="35.0597573" lon="32.4587579">
<ele>30.68</ele>
<time>2015-04-24T18:51:12Z</time>
</trkpt>
<trkpt lat="35.0597864" lon="32.4588014">
<ele>30.30</ele>
<time>2015-04-24T18:51:13Z</time>
</trkpt>
<trkpt lat="35.0598386" lon="32.4588984">
<ele>30.02</ele>
<time>2015-04-24T18:51:15Z</time>
</trkpt>
<trkpt lat="35.0598707" lon="32.4589470">
<ele>29.47</ele>
<time>2015-04-24T18:51:16Z</time>
</trkpt>
<trkpt lat="35.0599059" lon="32.4589955">
<ele>29.20</ele>
<time>2015-04-24T18:51:17Z</time>
</trkpt>
<trkpt lat="35.0599427" lon="32.4590422">
<ele>28.56</ele>
<time>2015-04-24T18:51:18Z</time>
</trkpt>
<trkpt lat="35.0599702" lon="32.4590923">
<ele>28.24</ele>
<time>2015-04-24T18:51:19Z</time>
</trkpt>
<trkpt lat="35.0600038" lon="32.4591431">
<ele>28.08</ele>
<time>2015-04-24T18:51:20Z</time>
</trkpt>
<trkpt lat="35.0600316" lon="32.4591942">
<ele>28.50</ele>
<time>2015-04-24T18:51:21Z</time>
</trkpt>
<trkpt lat="35.0600622" lon="32.4592452">
<ele>28.71</ele>
<time>2015-04-24T18:51:22Z</time>
</trkpt>
<trkpt lat="35.0601121" lon="32.4593277">
<ele>29.62</ele>
<time>2015-04-24T18:51:24Z</time>
</trkpt>
<trkpt lat="35.0601314" lon="32.4593778">
<ele>29.77</ele>
<time>2015-04-24T18:51:25Z</time>
</trkpt>
<trkpt lat="35.0601635" lon="32.4594644">
<ele>29.64</ele>
<time>2015-04-24T18:51:27Z</time>
</trkpt>
<trkpt lat="35.0601819" lon="32.4595193">
<ele>29.78</ele>
<time>2015-04-24T18:51:28Z</time>
</trkpt>
<trkpt lat="35.0602033" lon="32.4595715">
<ele>29.85</ele>
<time>2015-04-24T18:51:29Z</time>
</trkpt>
<trkpt lat="35.0602251" lon="32.4596206">
<ele>29.39</ele>
<time>2015-04-24T18:51:30Z</time>
</trkpt>
<trkpt lat="35.0602522" lon="32.4597092">
<ele>28.54</ele>
<time>2015-04-24T18:51:32Z</time>
</trkpt>
<trkpt lat="35.0602729" lon="32.4597615">
<ele>28.23</ele>
<time>2015-04-24T18:51:33Z</time>
</trkpt>
<trkpt lat="35.0602969" lon="32.4598533">
<ele>28.00</ele>
<time>2015-04-24T18:51:35Z</time>
</trkpt>
<trkpt lat="35.0603141" lon="32.4599108">
<ele>27.46</ele>
<time>2015-04-24T18:51:36Z</time>
</trkpt>
<trkpt lat="35.0603350" lon="32.4599596">
<ele>28.69</ele>
<time>2015-04-24T18:51:37Z</time>
</trkpt>
<trkpt lat="35.0603575" lon="32.4600076">
<ele>28.81</ele>
<time>2015-04-24T18:51:38Z</time>
</trkpt>
<trkpt lat="35.0603854" lon="32.4601136">
<ele>29.15</ele>
<time>2015-04-24T18:51:40Z</time>
</trkpt>
<trkpt lat="35.0604127" lon="32.4601695">
<ele>29.54</ele>
<time>2015-04-24T18:51:41Z</time>
</trkpt>
<trkpt lat="35.0604301" lon="32.4602302">
<ele>29.73</ele>
<time>2015-04-24T18:51:42Z</time>
</trkpt>
<trkpt lat="35.0604471" lon="32.4602901">
<ele>29.83</ele>
<time>2015-04-24T18:51:43Z</time>
</trkpt>
<trkpt lat="35.0605022" lon="32.4603872">
<ele>30.90</ele>
<time>2015-04-24T18:51:45Z</time>
</trkpt>
<trkpt lat="35.0605282" lon="32.4604537">
<ele>30.91</ele>
<time>2015-04-24T18:51:46Z</time>
</trkpt>
<trkpt lat="35.0605423" lon="32.4605084">
<ele>31.42</ele>
<time>2015-04-24T18:51:47Z</time>
</trkpt>
<trkpt lat="35.0605675" lon="32.4605707">
<ele>31.67</ele>
<time>2015-04-24T18:51:48Z</time>
</trkpt>
<trkpt lat="35.0605956" lon="32.4606173">
<ele>32.80</ele>
<time>2015-04-24T18:51:49Z</time>
</trkpt>
<trkpt lat="35.0606233" lon="32.4606805">
<ele>33.36</ele>
<time>2015-04-24T18:51:50Z</time>
</trkpt>
<trkpt lat="35.0606540" lon="32.4607312">
<ele>34.14</ele>
<time>2015-04-24T18:51:51Z</time>
</trkpt>
<trkpt lat="35.0606788" lon="32.4607778">
<ele>34.03</ele>
<time>2015-04-24T18:51:52Z</time>
</trkpt>
<trkpt lat="35.0607060" lon="32.4608236">
<ele>33.98</ele>
<time>2015-04-24T18:51:53Z</time>
</trkpt>
<trkpt lat="35.0607376" lon="32.4608717">
<ele>33.45</ele>
<time>2015-04-24T18:51:54Z</time>
</trkpt>
<trkpt lat="35.0607725" lon="32.4609299">
<ele>33.69</ele>
<time>2015-04-24T18:51:55Z</time>
</trkpt>
<trkpt lat="35.0608103" lon="32.4609839">
<ele>33.31</ele>
<time>2015-04-24T18:51:56Z</time>
</trkpt>
<trkpt lat="35.0608450" lon="32.4610394">
<ele>32.62</ele>
<time>2015-04-24T18:51:57Z</time>
</trkpt>
<trkpt lat="35.0608834" lon="32.4610960">
<ele>32.77</ele>
<time>2015-04-24T18:51:58Z</time>
</trkpt>
<trkpt lat="35.0609142" lon="32.4611544">
<ele>32.85</ele>
<time>2015-04-24T18:51:59Z</time>
</trkpt>
<trkpt lat="35.0609426" lon="32.4612080">
<ele>32.89</ele>
<time>2015-04-24T18:52:00Z</time>
</trkpt>
<trkpt lat="35.0609770" lon="32.4612659">
<ele>32.41</ele>
<time>2015-04-24T18:52:01Z</time>
</trkpt>
<trkpt lat="35.0610194" lon="32.4613104">
<ele>32.17</ele>
<time>2015-04-24T18:52:02Z</time>
</trkpt>
<trkpt lat="35.0610525" lon="32.4613567">
<ele>31.55</ele>
<time>2015-04-24T18:52:03Z</time>
</trkpt>
<trkpt lat="35.0610832" lon="32.4613988">
<ele>31.24</ele>
<time>2015-04-24T18:52:04Z</time>
</trkpt>
<trkpt lat="35.0611160" lon="32.4614421">
<ele>31.58</ele>
<time>2015-04-24T18:52:05Z</time>
</trkpt>
<trkpt lat="35.0611576" lon="32.4614854">
<ele>31.25</ele>
<time>2015-04-24T18:52:06Z</time>
</trkpt>
<trkpt lat="35.0611982" lon="32.4615333">
<ele>31.09</ele>
<time>2015-04-24T18:52:07Z</time>
</trkpt>
<trkpt lat="35.0612392" lon="32.4615856">
<ele>31.01</ele>
<time>2015-04-24T18:52:08Z</time>
</trkpt>
<trkpt lat="35.0612744" lon="32.4616424">
<ele>30.97</ele>
<time>2015-04-24T18:52:09Z</time>
</trkpt>
<trkpt lat="35.0613099" lon="32.4616992">
<ele>30.95</ele>
<time>2015-04-24T18:52:10Z</time>
</trkpt>
<trkpt lat="35.0613525" lon="32.4617556">
<ele>31.44</ele>
<time>2015-04-24T18:52:11Z</time>
</trkpt>
<trkpt lat="35.0613881" lon="32.4618081">
<ele>31.68</ele>
<time>2015-04-24T18:52:12Z</time>
</trkpt>
<trkpt lat="35.0614195" lon="32.4618624">
<ele>31.80</ele>
<time>2015-04-24T18:52:13Z</time>
</trkpt>
<trkpt lat="35.0614578" lon="32.4619163">
<ele>31.86</ele>
<time>2015-04-24T18:52:14Z</time>
</trkpt>
<trkpt lat="35.0614969" lon="32.4619628">
<ele>31.39</ele>
<time>2015-04-24T18:52:15Z</time>
</trkpt>
<trkpt lat="35.0615294" lon="32.4620140">
<ele>31.16</ele>
<time>2015-04-24T18:52:16Z</time>
</trkpt>
<trkpt lat="35.0615776" lon="32.4620618">
<ele>31.04</ele>
<time>2015-04-24T18:52:17Z</time>
</trkpt>
<trkpt lat="35.0616085" lon="32.4621212">
<ele>30.98</ele>
<time>2015-04-24T18:52:18Z</time>
</trkpt>
<trkpt lat="35.0616427" lon="32.4621762">
<ele>30.95</ele>
<time>2015-04-24T18:52:19Z</time>
</trkpt>
<trkpt lat="35.0616760" lon="32.4622282">
<ele>30.94</ele>
<time>2015-04-24T18:52:20Z</time>
</trkpt>
<trkpt lat="35.0617114" lon="32.4622753">
<ele>30.93</ele>
<time>2015-04-24T18:52:21Z</time>
</trkpt>
<trkpt lat="35.0617361" lon="32.4623279">
<ele>30.93</ele>
<time>2015-04-24T18:52:22Z</time>
</trkpt>
<trkpt lat="35.0617724" lon="32.4623751">
<ele>30.43</ele>
<time>2015-04-24T18:52:23Z</time>
</trkpt>
<trkpt lat="35.0618157" lon="32.4624179">
<ele>30.18</ele>
<time>2015-04-24T18:52:24Z</time>
</trkpt>
<trkpt lat="35.0618548" lon="32.4624659">
<ele>30.05</ele>
<time>2015-04-24T18:52:25Z</time>
</trkpt>
<trkpt lat="35.0619021" lon="32.4625186">
<ele>29.99</ele>
<time>2015-04-24T18:52:26Z</time>
</trkpt>
<trkpt lat="35.0619358" lon="32.4625789">
<ele>29.96</ele>
<time>2015-04-24T18:52:27Z</time>
</trkpt>
<trkpt lat="35.0619708" lon="32.4626216">
<ele>29.94</ele>
<time>2015-04-24T18:52:28Z</time>
</trkpt>
<trkpt lat="35.0620089" lon="32.4626800">
<ele>29.93</ele>
<time>2015-04-24T18:52:29Z</time>
</trkpt>
<trkpt lat="35.0620484" lon="32.4627363">
<ele>29.93</ele>
<time>2015-04-24T18:52:30Z</time>
</trkpt>
<trkpt lat="35.0620877" lon="32.4627941">
<ele>30.93</ele>
<time>2015-04-24T18:52:31Z</time>
</trkpt>
<trkpt lat="35.0621202" lon="32.4628427">
<ele>31.43</ele>
<time>2015-04-24T18:52:32Z</time>
</trkpt>
<trkpt lat="35.0621656" lon="32.4629354">
<ele>30.55</ele>
<time>2015-04-24T18:52:34Z</time>
</trkpt>
<trkpt lat="35.0622043" lon="32.4629680">
<ele>30.24</ele>
<time>2015-04-24T18:52:35Z</time>
</trkpt>
<trkpt lat="35.0622418" lon="32.4630146">
<ele>29.58</ele>
<time>2015-04-24T18:52:36Z</time>
</trkpt>
<trkpt lat="35.0622759" lon="32.4630548">
<ele>29.25</ele>
<time>2015-04-24T18:52:37Z</time>
</trkpt>
<trkpt lat="35.0623103" lon="32.4630921">
<ele>28.59</ele>
<time>2015-04-24T18:52:38Z</time>
</trkpt>
<trkpt lat="35.0623506" lon="32.4631345">
<ele>27.34</ele>
<time>2015-04-24T18:52:40Z</time>
</trkpt>
<trkpt lat="35.0624026" lon="32.4632090">
<ele>25.78</ele>
<time>2015-04-24T18:52:42Z</time>
</trkpt>
<trkpt lat="35.0624361" lon="32.4632476">
<ele>25.35</ele>
<time>2015-04-24T18:52:43Z</time>
</trkpt>
<trkpt lat="35.0624653" lon="32.4633020">
<ele>25.14</ele>
<time>2015-04-24T18:52:44Z</time>
</trkpt>
<trkpt lat="35.0625026" lon="32.4633606">
<ele>25.03</ele>
<time>2015-04-24T18:52:45Z</time>
</trkpt>
<trkpt lat="35.0625331" lon="32.4634129">
<ele>24.98</ele>
<time>2015-04-24T18:52:46Z</time>
</trkpt>
<trkpt lat="35.0625662" lon="32.4634589">
<ele>24.95</ele>
<time>2015-04-24T18:52:47Z</time>
</trkpt>
<trkpt lat="35.0626051" lon="32.4635064">
<ele>24.94</ele>
<time>2015-04-24T18:52:48Z</time>
</trkpt>
<trkpt lat="35.0626425" lon="32.4635598">
<ele>24.93</ele>
<time>2015-04-24T18:52:49Z</time>
</trkpt>
<trkpt lat="35.0626782" lon="32.4636134">
<ele>25.43</ele>
<time>2015-04-24T18:52:50Z</time>
</trkpt>
<trkpt lat="35.0627094" lon="32.4636718">
<ele>25.68</ele>
<time>2015-04-24T18:52:51Z</time>
</trkpt>
<trkpt lat="35.0627469" lon="32.4637254">
<ele>25.80</ele>
<time>2015-04-24T18:52:52Z</time>
</trkpt>
<trkpt lat="35.0627780" lon="32.4637720">
<ele>25.86</ele>
<time>2015-04-24T18:52:53Z</time>
</trkpt>
<trkpt lat="35.0628159" lon="32.4638231">
<ele>25.89</ele>
<time>2015-04-24T18:52:54Z</time>
</trkpt>
<trkpt lat="35.0628870" lon="32.4639130">
<ele>25.92</ele>
<time>2015-04-24T18:52:56Z</time>
</trkpt>
<trkpt lat="35.0629218" lon="32.4639638">
<ele>26.42</ele>
<time>2015-04-24T18:52:57Z</time>
</trkpt>
<trkpt lat="35.0629596" lon="32.4640131">
<ele>27.17</ele>
<time>2015-04-24T18:52:58Z</time>
</trkpt>
<trkpt lat="35.0629884" lon="32.4640565">
<ele>27.05</ele>
<time>2015-04-24T18:52:59Z</time>
</trkpt>
<trkpt lat="35.0630167" lon="32.4641034">
<ele>26.99</ele>
<time>2015-04-24T18:53:00Z</time>
</trkpt>
<trkpt lat="35.0630512" lon="32.4641498">
<ele>26.96</ele>
<time>2015-04-24T18:53:01Z</time>
</trkpt>
<trkpt lat="35.0630954" lon="32.4641838">
<ele>26.94</ele>
<time>2015-04-24T18:53:02Z</time>
</trkpt>
<trkpt lat="35.0631262" lon="32.4642302">
<ele>26.93</ele>
<time>2015-04-24T18:53:03Z</time>
</trkpt>
<trkpt lat="35.0631676" lon="32.4642741">
<ele>26.93</ele>
<time>2015-04-24T18:53:04Z</time>
</trkpt>
<trkpt lat="35.0632096" lon="32.4643210">
<ele>27.43</ele>
<time>2015-04-24T18:53:05Z</time>
</trkpt>
<trkpt lat="35.0632443" lon="32.4643654">
<ele>28.18</ele>
<time>2015-04-24T18:53:06Z</time>
</trkpt>
<trkpt lat="35.0632777" lon="32.4644075">
<ele>28.55</ele>
<time>2015-04-24T18:53:07Z</time>
</trkpt>
<trkpt lat="35.0633191" lon="32.4644512">
<ele>28.24</ele>
<time>2015-04-24T18:53:08Z</time>
</trkpt>
<trkpt lat="35.0633466" lon="32.4645004">
<ele>27.58</ele>
<time>2015-04-24T18:53:09Z</time>
</trkpt>
<trkpt lat="35.0633873" lon="32.4645550">
<ele>27.75</ele>
<time>2015-04-24T18:53:10Z</time>
</trkpt>
<trkpt lat="35.0634178" lon="32.4646014">
<ele>27.34</ele>
<time>2015-04-24T18:53:11Z</time>
</trkpt>
<trkpt lat="35.0634594" lon="32.4646502">
<ele>27.13</ele>
<time>2015-04-24T18:53:12Z</time>
</trkpt>
<trkpt lat="35.0634991" lon="32.4646970">
<ele>27.03</ele>
<time>2015-04-24T18:53:13Z</time>
</trkpt>
<trkpt lat="35.0635251" lon="32.4647437">
<ele>26.98</ele>
<time>2015-04-24T18:53:14Z</time>
</trkpt>
<trkpt lat="35.0635599" lon="32.4647817">
<ele>26.45</ele>
<time>2015-04-24T18:53:15Z</time>
</trkpt>
<trkpt lat="35.0635896" lon="32.4648309">
<ele>26.19</ele>
<time>2015-04-24T18:53:16Z</time>
</trkpt>
<trkpt lat="35.0636255" lon="32.4648691">
<ele>26.56</ele>
<time>2015-04-24T18:53:17Z</time>
</trkpt>
<trkpt lat="35.0636591" lon="32.4649180">
<ele>27.24</ele>
<time>2015-04-24T18:53:18Z</time>
</trkpt>
<trkpt lat="35.0636906" lon="32.4649593">
<ele>27.08</ele>
<time>2015-04-24T18:53:19Z</time>
</trkpt>
<trkpt lat="35.0637262" lon="32.4650020">
<ele>27.00</ele>
<time>2015-04-24T18:53:20Z</time>
</trkpt>
<trkpt lat="35.0637614" lon="32.4650430">
<ele>26.96</ele>
<time>2015-04-24T18:53:21Z</time>
</trkpt>
<trkpt lat="35.0638244" lon="32.4651108">
<ele>26.93</ele>
<time>2015-04-24T18:53:23Z</time>
</trkpt>
<trkpt lat="35.0638707" lon="32.4651527">
<ele>27.43</ele>
<time>2015-04-24T18:53:24Z</time>
</trkpt>
<trkpt lat="35.0639146" lon="32.4651868">
<ele>28.18</ele>
<time>2015-04-24T18:53:25Z</time>
</trkpt>
<trkpt lat="35.0639515" lon="32.4652291">
<ele>28.55</ele>
<time>2015-04-24T18:53:26Z</time>
</trkpt>
<trkpt lat="35.0639904" lon="32.4652717">
<ele>28.74</ele>
<time>2015-04-24T18:53:27Z</time>
</trkpt>
<trkpt lat="35.0640269" lon="32.4653124">
<ele>28.83</ele>
<time>2015-04-24T18:53:28Z</time>
</trkpt>
<trkpt lat="35.0640921" lon="32.4653903">
<ele>28.90</ele>
<time>2015-04-24T18:53:30Z</time>
</trkpt>
<trkpt lat="35.0641331" lon="32.4654271">
<ele>28.91</ele>
<time>2015-04-24T18:53:31Z</time>
</trkpt>
<trkpt lat="35.0641716" lon="32.4654641">
<ele>29.42</ele>
<time>2015-04-24T18:53:32Z</time>
</trkpt>
<trkpt lat="35.0642123" lon="32.4655038">
<ele>29.67</ele>
<time>2015-04-24T18:53:33Z</time>
</trkpt>
<trkpt lat="35.0642486" lon="32.4655412">
<ele>29.80</ele>
<time>2015-04-24T18:53:34Z</time>
</trkpt>
<trkpt lat="35.0643094" lon="32.4656048">
<ele>29.89</ele>
<time>2015-04-24T18:53:36Z</time>
</trkpt>
<trkpt lat="35.0643682" lon="32.4656721">
<ele>29.17</ele>
<time>2015-04-24T18:53:38Z</time>
</trkpt>
<trkpt lat="35.0644298" lon="32.4657429">
<ele>27.99</ele>
<time>2015-04-24T18:53:40Z</time>
</trkpt>
<trkpt lat="35.0644574" lon="32.4657863">
<ele>28.46</ele>
<time>2015-04-24T18:53:41Z</time>
</trkpt>
<trkpt lat="35.0644898" lon="32.4658301">
<ele>28.69</ele>
<time>2015-04-24T18:53:42Z</time>
</trkpt>
<trkpt lat="35.0645202" lon="32.4658779">
<ele>28.81</ele>
<time>2015-04-24T18:53:43Z</time>
</trkpt>
<trkpt lat="35.0645556" lon="32.4659228">
<ele>28.87</ele>
<time>2015-04-24T18:53:44Z</time>
</trkpt>
<trkpt lat="35.0646299" lon="32.4659889">
<ele>29.41</ele>
<time>2015-04-24T18:53:46Z</time>
</trkpt>
<trkpt lat="35.0646663" lon="32.4660252">
<ele>29.67</ele>
<time>2015-04-24T18:53:47Z</time>
</trkpt>
<trkpt lat="35.0647219" lon="32.4661159">
<ele>29.11</ele>
<time>2015-04-24T18:53:49Z</time>
</trkpt>
<trkpt lat="35.0647874" lon="32.4661866">
<ele>28.22</ele>
<time>2015-04-24T18:53:51Z</time>
</trkpt>
<trkpt lat="35.0648171" lon="32.4662402">
<ele>28.07</ele>
<time>2015-04-24T18:53:52Z</time>
</trkpt>
<trkpt lat="35.0648489" lon="32.4662832">
<ele>28.00</ele>
<time>2015-04-24T18:53:53Z</time>
</trkpt>
<trkpt lat="35.0648909" lon="32.4663765">
<ele>27.44</ele>
<time>2015-04-24T18:53:55Z</time>
</trkpt>
<trkpt lat="35.0649293" lon="32.4664267">
<ele>27.18</ele>
<time>2015-04-24T18:53:56Z</time>
</trkpt>
<trkpt lat="35.0649590" lon="32.4664714">
<ele>26.55</ele>
<time>2015-04-24T18:53:57Z</time>
</trkpt>
<trkpt lat="35.0649810" lon="32.4665222">
<ele>25.74</ele>
<time>2015-04-24T18:53:58Z</time>
</trkpt>
<trkpt lat="35.0650158" lon="32.4665602">
<ele>25.83</ele>
<time>2015-04-24T18:53:59Z</time>
</trkpt>
<trkpt lat="35.0650480" lon="32.4666108">
<ele>26.38</ele>
<time>2015-04-24T18:54:00Z</time>
</trkpt>
<trkpt lat="35.0650728" lon="32.4666660">
<ele>26.15</ele>
<time>2015-04-24T18:54:01Z</time>
</trkpt>
<trkpt lat="35.0651056" lon="32.4667161">
<ele>26.54</ele>
<time>2015-04-24T18:54:02Z</time>
</trkpt>
<trkpt lat="35.0651321" lon="32.4667717">
<ele>27.23</ele>
<time>2015-04-24T18:54:03Z</time>
</trkpt>
<trkpt lat="35.0651522" lon="32.4668225">
<ele>27.58</ele>
<time>2015-04-24T18:54:04Z</time>
</trkpt>
<trkpt lat="35.0652117" lon="32.4669164">
<ele>27.84</ele>
<time>2015-04-24T18:54:06Z</time>
</trkpt>
<trkpt lat="35.0652412" lon="32.4669619">
<ele>28.88</ele>
<time>2015-04-24T18:54:07Z</time>
</trkpt>
<trkpt lat="35.0652756" lon="32.4670042">
<ele>28.90</ele>
<time>2015-04-24T18:54:08Z</time>
</trkpt>
<trkpt lat="35.0652926" lon="32.4670623">
<ele>28.41</ele>
<time>2015-04-24T18:54:09Z</time>
</trkpt>
<trkpt lat="35.0653143" lon="32.4671106">
<ele>28.17</ele>
<time>2015-04-24T18:54:10Z</time>
</trkpt>
<trkpt lat="35.0653688" lon="32.4672069">
<ele>28.49</ele>
<time>2015-04-24T18:54:12Z</time>
</trkpt>
<trkpt lat="35.0653944" lon="32.4672625">
<ele>29.21</ele>
<time>2015-04-24T18:54:13Z</time>
</trkpt>
<trkpt lat="35.0654359" lon="32.4673568">
<ele>29.00</ele>
<time>2015-04-24T18:54:15Z</time>
</trkpt>
<trkpt lat="35.0654606" lon="32.4674054">
<ele>29.96</ele>
<time>2015-04-24T18:54:16Z</time>
</trkpt>
<trkpt lat="35.0654993" lon="32.4674982">
<ele>30.18</ele>
<time>2015-04-24T18:54:18Z</time>
</trkpt>
<trkpt lat="35.0655235" lon="32.4675448">
<ele>30.55</ele>
<time>2015-04-24T18:54:19Z</time>
</trkpt>
<trkpt lat="35.0655544" lon="32.4675904">
<ele>30.74</ele>
<time>2015-04-24T18:54:20Z</time>
</trkpt>
<trkpt lat="35.0655885" lon="32.4676473">
<ele>30.83</ele>
<time>2015-04-24T18:54:21Z</time>
</trkpt>
<trkpt lat="35.0656177" lon="32.4676964">
<ele>30.38</ele>
<time>2015-04-24T18:54:22Z</time>
</trkpt>
<trkpt lat="35.0656491" lon="32.4677562">
<ele>30.65</ele>
<time>2015-04-24T18:54:23Z</time>
</trkpt>
<trkpt lat="35.0656807" lon="32.4678236">
<ele>30.29</ele>
<time>2015-04-24T18:54:24Z</time>
</trkpt>
<trkpt lat="35.0657078" lon="32.4678777">
<ele>30.11</ele>
<time>2015-04-24T18:54:25Z</time>
</trkpt>
<trkpt lat="35.0657361" lon="32.4679351">
<ele>30.02</ele>
<time>2015-04-24T18:54:26Z</time>
</trkpt>
<trkpt lat="35.0657623" lon="32.4679808">
<ele>29.97</ele>
<time>2015-04-24T18:54:27Z</time>
</trkpt>
<trkpt lat="35.0657887" lon="32.4680417">
<ele>29.95</ele>
<time>2015-04-24T18:54:28Z</time>
</trkpt>
<trkpt lat="35.0658170" lon="32.4680930">
<ele>30.44</ele>
<time>2015-04-24T18:54:29Z</time>
</trkpt>
<trkpt lat="35.0658371" lon="32.4681535">
<ele>30.68</ele>
<time>2015-04-24T18:54:30Z</time>
</trkpt>
<trkpt lat="35.0658710" lon="32.4682031">
<ele>30.80</ele>
<time>2015-04-24T18:54:31Z</time>
</trkpt>
<trkpt lat="35.0659042" lon="32.4682541">
<ele>30.86</ele>
<time>2015-04-24T18:54:32Z</time>
</trkpt>
<trkpt lat="35.0659365" lon="32.4683172">
<ele>31.39</ele>
<time>2015-04-24T18:54:33Z</time>
</trkpt>
<trkpt lat="35.0659934" lon="32.4683983">
<ele>32.29</ele>
<time>2015-04-24T18:54:35Z</time>
</trkpt>
<trkpt lat="35.0660244" lon="32.4684467">
<ele>32.61</ele>
<time>2015-04-24T18:54:36Z</time>
</trkpt>
<trkpt lat="35.0660547" lon="32.4684883">
<ele>33.27</ele>
<time>2015-04-24T18:54:37Z</time>
</trkpt>
<trkpt lat="35.0660803" lon="32.4685411">
<ele>33.10</ele>
<time>2015-04-24T18:54:38Z</time>
</trkpt>
<trkpt lat="35.0661082" lon="32.4685904">
<ele>33.01</ele>
<time>2015-04-24T18:54:39Z</time>
</trkpt>
<trkpt lat="35.0661318" lon="32.4686449">
<ele>32.97</ele>
<time>2015-04-24T18:54:40Z</time>
</trkpt>
<trkpt lat="35.0661740" lon="32.4687256">
<ele>33.19</ele>
<time>2015-04-24T18:54:42Z</time>
</trkpt>
<trkpt lat="35.0662203" lon="32.4687988">
<ele>31.74</ele>
<time>2015-04-24T18:54:44Z</time>
</trkpt>
<trkpt lat="35.0662571" lon="32.4688538">
<ele>30.63</ele>
<time>2015-04-24T18:54:46Z</time>
</trkpt>
<trkpt lat="35.0663041" lon="32.4689292">
<ele>31.35</ele>
<time>2015-04-24T18:54:48Z</time>
</trkpt>
<trkpt lat="35.0663304" lon="32.4689758">
<ele>31.14</ele>
<time>2015-04-24T18:54:49Z</time>
</trkpt>
<trkpt lat="35.0663779" lon="32.4690577">
<ele>31.48</ele>
<time>2015-04-24T18:54:51Z</time>
</trkpt>
<trkpt lat="35.0664253" lon="32.4691347">
<ele>31.06</ele>
<time>2015-04-24T18:54:53Z</time>
</trkpt>
<trkpt lat="35.0664707" lon="32.4692030">
<ele>31.46</ele>
<time>2015-04-24T18:54:55Z</time>
</trkpt>
<trkpt lat="35.0665159" lon="32.4692663">
<ele>30.56</ele>
<time>2015-04-24T18:54:57Z</time>
</trkpt>
<trkpt lat="35.0665597" lon="32.4693189">
<ele>28.83</ele>
<time>2015-04-24T18:54:59Z</time>
</trkpt>
<trkpt lat="35.0666042" lon="32.4693734">
<ele>29.15</ele>
<time>2015-04-24T18:55:01Z</time>
</trkpt>
<trkpt lat="35.0666523" lon="32.4694255">
<ele>29.98</ele>
<time>2015-04-24T18:55:03Z</time>
</trkpt>
<trkpt lat="35.0666993" lon="32.4694806">
<ele>29.94</ele>
<time>2015-04-24T18:55:05Z</time>
</trkpt>
<trkpt lat="35.0667431" lon="32.4695364">
<ele>30.18</ele>
<time>2015-04-24T18:55:07Z</time>
</trkpt>
<trkpt lat="35.0667947" lon="32.4695910">
<ele>29.99</ele>
<time>2015-04-24T18:55:09Z</time>
</trkpt>
<trkpt lat="35.0668507" lon="32.4696437">
<ele>29.94</ele>
<time>2015-04-24T18:55:11Z</time>
</trkpt>
<trkpt lat="35.0669059" lon="32.4697082">
<ele>29.93</ele>
<time>2015-04-24T18:55:13Z</time>
</trkpt>
<trkpt lat="35.0669632" lon="32.4697713">
<ele>30.43</ele>
<time>2015-04-24T18:55:15Z</time>
</trkpt>
<trkpt lat="35.0670270" lon="32.4698359">
<ele>31.30</ele>
<time>2015-04-24T18:55:17Z</time>
</trkpt>
<trkpt lat="35.0670922" lon="32.4699024">
<ele>31.52</ele>
<time>2015-04-24T18:55:19Z</time>
</trkpt>
<trkpt lat="35.0671258" lon="32.4699392">
<ele>32.72</ele>
<time>2015-04-24T18:55:20Z</time>
</trkpt>
<trkpt lat="35.0671798" lon="32.4700068">
<ele>32.82</ele>
<time>2015-04-24T18:55:21Z</time>
</trkpt>
<trkpt lat="35.0672178" lon="32.4700467">
<ele>32.87</ele>
<time>2015-04-24T18:55:22Z</time>
</trkpt>
<trkpt lat="35.0672510" lon="32.4700851">
<ele>32.90</ele>
<time>2015-04-24T18:55:23Z</time>
</trkpt>
<trkpt lat="35.0672900" lon="32.4701269">
<ele>33.41</ele>
<time>2015-04-24T18:55:24Z</time>
</trkpt>
<trkpt lat="35.0673226" lon="32.4701698">
<ele>34.17</ele>
<time>2015-04-24T18:55:25Z</time>
</trkpt>
<trkpt lat="35.0673654" lon="32.4701895">
<ele>35.05</ele>
<time>2015-04-24T18:55:26Z</time>
</trkpt>
<trkpt lat="35.0674386" lon="32.4702631">
<ele>35.96</ele>
<time>2015-04-24T18:55:28Z</time>
</trkpt>
<trkpt lat="35.0674759" lon="32.4703180">
<ele>36.44</ele>
<time>2015-04-24T18:55:29Z</time>
</trkpt>
<trkpt lat="35.0675180" lon="32.4703639">
<ele>36.68</ele>
<time>2015-04-24T18:55:30Z</time>
</trkpt>
<trkpt lat="35.0675485" lon="32.4704054">
<ele>36.80</ele>
<time>2015-04-24T18:55:31Z</time>
</trkpt>
<trkpt lat="35.0675828" lon="32.4704601">
<ele>36.86</ele>
<time>2015-04-24T18:55:32Z</time>
</trkpt>
<trkpt lat="35.0676016" lon="32.4705170">
<ele>36.39</ele>
<time>2015-04-24T18:55:33Z</time>
</trkpt>
<trkpt lat="35.0676368" lon="32.4705628">
<ele>36.16</ele>
<time>2015-04-24T18:55:34Z</time>
</trkpt>
<trkpt lat="35.0676947" lon="32.4706563">
<ele>35.23</ele>
<time>2015-04-24T18:55:36Z</time>
</trkpt>
<trkpt lat="35.0677307" lon="32.4707030">
<ele>35.08</ele>
<time>2015-04-24T18:55:37Z</time>
</trkpt>
<trkpt lat="35.0677761" lon="32.4707454">
<ele>35.00</ele>
<time>2015-04-24T18:55:38Z</time>
</trkpt>
<trkpt lat="35.0678076" lon="32.4708019">
<ele>34.96</ele>
<time>2015-04-24T18:55:39Z</time>
</trkpt>
<trkpt lat="35.0678443" lon="32.4708552">
<ele>35.44</ele>
<time>2015-04-24T18:55:40Z</time>
</trkpt>
<trkpt lat="35.0679148" lon="32.4709283">
<ele>35.80</ele>
<time>2015-04-24T18:55:42Z</time>
</trkpt>
<trkpt lat="35.0679532" lon="32.4709743">
<ele>36.36</ele>
<time>2015-04-24T18:55:43Z</time>
</trkpt>
<trkpt lat="35.0679802" lon="32.4710240">
<ele>36.14</ele>
<time>2015-04-24T18:55:44Z</time>
</trkpt>
<trkpt lat="35.0680174" lon="32.4710721">
<ele>36.03</ele>
<time>2015-04-24T18:55:45Z</time>
</trkpt>
<trkpt lat="35.0680495" lon="32.4711111">
<ele>35.98</ele>
<time>2015-04-24T18:55:46Z</time>
</trkpt>
<trkpt lat="35.0680979" lon="32.4711704">
<ele>33.94</ele>
<time>2015-04-24T18:55:48Z</time>
</trkpt>
<trkpt lat="35.0681513" lon="32.4712575">
<ele>33.18</ele>
<time>2015-04-24T18:55:50Z</time>
</trkpt>
<trkpt lat="35.0681870" lon="32.4713105">
<ele>32.55</ele>
<time>2015-04-24T18:55:51Z</time>
</trkpt>
<trkpt lat="35.0682172" lon="32.4713588">
<ele>32.74</ele>
<time>2015-04-24T18:55:52Z</time>
</trkpt>
<trkpt lat="35.0682518" lon="32.4714124">
<ele>32.33</ele>
<time>2015-04-24T18:55:53Z</time>
</trkpt>
<trkpt lat="35.0682653" lon="32.4714773">
<ele>31.13</ele>
<time>2015-04-24T18:55:54Z</time>
</trkpt>
<trkpt lat="35.0683142" lon="32.4715312">
<ele>30.03</ele>
<time>2015-04-24T18:55:55Z</time>
</trkpt>
<trkpt lat="35.0683621" lon="32.4715817">
<ele>30.48</ele>
<time>2015-04-24T18:55:56Z</time>
</trkpt>
<trkpt lat="35.0684067" lon="32.4716364">
<ele>30.70</ele>
<time>2015-04-24T18:55:57Z</time>
</trkpt>
<trkpt lat="35.0684443" lon="32.4716764">
<ele>31.31</ele>
<time>2015-04-24T18:55:58Z</time>
</trkpt>
<trkpt lat="35.0684735" lon="32.4717280">
<ele>31.62</ele>
<time>2015-04-24T18:55:59Z</time>
</trkpt>
<trkpt lat="35.0685182" lon="32.4717759">
<ele>31.27</ele>
<time>2015-04-24T18:56:00Z</time>
</trkpt>
<trkpt lat="35.0685501" lon="32.4718256">
<ele>31.10</ele>
<time>2015-04-24T18:56:01Z</time>
</trkpt>
<trkpt lat="35.0685804" lon="32.4718749">
<ele>30.51</ele>
<time>2015-04-24T18:56:02Z</time>
</trkpt>
<trkpt lat="35.0686124" lon="32.4719285">
<ele>30.22</ele>
<time>2015-04-24T18:56:03Z</time>
</trkpt>
<trkpt lat="35.0686632" lon="32.4719750">
<ele>30.07</ele>
<time>2015-04-24T18:56:04Z</time>
</trkpt>
<trkpt lat="35.0686997" lon="32.4720329">
<ele>30.50</ele>
<time>2015-04-24T18:56:05Z</time>
</trkpt>
<trkpt lat="35.0687396" lon="32.4720863">
<ele>31.21</ele>
<time>2015-04-24T18:56:06Z</time>
</trkpt>
<trkpt lat="35.0687708" lon="32.4721413">
<ele>31.57</ele>
<time>2015-04-24T18:56:07Z</time>
</trkpt>
<trkpt lat="35.0688075" lon="32.4721954">
<ele>31.75</ele>
<time>2015-04-24T18:56:08Z</time>
</trkpt>
<trkpt lat="35.0688470" lon="32.4722457">
<ele>31.84</ele>
<time>2015-04-24T18:56:09Z</time>
</trkpt>
<trkpt lat="35.0688928" lon="32.4722950">
<ele>32.88</ele>
<time>2015-04-24T18:56:10Z</time>
</trkpt>
<trkpt lat="35.0689320" lon="32.4723470">
<ele>32.90</ele>
<time>2015-04-24T18:56:11Z</time>
</trkpt>
<trkpt lat="35.0689739" lon="32.4723999">
<ele>33.41</ele>
<time>2015-04-24T18:56:12Z</time>
</trkpt>
<trkpt lat="35.0690160" lon="32.4724482">
<ele>33.17</ele>
<time>2015-04-24T18:56:13Z</time>
</trkpt>
<trkpt lat="35.0690654" lon="32.4725022">
<ele>33.55</ele>
<time>2015-04-24T18:56:14Z</time>
</trkpt>
<trkpt lat="35.0691040" lon="32.4725599">
<ele>34.24</ele>
<time>2015-04-24T18:56:15Z</time>
</trkpt>
<trkpt lat="35.0691460" lon="32.4726101">
<ele>34.08</ele>
<time>2015-04-24T18:56:16Z</time>
</trkpt>
<trkpt lat="35.0691773" lon="32.4726639">
<ele>34.00</ele>
<time>2015-04-24T18:56:17Z</time>
</trkpt>
<trkpt lat="35.0692159" lon="32.4727060">
<ele>33.46</ele>
<time>2015-04-24T18:56:18Z</time>
</trkpt>
<trkpt lat="35.0692441" lon="32.4727613">
<ele>33.19</ele>
<time>2015-04-24T18:56:19Z</time>
</trkpt>
<trkpt lat="35.0692843" lon="32.4728098">
<ele>33.56</ele>
<time>2015-04-24T18:56:20Z</time>
</trkpt>
<trkpt lat="35.0693291" lon="32.4728579">
<ele>33.74</ele>
<time>2015-04-24T18:56:21Z</time>
</trkpt>
<trkpt lat="35.0693696" lon="32.4729012">
<ele>34.33</ele>
<time>2015-04-24T18:56:22Z</time>
</trkpt>
<trkpt lat="35.0693916" lon="32.4729514">
<ele>34.63</ele>
<time>2015-04-24T18:56:23Z</time>
</trkpt>
<trkpt lat="35.0694341" lon="32.4729983">
<ele>34.78</ele>
<time>2015-04-24T18:56:24Z</time>
</trkpt>
<trkpt lat="35.0694677" lon="32.4730360">
<ele>34.35</ele>
<time>2015-04-24T18:56:25Z</time>
</trkpt>
<trkpt lat="35.0695026" lon="32.4730795">
<ele>34.14</ele>
<time>2015-04-24T18:56:26Z</time>
</trkpt>
<trkpt lat="35.0695547" lon="32.4731520">
<ele>33.98</ele>
<time>2015-04-24T18:56:28Z</time>
</trkpt>
<trkpt lat="35.0696175" lon="32.4732287">
<ele>33.19</ele>
<time>2015-04-24T18:56:30Z</time>
</trkpt>
<trkpt lat="35.0696575" lon="32.4733057">
<ele>32.24</ele>
<time>2015-04-24T18:56:32Z</time>
</trkpt>
<trkpt lat="35.0697211" lon="32.4733845">
<ele>32.75</ele>
<time>2015-04-24T18:56:34Z</time>
</trkpt>
<trkpt lat="35.0697449" lon="32.4734376">
<ele>32.34</ele>
<time>2015-04-24T18:56:35Z</time>
</trkpt>
<trkpt lat="35.0698084" lon="32.4735304">
<ele>30.78</ele>
<time>2015-04-24T18:56:37Z</time>
</trkpt>
<trkpt lat="35.0698531" lon="32.4735790">
<ele>30.35</ele>
<time>2015-04-24T18:56:38Z</time>
</trkpt>
<trkpt lat="35.0698964" lon="32.4736242">
<ele>30.14</ele>
<time>2015-04-24T18:56:39Z</time>
</trkpt>
<trkpt lat="35.0699373" lon="32.4736761">
<ele>30.03</ele>
<time>2015-04-24T18:56:40Z</time>
</trkpt>
<trkpt lat="35.0699741" lon="32.4737231">
<ele>30.48</ele>
<time>2015-04-24T18:56:41Z</time>
</trkpt>
<trkpt lat="35.0700238" lon="32.4738061">
<ele>30.56</ele>
<time>2015-04-24T18:56:43Z</time>
</trkpt>
<trkpt lat="35.0700641" lon="32.4738500">
<ele>31.24</ele>
<time>2015-04-24T18:56:44Z</time>
</trkpt>
<trkpt lat="35.0701099" lon="32.4738872">
<ele>31.58</ele>
<time>2015-04-24T18:56:45Z</time>
</trkpt>
<trkpt lat="35.0701437" lon="32.4739294">
<ele>31.25</ele>
<time>2015-04-24T18:56:46Z</time>
</trkpt>
<trkpt lat="35.0701748" lon="32.4739756">
<ele>30.59</ele>
<time>2015-04-24T18:56:47Z</time>
</trkpt>
<trkpt lat="35.0702125" lon="32.4740128">
<ele>30.26</ele>
<time>2015-04-24T18:56:48Z</time>
</trkpt>
<trkpt lat="35.0702479" lon="32.4740510">
<ele>30.09</ele>
<time>2015-04-24T18:56:49Z</time>
</trkpt>
<trkpt lat="35.0702839" lon="32.4740967">
<ele>30.01</ele>
<time>2015-04-24T18:56:50Z</time>
</trkpt>
<trkpt lat="35.0703509" lon="32.4741827">
<ele>29.45</ele>
<time>2015-04-24T18:56:52Z</time>
</trkpt>
<trkpt lat="35.0704025" lon="32.4742160">
<ele>29.69</ele>
<time>2015-04-24T18:56:53Z</time>
</trkpt>
<trkpt lat="35.0704478" lon="32.4742660">
<ele>29.81</ele>
<time>2015-04-24T18:56:54Z</time>
</trkpt>
<trkpt lat="35.0704851" lon="32.4743040">
<ele>29.87</ele>
<time>2015-04-24T18:56:55Z</time>
</trkpt>
<trkpt lat="35.0705220" lon="32.4743365">
<ele>30.40</ele>
<time>2015-04-24T18:56:56Z</time>
</trkpt>
<trkpt lat="35.0705928" lon="32.4744134">
<ele>31.54</ele>
<time>2015-04-24T18:56:58Z</time>
</trkpt>
<trkpt lat="35.0706283" lon="32.4744570">
<ele>31.73</ele>
<time>2015-04-24T18:56:59Z</time>
</trkpt>
<trkpt lat="35.0706665" lon="32.4744996">
<ele>32.83</ele>
<time>2015-04-24T18:57:00Z</time>
</trkpt>
<trkpt lat="35.0707090" lon="32.4745447">
<ele>32.88</ele>
<time>2015-04-24T18:57:01Z</time>
</trkpt>
<trkpt lat="35.0707480" lon="32.4745930">
<ele>32.90</ele>
<time>2015-04-24T18:57:02Z</time>
</trkpt>
<trkpt lat="35.0707829" lon="32.4746339">
<ele>32.91</ele>
<time>2015-04-24T18:57:03Z</time>
</trkpt>
<trkpt lat="35.0708211" lon="32.4746764">
<ele>32.92</ele>
<time>2015-04-24T18:57:04Z</time>
</trkpt>
<trkpt lat="35.0708553" lon="32.4747216">
<ele>32.92</ele>
<time>2015-04-24T18:57:05Z</time>
</trkpt>
<trkpt lat="35.0708902" lon="32.4747676">
<ele>32.92</ele>
<time>2015-04-24T18:57:06Z</time>
</trkpt>
<trkpt lat="35.0709599" lon="32.4748532">
<ele>32.17</ele>
<time>2015-04-24T18:57:08Z</time>
</trkpt>
<trkpt lat="35.0709972" lon="32.4748952">
<ele>32.05</ele>
<time>2015-04-24T18:57:09Z</time>
</trkpt>
<trkpt lat="35.0710296" lon="32.4749367">
<ele>31.49</ele>
<time>2015-04-24T18:57:10Z</time>
</trkpt>
<trkpt lat="35.0710845" lon="32.4750181">
<ele>30.32</ele>
<time>2015-04-24T18:57:12Z</time>
</trkpt>
<trkpt lat="35.0711146" lon="32.4750599">
<ele>29.62</ele>
<time>2015-04-24T18:57:13Z</time>
</trkpt>
<trkpt lat="35.0711473" lon="32.4750993">
<ele>29.27</ele>
<time>2015-04-24T18:57:14Z</time>
</trkpt>
<trkpt lat="35.0711997" lon="32.4751729">
<ele>28.51</ele>
<time>2015-04-24T18:57:16Z</time>
</trkpt>
<trkpt lat="35.0712625" lon="32.4752377">
<ele>28.07</ele>
<time>2015-04-24T18:57:18Z</time>
</trkpt>
<trkpt lat="35.0713259" lon="32.4753154">
<ele>27.71</ele>
<time>2015-04-24T18:57:20Z</time>
</trkpt>
<trkpt lat="35.0713640" lon="32.4753526">
<ele>27.32</ele>
<time>2015-04-24T18:57:21Z</time>
</trkpt>
<trkpt lat="35.0714292" lon="32.4754225">
<ele>27.52</ele>
<time>2015-04-24T18:57:23Z</time>
</trkpt>
<trkpt lat="35.0714896" lon="32.4754964">
<ele>27.82</ele>
<time>2015-04-24T18:57:25Z</time>
</trkpt>
<trkpt lat="35.0715540" lon="32.4755685">
<ele>28.65</ele>
<time>2015-04-24T18:57:27Z</time>
</trkpt>
<trkpt lat="35.0715888" lon="32.4756068">
<ele>29.29</ele>
<time>2015-04-24T18:57:28Z</time>
</trkpt>
<trkpt lat="35.0716334" lon="32.4756511">
<ele>29.11</ele>
<time>2015-04-24T18:57:29Z</time>
</trkpt>
<trkpt lat="35.0716972" lon="32.4757336">
<ele>29.47</ele>
<time>2015-04-24T18:57:31Z</time>
</trkpt>
<trkpt lat="35.0717600" lon="32.4758109">
<ele>29.56</ele>
<time>2015-04-24T18:57:33Z</time>
</trkpt>
<trkpt lat="35.0718228" lon="32.4758931">
<ele>30.33</ele>
<time>2015-04-24T18:57:35Z</time>
</trkpt>
<trkpt lat="35.0718536" lon="32.4759384">
<ele>30.13</ele>
<time>2015-04-24T18:57:36Z</time>
</trkpt>
<trkpt lat="35.0718836" lon="32.4759861">
<ele>29.53</ele>
<time>2015-04-24T18:57:37Z</time>
</trkpt>
<trkpt lat="35.0719146" lon="32.4760327">
<ele>29.23</ele>
<time>2015-04-24T18:57:38Z</time>
</trkpt>
<trkpt lat="35.0719767" lon="32.4760837">
<ele>28.25</ele>
<time>2015-04-24T18:57:40Z</time>
</trkpt>
<trkpt lat="35.0720384" lon="32.4761411">
<ele>28.51</ele>
<time>2015-04-24T18:57:42Z</time>
</trkpt>
<trkpt lat="35.0720883" lon="32.4762121">
<ele>27.57</ele>
<time>2015-04-24T18:57:44Z</time>
</trkpt>
<trkpt lat="35.0721386" lon="32.4762849">
<ele>26.59</ele>
<time>2015-04-24T18:57:46Z</time>
</trkpt>
<trkpt lat="35.0721775" lon="32.4763518">
<ele>26.09</ele>
<time>2015-04-24T18:57:48Z</time>
</trkpt>
<trkpt lat="35.0722197" lon="32.4764138">
<ele>25.97</ele>
<time>2015-04-24T18:57:50Z</time>
</trkpt>
<trkpt lat="35.0722580" lon="32.4764707">
<ele>25.44</ele>
<time>2015-04-24T18:57:52Z</time>
</trkpt>
<trkpt lat="35.0723005" lon="32.4765219">
<ele>25.05</ele>
<time>2015-04-24T18:57:54Z</time>
</trkpt>
<trkpt lat="35.0723408" lon="32.4765754">
<ele>24.71</ele>
<time>2015-04-24T18:57:56Z</time>
</trkpt>
<trkpt lat="35.0723801" lon="32.4766358">
<ele>24.87</ele>
<time>2015-04-24T18:57:58Z</time>
</trkpt>
<trkpt lat="35.0724265" lon="32.4766915">
<ele>25.16</ele>
<time>2015-04-24T18:58:00Z</time>
</trkpt>
<trkpt lat="35.0724770" lon="32.4767472">
<ele>24.98</ele>
<time>2015-04-24T18:58:02Z</time>
</trkpt>
<trkpt lat="35.0725298" lon="32.4768104">
<ele>24.94</ele>
<time>2015-04-24T18:58:04Z</time>
</trkpt>
<trkpt lat="35.0725834" lon="32.4768776">
<ele>25.68</ele>
<time>2015-04-24T18:58:06Z</time>
</trkpt>
<trkpt lat="35.0726457" lon="32.4769437">
<ele>25.11</ele>
<time>2015-04-24T18:58:08Z</time>
</trkpt>
<trkpt lat="35.0727052" lon="32.4770111">
<ele>25.72</ele>
<time>2015-04-24T18:58:10Z</time>
</trkpt>
<trkpt lat="35.0727633" lon="32.4770756">
<ele>25.37</ele>
<time>2015-04-24T18:58:12Z</time>
</trkpt>
<trkpt lat="35.0728191" lon="32.4771403">
<ele>25.54</ele>
<time>2015-04-24T18:58:14Z</time>
</trkpt>
<trkpt lat="35.0728824" lon="32.4772082">
<ele>25.83</ele>
<time>2015-04-24T18:58:16Z</time>
</trkpt>
<trkpt lat="35.0729480" lon="32.4772617">
<ele>25.88</ele>
<time>2015-04-24T18:58:17Z</time>
</trkpt>
<trkpt lat="35.0730153" lon="32.4773420">
<ele>26.66</ele>
<time>2015-04-24T18:58:19Z</time>
</trkpt>
<trkpt lat="35.0730517" lon="32.4773890">
<ele>26.79</ele>
<time>2015-04-24T18:58:20Z</time>
</trkpt>
<trkpt lat="35.0730918" lon="32.4774405">
<ele>26.86</ele>
<time>2015-04-24T18:58:21Z</time>
</trkpt>
<trkpt lat="35.0731328" lon="32.4774852">
<ele>26.89</ele>
<time>2015-04-24T18:58:22Z</time>
</trkpt>
<trkpt lat="35.0731710" lon="32.4775300">
<ele>26.91</ele>
<time>2015-04-24T18:58:23Z</time>
</trkpt>
<trkpt lat="35.0732063" lon="32.4775737">
<ele>27.92</ele>
<time>2015-04-24T18:58:24Z</time>
</trkpt>
<trkpt lat="35.0732651" lon="32.4776425">
<ele>28.92</ele>
<time>2015-04-24T18:58:26Z</time>
</trkpt>
<trkpt lat="35.0733088" lon="32.4777209">
<ele>28.42</ele>
<time>2015-04-24T18:58:28Z</time>
</trkpt>
<trkpt lat="35.0733538" lon="32.4777965">
<ele>27.55</ele>
<time>2015-04-24T18:58:30Z</time>
</trkpt>
<trkpt lat="35.0733994" lon="32.4778648">
<ele>27.08</ele>
<time>2015-04-24T18:58:32Z</time>
</trkpt>
<trkpt lat="35.0734550" lon="32.4779276">
<ele>27.46</ele>
<time>2015-04-24T18:58:34Z</time>
</trkpt>
<trkpt lat="35.0734866" lon="32.4779678">
<ele>28.19</ele>
<time>2015-04-24T18:58:35Z</time>
</trkpt>
<trkpt lat="35.0735177" lon="32.4780094">
<ele>28.56</ele>
<time>2015-04-24T18:58:36Z</time>
</trkpt>
<trkpt lat="35.0735534" lon="32.4780577">
<ele>28.74</ele>
<time>2015-04-24T18:58:37Z</time>
</trkpt>
<trkpt lat="35.0735894" lon="32.4781020">
<ele>28.83</ele>
<time>2015-04-24T18:58:38Z</time>
</trkpt>
<trkpt lat="35.0736550" lon="32.4781731">
<ele>29.40</ele>
<time>2015-04-24T18:58:40Z</time>
</trkpt>
<trkpt lat="35.0737106" lon="32.4782369">
<ele>30.54</ele>
<time>2015-04-24T18:58:42Z</time>
</trkpt>
<trkpt lat="35.0737697" lon="32.4782980">
<ele>31.08</ele>
<time>2015-04-24T18:58:44Z</time>
</trkpt>
<trkpt lat="35.0738146" lon="32.4783605">
<ele>30.46</ele>
<time>2015-04-24T18:58:46Z</time>
</trkpt>
<trkpt lat="35.0738548" lon="32.4784182">
<ele>30.06</ele>
<time>2015-04-24T18:58:48Z</time>
</trkpt>
<trkpt lat="35.0738984" lon="32.4784672">
<ele>30.46</ele>
<time>2015-04-24T18:58:50Z</time>
</trkpt>
<trkpt lat="35.0739400" lon="32.4785099">
<ele>30.81</ele>
<time>2015-04-24T18:58:52Z</time>
</trkpt>
<trkpt lat="35.0739866" lon="32.4785595">
<ele>30.15</ele>
<time>2015-04-24T18:58:54Z</time>
</trkpt>
<trkpt lat="35.0740390" lon="32.4786150">
<ele>29.98</ele>
<time>2015-04-24T18:58:56Z</time>
</trkpt>
<trkpt lat="35.0740934" lon="32.4786777">
<ele>29.44</ele>
<time>2015-04-24T18:58:58Z</time>
</trkpt>
<trkpt lat="35.0741476" lon="32.4787396">
<ele>29.80</ele>
<time>2015-04-24T18:59:00Z</time>
</trkpt>
<trkpt lat="35.0741966" lon="32.4787990">
<ele>29.39</ele>
<time>2015-04-24T18:59:02Z</time>
</trkpt>
<trkpt lat="35.0742459" lon="32.4788569">
<ele>29.54</ele>
<time>2015-04-24T18:59:04Z</time>
</trkpt>
<trkpt lat="35.0742946" lon="32.4789112">
<ele>29.33</ele>
<time>2015-04-24T18:59:06Z</time>
</trkpt>
<trkpt lat="35.0743428" lon="32.4789672">
<ele>29.78</ele>
<time>2015-04-24T18:59:08Z</time>
</trkpt>
<trkpt lat="35.0743919" lon="32.4790226">
<ele>29.14</ele>
<time>2015-04-24T18:59:10Z</time>
</trkpt>
<trkpt lat="35.0744428" lon="32.4790793">
<ele>29.73</ele>
<time>2015-04-24T18:59:12Z</time>
</trkpt>
<trkpt lat="35.0744977" lon="32.4791382">
<ele>29.88</ele>
<time>2015-04-24T18:59:14Z</time>
</trkpt>
<trkpt lat="35.0745529" lon="32.4791967">
<ele>29.41</ele>
<time>2015-04-24T18:59:16Z</time>
</trkpt>
<trkpt lat="35.0746076" lon="32.4792563">
<ele>29.05</ele>
<time>2015-04-24T18:59:18Z</time>
</trkpt>
<trkpt lat="35.0746651" lon="32.4793179">
<ele>28.71</ele>
<time>2015-04-24T18:59:20Z</time>
</trkpt>
<trkpt lat="35.0747230" lon="32.4793776">
<ele>29.37</ele>
<time>2015-04-24T18:59:22Z</time>
</trkpt>
<trkpt lat="35.0747791" lon="32.4794386">
<ele>29.79</ele>
<time>2015-04-24T18:59:24Z</time>
</trkpt>
<trkpt lat="35.0748328" lon="32.4794961">
<ele>30.64</ele>
<time>2015-04-24T18:59:26Z</time>
</trkpt>
<trkpt lat="35.0748826" lon="32.4795527">
<ele>30.35</ele>
<time>2015-04-24T18:59:28Z</time>
</trkpt>
<trkpt lat="35.0749373" lon="32.4796082">
<ele>30.03</ele>
<time>2015-04-24T18:59:30Z</time>
</trkpt>
<trkpt lat="35.0749936" lon="32.4796708">
<ele>29.45</ele>
<time>2015-04-24T18:59:32Z</time>
</trkpt>
<trkpt lat="35.0750532" lon="32.4797382">
<ele>29.06</ele>
<time>2015-04-24T18:59:34Z</time>
</trkpt>
<trkpt lat="35.0751024" lon="32.4797965">
<ele>28.99</ele>
<time>2015-04-24T18:59:35Z</time>
</trkpt>
<trkpt lat="35.0751645" lon="32.4798703">
<ele>28.19</ele>
<time>2015-04-24T18:59:37Z</time>
</trkpt>
<trkpt lat="35.0752013" lon="32.4799101">
<ele>28.06</ele>
<time>2015-04-24T18:59:38Z</time>
</trkpt>
<trkpt lat="35.0752589" lon="32.4799885">
<ele>27.21</ele>
<time>2015-04-24T18:59:40Z</time>
</trkpt>
<trkpt lat="35.0753002" lon="32.4800286">
<ele>26.57</ele>
<time>2015-04-24T18:59:41Z</time>
</trkpt>
<trkpt lat="35.0753314" lon="32.4800707">
<ele>26.75</ele>
<time>2015-04-24T18:59:42Z</time>
</trkpt>
<trkpt lat="35.0753695" lon="32.4801110">
<ele>26.34</ele>
<time>2015-04-24T18:59:43Z</time>
</trkpt>
<trkpt lat="35.0754074" lon="32.4801619">
<ele>26.13</ele>
<time>2015-04-24T18:59:44Z</time>
</trkpt>
<trkpt lat="35.0754458" lon="32.4802111">
<ele>26.03</ele>
<time>2015-04-24T18:59:45Z</time>
</trkpt>
<trkpt lat="35.0754849" lon="32.4802514">
<ele>25.98</ele>
<time>2015-04-24T18:59:46Z</time>
</trkpt>
<trkpt lat="35.0755560" lon="32.4803262">
<ele>26.69</ele>
<time>2015-04-24T18:59:48Z</time>
</trkpt>
<trkpt lat="35.0755869" lon="32.4803725">
<ele>26.81</ele>
<time>2015-04-24T18:59:49Z</time>
</trkpt>
<trkpt lat="35.0756249" lon="32.4804184">
<ele>26.87</ele>
<time>2015-04-24T18:59:50Z</time>
</trkpt>
<trkpt lat="35.0756620" lon="32.4804651">
<ele>26.90</ele>
<time>2015-04-24T18:59:51Z</time>
</trkpt>
<trkpt lat="35.0756985" lon="32.4805031">
<ele>26.91</ele>
<time>2015-04-24T18:59:52Z</time>
</trkpt>
<trkpt lat="35.0757344" lon="32.4805461">
<ele>26.92</ele>
<time>2015-04-24T18:59:53Z</time>
</trkpt>
<trkpt lat="35.0758024" lon="32.4806214">
<ele>26.92</ele>
<time>2015-04-24T18:59:55Z</time>
</trkpt>
<trkpt lat="35.0758452" lon="32.4806688">
<ele>26.92</ele>
<time>2015-04-24T18:59:56Z</time>
</trkpt>
<trkpt lat="35.0758933" lon="32.4807082">
<ele>26.92</ele>
<time>2015-04-24T18:59:57Z</time>
</trkpt>
<trkpt lat="35.0759270" lon="32.4807534">
<ele>26.42</ele>
<time>2015-04-24T18:59:58Z</time>
</trkpt>
<trkpt lat="35.0759757" lon="32.4807946">
<ele>26.17</ele>
<time>2015-04-24T18:59:59Z</time>
</trkpt>
<trkpt lat="35.0760243" lon="32.4808230">
<ele>26.05</ele>
<time>2015-04-24T19:00:00Z</time>
</trkpt>
<trkpt lat="35.0760638" lon="32.4808705">
<ele>25.99</ele>
<time>2015-04-24T19:00:01Z</time>
</trkpt>
<trkpt lat="35.0761057" lon="32.4809041">
<ele>25.46</ele>
<time>2015-04-24T19:00:02Z</time>
</trkpt>
<trkpt lat="35.0761355" lon="32.4809522">
<ele>25.69</ele>
<time>2015-04-24T19:00:03Z</time>
</trkpt>
<trkpt lat="35.0762026" lon="32.4810388">
<ele>25.37</ele>
<time>2015-04-24T19:00:05Z</time>
</trkpt>
<trkpt lat="35.0762427" lon="32.4810844">
<ele>25.65</ele>
<time>2015-04-24T19:00:06Z</time>
</trkpt>
<trkpt lat="35.0762790" lon="32.4811341">
<ele>25.29</ele>
<time>2015-04-24T19:00:07Z</time>
</trkpt>
<trkpt lat="35.0763382" lon="32.4812307">
<ele>24.27</ele>
<time>2015-04-24T19:00:09Z</time>
</trkpt>
<trkpt lat="35.0763727" lon="32.4812804">
<ele>23.60</ele>
<time>2015-04-24T19:00:10Z</time>
</trkpt>
<trkpt lat="35.0764232" lon="32.4813236">
<ele>23.76</ele>
<time>2015-04-24T19:00:11Z</time>
</trkpt>
<trkpt lat="35.0764602" lon="32.4813820">
<ele>24.34</ele>
<time>2015-04-24T19:00:12Z</time>
</trkpt>
<trkpt lat="35.0764930" lon="32.4814329">
<ele>24.63</ele>
<time>2015-04-24T19:00:13Z</time>
</trkpt>
<trkpt lat="35.0765377" lon="32.4814751">
<ele>25.28</ele>
<time>2015-04-24T19:00:14Z</time>
</trkpt>
<trkpt lat="35.0765756" lon="32.4815238">
<ele>26.10</ele>
<time>2015-04-24T19:00:15Z</time>
</trkpt>
<trkpt lat="35.0766079" lon="32.4815810">
<ele>26.01</ele>
<time>2015-04-24T19:00:16Z</time>
</trkpt>
<trkpt lat="35.0766476" lon="32.4816281">
<ele>25.97</ele>
<time>2015-04-24T19:00:17Z</time>
</trkpt>
<trkpt lat="35.0766918" lon="32.4816790">
<ele>25.95</ele>
<time>2015-04-24T19:00:18Z</time>
</trkpt>
<trkpt lat="35.0767337" lon="32.4817264">
<ele>25.94</ele>
<time>2015-04-24T19:00:19Z</time>
</trkpt>
<trkpt lat="35.0767772" lon="32.4817712">
<ele>25.93</ele>
<time>2015-04-24T19:00:20Z</time>
</trkpt>
<trkpt lat="35.0768244" lon="32.4818113">
<ele>25.93</ele>
<time>2015-04-24T19:00:21Z</time>
</trkpt>
<trkpt lat="35.0768768" lon="32.4818423">
<ele>25.93</ele>
<time>2015-04-24T19:00:22Z</time>
</trkpt>
<trkpt lat="35.0769251" lon="32.4818674">
<ele>25.93</ele>
<time>2015-04-24T19:00:23Z</time>
</trkpt>
<trkpt lat="35.0769708" lon="32.4818868">
<ele>25.93</ele>
<time>2015-04-24T19:00:24Z</time>
</trkpt>
<trkpt lat="35.0770206" lon="32.4819055">
<ele>25.93</ele>
<time>2015-04-24T19:00:25Z</time>
</trkpt>
<trkpt lat="35.0770647" lon="32.4819175">
<ele>25.43</ele>
<time>2015-04-24T19:00:26Z</time>
</trkpt>
<trkpt lat="35.0771097" lon="32.4819316">
<ele>25.18</ele>
<time>2015-04-24T19:00:27Z</time>
</trkpt>
<trkpt lat="35.0771606" lon="32.4819576">
<ele>24.55</ele>
<time>2015-04-24T19:00:28Z</time>
</trkpt>
<trkpt lat="35.0772028" lon="32.4819822">
<ele>24.24</ele>
<time>2015-04-24T19:00:29Z</time>
</trkpt>
<trkpt lat="35.0772588" lon="32.4819919">
<ele>24.08</ele>
<time>2015-04-24T19:00:30Z</time>
</trkpt>
<trkpt lat="35.0773106" lon="32.4820147">
<ele>24.00</ele>
<time>2015-04-24T19:00:31Z</time>
</trkpt>
<trkpt lat="35.0773590" lon="32.4820479">
<ele>23.46</ele>
<time>2015-04-24T19:00:32Z</time>
</trkpt>
<trkpt lat="35.0774012" lon="32.4820791">
<ele>22.69</ele>
<time>2015-04-24T19:00:33Z</time>
</trkpt>
<trkpt lat="35.0774447" lon="32.4821128">
<ele>22.81</ele>
<time>2015-04-24T19:00:34Z</time>
</trkpt>
<trkpt lat="35.0774910" lon="32.4821530">
<ele>22.87</ele>
<time>2015-04-24T19:00:35Z</time>
</trkpt>
<trkpt lat="35.0775342" lon="32.4821972">
<ele>22.90</ele>
<time>2015-04-24T19:00:36Z</time>
</trkpt>
<trkpt lat="35.0775778" lon="32.4822399">
<ele>22.91</ele>
<time>2015-04-24T19:00:37Z</time>
</trkpt>
<trkpt lat="35.0776235" lon="32.4822802">
<ele>22.92</ele>
<time>2015-04-24T19:00:38Z</time>
</trkpt>
<trkpt lat="35.0776674" lon="32.4823250">
<ele>22.92</ele>
<time>2015-04-24T19:00:39Z</time>
</trkpt>
<trkpt lat="35.0777094" lon="32.4823675">
<ele>23.42</ele>
<time>2015-04-24T19:00:40Z</time>
</trkpt>
<trkpt lat="35.0777474" lon="32.4824175">
<ele>24.17</ele>
<time>2015-04-24T19:00:41Z</time>
</trkpt>
<trkpt lat="35.0777820" lon="32.4824592">
<ele>24.05</ele>
<time>2015-04-24T19:00:42Z</time>
</trkpt>
<trkpt lat="35.0778215" lon="32.4825022">
<ele>24.49</ele>
<time>2015-04-24T19:00:43Z</time>
</trkpt>
<trkpt lat="35.0778586" lon="32.4825406">
<ele>24.21</ele>
<time>2015-04-24T19:00:44Z</time>
</trkpt>
<trkpt lat="35.0778936" lon="32.4825803">
<ele>24.57</ele>
<time>2015-04-24T19:00:45Z</time>
</trkpt>
<trkpt lat="35.0779283" lon="32.4826282">
<ele>24.25</ele>
<time>2015-04-24T19:00:46Z</time>
</trkpt>
<trkpt lat="35.0779649" lon="32.4826702">
<ele>24.09</ele>
<time>2015-04-24T19:00:47Z</time>
</trkpt>
<trkpt lat="35.0780069" lon="32.4827217">
<ele>24.01</ele>
<time>2015-04-24T19:00:48Z</time>
</trkpt>
<trkpt lat="35.0780352" lon="32.4827686">
<ele>23.97</ele>
<time>2015-04-24T19:00:49Z</time>
</trkpt>
<trkpt lat="35.0780732" lon="32.4828131">
<ele>23.45</ele>
<time>2015-04-24T19:00:50Z</time>
</trkpt>
<trkpt lat="35.0781107" lon="32.4828562">
<ele>23.19</ele>
<time>2015-04-24T19:00:51Z</time>
</trkpt>
<trkpt lat="35.0781536" lon="32.4828997">
<ele>23.06</ele>
<time>2015-04-24T19:00:52Z</time>
</trkpt>
<trkpt lat="35.0781946" lon="32.4829436">
<ele>23.49</ele>
<time>2015-04-24T19:00:53Z</time>
</trkpt>
<trkpt lat="35.0782316" lon="32.4829875">
<ele>23.71</ele>
<time>2015-04-24T19:00:54Z</time>
</trkpt>
<trkpt lat="35.0782728" lon="32.4830239">
<ele>24.32</ele>
<time>2015-04-24T19:00:55Z</time>
</trkpt>
<trkpt lat="35.0783126" lon="32.4830698">
<ele>24.62</ele>
<time>2015-04-24T19:00:56Z</time>
</trkpt>
<trkpt lat="35.0783543" lon="32.4831100">
<ele>25.77</ele>
<time>2015-04-24T19:00:57Z</time>
</trkpt>
<trkpt lat="35.0783958" lon="32.4831597">
<ele>25.85</ele>
<time>2015-04-24T19:00:58Z</time>
</trkpt>
<trkpt lat="35.0784271" lon="32.4832061">
<ele>26.39</ele>
<time>2015-04-24T19:00:59Z</time>
</trkpt>
<trkpt lat="35.0784627" lon="32.4832518">
<ele>26.16</ele>
<time>2015-04-24T19:01:00Z</time>
</trkpt>
<trkpt lat="35.0785006" lon="32.4832999">
<ele>26.04</ele>
<time>2015-04-24T19:01:01Z</time>
</trkpt>
<trkpt lat="35.0785301" lon="32.4833449">
<ele>25.48</ele>
<time>2015-04-24T19:01:02Z</time>
</trkpt>
<trkpt lat="35.0785698" lon="32.4833818">
<ele>25.70</ele>
<time>2015-04-24T19:01:03Z</time>
</trkpt>
<trkpt lat="35.0786066" lon="32.4834171">
<ele>25.81</ele>
<time>2015-04-24T19:01:04Z</time>
</trkpt>
<trkpt lat="35.0786398" lon="32.4834552">
<ele>25.37</ele>
<time>2015-04-24T19:01:05Z</time>
</trkpt>
<trkpt lat="35.0786716" lon="32.4835047">
<ele>25.15</ele>
<time>2015-04-24T19:01:06Z</time>
</trkpt>
<trkpt lat="35.0787100" lon="32.4835460">
<ele>25.04</ele>
<time>2015-04-24T19:01:07Z</time>
</trkpt>
<trkpt lat="35.0787572" lon="32.4835840">
<ele>24.98</ele>
<time>2015-04-24T19:01:08Z</time>
</trkpt>
<trkpt lat="35.0787922" lon="32.4836210">
<ele>25.45</ele>
<time>2015-04-24T19:01:09Z</time>
</trkpt>
<trkpt lat="35.0788272" lon="32.4836643">
<ele>25.69</ele>
<time>2015-04-24T19:01:10Z</time>
</trkpt>
<trkpt lat="35.0788750" lon="32.4836974">
<ele>25.81</ele>
<time>2015-04-24T19:01:11Z</time>
</trkpt>
<trkpt lat="35.0789017" lon="32.4837475">
<ele>25.37</ele>
<time>2015-04-24T19:01:12Z</time>
</trkpt>
<trkpt lat="35.0789350" lon="32.4837928">
<ele>25.15</ele>
<time>2015-04-24T19:01:13Z</time>
</trkpt>
<trkpt lat="35.0789654" lon="32.4838353">
<ele>25.04</ele>
<time>2015-04-24T19:01:14Z</time>
</trkpt>
<trkpt lat="35.0790036" lon="32.4838727">
<ele>24.98</ele>
<time>2015-04-24T19:01:15Z</time>
</trkpt>
<trkpt lat="35.0790402" lon="32.4839162">
<ele>24.95</ele>
<time>2015-04-24T19:01:16Z</time>
</trkpt>
<trkpt lat="35.0791104" lon="32.4839751">
<ele>24.93</ele>
<time>2015-04-24T19:01:18Z</time>
</trkpt>
<trkpt lat="35.0791454" lon="32.4840211">
<ele>24.93</ele>
<time>2015-04-24T19:01:19Z</time>
</trkpt>
<trkpt lat="35.0791871" lon="32.4840602">
<ele>24.43</ele>
<time>2015-04-24T19:01:20Z</time>
</trkpt>
<trkpt lat="35.0792475" lon="32.4841314">
<ele>24.30</ele>
<time>2015-04-24T19:01:22Z</time>
</trkpt>
<trkpt lat="35.0792846" lon="32.4841683">
<ele>23.61</ele>
<time>2015-04-24T19:01:23Z</time>
</trkpt>
<trkpt lat="35.0793231" lon="32.4842140">
<ele>23.77</ele>
<time>2015-04-24T19:01:24Z</time>
</trkpt>
<trkpt lat="35.0793627" lon="32.4842562">
<ele>23.85</ele>
<time>2015-04-24T19:01:25Z</time>
</trkpt>
<trkpt lat="35.0794056" lon="32.4842913">
<ele>23.89</ele>
<time>2015-04-24T19:01:26Z</time>
</trkpt>
<trkpt lat="35.0794401" lon="32.4843365">
<ele>24.41</ele>
<time>2015-04-24T19:01:27Z</time>
</trkpt>
<trkpt lat="35.0794783" lon="32.4843726">
<ele>24.17</ele>
<time>2015-04-24T19:01:28Z</time>
</trkpt>
<trkpt lat="35.0795177" lon="32.4844063">
<ele>23.55</ele>
<time>2015-04-24T19:01:29Z</time>
</trkpt>
<trkpt lat="35.0795566" lon="32.4844509">
<ele>23.24</ele>
<time>2015-04-24T19:01:30Z</time>
</trkpt>
<trkpt lat="35.0796001" lon="32.4844969">
<ele>22.58</ele>
<time>2015-04-24T19:01:31Z</time>
</trkpt>
<trkpt lat="35.0796411" lon="32.4845435">
<ele>22.75</ele>
<time>2015-04-24T19:01:32Z</time>
</trkpt>
<trkpt lat="35.0796817" lon="32.4845902">
<ele>23.34</ele>
<time>2015-04-24T19:01:33Z</time>
</trkpt>
<trkpt lat="35.0797312" lon="32.4846281">
<ele>24.63</ele>
<time>2015-04-24T19:01:34Z</time>
</trkpt>
<trkpt lat="35.0798050" lon="32.4846963">
<ele>25.60</ele>
<time>2015-04-24T19:01:36Z</time>
</trkpt>
<trkpt lat="35.0798400" lon="32.4847428">
<ele>25.26</ele>
<time>2015-04-24T19:01:37Z</time>
</trkpt>
<trkpt lat="35.0798816" lon="32.4847866">
<ele>25.09</ele>
<time>2015-04-24T19:01:38Z</time>
</trkpt>
<trkpt lat="35.0799589" lon="32.4848685">
<ele>24.97</ele>
<time>2015-04-24T19:01:40Z</time>
</trkpt>
<trkpt lat="35.0799917" lon="32.4849134">
<ele>24.95</ele>
<time>2015-04-24T19:01:41Z</time>
</trkpt>
<trkpt lat="35.0800661" lon="32.4849887">
<ele>24.93</ele>
<time>2015-04-24T19:01:43Z</time>
</trkpt>
<trkpt lat="35.0801095" lon="32.4850373">
<ele>25.43</ele>
<time>2015-04-24T19:01:44Z</time>
</trkpt>
<trkpt lat="35.0801466" lon="32.4850725">
<ele>25.68</ele>
<time>2015-04-24T19:01:45Z</time>
</trkpt>
<trkpt lat="35.0801850" lon="32.4851031">
<ele>25.80</ele>
<time>2015-04-24T19:01:46Z</time>
</trkpt>
<trkpt lat="35.0802236" lon="32.4851439">
<ele>25.36</ele>
<time>2015-04-24T19:01:47Z</time>
</trkpt>
<trkpt lat="35.0802630" lon="32.4851848">
<ele>25.64</ele>
<time>2015-04-24T19:01:48Z</time>
</trkpt>
<trkpt lat="35.0803080" lon="32.4852254">
<ele>25.78</ele>
<time>2015-04-24T19:01:49Z</time>
</trkpt>
<trkpt lat="35.0803475" lon="32.4852693">
<ele>25.85</ele>
<time>2015-04-24T19:01:50Z</time>
</trkpt>
<trkpt lat="35.0803903" lon="32.4853114">
<ele>25.89</ele>
<time>2015-04-24T19:01:51Z</time>
</trkpt>
<trkpt lat="35.0804405" lon="32.4853501">
<ele>25.91</ele>
<time>2015-04-24T19:01:52Z</time>
</trkpt>
<trkpt lat="35.0804846" lon="32.4853906">
<ele>25.92</ele>
<time>2015-04-24T19:01:53Z</time>
</trkpt>
<trkpt lat="35.0805320" lon="32.4854338">
<ele>25.92</ele>
<time>2015-04-24T19:01:54Z</time>
</trkpt>
<trkpt lat="35.0805683" lon="32.4854752">
<ele>25.92</ele>
<time>2015-04-24T19:01:55Z</time>
</trkpt>
<trkpt lat="35.0806174" lon="32.4855214">
<ele>25.92</ele>
<time>2015-04-24T19:01:56Z</time>
</trkpt>
<trkpt lat="35.0806659" lon="32.4855659">
<ele>25.92</ele>
<time>2015-04-24T19:01:57Z</time>
</trkpt>
<trkpt lat="35.0807138" lon="32.4856053">
<ele>25.92</ele>
<time>2015-04-24T19:01:58Z</time>
</trkpt>
<trkpt lat="35.0807575" lon="32.4856415">
<ele>25.42</ele>
<time>2015-04-24T19:01:59Z</time>
</trkpt>
<trkpt lat="35.0808022" lon="32.4856778">
<ele>24.67</ele>
<time>2015-04-24T19:02:00Z</time>
</trkpt>
<trkpt lat="35.0808418" lon="32.4857153">
<ele>24.30</ele>
<time>2015-04-24T19:02:01Z</time>
</trkpt>
<trkpt lat="35.0808864" lon="32.4857498">
<ele>24.11</ele>
<time>2015-04-24T19:02:02Z</time>
</trkpt>
<trkpt lat="35.0809280" lon="32.4857861">
<ele>24.52</ele>
<time>2015-04-24T19:02:03Z</time>
</trkpt>
<trkpt lat="35.0809781" lon="32.4858232">
<ele>24.72</ele>
<time>2015-04-24T19:02:04Z</time>
</trkpt>
<trkpt lat="35.0810209" lon="32.4858622">
<ele>24.82</ele>
<time>2015-04-24T19:02:05Z</time>
</trkpt>
<trkpt lat="35.0810674" lon="32.4858935">
<ele>25.37</ele>
<time>2015-04-24T19:02:06Z</time>
</trkpt>
<trkpt lat="35.0811051" lon="32.4859320">
<ele>25.15</ele>
<time>2015-04-24T19:02:07Z</time>
</trkpt>
<trkpt lat="35.0811514" lon="32.4859770">
<ele>25.04</ele>
<time>2015-04-24T19:02:08Z</time>
</trkpt>
<trkpt lat="35.0811936" lon="32.4860185">
<ele>24.48</ele>
<time>2015-04-24T19:02:09Z</time>
</trkpt>
<trkpt lat="35.0812359" lon="32.4860604">
<ele>24.20</ele>
<time>2015-04-24T19:02:10Z</time>
</trkpt>
<trkpt lat="35.0812810" lon="32.4860968">
<ele>24.06</ele>
<time>2015-04-24T19:02:11Z</time>
</trkpt>
<trkpt lat="35.0813201" lon="32.4861323">
<ele>23.49</ele>
<time>2015-04-24T19:02:12Z</time>
</trkpt>
<trkpt lat="35.0813651" lon="32.4861625">
<ele>24.21</ele>
<time>2015-04-24T19:02:13Z</time>
</trkpt>
<trkpt lat="35.0813991" lon="32.4862031">
<ele>24.57</ele>
<time>2015-04-24T19:02:14Z</time>
</trkpt>
<trkpt lat="35.0814348" lon="32.4862375">
<ele>24.25</ele>
<time>2015-04-24T19:02:15Z</time>
</trkpt>
<trkpt lat="35.0814723" lon="32.4862797">
<ele>24.09</ele>
<time>2015-04-24T19:02:16Z</time>
</trkpt>
<trkpt lat="35.0815468" lon="32.4863379">
<ele>24.72</ele>
<time>2015-04-24T19:02:18Z</time>
</trkpt>
<trkpt lat="35.0815825" lon="32.4863719">
<ele>25.32</ele>
<time>2015-04-24T19:02:19Z</time>
</trkpt>
<trkpt lat="35.0816515" lon="32.4864368">
<ele>24.52</ele>
<time>2015-04-24T19:02:21Z</time>
</trkpt>
<trkpt lat="35.0816922" lon="32.4864684">
<ele>24.22</ele>
<time>2015-04-24T19:02:22Z</time>
</trkpt>
<trkpt lat="35.0817350" lon="32.4865076">
<ele>24.57</ele>
<time>2015-04-24T19:02:23Z</time>
</trkpt>
<trkpt lat="35.0817834" lon="32.4865493">
<ele>24.25</ele>
<time>2015-04-24T19:02:24Z</time>
</trkpt>
<trkpt lat="35.0818300" lon="32.4865961">
<ele>24.09</ele>
<time>2015-04-24T19:02:25Z</time>
</trkpt>
<trkpt lat="35.0818868" lon="32.4866431">
<ele>24.51</ele>
<time>2015-04-24T19:02:26Z</time>
</trkpt>
<trkpt lat="35.0819301" lon="32.4866837">
<ele>24.72</ele>
<time>2015-04-24T19:02:27Z</time>
</trkpt>
<trkpt lat="35.0819795" lon="32.4867191">
<ele>24.82</ele>
<time>2015-04-24T19:02:28Z</time>
</trkpt>
<trkpt lat="35.0820153" lon="32.4867614">
<ele>24.37</ele>
<time>2015-04-24T19:02:29Z</time>
</trkpt>
<trkpt lat="35.0820574" lon="32.4867963">
<ele>24.15</ele>
<time>2015-04-24T19:02:30Z</time>
</trkpt>
<trkpt lat="35.0820962" lon="32.4868281">
<ele>24.04</ele>
<time>2015-04-24T19:02:31Z</time>
</trkpt>
<trkpt lat="35.0821330" lon="32.4868700">
<ele>23.98</ele>
<time>2015-04-24T19:02:32Z</time>
</trkpt>
<trkpt lat="35.0821763" lon="32.4869120">
<ele>23.95</ele>
<time>2015-04-24T19:02:33Z</time>
</trkpt>
<trkpt lat="35.0822163" lon="32.4869481">
<ele>23.94</ele>
<time>2015-04-24T19:02:34Z</time>
</trkpt>
<trkpt lat="35.0822558" lon="32.4869880">
<ele>23.93</ele>
<time>2015-04-24T19:02:35Z</time>
</trkpt>
<trkpt lat="35.0822957" lon="32.4870331">
<ele>24.43</ele>
<time>2015-04-24T19:02:36Z</time>
</trkpt>
<trkpt lat="35.0823400" lon="32.4870725">
<ele>24.68</ele>
<time>2015-04-24T19:02:37Z</time>
</trkpt>
<trkpt lat="35.0823852" lon="32.4871210">
<ele>24.80</ele>
<time>2015-04-24T19:02:38Z</time>
</trkpt>
<trkpt lat="35.0824287" lon="32.4871561">
<ele>24.86</ele>
<time>2015-04-24T19:02:39Z</time>
</trkpt>
<trkpt lat="35.0824752" lon="32.4872003">
<ele>24.89</ele>
<time>2015-04-24T19:02:40Z</time>
</trkpt>
<trkpt lat="35.0825188" lon="32.4872382">
<ele>25.41</ele>
<time>2015-04-24T19:02:41Z</time>
</trkpt>
<trkpt lat="35.0825651" lon="32.4872663">
<ele>25.67</ele>
<time>2015-04-24T19:02:42Z</time>
</trkpt>
<trkpt lat="35.0826362" lon="32.4873276">
<ele>26.36</ele>
<time>2015-04-24T19:02:44Z</time>
</trkpt>
<trkpt lat="35.0826772" lon="32.4873671">
<ele>26.64</ele>
<time>2015-04-24T19:02:45Z</time>
</trkpt>
<trkpt lat="35.0827127" lon="32.4874035">
<ele>26.78</ele>
<time>2015-04-24T19:02:46Z</time>
</trkpt>
<trkpt lat="35.0827496" lon="32.4874382">
<ele>26.85</ele>
<time>2015-04-24T19:02:47Z</time>
</trkpt>
<trkpt lat="35.0827917" lon="32.4874803">
<ele>26.89</ele>
<time>2015-04-24T19:02:48Z</time>
</trkpt>
<trkpt lat="35.0828334" lon="32.4875146">
<ele>27.91</ele>
<time>2015-04-24T19:02:49Z</time>
</trkpt>
<trkpt lat="35.0828745" lon="32.4875497">
<ele>28.42</ele>
<time>2015-04-24T19:02:50Z</time>
</trkpt>
<trkpt lat="35.0829149" lon="32.4875858">
<ele>28.67</ele>
<time>2015-04-24T19:02:51Z</time>
</trkpt>
<trkpt lat="35.0829594" lon="32.4876151">
<ele>28.80</ele>
<time>2015-04-24T19:02:52Z</time>
</trkpt>
<trkpt lat="35.0830057" lon="32.4876462">
<ele>29.86</ele>
<time>2015-04-24T19:02:53Z</time>
</trkpt>
<trkpt lat="35.0830462" lon="32.4876809">
<ele>30.39</ele>
<time>2015-04-24T19:02:54Z</time>
</trkpt>
<trkpt lat="35.0830836" lon="32.4877130">
<ele>30.16</ele>
<time>2015-04-24T19:02:55Z</time>
</trkpt>
<trkpt lat="35.0831282" lon="32.4877499">
<ele>30.54</ele>
<time>2015-04-24T19:02:56Z</time>
</trkpt>
<trkpt lat="35.0831947" lon="32.4878168">
<ele>30.08</ele>
<time>2015-04-24T19:02:58Z</time>
</trkpt>
<trkpt lat="35.0832347" lon="32.4878469">
<ele>30.50</ele>
<time>2015-04-24T19:02:59Z</time>
</trkpt>
<trkpt lat="35.0832758" lon="32.4878768">
<ele>31.21</ele>
<time>2015-04-24T19:03:00Z</time>
</trkpt>
<trkpt lat="35.0833130" lon="32.4879148">
<ele>31.07</ele>
<time>2015-04-24T19:03:01Z</time>
</trkpt>
<trkpt lat="35.0833550" lon="32.4879448">
<ele>31.00</ele>
<time>2015-04-24T19:03:02Z</time>
</trkpt>
<trkpt lat="35.0833923" lon="32.4879801">
<ele>30.96</ele>
<time>2015-04-24T19:03:03Z</time>
</trkpt>
<trkpt lat="35.0834435" lon="32.4880118">
<ele>31.94</ele>
<time>2015-04-24T19:03:04Z</time>
</trkpt>
<trkpt lat="35.0834898" lon="32.4880466">
<ele>32.43</ele>
<time>2015-04-24T19:03:05Z</time>
</trkpt>
<trkpt lat="35.0835322" lon="32.4880759">
<ele>32.68</ele>
<time>2015-04-24T19:03:06Z</time>
</trkpt>
<trkpt lat="35.0836125" lon="32.4881335">
<ele>32.86</ele>
<time>2015-04-24T19:03:08Z</time>
</trkpt>
<trkpt lat="35.0836501" lon="32.4881639">
<ele>32.89</ele>
<time>2015-04-24T19:03:09Z</time>
</trkpt>
<trkpt lat="35.0836956" lon="32.4881858">
<ele>32.91</ele>
<time>2015-04-24T19:03:10Z</time>
</trkpt>
<trkpt lat="35.0837392" lon="32.4882152">
<ele>33.42</ele>
<time>2015-04-24T19:03:11Z</time>
</trkpt>
<trkpt lat="35.0837849" lon="32.4882452">
<ele>33.17</ele>
<time>2015-04-24T19:03:12Z</time>
</trkpt>
<trkpt lat="35.0838253" lon="32.4882764">
<ele>33.05</ele>
<time>2015-04-24T19:03:13Z</time>
</trkpt>
<trkpt lat="35.0838768" lon="32.4883375">
<ele>32.46</ele>
<time>2015-04-24T19:03:15Z</time>
</trkpt>
<trkpt lat="35.0839551" lon="32.4884036">
<ele>32.06</ele>
<time>2015-04-24T19:03:17Z</time>
</trkpt>
<trkpt lat="35.0840094" lon="32.4884304">
<ele>31.99</ele>
<time>2015-04-24T19:03:18Z</time>
</trkpt>
<trkpt lat="35.0840414" lon="32.4884704">
<ele>31.96</ele>
<time>2015-04-24T19:03:19Z</time>
</trkpt>
<trkpt lat="35.0840888" lon="32.4885062">
<ele>31.94</ele>
<time>2015-04-24T19:03:20Z</time>
</trkpt>
<trkpt lat="35.0841277" lon="32.4885446">
<ele>31.43</ele>
<time>2015-04-24T19:03:21Z</time>
</trkpt>
<trkpt lat="35.0841606" lon="32.4885852">
<ele>31.18</ele>
<time>2015-04-24T19:03:22Z</time>
</trkpt>
<trkpt lat="35.0842067" lon="32.4886139">
<ele>30.55</ele>
<time>2015-04-24T19:03:23Z</time>
</trkpt>
<trkpt lat="35.0842573" lon="32.4886497">
<ele>29.74</ele>
<time>2015-04-24T19:03:24Z</time>
</trkpt>
<trkpt lat="35.0843030" lon="32.4886763">
<ele>29.83</ele>
<time>2015-04-24T19:03:25Z</time>
</trkpt>
<trkpt lat="35.0843420" lon="32.4887088">
<ele>29.88</ele>
<time>2015-04-24T19:03:26Z</time>
</trkpt>
<trkpt lat="35.0843883" lon="32.4887408">
<ele>29.90</ele>
<time>2015-04-24T19:03:27Z</time>
</trkpt>
<trkpt lat="35.0844384" lon="32.4887889">
<ele>29.91</ele>
<time>2015-04-24T19:03:28Z</time>
</trkpt>
<trkpt lat="35.0844815" lon="32.4888313">
<ele>29.42</ele>
<time>2015-04-24T19:03:29Z</time>
</trkpt>
<trkpt lat="35.0845279" lon="32.4888685">
<ele>29.67</ele>
<time>2015-04-24T19:03:30Z</time>
</trkpt>
<trkpt lat="35.0845714" lon="32.4889028">
<ele>29.80</ele>
<time>2015-04-24T19:03:31Z</time>
</trkpt>
<trkpt lat="35.0846194" lon="32.4889297">
<ele>29.36</ele>
<time>2015-04-24T19:03:32Z</time>
</trkpt>
<trkpt lat="35.0846655" lon="32.4889580">
<ele>29.14</ele>
<time>2015-04-24T19:03:33Z</time>
</trkpt>
<trkpt lat="35.0847066" lon="32.4889891">
<ele>29.53</ele>
<time>2015-04-24T19:03:34Z</time>
</trkpt>
<trkpt lat="35.0847534" lon="32.4890353">
<ele>29.73</ele>
<time>2015-04-24T19:03:35Z</time>
</trkpt>
<trkpt lat="35.0847948" lon="32.4890792">
<ele>29.83</ele>
<time>2015-04-24T19:03:36Z</time>
</trkpt>
<trkpt lat="35.0848308" lon="32.4891213">
<ele>29.88</ele>
<time>2015-04-24T19:03:37Z</time>
</trkpt>
<trkpt lat="35.0848725" lon="32.4891636">
<ele>29.40</ele>
<time>2015-04-24T19:03:38Z</time>
</trkpt>
<trkpt lat="35.0849099" lon="32.4892020">
<ele>29.16</ele>
<time>2015-04-24T19:03:39Z</time>
</trkpt>
<trkpt lat="35.0849482" lon="32.4892465">
<ele>28.54</ele>
<time>2015-04-24T19:03:40Z</time>
</trkpt>
<trkpt lat="35.0849911" lon="32.4892766">
<ele>28.73</ele>
<time>2015-04-24T19:03:41Z</time>
</trkpt>
<trkpt lat="35.0850408" lon="32.4893120">
<ele>28.83</ele>
<time>2015-04-24T19:03:42Z</time>
</trkpt>
<trkpt lat="35.0850654" lon="32.4893597">
<ele>28.38</ele>
<time>2015-04-24T19:03:43Z</time>
</trkpt>
<trkpt lat="35.0851034" lon="32.4894042">
<ele>28.15</ele>
<time>2015-04-24T19:03:44Z</time>
</trkpt>
<trkpt lat="35.0851540" lon="32.4894535">
<ele>28.04</ele>
<time>2015-04-24T19:03:45Z</time>
</trkpt>
<trkpt lat="35.0852049" lon="32.4894904">
<ele>27.98</ele>
<time>2015-04-24T19:03:46Z</time>
</trkpt>
<trkpt lat="35.0852572" lon="32.4895239">
<ele>27.95</ele>
<time>2015-04-24T19:03:47Z</time>
</trkpt>
<trkpt lat="35.0853091" lon="32.4895733">
<ele>27.94</ele>
<time>2015-04-24T19:03:48Z</time>
</trkpt>
<trkpt lat="35.0853510" lon="32.4896101">
<ele>27.43</ele>
<time>2015-04-24T19:03:49Z</time>
</trkpt>
<trkpt lat="35.0853970" lon="32.4896566">
<ele>27.68</ele>
<time>2015-04-24T19:03:50Z</time>
</trkpt>
<trkpt lat="35.0854390" lon="32.4896916">
<ele>27.80</ele>
<time>2015-04-24T19:03:51Z</time>
</trkpt>
<trkpt lat="35.0854914" lon="32.4897412">
<ele>27.86</ele>
<time>2015-04-24T19:03:52Z</time>
</trkpt>
<trkpt lat="35.0855560" lon="32.4898200">
<ele>26.66</ele>
<time>2015-04-24T19:03:54Z</time>
</trkpt>
<trkpt lat="35.0855970" lon="32.4898475">
<ele>26.29</ele>
<time>2015-04-24T19:03:55Z</time>
</trkpt>
<trkpt lat="35.0856460" lon="32.4898891">
<ele>27.11</ele>
<time>2015-04-24T19:03:56Z</time>
</trkpt>
<trkpt lat="35.0856918" lon="32.4899252">
<ele>27.52</ele>
<time>2015-04-24T19:03:57Z</time>
</trkpt>
<trkpt lat="35.0857408" lon="32.4899642">
<ele>27.72</ele>
<time>2015-04-24T19:03:58Z</time>
</trkpt>
<trkpt lat="35.0857803" lon="32.4900086">
<ele>27.82</ele>
<time>2015-04-24T19:03:59Z</time>
</trkpt>
<trkpt lat="35.0858148" lon="32.4900476">
<ele>27.87</ele>
<time>2015-04-24T19:04:00Z</time>
</trkpt>
<trkpt lat="35.0858635" lon="32.4900820">
<ele>28.40</ele>
<time>2015-04-24T19:04:01Z</time>
</trkpt>
<trkpt lat="35.0859094" lon="32.4901255">
<ele>28.66</ele>
<time>2015-04-24T19:04:02Z</time>
</trkpt>
<trkpt lat="35.0859538" lon="32.4901699">
<ele>28.79</ele>
<time>2015-04-24T19:04:03Z</time>
</trkpt>
<trkpt lat="35.0859982" lon="32.4902166">
<ele>28.86</ele>
<time>2015-04-24T19:04:04Z</time>
</trkpt>
<trkpt lat="35.0860386" lon="32.4902635">
<ele>29.39</ele>
<time>2015-04-24T19:04:05Z</time>
</trkpt>
<trkpt lat="35.0860812" lon="32.4903149">
<ele>29.16</ele>
<time>2015-04-24T19:04:06Z</time>
</trkpt>
<trkpt lat="35.0861236" lon="32.4903570">
<ele>29.04</ele>
<time>2015-04-24T19:04:07Z</time>
</trkpt>
<trkpt lat="35.0861681" lon="32.4904019">
<ele>28.98</ele>
<time>2015-04-24T19:04:08Z</time>
</trkpt>
<trkpt lat="35.0862162" lon="32.4904380">
<ele>28.45</ele>
<time>2015-04-24T19:04:09Z</time>
</trkpt>
<trkpt lat="35.0862647" lon="32.4904800">
<ele>28.19</ele>
<time>2015-04-24T19:04:10Z</time>
</trkpt>
<trkpt lat="35.0863032" lon="32.4905207">
<ele>28.06</ele>
<time>2015-04-24T19:04:11Z</time>
</trkpt>
<trkpt lat="35.0863531" lon="32.4905509">
<ele>27.99</ele>
<time>2015-04-24T19:04:12Z</time>
</trkpt>
<trkpt lat="35.0864007" lon="32.4905949">
<ele>27.96</ele>
<time>2015-04-24T19:04:13Z</time>
</trkpt>
<trkpt lat="35.0864421" lon="32.4906349">
<ele>27.94</ele>
<time>2015-04-24T19:04:14Z</time>
</trkpt>
<trkpt lat="35.0864890" lon="32.4906802">
<ele>27.93</ele>
<time>2015-04-24T19:04:15Z</time>
</trkpt>
<trkpt lat="35.0865334" lon="32.4907224">
<ele>27.93</ele>
<time>2015-04-24T19:04:16Z</time>
</trkpt>
<trkpt lat="35.0865811" lon="32.4907573">
<ele>27.93</ele>
<time>2015-04-24T19:04:17Z</time>
</trkpt>
<trkpt lat="35.0866255" lon="32.4907915">
<ele>28.43</ele>
<time>2015-04-24T19:04:18Z</time>
</trkpt>
<trkpt lat="35.0866745" lon="32.4908212">
<ele>28.18</ele>
<time>2015-04-24T19:04:19Z</time>
</trkpt>
<trkpt lat="35.0867265" lon="32.4908592">
<ele>28.05</ele>
<time>2015-04-24T19:04:20Z</time>
</trkpt>
<trkpt lat="35.0867822" lon="32.4908795">
<ele>28.49</ele>
<time>2015-04-24T19:04:21Z</time>
</trkpt>
<trkpt lat="35.0868287" lon="32.4909200">
<ele>28.71</ele>
<time>2015-04-24T19:04:22Z</time>
</trkpt>
<trkpt lat="35.0869180" lon="32.4909914">
<ele>28.12</ele>
<time>2015-04-24T19:04:24Z</time>
</trkpt>
<trkpt lat="35.0869656" lon="32.4910337">
<ele>28.02</ele>
<time>2015-04-24T19:04:25Z</time>
</trkpt>
<trkpt lat="35.0870179" lon="32.4910770">
<ele>27.97</ele>
<time>2015-04-24T19:04:26Z</time>
</trkpt>
<trkpt lat="35.0870678" lon="32.4911142">
<ele>27.95</ele>
<time>2015-04-24T19:04:27Z</time>
</trkpt>
<trkpt lat="35.0871268" lon="32.4911493">
<ele>27.94</ele>
<time>2015-04-24T19:04:28Z</time>
</trkpt>
<trkpt lat="35.0871789" lon="32.4911848">
<ele>27.93</ele>
<time>2015-04-24T19:04:29Z</time>
</trkpt>
<trkpt lat="35.0872273" lon="32.4912196">
<ele>27.93</ele>
<time>2015-04-24T19:04:30Z</time>
</trkpt>
<trkpt lat="35.0872806" lon="32.4912547">
<ele>27.43</ele>
<time>2015-04-24T19:04:31Z</time>
</trkpt>
<trkpt lat="35.0873349" lon="32.4912812">
<ele>27.18</ele>
<time>2015-04-24T19:04:32Z</time>
</trkpt>
<trkpt lat="35.0873884" lon="32.4913179">
<ele>27.55</ele>
<time>2015-04-24T19:04:33Z</time>
</trkpt>
<trkpt lat="35.0874339" lon="32.4913568">
<ele>27.74</ele>
<time>2015-04-24T19:04:34Z</time>
</trkpt>
<trkpt lat="35.0874780" lon="32.4913991">
<ele>27.33</ele>
<time>2015-04-24T19:04:35Z</time>
</trkpt>
<trkpt lat="35.0875286" lon="32.4914388">
<ele>27.13</ele>
<time>2015-04-24T19:04:36Z</time>
</trkpt>
<trkpt lat="35.0875784" lon="32.4914716">
<ele>27.03</ele>
<time>2015-04-24T19:04:37Z</time>
</trkpt>
<trkpt lat="35.0876225" lon="32.4914995">
<ele>26.98</ele>
<time>2015-04-24T19:04:38Z</time>
</trkpt>
<trkpt lat="35.0876651" lon="32.4915366">
<ele>27.45</ele>
<time>2015-04-24T19:04:39Z</time>
</trkpt>
<trkpt lat="35.0877119" lon="32.4915693">
<ele>27.19</ele>
<time>2015-04-24T19:04:40Z</time>
</trkpt>
<trkpt lat="35.0877925" lon="32.4916366">
<ele>26.74</ele>
<time>2015-04-24T19:04:42Z</time>
</trkpt>
<trkpt lat="35.0878400" lon="32.4916610">
<ele>26.83</ele>
<time>2015-04-24T19:04:43Z</time>
</trkpt>
<trkpt lat="35.0878846" lon="32.4917019">
<ele>26.38</ele>
<time>2015-04-24T19:04:44Z</time>
</trkpt>
<trkpt lat="35.0879336" lon="32.4917352">
<ele>26.15</ele>
<time>2015-04-24T19:04:45Z</time>
</trkpt>
<trkpt lat="35.0879713" lon="32.4917702">
<ele>26.04</ele>
<time>2015-04-24T19:04:46Z</time>
</trkpt>
<trkpt lat="35.0880231" lon="32.4917994">
<ele>25.98</ele>
<time>2015-04-24T19:04:47Z</time>
</trkpt>
<trkpt lat="35.0880727" lon="32.4918412">
<ele>25.95</ele>
<time>2015-04-24T19:04:48Z</time>
</trkpt>
<trkpt lat="35.0881274" lon="32.4918682">
<ele>25.94</ele>
<time>2015-04-24T19:04:49Z</time>
</trkpt>
<trkpt lat="35.0881749" lon="32.4919016">
<ele>25.93</ele>
<time>2015-04-24T19:04:50Z</time>
</trkpt>
<trkpt lat="35.0882214" lon="32.4919401">
<ele>25.93</ele>
<time>2015-04-24T19:04:51Z</time>
</trkpt>
<trkpt lat="35.0882714" lon="32.4919740">
<ele>25.93</ele>
<time>2015-04-24T19:04:52Z</time>
</trkpt>
<trkpt lat="35.0883179" lon="32.4920112">
<ele>26.43</ele>
<time>2015-04-24T19:04:53Z</time>
</trkpt>
<trkpt lat="35.0883685" lon="32.4920477">
<ele>26.68</ele>
<time>2015-04-24T19:04:54Z</time>
</trkpt>
<trkpt lat="35.0884422" lon="32.4921168">
<ele>26.86</ele>
<time>2015-04-24T19:04:56Z</time>
</trkpt>
<trkpt lat="35.0884892" lon="32.4921457">
<ele>26.39</ele>
<time>2015-04-24T19:04:57Z</time>
</trkpt>
<trkpt lat="35.0885282" lon="32.4921804">
<ele>26.66</ele>
<time>2015-04-24T19:04:58Z</time>
</trkpt>
<trkpt lat="35.0886102" lon="32.4922560">
<ele>26.86</ele>
<time>2015-04-24T19:05:00Z</time>
</trkpt>
<trkpt lat="35.0886577" lon="32.4922906">
<ele>26.89</ele>
<time>2015-04-24T19:05:01Z</time>
</trkpt>
<trkpt lat="35.0887020" lon="32.4923163">
<ele>26.91</ele>
<time>2015-04-24T19:05:02Z</time>
</trkpt>
<trkpt lat="35.0887623" lon="32.4923769">
<ele>26.17</ele>
<time>2015-04-24T19:05:04Z</time>
</trkpt>
<trkpt lat="35.0888031" lon="32.4924128">
<ele>26.05</ele>
<time>2015-04-24T19:05:05Z</time>
</trkpt>
<trkpt lat="35.0888750" lon="32.4924849">
<ele>26.71</ele>
<time>2015-04-24T19:05:07Z</time>
</trkpt>
<trkpt lat="35.0889164" lon="32.4925301">
<ele>26.82</ele>
<time>2015-04-24T19:05:08Z</time>
</trkpt>
<trkpt lat="35.0889649" lon="32.4925615">
<ele>26.87</ele>
<time>2015-04-24T19:05:09Z</time>
</trkpt>
<trkpt lat="35.0890127" lon="32.4926109">
<ele>26.90</ele>
<time>2015-04-24T19:05:10Z</time>
</trkpt>
<trkpt lat="35.0890607" lon="32.4926454">
<ele>27.41</ele>
<time>2015-04-24T19:05:11Z</time>
</trkpt>
<trkpt lat="35.0891066" lon="32.4926835">
<ele>27.17</ele>
<time>2015-04-24T19:05:12Z</time>
</trkpt>
<trkpt lat="35.0891494" lon="32.4927206">
<ele>27.05</ele>
<time>2015-04-24T19:05:13Z</time>
</trkpt>
<trkpt lat="35.0891958" lon="32.4927478">
<ele>26.49</ele>
<time>2015-04-24T19:05:14Z</time>
</trkpt>
<trkpt lat="35.0892651" lon="32.4928290">
<ele>26.07</ele>
<time>2015-04-24T19:05:16Z</time>
</trkpt>
<trkpt lat="35.0892980" lon="32.4928720">
<ele>27.00</ele>
<time>2015-04-24T19:05:17Z</time>
</trkpt>
<trkpt lat="35.0893349" lon="32.4929070">
<ele>27.96</ele>
<time>2015-04-24T19:05:18Z</time>
</trkpt>
<trkpt lat="35.0893803" lon="32.4929405">
<ele>28.94</ele>
<time>2015-04-24T19:05:19Z</time>
</trkpt>
<trkpt lat="35.0894160" lon="32.4929827">
<ele>28.93</ele>
<time>2015-04-24T19:05:20Z</time>
</trkpt>
<trkpt lat="35.0894602" lon="32.4930255">
<ele>28.93</ele>
<time>2015-04-24T19:05:21Z</time>
</trkpt>
<trkpt lat="35.0895075" lon="32.4930643">
<ele>28.93</ele>
<time>2015-04-24T19:05:22Z</time>
</trkpt>
<trkpt lat="35.0895521" lon="32.4931020">
<ele>28.93</ele>
<time>2015-04-24T19:05:23Z</time>
</trkpt>
<trkpt lat="35.0896026" lon="32.4931274">
<ele>29.43</ele>
<time>2015-04-24T19:05:24Z</time>
</trkpt>
<trkpt lat="35.0896415" lon="32.4931611">
<ele>30.18</ele>
<time>2015-04-24T19:05:25Z</time>
</trkpt>
<trkpt lat="35.0896862" lon="32.4931878">
<ele>30.55</ele>
<time>2015-04-24T19:05:26Z</time>
</trkpt>
<trkpt lat="35.0897302" lon="32.4932231">
<ele>30.74</ele>
<time>2015-04-24T19:05:27Z</time>
</trkpt>
<trkpt lat="35.0897704" lon="32.4932649">
<ele>30.83</ele>
<time>2015-04-24T19:05:28Z</time>
</trkpt>
<trkpt lat="35.0898124" lon="32.4933047">
<ele>30.38</ele>
<time>2015-04-24T19:05:29Z</time>
</trkpt>
<trkpt lat="35.0898551" lon="32.4933324">
<ele>30.65</ele>
<time>2015-04-24T19:05:30Z</time>
</trkpt>
<trkpt lat="35.0898942" lon="32.4933695">
<ele>30.79</ele>
<time>2015-04-24T19:05:31Z</time>
</trkpt>
<trkpt lat="35.0899352" lon="32.4934063">
<ele>30.36</ele>
<time>2015-04-24T19:05:32Z</time>
</trkpt>
<trkpt lat="35.0899834" lon="32.4934457">
<ele>30.14</ele>
<time>2015-04-24T19:05:33Z</time>
</trkpt>
<trkpt lat="35.0900186" lon="32.4934909">
<ele>30.53</ele>
<time>2015-04-24T19:05:34Z</time>
</trkpt>
<trkpt lat="35.0900660" lon="32.4935313">
<ele>30.73</ele>
<time>2015-04-24T19:05:35Z</time>
</trkpt>
<trkpt lat="35.0901107" lon="32.4935735">
<ele>30.83</ele>
<time>2015-04-24T19:05:36Z</time>
</trkpt>
<trkpt lat="35.0901534" lon="32.4936254">
<ele>31.38</ele>
<time>2015-04-24T19:05:37Z</time>
</trkpt>
<trkpt lat="35.0901968" lon="32.4936724">
<ele>31.15</ele>
<time>2015-04-24T19:05:38Z</time>
</trkpt>
<trkpt lat="35.0902353" lon="32.4937147">
<ele>31.04</ele>
<time>2015-04-24T19:05:39Z</time>
</trkpt>
<trkpt lat="35.0902835" lon="32.4937546">
<ele>30.98</ele>
<time>2015-04-24T19:05:40Z</time>
</trkpt>
<trkpt lat="35.0903286" lon="32.4937924">
<ele>30.95</ele>
<time>2015-04-24T19:05:41Z</time>
</trkpt>
<trkpt lat="35.0903722" lon="32.4938335">
<ele>30.94</ele>
<time>2015-04-24T19:05:42Z</time>
</trkpt>
<trkpt lat="35.0904178" lon="32.4938713">
<ele>30.43</ele>
<time>2015-04-24T19:05:43Z</time>
</trkpt>
<trkpt lat="35.0904649" lon="32.4939131">
<ele>30.18</ele>
<time>2015-04-24T19:05:44Z</time>
</trkpt>
<trkpt lat="35.0905375" lon="32.4939931">
<ele>29.99</ele>
<time>2015-04-24T19:05:46Z</time>
</trkpt>
<trkpt lat="35.0905783" lon="32.4940401">
<ele>29.46</ele>
<time>2015-04-24T19:05:47Z</time>
</trkpt>
<trkpt lat="35.0906210" lon="32.4940809">
<ele>29.19</ele>
<time>2015-04-24T19:05:48Z</time>
</trkpt>
<trkpt lat="35.0906577" lon="32.4941252">
<ele>28.56</ele>
<time>2015-04-24T19:05:49Z</time>
</trkpt>
<trkpt lat="35.0906975" lon="32.4941632">
<ele>28.24</ele>
<time>2015-04-24T19:05:50Z</time>
</trkpt>
<trkpt lat="35.0907406" lon="32.4942000">
<ele>28.08</ele>
<time>2015-04-24T19:05:51Z</time>
</trkpt>
<trkpt lat="35.0907839" lon="32.4942392">
<ele>28.00</ele>
<time>2015-04-24T19:05:52Z</time>
</trkpt>
<trkpt lat="35.0908354" lon="32.4942848">
<ele>27.96</ele>
<time>2015-04-24T19:05:53Z</time>
</trkpt>
<trkpt lat="35.0908797" lon="32.4943264">
<ele>27.94</ele>
<time>2015-04-24T19:05:54Z</time>
</trkpt>
<trkpt lat="35.0909314" lon="32.4943635">
<ele>27.43</ele>
<time>2015-04-24T19:05:55Z</time>
</trkpt>
<trkpt lat="35.0909785" lon="32.4944074">
<ele>27.68</ele>
<time>2015-04-24T19:05:56Z</time>
</trkpt>
<trkpt lat="35.0910252" lon="32.4944565">
<ele>27.30</ele>
<time>2015-04-24T19:05:57Z</time>
</trkpt>
<trkpt lat="35.0910721" lon="32.4945002">
<ele>27.11</ele>
<time>2015-04-24T19:05:58Z</time>
</trkpt>
<trkpt lat="35.0911126" lon="32.4945399">
<ele>27.52</ele>
<time>2015-04-24T19:05:59Z</time>
</trkpt>
<trkpt lat="35.0911587" lon="32.4945813">
<ele>27.72</ele>
<time>2015-04-24T19:06:00Z</time>
</trkpt>
<trkpt lat="35.0911947" lon="32.4946178">
<ele>27.32</ele>
<time>2015-04-24T19:06:01Z</time>
</trkpt>
<trkpt lat="35.0912374" lon="32.4946604">
<ele>27.12</ele>
<time>2015-04-24T19:06:02Z</time>
</trkpt>
<trkpt lat="35.0912761" lon="32.4946948">
<ele>27.02</ele>
<time>2015-04-24T19:06:03Z</time>
</trkpt>
<trkpt lat="35.0913182" lon="32.4947326">
<ele>26.97</ele>
<time>2015-04-24T19:06:04Z</time>
</trkpt>
<trkpt lat="35.0913514" lon="32.4947703">
<ele>26.45</ele>
<time>2015-04-24T19:06:05Z</time>
</trkpt>
<trkpt lat="35.0913900" lon="32.4948050">
<ele>26.19</ele>
<time>2015-04-24T19:06:06Z</time>
</trkpt>
<trkpt lat="35.0914496" lon="32.4948720">
<ele>24.49</ele>
<time>2015-04-24T19:06:08Z</time>
</trkpt>
<trkpt lat="35.0915121" lon="32.4949188">
<ele>24.07</ele>
<time>2015-04-24T19:06:10Z</time>
</trkpt>
<trkpt lat="35.0915719" lon="32.4949737">
<ele>23.96</ele>
<time>2015-04-24T19:06:12Z</time>
</trkpt>
<trkpt lat="35.0916241" lon="32.4950278">
<ele>23.18</ele>
<time>2015-04-24T19:06:14Z</time>
</trkpt>
<trkpt lat="35.0916600" lon="32.4950624">
<ele>23.05</ele>
<time>2015-04-24T19:06:15Z</time>
</trkpt>
<trkpt lat="35.0917304" lon="32.4951204">
<ele>22.96</ele>
<time>2015-04-24T19:06:17Z</time>
</trkpt>
<trkpt lat="35.0918049" lon="32.4951939">
<ele>22.93</ele>
<time>2015-04-24T19:06:19Z</time>
</trkpt>
<trkpt lat="35.0918448" lon="32.4952304">
<ele>22.93</ele>
<time>2015-04-24T19:06:20Z</time>
</trkpt>
<trkpt lat="35.0918907" lon="32.4952561">
<ele>22.43</ele>
<time>2015-04-24T19:06:21Z</time>
</trkpt>
<trkpt lat="35.0919303" lon="32.4952897">
<ele>22.18</ele>
<time>2015-04-24T19:06:22Z</time>
</trkpt>
<trkpt lat="35.0920011" lon="32.4953522">
<ele>21.99</ele>
<time>2015-04-24T19:06:24Z</time>
</trkpt>
<trkpt lat="35.0920673" lon="32.4954113">
<ele>21.94</ele>
<time>2015-04-24T19:06:26Z</time>
</trkpt>
<trkpt lat="35.0921337" lon="32.4954728">
<ele>21.93</ele>
<time>2015-04-24T19:06:28Z</time>
</trkpt>
<trkpt lat="35.0921774" lon="32.4955085">
<ele>21.93</ele>
<time>2015-04-24T19:06:29Z</time>
</trkpt>
<trkpt lat="35.0922180" lon="32.4955429">
<ele>21.93</ele>
<time>2015-04-24T19:06:30Z</time>
</trkpt>
<trkpt lat="35.0922589" lon="32.4955724">
<ele>21.93</ele>
<time>2015-04-24T19:06:31Z</time>
</trkpt>
<trkpt lat="35.0923025" lon="32.4956095">
<ele>21.93</ele>
<time>2015-04-24T19:06:32Z</time>
</trkpt>
<trkpt lat="35.0923518" lon="32.4956445">
<ele>22.43</ele>
<time>2015-04-24T19:06:33Z</time>
</trkpt>
<trkpt lat="35.0923966" lon="32.4956806">
<ele>22.68</ele>
<time>2015-04-24T19:06:34Z</time>
</trkpt>
<trkpt lat="35.0924520" lon="32.4957186">
<ele>22.80</ele>
<time>2015-04-24T19:06:35Z</time>
</trkpt>
<trkpt lat="35.0924998" lon="32.4957561">
<ele>22.86</ele>
<time>2015-04-24T19:06:36Z</time>
</trkpt>
<trkpt lat="35.0925439" lon="32.4957869">
<ele>22.89</ele>
<time>2015-04-24T19:06:37Z</time>
</trkpt>
<trkpt lat="35.0925850" lon="32.4958244">
<ele>22.91</ele>
<time>2015-04-24T19:06:38Z</time>
</trkpt>
<trkpt lat="35.0926626" lon="32.4958907">
<ele>22.17</ele>
<time>2015-04-24T19:06:40Z</time>
</trkpt>
<trkpt lat="35.0927049" lon="32.4959216">
<ele>22.05</ele>
<time>2015-04-24T19:06:41Z</time>
</trkpt>
<trkpt lat="35.0927495" lon="32.4959548">
<ele>21.99</ele>
<time>2015-04-24T19:06:42Z</time>
</trkpt>
<trkpt lat="35.0927857" lon="32.4959961">
<ele>21.96</ele>
<time>2015-04-24T19:06:43Z</time>
</trkpt>
<trkpt lat="35.0928271" lon="32.4960326">
<ele>21.94</ele>
<time>2015-04-24T19:06:44Z</time>
</trkpt>
<trkpt lat="35.0928683" lon="32.4960694">
<ele>21.93</ele>
<time>2015-04-24T19:06:45Z</time>
</trkpt>
<trkpt lat="35.0929098" lon="32.4961054">
<ele>21.93</ele>
<time>2015-04-24T19:06:46Z</time>
</trkpt>
<trkpt lat="35.0929531" lon="32.4961449">
<ele>21.43</ele>
<time>2015-04-24T19:06:47Z</time>
</trkpt>
<trkpt lat="35.0929987" lon="32.4961836">
<ele>21.18</ele>
<time>2015-04-24T19:06:48Z</time>
</trkpt>
<trkpt lat="35.0930437" lon="32.4962129">
<ele>21.05</ele>
<time>2015-04-24T19:06:49Z</time>
</trkpt>
<trkpt lat="35.0930871" lon="32.4962450">
<ele>20.99</ele>
<time>2015-04-24T19:06:50Z</time>
</trkpt>
<trkpt lat="35.0931223" lon="32.4962880">
<ele>20.96</ele>
<time>2015-04-24T19:06:51Z</time>
</trkpt>
<trkpt lat="35.0931647" lon="32.4963246">
<ele>20.94</ele>
<time>2015-04-24T19:06:52Z</time>
</trkpt>
<trkpt lat="35.0932083" lon="32.4963618">
<ele>21.43</ele>
<time>2015-04-24T19:06:53Z</time>
</trkpt>
<trkpt lat="35.0932518" lon="32.4963979">
<ele>21.68</ele>
<time>2015-04-24T19:06:54Z</time>
</trkpt>
<trkpt lat="35.0932971" lon="32.4964295">
<ele>21.30</ele>
<time>2015-04-24T19:06:55Z</time>
</trkpt>
<trkpt lat="35.0933433" lon="32.4964674">
<ele>21.61</ele>
<time>2015-04-24T19:06:56Z</time>
</trkpt>
<trkpt lat="35.0933919" lon="32.4965023">
<ele>21.77</ele>
<time>2015-04-24T19:06:57Z</time>
</trkpt>
<trkpt lat="35.0934372" lon="32.4965409">
<ele>21.85</ele>
<time>2015-04-24T19:06:58Z</time>
</trkpt>
<trkpt lat="35.0934756" lon="32.4965776">
<ele>21.89</ele>
<time>2015-04-24T19:06:59Z</time>
</trkpt>
<trkpt lat="35.0935206" lon="32.4966143">
<ele>21.91</ele>
<time>2015-04-24T19:07:00Z</time>
</trkpt>
<trkpt lat="35.0935692" lon="32.4966431">
<ele>21.92</ele>
<time>2015-04-24T19:07:01Z</time>
</trkpt>
<trkpt lat="35.0936131" lon="32.4966786">
<ele>21.92</ele>
<time>2015-04-24T19:07:02Z</time>
</trkpt>
<trkpt lat="35.0936551" lon="32.4967238">
<ele>21.92</ele>
<time>2015-04-24T19:07:03Z</time>
</trkpt>
<trkpt lat="35.0936987" lon="32.4967602">
<ele>21.92</ele>
<time>2015-04-24T19:07:04Z</time>
</trkpt>
<trkpt lat="35.0937692" lon="32.4968326">
<ele>21.17</ele>
<time>2015-04-24T19:07:06Z</time>
</trkpt>
<trkpt lat="35.0938173" lon="32.4968766">
<ele>21.05</ele>
<time>2015-04-24T19:07:07Z</time>
</trkpt>
<trkpt lat="35.0938613" lon="32.4969118">
<ele>20.99</ele>
<time>2015-04-24T19:07:08Z</time>
</trkpt>
<trkpt lat="35.0939077" lon="32.4969454">
<ele>20.96</ele>
<time>2015-04-24T19:07:09Z</time>
</trkpt>
<trkpt lat="35.0939532" lon="32.4969785">
<ele>20.94</ele>
<time>2015-04-24T19:07:10Z</time>
</trkpt>
<trkpt lat="35.0940031" lon="32.4970105">
<ele>20.93</ele>
<time>2015-04-24T19:07:11Z</time>
</trkpt>
<trkpt lat="35.0940492" lon="32.4970444">
<ele>20.93</ele>
<time>2015-04-24T19:07:12Z</time>
</trkpt>
<trkpt lat="35.0940957" lon="32.4970725">
<ele>20.93</ele>
<time>2015-04-24T19:07:13Z</time>
</trkpt>
<trkpt lat="35.0941444" lon="32.4970987">
<ele>20.93</ele>
<time>2015-04-24T19:07:14Z</time>
</trkpt>
<trkpt lat="35.0941907" lon="32.4971338">
<ele>20.93</ele>
<time>2015-04-24T19:07:15Z</time>
</trkpt>
<trkpt lat="35.0942403" lon="32.4971643">
<ele>20.93</ele>
<time>2015-04-24T19:07:16Z</time>
</trkpt>
<trkpt lat="35.0942869" lon="32.4971818">
<ele>20.93</ele>
<time>2015-04-24T19:07:17Z</time>
</trkpt>
<trkpt lat="35.0943323" lon="32.4972096">
<ele>20.93</ele>
<time>2015-04-24T19:07:18Z</time>
</trkpt>
<trkpt lat="35.0943840" lon="32.4972414">
<ele>21.43</ele>
<time>2015-04-24T19:07:19Z</time>
</trkpt>
<trkpt lat="35.0944342" lon="32.4972695">
<ele>21.68</ele>
<time>2015-04-24T19:07:20Z</time>
</trkpt>
<trkpt lat="35.0944810" lon="32.4972950">
<ele>21.80</ele>
<time>2015-04-24T19:07:21Z</time>
</trkpt>
<trkpt lat="35.0945316" lon="32.4973212">
<ele>21.86</ele>
<time>2015-04-24T19:07:22Z</time>
</trkpt>
<trkpt lat="35.0945752" lon="32.4973471">
<ele>21.89</ele>
<time>2015-04-24T19:07:23Z</time>
</trkpt>
<trkpt lat="35.0946229" lon="32.4973746">
<ele>21.91</ele>
<time>2015-04-24T19:07:24Z</time>
</trkpt>
<trkpt lat="35.0947046" lon="32.4974251">
<ele>21.92</ele>
<time>2015-04-24T19:07:26Z</time>
</trkpt>
<trkpt lat="35.0947508" lon="32.4974530">
<ele>22.42</ele>
<time>2015-04-24T19:07:27Z</time>
</trkpt>
<trkpt lat="35.0947983" lon="32.4974772">
<ele>22.67</ele>
<time>2015-04-24T19:07:28Z</time>
</trkpt>
<trkpt lat="35.0948451" lon="32.4975038">
<ele>22.30</ele>
<time>2015-04-24T19:07:29Z</time>
</trkpt>
<trkpt lat="35.0948957" lon="32.4975317">
<ele>22.11</ele>
<time>2015-04-24T19:07:30Z</time>
</trkpt>
<trkpt lat="35.0949472" lon="32.4975708">
<ele>22.02</ele>
<time>2015-04-24T19:07:31Z</time>
</trkpt>
<trkpt lat="35.0950004" lon="32.4976010">
<ele>21.47</ele>
<time>2015-04-24T19:07:32Z</time>
</trkpt>
<trkpt lat="35.0950473" lon="32.4976258">
<ele>21.20</ele>
<time>2015-04-24T19:07:33Z</time>
</trkpt>
<trkpt lat="35.0950974" lon="32.4976536">
<ele>21.06</ele>
<time>2015-04-24T19:07:34Z</time>
</trkpt>
<trkpt lat="35.0951516" lon="32.4976868">
<ele>20.49</ele>
<time>2015-04-24T19:07:35Z</time>
</trkpt>
<trkpt lat="35.0952047" lon="32.4977161">
<ele>20.21</ele>
<time>2015-04-24T19:07:36Z</time>
</trkpt>
<trkpt lat="35.0952583" lon="32.4977313">
<ele>20.07</ele>
<time>2015-04-24T19:07:37Z</time>
</trkpt>
<trkpt lat="35.0953167" lon="32.4977666">
<ele>20.00</ele>
<time>2015-04-24T19:07:38Z</time>
</trkpt>
<trkpt lat="35.0953679" lon="32.4977914">
<ele>19.96</ele>
<time>2015-04-24T19:07:39Z</time>
</trkpt>
<trkpt lat="35.0954208" lon="32.4978201">
<ele>19.94</ele>
<time>2015-04-24T19:07:40Z</time>
</trkpt>
<trkpt lat="35.0955038" lon="32.4978726">
<ele>19.93</ele>
<time>2015-04-24T19:07:42Z</time>
</trkpt>
<trkpt lat="35.0955496" lon="32.4979020">
<ele>19.93</ele>
<time>2015-04-24T19:07:43Z</time>
</trkpt>
<trkpt lat="35.0956005" lon="32.4979334">
<ele>19.93</ele>
<time>2015-04-24T19:07:44Z</time>
</trkpt>
<trkpt lat="35.0956573" lon="32.4979540">
<ele>19.93</ele>
<time>2015-04-24T19:07:45Z</time>
</trkpt>
<trkpt lat="35.0957112" lon="32.4979839">
<ele>19.93</ele>
<time>2015-04-24T19:07:46Z</time>
</trkpt>
<trkpt lat="35.0957704" lon="32.4980246">
<ele>20.43</ele>
<time>2015-04-24T19:07:47Z</time>
</trkpt>
<trkpt lat="35.0958245" lon="32.4980573">
<ele>20.68</ele>
<time>2015-04-24T19:07:48Z</time>
</trkpt>
<trkpt lat="35.0958696" lon="32.4980919">
<ele>20.30</ele>
<time>2015-04-24T19:07:49Z</time>
</trkpt>
<trkpt lat="35.0959189" lon="32.4981235">
<ele>20.11</ele>
<time>2015-04-24T19:07:50Z</time>
</trkpt>
<trkpt lat="35.0959758" lon="32.4981485">
<ele>20.02</ele>
<time>2015-04-24T19:07:51Z</time>
</trkpt>
<trkpt lat="35.0960273" lon="32.4981802">
<ele>19.47</ele>
<time>2015-04-24T19:07:52Z</time>
</trkpt>
<trkpt lat="35.0960801" lon="32.4982124">
<ele>19.20</ele>
<time>2015-04-24T19:07:53Z</time>
</trkpt>
<trkpt lat="35.0961424" lon="32.4982492">
<ele>19.56</ele>
<time>2015-04-24T19:07:54Z</time>
</trkpt>
<trkpt lat="35.0961982" lon="32.4982888">
<ele>19.24</ele>
<time>2015-04-24T19:07:55Z</time>
</trkpt>
<trkpt lat="35.0962481" lon="32.4983234">
<ele>19.08</ele>
<time>2015-04-24T19:07:56Z</time>
</trkpt>
<trkpt lat="35.0962982" lon="32.4983530">
<ele>19.50</ele>
<time>2015-04-24T19:07:57Z</time>
</trkpt>
<trkpt lat="35.0963470" lon="32.4983839">
<ele>19.71</ele>
<time>2015-04-24T19:07:58Z</time>
</trkpt>
<trkpt lat="35.0963976" lon="32.4984162">
<ele>19.82</ele>
<time>2015-04-24T19:07:59Z</time>
</trkpt>
<trkpt lat="35.0964456" lon="32.4984470">
<ele>19.87</ele>
<time>2015-04-24T19:08:00Z</time>
</trkpt>
<trkpt lat="35.0964945" lon="32.4984810">
<ele>19.90</ele>
<time>2015-04-24T19:08:01Z</time>
</trkpt>
<trkpt lat="35.0965405" lon="32.4985077">
<ele>19.91</ele>
<time>2015-04-24T19:08:02Z</time>
</trkpt>
<trkpt lat="35.0965949" lon="32.4985434">
<ele>19.92</ele>
<time>2015-04-24T19:08:03Z</time>
</trkpt>
<trkpt lat="35.0966413" lon="32.4985790">
<ele>19.92</ele>
<time>2015-04-24T19:08:04Z</time>
</trkpt>
<trkpt lat="35.0966885" lon="32.4986166">
<ele>19.92</ele>
<time>2015-04-24T19:08:05Z</time>
</trkpt>
<trkpt lat="35.0967365" lon="32.4986530">
<ele>19.92</ele>
<time>2015-04-24T19:08:06Z</time>
</trkpt>
<trkpt lat="35.0967932" lon="32.4986861">
<ele>19.92</ele>
<time>2015-04-24T19:08:07Z</time>
</trkpt>
<trkpt lat="35.0968475" lon="32.4987220">
<ele>19.92</ele>
<time>2015-04-24T19:08:08Z</time>
</trkpt>
<trkpt lat="35.0968908" lon="32.4987551">
<ele>19.92</ele>
<time>2015-04-24T19:08:09Z</time>
</trkpt>
<trkpt lat="35.0969406" lon="32.4987869">
<ele>19.92</ele>
<time>2015-04-24T19:08:10Z</time>
</trkpt>
<trkpt lat="35.0969855" lon="32.4988202">
<ele>19.92</ele>
<time>2015-04-24T19:08:11Z</time>
</trkpt>
<trkpt lat="35.0970340" lon="32.4988564">
<ele>19.92</ele>
<time>2015-04-24T19:08:12Z</time>
</trkpt>
<trkpt lat="35.0970816" lon="32.4988871">
<ele>19.92</ele>
<time>2015-04-24T19:08:13Z</time>
</trkpt>
<trkpt lat="35.0971293" lon="32.4989171">
<ele>19.92</ele>
<time>2015-04-24T19:08:14Z</time>
</trkpt>
<trkpt lat="35.0971728" lon="32.4989622">
<ele>19.92</ele>
<time>2015-04-24T19:08:15Z</time>
</trkpt>
<trkpt lat="35.0972205" lon="32.4989979">
<ele>19.92</ele>
<time>2015-04-24T19:08:16Z</time>
</trkpt>
<trkpt lat="35.0972679" lon="32.4990222">
<ele>19.92</ele>
<time>2015-04-24T19:08:17Z</time>
</trkpt>
<trkpt lat="35.0973156" lon="32.4990533">
<ele>19.42</ele>
<time>2015-04-24T19:08:18Z</time>
</trkpt>
<trkpt lat="35.0973645" lon="32.4990939">
<ele>19.67</ele>
<time>2015-04-24T19:08:19Z</time>
</trkpt>
<trkpt lat="35.0974109" lon="32.4991291">
<ele>19.30</ele>
<time>2015-04-24T19:08:20Z</time>
</trkpt>
<trkpt lat="35.0974593" lon="32.4991668">
<ele>19.11</ele>
<time>2015-04-24T19:08:21Z</time>
</trkpt>
<trkpt lat="35.0975090" lon="32.4992031">
<ele>19.02</ele>
<time>2015-04-24T19:08:22Z</time>
</trkpt>
<trkpt lat="35.0975615" lon="32.4992335">
<ele>19.47</ele>
<time>2015-04-24T19:08:23Z</time>
</trkpt>
<trkpt lat="35.0976151" lon="32.4992687">
<ele>19.70</ele>
<time>2015-04-24T19:08:24Z</time>
</trkpt>
<trkpt lat="35.0976636" lon="32.4993037">
<ele>19.81</ele>
<time>2015-04-24T19:08:25Z</time>
</trkpt>
<trkpt lat="35.0977152" lon="32.4993410">
<ele>19.87</ele>
<time>2015-04-24T19:08:26Z</time>
</trkpt>
<trkpt lat="35.0977676" lon="32.4993800">
<ele>19.90</ele>
<time>2015-04-24T19:08:27Z</time>
</trkpt>
<trkpt lat="35.0978156" lon="32.4994148">
<ele>19.91</ele>
<time>2015-04-24T19:08:28Z</time>
</trkpt>
<trkpt lat="35.0978696" lon="32.4994526">
<ele>19.92</ele>
<time>2015-04-24T19:08:29Z</time>
</trkpt>
<trkpt lat="35.0979219" lon="32.4994883">
<ele>19.92</ele>
<time>2015-04-24T19:08:30Z</time>
</trkpt>
<trkpt lat="35.0979724" lon="32.4995258">
<ele>20.42</ele>
<time>2015-04-24T19:08:31Z</time>
</trkpt>
<trkpt lat="35.0980228" lon="32.4995655">
<ele>20.67</ele>
<time>2015-04-24T19:08:32Z</time>
</trkpt>
<trkpt lat="35.0980752" lon="32.4996011">
<ele>20.30</ele>
<time>2015-04-24T19:08:33Z</time>
</trkpt>
<trkpt lat="35.0981245" lon="32.4996341">
<ele>20.11</ele>
<time>2015-04-24T19:08:34Z</time>
</trkpt>
<trkpt lat="35.0981715" lon="32.4996665">
<ele>20.02</ele>
<time>2015-04-24T19:08:35Z</time>
</trkpt>
<trkpt lat="35.0982223" lon="32.4996991">
<ele>19.97</ele>
<time>2015-04-24T19:08:36Z</time>
</trkpt>
<trkpt lat="35.0982694" lon="32.4997250">
<ele>19.95</ele>
<time>2015-04-24T19:08:37Z</time>
</trkpt>
<trkpt lat="35.0983176" lon="32.4997601">
<ele>19.94</ele>
<time>2015-04-24T19:08:38Z</time>
</trkpt>
<trkpt lat="35.0983687" lon="32.4997990">
<ele>19.43</ele>
<time>2015-04-24T19:08:39Z</time>
</trkpt>
<trkpt lat="35.0984197" lon="32.4998328">
<ele>19.68</ele>
<time>2015-04-24T19:08:40Z</time>
</trkpt>
<trkpt lat="35.0984737" lon="32.4998706">
<ele>19.80</ele>
<time>2015-04-24T19:08:41Z</time>
</trkpt>
<trkpt lat="35.0985242" lon="32.4999093">
<ele>19.86</ele>
<time>2015-04-24T19:08:42Z</time>
</trkpt>
<trkpt lat="35.0985789" lon="32.4999516">
<ele>20.39</ele>
<time>2015-04-24T19:08:43Z</time>
</trkpt>
<trkpt lat="35.0986343" lon="32.4999880">
<ele>20.66</ele>
<time>2015-04-24T19:08:44Z</time>
</trkpt>
<trkpt lat="35.0986772" lon="32.5000150">
<ele>20.79</ele>
<time>2015-04-24T19:08:45Z</time>
</trkpt>
<trkpt lat="35.0987207" lon="32.5000517">
<ele>20.86</ele>
<time>2015-04-24T19:08:46Z</time>
</trkpt>
<trkpt lat="35.0987673" lon="32.5000842">
<ele>20.89</ele>
<time>2015-04-24T19:08:47Z</time>
</trkpt>
<trkpt lat="35.0988140" lon="32.5001187">
<ele>20.91</ele>
<time>2015-04-24T19:08:48Z</time>
</trkpt>
<trkpt lat="35.0988600" lon="32.5001476">
<ele>20.92</ele>
<time>2015-04-24T19:08:49Z</time>
</trkpt>
<trkpt lat="35.0989055" lon="32.5001802">
<ele>20.92</ele>
<time>2015-04-24T19:08:50Z</time>
</trkpt>
<trkpt lat="35.0989630" lon="32.5002090">
<ele>20.92</ele>
<time>2015-04-24T19:08:51Z</time>
</trkpt>
<trkpt lat="35.0990134" lon="32.5002434">
<ele>20.92</ele>
<time>2015-04-24T19:08:52Z</time>
</trkpt>
<trkpt lat="35.0990594" lon="32.5002812">
<ele>20.92</ele>
<time>2015-04-24T19:08:53Z</time>
</trkpt>
<trkpt lat="35.0991091" lon="32.5003166">
<ele>21.42</ele>
<time>2015-04-24T19:08:54Z</time>
</trkpt>
<trkpt lat="35.0991564" lon="32.5003555">
<ele>21.67</ele>
<time>2015-04-24T19:08:55Z</time>
</trkpt>
<trkpt lat="35.0992033" lon="32.5003910">
<ele>21.80</ele>
<time>2015-04-24T19:08:56Z</time>
</trkpt>
<trkpt lat="35.0992510" lon="32.5004245">
<ele>21.36</ele>
<time>2015-04-24T19:08:57Z</time>
</trkpt>
<trkpt lat="35.0992971" lon="32.5004570">
<ele>21.14</ele>
<time>2015-04-24T19:08:58Z</time>
</trkpt>
<trkpt lat="35.0993374" lon="32.5004841">
<ele>21.03</ele>
<time>2015-04-24T19:08:59Z</time>
</trkpt>
<trkpt lat="35.0993817" lon="32.5005157">
<ele>20.98</ele>
<time>2015-04-24T19:09:00Z</time>
</trkpt>
<trkpt lat="35.0994188" lon="32.5005468">
<ele>20.95</ele>
<time>2015-04-24T19:09:01Z</time>
</trkpt>
<trkpt lat="35.0994938" lon="32.5006059">
<ele>20.93</ele>
<time>2015-04-24T19:09:03Z</time>
</trkpt>
<trkpt lat="35.0995359" lon="32.5006370">
<ele>20.93</ele>
<time>2015-04-24T19:09:04Z</time>
</trkpt>
<trkpt lat="35.0995903" lon="32.5006699">
<ele>21.43</ele>
<time>2015-04-24T19:09:05Z</time>
</trkpt>
<trkpt lat="35.0996353" lon="32.5007022">
<ele>21.68</ele>
<time>2015-04-24T19:09:06Z</time>
</trkpt>
<trkpt lat="35.0996878" lon="32.5007442">
<ele>21.80</ele>
<time>2015-04-24T19:09:07Z</time>
</trkpt>
<trkpt lat="35.0997364" lon="32.5007794">
<ele>21.86</ele>
<time>2015-04-24T19:09:08Z</time>
</trkpt>
<trkpt lat="35.0997901" lon="32.5008073">
<ele>21.89</ele>
<time>2015-04-24T19:09:09Z</time>
</trkpt>
<trkpt lat="35.0998413" lon="32.5008413">
<ele>22.41</ele>
<time>2015-04-24T19:09:10Z</time>
</trkpt>
<trkpt lat="35.0998928" lon="32.5008710">
<ele>22.17</ele>
<time>2015-04-24T19:09:11Z</time>
</trkpt>
<trkpt lat="35.0999418" lon="32.5009060">
<ele>22.05</ele>
<time>2015-04-24T19:09:12Z</time>
</trkpt>
<trkpt lat="35.0999811" lon="32.5009455">
<ele>21.99</ele>
<time>2015-04-24T19:09:13Z</time>
</trkpt>
<trkpt lat="35.1000273" lon="32.5009797">
<ele>21.96</ele>
<time>2015-04-24T19:09:14Z</time>
</trkpt>
<trkpt lat="35.1000712" lon="32.5010139">
<ele>21.94</ele>
<time>2015-04-24T19:09:15Z</time>
</trkpt>
<trkpt lat="35.1001123" lon="32.5010484">
<ele>21.93</ele>
<time>2015-04-24T19:09:16Z</time>
</trkpt>
<trkpt lat="35.1001504" lon="32.5010799">
<ele>21.93</ele>
<time>2015-04-24T19:09:17Z</time>
</trkpt>
<trkpt lat="35.1001913" lon="32.5011108">
<ele>21.93</ele>
<time>2015-04-24T19:09:18Z</time>
</trkpt>
<trkpt lat="35.1002719" lon="32.5011654">
<ele>21.93</ele>
<time>2015-04-24T19:09:20Z</time>
</trkpt>
<trkpt lat="35.1003152" lon="32.5011918">
<ele>21.93</ele>
<time>2015-04-24T19:09:21Z</time>
</trkpt>
<trkpt lat="35.1003566" lon="32.5012201">
<ele>21.93</ele>
<time>2015-04-24T19:09:22Z</time>
</trkpt>
<trkpt lat="35.1003974" lon="32.5012506">
<ele>21.93</ele>
<time>2015-04-24T19:09:23Z</time>
</trkpt>
<trkpt lat="35.1004383" lon="32.5012793">
<ele>21.93</ele>
<time>2015-04-24T19:09:24Z</time>
</trkpt>
<trkpt lat="35.1005109" lon="32.5013274">
<ele>21.93</ele>
<time>2015-04-24T19:09:26Z</time>
</trkpt>
<trkpt lat="35.1005886" lon="32.5013848">
<ele>21.93</ele>
<time>2015-04-24T19:09:28Z</time>
</trkpt>
<trkpt lat="35.1006355" lon="32.5014000">
<ele>21.93</ele>
<time>2015-04-24T19:09:29Z</time>
</trkpt>
<trkpt lat="35.1006794" lon="32.5014292">
<ele>21.93</ele>
<time>2015-04-24T19:09:30Z</time>
</trkpt>
<trkpt lat="35.1007187" lon="32.5014627">
<ele>21.93</ele>
<time>2015-04-24T19:09:31Z</time>
</trkpt>
<trkpt lat="35.1007595" lon="32.5014937">
<ele>21.92</ele>
<time>2015-04-24T19:09:32Z</time>
</trkpt>
<trkpt lat="35.1008021" lon="32.5015181">
<ele>21.92</ele>
<time>2015-04-24T19:09:33Z</time>
</trkpt>
<trkpt lat="35.1008442" lon="32.5015472">
<ele>21.92</ele>
<time>2015-04-24T19:09:34Z</time>
</trkpt>
<trkpt lat="35.1008860" lon="32.5015843">
<ele>21.92</ele>
<time>2015-04-24T19:09:35Z</time>
</trkpt>
<trkpt lat="35.1009284" lon="32.5016167">
<ele>21.92</ele>
<time>2015-04-24T19:09:36Z</time>
</trkpt>
<trkpt lat="35.1010088" lon="32.5016608">
<ele>21.92</ele>
<time>2015-04-24T19:09:38Z</time>
</trkpt>
<trkpt lat="35.1010833" lon="32.5017097">
<ele>21.92</ele>
<time>2015-04-24T19:09:40Z</time>
</trkpt>
<trkpt lat="35.1011288" lon="32.5017403">
<ele>21.92</ele>
<time>2015-04-24T19:09:41Z</time>
</trkpt>
<trkpt lat="35.1011724" lon="32.5017658">
<ele>22.42</ele>
<time>2015-04-24T19:09:42Z</time>
</trkpt>
<trkpt lat="35.1012175" lon="32.5018008">
<ele>22.67</ele>
<time>2015-04-24T19:09:43Z</time>
</trkpt>
<trkpt lat="35.1012692" lon="32.5018306">
<ele>22.80</ele>
<time>2015-04-24T19:09:44Z</time>
</trkpt>
<trkpt lat="35.1013175" lon="32.5018620">
<ele>22.86</ele>
<time>2015-04-24T19:09:45Z</time>
</trkpt>
<trkpt lat="35.1013685" lon="32.5018945">
<ele>22.89</ele>
<time>2015-04-24T19:09:46Z</time>
</trkpt>
<trkpt lat="35.1014182" lon="32.5019270">
<ele>22.91</ele>
<time>2015-04-24T19:09:47Z</time>
</trkpt>
<trkpt lat="35.1014674" lon="32.5019563">
<ele>22.42</ele>
<time>2015-04-24T19:09:48Z</time>
</trkpt>
<trkpt lat="35.1015168" lon="32.5019813">
<ele>22.17</ele>
<time>2015-04-24T19:09:49Z</time>
</trkpt>
<trkpt lat="35.1015546" lon="32.5020126">
<ele>22.55</ele>
<time>2015-04-24T19:09:50Z</time>
</trkpt>
<trkpt lat="35.1016057" lon="32.5020329">
<ele>23.24</ele>
<time>2015-04-24T19:09:51Z</time>
</trkpt>
<trkpt lat="35.1016906" lon="32.5020841">
<ele>23.00</ele>
<time>2015-04-24T19:09:53Z</time>
</trkpt>
<trkpt lat="35.1017419" lon="32.5021182">
<ele>22.96</ele>
<time>2015-04-24T19:09:54Z</time>
</trkpt>
<trkpt lat="35.1017950" lon="32.5021398">
<ele>23.44</ele>
<time>2015-04-24T19:09:55Z</time>
</trkpt>
<trkpt lat="35.1018464" lon="32.5021635">
<ele>23.68</ele>
<time>2015-04-24T19:09:56Z</time>
</trkpt>
<trkpt lat="35.1019029" lon="32.5021992">
<ele>23.30</ele>
<time>2015-04-24T19:09:57Z</time>
</trkpt>
<trkpt lat="35.1019508" lon="32.5022295">
<ele>23.61</ele>
<time>2015-04-24T19:09:58Z</time>
</trkpt>
<trkpt lat="35.1020021" lon="32.5022569">
<ele>23.77</ele>
<time>2015-04-24T19:09:59Z</time>
</trkpt>
<trkpt lat="35.1020460" lon="32.5022806">
<ele>23.35</ele>
<time>2015-04-24T19:10:00Z</time>
</trkpt>
<trkpt lat="35.1020932" lon="32.5023046">
<ele>23.14</ele>
<time>2015-04-24T19:10:01Z</time>
</trkpt>
<trkpt lat="35.1021663" lon="32.5023540">
<ele>23.73</ele>
<time>2015-04-24T19:10:03Z</time>
</trkpt>
<trkpt lat="35.1022174" lon="32.5023812">
<ele>23.83</ele>
<time>2015-04-24T19:10:04Z</time>
</trkpt>
<trkpt lat="35.1022650" lon="32.5024072">
<ele>23.88</ele>
<time>2015-04-24T19:10:05Z</time>
</trkpt>
<trkpt lat="35.1023077" lon="32.5024324">
<ele>23.40</ele>
<time>2015-04-24T19:10:06Z</time>
</trkpt>
<trkpt lat="35.1023930" lon="32.5024788">
<ele>23.04</ele>
<time>2015-04-24T19:10:08Z</time>
</trkpt>
<trkpt lat="35.1024374" lon="32.5025036">
<ele>22.98</ele>
<time>2015-04-24T19:10:09Z</time>
</trkpt>
<trkpt lat="35.1025086" lon="32.5025494">
<ele>22.19</ele>
<time>2015-04-24T19:10:11Z</time>
</trkpt>
<trkpt lat="35.1025755" lon="32.5025967">
<ele>21.74</ele>
<time>2015-04-24T19:10:13Z</time>
</trkpt>
<trkpt lat="35.1026366" lon="32.5026300">
<ele>21.13</ele>
<time>2015-04-24T19:10:15Z</time>
</trkpt>
<trkpt lat="35.1027027" lon="32.5026696">
<ele>21.73</ele>
<time>2015-04-24T19:10:17Z</time>
</trkpt>
<trkpt lat="35.1027482" lon="32.5026938">
<ele>21.83</ele>
<time>2015-04-24T19:10:18Z</time>
</trkpt>
<trkpt lat="35.1027866" lon="32.5027236">
<ele>21.88</ele>
<time>2015-04-24T19:10:19Z</time>
</trkpt>
<trkpt lat="35.1028591" lon="32.5027668">
<ele>21.16</ele>
<time>2015-04-24T19:10:21Z</time>
</trkpt>
<trkpt lat="35.1029048" lon="32.5028050">
<ele>21.04</ele>
<time>2015-04-24T19:10:22Z</time>
</trkpt>
<trkpt lat="35.1029438" lon="32.5028336">
<ele>20.98</ele>
<time>2015-04-24T19:10:23Z</time>
</trkpt>
<trkpt lat="35.1029875" lon="32.5028600">
<ele>20.95</ele>
<time>2015-04-24T19:10:24Z</time>
</trkpt>
<trkpt lat="35.1030272" lon="32.5028861">
<ele>20.94</ele>
<time>2015-04-24T19:10:25Z</time>
</trkpt>
<trkpt lat="35.1030908" lon="32.5029321">
<ele>20.93</ele>
<time>2015-04-24T19:10:27Z</time>
</trkpt>
<trkpt lat="35.1031468" lon="32.5029938">
<ele>20.93</ele>
<time>2015-04-24T19:10:29Z</time>
</trkpt>
<trkpt lat="35.1032108" lon="32.5030384">
<ele>20.93</ele>
<time>2015-04-24T19:10:31Z</time>
</trkpt>
<trkpt lat="35.1032600" lon="32.5030686">
<ele>20.93</ele>
<time>2015-04-24T19:10:33Z</time>
</trkpt>
<trkpt lat="35.1033110" lon="32.5031090">
<ele>20.93</ele>
<time>2015-04-24T19:10:35Z</time>
</trkpt>
<trkpt lat="35.1033590" lon="32.5031422">
<ele>20.18</ele>
<time>2015-04-24T19:10:37Z</time>
</trkpt>
<trkpt lat="35.1034012" lon="32.5031750">
<ele>20.74</ele>
<time>2015-04-24T19:10:39Z</time>
</trkpt>
<trkpt lat="35.1034489" lon="32.5032090">
<ele>21.63</ele>
<time>2015-04-24T19:10:41Z</time>
</trkpt>
<trkpt lat="35.1035079" lon="32.5032506">
<ele>21.85</ele>
<time>2015-04-24T19:10:43Z</time>
</trkpt>
<trkpt lat="35.1035746" lon="32.5033031">
<ele>21.91</ele>
<time>2015-04-24T19:10:45Z</time>
</trkpt>
<trkpt lat="35.1036319" lon="32.5033504">
<ele>21.92</ele>
<time>2015-04-24T19:10:47Z</time>
</trkpt>
<trkpt lat="35.1036763" lon="32.5033892">
<ele>21.92</ele>
<time>2015-04-24T19:10:49Z</time>
</trkpt>
<trkpt lat="35.1037193" lon="32.5034244">
<ele>21.92</ele>
<time>2015-04-24T19:10:51Z</time>
</trkpt>
<trkpt lat="35.1037766" lon="32.5034638">
<ele>21.92</ele>
<time>2015-04-24T19:10:54Z</time>
</trkpt>
<trkpt lat="35.1038208" lon="32.5034919">
<ele>21.92</ele>
<time>2015-04-24T19:10:56Z</time>
</trkpt>
<trkpt lat="35.1038713" lon="32.5035314">
<ele>21.92</ele>
<time>2015-04-24T19:10:58Z</time>
</trkpt>
<trkpt lat="35.1039284" lon="32.5035767">
<ele>22.42</ele>
<time>2015-04-24T19:11:00Z</time>
</trkpt>
<trkpt lat="35.1039891" lon="32.5036170">
<ele>22.30</ele>
<time>2015-04-24T19:11:02Z</time>
</trkpt>
<trkpt lat="35.1040594" lon="32.5036575">
<ele>22.52</ele>
<time>2015-04-24T19:11:04Z</time>
</trkpt>
<trkpt lat="35.1041320" lon="32.5036956">
<ele>22.82</ele>
<time>2015-04-24T19:11:06Z</time>
</trkpt>
<trkpt lat="35.1042063" lon="32.5037315">
<ele>22.90</ele>
<time>2015-04-24T19:11:08Z</time>
</trkpt>
<trkpt lat="35.1042912" lon="32.5037693">
<ele>22.92</ele>
<time>2015-04-24T19:11:10Z</time>
</trkpt>
<trkpt lat="35.1043346" lon="32.5037889">
<ele>22.92</ele>
<time>2015-04-24T19:11:11Z</time>
</trkpt>
<trkpt lat="35.1043842" lon="32.5038003">
<ele>22.92</ele>
<time>2015-04-24T19:11:12Z</time>
</trkpt>
<trkpt lat="35.1044274" lon="32.5038169">
<ele>22.92</ele>
<time>2015-04-24T19:11:13Z</time>
</trkpt>
<trkpt lat="35.1045027" lon="32.5038477">
<ele>22.92</ele>
<time>2015-04-24T19:11:15Z</time>
</trkpt>
<trkpt lat="35.1045513" lon="32.5038539">
<ele>22.42</ele>
<time>2015-04-24T19:11:16Z</time>
</trkpt>
<trkpt lat="35.1045986" lon="32.5038620">
<ele>22.17</ele>
<time>2015-04-24T19:11:17Z</time>
</trkpt>
<trkpt lat="35.1046545" lon="32.5038782">
<ele>22.05</ele>
<time>2015-04-24T19:11:18Z</time>
</trkpt>
<trkpt lat="35.1047074" lon="32.5038869">
<ele>21.99</ele>
<time>2015-04-24T19:11:19Z</time>
</trkpt>
<trkpt lat="35.1047662" lon="32.5039131">
<ele>22.46</ele>
<time>2015-04-24T19:11:20Z</time>
</trkpt>
<trkpt lat="35.1048210" lon="32.5039259">
<ele>22.69</ele>
<time>2015-04-24T19:11:21Z</time>
</trkpt>
<trkpt lat="35.1048748" lon="32.5039322">
<ele>22.81</ele>
<time>2015-04-24T19:11:22Z</time>
</trkpt>
<trkpt lat="35.1049280" lon="32.5039426">
<ele>22.87</ele>
<time>2015-04-24T19:11:23Z</time>
</trkpt>
<trkpt lat="35.1049797" lon="32.5039507">
<ele>22.90</ele>
<time>2015-04-24T19:11:24Z</time>
</trkpt>
<trkpt lat="35.1050323" lon="32.5039577">
<ele>22.41</ele>
<time>2015-04-24T19:11:25Z</time>
</trkpt>
<trkpt lat="35.1050790" lon="32.5039679">
<ele>22.17</ele>
<time>2015-04-24T19:11:26Z</time>
</trkpt>
<trkpt lat="35.1051288" lon="32.5039777">
<ele>22.05</ele>
<time>2015-04-24T19:11:27Z</time>
</trkpt>
<trkpt lat="35.1051771" lon="32.5039798">
<ele>21.99</ele>
<time>2015-04-24T19:11:28Z</time>
</trkpt>
<trkpt lat="35.1052265" lon="32.5039875">
<ele>21.96</ele>
<time>2015-04-24T19:11:29Z</time>
</trkpt>
<trkpt lat="35.1053167" lon="32.5040055">
<ele>21.93</ele>
<time>2015-04-24T19:11:31Z</time>
</trkpt>
<trkpt lat="35.1053612" lon="32.5040157">
<ele>21.93</ele>
<time>2015-04-24T19:11:32Z</time>
</trkpt>
<trkpt lat="35.1054092" lon="32.5040252">
<ele>21.93</ele>
<time>2015-04-24T19:11:33Z</time>
</trkpt>
<trkpt lat="35.1054698" lon="32.5040414">
<ele>21.93</ele>
<time>2015-04-24T19:11:34Z</time>
</trkpt>
<trkpt lat="35.1055216" lon="32.5040566">
<ele>21.93</ele>
<time>2015-04-24T19:11:35Z</time>
</trkpt>
<trkpt lat="35.1055677" lon="32.5040711">
<ele>21.43</ele>
<time>2015-04-24T19:11:36Z</time>
</trkpt>
<trkpt lat="35.1056157" lon="32.5040883">
<ele>21.18</ele>
<time>2015-04-24T19:11:37Z</time>
</trkpt>
<trkpt lat="35.1056594" lon="32.5041184">
<ele>20.55</ele>
<time>2015-04-24T19:11:38Z</time>
</trkpt>
<trkpt lat="35.1057044" lon="32.5041389">
<ele>20.24</ele>
<time>2015-04-24T19:11:39Z</time>
</trkpt>
<trkpt lat="35.1057850" lon="32.5041850">
<ele>19.50</ele>
<time>2015-04-24T19:11:41Z</time>
</trkpt>
<trkpt lat="35.1058376" lon="32.5042133">
<ele>19.71</ele>
<time>2015-04-24T19:11:42Z</time>
</trkpt>
<trkpt lat="35.1058810" lon="32.5042364">
<ele>19.82</ele>
<time>2015-04-24T19:11:43Z</time>
</trkpt>
<trkpt lat="35.1059218" lon="32.5042631">
<ele>20.37</ele>
<time>2015-04-24T19:11:44Z</time>
</trkpt>
<trkpt lat="35.1059616" lon="32.5042902">
<ele>20.65</ele>
<time>2015-04-24T19:11:45Z</time>
</trkpt>
<trkpt lat="35.1060382" lon="32.5043325">
<ele>20.86</ele>
<time>2015-04-24T19:11:47Z</time>
</trkpt>
<trkpt lat="35.1061026" lon="32.5043743">
<ele>20.91</ele>
<time>2015-04-24T19:11:49Z</time>
</trkpt>
<trkpt lat="35.1061599" lon="32.5044160">
<ele>20.92</ele>
<time>2015-04-24T19:11:51Z</time>
</trkpt>
<trkpt lat="35.1062252" lon="32.5044566">
<ele>21.17</ele>
<time>2015-04-24T19:11:53Z</time>
</trkpt>
<trkpt lat="35.1062818" lon="32.5044943">
<ele>20.99</ele>
<time>2015-04-24T19:11:55Z</time>
</trkpt>
<trkpt lat="35.1063408" lon="32.5045385">
<ele>20.94</ele>
<time>2015-04-24T19:11:57Z</time>
</trkpt>
<trkpt lat="35.1063842" lon="32.5045676">
<ele>20.93</ele>
<time>2015-04-24T19:11:58Z</time>
</trkpt>
<trkpt lat="35.1064308" lon="32.5045987">
<ele>21.43</ele>
<time>2015-04-24T19:11:59Z</time>
</trkpt>
<trkpt lat="35.1064725" lon="32.5046280">
<ele>21.68</ele>
<time>2015-04-24T19:12:00Z</time>
</trkpt>
<trkpt lat="35.1065173" lon="32.5046559">
<ele>21.80</ele>
<time>2015-04-24T19:12:01Z</time>
</trkpt>
<trkpt lat="35.1065615" lon="32.5046847">
<ele>21.36</ele>
<time>2015-04-24T19:12:02Z</time>
</trkpt>
<trkpt lat="35.1066034" lon="32.5047122">
<ele>21.14</ele>
<time>2015-04-24T19:12:03Z</time>
</trkpt>
<trkpt lat="35.1066748" lon="32.5047636">
<ele>21.73</ele>
<time>2015-04-24T19:12:05Z</time>
</trkpt>
<trkpt lat="35.1067111" lon="32.5047992">
<ele>21.83</ele>
<time>2015-04-24T19:12:06Z</time>
</trkpt>
<trkpt lat="35.1067511" lon="32.5048286">
<ele>21.88</ele>
<time>2015-04-24T19:12:07Z</time>
</trkpt>
<trkpt lat="35.1067969" lon="32.5048515">
<ele>21.90</ele>
<time>2015-04-24T19:12:08Z</time>
</trkpt>
<trkpt lat="35.1068404" lon="32.5048777">
<ele>21.91</ele>
<time>2015-04-24T19:12:09Z</time>
</trkpt>
<trkpt lat="35.1069155" lon="32.5049322">
<ele>21.92</ele>
<time>2015-04-24T19:12:11Z</time>
</trkpt>
<trkpt lat="35.1069860" lon="32.5049781">
<ele>21.92</ele>
<time>2015-04-24T19:12:13Z</time>
</trkpt>
<trkpt lat="35.1070574" lon="32.5050265">
<ele>21.92</ele>
<time>2015-04-24T19:12:15Z</time>
</trkpt>
<trkpt lat="35.1071278" lon="32.5050741">
<ele>21.92</ele>
<time>2015-04-24T19:12:17Z</time>
</trkpt>
<trkpt lat="35.1071986" lon="32.5051173">
<ele>21.92</ele>
<time>2015-04-24T19:12:19Z</time>
</trkpt>
<trkpt lat="35.1072394" lon="32.5051510">
<ele>21.92</ele>
<time>2015-04-24T19:12:20Z</time>
</trkpt>
<trkpt lat="35.1072792" lon="32.5051782">
<ele>21.92</ele>
<time>2015-04-24T19:12:21Z</time>
</trkpt>
<trkpt lat="35.1073495" lon="32.5052201">
<ele>21.92</ele>
<time>2015-04-24T19:12:23Z</time>
</trkpt>
<trkpt lat="35.1074276" lon="32.5052619">
<ele>21.92</ele>
<time>2015-04-24T19:12:25Z</time>
</trkpt>
<trkpt lat="35.1074922" lon="32.5053149">
<ele>21.92</ele>
<time>2015-04-24T19:12:27Z</time>
</trkpt>
<trkpt lat="35.1075554" lon="32.5053542">
<ele>21.92</ele>
<time>2015-04-24T19:12:29Z</time>
</trkpt>
<trkpt lat="35.1076130" lon="32.5053976">
<ele>21.92</ele>
<time>2015-04-24T19:12:31Z</time>
</trkpt>
<trkpt lat="35.1076820" lon="32.5054439">
<ele>21.92</ele>
<time>2015-04-24T19:12:33Z</time>
</trkpt>
<trkpt lat="35.1077281" lon="32.5054770">
<ele>21.92</ele>
<time>2015-04-24T19:12:34Z</time>
</trkpt>
<trkpt lat="35.1077681" lon="32.5055057">
<ele>21.92</ele>
<time>2015-04-24T19:12:35Z</time>
</trkpt>
<trkpt lat="35.1078133" lon="32.5055408">
<ele>21.92</ele>
<time>2015-04-24T19:12:36Z</time>
</trkpt>
<trkpt lat="35.1078555" lon="32.5055711">
<ele>21.92</ele>
<time>2015-04-24T19:12:37Z</time>
</trkpt>
<trkpt lat="35.1079340" lon="32.5056222">
<ele>21.92</ele>
<time>2015-04-24T19:12:39Z</time>
</trkpt>
<trkpt lat="35.1080043" lon="32.5056742">
<ele>21.92</ele>
<time>2015-04-24T19:12:41Z</time>
</trkpt>
<trkpt lat="35.1080744" lon="32.5057211">
<ele>21.92</ele>
<time>2015-04-24T19:12:43Z</time>
</trkpt>
<trkpt lat="35.1081422" lon="32.5057801">
<ele>21.92</ele>
<time>2015-04-24T19:12:45Z</time>
</trkpt>
<trkpt lat="35.1081825" lon="32.5058050">
<ele>21.92</ele>
<time>2015-04-24T19:12:46Z</time>
</trkpt>
<trkpt lat="35.1082546" lon="32.5058533">
<ele>22.17</ele>
<time>2015-04-24T19:12:48Z</time>
</trkpt>
<trkpt lat="35.1083250" lon="32.5058997">
<ele>22.49</ele>
<time>2015-04-24T19:12:50Z</time>
</trkpt>
<trkpt lat="35.1083996" lon="32.5059492">
<ele>22.82</ele>
<time>2015-04-24T19:12:52Z</time>
</trkpt>
<trkpt lat="35.1084920" lon="32.5060040">
<ele>22.90</ele>
<time>2015-04-24T19:12:54Z</time>
</trkpt>
<trkpt lat="35.1085342" lon="32.5060338">
<ele>22.91</ele>
<time>2015-04-24T19:12:55Z</time>
</trkpt>
<trkpt lat="35.1085746" lon="32.5060660">
<ele>22.92</ele>
<time>2015-04-24T19:12:56Z</time>
</trkpt>
<trkpt lat="35.1086136" lon="32.5060948">
<ele>22.92</ele>
<time>2015-04-24T19:12:57Z</time>
</trkpt>
<trkpt lat="35.1086869" lon="32.5061390">
<ele>22.17</ele>
<time>2015-04-24T19:12:59Z</time>
</trkpt>
<trkpt lat="35.1087539" lon="32.5061848">
<ele>21.99</ele>
<time>2015-04-24T19:13:01Z</time>
</trkpt>
<trkpt lat="35.1088289" lon="32.5062385">
<ele>22.19</ele>
<time>2015-04-24T19:13:03Z</time>
</trkpt>
<trkpt lat="35.1089084" lon="32.5062913">
<ele>21.99</ele>
<time>2015-04-24T19:13:05Z</time>
</trkpt>
<trkpt lat="35.1089471" lon="32.5063293">
<ele>22.46</ele>
<time>2015-04-24T19:13:06Z</time>
</trkpt>
<trkpt lat="35.1090172" lon="32.5063767">
<ele>22.81</ele>
<time>2015-04-24T19:13:08Z</time>
</trkpt>
<trkpt lat="35.1090877" lon="32.5064186">
<ele>22.90</ele>
<time>2015-04-24T19:13:10Z</time>
</trkpt>
<trkpt lat="35.1091670" lon="32.5064706">
<ele>22.92</ele>
<time>2015-04-24T19:13:12Z</time>
</trkpt>
<trkpt lat="35.1092097" lon="32.5064989">
<ele>22.92</ele>
<time>2015-04-24T19:13:13Z</time>
</trkpt>
<trkpt lat="35.1092562" lon="32.5065376">
<ele>22.92</ele>
<time>2015-04-24T19:13:14Z</time>
</trkpt>
<trkpt lat="35.1092999" lon="32.5065680">
<ele>22.92</ele>
<time>2015-04-24T19:13:15Z</time>
</trkpt>
<trkpt lat="35.1093415" lon="32.5065931">
<ele>22.92</ele>
<time>2015-04-24T19:13:16Z</time>
</trkpt>
<trkpt lat="35.1093809" lon="32.5066218">
<ele>22.92</ele>
<time>2015-04-24T19:13:17Z</time>
</trkpt>
<trkpt lat="35.1094475" lon="32.5066739">
<ele>22.92</ele>
<time>2015-04-24T19:13:19Z</time>
</trkpt>
<trkpt lat="35.1095145" lon="32.5067226">
<ele>22.92</ele>
<time>2015-04-24T19:13:21Z</time>
</trkpt>
<trkpt lat="35.1095906" lon="32.5067744">
<ele>23.42</ele>
<time>2015-04-24T19:13:23Z</time>
</trkpt>
<trkpt lat="35.1096336" lon="32.5068057">
<ele>23.67</ele>
<time>2015-04-24T19:13:24Z</time>
</trkpt>
<trkpt lat="35.1096986" lon="32.5068483">
<ele>23.86</ele>
<time>2015-04-24T19:13:26Z</time>
</trkpt>
<trkpt lat="35.1097586" lon="32.5068911">
<ele>23.91</ele>
<time>2015-04-24T19:13:28Z</time>
</trkpt>
<trkpt lat="35.1098260" lon="32.5069286">
<ele>23.92</ele>
<time>2015-04-24T19:13:30Z</time>
</trkpt>
<trkpt lat="35.1098886" lon="32.5069774">
<ele>23.92</ele>
<time>2015-04-24T19:13:32Z</time>
</trkpt>
<trkpt lat="35.1099554" lon="32.5070195">
<ele>23.92</ele>
<time>2015-04-24T19:13:34Z</time>
</trkpt>
<trkpt lat="35.1100189" lon="32.5070652">
<ele>23.92</ele>
<time>2015-04-24T19:13:36Z</time>
</trkpt>
<trkpt lat="35.1100886" lon="32.5071142">
<ele>23.92</ele>
<time>2015-04-24T19:13:38Z</time>
</trkpt>
<trkpt lat="35.1101673" lon="32.5071752">
<ele>23.92</ele>
<time>2015-04-24T19:13:40Z</time>
</trkpt>
<trkpt lat="35.1102394" lon="32.5072104">
<ele>24.42</ele>
<time>2015-04-24T19:13:42Z</time>
</trkpt>
<trkpt lat="35.1103013" lon="32.5072537">
<ele>24.05</ele>
<time>2015-04-24T19:13:44Z</time>
</trkpt>
<trkpt lat="35.1103628" lon="32.5072956">
<ele>23.96</ele>
<time>2015-04-24T19:13:46Z</time>
</trkpt>
<trkpt lat="35.1104225" lon="32.5073356">
<ele>23.93</ele>
<time>2015-04-24T19:13:48Z</time>
</trkpt>
<trkpt lat="35.1104789" lon="32.5073722">
<ele>23.93</ele>
<time>2015-04-24T19:13:50Z</time>
</trkpt>
<trkpt lat="35.1105363" lon="32.5074104">
<ele>23.93</ele>
<time>2015-04-24T19:13:52Z</time>
</trkpt>
<trkpt lat="35.1105868" lon="32.5074473">
<ele>23.93</ele>
<time>2015-04-24T19:13:54Z</time>
</trkpt>
<trkpt lat="35.1106251" lon="32.5074969">
<ele>23.43</ele>
<time>2015-04-24T19:13:57Z</time>
</trkpt>
<trkpt lat="35.1106486" lon="32.5075556">
<ele>23.36</ele>
<time>2015-04-24T19:14:00Z</time>
</trkpt>
<trkpt lat="35.1106846" lon="32.5075942">
<ele>20.98</ele>
<time>2015-04-24T19:14:03Z</time>
</trkpt>
<trkpt lat="35.1107322" lon="32.5076448">
<ele>21.05</ele>
<time>2015-04-24T19:14:15Z</time>
</trkpt>
<trkpt lat="35.1107968" lon="32.5076723">
<ele>20.68</ele>
<time>2015-04-24T19:14:19Z</time>
</trkpt>
<trkpt lat="35.1108388" lon="32.5077153">
<ele>16.39</ele>
<time>2015-04-24T19:14:22Z</time>
</trkpt>
<trkpt lat="35.1108582" lon="32.5077796">
<ele>15.98</ele>
<time>2015-04-24T19:14:25Z</time>
</trkpt>
<trkpt lat="35.1108401" lon="32.5078426">
<ele>15.93</ele>
<time>2015-04-24T19:14:29Z</time>
</trkpt>
<trkpt lat="35.1108164" lon="32.5078915">
<ele>17.89</ele>
<time>2015-04-24T19:14:41Z</time>
</trkpt>
</trkseg>
</trk>
</gpx>
